<?xml version='1.0' encoding='UTF-8'?><gpx version="1.1" creator="JPX - https://github.com/jenetics/jpx" xmlns="http://www.topografix.com/GPX/1/1"><trk><trkseg><trkpt lat="38.173775" lon="15.6710332"><ele>100.99999999999999</ele><time>2026-04-24T08:22:44.365Z</time></trkpt><trkpt lat="38.1737591" lon="15.6709367"><ele>101.0</ele><time>2026-04-24T08:26:12.366Z</time></trkpt><trkpt lat="38.1737943" lon="15.6708364"><ele>101.0</ele><time>2026-04-24T08:26:14.366Z</time></trkpt><trkpt lat="38.1738257" lon="15.6707001"><ele>101.0</ele><time>2026-04-24T08:26:16.365Z</time></trkpt><trkpt lat="38.1738362" lon="15.6706095"><ele>100.99999999999999</ele><time>2026-04-24T08:26:17.365Z</time></trkpt><trkpt lat="38.1738352" lon="15.670514"><ele>101.0</ele><time>2026-04-24T08:26:18.365Z</time></trkpt><trkpt lat="38.1738399" lon="15.6704266"><ele>101.0</ele><time>2026-04-24T08:26:19.366Z</time></trkpt><trkpt lat="38.1738709" lon="15.6703038"><ele>101.0</ele><time>2026-04-24T08:26:21.365Z</time></trkpt><trkpt lat="38.1739434" lon="15.6702006"><ele>101.0</ele><time>2026-04-24T08:26:23.365Z</time></trkpt><trkpt lat="38.1739749" lon="15.6701163"><ele>101.0</ele><time>2026-04-24T08:26:24.365Z</time></trkpt><trkpt lat="38.1740017" lon="15.6700033"><ele>101.0</ele><time>2026-04-24T08:26:25.365Z</time></trkpt><trkpt lat="38.1740033" lon="15.66989"><ele>100.49999999999999</ele><time>2026-04-24T08:26:26.365Z</time></trkpt><trkpt lat="38.174025" lon="15.6697767"><ele>100.0</ele><time>2026-04-24T08:26:27.365Z</time></trkpt><trkpt lat="38.1740433" lon="15.6696617"><ele>99.5</ele><time>2026-04-24T08:26:28.366Z</time></trkpt><trkpt lat="38.17405" lon="15.6695583"><ele>99.0</ele><time>2026-04-24T08:26:29.365Z</time></trkpt><trkpt lat="38.1740517" lon="15.669475"><ele>98.49999999999999</ele><time>2026-04-24T08:26:30.366Z</time></trkpt><trkpt lat="38.1740067" lon="15.66934"><ele>98.0</ele><time>2026-04-24T08:26:32.365Z</time></trkpt><trkpt lat="38.1739" lon="15.6692633"><ele>96.60000000000001</ele><time>2026-04-24T08:26:34.366Z</time></trkpt><trkpt lat="38.17381" lon="15.6691933"><ele>95.2</ele><time>2026-04-24T08:26:36.366Z</time></trkpt><trkpt lat="38.173765" lon="15.6690433"><ele>93.8</ele><time>2026-04-24T08:26:38.365Z</time></trkpt><trkpt lat="38.1737667" lon="15.6689467"><ele>92.4</ele><time>2026-04-24T08:26:39.366Z</time></trkpt><trkpt lat="38.1737833" lon="15.6688383"><ele>91.0</ele><time>2026-04-24T08:26:40.365Z</time></trkpt><trkpt lat="38.1737967" lon="15.6687317"><ele>91.0</ele><time>2026-04-24T08:26:41.366Z</time></trkpt><trkpt lat="38.1738233" lon="15.6686217"><ele>91.0</ele><time>2026-04-24T08:26:42.366Z</time></trkpt><trkpt lat="38.1738417" lon="15.668515"><ele>91.0</ele><time>2026-04-24T08:26:43.366Z</time></trkpt><trkpt lat="38.1738517" lon="15.6684083"><ele>91.0</ele><time>2026-04-24T08:26:44.365Z</time></trkpt><trkpt lat="38.1738533" lon="15.6683017"><ele>91.0</ele><time>2026-04-24T08:26:45.365Z</time></trkpt><trkpt lat="38.1738567" lon="15.6682033"><ele>91.0</ele><time>2026-04-24T08:26:46.366Z</time></trkpt><trkpt lat="38.17386" lon="15.6681133"><ele>90.16666666666666</ele><time>2026-04-24T08:26:47.366Z</time></trkpt><trkpt lat="38.1738633" lon="15.6680333"><ele>89.33333333333333</ele><time>2026-04-24T08:26:48.365Z</time></trkpt><trkpt lat="38.1738283" lon="15.66791"><ele>88.5</ele><time>2026-04-24T08:26:50.365Z</time></trkpt><trkpt lat="38.1737167" lon="15.66784"><ele>87.66666666666667</ele><time>2026-04-24T08:26:52.365Z</time></trkpt><trkpt lat="38.1736417" lon="15.6678167"><ele>86.83333333333334</ele><time>2026-04-24T08:26:53.365Z</time></trkpt><trkpt lat="38.1735633" lon="15.667795"><ele>86.0</ele><time>2026-04-24T08:26:54.366Z</time></trkpt><trkpt lat="38.1734717" lon="15.6677733"><ele>85.19999999999999</ele><time>2026-04-24T08:26:55.365Z</time></trkpt><trkpt lat="38.1733867" lon="15.66775"><ele>84.39999999999999</ele><time>2026-04-24T08:26:56.365Z</time></trkpt><trkpt lat="38.173305" lon="15.66773"><ele>83.6</ele><time>2026-04-24T08:26:57.365Z</time></trkpt><trkpt lat="38.1732267" lon="15.6677133"><ele>82.8</ele><time>2026-04-24T08:26:58.366Z</time></trkpt><trkpt lat="38.1731517" lon="15.6677033"><ele>82.0</ele><time>2026-04-24T08:26:59.365Z</time></trkpt><trkpt lat="38.173025" lon="15.6676833"><ele>81.6</ele><time>2026-04-24T08:27:01.366Z</time></trkpt><trkpt lat="38.1729183" lon="15.667665"><ele>81.19999999999999</ele><time>2026-04-24T08:27:03.365Z</time></trkpt><trkpt lat="38.1728417" lon="15.6676183"><ele>80.8</ele><time>2026-04-24T08:27:05.365Z</time></trkpt><trkpt lat="38.1728017" lon="15.6675117"><ele>80.4</ele><time>2026-04-24T08:27:07.366Z</time></trkpt><trkpt lat="38.17279" lon="15.6673583"><ele>80.0</ele><time>2026-04-24T08:27:09.366Z</time></trkpt><trkpt lat="38.1728017" lon="15.6672767"><ele>80.0</ele><time>2026-04-24T08:27:10.366Z</time></trkpt><trkpt lat="38.1728083" lon="15.66719"><ele>80.0</ele><time>2026-04-24T08:27:11.366Z</time></trkpt><trkpt lat="38.1728217" lon="15.6670933"><ele>80.0</ele><time>2026-04-24T08:27:12.365Z</time></trkpt><trkpt lat="38.1728283" lon="15.6669833"><ele>80.0</ele><time>2026-04-24T08:27:13.366Z</time></trkpt><trkpt lat="38.172835" lon="15.666865"><ele>80.0</ele><time>2026-04-24T08:27:14.366Z</time></trkpt><trkpt lat="38.17284" lon="15.6667633"><ele>80.0</ele><time>2026-04-24T08:27:15.365Z</time></trkpt><trkpt lat="38.172835" lon="15.6666517"><ele>79.66666666666667</ele><time>2026-04-24T08:27:16.365Z</time></trkpt><trkpt lat="38.1728417" lon="15.6665433"><ele>79.33333333333334</ele><time>2026-04-24T08:27:17.366Z</time></trkpt><trkpt lat="38.1728383" lon="15.6664283"><ele>79.0</ele><time>2026-04-24T08:27:18.365Z</time></trkpt><trkpt lat="38.1728383" lon="15.6663167"><ele>78.66666666666667</ele><time>2026-04-24T08:27:19.365Z</time></trkpt><trkpt lat="38.1728517" lon="15.6662183"><ele>78.33333333333333</ele><time>2026-04-24T08:27:20.365Z</time></trkpt><trkpt lat="38.1728633" lon="15.6661183"><ele>78.0</ele><time>2026-04-24T08:27:21.365Z</time></trkpt><trkpt lat="38.1728867" lon="15.66602"><ele>77.5</ele><time>2026-04-24T08:27:22.366Z</time></trkpt><trkpt lat="38.1729183" lon="15.665935"><ele>77.0</ele><time>2026-04-24T08:27:23.366Z</time></trkpt><trkpt lat="38.1729617" lon="15.6658567"><ele>76.5</ele><time>2026-04-24T08:27:24.366Z</time></trkpt><trkpt lat="38.1730017" lon="15.6657683"><ele>76.0</ele><time>2026-04-24T08:27:25.365Z</time></trkpt><trkpt lat="38.17304" lon="15.6656917"><ele>75.5</ele><time>2026-04-24T08:27:26.365Z</time></trkpt><trkpt lat="38.1731" lon="15.6655733"><ele>75.0</ele><time>2026-04-24T08:27:28.366Z</time></trkpt><trkpt lat="38.1731083" lon="15.6654883"><ele>75.0</ele><time>2026-04-24T08:27:32.366Z</time></trkpt><trkpt lat="38.1730517" lon="15.6654"><ele>75.0</ele><time>2026-04-24T08:28:26.365Z</time></trkpt><trkpt lat="38.1729933" lon="15.665325"><ele>75.0</ele><time>2026-04-24T08:28:28.366Z</time></trkpt><trkpt lat="38.1729217" lon="15.6652533"><ele>75.0</ele><time>2026-04-24T08:28:30.366Z</time></trkpt><trkpt lat="38.1728467" lon="15.6651783"><ele>75.0</ele><time>2026-04-24T08:28:32.365Z</time></trkpt><trkpt lat="38.17278" lon="15.6650967"><ele>74.33333333333333</ele><time>2026-04-24T08:28:34.366Z</time></trkpt><trkpt lat="38.1726967" lon="15.66502"><ele>73.66666666666667</ele><time>2026-04-24T08:28:36.365Z</time></trkpt><trkpt lat="38.172625" lon="15.664955"><ele>73.0</ele><time>2026-04-24T08:28:38.366Z</time></trkpt><trkpt lat="38.17256" lon="15.664905"><ele>72.33333333333334</ele><time>2026-04-24T08:28:40.366Z</time></trkpt><trkpt lat="38.1724983" lon="15.6648483"><ele>71.66666666666667</ele><time>2026-04-24T08:28:42.365Z</time></trkpt><trkpt lat="38.17243" lon="15.6647817"><ele>71.0</ele><time>2026-04-24T08:28:44.365Z</time></trkpt><trkpt lat="38.1723633" lon="15.664725"><ele>70.83333333333334</ele><time>2026-04-24T08:28:46.365Z</time></trkpt><trkpt lat="38.1722917" lon="15.6646717"><ele>70.66666666666667</ele><time>2026-04-24T08:28:48.365Z</time></trkpt><trkpt lat="38.17222" lon="15.6645933"><ele>70.5</ele><time>2026-04-24T08:28:50.365Z</time></trkpt><trkpt lat="38.1721467" lon="15.6645283"><ele>70.33333333333333</ele><time>2026-04-24T08:28:52.365Z</time></trkpt><trkpt lat="38.1720817" lon="15.664465"><ele>70.16666666666666</ele><time>2026-04-24T08:28:54.365Z</time></trkpt><trkpt lat="38.1720617" lon="15.6643617"><ele>70.0</ele><time>2026-04-24T08:28:57.365Z</time></trkpt><trkpt lat="38.1721017" lon="15.6642783"><ele>69.66666666666666</ele><time>2026-04-24T08:28:59.365Z</time></trkpt><trkpt lat="38.1721267" lon="15.6641933"><ele>69.33333333333333</ele><time>2026-04-24T08:29:01.365Z</time></trkpt><trkpt lat="38.1721" lon="15.66411"><ele>69.0</ele><time>2026-04-24T08:29:04.366Z</time></trkpt><trkpt lat="38.17205" lon="15.664015"><ele>68.66666666666667</ele><time>2026-04-24T08:29:06.366Z</time></trkpt><trkpt lat="38.1719683" lon="15.6638917"><ele>68.33333333333334</ele><time>2026-04-24T08:29:08.365Z</time></trkpt><trkpt lat="38.1719133" lon="15.6638283"><ele>68.0</ele><time>2026-04-24T08:29:09.366Z</time></trkpt><trkpt lat="38.1718617" lon="15.66377"><ele>68.0</ele><time>2026-04-24T08:29:10.366Z</time></trkpt><trkpt lat="38.1718167" lon="15.663705"><ele>68.0</ele><time>2026-04-24T08:29:11.365Z</time></trkpt><trkpt lat="38.1717767" lon="15.66364"><ele>68.0</ele><time>2026-04-24T08:29:12.366Z</time></trkpt><trkpt lat="38.1717367" lon="15.6635717"><ele>68.0</ele><time>2026-04-24T08:29:13.365Z</time></trkpt><trkpt lat="38.1717" lon="15.6635033"><ele>68.0</ele><time>2026-04-24T08:29:14.365Z</time></trkpt><trkpt lat="38.1716667" lon="15.66343"><ele>68.0</ele><time>2026-04-24T08:29:15.365Z</time></trkpt><trkpt lat="38.1715933" lon="15.6632967"><ele>67.5</ele><time>2026-04-24T08:29:17.365Z</time></trkpt><trkpt lat="38.171555" lon="15.6632233"><ele>67.0</ele><time>2026-04-24T08:29:18.366Z</time></trkpt><trkpt lat="38.171525" lon="15.66314"><ele>66.5</ele><time>2026-04-24T08:29:19.366Z</time></trkpt><trkpt lat="38.1715" lon="15.66304"><ele>66.0</ele><time>2026-04-24T08:29:20.366Z</time></trkpt><trkpt lat="38.17148" lon="15.6629333"><ele>65.5</ele><time>2026-04-24T08:29:21.365Z</time></trkpt><trkpt lat="38.1714733" lon="15.662815"><ele>65.0</ele><time>2026-04-24T08:29:22.366Z</time></trkpt><trkpt lat="38.1714617" lon="15.6626933"><ele>63.8</ele><time>2026-04-24T08:29:23.366Z</time></trkpt><trkpt lat="38.171445" lon="15.6625767"><ele>62.6</ele><time>2026-04-24T08:29:24.365Z</time></trkpt><trkpt lat="38.1714383" lon="15.6624667"><ele>61.400000000000006</ele><time>2026-04-24T08:29:25.366Z</time></trkpt><trkpt lat="38.1714367" lon="15.6623483"><ele>60.2</ele><time>2026-04-24T08:29:26.366Z</time></trkpt><trkpt lat="38.1714383" lon="15.6622317"><ele>59.0</ele><time>2026-04-24T08:29:27.365Z</time></trkpt><trkpt lat="38.1714433" lon="15.6621017"><ele>59.0</ele><time>2026-04-24T08:29:28.365Z</time></trkpt><trkpt lat="38.1714367" lon="15.661965"><ele>59.00000000000001</ele><time>2026-04-24T08:29:29.365Z</time></trkpt><trkpt lat="38.17143" lon="15.6618267"><ele>59.00000000000001</ele><time>2026-04-24T08:29:30.366Z</time></trkpt><trkpt lat="38.17142" lon="15.6616917"><ele>59.0</ele><time>2026-04-24T08:29:31.366Z</time></trkpt><trkpt lat="38.1714133" lon="15.66156"><ele>59.0</ele><time>2026-04-24T08:29:32.366Z</time></trkpt><trkpt lat="38.1714017" lon="15.6614283"><ele>58.66666666666667</ele><time>2026-04-24T08:29:33.365Z</time></trkpt><trkpt lat="38.1713933" lon="15.661305"><ele>58.333333333333336</ele><time>2026-04-24T08:29:34.365Z</time></trkpt><trkpt lat="38.1713667" lon="15.6611833"><ele>58.0</ele><time>2026-04-24T08:29:35.366Z</time></trkpt><trkpt lat="38.17135" lon="15.6610667"><ele>57.66666666666667</ele><time>2026-04-24T08:29:36.365Z</time></trkpt><trkpt lat="38.1713267" lon="15.6609667"><ele>57.333333333333336</ele><time>2026-04-24T08:29:37.366Z</time></trkpt><trkpt lat="38.1713" lon="15.66088"><ele>57.0</ele><time>2026-04-24T08:29:38.366Z</time></trkpt><trkpt lat="38.1712683" lon="15.6607967"><ele>57.0</ele><time>2026-04-24T08:29:39.365Z</time></trkpt><trkpt lat="38.171235" lon="15.6607183"><ele>57.0</ele><time>2026-04-24T08:29:40.366Z</time></trkpt><trkpt lat="38.1712167" lon="15.6606367"><ele>57.0</ele><time>2026-04-24T08:29:41.365Z</time></trkpt><trkpt lat="38.171125" lon="15.6605133"><ele>57.0</ele><time>2026-04-24T08:29:43.365Z</time></trkpt><trkpt lat="38.1710967" lon="15.6604183"><ele>57.0</ele><time>2026-04-24T08:29:44.366Z</time></trkpt><trkpt lat="38.1710683" lon="15.66033"><ele>57.0</ele><time>2026-04-24T08:29:45.365Z</time></trkpt><trkpt lat="38.1710433" lon="15.660245"><ele>56.285714285714285</ele><time>2026-04-24T08:29:46.365Z</time></trkpt><trkpt lat="38.1710217" lon="15.6601617"><ele>55.57142857142857</ele><time>2026-04-24T08:29:47.365Z</time></trkpt><trkpt lat="38.1709967" lon="15.6600783"><ele>54.857142857142854</ele><time>2026-04-24T08:29:48.365Z</time></trkpt><trkpt lat="38.1709683" lon="15.6599933"><ele>54.14285714285714</ele><time>2026-04-24T08:29:49.366Z</time></trkpt><trkpt lat="38.1709483" lon="15.6599067"><ele>53.42857142857143</ele><time>2026-04-24T08:29:50.365Z</time></trkpt><trkpt lat="38.1709217" lon="15.659825"><ele>52.71428571428571</ele><time>2026-04-24T08:29:51.365Z</time></trkpt><trkpt lat="38.17089" lon="15.6597367"><ele>52.0</ele><time>2026-04-24T08:29:52.366Z</time></trkpt><trkpt lat="38.17085" lon="15.6596317"><ele>52.0</ele><time>2026-04-24T08:29:53.365Z</time></trkpt><trkpt lat="38.17081" lon="15.6595217"><ele>52.0</ele><time>2026-04-24T08:29:54.365Z</time></trkpt><trkpt lat="38.1707717" lon="15.659405"><ele>52.0</ele><time>2026-04-24T08:29:55.366Z</time></trkpt><trkpt lat="38.1707167" lon="15.6592983"><ele>52.0</ele><time>2026-04-24T08:29:56.365Z</time></trkpt><trkpt lat="38.170665" lon="15.6591833"><ele>52.0</ele><time>2026-04-24T08:29:57.365Z</time></trkpt><trkpt lat="38.17061" lon="15.6590733"><ele>50.666666666666664</ele><time>2026-04-24T08:29:58.365Z</time></trkpt><trkpt lat="38.1705733" lon="15.6589717"><ele>49.33333333333333</ele><time>2026-04-24T08:29:59.365Z</time></trkpt><trkpt lat="38.17053" lon="15.658895"><ele>48.0</ele><time>2026-04-24T08:30:00.366Z</time></trkpt><trkpt lat="38.1704917" lon="15.65883"><ele>46.666666666666664</ele><time>2026-04-24T08:30:01.365Z</time></trkpt><trkpt lat="38.1704483" lon="15.658755"><ele>45.33333333333333</ele><time>2026-04-24T08:30:02.366Z</time></trkpt><trkpt lat="38.1704017" lon="15.6586583"><ele>44.0</ele><time>2026-04-24T08:30:03.366Z</time></trkpt><trkpt lat="38.1703433" lon="15.658555"><ele>43.0</ele><time>2026-04-24T08:30:04.366Z</time></trkpt><trkpt lat="38.1702783" lon="15.6584383"><ele>42.0</ele><time>2026-04-24T08:30:05.366Z</time></trkpt><trkpt lat="38.170215" lon="15.6583167"><ele>41.0</ele><time>2026-04-24T08:30:06.366Z</time></trkpt><trkpt lat="38.1701567" lon="15.6581783"><ele>40.0</ele><time>2026-04-24T08:30:07.365Z</time></trkpt><trkpt lat="38.170115" lon="15.65803"><ele>40.0</ele><time>2026-04-24T08:30:08.366Z</time></trkpt><trkpt lat="38.1701" lon="15.6578667"><ele>40.0</ele><time>2026-04-24T08:30:09.365Z</time></trkpt><trkpt lat="38.1701117" lon="15.657685"><ele>40.0</ele><time>2026-04-24T08:30:10.366Z</time></trkpt><trkpt lat="38.1701483" lon="15.657515"><ele>40.0</ele><time>2026-04-24T08:30:11.365Z</time></trkpt><trkpt lat="38.1701717" lon="15.657355"><ele>39.75</ele><time>2026-04-24T08:30:12.365Z</time></trkpt><trkpt lat="38.17018" lon="15.657195"><ele>39.5</ele><time>2026-04-24T08:30:13.365Z</time></trkpt><trkpt lat="38.1701667" lon="15.6570367"><ele>39.25</ele><time>2026-04-24T08:30:14.366Z</time></trkpt><trkpt lat="38.1701217" lon="15.6568717"><ele>39.0</ele><time>2026-04-24T08:30:15.366Z</time></trkpt><trkpt lat="38.170055" lon="15.656725"><ele>38.5</ele><time>2026-04-24T08:30:16.365Z</time></trkpt><trkpt lat="38.16998" lon="15.6565767"><ele>38.0</ele><time>2026-04-24T08:30:17.366Z</time></trkpt><trkpt lat="38.1699067" lon="15.6564183"><ele>37.5</ele><time>2026-04-24T08:30:18.366Z</time></trkpt><trkpt lat="38.1698367" lon="15.65626"><ele>37.0</ele><time>2026-04-24T08:30:19.366Z</time></trkpt><trkpt lat="38.1697783" lon="15.65609"><ele>35.5</ele><time>2026-04-24T08:30:20.365Z</time></trkpt><trkpt lat="38.169715" lon="15.6559183"><ele>34.0</ele><time>2026-04-24T08:30:21.365Z</time></trkpt><trkpt lat="38.16967" lon="15.6557533"><ele>32.5</ele><time>2026-04-24T08:30:22.366Z</time></trkpt><trkpt lat="38.16962" lon="15.655605"><ele>31.0</ele><time>2026-04-24T08:30:23.366Z</time></trkpt><trkpt lat="38.1695717" lon="15.6554583"><ele>31.0</ele><time>2026-04-24T08:30:24.366Z</time></trkpt><trkpt lat="38.1695183" lon="15.65531"><ele>31.0</ele><time>2026-04-24T08:30:25.365Z</time></trkpt><trkpt lat="38.1694583" lon="15.65517"><ele>31.0</ele><time>2026-04-24T08:30:26.365Z</time></trkpt><trkpt lat="38.169405" lon="15.6550283"><ele>31.0</ele><time>2026-04-24T08:30:27.366Z</time></trkpt><trkpt lat="38.16936" lon="15.6548733"><ele>30.75</ele><time>2026-04-24T08:30:28.366Z</time></trkpt><trkpt lat="38.1693083" lon="15.654725"><ele>30.5</ele><time>2026-04-24T08:30:29.366Z</time></trkpt><trkpt lat="38.1692567" lon="15.6545817"><ele>30.25</ele><time>2026-04-24T08:30:30.365Z</time></trkpt><trkpt lat="38.1692017" lon="15.6544617"><ele>30.0</ele><time>2026-04-24T08:30:31.366Z</time></trkpt><trkpt lat="38.1691483" lon="15.6543333"><ele>29.8</ele><time>2026-04-24T08:30:32.366Z</time></trkpt><trkpt lat="38.1691" lon="15.654215"><ele>29.6</ele><time>2026-04-24T08:30:33.365Z</time></trkpt><trkpt lat="38.1690533" lon="15.6540983"><ele>29.4</ele><time>2026-04-24T08:30:34.366Z</time></trkpt><trkpt lat="38.1690117" lon="15.6539867"><ele>29.2</ele><time>2026-04-24T08:30:35.366Z</time></trkpt><trkpt lat="38.1689717" lon="15.6538883"><ele>29.0</ele><time>2026-04-24T08:30:36.366Z</time></trkpt><trkpt lat="38.1689267" lon="15.6537983"><ele>28.499999999999996</ele><time>2026-04-24T08:30:37.365Z</time></trkpt><trkpt lat="38.1688817" lon="15.6537083"><ele>28.0</ele><time>2026-04-24T08:30:38.365Z</time></trkpt><trkpt lat="38.1688383" lon="15.65362"><ele>27.5</ele><time>2026-04-24T08:30:39.366Z</time></trkpt><trkpt lat="38.16878" lon="15.653535"><ele>27.0</ele><time>2026-04-24T08:30:40.365Z</time></trkpt><trkpt lat="38.168735" lon="15.6534333"><ele>26.499999999999996</ele><time>2026-04-24T08:30:41.366Z</time></trkpt><trkpt lat="38.1687" lon="15.653345"><ele>26.0</ele><time>2026-04-24T08:30:42.365Z</time></trkpt><trkpt lat="38.1686667" lon="15.6532567"><ele>25.999999999999996</ele><time>2026-04-24T08:30:43.365Z</time></trkpt><trkpt lat="38.1686333" lon="15.6531783"><ele>26.0</ele><time>2026-04-24T08:30:44.365Z</time></trkpt><trkpt lat="38.1686183" lon="15.6530983"><ele>26.0</ele><time>2026-04-24T08:30:45.365Z</time></trkpt><trkpt lat="38.1685883" lon="15.6529467"><ele>26.0</ele><time>2026-04-24T08:30:47.365Z</time></trkpt><trkpt lat="38.16857" lon="15.65281"><ele>25.999999999999996</ele><time>2026-04-24T08:30:49.365Z</time></trkpt><trkpt lat="38.1685533" lon="15.6527183"><ele>26.0</ele><time>2026-04-24T08:30:51.366Z</time></trkpt><trkpt lat="38.1686" lon="15.6526117"><ele>25.6</ele><time>2026-04-24T08:30:54.365Z</time></trkpt><trkpt lat="38.1686783" lon="15.6524983"><ele>25.200000000000003</ele><time>2026-04-24T08:30:56.366Z</time></trkpt><trkpt lat="38.16874" lon="15.6524433"><ele>24.799999999999997</ele><time>2026-04-24T08:30:57.365Z</time></trkpt><trkpt lat="38.1688017" lon="15.6523717"><ele>24.4</ele><time>2026-04-24T08:30:58.365Z</time></trkpt><trkpt lat="38.1688933" lon="15.652305"><ele>24.0</ele><time>2026-04-24T08:30:59.366Z</time></trkpt><trkpt lat="38.16899" lon="15.6522333"><ele>24.75</ele><time>2026-04-24T08:31:00.365Z</time></trkpt><trkpt lat="38.169095" lon="15.6521717"><ele>25.5</ele><time>2026-04-24T08:31:01.365Z</time></trkpt><trkpt lat="38.1691817" lon="15.652085"><ele>26.25</ele><time>2026-04-24T08:31:02.365Z</time></trkpt><trkpt lat="38.1692833" lon="15.6520233"><ele>27.0</ele><time>2026-04-24T08:31:03.365Z</time></trkpt><trkpt lat="38.1693833" lon="15.65196"><ele>26.400000000000002</ele><time>2026-04-24T08:31:04.366Z</time></trkpt><trkpt lat="38.16948" lon="15.651905"><ele>25.800000000000004</ele><time>2026-04-24T08:31:05.365Z</time></trkpt><trkpt lat="38.1695567" lon="15.651855"><ele>25.2</ele><time>2026-04-24T08:31:06.365Z</time></trkpt><trkpt lat="38.16966" lon="15.6517967"><ele>24.6</ele><time>2026-04-24T08:31:08.366Z</time></trkpt><trkpt lat="38.169765" lon="15.6517433"><ele>24.0</ele><time>2026-04-24T08:31:10.365Z</time></trkpt><trkpt lat="38.1698317" lon="15.6517"><ele>23.799999999999997</ele><time>2026-04-24T08:31:11.365Z</time></trkpt><trkpt lat="38.1699033" lon="15.6516567"><ele>23.599999999999998</ele><time>2026-04-24T08:31:12.365Z</time></trkpt><trkpt lat="38.1700033" lon="15.6516283"><ele>23.4</ele><time>2026-04-24T08:31:13.366Z</time></trkpt><trkpt lat="38.1701267" lon="15.651615"><ele>23.2</ele><time>2026-04-24T08:31:14.366Z</time></trkpt><trkpt lat="38.1702383" lon="15.6516283"><ele>23.0</ele><time>2026-04-24T08:31:15.366Z</time></trkpt><trkpt lat="38.170325" lon="15.651675"><ele>23.0</ele><time>2026-04-24T08:31:16.366Z</time></trkpt><trkpt lat="38.1704167" lon="15.6517317"><ele>23.0</ele><time>2026-04-24T08:31:17.366Z</time></trkpt><trkpt lat="38.1705067" lon="15.6518067"><ele>23.0</ele><time>2026-04-24T08:31:18.365Z</time></trkpt><trkpt lat="38.1705833" lon="15.6518783"><ele>23.0</ele><time>2026-04-24T08:31:19.366Z</time></trkpt><trkpt lat="38.1706717" lon="15.6519317"><ele>23.0</ele><time>2026-04-24T08:31:20.365Z</time></trkpt><trkpt lat="38.1707667" lon="15.65196"><ele>23.75</ele><time>2026-04-24T08:31:21.365Z</time></trkpt><trkpt lat="38.170875" lon="15.6519683"><ele>24.5</ele><time>2026-04-24T08:31:22.366Z</time></trkpt><trkpt lat="38.1709967" lon="15.6519617"><ele>25.25</ele><time>2026-04-24T08:31:23.365Z</time></trkpt><trkpt lat="38.1711117" lon="15.651965"><ele>26.0</ele><time>2026-04-24T08:31:24.366Z</time></trkpt><trkpt lat="38.1712367" lon="15.65199"><ele>26.0</ele><time>2026-04-24T08:31:25.365Z</time></trkpt><trkpt lat="38.171355" lon="15.6520517"><ele>26.0</ele><time>2026-04-24T08:31:26.365Z</time></trkpt><trkpt lat="38.1714583" lon="15.6521617"><ele>26.0</ele><time>2026-04-24T08:31:27.366Z</time></trkpt><trkpt lat="38.171545" lon="15.6523"><ele>26.0</ele><time>2026-04-24T08:31:28.366Z</time></trkpt><trkpt lat="38.171615" lon="15.6524633"><ele>26.666666666666664</ele><time>2026-04-24T08:31:29.366Z</time></trkpt><trkpt lat="38.1716783" lon="15.6526467"><ele>27.333333333333336</ele><time>2026-04-24T08:31:30.365Z</time></trkpt><trkpt lat="38.1717367" lon="15.6528367"><ele>28.0</ele><time>2026-04-24T08:31:31.366Z</time></trkpt><trkpt lat="38.171795" lon="15.6530233"><ele>28.333333333333336</ele><time>2026-04-24T08:31:32.365Z</time></trkpt><trkpt lat="38.1718467" lon="15.6532167"><ele>28.666666666666664</ele><time>2026-04-24T08:31:33.366Z</time></trkpt><trkpt lat="38.1719017" lon="15.6534033"><ele>29.0</ele><time>2026-04-24T08:31:34.365Z</time></trkpt><trkpt lat="38.17196" lon="15.6536017"><ele>29.25</ele><time>2026-04-24T08:31:35.365Z</time></trkpt><trkpt lat="38.1719917" lon="15.6537967"><ele>29.5</ele><time>2026-04-24T08:31:36.366Z</time></trkpt><trkpt lat="38.1719983" lon="15.6539833"><ele>29.75</ele><time>2026-04-24T08:31:37.365Z</time></trkpt><trkpt lat="38.1719683" lon="15.654165"><ele>30.0</ele><time>2026-04-24T08:31:38.366Z</time></trkpt><trkpt lat="38.1719033" lon="15.6543467"><ele>31.333333333333336</ele><time>2026-04-24T08:31:39.366Z</time></trkpt><trkpt lat="38.171805" lon="15.65451"><ele>32.66666666666667</ele><time>2026-04-24T08:31:40.365Z</time></trkpt><trkpt lat="38.1716833" lon="15.6546417"><ele>34.0</ele><time>2026-04-24T08:31:41.365Z</time></trkpt><trkpt lat="38.1715383" lon="15.6547433"><ele>33.333333333333336</ele><time>2026-04-24T08:31:42.366Z</time></trkpt><trkpt lat="38.1713883" lon="15.6548217"><ele>32.666666666666664</ele><time>2026-04-24T08:31:43.366Z</time></trkpt><trkpt lat="38.1712383" lon="15.6548917"><ele>32.0</ele><time>2026-04-24T08:31:44.366Z</time></trkpt><trkpt lat="38.17108" lon="15.6549717"><ele>32.0</ele><time>2026-04-24T08:31:45.366Z</time></trkpt><trkpt lat="38.170925" lon="15.6550533"><ele>32.0</ele><time>2026-04-24T08:31:46.365Z</time></trkpt><trkpt lat="38.17077" lon="15.6551283"><ele>32.0</ele><time>2026-04-24T08:31:47.366Z</time></trkpt><trkpt lat="38.170605" lon="15.6552133"><ele>33.0</ele><time>2026-04-24T08:31:48.365Z</time></trkpt><trkpt lat="38.1704433" lon="15.6552967"><ele>34.0</ele><time>2026-04-24T08:31:49.365Z</time></trkpt><trkpt lat="38.1702717" lon="15.6553933"><ele>35.0</ele><time>2026-04-24T08:31:50.366Z</time></trkpt><trkpt lat="38.1700933" lon="15.6554917"><ele>35.0</ele><time>2026-04-24T08:31:51.366Z</time></trkpt><trkpt lat="38.1699017" lon="15.6556033"><ele>35.0</ele><time>2026-04-24T08:31:52.366Z</time></trkpt><trkpt lat="38.1697067" lon="15.6557017"><ele>35.0</ele><time>2026-04-24T08:31:53.365Z</time></trkpt><trkpt lat="38.1695083" lon="15.65581"><ele>34.0</ele><time>2026-04-24T08:31:54.366Z</time></trkpt><trkpt lat="38.1692983" lon="15.6559233"><ele>33.0</ele><time>2026-04-24T08:31:55.365Z</time></trkpt><trkpt lat="38.1690967" lon="15.6560283"><ele>32.0</ele><time>2026-04-24T08:31:56.365Z</time></trkpt><trkpt lat="38.16889" lon="15.6561383"><ele>32.0</ele><time>2026-04-24T08:31:57.365Z</time></trkpt><trkpt lat="38.1686867" lon="15.6562617"><ele>32.0</ele><time>2026-04-24T08:31:58.365Z</time></trkpt><trkpt lat="38.1684933" lon="15.6563867"><ele>32.0</ele><time>2026-04-24T08:31:59.366Z</time></trkpt><trkpt lat="38.1683133" lon="15.6565117"><ele>31.666666666666664</ele><time>2026-04-24T08:32:00.365Z</time></trkpt><trkpt lat="38.1681217" lon="15.65665"><ele>31.333333333333336</ele><time>2026-04-24T08:32:01.365Z</time></trkpt><trkpt lat="38.16793" lon="15.6568"><ele>31.0</ele><time>2026-04-24T08:32:02.365Z</time></trkpt><trkpt lat="38.1677383" lon="15.656955"><ele>31.0</ele><time>2026-04-24T08:32:03.365Z</time></trkpt><trkpt lat="38.1675433" lon="15.6571117"><ele>31.0</ele><time>2026-04-24T08:32:04.366Z</time></trkpt><trkpt lat="38.1673533" lon="15.6572683"><ele>29.5</ele><time>2026-04-24T08:32:05.365Z</time></trkpt><trkpt lat="38.1671667" lon="15.6574383"><ele>28.0</ele><time>2026-04-24T08:32:06.366Z</time></trkpt><trkpt lat="38.1669817" lon="15.657605"><ele>28.0</ele><time>2026-04-24T08:32:07.365Z</time></trkpt><trkpt lat="38.1668" lon="15.657775"><ele>28.0</ele><time>2026-04-24T08:32:08.366Z</time></trkpt><trkpt lat="38.166615" lon="15.657945"><ele>28.333333333333336</ele><time>2026-04-24T08:32:09.366Z</time></trkpt><trkpt lat="38.1664367" lon="15.6581183"><ele>28.666666666666664</ele><time>2026-04-24T08:32:10.365Z</time></trkpt><trkpt lat="38.1662583" lon="15.6582767"><ele>29.0</ele><time>2026-04-24T08:32:11.365Z</time></trkpt><trkpt lat="38.1660867" lon="15.6584483"><ele>29.0</ele><time>2026-04-24T08:32:12.366Z</time></trkpt><trkpt lat="38.165915" lon="15.6586133"><ele>29.0</ele><time>2026-04-24T08:32:13.366Z</time></trkpt><trkpt lat="38.16575" lon="15.6587717"><ele>29.0</ele><time>2026-04-24T08:32:14.366Z</time></trkpt><trkpt lat="38.1655883" lon="15.658925"><ele>29.0</ele><time>2026-04-24T08:32:15.366Z</time></trkpt><trkpt lat="38.1654217" lon="15.6590717"><ele>29.0</ele><time>2026-04-24T08:32:16.365Z</time></trkpt><trkpt lat="38.1652567" lon="15.6592283"><ele>29.0</ele><time>2026-04-24T08:32:17.365Z</time></trkpt><trkpt lat="38.1650917" lon="15.6593933"><ele>29.666666666666664</ele><time>2026-04-24T08:32:18.365Z</time></trkpt><trkpt lat="38.1649233" lon="15.6595517"><ele>30.333333333333336</ele><time>2026-04-24T08:32:19.365Z</time></trkpt><trkpt lat="38.1647583" lon="15.6597183"><ele>31.0</ele><time>2026-04-24T08:32:20.365Z</time></trkpt><trkpt lat="38.164585" lon="15.6598817"><ele>31.0</ele><time>2026-04-24T08:32:21.366Z</time></trkpt><trkpt lat="38.1644133" lon="15.6600517"><ele>31.0</ele><time>2026-04-24T08:32:22.366Z</time></trkpt><trkpt lat="38.1642333" lon="15.6602217"><ele>31.0</ele><time>2026-04-24T08:32:23.366Z</time></trkpt><trkpt lat="38.1640617" lon="15.6603867"><ele>33.333333333333336</ele><time>2026-04-24T08:32:24.365Z</time></trkpt><trkpt lat="38.16388" lon="15.6605583"><ele>35.666666666666664</ele><time>2026-04-24T08:32:25.365Z</time></trkpt><trkpt lat="38.1637033" lon="15.660725"><ele>38.0</ele><time>2026-04-24T08:32:26.366Z</time></trkpt><trkpt lat="38.1635267" lon="15.6609017"><ele>38.0</ele><time>2026-04-24T08:32:27.366Z</time></trkpt><trkpt lat="38.16335" lon="15.66108"><ele>38.0</ele><time>2026-04-24T08:32:28.366Z</time></trkpt><trkpt lat="38.1631683" lon="15.66124"><ele>38.0</ele><time>2026-04-24T08:32:29.366Z</time></trkpt><trkpt lat="38.1629833" lon="15.6614"><ele>39.666666666666664</ele><time>2026-04-24T08:32:30.366Z</time></trkpt><trkpt lat="38.1628133" lon="15.6615667"><ele>41.333333333333336</ele><time>2026-04-24T08:32:31.366Z</time></trkpt><trkpt lat="38.1626383" lon="15.6617283"><ele>43.0</ele><time>2026-04-24T08:32:32.365Z</time></trkpt><trkpt lat="38.1624683" lon="15.661895"><ele>44.66666666666667</ele><time>2026-04-24T08:32:33.365Z</time></trkpt><trkpt lat="38.1623017" lon="15.6620567"><ele>46.333333333333336</ele><time>2026-04-24T08:32:34.365Z</time></trkpt><trkpt lat="38.1621367" lon="15.6622133"><ele>48.0</ele><time>2026-04-24T08:32:35.365Z</time></trkpt><trkpt lat="38.1619683" lon="15.66237"><ele>48.0</ele><time>2026-04-24T08:32:36.365Z</time></trkpt><trkpt lat="38.161795" lon="15.6625317"><ele>48.0</ele><time>2026-04-24T08:32:37.365Z</time></trkpt><trkpt lat="38.1616233" lon="15.6627033"><ele>48.0</ele><time>2026-04-24T08:32:38.365Z</time></trkpt><trkpt lat="38.1614483" lon="15.6628833"><ele>49.0</ele><time>2026-04-24T08:32:39.365Z</time></trkpt><trkpt lat="38.16127" lon="15.6630517"><ele>50.0</ele><time>2026-04-24T08:32:40.365Z</time></trkpt><trkpt lat="38.1610933" lon="15.663225"><ele>51.0</ele><time>2026-04-24T08:32:41.366Z</time></trkpt><trkpt lat="38.160905" lon="15.663405"><ele>51.0</ele><time>2026-04-24T08:32:42.365Z</time></trkpt><trkpt lat="38.160715" lon="15.6635867"><ele>51.0</ele><time>2026-04-24T08:32:43.365Z</time></trkpt><trkpt lat="38.1605367" lon="15.6637583"><ele>52.5</ele><time>2026-04-24T08:32:44.365Z</time></trkpt><trkpt lat="38.1603533" lon="15.6639367"><ele>54.0</ele><time>2026-04-24T08:32:45.366Z</time></trkpt><trkpt lat="38.160165" lon="15.6641233"><ele>54.0</ele><time>2026-04-24T08:32:46.365Z</time></trkpt><trkpt lat="38.159985" lon="15.6643167"><ele>54.0</ele><time>2026-04-24T08:32:47.365Z</time></trkpt><trkpt lat="38.1597967" lon="15.6644917"><ele>53.0</ele><time>2026-04-24T08:32:48.365Z</time></trkpt><trkpt lat="38.1595983" lon="15.664715"><ele>52.0</ele><time>2026-04-24T08:32:49.365Z</time></trkpt><trkpt lat="38.1594033" lon="15.664915"><ele>52.0</ele><time>2026-04-24T08:32:50.366Z</time></trkpt><trkpt lat="38.1592067" lon="15.6650917"><ele>52.0</ele><time>2026-04-24T08:32:51.365Z</time></trkpt><trkpt lat="38.1590167" lon="15.6652767"><ele>53.0</ele><time>2026-04-24T08:32:52.365Z</time></trkpt><trkpt lat="38.1588417" lon="15.6654383"><ele>54.0</ele><time>2026-04-24T08:32:53.366Z</time></trkpt><trkpt lat="38.158675" lon="15.66557"><ele>55.0</ele><time>2026-04-24T08:32:54.365Z</time></trkpt><trkpt lat="38.1585133" lon="15.6656867"><ele>55.0</ele><time>2026-04-24T08:32:55.365Z</time></trkpt><trkpt lat="38.15837" lon="15.66579"><ele>55.0</ele><time>2026-04-24T08:32:56.366Z</time></trkpt><trkpt lat="38.158235" lon="15.6658583"><ele>55.0</ele><time>2026-04-24T08:32:57.365Z</time></trkpt><trkpt lat="38.1581283" lon="15.6659367"><ele>55.0</ele><time>2026-04-24T08:32:58.366Z</time></trkpt><trkpt lat="38.1580217" lon="15.6660033"><ele>55.25</ele><time>2026-04-24T08:32:59.366Z</time></trkpt><trkpt lat="38.1579283" lon="15.6660633"><ele>55.5</ele><time>2026-04-24T08:33:00.365Z</time></trkpt><trkpt lat="38.15782" lon="15.66612"><ele>55.75</ele><time>2026-04-24T08:33:01.365Z</time></trkpt><trkpt lat="38.1577117" lon="15.6661767"><ele>56.0</ele><time>2026-04-24T08:33:02.366Z</time></trkpt><trkpt lat="38.1575967" lon="15.66624"><ele>56.5</ele><time>2026-04-24T08:33:03.365Z</time></trkpt><trkpt lat="38.15748" lon="15.6662933"><ele>57.0</ele><time>2026-04-24T08:33:04.365Z</time></trkpt><trkpt lat="38.1573583" lon="15.66636"><ele>57.5</ele><time>2026-04-24T08:33:05.366Z</time></trkpt><trkpt lat="38.1572383" lon="15.6664283"><ele>58.0</ele><time>2026-04-24T08:33:06.365Z</time></trkpt><trkpt lat="38.1571117" lon="15.6664917"><ele>58.0</ele><time>2026-04-24T08:33:07.365Z</time></trkpt><trkpt lat="38.156985" lon="15.6665483"><ele>58.0</ele><time>2026-04-24T08:33:08.365Z</time></trkpt><trkpt lat="38.1568533" lon="15.666605"><ele>58.0</ele><time>2026-04-24T08:33:09.365Z</time></trkpt><trkpt lat="38.15672" lon="15.66666"><ele>58.0</ele><time>2026-04-24T08:33:10.366Z</time></trkpt><trkpt lat="38.1565933" lon="15.666705"><ele>57.25</ele><time>2026-04-24T08:33:11.365Z</time></trkpt><trkpt lat="38.15647" lon="15.6667567"><ele>56.5</ele><time>2026-04-24T08:33:12.365Z</time></trkpt><trkpt lat="38.156345" lon="15.6667883"><ele>55.75</ele><time>2026-04-24T08:33:13.365Z</time></trkpt><trkpt lat="38.1562167" lon="15.666835"><ele>55.0</ele><time>2026-04-24T08:33:14.366Z</time></trkpt><trkpt lat="38.1560817" lon="15.6668833"><ele>55.0</ele><time>2026-04-24T08:33:15.366Z</time></trkpt><trkpt lat="38.1559467" lon="15.66693"><ele>55.0</ele><time>2026-04-24T08:33:16.365Z</time></trkpt><trkpt lat="38.1558083" lon="15.6669717"><ele>55.0</ele><time>2026-04-24T08:33:17.365Z</time></trkpt><trkpt lat="38.1556833" lon="15.6670083"><ele>55.0</ele><time>2026-04-24T08:33:18.366Z</time></trkpt><trkpt lat="38.1555633" lon="15.6670483"><ele>57.5</ele><time>2026-04-24T08:33:19.365Z</time></trkpt><trkpt lat="38.1554483" lon="15.6670867"><ele>60.0</ele><time>2026-04-24T08:33:20.365Z</time></trkpt><trkpt lat="38.1553417" lon="15.6671333"><ele>62.5</ele><time>2026-04-24T08:33:21.365Z</time></trkpt><trkpt lat="38.1552283" lon="15.6671633"><ele>65.0</ele><time>2026-04-24T08:33:22.366Z</time></trkpt><trkpt lat="38.15511" lon="15.6671933"><ele>65.0</ele><time>2026-04-24T08:33:23.366Z</time></trkpt><trkpt lat="38.1549983" lon="15.6672283"><ele>65.0</ele><time>2026-04-24T08:33:24.365Z</time></trkpt><trkpt lat="38.154895" lon="15.6672683"><ele>65.0</ele><time>2026-04-24T08:33:25.366Z</time></trkpt><trkpt lat="38.1547933" lon="15.6673017"><ele>65.0</ele><time>2026-04-24T08:33:26.366Z</time></trkpt><trkpt lat="38.1547017" lon="15.6673367"><ele>65.0</ele><time>2026-04-24T08:33:27.366Z</time></trkpt><trkpt lat="38.15462" lon="15.6673683"><ele>64.66666666666667</ele><time>2026-04-24T08:33:28.366Z</time></trkpt><trkpt lat="38.1545383" lon="15.6673967"><ele>64.33333333333334</ele><time>2026-04-24T08:33:29.365Z</time></trkpt><trkpt lat="38.15446" lon="15.6674133"><ele>64.0</ele><time>2026-04-24T08:33:30.366Z</time></trkpt><trkpt lat="38.1543783" lon="15.667435"><ele>63.66666666666667</ele><time>2026-04-24T08:33:31.365Z</time></trkpt><trkpt lat="38.154295" lon="15.6674617"><ele>63.333333333333336</ele><time>2026-04-24T08:33:32.365Z</time></trkpt><trkpt lat="38.1542083" lon="15.66749"><ele>63.0</ele><time>2026-04-24T08:33:33.366Z</time></trkpt><trkpt lat="38.1541283" lon="15.66752"><ele>63.0</ele><time>2026-04-24T08:33:34.366Z</time></trkpt><trkpt lat="38.1540517" lon="15.6675467"><ele>63.0</ele><time>2026-04-24T08:33:35.366Z</time></trkpt><trkpt lat="38.1539817" lon="15.6675717"><ele>63.0</ele><time>2026-04-24T08:33:36.366Z</time></trkpt><trkpt lat="38.153915" lon="15.667605"><ele>63.0</ele><time>2026-04-24T08:33:37.366Z</time></trkpt><trkpt lat="38.153845" lon="15.66763"><ele>63.0</ele><time>2026-04-24T08:33:38.366Z</time></trkpt><trkpt lat="38.15378" lon="15.6676617"><ele>63.0</ele><time>2026-04-24T08:33:39.365Z</time></trkpt><trkpt lat="38.153685" lon="15.6676817"><ele>63.2</ele><time>2026-04-24T08:33:40.365Z</time></trkpt><trkpt lat="38.1535817" lon="15.6677067"><ele>63.4</ele><time>2026-04-24T08:33:41.366Z</time></trkpt><trkpt lat="38.1534783" lon="15.6677333"><ele>63.60000000000001</ele><time>2026-04-24T08:33:42.365Z</time></trkpt><trkpt lat="38.1533817" lon="15.66776"><ele>63.800000000000004</ele><time>2026-04-24T08:33:43.365Z</time></trkpt><trkpt lat="38.1532883" lon="15.6677933"><ele>64.0</ele><time>2026-04-24T08:33:44.365Z</time></trkpt><trkpt lat="38.1531967" lon="15.6678233"><ele>66.33333333333333</ele><time>2026-04-24T08:33:45.366Z</time></trkpt><trkpt lat="38.1531283" lon="15.66784"><ele>68.66666666666666</ele><time>2026-04-24T08:33:46.366Z</time></trkpt><trkpt lat="38.1530567" lon="15.6678583"><ele>71.0</ele><time>2026-04-24T08:33:47.365Z</time></trkpt><trkpt lat="38.152975" lon="15.66788"><ele>73.33333333333333</ele><time>2026-04-24T08:33:48.365Z</time></trkpt><trkpt lat="38.15289" lon="15.6679117"><ele>75.66666666666667</ele><time>2026-04-24T08:33:49.365Z</time></trkpt><trkpt lat="38.152815" lon="15.667945"><ele>78.0</ele><time>2026-04-24T08:33:50.365Z</time></trkpt><trkpt lat="38.15275" lon="15.6679683"><ele>78.0</ele><time>2026-04-24T08:33:51.366Z</time></trkpt><trkpt lat="38.1526783" lon="15.66799"><ele>78.0</ele><time>2026-04-24T08:33:52.365Z</time></trkpt><trkpt lat="38.15261" lon="15.668"><ele>78.0</ele><time>2026-04-24T08:33:53.366Z</time></trkpt><trkpt lat="38.1525433" lon="15.6680067"><ele>78.0</ele><time>2026-04-24T08:33:54.365Z</time></trkpt><trkpt lat="38.1524717" lon="15.6680083"><ele>78.0</ele><time>2026-04-24T08:33:55.366Z</time></trkpt><trkpt lat="38.1523917" lon="15.6680317"><ele>78.0</ele><time>2026-04-24T08:33:56.366Z</time></trkpt><trkpt lat="38.1523083" lon="15.668055"><ele>78.0</ele><time>2026-04-24T08:33:57.365Z</time></trkpt><trkpt lat="38.15223" lon="15.6680783"><ele>77.8</ele><time>2026-04-24T08:33:58.365Z</time></trkpt><trkpt lat="38.152155" lon="15.6680933"><ele>77.6</ele><time>2026-04-24T08:33:59.366Z</time></trkpt><trkpt lat="38.1520767" lon="15.66812"><ele>77.4</ele><time>2026-04-24T08:34:00.366Z</time></trkpt><trkpt lat="38.1519767" lon="15.6681333"><ele>77.2</ele><time>2026-04-24T08:34:01.366Z</time></trkpt><trkpt lat="38.151865" lon="15.6681617"><ele>77.0</ele><time>2026-04-24T08:34:02.366Z</time></trkpt><trkpt lat="38.1517467" lon="15.6681983"><ele>77.0</ele><time>2026-04-24T08:34:03.366Z</time></trkpt><trkpt lat="38.15163" lon="15.6682267"><ele>77.0</ele><time>2026-04-24T08:34:04.366Z</time></trkpt><trkpt lat="38.1515117" lon="15.6682383"><ele>77.0</ele><time>2026-04-24T08:34:05.365Z</time></trkpt><trkpt lat="38.1513983" lon="15.6682433"><ele>77.0</ele><time>2026-04-24T08:34:06.365Z</time></trkpt><trkpt lat="38.1512733" lon="15.66826"><ele>77.0</ele><time>2026-04-24T08:34:07.365Z</time></trkpt><trkpt lat="38.1511417" lon="15.6682767"><ele>77.0</ele><time>2026-04-24T08:34:08.365Z</time></trkpt><trkpt lat="38.151015" lon="15.6682867"><ele>77.0</ele><time>2026-04-24T08:34:09.366Z</time></trkpt><trkpt lat="38.1508817" lon="15.6682933"><ele>77.0</ele><time>2026-04-24T08:34:10.366Z</time></trkpt><trkpt lat="38.1507517" lon="15.6682967"><ele>76.5</ele><time>2026-04-24T08:34:11.365Z</time></trkpt><trkpt lat="38.15063" lon="15.668295"><ele>76.0</ele><time>2026-04-24T08:34:12.365Z</time></trkpt><trkpt lat="38.1505083" lon="15.668295"><ele>75.5</ele><time>2026-04-24T08:34:13.365Z</time></trkpt><trkpt lat="38.1503883" lon="15.66829"><ele>75.0</ele><time>2026-04-24T08:34:14.366Z</time></trkpt><trkpt lat="38.150265" lon="15.6682733"><ele>75.0</ele><time>2026-04-24T08:34:15.365Z</time></trkpt><trkpt lat="38.1501433" lon="15.6682533"><ele>75.0</ele><time>2026-04-24T08:34:16.366Z</time></trkpt><trkpt lat="38.1500267" lon="15.6682333"><ele>75.0</ele><time>2026-04-24T08:34:17.365Z</time></trkpt><trkpt lat="38.1499167" lon="15.6682267"><ele>75.0</ele><time>2026-04-24T08:34:18.366Z</time></trkpt><trkpt lat="38.14981" lon="15.6682133"><ele>77.0</ele><time>2026-04-24T08:34:19.366Z</time></trkpt><trkpt lat="38.1497" lon="15.6682017"><ele>79.0</ele><time>2026-04-24T08:34:20.365Z</time></trkpt><trkpt lat="38.1495933" lon="15.6681733"><ele>81.0</ele><time>2026-04-24T08:34:21.366Z</time></trkpt><trkpt lat="38.1494867" lon="15.6681583"><ele>83.0</ele><time>2026-04-24T08:34:22.365Z</time></trkpt><trkpt lat="38.1493817" lon="15.668145"><ele>85.0</ele><time>2026-04-24T08:34:23.365Z</time></trkpt><trkpt lat="38.1492883" lon="15.6681333"><ele>85.0</ele><time>2026-04-24T08:34:24.365Z</time></trkpt><trkpt lat="38.1491967" lon="15.668115"><ele>85.0</ele><time>2026-04-24T08:34:25.365Z</time></trkpt><trkpt lat="38.149115" lon="15.6681017"><ele>85.0</ele><time>2026-04-24T08:34:26.365Z</time></trkpt><trkpt lat="38.1490383" lon="15.6680967"><ele>85.0</ele><time>2026-04-24T08:34:27.365Z</time></trkpt><trkpt lat="38.1489567" lon="15.6680883"><ele>85.0</ele><time>2026-04-24T08:34:28.366Z</time></trkpt><trkpt lat="38.14887" lon="15.668075"><ele>85.0</ele><time>2026-04-24T08:34:29.365Z</time></trkpt><trkpt lat="38.14878" lon="15.6680567"><ele>86.5</ele><time>2026-04-24T08:34:30.365Z</time></trkpt><trkpt lat="38.1486833" lon="15.6680417"><ele>88.0</ele><time>2026-04-24T08:34:31.365Z</time></trkpt><trkpt lat="38.148575" lon="15.6680333"><ele>89.5</ele><time>2026-04-24T08:34:32.365Z</time></trkpt><trkpt lat="38.1484567" lon="15.66802"><ele>91.0</ele><time>2026-04-24T08:34:33.365Z</time></trkpt><trkpt lat="38.14833" lon="15.6680017"><ele>92.75</ele><time>2026-04-24T08:34:34.365Z</time></trkpt><trkpt lat="38.148195" lon="15.6679883"><ele>94.5</ele><time>2026-04-24T08:34:35.365Z</time></trkpt><trkpt lat="38.1480483" lon="15.6679733"><ele>96.25</ele><time>2026-04-24T08:34:36.366Z</time></trkpt><trkpt lat="38.1478917" lon="15.6679667"><ele>98.0</ele><time>2026-04-24T08:34:37.365Z</time></trkpt><trkpt lat="38.1477483" lon="15.6679683"><ele>98.0</ele><time>2026-04-24T08:34:38.365Z</time></trkpt><trkpt lat="38.147615" lon="15.6679667"><ele>98.0</ele><time>2026-04-24T08:34:39.366Z</time></trkpt><trkpt lat="38.147495" lon="15.6679517"><ele>98.0</ele><time>2026-04-24T08:34:40.365Z</time></trkpt><trkpt lat="38.147375" lon="15.6679383"><ele>98.0</ele><time>2026-04-24T08:34:41.366Z</time></trkpt><trkpt lat="38.1472617" lon="15.6679133"><ele>100.75</ele><time>2026-04-24T08:34:42.365Z</time></trkpt><trkpt lat="38.1471483" lon="15.66789"><ele>103.5</ele><time>2026-04-24T08:34:43.365Z</time></trkpt><trkpt lat="38.1470367" lon="15.6678733"><ele>106.25</ele><time>2026-04-24T08:34:44.366Z</time></trkpt><trkpt lat="38.1469233" lon="15.667855"><ele>109.0</ele><time>2026-04-24T08:34:45.365Z</time></trkpt><trkpt lat="38.1468067" lon="15.667835"><ele>109.0</ele><time>2026-04-24T08:34:46.366Z</time></trkpt><trkpt lat="38.1466933" lon="15.6678117"><ele>109.0</ele><time>2026-04-24T08:34:47.366Z</time></trkpt><trkpt lat="38.1465817" lon="15.6677867"><ele>109.0</ele><time>2026-04-24T08:34:48.365Z</time></trkpt><trkpt lat="38.14647" lon="15.6677683"><ele>109.0</ele><time>2026-04-24T08:34:49.365Z</time></trkpt><trkpt lat="38.1455783" lon="15.6675617"><ele>102.0</ele><time>2026-04-24T08:34:56.369Z</time></trkpt><trkpt lat="38.145435" lon="15.66747"><ele>95.0</ele><time>2026-04-24T08:34:57.369Z</time></trkpt><trkpt lat="38.1452833" lon="15.667375"><ele>88.0</ele><time>2026-04-24T08:34:58.369Z</time></trkpt><trkpt lat="38.145135" lon="15.667275"><ele>88.0</ele><time>2026-04-24T08:34:59.369Z</time></trkpt><trkpt lat="38.1449933" lon="15.6671833"><ele>88.0</ele><time>2026-04-24T08:35:00.369Z</time></trkpt><trkpt lat="38.144855" lon="15.6670833"><ele>88.0</ele><time>2026-04-24T08:35:01.37Z</time></trkpt><trkpt lat="38.144725" lon="15.666965"><ele>81.66666666666666</ele><time>2026-04-24T08:35:02.369Z</time></trkpt><trkpt lat="38.1445983" lon="15.66684"><ele>75.33333333333333</ele><time>2026-04-24T08:35:03.37Z</time></trkpt><trkpt lat="38.1444717" lon="15.6667033"><ele>69.0</ele><time>2026-04-24T08:35:04.37Z</time></trkpt><trkpt lat="38.14434" lon="15.6665533"><ele>69.0</ele><time>2026-04-24T08:35:05.37Z</time></trkpt><trkpt lat="38.1442033" lon="15.6663767"><ele>69.0</ele><time>2026-04-24T08:35:06.369Z</time></trkpt><trkpt lat="38.14407" lon="15.666165"><ele>69.0</ele><time>2026-04-24T08:35:07.37Z</time></trkpt><trkpt lat="38.14394" lon="15.66595"><ele>66.0</ele><time>2026-04-24T08:35:08.37Z</time></trkpt><trkpt lat="38.1438317" lon="15.6657483"><ele>63.0</ele><time>2026-04-24T08:35:09.369Z</time></trkpt><trkpt lat="38.14372" lon="15.6655383"><ele>60.0</ele><time>2026-04-24T08:35:10.37Z</time></trkpt><trkpt lat="38.14361" lon="15.6653517"><ele>61.66666666666667</ele><time>2026-04-24T08:35:11.37Z</time></trkpt><trkpt lat="38.1435017" lon="15.665165"><ele>63.333333333333336</ele><time>2026-04-24T08:35:12.369Z</time></trkpt><trkpt lat="38.1434033" lon="15.6649783"><ele>65.0</ele><time>2026-04-24T08:35:13.369Z</time></trkpt><trkpt lat="38.1432967" lon="15.6647983"><ele>68.66666666666667</ele><time>2026-04-24T08:35:14.37Z</time></trkpt><trkpt lat="38.1431817" lon="15.66461"><ele>72.33333333333333</ele><time>2026-04-24T08:35:15.37Z</time></trkpt><trkpt lat="38.143055" lon="15.6644333"><ele>76.0</ele><time>2026-04-24T08:35:16.369Z</time></trkpt><trkpt lat="38.1429333" lon="15.6642483"><ele>77.33333333333333</ele><time>2026-04-24T08:35:17.369Z</time></trkpt><trkpt lat="38.1428083" lon="15.664065"><ele>78.66666666666667</ele><time>2026-04-24T08:35:18.37Z</time></trkpt><trkpt lat="38.142675" lon="15.6638733"><ele>80.0</ele><time>2026-04-24T08:35:19.369Z</time></trkpt><trkpt lat="38.1425283" lon="15.663695"><ele>81.33333333333334</ele><time>2026-04-24T08:35:20.37Z</time></trkpt><trkpt lat="38.1423733" lon="15.6635067"><ele>82.66666666666667</ele><time>2026-04-24T08:35:21.37Z</time></trkpt><trkpt lat="38.14221" lon="15.6633267"><ele>84.0</ele><time>2026-04-24T08:35:22.37Z</time></trkpt><trkpt lat="38.14204" lon="15.6631333"><ele>84.0</ele><time>2026-04-24T08:35:23.37Z</time></trkpt><trkpt lat="38.1418633" lon="15.6629417"><ele>84.0</ele><time>2026-04-24T08:35:24.37Z</time></trkpt><trkpt lat="38.14168" lon="15.662765"><ele>79.5</ele><time>2026-04-24T08:35:25.37Z</time></trkpt><trkpt lat="38.141485" lon="15.662585"><ele>75.0</ele><time>2026-04-24T08:35:26.369Z</time></trkpt><trkpt lat="38.1412817" lon="15.6624167"><ele>75.0</ele><time>2026-04-24T08:35:27.37Z</time></trkpt><trkpt lat="38.1410717" lon="15.66225"><ele>75.0</ele><time>2026-04-24T08:35:28.369Z</time></trkpt><trkpt lat="38.1408633" lon="15.6620917"><ele>74.5</ele><time>2026-04-24T08:35:29.369Z</time></trkpt><trkpt lat="38.14063" lon="15.6619283"><ele>74.0</ele><time>2026-04-24T08:35:30.369Z</time></trkpt><trkpt lat="38.1403933" lon="15.661785"><ele>74.0</ele><time>2026-04-24T08:35:31.369Z</time></trkpt><trkpt lat="38.14015" lon="15.66164"><ele>74.0</ele><time>2026-04-24T08:35:32.37Z</time></trkpt><trkpt lat="38.139905" lon="15.6615133"><ele>72.0</ele><time>2026-04-24T08:35:33.369Z</time></trkpt><trkpt lat="38.1396517" lon="15.6613767"><ele>70.0</ele><time>2026-04-24T08:35:34.37Z</time></trkpt><trkpt lat="38.1393967" lon="15.6612533"><ele>68.0</ele><time>2026-04-24T08:35:35.37Z</time></trkpt><trkpt lat="38.139145" lon="15.6611117"><ele>66.0</ele><time>2026-04-24T08:35:36.369Z</time></trkpt><trkpt lat="38.1388883" lon="15.6609767"><ele>66.0</ele><time>2026-04-24T08:35:37.37Z</time></trkpt><trkpt lat="38.1386283" lon="15.6608417"><ele>66.0</ele><time>2026-04-24T08:35:38.369Z</time></trkpt><trkpt lat="38.13838" lon="15.6607067"><ele>72.5</ele><time>2026-04-24T08:35:39.369Z</time></trkpt><trkpt lat="38.1381283" lon="15.66057"><ele>79.0</ele><time>2026-04-24T08:35:40.37Z</time></trkpt><trkpt lat="38.1378817" lon="15.6604367"><ele>79.0</ele><time>2026-04-24T08:35:41.369Z</time></trkpt><trkpt lat="38.137635" lon="15.6603017"><ele>79.0</ele><time>2026-04-24T08:35:42.37Z</time></trkpt><trkpt lat="38.1373783" lon="15.660175"><ele>73.5</ele><time>2026-04-24T08:35:43.369Z</time></trkpt><trkpt lat="38.1371333" lon="15.6600317"><ele>68.0</ele><time>2026-04-24T08:35:44.369Z</time></trkpt><trkpt lat="38.136885" lon="15.6598983"><ele>68.0</ele><time>2026-04-24T08:35:45.37Z</time></trkpt><trkpt lat="38.1366417" lon="15.659765"><ele>68.0</ele><time>2026-04-24T08:35:46.37Z</time></trkpt><trkpt lat="38.1364" lon="15.65963"><ele>69.0</ele><time>2026-04-24T08:35:47.369Z</time></trkpt><trkpt lat="38.1361583" lon="15.6594967"><ele>70.0</ele><time>2026-04-24T08:35:48.369Z</time></trkpt><trkpt lat="38.1359133" lon="15.6593733"><ele>60.0</ele><time>2026-04-24T08:35:49.37Z</time></trkpt><trkpt lat="38.13567" lon="15.659245"><ele>50.0</ele><time>2026-04-24T08:35:50.37Z</time></trkpt><trkpt lat="38.13542" lon="15.6591433"><ele>50.0</ele><time>2026-04-24T08:35:51.369Z</time></trkpt><trkpt lat="38.1351767" lon="15.658965"><ele>50.0</ele><time>2026-04-24T08:35:52.369Z</time></trkpt><trkpt lat="38.134935" lon="15.658845"><ele>46.5</ele><time>2026-04-24T08:35:53.369Z</time></trkpt><trkpt lat="38.1347" lon="15.6587233"><ele>43.0</ele><time>2026-04-24T08:35:54.37Z</time></trkpt><trkpt lat="38.1344867" lon="15.658615"><ele>37.5</ele><time>2026-04-24T08:35:55.369Z</time></trkpt><trkpt lat="38.134265" lon="15.65851"><ele>32.0</ele><time>2026-04-24T08:35:56.369Z</time></trkpt><trkpt lat="38.1340667" lon="15.65839"><ele>41.33333333333333</ele><time>2026-04-24T08:35:57.369Z</time></trkpt><trkpt lat="38.1338817" lon="15.658285"><ele>50.666666666666664</ele><time>2026-04-24T08:35:58.37Z</time></trkpt><trkpt lat="38.1337217" lon="15.6581833"><ele>60.0</ele><time>2026-04-24T08:35:59.369Z</time></trkpt><trkpt lat="38.13356" lon="15.6580833"><ele>60.0</ele><time>2026-04-24T08:36:00.37Z</time></trkpt><trkpt lat="38.13341" lon="15.6579933"><ele>60.0</ele><time>2026-04-24T08:36:01.369Z</time></trkpt><trkpt lat="38.133285" lon="15.6579083"><ele>60.0</ele><time>2026-04-24T08:36:02.37Z</time></trkpt><trkpt lat="38.13317" lon="15.6578283"><ele>60.0</ele><time>2026-04-24T08:36:03.369Z</time></trkpt><trkpt lat="38.1330667" lon="15.657745"><ele>57.25</ele><time>2026-04-24T08:36:04.37Z</time></trkpt><trkpt lat="38.1329633" lon="15.6576517"><ele>54.5</ele><time>2026-04-24T08:36:05.369Z</time></trkpt><trkpt lat="38.13287" lon="15.6575567"><ele>51.75</ele><time>2026-04-24T08:36:06.37Z</time></trkpt><trkpt lat="38.1327783" lon="15.6574567"><ele>49.0</ele><time>2026-04-24T08:36:07.369Z</time></trkpt><trkpt lat="38.1327" lon="15.6573617"><ele>49.0</ele><time>2026-04-24T08:36:08.369Z</time></trkpt><trkpt lat="38.132615" lon="15.6572767"><ele>49.0</ele><time>2026-04-24T08:36:09.369Z</time></trkpt><trkpt lat="38.1325267" lon="15.6571983"><ele>49.0</ele><time>2026-04-24T08:36:10.37Z</time></trkpt><trkpt lat="38.13244" lon="15.6571183"><ele>49.0</ele><time>2026-04-24T08:36:11.369Z</time></trkpt><trkpt lat="38.1323417" lon="15.657045"><ele>49.0</ele><time>2026-04-24T08:36:12.369Z</time></trkpt><trkpt lat="38.1322333" lon="15.657"><ele>49.75</ele><time>2026-04-24T08:36:13.369Z</time></trkpt><trkpt lat="38.13212" lon="15.6569883"><ele>50.5</ele><time>2026-04-24T08:36:14.369Z</time></trkpt><trkpt lat="38.1320017" lon="15.6570117"><ele>51.25</ele><time>2026-04-24T08:36:15.369Z</time></trkpt><trkpt lat="38.1318933" lon="15.6570617"><ele>52.0</ele><time>2026-04-24T08:36:16.369Z</time></trkpt><trkpt lat="38.1317817" lon="15.6571267"><ele>52.0</ele><time>2026-04-24T08:36:17.369Z</time></trkpt><trkpt lat="38.1316833" lon="15.657195"><ele>52.0</ele><time>2026-04-24T08:36:18.369Z</time></trkpt><trkpt lat="38.1315767" lon="15.65727"><ele>52.0</ele><time>2026-04-24T08:36:19.369Z</time></trkpt><trkpt lat="38.131465" lon="15.6573467"><ele>52.0</ele><time>2026-04-24T08:36:20.37Z</time></trkpt><trkpt lat="38.1313467" lon="15.6574217"><ele>54.75</ele><time>2026-04-24T08:36:21.37Z</time></trkpt><trkpt lat="38.1312283" lon="15.6575033"><ele>57.5</ele><time>2026-04-24T08:36:22.369Z</time></trkpt><trkpt lat="38.1310983" lon="15.6575883"><ele>60.25</ele><time>2026-04-24T08:36:23.37Z</time></trkpt><trkpt lat="38.1309533" lon="15.65767"><ele>63.0</ele><time>2026-04-24T08:36:24.369Z</time></trkpt><trkpt lat="38.1307967" lon="15.6577517"><ele>66.33333333333333</ele><time>2026-04-24T08:36:25.37Z</time></trkpt><trkpt lat="38.1306433" lon="15.6578467"><ele>69.66666666666666</ele><time>2026-04-24T08:36:26.37Z</time></trkpt><trkpt lat="38.130485" lon="15.657945"><ele>73.0</ele><time>2026-04-24T08:36:27.369Z</time></trkpt><trkpt lat="38.1303167" lon="15.6580383"><ele>73.0</ele><time>2026-04-24T08:36:28.37Z</time></trkpt><trkpt lat="38.13015" lon="15.658145"><ele>73.0</ele><time>2026-04-24T08:36:29.37Z</time></trkpt><trkpt lat="38.1299667" lon="15.6582517"><ele>73.0</ele><time>2026-04-24T08:36:30.369Z</time></trkpt><trkpt lat="38.12979" lon="15.658365"><ele>71.66666666666666</ele><time>2026-04-24T08:36:31.37Z</time></trkpt><trkpt lat="38.12962" lon="15.6584967"><ele>70.33333333333333</ele><time>2026-04-24T08:36:32.369Z</time></trkpt><trkpt lat="38.1294433" lon="15.6586233"><ele>69.0</ele><time>2026-04-24T08:36:33.37Z</time></trkpt><trkpt lat="38.1292733" lon="15.6587517"><ele>71.33333333333333</ele><time>2026-04-24T08:36:34.37Z</time></trkpt><trkpt lat="38.129095" lon="15.6588717"><ele>73.66666666666666</ele><time>2026-04-24T08:36:35.369Z</time></trkpt><trkpt lat="38.1289083" lon="15.6589967"><ele>76.0</ele><time>2026-04-24T08:36:36.369Z</time></trkpt><trkpt lat="38.128715" lon="15.659125"><ele>76.0</ele><time>2026-04-24T08:36:37.37Z</time></trkpt><trkpt lat="38.1285167" lon="15.65925"><ele>76.0</ele><time>2026-04-24T08:36:38.369Z</time></trkpt><trkpt lat="38.1283217" lon="15.6593817"><ele>76.0</ele><time>2026-04-24T08:36:39.369Z</time></trkpt><trkpt lat="38.12813" lon="15.65951"><ele>78.0</ele><time>2026-04-24T08:36:40.369Z</time></trkpt><trkpt lat="38.1279333" lon="15.6596283"><ele>80.0</ele><time>2026-04-24T08:36:41.369Z</time></trkpt><trkpt lat="38.12774" lon="15.65975"><ele>82.0</ele><time>2026-04-24T08:36:42.369Z</time></trkpt><trkpt lat="38.1275417" lon="15.659885"><ele>75.5</ele><time>2026-04-24T08:36:43.37Z</time></trkpt><trkpt lat="38.1273417" lon="15.6600183"><ele>69.0</ele><time>2026-04-24T08:36:44.37Z</time></trkpt><trkpt lat="38.1271467" lon="15.6601633"><ele>73.5</ele><time>2026-04-24T08:36:45.37Z</time></trkpt><trkpt lat="38.12695" lon="15.66031"><ele>78.0</ele><time>2026-04-24T08:36:46.369Z</time></trkpt><trkpt lat="38.12675" lon="15.660455"><ele>75.0</ele><time>2026-04-24T08:36:47.369Z</time></trkpt><trkpt lat="38.1265533" lon="15.6606"><ele>72.0</ele><time>2026-04-24T08:36:48.369Z</time></trkpt><trkpt lat="38.1263617" lon="15.660755"><ele>72.0</ele><time>2026-04-24T08:36:49.37Z</time></trkpt><trkpt lat="38.1261867" lon="15.66093"><ele>72.0</ele><time>2026-04-24T08:36:50.369Z</time></trkpt><trkpt lat="38.12602" lon="15.6611233"><ele>72.0</ele><time>2026-04-24T08:36:51.37Z</time></trkpt><trkpt lat="38.1258583" lon="15.6613283"><ele>72.66666666666667</ele><time>2026-04-24T08:36:52.369Z</time></trkpt><trkpt lat="38.12571" lon="15.6615417"><ele>73.33333333333334</ele><time>2026-04-24T08:36:53.369Z</time></trkpt><trkpt lat="38.1255683" lon="15.6617617"><ele>74.0</ele><time>2026-04-24T08:36:54.37Z</time></trkpt><trkpt lat="38.1254417" lon="15.6619867"><ele>74.0</ele><time>2026-04-24T08:36:55.37Z</time></trkpt><trkpt lat="38.1253017" lon="15.6622167"><ele>74.0</ele><time>2026-04-24T08:36:56.369Z</time></trkpt><trkpt lat="38.12517" lon="15.6624367"><ele>74.0</ele><time>2026-04-24T08:36:57.369Z</time></trkpt><trkpt lat="38.1250317" lon="15.6626467"><ele>74.0</ele><time>2026-04-24T08:36:58.369Z</time></trkpt><trkpt lat="38.1248883" lon="15.6628333"><ele>74.0</ele><time>2026-04-24T08:36:59.369Z</time></trkpt><trkpt lat="38.1247383" lon="15.663005"><ele>74.0</ele><time>2026-04-24T08:37:00.369Z</time></trkpt><trkpt lat="38.12458" lon="15.663165"><ele>74.0</ele><time>2026-04-24T08:37:01.37Z</time></trkpt><trkpt lat="38.12441" lon="15.6633117"><ele>74.0</ele><time>2026-04-24T08:37:02.37Z</time></trkpt><trkpt lat="38.1242333" lon="15.66345"><ele>74.0</ele><time>2026-04-24T08:37:03.369Z</time></trkpt><trkpt lat="38.12405" lon="15.66356"><ele>69.66666666666667</ele><time>2026-04-24T08:37:04.369Z</time></trkpt><trkpt lat="38.1238617" lon="15.66366"><ele>65.33333333333333</ele><time>2026-04-24T08:37:05.37Z</time></trkpt><trkpt lat="38.1236633" lon="15.6637483"><ele>61.0</ele><time>2026-04-24T08:37:06.369Z</time></trkpt><trkpt lat="38.1234617" lon="15.6638133"><ele>61.0</ele><time>2026-04-24T08:37:07.37Z</time></trkpt><trkpt lat="38.123255" lon="15.6638617"><ele>61.0</ele><time>2026-04-24T08:37:08.369Z</time></trkpt><trkpt lat="38.12304" lon="15.6638883"><ele>61.0</ele><time>2026-04-24T08:37:09.37Z</time></trkpt><trkpt lat="38.122825" lon="15.6638983"><ele>61.0</ele><time>2026-04-24T08:37:10.37Z</time></trkpt><trkpt lat="38.1226117" lon="15.6638983"><ele>61.0</ele><time>2026-04-24T08:37:11.369Z</time></trkpt><trkpt lat="38.1223967" lon="15.6638767"><ele>61.0</ele><time>2026-04-24T08:37:12.37Z</time></trkpt><trkpt lat="38.122185" lon="15.6638317"><ele>66.0</ele><time>2026-04-24T08:37:13.369Z</time></trkpt><trkpt lat="38.1219767" lon="15.6637733"><ele>71.0</ele><time>2026-04-24T08:37:14.37Z</time></trkpt><trkpt lat="38.1217683" lon="15.6636967"><ele>76.0</ele><time>2026-04-24T08:37:15.37Z</time></trkpt><trkpt lat="38.1215617" lon="15.66361"><ele>82.66666666666666</ele><time>2026-04-24T08:37:16.37Z</time></trkpt><trkpt lat="38.1213683" lon="15.6634933"><ele>89.33333333333333</ele><time>2026-04-24T08:37:17.369Z</time></trkpt><trkpt lat="38.12117" lon="15.663385"><ele>96.0</ele><time>2026-04-24T08:37:18.369Z</time></trkpt><trkpt lat="38.1209717" lon="15.66328"><ele>96.0</ele><time>2026-04-24T08:37:19.37Z</time></trkpt><trkpt lat="38.1207733" lon="15.6631733"><ele>96.0</ele><time>2026-04-24T08:37:20.37Z</time></trkpt><trkpt lat="38.120575" lon="15.6630667"><ele>96.0</ele><time>2026-04-24T08:37:21.37Z</time></trkpt><trkpt lat="38.1203667" lon="15.66296"><ele>95.66666666666667</ele><time>2026-04-24T08:37:22.37Z</time></trkpt><trkpt lat="38.1201533" lon="15.6628667"><ele>95.33333333333334</ele><time>2026-04-24T08:37:23.37Z</time></trkpt><trkpt lat="38.1199433" lon="15.66278"><ele>95.0</ele><time>2026-04-24T08:37:24.37Z</time></trkpt><trkpt lat="38.1197217" lon="15.662715"><ele>90.0</ele><time>2026-04-24T08:37:25.37Z</time></trkpt><trkpt lat="38.1194983" lon="15.6626617"><ele>85.0</ele><time>2026-04-24T08:37:26.37Z</time></trkpt><trkpt lat="38.1192667" lon="15.6626167"><ele>86.0</ele><time>2026-04-24T08:37:27.369Z</time></trkpt><trkpt lat="38.1190317" lon="15.6626"><ele>87.0</ele><time>2026-04-24T08:37:28.369Z</time></trkpt><trkpt lat="38.1188067" lon="15.662585"><ele>87.0</ele><time>2026-04-24T08:37:29.369Z</time></trkpt><trkpt lat="38.11858" lon="15.6625883"><ele>87.0</ele><time>2026-04-24T08:37:30.369Z</time></trkpt><trkpt lat="38.1183467" lon="15.66259"><ele>86.33333333333333</ele><time>2026-04-24T08:37:31.369Z</time></trkpt><trkpt lat="38.1181183" lon="15.662605"><ele>85.66666666666666</ele><time>2026-04-24T08:37:32.369Z</time></trkpt><trkpt lat="38.1178983" lon="15.6626133"><ele>85.0</ele><time>2026-04-24T08:37:33.37Z</time></trkpt><trkpt lat="38.1176683" lon="15.6626317"><ele>85.0</ele><time>2026-04-24T08:37:34.37Z</time></trkpt><trkpt lat="38.1174433" lon="15.6626433"><ele>85.0</ele><time>2026-04-24T08:37:35.37Z</time></trkpt><trkpt lat="38.1172133" lon="15.662655"><ele>86.0</ele><time>2026-04-24T08:37:36.37Z</time></trkpt><trkpt lat="38.1169867" lon="15.6626633"><ele>87.0</ele><time>2026-04-24T08:37:37.37Z</time></trkpt><trkpt lat="38.11675" lon="15.6626717"><ele>87.0</ele><time>2026-04-24T08:37:38.369Z</time></trkpt><trkpt lat="38.1165117" lon="15.662675"><ele>87.0</ele><time>2026-04-24T08:37:39.37Z</time></trkpt><trkpt lat="38.1162717" lon="15.66267"><ele>87.0</ele><time>2026-04-24T08:37:40.37Z</time></trkpt><trkpt lat="38.1160317" lon="15.6626483"><ele>87.0</ele><time>2026-04-24T08:37:41.369Z</time></trkpt><trkpt lat="38.11579" lon="15.6626117"><ele>85.5</ele><time>2026-04-24T08:37:42.37Z</time></trkpt><trkpt lat="38.11555" lon="15.6625633"><ele>84.0</ele><time>2026-04-24T08:37:43.369Z</time></trkpt><trkpt lat="38.1153217" lon="15.6625133"><ele>84.0</ele><time>2026-04-24T08:37:44.369Z</time></trkpt><trkpt lat="38.1150917" lon="15.6624533"><ele>84.0</ele><time>2026-04-24T08:37:45.369Z</time></trkpt><trkpt lat="38.11485" lon="15.6624067"><ele>88.5</ele><time>2026-04-24T08:37:46.37Z</time></trkpt><trkpt lat="38.11461" lon="15.6623583"><ele>93.0</ele><time>2026-04-24T08:37:47.369Z</time></trkpt><trkpt lat="38.1143783" lon="15.6623033"><ele>93.0</ele><time>2026-04-24T08:37:48.37Z</time></trkpt><trkpt lat="38.11414" lon="15.6622483"><ele>93.0</ele><time>2026-04-24T08:37:49.37Z</time></trkpt><trkpt lat="38.1138933" lon="15.6621933"><ele>93.5</ele><time>2026-04-24T08:37:50.37Z</time></trkpt><trkpt lat="38.11366" lon="15.66213"><ele>94.0</ele><time>2026-04-24T08:37:51.369Z</time></trkpt><trkpt lat="38.1134217" lon="15.6620767"><ele>94.5</ele><time>2026-04-24T08:37:52.37Z</time></trkpt><trkpt lat="38.1131867" lon="15.6620083"><ele>95.0</ele><time>2026-04-24T08:37:53.369Z</time></trkpt><trkpt lat="38.1129517" lon="15.6619433"><ele>96.5</ele><time>2026-04-24T08:37:54.37Z</time></trkpt><trkpt lat="38.1127117" lon="15.6618783"><ele>98.0</ele><time>2026-04-24T08:37:55.37Z</time></trkpt><trkpt lat="38.1124717" lon="15.6618067"><ele>101.5</ele><time>2026-04-24T08:37:56.37Z</time></trkpt><trkpt lat="38.11223" lon="15.6617367"><ele>105.0</ele><time>2026-04-24T08:37:57.37Z</time></trkpt><trkpt lat="38.111995" lon="15.6616667"><ele>105.0</ele><time>2026-04-24T08:37:58.369Z</time></trkpt><trkpt lat="38.1117583" lon="15.661595"><ele>105.0</ele><time>2026-04-24T08:37:59.369Z</time></trkpt><trkpt lat="38.1115217" lon="15.661525"><ele>107.5</ele><time>2026-04-24T08:38:00.369Z</time></trkpt><trkpt lat="38.1112817" lon="15.6614533"><ele>110.0</ele><time>2026-04-24T08:38:01.37Z</time></trkpt><trkpt lat="38.11105" lon="15.6613783"><ele>110.0</ele><time>2026-04-24T08:38:02.37Z</time></trkpt><trkpt lat="38.11081" lon="15.6612983"><ele>110.0</ele><time>2026-04-24T08:38:03.369Z</time></trkpt><trkpt lat="38.1105733" lon="15.6612267"><ele>112.5</ele><time>2026-04-24T08:38:04.37Z</time></trkpt><trkpt lat="38.1103333" lon="15.6611567"><ele>115.0</ele><time>2026-04-24T08:38:05.369Z</time></trkpt><trkpt lat="38.1100967" lon="15.6610817"><ele>113.5</ele><time>2026-04-24T08:38:06.37Z</time></trkpt><trkpt lat="38.1098567" lon="15.661015"><ele>112.0</ele><time>2026-04-24T08:38:07.37Z</time></trkpt><trkpt lat="38.1096217" lon="15.66095"><ele>112.0</ele><time>2026-04-24T08:38:08.369Z</time></trkpt><trkpt lat="38.1093817" lon="15.6608833"><ele>112.0</ele><time>2026-04-24T08:38:09.37Z</time></trkpt><trkpt lat="38.109145" lon="15.6608083"><ele>118.0</ele><time>2026-04-24T08:38:10.369Z</time></trkpt><trkpt lat="38.108915" lon="15.6607367"><ele>124.0</ele><time>2026-04-24T08:38:11.37Z</time></trkpt><trkpt lat="38.1086833" lon="15.66066"><ele>124.0</ele><time>2026-04-24T08:38:12.369Z</time></trkpt><trkpt lat="38.1084517" lon="15.6605833"><ele>124.0</ele><time>2026-04-24T08:38:13.37Z</time></trkpt><trkpt lat="38.1082183" lon="15.6605067"><ele>124.5</ele><time>2026-04-24T08:38:14.37Z</time></trkpt><trkpt lat="38.1079867" lon="15.66043"><ele>125.0</ele><time>2026-04-24T08:38:15.369Z</time></trkpt><trkpt lat="38.1077567" lon="15.660355"><ele>123.5</ele><time>2026-04-24T08:38:16.369Z</time></trkpt><trkpt lat="38.107525" lon="15.6602783"><ele>122.0</ele><time>2026-04-24T08:38:17.37Z</time></trkpt><trkpt lat="38.1057233" lon="15.6597667"><ele>109.66666666666666</ele><time>2026-04-24T08:38:24.37Z</time></trkpt><trkpt lat="38.1055817" lon="15.6597267"><ele>97.33333333333333</ele><time>2026-04-24T08:38:25.37Z</time></trkpt><trkpt lat="38.1053433" lon="15.659695"><ele>85.0</ele><time>2026-04-24T08:38:26.369Z</time></trkpt><trkpt lat="38.1051133" lon="15.6596483"><ele>79.5</ele><time>2026-04-24T08:38:27.369Z</time></trkpt><trkpt lat="38.1048817" lon="15.659615"><ele>74.0</ele><time>2026-04-24T08:38:28.37Z</time></trkpt><trkpt lat="38.1046517" lon="15.6596033"><ele>74.0</ele><time>2026-04-24T08:38:29.37Z</time></trkpt><trkpt lat="38.1044117" lon="15.6595967"><ele>74.0</ele><time>2026-04-24T08:38:30.369Z</time></trkpt><trkpt lat="38.1041717" lon="15.6596033"><ele>70.0</ele><time>2026-04-24T08:38:31.369Z</time></trkpt><trkpt lat="38.103935" lon="15.659605"><ele>66.0</ele><time>2026-04-24T08:38:32.369Z</time></trkpt><trkpt lat="38.103685" lon="15.6596133"><ele>66.0</ele><time>2026-04-24T08:38:33.37Z</time></trkpt><trkpt lat="38.1034417" lon="15.659605"><ele>66.0</ele><time>2026-04-24T08:38:34.369Z</time></trkpt><trkpt lat="38.1031933" lon="15.65961"><ele>64.5</ele><time>2026-04-24T08:38:35.37Z</time></trkpt><trkpt lat="38.102955" lon="15.6595983"><ele>63.0</ele><time>2026-04-24T08:38:36.37Z</time></trkpt><trkpt lat="38.1027117" lon="15.6595917"><ele>63.0</ele><time>2026-04-24T08:38:37.369Z</time></trkpt><trkpt lat="38.102475" lon="15.6595933"><ele>63.0</ele><time>2026-04-24T08:38:38.369Z</time></trkpt><trkpt lat="38.1022267" lon="15.6596033"><ele>64.0</ele><time>2026-04-24T08:38:39.369Z</time></trkpt><trkpt lat="38.1019733" lon="15.65961"><ele>65.0</ele><time>2026-04-24T08:38:40.369Z</time></trkpt><trkpt lat="38.10173" lon="15.6596133"><ele>65.5</ele><time>2026-04-24T08:38:41.369Z</time></trkpt><trkpt lat="38.1014867" lon="15.659605"><ele>66.0</ele><time>2026-04-24T08:38:42.37Z</time></trkpt><trkpt lat="38.1012417" lon="15.6596017"><ele>66.0</ele><time>2026-04-24T08:38:43.37Z</time></trkpt><trkpt lat="38.1009983" lon="15.6596017"><ele>66.0</ele><time>2026-04-24T08:38:44.37Z</time></trkpt><trkpt lat="38.100765" lon="15.659595"><ele>68.0</ele><time>2026-04-24T08:38:45.369Z</time></trkpt><trkpt lat="38.1005283" lon="15.6595917"><ele>70.0</ele><time>2026-04-24T08:38:46.369Z</time></trkpt><trkpt lat="38.1002833" lon="15.65959"><ele>70.0</ele><time>2026-04-24T08:38:47.37Z</time></trkpt><trkpt lat="38.1000483" lon="15.65958"><ele>70.0</ele><time>2026-04-24T08:38:48.369Z</time></trkpt><trkpt lat="38.0998083" lon="15.659585"><ele>75.0</ele><time>2026-04-24T08:38:49.37Z</time></trkpt><trkpt lat="38.0995733" lon="15.6595733"><ele>80.0</ele><time>2026-04-24T08:38:50.369Z</time></trkpt><trkpt lat="38.0993417" lon="15.6595683"><ele>80.0</ele><time>2026-04-24T08:38:51.37Z</time></trkpt><trkpt lat="38.0990983" lon="15.659565"><ele>80.0</ele><time>2026-04-24T08:38:52.369Z</time></trkpt><trkpt lat="38.098855" lon="15.6595533"><ele>83.5</ele><time>2026-04-24T08:38:53.37Z</time></trkpt><trkpt lat="38.0986117" lon="15.6595433"><ele>87.0</ele><time>2026-04-24T08:38:54.37Z</time></trkpt><trkpt lat="38.0983733" lon="15.6595233"><ele>87.0</ele><time>2026-04-24T08:38:55.37Z</time></trkpt><trkpt lat="38.0981283" lon="15.6594933"><ele>87.0</ele><time>2026-04-24T08:38:56.369Z</time></trkpt><trkpt lat="38.0978833" lon="15.6594483"><ele>87.0</ele><time>2026-04-24T08:38:57.369Z</time></trkpt><trkpt lat="38.0976433" lon="15.6594"><ele>87.0</ele><time>2026-04-24T08:38:58.369Z</time></trkpt><trkpt lat="38.097405" lon="15.6593367"><ele>91.5</ele><time>2026-04-24T08:38:59.37Z</time></trkpt><trkpt lat="38.097175" lon="15.65926"><ele>96.0</ele><time>2026-04-24T08:39:00.369Z</time></trkpt><trkpt lat="38.0969317" lon="15.6592133"><ele>96.0</ele><time>2026-04-24T08:39:01.369Z</time></trkpt><trkpt lat="38.0966967" lon="15.65916"><ele>96.0</ele><time>2026-04-24T08:39:02.37Z</time></trkpt><trkpt lat="38.0964583" lon="15.6591067"><ele>97.5</ele><time>2026-04-24T08:39:03.37Z</time></trkpt><trkpt lat="38.0962183" lon="15.6590467"><ele>99.0</ele><time>2026-04-24T08:39:04.369Z</time></trkpt><trkpt lat="38.0959717" lon="15.6589983"><ele>100.5</ele><time>2026-04-24T08:39:05.369Z</time></trkpt><trkpt lat="38.0957333" lon="15.65897"><ele>102.0</ele><time>2026-04-24T08:39:06.37Z</time></trkpt><trkpt lat="38.0954983" lon="15.6589483"><ele>102.0</ele><time>2026-04-24T08:39:07.37Z</time></trkpt><trkpt lat="38.09527" lon="15.6589367"><ele>102.0</ele><time>2026-04-24T08:39:08.37Z</time></trkpt><trkpt lat="38.0950517" lon="15.6589483"><ele>102.0</ele><time>2026-04-24T08:39:09.369Z</time></trkpt><trkpt lat="38.0948183" lon="15.6589783"><ele>101.0</ele><time>2026-04-24T08:39:10.369Z</time></trkpt><trkpt lat="38.094585" lon="15.6590117"><ele>100.0</ele><time>2026-04-24T08:39:11.369Z</time></trkpt><trkpt lat="38.0943567" lon="15.65905"><ele>100.0</ele><time>2026-04-24T08:39:12.369Z</time></trkpt><trkpt lat="38.0941167" lon="15.6591183"><ele>100.0</ele><time>2026-04-24T08:39:13.369Z</time></trkpt><trkpt lat="38.0938717" lon="15.6592"><ele>99.5</ele><time>2026-04-24T08:39:14.369Z</time></trkpt><trkpt lat="38.0936183" lon="15.65927"><ele>99.0</ele><time>2026-04-24T08:39:15.37Z</time></trkpt><trkpt lat="38.0933467" lon="15.6593567"><ele>98.5</ele><time>2026-04-24T08:39:16.369Z</time></trkpt><trkpt lat="38.0930667" lon="15.6594467"><ele>98.0</ele><time>2026-04-24T08:39:17.369Z</time></trkpt><trkpt lat="38.0927783" lon="15.6595417"><ele>98.0</ele><time>2026-04-24T08:39:18.37Z</time></trkpt><trkpt lat="38.0924917" lon="15.6596467"><ele>98.0</ele><time>2026-04-24T08:39:19.37Z</time></trkpt><trkpt lat="38.09221" lon="15.65976"><ele>96.5</ele><time>2026-04-24T08:39:20.37Z</time></trkpt><trkpt lat="38.0919433" lon="15.65988"><ele>95.0</ele><time>2026-04-24T08:39:21.369Z</time></trkpt><trkpt lat="38.0916817" lon="15.6600117"><ele>89.0</ele><time>2026-04-24T08:39:22.369Z</time></trkpt><trkpt lat="38.0914467" lon="15.6601417"><ele>83.0</ele><time>2026-04-24T08:39:23.369Z</time></trkpt><trkpt lat="38.09122" lon="15.6602733"><ele>83.0</ele><time>2026-04-24T08:39:24.369Z</time></trkpt><trkpt lat="38.0909933" lon="15.66041"><ele>83.0</ele><time>2026-04-24T08:39:25.369Z</time></trkpt><trkpt lat="38.0907817" lon="15.6605433"><ele>80.5</ele><time>2026-04-24T08:39:26.37Z</time></trkpt><trkpt lat="38.0905783" lon="15.6606767"><ele>78.0</ele><time>2026-04-24T08:39:27.37Z</time></trkpt><trkpt lat="38.0903817" lon="15.6608083"><ele>78.0</ele><time>2026-04-24T08:39:28.37Z</time></trkpt><trkpt lat="38.0901833" lon="15.660935"><ele>78.0</ele><time>2026-04-24T08:39:29.369Z</time></trkpt><trkpt lat="38.0899833" lon="15.661065"><ele>78.0</ele><time>2026-04-24T08:39:30.37Z</time></trkpt><trkpt lat="38.0897767" lon="15.661195"><ele>78.0</ele><time>2026-04-24T08:39:31.37Z</time></trkpt><trkpt lat="38.0895767" lon="15.66132"><ele>78.0</ele><time>2026-04-24T08:39:32.37Z</time></trkpt><trkpt lat="38.0893783" lon="15.6614433"><ele>78.0</ele><time>2026-04-24T08:39:33.369Z</time></trkpt><trkpt lat="38.0891833" lon="15.6615667"><ele>75.0</ele><time>2026-04-24T08:39:34.369Z</time></trkpt><trkpt lat="38.0889867" lon="15.661705"><ele>72.0</ele><time>2026-04-24T08:39:35.37Z</time></trkpt><trkpt lat="38.0887733" lon="15.6618417"><ele>72.0</ele><time>2026-04-24T08:39:36.369Z</time></trkpt><trkpt lat="38.088545" lon="15.66198"><ele>72.0</ele><time>2026-04-24T08:39:37.369Z</time></trkpt><trkpt lat="38.0883067" lon="15.66212"><ele>71.0</ele><time>2026-04-24T08:39:38.369Z</time></trkpt><trkpt lat="38.0880667" lon="15.6622633"><ele>70.0</ele><time>2026-04-24T08:39:39.369Z</time></trkpt><trkpt lat="38.08782" lon="15.6624133"><ele>70.0</ele><time>2026-04-24T08:39:40.369Z</time></trkpt><trkpt lat="38.087565" lon="15.6625733"><ele>70.0</ele><time>2026-04-24T08:39:41.369Z</time></trkpt><trkpt lat="38.0873067" lon="15.6627317"><ele>70.5</ele><time>2026-04-24T08:39:42.369Z</time></trkpt><trkpt lat="38.0870533" lon="15.66289"><ele>71.0</ele><time>2026-04-24T08:39:43.37Z</time></trkpt><trkpt lat="38.0868133" lon="15.663045"><ele>71.5</ele><time>2026-04-24T08:39:44.369Z</time></trkpt><trkpt lat="38.0865767" lon="15.6631933"><ele>72.0</ele><time>2026-04-24T08:39:45.37Z</time></trkpt><trkpt lat="38.086355" lon="15.6633333"><ele>72.0</ele><time>2026-04-24T08:39:46.37Z</time></trkpt><trkpt lat="38.086135" lon="15.663465"><ele>72.0</ele><time>2026-04-24T08:39:47.369Z</time></trkpt><trkpt lat="38.0859217" lon="15.6635933"><ele>75.0</ele><time>2026-04-24T08:39:48.37Z</time></trkpt><trkpt lat="38.085715" lon="15.6637133"><ele>78.0</ele><time>2026-04-24T08:39:49.37Z</time></trkpt><trkpt lat="38.08552" lon="15.6638233"><ele>81.0</ele><time>2026-04-24T08:39:50.369Z</time></trkpt><trkpt lat="38.08533" lon="15.66392"><ele>81.0</ele><time>2026-04-24T08:39:51.37Z</time></trkpt><trkpt lat="38.08514" lon="15.6639967"><ele>81.0</ele><time>2026-04-24T08:39:52.37Z</time></trkpt><trkpt lat="38.08494" lon="15.66406"><ele>81.0</ele><time>2026-04-24T08:39:53.369Z</time></trkpt><trkpt lat="38.0847517" lon="15.664095"><ele>80.0</ele><time>2026-04-24T08:39:54.369Z</time></trkpt><trkpt lat="38.0845617" lon="15.6641433"><ele>79.0</ele><time>2026-04-24T08:39:55.369Z</time></trkpt><trkpt lat="38.084365" lon="15.6641883"><ele>78.0</ele><time>2026-04-24T08:39:56.37Z</time></trkpt><trkpt lat="38.0841683" lon="15.6642167"><ele>77.0</ele><time>2026-04-24T08:39:57.37Z</time></trkpt><trkpt lat="38.083965" lon="15.6642367"><ele>76.0</ele><time>2026-04-24T08:39:58.37Z</time></trkpt><trkpt lat="38.083745" lon="15.6642383"><ele>75.0</ele><time>2026-04-24T08:39:59.369Z</time></trkpt><trkpt lat="38.0835117" lon="15.6642467"><ele>75.0</ele><time>2026-04-24T08:40:00.37Z</time></trkpt><trkpt lat="38.0832683" lon="15.6642583"><ele>75.0</ele><time>2026-04-24T08:40:01.369Z</time></trkpt><trkpt lat="38.0830183" lon="15.66426"><ele>73.0</ele><time>2026-04-24T08:40:02.369Z</time></trkpt><trkpt lat="38.0827683" lon="15.6642733"><ele>71.0</ele><time>2026-04-24T08:40:03.369Z</time></trkpt><trkpt lat="38.0825117" lon="15.66428"><ele>70.5</ele><time>2026-04-24T08:40:04.369Z</time></trkpt><trkpt lat="38.08225" lon="15.66429"><ele>70.0</ele><time>2026-04-24T08:40:05.37Z</time></trkpt><trkpt lat="38.0819917" lon="15.6643067"><ele>70.0</ele><time>2026-04-24T08:40:06.37Z</time></trkpt><trkpt lat="38.081735" lon="15.6643217"><ele>70.0</ele><time>2026-04-24T08:40:07.37Z</time></trkpt><trkpt lat="38.0814767" lon="15.6643533"><ele>69.5</ele><time>2026-04-24T08:40:08.369Z</time></trkpt><trkpt lat="38.08122" lon="15.66437"><ele>69.0</ele><time>2026-04-24T08:40:09.369Z</time></trkpt><trkpt lat="38.080965" lon="15.6643817"><ele>67.0</ele><time>2026-04-24T08:40:10.37Z</time></trkpt><trkpt lat="38.0807083" lon="15.664395"><ele>65.0</ele><time>2026-04-24T08:40:11.37Z</time></trkpt><trkpt lat="38.0804533" lon="15.6644"><ele>65.0</ele><time>2026-04-24T08:40:12.369Z</time></trkpt><trkpt lat="38.08019" lon="15.664405"><ele>65.0</ele><time>2026-04-24T08:40:13.369Z</time></trkpt><trkpt lat="38.079925" lon="15.6644117"><ele>62.5</ele><time>2026-04-24T08:40:14.369Z</time></trkpt><trkpt lat="38.0796667" lon="15.664415"><ele>60.0</ele><time>2026-04-24T08:40:15.37Z</time></trkpt><trkpt lat="38.0794017" lon="15.6644283"><ele>60.0</ele><time>2026-04-24T08:40:16.369Z</time></trkpt><trkpt lat="38.0791383" lon="15.6644267"><ele>60.0</ele><time>2026-04-24T08:40:17.369Z</time></trkpt><trkpt lat="38.07887" lon="15.66443"><ele>58.0</ele><time>2026-04-24T08:40:18.37Z</time></trkpt><trkpt lat="38.0786" lon="15.664435"><ele>56.0</ele><time>2026-04-24T08:40:19.369Z</time></trkpt><trkpt lat="38.0783317" lon="15.66444"><ele>57.5</ele><time>2026-04-24T08:40:20.369Z</time></trkpt><trkpt lat="38.0780683" lon="15.6644483"><ele>59.0</ele><time>2026-04-24T08:40:21.369Z</time></trkpt><trkpt lat="38.0777983" lon="15.66446"><ele>59.0</ele><time>2026-04-24T08:40:22.369Z</time></trkpt><trkpt lat="38.0775283" lon="15.664465"><ele>59.0</ele><time>2026-04-24T08:40:23.37Z</time></trkpt><trkpt lat="38.0772567" lon="15.6644733"><ele>57.0</ele><time>2026-04-24T08:40:24.369Z</time></trkpt><trkpt lat="38.0769933" lon="15.6644633"><ele>55.0</ele><time>2026-04-24T08:40:25.37Z</time></trkpt><trkpt lat="38.0767333" lon="15.6644417"><ele>53.5</ele><time>2026-04-24T08:40:26.37Z</time></trkpt><trkpt lat="38.0764633" lon="15.6644183"><ele>52.0</ele><time>2026-04-24T08:40:27.369Z</time></trkpt><trkpt lat="38.076205" lon="15.6643717"><ele>52.0</ele><time>2026-04-24T08:40:28.369Z</time></trkpt><trkpt lat="38.07594" lon="15.6643117"><ele>52.0</ele><time>2026-04-24T08:40:29.37Z</time></trkpt><trkpt lat="38.0756683" lon="15.66425"><ele>47.0</ele><time>2026-04-24T08:40:30.37Z</time></trkpt><trkpt lat="38.075385" lon="15.6641683"><ele>42.0</ele><time>2026-04-24T08:40:31.369Z</time></trkpt><trkpt lat="38.0751033" lon="15.66409"><ele>39.0</ele><time>2026-04-24T08:40:32.369Z</time></trkpt><trkpt lat="38.074815" lon="15.664"><ele>36.0</ele><time>2026-04-24T08:40:33.37Z</time></trkpt><trkpt lat="38.0745233" lon="15.6638983"><ele>36.0</ele><time>2026-04-24T08:40:34.369Z</time></trkpt><trkpt lat="38.0742333" lon="15.663795"><ele>36.0</ele><time>2026-04-24T08:40:35.37Z</time></trkpt><trkpt lat="38.07393" lon="15.663685"><ele>34.0</ele><time>2026-04-24T08:40:36.369Z</time></trkpt><trkpt lat="38.0736017" lon="15.663575"><ele>32.0</ele><time>2026-04-24T08:40:37.369Z</time></trkpt><trkpt lat="38.0732733" lon="15.6634633"><ele>32.5</ele><time>2026-04-24T08:40:38.369Z</time></trkpt><trkpt lat="38.0729517" lon="15.663375"><ele>33.0</ele><time>2026-04-24T08:40:39.37Z</time></trkpt><trkpt lat="38.0726433" lon="15.6633083"><ele>33.0</ele><time>2026-04-24T08:40:40.369Z</time></trkpt><trkpt lat="38.0723467" lon="15.6632617"><ele>33.0</ele><time>2026-04-24T08:40:41.369Z</time></trkpt><trkpt lat="38.07207" lon="15.66322"><ele>33.0</ele><time>2026-04-24T08:40:42.37Z</time></trkpt><trkpt lat="38.07181" lon="15.6631983"><ele>33.0</ele><time>2026-04-24T08:40:43.37Z</time></trkpt><trkpt lat="38.0715567" lon="15.6631867"><ele>34.5</ele><time>2026-04-24T08:40:44.369Z</time></trkpt><trkpt lat="38.0713217" lon="15.663175"><ele>36.0</ele><time>2026-04-24T08:40:45.369Z</time></trkpt><trkpt lat="38.0710967" lon="15.66317"><ele>36.0</ele><time>2026-04-24T08:40:46.369Z</time></trkpt><trkpt lat="38.0708683" lon="15.6631717"><ele>36.0</ele><time>2026-04-24T08:40:47.37Z</time></trkpt><trkpt lat="38.0706483" lon="15.6631733"><ele>36.0</ele><time>2026-04-24T08:40:48.37Z</time></trkpt><trkpt lat="38.0704333" lon="15.6631767"><ele>36.0</ele><time>2026-04-24T08:40:49.37Z</time></trkpt><trkpt lat="38.0702183" lon="15.6631817"><ele>36.0</ele><time>2026-04-24T08:40:50.369Z</time></trkpt><trkpt lat="38.0700033" lon="15.66317"><ele>36.0</ele><time>2026-04-24T08:40:51.369Z</time></trkpt><trkpt lat="38.06979" lon="15.6631683"><ele>36.333333333333336</ele><time>2026-04-24T08:40:52.37Z</time></trkpt><trkpt lat="38.069585" lon="15.6631583"><ele>36.66666666666667</ele><time>2026-04-24T08:40:53.369Z</time></trkpt><trkpt lat="38.0693767" lon="15.663155"><ele>37.0</ele><time>2026-04-24T08:40:54.369Z</time></trkpt><trkpt lat="38.0691717" lon="15.66314"><ele>37.333333333333336</ele><time>2026-04-24T08:40:55.369Z</time></trkpt><trkpt lat="38.068975" lon="15.6631233"><ele>37.666666666666664</ele><time>2026-04-24T08:40:56.369Z</time></trkpt><trkpt lat="38.0687833" lon="15.6631033"><ele>38.0</ele><time>2026-04-24T08:40:57.369Z</time></trkpt><trkpt lat="38.0685933" lon="15.66307"><ele>38.0</ele><time>2026-04-24T08:40:58.37Z</time></trkpt><trkpt lat="38.0684" lon="15.6630433"><ele>38.0</ele><time>2026-04-24T08:40:59.37Z</time></trkpt><trkpt lat="38.068205" lon="15.6630233"><ele>38.0</ele><time>2026-04-24T08:41:00.37Z</time></trkpt><trkpt lat="38.0680167" lon="15.6629983"><ele>39.0</ele><time>2026-04-24T08:41:01.369Z</time></trkpt><trkpt lat="38.0678333" lon="15.662975"><ele>40.0</ele><time>2026-04-24T08:41:02.369Z</time></trkpt><trkpt lat="38.0676417" lon="15.66295"><ele>41.0</ele><time>2026-04-24T08:41:03.37Z</time></trkpt><trkpt lat="38.0674583" lon="15.6629283"><ele>41.33333333333333</ele><time>2026-04-24T08:41:04.369Z</time></trkpt><trkpt lat="38.0672817" lon="15.6628983"><ele>41.666666666666664</ele><time>2026-04-24T08:41:05.37Z</time></trkpt><trkpt lat="38.0670983" lon="15.6628817"><ele>42.0</ele><time>2026-04-24T08:41:06.369Z</time></trkpt><trkpt lat="38.0669233" lon="15.6628583"><ele>42.0</ele><time>2026-04-24T08:41:07.369Z</time></trkpt><trkpt lat="38.0667433" lon="15.6628433"><ele>42.0</ele><time>2026-04-24T08:41:08.369Z</time></trkpt><trkpt lat="38.066565" lon="15.6628117"><ele>42.0</ele><time>2026-04-24T08:41:09.369Z</time></trkpt><trkpt lat="38.066385" lon="15.6627833"><ele>41.666666666666664</ele><time>2026-04-24T08:41:10.37Z</time></trkpt><trkpt lat="38.0662117" lon="15.6627667"><ele>41.33333333333333</ele><time>2026-04-24T08:41:11.369Z</time></trkpt><trkpt lat="38.06604" lon="15.6627317"><ele>41.0</ele><time>2026-04-24T08:41:12.369Z</time></trkpt><trkpt lat="38.0658767" lon="15.6627117"><ele>40.666666666666664</ele><time>2026-04-24T08:41:13.369Z</time></trkpt><trkpt lat="38.0657183" lon="15.6626933"><ele>40.333333333333336</ele><time>2026-04-24T08:41:14.369Z</time></trkpt><trkpt lat="38.0655517" lon="15.662675"><ele>40.0</ele><time>2026-04-24T08:41:15.369Z</time></trkpt><trkpt lat="38.0653983" lon="15.66265"><ele>40.0</ele><time>2026-04-24T08:41:16.369Z</time></trkpt><trkpt lat="38.06525" lon="15.6626283"><ele>40.0</ele><time>2026-04-24T08:41:17.37Z</time></trkpt><trkpt lat="38.0651117" lon="15.6626217"><ele>40.0</ele><time>2026-04-24T08:41:18.369Z</time></trkpt><trkpt lat="38.0649833" lon="15.66261"><ele>40.0</ele><time>2026-04-24T08:41:19.37Z</time></trkpt><trkpt lat="38.0648717" lon="15.662595"><ele>40.16666666666667</ele><time>2026-04-24T08:41:20.37Z</time></trkpt><trkpt lat="38.064785" lon="15.6625683"><ele>40.333333333333336</ele><time>2026-04-24T08:41:21.37Z</time></trkpt><trkpt lat="38.06471" lon="15.6625467"><ele>40.5</ele><time>2026-04-24T08:41:22.37Z</time></trkpt><trkpt lat="38.0646517" lon="15.6625033"><ele>40.666666666666664</ele><time>2026-04-24T08:41:23.37Z</time></trkpt><trkpt lat="38.0645967" lon="15.6624633"><ele>40.83333333333333</ele><time>2026-04-24T08:41:24.369Z</time></trkpt><trkpt lat="38.0644933" lon="15.6624267"><ele>41.0</ele><time>2026-04-24T08:41:26.369Z</time></trkpt><trkpt lat="38.0644183" lon="15.6623717"><ele>41.0</ele><time>2026-04-24T08:41:28.37Z</time></trkpt><trkpt lat="38.0643583" lon="15.662315"><ele>41.0</ele><time>2026-04-24T08:41:30.37Z</time></trkpt><trkpt lat="38.0643033" lon="15.662255"><ele>41.0</ele><time>2026-04-24T08:57:11.367Z</time></trkpt><trkpt lat="38.0643483" lon="15.66235"><ele>41.0</ele><time>2026-04-24T08:57:16.368Z</time></trkpt><trkpt lat="38.0642833" lon="15.66245"><ele>41.0</ele><time>2026-04-24T08:57:18.367Z</time></trkpt><trkpt lat="38.0641333" lon="15.662485"><ele>40.0</ele><time>2026-04-24T08:57:20.368Z</time></trkpt><trkpt lat="38.0640133" lon="15.6624833"><ele>39.0</ele><time>2026-04-24T08:57:21.367Z</time></trkpt><trkpt lat="38.0638633" lon="15.6624617"><ele>38.0</ele><time>2026-04-24T08:57:22.367Z</time></trkpt><trkpt lat="38.06367" lon="15.6624283"><ele>38.0</ele><time>2026-04-24T08:57:23.367Z</time></trkpt><trkpt lat="38.0634683" lon="15.6624017"><ele>38.0</ele><time>2026-04-24T08:57:24.367Z</time></trkpt><trkpt lat="38.0632683" lon="15.6623783"><ele>38.0</ele><time>2026-04-24T08:57:25.368Z</time></trkpt><trkpt lat="38.0630833" lon="15.66236"><ele>39.33333333333333</ele><time>2026-04-24T08:57:26.368Z</time></trkpt><trkpt lat="38.0629083" lon="15.6623417"><ele>40.666666666666664</ele><time>2026-04-24T08:57:27.367Z</time></trkpt><trkpt lat="38.06274" lon="15.66233"><ele>42.0</ele><time>2026-04-24T08:57:28.367Z</time></trkpt><trkpt lat="38.0625717" lon="15.662315"><ele>42.666666666666664</ele><time>2026-04-24T08:57:29.367Z</time></trkpt><trkpt lat="38.0624183" lon="15.6622833"><ele>43.33333333333333</ele><time>2026-04-24T08:57:30.367Z</time></trkpt><trkpt lat="38.0622583" lon="15.66226"><ele>44.0</ele><time>2026-04-24T08:57:31.367Z</time></trkpt><trkpt lat="38.0621033" lon="15.66223"><ele>44.0</ele><time>2026-04-24T08:57:32.367Z</time></trkpt><trkpt lat="38.0619617" lon="15.6621967"><ele>44.0</ele><time>2026-04-24T08:57:33.367Z</time></trkpt><trkpt lat="38.06183" lon="15.6621533"><ele>44.0</ele><time>2026-04-24T08:57:34.368Z</time></trkpt><trkpt lat="38.0617017" lon="15.6621067"><ele>44.0</ele><time>2026-04-24T08:57:35.367Z</time></trkpt><trkpt lat="38.06158" lon="15.66205"><ele>45.25</ele><time>2026-04-24T08:57:36.368Z</time></trkpt><trkpt lat="38.0614533" lon="15.6619933"><ele>46.5</ele><time>2026-04-24T08:57:37.368Z</time></trkpt><trkpt lat="38.0613133" lon="15.66192"><ele>47.75</ele><time>2026-04-24T08:57:38.367Z</time></trkpt><trkpt lat="38.0611683" lon="15.661845"><ele>49.0</ele><time>2026-04-24T08:57:39.367Z</time></trkpt><trkpt lat="38.0610083" lon="15.6617817"><ele>47.0</ele><time>2026-04-24T08:57:40.367Z</time></trkpt><trkpt lat="38.0608483" lon="15.661725"><ele>45.0</ele><time>2026-04-24T08:57:41.367Z</time></trkpt><trkpt lat="38.060695" lon="15.6616717"><ele>43.0</ele><time>2026-04-24T08:57:42.368Z</time></trkpt><trkpt lat="38.0605633" lon="15.6616183"><ele>43.0</ele><time>2026-04-24T08:57:43.367Z</time></trkpt><trkpt lat="38.0604467" lon="15.661575"><ele>43.0</ele><time>2026-04-24T08:57:44.368Z</time></trkpt><trkpt lat="38.0603483" lon="15.6615283"><ele>43.0</ele><time>2026-04-24T08:57:45.367Z</time></trkpt><trkpt lat="38.0602633" lon="15.66149"><ele>43.0</ele><time>2026-04-24T08:57:46.368Z</time></trkpt><trkpt lat="38.0601983" lon="15.6614583"><ele>43.0</ele><time>2026-04-24T08:57:47.367Z</time></trkpt><trkpt lat="38.060095" lon="15.6614333"><ele>43.0</ele><time>2026-04-24T08:57:49.368Z</time></trkpt><trkpt lat="38.060015" lon="15.66146"><ele>43.0</ele><time>2026-04-24T08:57:51.367Z</time></trkpt><trkpt lat="38.0599367" lon="15.66152"><ele>43.0</ele><time>2026-04-24T08:57:53.367Z</time></trkpt><trkpt lat="38.0598433" lon="15.661535"><ele>43.0</ele><time>2026-04-24T08:57:55.368Z</time></trkpt><trkpt lat="38.0597217" lon="15.6614767"><ele>43.0</ele><time>2026-04-24T08:57:57.367Z</time></trkpt><trkpt lat="38.0596517" lon="15.6614683"><ele>43.0</ele><time>2026-04-24T08:57:58.368Z</time></trkpt><trkpt lat="38.0595817" lon="15.6614983"><ele>43.0</ele><time>2026-04-24T08:57:59.368Z</time></trkpt><trkpt lat="38.059515" lon="15.6615733"><ele>43.0</ele><time>2026-04-24T08:58:00.367Z</time></trkpt><trkpt lat="38.0594383" lon="15.6616717"><ele>43.0</ele><time>2026-04-24T08:58:01.367Z</time></trkpt><trkpt lat="38.0593817" lon="15.6618233"><ele>43.0</ele><time>2026-04-24T08:58:02.367Z</time></trkpt><trkpt lat="38.0592717" lon="15.6619567"><ele>44.333333333333336</ele><time>2026-04-24T08:58:03.367Z</time></trkpt><trkpt lat="38.059145" lon="15.6621167"><ele>45.666666666666664</ele><time>2026-04-24T08:58:04.368Z</time></trkpt><trkpt lat="38.0590267" lon="15.6622733"><ele>47.0</ele><time>2026-04-24T08:58:05.368Z</time></trkpt><trkpt lat="38.0589183" lon="15.6624333"><ele>47.0</ele><time>2026-04-24T08:58:06.368Z</time></trkpt><trkpt lat="38.0588267" lon="15.6626017"><ele>47.0</ele><time>2026-04-24T08:58:07.367Z</time></trkpt><trkpt lat="38.0587467" lon="15.6627683"><ele>47.0</ele><time>2026-04-24T08:58:08.368Z</time></trkpt><trkpt lat="38.05868" lon="15.66291"><ele>47.0</ele><time>2026-04-24T08:58:09.367Z</time></trkpt><trkpt lat="38.058625" lon="15.6630467"><ele>48.6</ele><time>2026-04-24T08:58:10.368Z</time></trkpt><trkpt lat="38.0585833" lon="15.6631817"><ele>50.2</ele><time>2026-04-24T08:58:11.368Z</time></trkpt><trkpt lat="38.0585483" lon="15.6633117"><ele>51.8</ele><time>2026-04-24T08:58:12.367Z</time></trkpt><trkpt lat="38.0585033" lon="15.6634333"><ele>53.4</ele><time>2026-04-24T08:58:13.367Z</time></trkpt><trkpt lat="38.0584583" lon="15.6635667"><ele>55.0</ele><time>2026-04-24T08:58:14.367Z</time></trkpt><trkpt lat="38.0584083" lon="15.6637133"><ele>55.0</ele><time>2026-04-24T08:58:15.367Z</time></trkpt><trkpt lat="38.0583517" lon="15.66386"><ele>55.0</ele><time>2026-04-24T08:58:16.367Z</time></trkpt><trkpt lat="38.0583017" lon="15.6640233"><ele>55.0</ele><time>2026-04-24T08:58:17.367Z</time></trkpt><trkpt lat="38.0582417" lon="15.66417"><ele>55.0</ele><time>2026-04-24T08:58:18.367Z</time></trkpt><trkpt lat="38.05818" lon="15.664315"><ele>56.5</ele><time>2026-04-24T08:58:19.368Z</time></trkpt><trkpt lat="38.0581217" lon="15.6644617"><ele>58.0</ele><time>2026-04-24T08:58:20.368Z</time></trkpt><trkpt lat="38.058065" lon="15.664615"><ele>59.5</ele><time>2026-04-24T08:58:21.367Z</time></trkpt><trkpt lat="38.058015" lon="15.6647617"><ele>61.0</ele><time>2026-04-24T08:58:22.368Z</time></trkpt><trkpt lat="38.0579717" lon="15.664905"><ele>61.0</ele><time>2026-04-24T08:58:23.367Z</time></trkpt><trkpt lat="38.0579333" lon="15.665035"><ele>60.99999999999999</ele><time>2026-04-24T08:58:24.368Z</time></trkpt><trkpt lat="38.0578983" lon="15.6651533"><ele>60.99999999999999</ele><time>2026-04-24T08:58:25.368Z</time></trkpt><trkpt lat="38.0578617" lon="15.6652617"><ele>61.0</ele><time>2026-04-24T08:58:26.367Z</time></trkpt><trkpt lat="38.05783" lon="15.66537"><ele>61.0</ele><time>2026-04-24T08:58:27.367Z</time></trkpt><trkpt lat="38.0578" lon="15.6654833"><ele>62.199999999999996</ele><time>2026-04-24T08:58:28.367Z</time></trkpt><trkpt lat="38.0577733" lon="15.6656033"><ele>63.39999999999999</ele><time>2026-04-24T08:58:29.367Z</time></trkpt><trkpt lat="38.0577633" lon="15.6657333"><ele>64.6</ele><time>2026-04-24T08:58:30.367Z</time></trkpt><trkpt lat="38.0577633" lon="15.6658767"><ele>65.8</ele><time>2026-04-24T08:58:31.367Z</time></trkpt><trkpt lat="38.0577617" lon="15.6660267"><ele>67.0</ele><time>2026-04-24T08:58:32.367Z</time></trkpt><trkpt lat="38.0577433" lon="15.6661683"><ele>68.6</ele><time>2026-04-24T08:58:33.367Z</time></trkpt><trkpt lat="38.0577083" lon="15.6663083"><ele>70.2</ele><time>2026-04-24T08:58:34.367Z</time></trkpt><trkpt lat="38.0576683" lon="15.6664317"><ele>71.8</ele><time>2026-04-24T08:58:35.367Z</time></trkpt><trkpt lat="38.0576333" lon="15.6665283"><ele>73.4</ele><time>2026-04-24T08:58:36.368Z</time></trkpt><trkpt lat="38.0576" lon="15.6666217"><ele>75.0</ele><time>2026-04-24T08:58:37.367Z</time></trkpt><trkpt lat="38.0575683" lon="15.6667083"><ele>75.0</ele><time>2026-04-24T08:58:38.368Z</time></trkpt><trkpt lat="38.057545" lon="15.666785"><ele>75.0</ele><time>2026-04-24T08:58:39.367Z</time></trkpt><trkpt lat="38.057495" lon="15.666915"><ele>75.0</ele><time>2026-04-24T08:58:41.368Z</time></trkpt><trkpt lat="38.0574" lon="15.6670183"><ele>75.0</ele><time>2026-04-24T08:58:43.367Z</time></trkpt><trkpt lat="38.05735" lon="15.6670867"><ele>75.0</ele><time>2026-04-24T08:58:44.367Z</time></trkpt><trkpt lat="38.057295" lon="15.6671717"><ele>74.2</ele><time>2026-04-24T08:58:45.367Z</time></trkpt><trkpt lat="38.0572383" lon="15.6672783"><ele>73.4</ele><time>2026-04-24T08:58:46.367Z</time></trkpt><trkpt lat="38.057195" lon="15.667385"><ele>72.6</ele><time>2026-04-24T08:58:47.367Z</time></trkpt><trkpt lat="38.0571683" lon="15.667495"><ele>71.8</ele><time>2026-04-24T08:58:48.367Z</time></trkpt><trkpt lat="38.0571383" lon="15.6676017"><ele>71.0</ele><time>2026-04-24T08:58:49.367Z</time></trkpt><trkpt lat="38.0571017" lon="15.6677133"><ele>73.0</ele><time>2026-04-24T08:58:50.368Z</time></trkpt><trkpt lat="38.0570617" lon="15.6678267"><ele>75.0</ele><time>2026-04-24T08:58:51.367Z</time></trkpt><trkpt lat="38.0570233" lon="15.6679583"><ele>77.0</ele><time>2026-04-24T08:58:52.368Z</time></trkpt><trkpt lat="38.0569967" lon="15.6680767"><ele>79.0</ele><time>2026-04-24T08:58:53.368Z</time></trkpt><trkpt lat="38.0569617" lon="15.6681883"><ele>81.0</ele><time>2026-04-24T08:58:54.368Z</time></trkpt><trkpt lat="38.056945" lon="15.6682867"><ele>81.0</ele><time>2026-04-24T08:58:55.368Z</time></trkpt><trkpt lat="38.0569317" lon="15.668385"><ele>81.0</ele><time>2026-04-24T08:58:57.367Z</time></trkpt><trkpt lat="38.0569167" lon="15.6684667"><ele>81.0</ele><time>2026-04-24T08:59:06.367Z</time></trkpt><trkpt lat="38.0568867" lon="15.66854"><ele>81.0</ele><time>2026-04-24T08:59:08.367Z</time></trkpt><trkpt lat="38.0568683" lon="15.6686533"><ele>81.0</ele><time>2026-04-24T08:59:10.367Z</time></trkpt><trkpt lat="38.056835" lon="15.6688117"><ele>81.0</ele><time>2026-04-24T08:59:12.367Z</time></trkpt><trkpt lat="38.056815" lon="15.6689117"><ele>82.4</ele><time>2026-04-24T08:59:13.368Z</time></trkpt><trkpt lat="38.0567933" lon="15.669035"><ele>83.8</ele><time>2026-04-24T08:59:14.368Z</time></trkpt><trkpt lat="38.0567767" lon="15.6691683"><ele>85.2</ele><time>2026-04-24T08:59:15.367Z</time></trkpt><trkpt lat="38.05676" lon="15.6693133"><ele>86.60000000000001</ele><time>2026-04-24T08:59:16.368Z</time></trkpt><trkpt lat="38.05674" lon="15.6694667"><ele>88.0</ele><time>2026-04-24T08:59:17.367Z</time></trkpt><trkpt lat="38.0567183" lon="15.6696233"><ele>89.75</ele><time>2026-04-24T08:59:18.368Z</time></trkpt><trkpt lat="38.05669" lon="15.669785"><ele>91.5</ele><time>2026-04-24T08:59:19.367Z</time></trkpt><trkpt lat="38.0566667" lon="15.66995"><ele>93.25</ele><time>2026-04-24T08:59:20.368Z</time></trkpt><trkpt lat="38.0566517" lon="15.6701033"><ele>95.0</ele><time>2026-04-24T08:59:21.368Z</time></trkpt><trkpt lat="38.0566267" lon="15.67024"><ele>93.0</ele><time>2026-04-24T08:59:22.367Z</time></trkpt><trkpt lat="38.0566133" lon="15.670375"><ele>91.0</ele><time>2026-04-24T08:59:23.367Z</time></trkpt><trkpt lat="38.0565883" lon="15.6705017"><ele>89.0</ele><time>2026-04-24T08:59:24.368Z</time></trkpt><trkpt lat="38.05655" lon="15.6706467"><ele>87.0</ele><time>2026-04-24T08:59:25.368Z</time></trkpt><trkpt lat="38.056535" lon="15.6707917"><ele>85.0</ele><time>2026-04-24T08:59:26.367Z</time></trkpt><trkpt lat="38.0565183" lon="15.6709417"><ele>85.0</ele><time>2026-04-24T08:59:27.368Z</time></trkpt><trkpt lat="38.05649" lon="15.6710833"><ele>85.0</ele><time>2026-04-24T08:59:28.367Z</time></trkpt><trkpt lat="38.0564667" lon="15.6712217"><ele>85.0</ele><time>2026-04-24T08:59:29.368Z</time></trkpt><trkpt lat="38.0564433" lon="15.6713417"><ele>85.0</ele><time>2026-04-24T08:59:30.368Z</time></trkpt><trkpt lat="38.056405" lon="15.6714717"><ele>85.0</ele><time>2026-04-24T08:59:31.368Z</time></trkpt><trkpt lat="38.056375" lon="15.6715967"><ele>86.5</ele><time>2026-04-24T08:59:32.368Z</time></trkpt><trkpt lat="38.0563417" lon="15.671705"><ele>88.0</ele><time>2026-04-24T08:59:33.367Z</time></trkpt><trkpt lat="38.05632" lon="15.6718317"><ele>89.5</ele><time>2026-04-24T08:59:34.368Z</time></trkpt><trkpt lat="38.056315" lon="15.6719383"><ele>91.0</ele><time>2026-04-24T08:59:35.367Z</time></trkpt><trkpt lat="38.05631" lon="15.6720367"><ele>92.5</ele><time>2026-04-24T08:59:36.367Z</time></trkpt><trkpt lat="38.056305" lon="15.6721233"><ele>94.0</ele><time>2026-04-24T08:59:37.367Z</time></trkpt><trkpt lat="38.0562917" lon="15.6722067"><ele>94.80000000000001</ele><time>2026-04-24T08:59:38.367Z</time></trkpt><trkpt lat="38.0562683" lon="15.672305"><ele>95.60000000000001</ele><time>2026-04-24T08:59:39.368Z</time></trkpt><trkpt lat="38.0562433" lon="15.672415"><ele>96.4</ele><time>2026-04-24T08:59:40.368Z</time></trkpt><trkpt lat="38.056215" lon="15.6725267"><ele>97.2</ele><time>2026-04-24T08:59:41.367Z</time></trkpt><trkpt lat="38.0561767" lon="15.6726517"><ele>98.0</ele><time>2026-04-24T08:59:42.367Z</time></trkpt><trkpt lat="38.0561467" lon="15.672795"><ele>99.0</ele><time>2026-04-24T08:59:43.368Z</time></trkpt><trkpt lat="38.0561333" lon="15.6729483"><ele>100.0</ele><time>2026-04-24T08:59:44.367Z</time></trkpt><trkpt lat="38.05611" lon="15.67309"><ele>101.0</ele><time>2026-04-24T08:59:45.367Z</time></trkpt><trkpt lat="38.0560883" lon="15.67322"><ele>102.0</ele><time>2026-04-24T08:59:46.367Z</time></trkpt><trkpt lat="38.0560583" lon="15.67334"><ele>103.0</ele><time>2026-04-24T08:59:47.368Z</time></trkpt><trkpt lat="38.05604" lon="15.6734467"><ele>103.0</ele><time>2026-04-24T08:59:48.367Z</time></trkpt><trkpt lat="38.0560133" lon="15.673545"><ele>103.0</ele><time>2026-04-24T08:59:49.367Z</time></trkpt><trkpt lat="38.0559983" lon="15.6736483"><ele>103.0</ele><time>2026-04-24T08:59:50.368Z</time></trkpt><trkpt lat="38.0559767" lon="15.6737683"><ele>103.0</ele><time>2026-04-24T08:59:51.368Z</time></trkpt><trkpt lat="38.0559467" lon="15.673895"><ele>103.0</ele><time>2026-04-24T08:59:52.368Z</time></trkpt><trkpt lat="38.0559033" lon="15.6740333"><ele>104.25</ele><time>2026-04-24T08:59:53.367Z</time></trkpt><trkpt lat="38.0558717" lon="15.6741817"><ele>105.5</ele><time>2026-04-24T08:59:54.367Z</time></trkpt><trkpt lat="38.0558583" lon="15.6743317"><ele>106.75</ele><time>2026-04-24T08:59:55.367Z</time></trkpt><trkpt lat="38.0558183" lon="15.6744817"><ele>108.0</ele><time>2026-04-24T08:59:56.367Z</time></trkpt><trkpt lat="38.05576" lon="15.6746183"><ele>108.0</ele><time>2026-04-24T08:59:57.367Z</time></trkpt><trkpt lat="38.0556767" lon="15.674755"><ele>108.0</ele><time>2026-04-24T08:59:58.368Z</time></trkpt><trkpt lat="38.0555867" lon="15.6748867"><ele>108.0</ele><time>2026-04-24T08:59:59.367Z</time></trkpt><trkpt lat="38.0554983" lon="15.6750617"><ele>108.0</ele><time>2026-04-24T09:00:00.368Z</time></trkpt><trkpt lat="38.055405" lon="15.675225"><ele>112.33333333333334</ele><time>2026-04-24T09:00:01.368Z</time></trkpt><trkpt lat="38.0553217" lon="15.6754"><ele>116.66666666666667</ele><time>2026-04-24T09:00:02.368Z</time></trkpt><trkpt lat="38.0552183" lon="15.6755783"><ele>121.0</ele><time>2026-04-24T09:00:03.368Z</time></trkpt><trkpt lat="38.055125" lon="15.6757483"><ele>121.0</ele><time>2026-04-24T09:00:04.367Z</time></trkpt><trkpt lat="38.0550267" lon="15.6759217"><ele>121.0</ele><time>2026-04-24T09:00:05.368Z</time></trkpt><trkpt lat="38.0549217" lon="15.6760983"><ele>121.0</ele><time>2026-04-24T09:00:06.368Z</time></trkpt><trkpt lat="38.0548217" lon="15.676265"><ele>120.0</ele><time>2026-04-24T09:00:07.368Z</time></trkpt><trkpt lat="38.054725" lon="15.6764283"><ele>119.0</ele><time>2026-04-24T09:00:08.368Z</time></trkpt><trkpt lat="38.05465" lon="15.6765833"><ele>118.0</ele><time>2026-04-24T09:00:09.367Z</time></trkpt><trkpt lat="38.0545817" lon="15.67672"><ele>117.0</ele><time>2026-04-24T09:00:10.367Z</time></trkpt><trkpt lat="38.0545317" lon="15.6768567"><ele>118.0</ele><time>2026-04-24T09:00:11.368Z</time></trkpt><trkpt lat="38.0545233" lon="15.6769817"><ele>118.99999999999999</ele><time>2026-04-24T09:00:12.368Z</time></trkpt><trkpt lat="38.054535" lon="15.6771083"><ele>119.99999999999999</ele><time>2026-04-24T09:00:13.368Z</time></trkpt><trkpt lat="38.054575" lon="15.6772383"><ele>121.0</ele><time>2026-04-24T09:00:14.368Z</time></trkpt><trkpt lat="38.05463" lon="15.67738"><ele>122.0</ele><time>2026-04-24T09:00:15.367Z</time></trkpt><trkpt lat="38.0546783" lon="15.677515"><ele>122.0</ele><time>2026-04-24T09:00:16.367Z</time></trkpt><trkpt lat="38.0547183" lon="15.6776567"><ele>122.0</ele><time>2026-04-24T09:00:17.368Z</time></trkpt><trkpt lat="38.05473" lon="15.67781"><ele>122.0</ele><time>2026-04-24T09:00:18.368Z</time></trkpt><trkpt lat="38.0547033" lon="15.6779633"><ele>122.0</ele><time>2026-04-24T09:00:19.368Z</time></trkpt><trkpt lat="38.0546667" lon="15.6781267"><ele>124.0</ele><time>2026-04-24T09:00:20.366Z</time></trkpt><trkpt lat="38.0546467" lon="15.67828"><ele>125.99999999999999</ele><time>2026-04-24T09:00:21.366Z</time></trkpt><trkpt lat="38.0546333" lon="15.6784217"><ele>127.99999999999999</ele><time>2026-04-24T09:00:22.367Z</time></trkpt><trkpt lat="38.05463" lon="15.6785417"><ele>130.0</ele><time>2026-04-24T09:00:23.366Z</time></trkpt><trkpt lat="38.0546217" lon="15.6786317"><ele>132.0</ele><time>2026-04-24T09:00:24.367Z</time></trkpt><trkpt lat="38.054575" lon="15.6787533"><ele>134.0</ele><time>2026-04-24T09:00:26.367Z</time></trkpt><trkpt lat="38.0545267" lon="15.67881"><ele>136.0</ele><time>2026-04-24T09:00:27.367Z</time></trkpt><trkpt lat="38.054455" lon="15.67887"><ele>138.0</ele><time>2026-04-24T09:00:28.367Z</time></trkpt><trkpt lat="38.0543533" lon="15.67892"><ele>140.0</ele><time>2026-04-24T09:00:29.366Z</time></trkpt><trkpt lat="38.0542717" lon="15.6789617"><ele>142.0</ele><time>2026-04-24T09:00:30.366Z</time></trkpt><trkpt lat="38.0541667" lon="15.67899"><ele>138.25</ele><time>2026-04-24T09:00:31.367Z</time></trkpt><trkpt lat="38.0540483" lon="15.6790333"><ele>134.5</ele><time>2026-04-24T09:00:32.366Z</time></trkpt><trkpt lat="38.053925" lon="15.6791067"><ele>130.75</ele><time>2026-04-24T09:00:33.366Z</time></trkpt><trkpt lat="38.053805" lon="15.6792167"><ele>127.0</ele><time>2026-04-24T09:00:34.367Z</time></trkpt><trkpt lat="38.0537" lon="15.6793067"><ele>127.0</ele><time>2026-04-24T09:00:35.366Z</time></trkpt><trkpt lat="38.0535933" lon="15.6794117"><ele>127.0</ele><time>2026-04-24T09:00:36.367Z</time></trkpt><trkpt lat="38.0535017" lon="15.6795283"><ele>127.0</ele><time>2026-04-24T09:00:37.367Z</time></trkpt><trkpt lat="38.053415" lon="15.6796533"><ele>127.0</ele><time>2026-04-24T09:00:38.367Z</time></trkpt><trkpt lat="38.0533533" lon="15.6797917"><ele>127.0</ele><time>2026-04-24T09:00:39.366Z</time></trkpt><trkpt lat="38.0533017" lon="15.679945"><ele>126.99999999999999</ele><time>2026-04-24T09:00:40.367Z</time></trkpt><trkpt lat="38.053265" lon="15.68009"><ele>126.99999999999999</ele><time>2026-04-24T09:00:41.367Z</time></trkpt><trkpt lat="38.053235" lon="15.6802083"><ele>127.0</ele><time>2026-04-24T09:00:42.367Z</time></trkpt><trkpt lat="38.053215" lon="15.680325"><ele>127.0</ele><time>2026-04-24T09:00:43.366Z</time></trkpt><trkpt lat="38.0531967" lon="15.6804183"><ele>127.0</ele><time>2026-04-24T09:00:44.366Z</time></trkpt><trkpt lat="38.0531817" lon="15.6805067"><ele>126.99999999999999</ele><time>2026-04-24T09:00:45.366Z</time></trkpt><trkpt lat="38.053155" lon="15.6806167"><ele>126.99999999999999</ele><time>2026-04-24T09:00:46.366Z</time></trkpt><trkpt lat="38.0531317" lon="15.6807283"><ele>127.0</ele><time>2026-04-24T09:00:47.366Z</time></trkpt><trkpt lat="38.0530833" lon="15.6808483"><ele>127.0</ele><time>2026-04-24T09:00:48.366Z</time></trkpt><trkpt lat="38.0530317" lon="15.680995"><ele>128.5</ele><time>2026-04-24T09:00:49.366Z</time></trkpt><trkpt lat="38.0529717" lon="15.6811333"><ele>130.0</ele><time>2026-04-24T09:00:50.367Z</time></trkpt><trkpt lat="38.0529067" lon="15.6812783"><ele>131.5</ele><time>2026-04-24T09:00:51.366Z</time></trkpt><trkpt lat="38.0528533" lon="15.681415"><ele>133.0</ele><time>2026-04-24T09:00:52.366Z</time></trkpt><trkpt lat="38.05279" lon="15.6815533"><ele>133.0</ele><time>2026-04-24T09:00:53.367Z</time></trkpt><trkpt lat="38.0526917" lon="15.68171"><ele>133.0</ele><time>2026-04-24T09:00:54.366Z</time></trkpt><trkpt lat="38.052635" lon="15.6818433"><ele>133.0</ele><time>2026-04-24T09:00:55.367Z</time></trkpt><trkpt lat="38.0525683" lon="15.68194"><ele>133.0</ele><time>2026-04-24T09:00:56.367Z</time></trkpt><trkpt lat="38.0524967" lon="15.68204"><ele>133.25</ele><time>2026-04-24T09:00:57.366Z</time></trkpt><trkpt lat="38.0524067" lon="15.6821267"><ele>133.5</ele><time>2026-04-24T09:00:58.366Z</time></trkpt><trkpt lat="38.0523017" lon="15.6822133"><ele>133.75</ele><time>2026-04-24T09:00:59.367Z</time></trkpt><trkpt lat="38.0521733" lon="15.682295"><ele>134.0</ele><time>2026-04-24T09:01:00.366Z</time></trkpt><trkpt lat="38.0520383" lon="15.6823833"><ele>134.0</ele><time>2026-04-24T09:01:01.367Z</time></trkpt><trkpt lat="38.051895" lon="15.6824867"><ele>134.0</ele><time>2026-04-24T09:01:02.366Z</time></trkpt><trkpt lat="38.0517417" lon="15.682575"><ele>134.0</ele><time>2026-04-24T09:01:03.366Z</time></trkpt><trkpt lat="38.0516017" lon="15.6826767"><ele>134.75</ele><time>2026-04-24T09:01:04.367Z</time></trkpt><trkpt lat="38.05148" lon="15.6827817"><ele>135.5</ele><time>2026-04-24T09:01:05.367Z</time></trkpt><trkpt lat="38.0513667" lon="15.682875"><ele>136.25</ele><time>2026-04-24T09:01:06.366Z</time></trkpt><trkpt lat="38.0512467" lon="15.6829833"><ele>137.0</ele><time>2026-04-24T09:01:07.366Z</time></trkpt><trkpt lat="38.051155" lon="15.6831017"><ele>137.0</ele><time>2026-04-24T09:01:08.366Z</time></trkpt><trkpt lat="38.0510933" lon="15.6832583"><ele>137.0</ele><time>2026-04-24T09:01:09.366Z</time></trkpt><trkpt lat="38.0510633" lon="15.6834267"><ele>137.0</ele><time>2026-04-24T09:01:10.366Z</time></trkpt><trkpt lat="38.0510383" lon="15.6836"><ele>137.0</ele><time>2026-04-24T09:01:11.366Z</time></trkpt><trkpt lat="38.0510167" lon="15.6837767"><ele>138.0</ele><time>2026-04-24T09:01:12.367Z</time></trkpt><trkpt lat="38.051" lon="15.6839617"><ele>139.0</ele><time>2026-04-24T09:01:13.366Z</time></trkpt><trkpt lat="38.050995" lon="15.6841467"><ele>140.0</ele><time>2026-04-24T09:01:14.366Z</time></trkpt><trkpt lat="38.0509933" lon="15.6843333"><ele>141.0</ele><time>2026-04-24T09:01:15.367Z</time></trkpt><trkpt lat="38.0509817" lon="15.6845017"><ele>142.0</ele><time>2026-04-24T09:01:16.366Z</time></trkpt><trkpt lat="38.050965" lon="15.684645"><ele>143.0</ele><time>2026-04-24T09:01:17.366Z</time></trkpt><trkpt lat="38.0509367" lon="15.68478"><ele>144.0</ele><time>2026-04-24T09:01:18.366Z</time></trkpt><trkpt lat="38.05089" lon="15.6849017"><ele>145.0</ele><time>2026-04-24T09:01:19.367Z</time></trkpt><trkpt lat="38.0508133" lon="15.6849883"><ele>146.0</ele><time>2026-04-24T09:01:20.367Z</time></trkpt><trkpt lat="38.05073" lon="15.6850283"><ele>146.0</ele><time>2026-04-24T09:01:21.366Z</time></trkpt><trkpt lat="38.0506283" lon="15.685025"><ele>146.0</ele><time>2026-04-24T09:01:22.366Z</time></trkpt><trkpt lat="38.0505283" lon="15.684995"><ele>146.0</ele><time>2026-04-24T09:01:23.366Z</time></trkpt><trkpt lat="38.0504167" lon="15.68496"><ele>146.0</ele><time>2026-04-24T09:01:24.367Z</time></trkpt><trkpt lat="38.0502933" lon="15.6849133"><ele>146.0</ele><time>2026-04-24T09:01:25.367Z</time></trkpt><trkpt lat="38.050165" lon="15.68487"><ele>146.0</ele><time>2026-04-24T09:01:26.366Z</time></trkpt><trkpt lat="38.0500317" lon="15.6848033"><ele>146.0</ele><time>2026-04-24T09:01:27.366Z</time></trkpt><trkpt lat="38.04991" lon="15.6847383"><ele>146.0</ele><time>2026-04-24T09:01:28.367Z</time></trkpt><trkpt lat="38.0497783" lon="15.6846883"><ele>146.0</ele><time>2026-04-24T09:01:29.366Z</time></trkpt><trkpt lat="38.0496517" lon="15.6846483"><ele>146.5</ele><time>2026-04-24T09:01:30.367Z</time></trkpt><trkpt lat="38.0495267" lon="15.6846183"><ele>147.0</ele><time>2026-04-24T09:01:31.367Z</time></trkpt><trkpt lat="38.049405" lon="15.6846267"><ele>147.5</ele><time>2026-04-24T09:01:32.367Z</time></trkpt><trkpt lat="38.04928" lon="15.6846733"><ele>148.0</ele><time>2026-04-24T09:01:33.366Z</time></trkpt><trkpt lat="38.0491683" lon="15.68476"><ele>148.0</ele><time>2026-04-24T09:01:34.366Z</time></trkpt><trkpt lat="38.0490783" lon="15.6848767"><ele>148.0</ele><time>2026-04-24T09:01:35.367Z</time></trkpt><trkpt lat="38.049" lon="15.685015"><ele>148.0</ele><time>2026-04-24T09:01:36.366Z</time></trkpt><trkpt lat="38.0489317" lon="15.685165"><ele>148.0</ele><time>2026-04-24T09:01:37.367Z</time></trkpt><trkpt lat="38.0488633" lon="15.6853167"><ele>148.75</ele><time>2026-04-24T09:01:38.367Z</time></trkpt><trkpt lat="38.0488" lon="15.68548"><ele>149.5</ele><time>2026-04-24T09:01:39.366Z</time></trkpt><trkpt lat="38.048735" lon="15.6856467"><ele>150.25</ele><time>2026-04-24T09:01:40.367Z</time></trkpt><trkpt lat="38.0486633" lon="15.685815"><ele>151.0</ele><time>2026-04-24T09:01:41.367Z</time></trkpt><trkpt lat="38.0485933" lon="15.685985"><ele>153.0</ele><time>2026-04-24T09:01:42.367Z</time></trkpt><trkpt lat="38.0485217" lon="15.6861617"><ele>155.0</ele><time>2026-04-24T09:01:43.367Z</time></trkpt><trkpt lat="38.048455" lon="15.6863367"><ele>157.0</ele><time>2026-04-24T09:01:44.366Z</time></trkpt><trkpt lat="38.048395" lon="15.686525"><ele>157.0</ele><time>2026-04-24T09:01:45.366Z</time></trkpt><trkpt lat="38.0483417" lon="15.68672"><ele>157.0</ele><time>2026-04-24T09:01:46.366Z</time></trkpt><trkpt lat="38.0482967" lon="15.686905"><ele>157.0</ele><time>2026-04-24T09:01:47.367Z</time></trkpt><trkpt lat="38.048255" lon="15.6870983"><ele>157.33333333333334</ele><time>2026-04-24T09:01:48.366Z</time></trkpt><trkpt lat="38.0482217" lon="15.6873"><ele>157.66666666666666</ele><time>2026-04-24T09:01:49.366Z</time></trkpt><trkpt lat="38.048195" lon="15.6875017"><ele>158.0</ele><time>2026-04-24T09:01:50.366Z</time></trkpt><trkpt lat="38.0481683" lon="15.687715"><ele>159.66666666666666</ele><time>2026-04-24T09:01:51.366Z</time></trkpt><trkpt lat="38.0481517" lon="15.68793"><ele>161.33333333333334</ele><time>2026-04-24T09:01:52.367Z</time></trkpt><trkpt lat="38.04814" lon="15.6881467"><ele>163.0</ele><time>2026-04-24T09:01:53.366Z</time></trkpt><trkpt lat="38.04814" lon="15.6883567"><ele>163.0</ele><time>2026-04-24T09:01:54.366Z</time></trkpt><trkpt lat="38.048135" lon="15.688575"><ele>163.0</ele><time>2026-04-24T09:01:55.367Z</time></trkpt><trkpt lat="38.0481233" lon="15.6887933"><ele>163.0</ele><time>2026-04-24T09:01:56.366Z</time></trkpt><trkpt lat="38.04812" lon="15.6890083"><ele>163.66666666666669</ele><time>2026-04-24T09:01:57.366Z</time></trkpt><trkpt lat="38.0481067" lon="15.6892317"><ele>164.33333333333334</ele><time>2026-04-24T09:01:58.366Z</time></trkpt><trkpt lat="38.048105" lon="15.689445"><ele>165.0</ele><time>2026-04-24T09:01:59.366Z</time></trkpt><trkpt lat="38.0480933" lon="15.6896517"><ele>166.33333333333334</ele><time>2026-04-24T09:02:00.367Z</time></trkpt><trkpt lat="38.0480883" lon="15.68986"><ele>167.66666666666669</ele><time>2026-04-24T09:02:01.367Z</time></trkpt><trkpt lat="38.0480867" lon="15.6900683"><ele>169.0</ele><time>2026-04-24T09:02:02.366Z</time></trkpt><trkpt lat="38.04808" lon="15.6902783"><ele>171.33333333333334</ele><time>2026-04-24T09:02:03.366Z</time></trkpt><trkpt lat="38.0480733" lon="15.6904717"><ele>173.66666666666666</ele><time>2026-04-24T09:02:04.366Z</time></trkpt><trkpt lat="38.04806" lon="15.69068"><ele>176.0</ele><time>2026-04-24T09:02:05.367Z</time></trkpt><trkpt lat="38.0480383" lon="15.69089"><ele>177.33333333333331</ele><time>2026-04-24T09:02:06.367Z</time></trkpt><trkpt lat="38.0480133" lon="15.6910967"><ele>178.66666666666666</ele><time>2026-04-24T09:02:07.366Z</time></trkpt><trkpt lat="38.047975" lon="15.6913033"><ele>180.0</ele><time>2026-04-24T09:02:08.366Z</time></trkpt><trkpt lat="38.0479483" lon="15.6915133"><ele>180.0</ele><time>2026-04-24T09:02:09.366Z</time></trkpt><trkpt lat="38.0479367" lon="15.69172"><ele>180.0</ele><time>2026-04-24T09:02:10.366Z</time></trkpt><trkpt lat="38.0479283" lon="15.6919233"><ele>180.0</ele><time>2026-04-24T09:02:11.367Z</time></trkpt><trkpt lat="38.0479217" lon="15.69213"><ele>181.66666666666666</ele><time>2026-04-24T09:02:12.367Z</time></trkpt><trkpt lat="38.0479267" lon="15.6923433"><ele>183.33333333333331</ele><time>2026-04-24T09:02:13.367Z</time></trkpt><trkpt lat="38.0479467" lon="15.692545"><ele>185.0</ele><time>2026-04-24T09:02:14.366Z</time></trkpt><trkpt lat="38.0479817" lon="15.6927467"><ele>186.66666666666666</ele><time>2026-04-24T09:02:15.367Z</time></trkpt><trkpt lat="38.0480167" lon="15.6929567"><ele>188.33333333333334</ele><time>2026-04-24T09:02:16.366Z</time></trkpt><trkpt lat="38.048055" lon="15.693165"><ele>190.0</ele><time>2026-04-24T09:02:17.367Z</time></trkpt><trkpt lat="38.0480933" lon="15.6933817"><ele>191.0</ele><time>2026-04-24T09:02:18.367Z</time></trkpt><trkpt lat="38.0481317" lon="15.6935917"><ele>192.0</ele><time>2026-04-24T09:02:19.367Z</time></trkpt><trkpt lat="38.04817" lon="15.693805"><ele>193.0</ele><time>2026-04-24T09:02:20.366Z</time></trkpt><trkpt lat="38.048215" lon="15.6940133"><ele>193.0</ele><time>2026-04-24T09:02:21.366Z</time></trkpt><trkpt lat="38.048265" lon="15.6942217"><ele>193.0</ele><time>2026-04-24T09:02:22.366Z</time></trkpt><trkpt lat="38.0483133" lon="15.6944267"><ele>193.0</ele><time>2026-04-24T09:02:23.366Z</time></trkpt><trkpt lat="38.0483567" lon="15.6946267"><ele>196.33333333333331</ele><time>2026-04-24T09:02:24.367Z</time></trkpt><trkpt lat="38.0484" lon="15.6948233"><ele>199.66666666666669</ele><time>2026-04-24T09:02:25.366Z</time></trkpt><trkpt lat="38.048445" lon="15.6950167"><ele>203.0</ele><time>2026-04-24T09:02:26.366Z</time></trkpt><trkpt lat="38.0484683" lon="15.6952"><ele>205.0</ele><time>2026-04-24T09:02:27.367Z</time></trkpt><trkpt lat="38.04848" lon="15.6953583"><ele>207.0</ele><time>2026-04-24T09:02:28.367Z</time></trkpt><trkpt lat="38.048475" lon="15.69553"><ele>209.0</ele><time>2026-04-24T09:02:29.367Z</time></trkpt><trkpt lat="38.0484833" lon="15.6956983"><ele>211.0</ele><time>2026-04-24T09:02:30.367Z</time></trkpt><trkpt lat="38.0485083" lon="15.6958633"><ele>211.0</ele><time>2026-04-24T09:02:31.367Z</time></trkpt><trkpt lat="38.04854" lon="15.6960283"><ele>211.0</ele><time>2026-04-24T09:02:32.366Z</time></trkpt><trkpt lat="38.0485617" lon="15.6961933"><ele>211.0</ele><time>2026-04-24T09:02:33.367Z</time></trkpt><trkpt lat="38.048555" lon="15.6963483"><ele>211.0</ele><time>2026-04-24T09:02:34.366Z</time></trkpt><trkpt lat="38.0485217" lon="15.6965267"><ele>210.66666666666666</ele><time>2026-04-24T09:02:35.367Z</time></trkpt><trkpt lat="38.0484833" lon="15.69671"><ele>210.33333333333331</ele><time>2026-04-24T09:02:36.366Z</time></trkpt><trkpt lat="38.0484367" lon="15.696895"><ele>210.0</ele><time>2026-04-24T09:02:37.366Z</time></trkpt><trkpt lat="38.0483867" lon="15.6970767"><ele>209.66666666666669</ele><time>2026-04-24T09:02:38.367Z</time></trkpt><trkpt lat="38.04834" lon="15.6972733"><ele>209.33333333333334</ele><time>2026-04-24T09:02:39.367Z</time></trkpt><trkpt lat="38.0482933" lon="15.697475"><ele>209.0</ele><time>2026-04-24T09:02:40.367Z</time></trkpt><trkpt lat="38.048245" lon="15.69769"><ele>210.0</ele><time>2026-04-24T09:02:41.367Z</time></trkpt><trkpt lat="38.0481933" lon="15.6979"><ele>211.0</ele><time>2026-04-24T09:02:42.367Z</time></trkpt><trkpt lat="38.04814" lon="15.698115"><ele>212.0</ele><time>2026-04-24T09:02:43.366Z</time></trkpt><trkpt lat="38.0481133" lon="15.6983467"><ele>212.0</ele><time>2026-04-24T09:02:44.367Z</time></trkpt><trkpt lat="38.0481017" lon="15.69857"><ele>212.0</ele><time>2026-04-24T09:02:45.367Z</time></trkpt><trkpt lat="38.0481017" lon="15.6988117"><ele>212.0</ele><time>2026-04-24T09:02:46.366Z</time></trkpt><trkpt lat="38.048105" lon="15.69905"><ele>213.0</ele><time>2026-04-24T09:02:47.367Z</time></trkpt><trkpt lat="38.04811" lon="15.6992833"><ele>214.0</ele><time>2026-04-24T09:02:48.367Z</time></trkpt><trkpt lat="38.0481033" lon="15.6995183"><ele>215.0</ele><time>2026-04-24T09:02:49.367Z</time></trkpt><trkpt lat="38.04809" lon="15.6997533"><ele>215.66666666666669</ele><time>2026-04-24T09:02:50.366Z</time></trkpt><trkpt lat="38.04808" lon="15.6999717"><ele>216.33333333333331</ele><time>2026-04-24T09:02:51.366Z</time></trkpt><trkpt lat="38.048075" lon="15.7001867"><ele>217.0</ele><time>2026-04-24T09:02:52.366Z</time></trkpt><trkpt lat="38.04807" lon="15.7003983"><ele>218.0</ele><time>2026-04-24T09:02:53.366Z</time></trkpt><trkpt lat="38.0480517" lon="15.700605"><ele>219.0</ele><time>2026-04-24T09:02:54.367Z</time></trkpt><trkpt lat="38.0480417" lon="15.700805"><ele>220.0</ele><time>2026-04-24T09:02:55.366Z</time></trkpt><trkpt lat="38.0480367" lon="15.7010117"><ele>222.33333333333331</ele><time>2026-04-24T09:02:56.366Z</time></trkpt><trkpt lat="38.0480417" lon="15.7012233"><ele>224.66666666666669</ele><time>2026-04-24T09:02:57.367Z</time></trkpt><trkpt lat="38.048035" lon="15.7014317"><ele>227.0</ele><time>2026-04-24T09:02:58.366Z</time></trkpt><trkpt lat="38.0480283" lon="15.70162"><ele>227.0</ele><time>2026-04-24T09:02:59.366Z</time></trkpt><trkpt lat="38.0480067" lon="15.7018"><ele>227.0</ele><time>2026-04-24T09:03:00.367Z</time></trkpt><trkpt lat="38.0479667" lon="15.701975"><ele>227.0</ele><time>2026-04-24T09:03:01.367Z</time></trkpt><trkpt lat="38.047915" lon="15.70215"><ele>227.0</ele><time>2026-04-24T09:03:02.367Z</time></trkpt><trkpt lat="38.0478567" lon="15.7023233"><ele>228.0</ele><time>2026-04-24T09:03:03.367Z</time></trkpt><trkpt lat="38.0478117" lon="15.70251"><ele>229.0</ele><time>2026-04-24T09:03:04.367Z</time></trkpt><trkpt lat="38.0477583" lon="15.7026983"><ele>230.0</ele><time>2026-04-24T09:03:05.366Z</time></trkpt><trkpt lat="38.0477117" lon="15.7028917"><ele>230.66666666666669</ele><time>2026-04-24T09:03:06.366Z</time></trkpt><trkpt lat="38.0476633" lon="15.7030817"><ele>231.33333333333331</ele><time>2026-04-24T09:03:07.366Z</time></trkpt><trkpt lat="38.047625" lon="15.70327"><ele>232.0</ele><time>2026-04-24T09:03:08.367Z</time></trkpt><trkpt lat="38.0475983" lon="15.703455"><ele>233.25</ele><time>2026-04-24T09:03:09.367Z</time></trkpt><trkpt lat="38.0475733" lon="15.7036383"><ele>234.5</ele><time>2026-04-24T09:03:10.366Z</time></trkpt><trkpt lat="38.047545" lon="15.7038283"><ele>235.75</ele><time>2026-04-24T09:03:11.367Z</time></trkpt><trkpt lat="38.0475133" lon="15.7040133"><ele>237.0</ele><time>2026-04-24T09:03:12.366Z</time></trkpt><trkpt lat="38.047485" lon="15.7041917"><ele>237.0</ele><time>2026-04-24T09:03:13.366Z</time></trkpt><trkpt lat="38.04747" lon="15.70435"><ele>237.0</ele><time>2026-04-24T09:03:14.366Z</time></trkpt><trkpt lat="38.0474833" lon="15.7045"><ele>237.0</ele><time>2026-04-24T09:03:15.366Z</time></trkpt><trkpt lat="38.0475267" lon="15.7046383"><ele>237.0</ele><time>2026-04-24T09:03:16.366Z</time></trkpt><trkpt lat="38.04759" lon="15.7047767"><ele>238.75</ele><time>2026-04-24T09:03:17.366Z</time></trkpt><trkpt lat="38.0476667" lon="15.7048983"><ele>240.5</ele><time>2026-04-24T09:03:18.366Z</time></trkpt><trkpt lat="38.04774" lon="15.7050367"><ele>242.25</ele><time>2026-04-24T09:03:19.367Z</time></trkpt><trkpt lat="38.04779" lon="15.7051817"><ele>244.0</ele><time>2026-04-24T09:03:20.367Z</time></trkpt><trkpt lat="38.0478033" lon="15.705335"><ele>246.0</ele><time>2026-04-24T09:03:21.366Z</time></trkpt><trkpt lat="38.0477933" lon="15.7054917"><ele>248.0</ele><time>2026-04-24T09:03:22.366Z</time></trkpt><trkpt lat="38.047775" lon="15.7056633"><ele>250.0</ele><time>2026-04-24T09:03:23.367Z</time></trkpt><trkpt lat="38.0477633" lon="15.7058533"><ele>252.0</ele><time>2026-04-24T09:03:24.366Z</time></trkpt><trkpt lat="38.0477483" lon="15.7060283"><ele>253.5</ele><time>2026-04-24T09:03:25.366Z</time></trkpt><trkpt lat="38.047735" lon="15.7062067"><ele>255.0</ele><time>2026-04-24T09:03:26.366Z</time></trkpt><trkpt lat="38.0477233" lon="15.7063817"><ele>256.5</ele><time>2026-04-24T09:03:27.366Z</time></trkpt><trkpt lat="38.0477083" lon="15.706565"><ele>258.0</ele><time>2026-04-24T09:03:28.366Z</time></trkpt><trkpt lat="38.0476917" lon="15.706745"><ele>258.0</ele><time>2026-04-24T09:03:29.367Z</time></trkpt><trkpt lat="38.0476633" lon="15.7069083"><ele>258.0</ele><time>2026-04-24T09:03:30.367Z</time></trkpt><trkpt lat="38.0476283" lon="15.7070433"><ele>258.0</ele><time>2026-04-24T09:03:31.366Z</time></trkpt><trkpt lat="38.0475967" lon="15.7071517"><ele>258.0</ele><time>2026-04-24T09:03:32.367Z</time></trkpt><trkpt lat="38.0475833" lon="15.7072567"><ele>258.0</ele><time>2026-04-24T09:03:33.367Z</time></trkpt><trkpt lat="38.04763" lon="15.707395"><ele>259.1666666666667</ele><time>2026-04-24T09:03:35.366Z</time></trkpt><trkpt lat="38.0476917" lon="15.707425"><ele>260.3333333333333</ele><time>2026-04-24T09:03:36.367Z</time></trkpt><trkpt lat="38.047765" lon="15.7073983"><ele>261.5</ele><time>2026-04-24T09:03:37.367Z</time></trkpt><trkpt lat="38.047825" lon="15.7073183"><ele>262.66666666666663</ele><time>2026-04-24T09:03:38.367Z</time></trkpt><trkpt lat="38.047855" lon="15.7072033"><ele>263.8333333333333</ele><time>2026-04-24T09:03:39.367Z</time></trkpt><trkpt lat="38.0478983" lon="15.7071167"><ele>265.0</ele><time>2026-04-24T09:03:40.366Z</time></trkpt><trkpt lat="38.0479517" lon="15.7070667"><ele>265.0</ele><time>2026-04-24T09:03:41.367Z</time></trkpt><trkpt lat="38.04804" lon="15.7070817"><ele>265.0</ele><time>2026-04-24T09:03:43.366Z</time></trkpt><trkpt lat="38.048025" lon="15.707235"><ele>265.0</ele><time>2026-04-24T09:03:45.367Z</time></trkpt><trkpt lat="38.0479767" lon="15.7073633"><ele>265.0</ele><time>2026-04-24T09:03:46.366Z</time></trkpt><trkpt lat="38.0479083" lon="15.70749"><ele>265.0</ele><time>2026-04-24T09:03:47.366Z</time></trkpt><trkpt lat="38.0478483" lon="15.7076267"><ele>265.0</ele><time>2026-04-24T09:03:48.366Z</time></trkpt><trkpt lat="38.04779" lon="15.7077267"><ele>265.0</ele><time>2026-04-24T09:03:49.366Z</time></trkpt><trkpt lat="38.047715" lon="15.7078133"><ele>265.0</ele><time>2026-04-24T09:03:50.367Z</time></trkpt><trkpt lat="38.04764" lon="15.7078817"><ele>265.0</ele><time>2026-04-24T09:03:51.366Z</time></trkpt><trkpt lat="38.0475617" lon="15.7079283"><ele>265.0</ele><time>2026-04-24T09:03:52.366Z</time></trkpt><trkpt lat="38.047465" lon="15.70794"><ele>269.0</ele><time>2026-04-24T09:03:53.367Z</time></trkpt><trkpt lat="38.0473567" lon="15.7079167"><ele>273.0</ele><time>2026-04-24T09:03:54.367Z</time></trkpt><trkpt lat="38.04725" lon="15.7078433"><ele>277.0</ele><time>2026-04-24T09:03:55.366Z</time></trkpt><trkpt lat="38.047135" lon="15.70773"><ele>281.0</ele><time>2026-04-24T09:03:56.367Z</time></trkpt><trkpt lat="38.047025" lon="15.7076217"><ele>281.0</ele><time>2026-04-24T09:03:57.367Z</time></trkpt><trkpt lat="38.0469167" lon="15.7074967"><ele>281.0</ele><time>2026-04-24T09:03:58.367Z</time></trkpt><trkpt lat="38.0468283" lon="15.70737"><ele>281.0</ele><time>2026-04-24T09:03:59.366Z</time></trkpt><trkpt lat="38.04675" lon="15.7072533"><ele>281.0</ele><time>2026-04-24T09:04:00.367Z</time></trkpt><trkpt lat="38.0466717" lon="15.7071733"><ele>279.0</ele><time>2026-04-24T09:04:01.367Z</time></trkpt><trkpt lat="38.0465817" lon="15.70713"><ele>277.0</ele><time>2026-04-24T09:04:02.366Z</time></trkpt><trkpt lat="38.04647" lon="15.7071417"><ele>275.0</ele><time>2026-04-24T09:04:03.366Z</time></trkpt><trkpt lat="38.046355" lon="15.7071833"><ele>273.0</ele><time>2026-04-24T09:04:04.366Z</time></trkpt><trkpt lat="38.046245" lon="15.7072383"><ele>271.0</ele><time>2026-04-24T09:04:05.367Z</time></trkpt><trkpt lat="38.0461433" lon="15.7072967"><ele>271.0</ele><time>2026-04-24T09:04:06.366Z</time></trkpt><trkpt lat="38.046055" lon="15.7073783"><ele>271.0</ele><time>2026-04-24T09:04:07.367Z</time></trkpt><trkpt lat="38.045995" lon="15.7074917"><ele>271.0</ele><time>2026-04-24T09:04:08.367Z</time></trkpt><trkpt lat="38.0459617" lon="15.70764"><ele>271.0</ele><time>2026-04-24T09:04:09.366Z</time></trkpt><trkpt lat="38.0459383" lon="15.7078033"><ele>273.75</ele><time>2026-04-24T09:04:10.366Z</time></trkpt><trkpt lat="38.0459283" lon="15.70797"><ele>276.5</ele><time>2026-04-24T09:04:11.366Z</time></trkpt><trkpt lat="38.045945" lon="15.7081267"><ele>279.25</ele><time>2026-04-24T09:04:12.366Z</time></trkpt><trkpt lat="38.0459733" lon="15.7082783"><ele>282.0</ele><time>2026-04-24T09:04:13.366Z</time></trkpt><trkpt lat="38.0460267" lon="15.70841"><ele>282.0</ele><time>2026-04-24T09:04:14.367Z</time></trkpt><trkpt lat="38.0460817" lon="15.7085267"><ele>282.0</ele><time>2026-04-24T09:04:15.367Z</time></trkpt><trkpt lat="38.0461217" lon="15.7086567"><ele>282.0</ele><time>2026-04-24T09:04:16.367Z</time></trkpt><trkpt lat="38.0461083" lon="15.708795"><ele>282.0</ele><time>2026-04-24T09:04:17.366Z</time></trkpt><trkpt lat="38.0460917" lon="15.7089433"><ele>282.0</ele><time>2026-04-24T09:04:18.366Z</time></trkpt><trkpt lat="38.0461067" lon="15.7090717"><ele>281.5</ele><time>2026-04-24T09:04:19.366Z</time></trkpt><trkpt lat="38.046145" lon="15.709205"><ele>281.0</ele><time>2026-04-24T09:04:20.367Z</time></trkpt><trkpt lat="38.0461967" lon="15.7093267"><ele>280.5</ele><time>2026-04-24T09:04:21.367Z</time></trkpt><trkpt lat="38.0462567" lon="15.709455"><ele>280.0</ele><time>2026-04-24T09:04:22.367Z</time></trkpt><trkpt lat="38.0463167" lon="15.7095767"><ele>280.0</ele><time>2026-04-24T09:04:23.367Z</time></trkpt><trkpt lat="38.0463567" lon="15.7097133"><ele>280.0</ele><time>2026-04-24T09:04:24.367Z</time></trkpt><trkpt lat="38.0463767" lon="15.7098583"><ele>280.0</ele><time>2026-04-24T09:04:25.367Z</time></trkpt><trkpt lat="38.0463783" lon="15.7100133"><ele>280.0</ele><time>2026-04-24T09:04:26.366Z</time></trkpt><trkpt lat="38.04636" lon="15.7101567"><ele>282.0</ele><time>2026-04-24T09:04:27.366Z</time></trkpt><trkpt lat="38.0463133" lon="15.710275"><ele>284.0</ele><time>2026-04-24T09:04:28.366Z</time></trkpt><trkpt lat="38.0462517" lon="15.71037"><ele>286.0</ele><time>2026-04-24T09:04:29.366Z</time></trkpt><trkpt lat="38.0462167" lon="15.71047"><ele>288.0</ele><time>2026-04-24T09:04:30.367Z</time></trkpt><trkpt lat="38.04622" lon="15.7105817"><ele>290.0</ele><time>2026-04-24T09:04:31.366Z</time></trkpt><trkpt lat="38.0462517" lon="15.71069"><ele>290.0</ele><time>2026-04-24T09:04:32.366Z</time></trkpt><trkpt lat="38.0462917" lon="15.7107967"><ele>290.0</ele><time>2026-04-24T09:04:33.366Z</time></trkpt><trkpt lat="38.0463217" lon="15.7109233"><ele>290.0</ele><time>2026-04-24T09:04:34.366Z</time></trkpt><trkpt lat="38.0463117" lon="15.7110567"><ele>290.0</ele><time>2026-04-24T09:04:35.366Z</time></trkpt><trkpt lat="38.04628" lon="15.7111817"><ele>290.0</ele><time>2026-04-24T09:04:36.367Z</time></trkpt><trkpt lat="38.046255" lon="15.7113067"><ele>290.6666666666667</ele><time>2026-04-24T09:04:37.366Z</time></trkpt><trkpt lat="38.0462433" lon="15.7114233"><ele>291.33333333333337</ele><time>2026-04-24T09:04:38.367Z</time></trkpt><trkpt lat="38.0462517" lon="15.7115317"><ele>292.0</ele><time>2026-04-24T09:04:39.366Z</time></trkpt><trkpt lat="38.0462867" lon="15.7116233"><ele>292.6666666666667</ele><time>2026-04-24T09:04:40.367Z</time></trkpt><trkpt lat="38.0463417" lon="15.711695"><ele>293.3333333333333</ele><time>2026-04-24T09:04:41.366Z</time></trkpt><trkpt lat="38.0464133" lon="15.7117483"><ele>294.0</ele><time>2026-04-24T09:04:42.366Z</time></trkpt><trkpt lat="38.0464883" lon="15.7118067"><ele>294.0</ele><time>2026-04-24T09:04:43.366Z</time></trkpt><trkpt lat="38.0465717" lon="15.7118683"><ele>294.0</ele><time>2026-04-24T09:04:44.367Z</time></trkpt><trkpt lat="38.046655" lon="15.711945"><ele>294.0</ele><time>2026-04-24T09:04:45.366Z</time></trkpt><trkpt lat="38.0467317" lon="15.7120233"><ele>294.0</ele><time>2026-04-24T09:04:46.366Z</time></trkpt><trkpt lat="38.0468033" lon="15.7120983"><ele>294.0</ele><time>2026-04-24T09:04:47.367Z</time></trkpt><trkpt lat="38.0468633" lon="15.71217"><ele>293.8333333333333</ele><time>2026-04-24T09:04:48.367Z</time></trkpt><trkpt lat="38.0469033" lon="15.7122483"><ele>293.6666666666667</ele><time>2026-04-24T09:04:49.366Z</time></trkpt><trkpt lat="38.0469133" lon="15.71233"><ele>293.5</ele><time>2026-04-24T09:04:50.366Z</time></trkpt><trkpt lat="38.04686" lon="15.7124617"><ele>293.33333333333337</ele><time>2026-04-24T09:04:52.367Z</time></trkpt><trkpt lat="38.0467983" lon="15.7125017"><ele>293.1666666666667</ele><time>2026-04-24T09:04:53.367Z</time></trkpt><trkpt lat="38.0467033" lon="15.7124933"><ele>293.0</ele><time>2026-04-24T09:04:54.367Z</time></trkpt><trkpt lat="38.0465767" lon="15.7124533"><ele>293.0</ele><time>2026-04-24T09:04:55.366Z</time></trkpt><trkpt lat="38.0464567" lon="15.7124383"><ele>293.0</ele><time>2026-04-24T09:04:56.367Z</time></trkpt><trkpt lat="38.0463717" lon="15.7124733"><ele>293.0</ele><time>2026-04-24T09:04:57.367Z</time></trkpt><trkpt lat="38.0463133" lon="15.712535"><ele>293.0</ele><time>2026-04-24T09:04:58.366Z</time></trkpt><trkpt lat="38.046315" lon="15.7126267"><ele>293.0</ele><time>2026-04-24T09:04:59.367Z</time></trkpt><trkpt lat="38.0463467" lon="15.71271"><ele>293.0</ele><time>2026-04-24T09:05:00.367Z</time></trkpt><trkpt lat="38.046405" lon="15.7127733"><ele>293.6666666666667</ele><time>2026-04-24T09:05:01.366Z</time></trkpt><trkpt lat="38.0464667" lon="15.7128483"><ele>294.33333333333337</ele><time>2026-04-24T09:05:02.366Z</time></trkpt><trkpt lat="38.0465083" lon="15.7129333"><ele>295.0</ele><time>2026-04-24T09:05:03.367Z</time></trkpt><trkpt lat="38.0465317" lon="15.7130383"><ele>295.6666666666667</ele><time>2026-04-24T09:05:04.367Z</time></trkpt><trkpt lat="38.0465267" lon="15.713155"><ele>296.3333333333333</ele><time>2026-04-24T09:05:05.366Z</time></trkpt><trkpt lat="38.0465" lon="15.7132717"><ele>297.0</ele><time>2026-04-24T09:05:06.366Z</time></trkpt><trkpt lat="38.0464467" lon="15.7133983"><ele>297.0</ele><time>2026-04-24T09:05:07.366Z</time></trkpt><trkpt lat="38.0463833" lon="15.7135533"><ele>297.0</ele><time>2026-04-24T09:05:08.367Z</time></trkpt><trkpt lat="38.0463133" lon="15.7137133"><ele>297.0</ele><time>2026-04-24T09:05:09.366Z</time></trkpt><trkpt lat="38.0462417" lon="15.713865"><ele>297.0</ele><time>2026-04-24T09:05:10.367Z</time></trkpt><trkpt lat="38.0461767" lon="15.7139983"><ele>299.4</ele><time>2026-04-24T09:05:11.367Z</time></trkpt><trkpt lat="38.0461317" lon="15.7141167"><ele>301.79999999999995</ele><time>2026-04-24T09:05:12.367Z</time></trkpt><trkpt lat="38.0461117" lon="15.7142517"><ele>304.2</ele><time>2026-04-24T09:05:13.366Z</time></trkpt><trkpt lat="38.0461" lon="15.7143833"><ele>306.59999999999997</ele><time>2026-04-24T09:05:14.367Z</time></trkpt><trkpt lat="38.0460867" lon="15.7145217"><ele>309.0</ele><time>2026-04-24T09:05:15.367Z</time></trkpt><trkpt lat="38.0460467" lon="15.7146617"><ele>310.5</ele><time>2026-04-24T09:05:16.366Z</time></trkpt><trkpt lat="38.0459833" lon="15.714815"><ele>312.0</ele><time>2026-04-24T09:05:17.366Z</time></trkpt><trkpt lat="38.0459283" lon="15.714965"><ele>313.5</ele><time>2026-04-24T09:05:18.366Z</time></trkpt><trkpt lat="38.0459033" lon="15.7151333"><ele>315.0</ele><time>2026-04-24T09:05:19.367Z</time></trkpt><trkpt lat="38.0459" lon="15.715315"><ele>314.2</ele><time>2026-04-24T09:05:20.367Z</time></trkpt><trkpt lat="38.045895" lon="15.7154783"><ele>313.4</ele><time>2026-04-24T09:05:21.367Z</time></trkpt><trkpt lat="38.0458883" lon="15.7156233"><ele>312.6</ele><time>2026-04-24T09:05:22.366Z</time></trkpt><trkpt lat="38.04586" lon="15.7157383"><ele>311.8</ele><time>2026-04-24T09:05:23.367Z</time></trkpt><trkpt lat="38.0458183" lon="15.71582"><ele>311.0</ele><time>2026-04-24T09:05:24.367Z</time></trkpt><trkpt lat="38.0457583" lon="15.7158767"><ele>311.0</ele><time>2026-04-24T09:05:25.367Z</time></trkpt><trkpt lat="38.0456833" lon="15.7159133"><ele>311.0</ele><time>2026-04-24T09:05:26.367Z</time></trkpt><trkpt lat="38.0455783" lon="15.7159267"><ele>311.0</ele><time>2026-04-24T09:05:27.366Z</time></trkpt><trkpt lat="38.0454817" lon="15.7159633"><ele>311.0</ele><time>2026-04-24T09:05:28.366Z</time></trkpt><trkpt lat="38.04541" lon="15.7160333"><ele>311.0</ele><time>2026-04-24T09:05:29.366Z</time></trkpt><trkpt lat="38.0453617" lon="15.7161317"><ele>312.75</ele><time>2026-04-24T09:05:30.367Z</time></trkpt><trkpt lat="38.0453517" lon="15.7162733"><ele>314.5</ele><time>2026-04-24T09:05:31.366Z</time></trkpt><trkpt lat="38.04537" lon="15.7164317"><ele>316.25</ele><time>2026-04-24T09:05:32.367Z</time></trkpt><trkpt lat="38.0454033" lon="15.7165767"><ele>318.0</ele><time>2026-04-24T09:05:33.366Z</time></trkpt><trkpt lat="38.045425" lon="15.7167133"><ele>318.0</ele><time>2026-04-24T09:05:34.366Z</time></trkpt><trkpt lat="38.045415" lon="15.716845"><ele>318.0</ele><time>2026-04-24T09:05:35.367Z</time></trkpt><trkpt lat="38.045365" lon="15.7169683"><ele>318.0</ele><time>2026-04-24T09:05:36.366Z</time></trkpt><trkpt lat="38.0452933" lon="15.7170583"><ele>318.0</ele><time>2026-04-24T09:05:37.366Z</time></trkpt><trkpt lat="38.04521" lon="15.7171367"><ele>318.0</ele><time>2026-04-24T09:05:38.366Z</time></trkpt><trkpt lat="38.045125" lon="15.7172133"><ele>320.8</ele><time>2026-04-24T09:05:39.367Z</time></trkpt><trkpt lat="38.045055" lon="15.7173067"><ele>323.6</ele><time>2026-04-24T09:05:40.366Z</time></trkpt><trkpt lat="38.04501" lon="15.71742"><ele>326.40000000000003</ele><time>2026-04-24T09:05:41.366Z</time></trkpt><trkpt lat="38.0449817" lon="15.7175267"><ele>329.20000000000005</ele><time>2026-04-24T09:05:42.367Z</time></trkpt><trkpt lat="38.0449933" lon="15.71765"><ele>332.0</ele><time>2026-04-24T09:05:43.366Z</time></trkpt><trkpt lat="38.0450233" lon="15.7177783"><ele>330.8</ele><time>2026-04-24T09:05:44.367Z</time></trkpt><trkpt lat="38.04505" lon="15.7179067"><ele>329.6</ele><time>2026-04-24T09:05:45.367Z</time></trkpt><trkpt lat="38.0450583" lon="15.7180217"><ele>328.40000000000003</ele><time>2026-04-24T09:05:46.367Z</time></trkpt><trkpt lat="38.0450567" lon="15.7181283"><ele>327.20000000000005</ele><time>2026-04-24T09:05:47.367Z</time></trkpt><trkpt lat="38.0450133" lon="15.718265"><ele>326.0</ele><time>2026-04-24T09:05:49.367Z</time></trkpt><trkpt lat="38.0449183" lon="15.7183517"><ele>326.0</ele><time>2026-04-24T09:05:51.366Z</time></trkpt><trkpt lat="38.0448617" lon="15.7184"><ele>326.0</ele><time>2026-04-24T09:05:52.367Z</time></trkpt><trkpt lat="38.0448067" lon="15.71845"><ele>326.0</ele><time>2026-04-24T09:05:53.366Z</time></trkpt><trkpt lat="38.0447633" lon="15.7185183"><ele>326.0</ele><time>2026-04-24T09:05:54.366Z</time></trkpt><trkpt lat="38.0447333" lon="15.7186017"><ele>326.0</ele><time>2026-04-24T09:05:55.366Z</time></trkpt><trkpt lat="38.0447133" lon="15.7187"><ele>326.0</ele><time>2026-04-24T09:05:56.367Z</time></trkpt><trkpt lat="38.0447033" lon="15.7188033"><ele>326.0</ele><time>2026-04-24T09:05:57.366Z</time></trkpt><trkpt lat="38.0446833" lon="15.7188917"><ele>327.7142857142857</ele><time>2026-04-24T09:05:58.366Z</time></trkpt><trkpt lat="38.0446533" lon="15.7189667"><ele>329.4285714285714</ele><time>2026-04-24T09:05:59.366Z</time></trkpt><trkpt lat="38.0446117" lon="15.7190333"><ele>331.1428571428571</ele><time>2026-04-24T09:06:00.367Z</time></trkpt><trkpt lat="38.0445717" lon="15.7191167"><ele>332.8571428571429</ele><time>2026-04-24T09:06:01.366Z</time></trkpt><trkpt lat="38.044535" lon="15.7191967"><ele>334.57142857142856</ele><time>2026-04-24T09:06:02.367Z</time></trkpt><trkpt lat="38.04451" lon="15.7192817"><ele>336.2857142857143</ele><time>2026-04-24T09:06:03.366Z</time></trkpt><trkpt lat="38.044495" lon="15.7193733"><ele>338.0</ele><time>2026-04-24T09:06:04.366Z</time></trkpt><trkpt lat="38.0444733" lon="15.71945"><ele>339.33333333333337</ele><time>2026-04-24T09:06:05.366Z</time></trkpt><trkpt lat="38.04442" lon="15.7195733"><ele>340.6666666666667</ele><time>2026-04-24T09:06:07.367Z</time></trkpt><trkpt lat="38.0443317" lon="15.7196133"><ele>342.0</ele><time>2026-04-24T09:06:09.367Z</time></trkpt><trkpt lat="38.0442617" lon="15.719605"><ele>343.3333333333333</ele><time>2026-04-24T09:06:10.367Z</time></trkpt><trkpt lat="38.0441933" lon="15.7195717"><ele>344.66666666666663</ele><time>2026-04-24T09:06:11.366Z</time></trkpt><trkpt lat="38.0441133" lon="15.7195667"><ele>346.0</ele><time>2026-04-24T09:06:12.367Z</time></trkpt><trkpt lat="38.0440333" lon="15.719575"><ele>346.0</ele><time>2026-04-24T09:06:13.367Z</time></trkpt><trkpt lat="38.04397" lon="15.7195933"><ele>346.0</ele><time>2026-04-24T09:06:14.366Z</time></trkpt><trkpt lat="38.0438717" lon="15.71967"><ele>346.0</ele><time>2026-04-24T09:06:16.367Z</time></trkpt><trkpt lat="38.0438" lon="15.71979"><ele>346.0</ele><time>2026-04-24T09:06:18.366Z</time></trkpt><trkpt lat="38.0437167" lon="15.7199133"><ele>346.0</ele><time>2026-04-24T09:06:20.366Z</time></trkpt><trkpt lat="38.043655" lon="15.7199767"><ele>346.0</ele><time>2026-04-24T09:06:21.366Z</time></trkpt><trkpt lat="38.0435817" lon="15.7200317"><ele>346.0</ele><time>2026-04-24T09:06:22.367Z</time></trkpt><trkpt lat="38.0435133" lon="15.7200817"><ele>346.0</ele><time>2026-04-24T09:06:23.366Z</time></trkpt><trkpt lat="38.0434517" lon="15.7201283"><ele>346.0</ele><time>2026-04-24T09:06:24.366Z</time></trkpt><trkpt lat="38.0433867" lon="15.7201983"><ele>346.0</ele><time>2026-04-24T09:06:25.366Z</time></trkpt><trkpt lat="38.0433283" lon="15.7202617"><ele>346.0</ele><time>2026-04-24T09:06:26.366Z</time></trkpt><trkpt lat="38.0433017" lon="15.7203367"><ele>347.8333333333333</ele><time>2026-04-24T09:06:27.367Z</time></trkpt><trkpt lat="38.043305" lon="15.7204183"><ele>349.66666666666663</ele><time>2026-04-24T09:06:28.366Z</time></trkpt><trkpt lat="38.043315" lon="15.7205017"><ele>351.5</ele><time>2026-04-24T09:06:29.366Z</time></trkpt><trkpt lat="38.043325" lon="15.7205967"><ele>353.3333333333333</ele><time>2026-04-24T09:06:30.367Z</time></trkpt><trkpt lat="38.043335" lon="15.7207067"><ele>355.1666666666667</ele><time>2026-04-24T09:06:31.366Z</time></trkpt><trkpt lat="38.0433483" lon="15.7208183"><ele>357.0</ele><time>2026-04-24T09:06:32.366Z</time></trkpt><trkpt lat="38.0433633" lon="15.7209283"><ele>357.0</ele><time>2026-04-24T09:06:33.366Z</time></trkpt><trkpt lat="38.04338" lon="15.7210467"><ele>357.0</ele><time>2026-04-24T09:06:34.367Z</time></trkpt><trkpt lat="38.043395" lon="15.721175"><ele>357.0</ele><time>2026-04-24T09:06:35.366Z</time></trkpt><trkpt lat="38.0434083" lon="15.721315"><ele>357.0</ele><time>2026-04-24T09:06:36.367Z</time></trkpt><trkpt lat="38.0434267" lon="15.721465"><ele>357.0</ele><time>2026-04-24T09:06:37.367Z</time></trkpt><trkpt lat="38.0434433" lon="15.7216233"><ele>357.25</ele><time>2026-04-24T09:06:38.366Z</time></trkpt><trkpt lat="38.0434683" lon="15.7217833"><ele>357.5</ele><time>2026-04-24T09:06:39.366Z</time></trkpt><trkpt lat="38.043485" lon="15.7219417"><ele>357.75</ele><time>2026-04-24T09:06:40.366Z</time></trkpt><trkpt lat="38.0435067" lon="15.7220983"><ele>358.0</ele><time>2026-04-24T09:06:41.366Z</time></trkpt><trkpt lat="38.0435233" lon="15.7222517"><ele>358.4</ele><time>2026-04-24T09:06:42.366Z</time></trkpt><trkpt lat="38.043535" lon="15.7223933"><ele>358.79999999999995</ele><time>2026-04-24T09:06:43.367Z</time></trkpt><trkpt lat="38.0435317" lon="15.7225167"><ele>359.2</ele><time>2026-04-24T09:06:44.366Z</time></trkpt><trkpt lat="38.0435067" lon="15.7226333"><ele>359.6</ele><time>2026-04-24T09:06:45.367Z</time></trkpt><trkpt lat="38.0434617" lon="15.7227317"><ele>360.0</ele><time>2026-04-24T09:06:46.367Z</time></trkpt><trkpt lat="38.0433983" lon="15.7228183"><ele>360.0</ele><time>2026-04-24T09:06:47.367Z</time></trkpt><trkpt lat="38.0433233" lon="15.7228983"><ele>360.0</ele><time>2026-04-24T09:06:48.366Z</time></trkpt><trkpt lat="38.0432483" lon="15.72298"><ele>360.0</ele><time>2026-04-24T09:06:49.366Z</time></trkpt><trkpt lat="38.0431667" lon="15.72307"><ele>360.0</ele><time>2026-04-24T09:06:50.367Z</time></trkpt><trkpt lat="38.0430933" lon="15.723165"><ele>360.0</ele><time>2026-04-24T09:06:51.367Z</time></trkpt><trkpt lat="38.0430067" lon="15.7232583"><ele>360.25</ele><time>2026-04-24T09:06:52.366Z</time></trkpt><trkpt lat="38.0429217" lon="15.7233583"><ele>360.5</ele><time>2026-04-24T09:06:53.367Z</time></trkpt><trkpt lat="38.0428383" lon="15.7234633"><ele>360.75</ele><time>2026-04-24T09:06:54.366Z</time></trkpt><trkpt lat="38.0427483" lon="15.7235667"><ele>361.0</ele><time>2026-04-24T09:06:55.366Z</time></trkpt><trkpt lat="38.0426567" lon="15.7236683"><ele>361.0</ele><time>2026-04-24T09:06:56.366Z</time></trkpt><trkpt lat="38.042565" lon="15.7237717"><ele>361.0</ele><time>2026-04-24T09:06:57.366Z</time></trkpt><trkpt lat="38.04247" lon="15.7238817"><ele>361.0</ele><time>2026-04-24T09:06:58.366Z</time></trkpt><trkpt lat="38.0423717" lon="15.7239917"><ele>361.0</ele><time>2026-04-24T09:06:59.367Z</time></trkpt><trkpt lat="38.0422783" lon="15.7241067"><ele>362.25</ele><time>2026-04-24T09:07:00.366Z</time></trkpt><trkpt lat="38.0421867" lon="15.7242133"><ele>363.5</ele><time>2026-04-24T09:07:01.366Z</time></trkpt><trkpt lat="38.0420917" lon="15.724325"><ele>364.75</ele><time>2026-04-24T09:07:02.367Z</time></trkpt><trkpt lat="38.0420033" lon="15.7244283"><ele>366.0</ele><time>2026-04-24T09:07:03.366Z</time></trkpt><trkpt lat="38.0419217" lon="15.7245267"><ele>366.1666666666667</ele><time>2026-04-24T09:07:04.366Z</time></trkpt><trkpt lat="38.0418467" lon="15.7246183"><ele>366.3333333333333</ele><time>2026-04-24T09:07:05.367Z</time></trkpt><trkpt lat="38.04178" lon="15.7247"><ele>366.5</ele><time>2026-04-24T09:07:06.366Z</time></trkpt><trkpt lat="38.0417167" lon="15.7247583"><ele>366.66666666666663</ele><time>2026-04-24T09:07:07.366Z</time></trkpt><trkpt lat="38.0416567" lon="15.7247917"><ele>366.8333333333333</ele><time>2026-04-24T09:07:08.367Z</time></trkpt><trkpt lat="38.0415667" lon="15.724795"><ele>367.0</ele><time>2026-04-24T09:07:10.366Z</time></trkpt><trkpt lat="38.04148" lon="15.7246733"><ele>367.66666666666663</ele><time>2026-04-24T09:07:12.367Z</time></trkpt><trkpt lat="38.0414267" lon="15.7245783"><ele>368.3333333333333</ele><time>2026-04-24T09:07:13.367Z</time></trkpt><trkpt lat="38.0413683" lon="15.7244883"><ele>369.0</ele><time>2026-04-24T09:07:14.366Z</time></trkpt><trkpt lat="38.0413183" lon="15.7244133"><ele>369.6666666666667</ele><time>2026-04-24T09:07:15.367Z</time></trkpt><trkpt lat="38.0412667" lon="15.72434"><ele>370.33333333333337</ele><time>2026-04-24T09:07:16.367Z</time></trkpt><trkpt lat="38.0412167" lon="15.7242733"><ele>371.0</ele><time>2026-04-24T09:07:17.366Z</time></trkpt><trkpt lat="38.041155" lon="15.724175"><ele>371.0</ele><time>2026-04-24T09:07:19.367Z</time></trkpt><trkpt lat="38.04117" lon="15.7240783"><ele>371.0</ele><time>2026-04-24T09:07:21.366Z</time></trkpt><trkpt lat="38.0412133" lon="15.724005"><ele>371.0</ele><time>2026-04-24T09:07:22.366Z</time></trkpt><trkpt lat="38.041275" lon="15.72392"><ele>371.0</ele><time>2026-04-24T09:07:23.366Z</time></trkpt><trkpt lat="38.04134" lon="15.72384"><ele>371.0</ele><time>2026-04-24T09:07:24.366Z</time></trkpt><trkpt lat="38.04139" lon="15.72376"><ele>371.0</ele><time>2026-04-24T09:07:25.366Z</time></trkpt><trkpt lat="38.041445" lon="15.7236767"><ele>371.0</ele><time>2026-04-24T09:07:26.366Z</time></trkpt><trkpt lat="38.0414983" lon="15.7235967"><ele>371.0</ele><time>2026-04-24T09:07:27.366Z</time></trkpt><trkpt lat="38.0415517" lon="15.7235167"><ele>371.0</ele><time>2026-04-24T09:07:28.367Z</time></trkpt><trkpt lat="38.0415983" lon="15.72344"><ele>371.0</ele><time>2026-04-24T09:07:29.366Z</time></trkpt><trkpt lat="38.0416517" lon="15.723365"><ele>371.0</ele><time>2026-04-24T09:07:30.367Z</time></trkpt><trkpt lat="38.0417033" lon="15.72329"><ele>371.0</ele><time>2026-04-24T09:07:31.366Z</time></trkpt><trkpt lat="38.0417533" lon="15.7232183"><ele>369.6666666666667</ele><time>2026-04-24T09:07:32.366Z</time></trkpt><trkpt lat="38.0418033" lon="15.723145"><ele>368.33333333333337</ele><time>2026-04-24T09:07:33.367Z</time></trkpt><trkpt lat="38.0418567" lon="15.7230633"><ele>367.0</ele><time>2026-04-24T09:07:34.366Z</time></trkpt><trkpt lat="38.0419117" lon="15.722985"><ele>365.6666666666667</ele><time>2026-04-24T09:07:35.366Z</time></trkpt><trkpt lat="38.0419617" lon="15.7229067"><ele>364.3333333333333</ele><time>2026-04-24T09:07:36.367Z</time></trkpt><trkpt lat="38.0420067" lon="15.7228367"><ele>363.0</ele><time>2026-04-24T09:07:37.366Z</time></trkpt><trkpt lat="38.0420483" lon="15.7227717"><ele>362.0</ele><time>2026-04-24T09:07:38.366Z</time></trkpt><trkpt lat="38.0420867" lon="15.722705"><ele>361.0</ele><time>2026-04-24T09:07:39.366Z</time></trkpt><trkpt lat="38.0421233" lon="15.7226367"><ele>360.0</ele><time>2026-04-24T09:07:40.366Z</time></trkpt><trkpt lat="38.0421933" lon="15.72252"><ele>359.0</ele><time>2026-04-24T09:07:42.366Z</time></trkpt><trkpt lat="38.042255" lon="15.72242"><ele>358.0</ele><time>2026-04-24T09:07:44.366Z</time></trkpt><trkpt lat="38.0423067" lon="15.7223167"><ele>357.0</ele><time>2026-04-24T09:07:46.366Z</time></trkpt><trkpt lat="38.0423617" lon="15.7222167"><ele>357.0</ele><time>2026-04-24T09:07:48.366Z</time></trkpt><trkpt lat="38.0424083" lon="15.7220683"><ele>357.0</ele><time>2026-04-24T09:07:50.367Z</time></trkpt><trkpt lat="38.0424283" lon="15.721965"><ele>357.0</ele><time>2026-04-24T09:07:51.366Z</time></trkpt><trkpt lat="38.0424517" lon="15.721865"><ele>357.0</ele><time>2026-04-24T09:07:52.367Z</time></trkpt><trkpt lat="38.0424817" lon="15.721755"><ele>357.0</ele><time>2026-04-24T09:07:53.366Z</time></trkpt><trkpt lat="38.0425167" lon="15.7216483"><ele>355.20000000000005</ele><time>2026-04-24T09:07:54.366Z</time></trkpt><trkpt lat="38.0425433" lon="15.7215333"><ele>353.4</ele><time>2026-04-24T09:07:55.367Z</time></trkpt><trkpt lat="38.0425667" lon="15.7213983"><ele>351.6</ele><time>2026-04-24T09:07:56.367Z</time></trkpt><trkpt lat="38.0425967" lon="15.7212633"><ele>349.79999999999995</ele><time>2026-04-24T09:07:57.366Z</time></trkpt><trkpt lat="38.0426133" lon="15.7211233"><ele>348.0</ele><time>2026-04-24T09:07:58.366Z</time></trkpt><trkpt lat="38.0426167" lon="15.7209867"><ele>346.75</ele><time>2026-04-24T09:07:59.367Z</time></trkpt><trkpt lat="38.04261" lon="15.7208317"><ele>345.5</ele><time>2026-04-24T09:08:00.366Z</time></trkpt><trkpt lat="38.0425917" lon="15.72068"><ele>344.25</ele><time>2026-04-24T09:08:01.367Z</time></trkpt><trkpt lat="38.0425817" lon="15.7205367"><ele>343.0</ele><time>2026-04-24T09:08:02.367Z</time></trkpt><trkpt lat="38.0425717" lon="15.7203967"><ele>343.0</ele><time>2026-04-24T09:08:03.366Z</time></trkpt><trkpt lat="38.042555" lon="15.72027"><ele>343.0</ele><time>2026-04-24T09:08:04.367Z</time></trkpt><trkpt lat="38.0425433" lon="15.7201467"><ele>343.0</ele><time>2026-04-24T09:08:05.367Z</time></trkpt><trkpt lat="38.0425233" lon="15.720025"><ele>343.0</ele><time>2026-04-24T09:08:06.367Z</time></trkpt><trkpt lat="38.042495" lon="15.7198917"><ele>343.0</ele><time>2026-04-24T09:08:07.367Z</time></trkpt><trkpt lat="38.0424517" lon="15.7197633"><ele>341.0</ele><time>2026-04-24T09:08:08.366Z</time></trkpt><trkpt lat="38.0424067" lon="15.7196233"><ele>339.0</ele><time>2026-04-24T09:08:09.367Z</time></trkpt><trkpt lat="38.04236" lon="15.7194817"><ele>337.0</ele><time>2026-04-24T09:08:10.367Z</time></trkpt><trkpt lat="38.0423233" lon="15.7193433"><ele>335.0</ele><time>2026-04-24T09:08:11.367Z</time></trkpt><trkpt lat="38.0422933" lon="15.719215"><ele>334.2</ele><time>2026-04-24T09:08:12.366Z</time></trkpt><trkpt lat="38.0422483" lon="15.7190967"><ele>333.4</ele><time>2026-04-24T09:08:13.366Z</time></trkpt><trkpt lat="38.0422083" lon="15.7189717"><ele>332.6</ele><time>2026-04-24T09:08:14.367Z</time></trkpt><trkpt lat="38.042175" lon="15.7188467"><ele>331.8</ele><time>2026-04-24T09:08:15.366Z</time></trkpt><trkpt lat="38.04214" lon="15.7187083"><ele>331.0</ele><time>2026-04-24T09:08:16.367Z</time></trkpt><trkpt lat="38.0421067" lon="15.71857"><ele>330.6</ele><time>2026-04-24T09:08:17.366Z</time></trkpt><trkpt lat="38.04208" lon="15.718435"><ele>330.20000000000005</ele><time>2026-04-24T09:08:18.367Z</time></trkpt><trkpt lat="38.0420517" lon="15.71831"><ele>329.79999999999995</ele><time>2026-04-24T09:08:19.366Z</time></trkpt><trkpt lat="38.0420217" lon="15.71819"><ele>329.4</ele><time>2026-04-24T09:08:20.367Z</time></trkpt><trkpt lat="38.0419983" lon="15.7180667"><ele>329.0</ele><time>2026-04-24T09:08:21.366Z</time></trkpt><trkpt lat="38.0419733" lon="15.71795"><ele>329.0</ele><time>2026-04-24T09:08:22.367Z</time></trkpt><trkpt lat="38.0419583" lon="15.7178267"><ele>329.0</ele><time>2026-04-24T09:08:23.366Z</time></trkpt><trkpt lat="38.0419433" lon="15.7176967"><ele>329.0</ele><time>2026-04-24T09:08:24.366Z</time></trkpt><trkpt lat="38.0419317" lon="15.7175633"><ele>329.0</ele><time>2026-04-24T09:08:25.367Z</time></trkpt><trkpt lat="38.0419183" lon="15.717435"><ele>329.0</ele><time>2026-04-24T09:08:26.366Z</time></trkpt><trkpt lat="38.0419033" lon="15.717305"><ele>328.6666666666667</ele><time>2026-04-24T09:08:27.367Z</time></trkpt><trkpt lat="38.0419" lon="15.7171867"><ele>328.33333333333337</ele><time>2026-04-24T09:08:28.366Z</time></trkpt><trkpt lat="38.041895" lon="15.717075"><ele>328.0</ele><time>2026-04-24T09:08:29.366Z</time></trkpt><trkpt lat="38.0418867" lon="15.716975"><ele>327.6666666666667</ele><time>2026-04-24T09:08:30.366Z</time></trkpt><trkpt lat="38.0418883" lon="15.71689"><ele>327.3333333333333</ele><time>2026-04-24T09:08:31.367Z</time></trkpt><trkpt lat="38.0418933" lon="15.7167817"><ele>327.0</ele><time>2026-04-24T09:08:33.367Z</time></trkpt><trkpt lat="38.0418433" lon="15.7167083"><ele>327.0</ele><time>2026-04-24T09:08:36.367Z</time></trkpt><trkpt lat="38.041785" lon="15.7167833"><ele>327.0</ele><time>2026-04-24T09:08:38.367Z</time></trkpt><trkpt lat="38.04173" lon="15.71694"><ele>327.0</ele><time>2026-04-24T09:08:40.366Z</time></trkpt><trkpt lat="38.0417017" lon="15.7170383"><ele>327.0</ele><time>2026-04-24T09:08:41.366Z</time></trkpt><trkpt lat="38.0416667" lon="15.7171467"><ele>327.0</ele><time>2026-04-24T09:08:42.367Z</time></trkpt><trkpt lat="38.0416183" lon="15.7172533"><ele>328.0</ele><time>2026-04-24T09:08:43.366Z</time></trkpt><trkpt lat="38.0415617" lon="15.7173467"><ele>329.0</ele><time>2026-04-24T09:08:44.366Z</time></trkpt><trkpt lat="38.0415017" lon="15.717425"><ele>330.0</ele><time>2026-04-24T09:08:45.367Z</time></trkpt><trkpt lat="38.0414217" lon="15.7174917"><ele>331.0</ele><time>2026-04-24T09:08:46.367Z</time></trkpt><trkpt lat="38.0413433" lon="15.7175433"><ele>332.0</ele><time>2026-04-24T09:08:47.367Z</time></trkpt><trkpt lat="38.0412667" lon="15.7175833"><ele>333.0</ele><time>2026-04-24T09:08:48.367Z</time></trkpt><trkpt lat="38.0411767" lon="15.717625"><ele>333.0</ele><time>2026-04-24T09:08:49.367Z</time></trkpt><trkpt lat="38.0410783" lon="15.717655"><ele>333.0</ele><time>2026-04-24T09:08:50.366Z</time></trkpt><trkpt lat="38.040965" lon="15.7176983"><ele>333.0</ele><time>2026-04-24T09:08:51.366Z</time></trkpt><trkpt lat="38.04085" lon="15.7177367"><ele>333.0</ele><time>2026-04-24T09:08:52.366Z</time></trkpt><trkpt lat="38.0407417" lon="15.7177633"><ele>333.0</ele><time>2026-04-24T09:08:53.366Z</time></trkpt><trkpt lat="38.0406433" lon="15.7177733"><ele>335.1666666666667</ele><time>2026-04-24T09:08:54.366Z</time></trkpt><trkpt lat="38.0405633" lon="15.7177667"><ele>337.3333333333333</ele><time>2026-04-24T09:08:55.367Z</time></trkpt><trkpt lat="38.0404933" lon="15.7177717"><ele>339.5</ele><time>2026-04-24T09:08:56.367Z</time></trkpt><trkpt lat="38.0404117" lon="15.717805"><ele>341.66666666666663</ele><time>2026-04-24T09:08:58.367Z</time></trkpt><trkpt lat="38.0403617" lon="15.7178567"><ele>343.8333333333333</ele><time>2026-04-24T09:09:00.366Z</time></trkpt><trkpt lat="38.040275" lon="15.717895"><ele>346.0</ele><time>2026-04-24T09:09:03.366Z</time></trkpt><trkpt lat="38.0401967" lon="15.7179133"><ele>346.0</ele><time>2026-04-24T09:09:05.366Z</time></trkpt><trkpt lat="38.0401317" lon="15.7179433"><ele>346.0</ele><time>2026-04-24T09:09:07.366Z</time></trkpt><trkpt lat="38.040235" lon="15.7179033"><ele>346.0</ele><time>2026-04-24T09:09:23.367Z</time></trkpt><trkpt lat="38.0402983" lon="15.7179067"><ele>346.0</ele><time>2026-04-24T09:09:24.366Z</time></trkpt><trkpt lat="38.040365" lon="15.7178883"><ele>346.0</ele><time>2026-04-24T09:09:25.366Z</time></trkpt><trkpt lat="38.040435" lon="15.7178083"><ele>346.0</ele><time>2026-04-24T09:09:27.367Z</time></trkpt><trkpt lat="38.0403933" lon="15.71772"><ele>346.16666666666663</ele><time>2026-04-24T09:09:29.366Z</time></trkpt><trkpt lat="38.0403067" lon="15.7176717"><ele>346.3333333333333</ele><time>2026-04-24T09:09:31.366Z</time></trkpt><trkpt lat="38.0402333" lon="15.71764"><ele>346.5</ele><time>2026-04-24T09:09:32.367Z</time></trkpt><trkpt lat="38.04017" lon="15.7176033"><ele>346.6666666666667</ele><time>2026-04-24T09:09:33.366Z</time></trkpt><trkpt lat="38.0400833" lon="15.7175367"><ele>346.83333333333337</ele><time>2026-04-24T09:09:35.366Z</time></trkpt><trkpt lat="38.0400017" lon="15.717515"><ele>347.0</ele><time>2026-04-24T09:12:53.366Z</time></trkpt><trkpt lat="38.0399817" lon="15.7174317"><ele>347.0</ele><time>2026-04-24T09:12:55.367Z</time></trkpt><trkpt lat="38.0400067" lon="15.7175067"><ele>347.0</ele><time>2026-04-24T09:13:01.367Z</time></trkpt><trkpt lat="38.04009" lon="15.7175833"><ele>347.0</ele><time>2026-04-24T09:13:03.366Z</time></trkpt><trkpt lat="38.04014" lon="15.717635"><ele>347.0</ele><time>2026-04-24T09:13:04.366Z</time></trkpt><trkpt lat="38.0402017" lon="15.7176833"><ele>347.0</ele><time>2026-04-24T09:13:05.367Z</time></trkpt><trkpt lat="38.04027" lon="15.71772"><ele>347.0</ele><time>2026-04-24T09:13:06.366Z</time></trkpt><trkpt lat="38.0403367" lon="15.7177467"><ele>347.0</ele><time>2026-04-24T09:13:07.366Z</time></trkpt><trkpt lat="38.04041" lon="15.71776"><ele>346.83333333333337</ele><time>2026-04-24T09:13:08.366Z</time></trkpt><trkpt lat="38.0404833" lon="15.717775"><ele>346.6666666666667</ele><time>2026-04-24T09:13:09.366Z</time></trkpt><trkpt lat="38.0405533" lon="15.7177867"><ele>346.5</ele><time>2026-04-24T09:13:10.366Z</time></trkpt><trkpt lat="38.0406383" lon="15.7177983"><ele>346.3333333333333</ele><time>2026-04-24T09:13:11.367Z</time></trkpt><trkpt lat="38.0407483" lon="15.7177917"><ele>346.16666666666663</ele><time>2026-04-24T09:13:12.366Z</time></trkpt><trkpt lat="38.0408533" lon="15.717775"><ele>346.0</ele><time>2026-04-24T09:13:13.366Z</time></trkpt><trkpt lat="38.0409633" lon="15.7177467"><ele>343.4</ele><time>2026-04-24T09:13:14.366Z</time></trkpt><trkpt lat="38.0410867" lon="15.7177067"><ele>340.8</ele><time>2026-04-24T09:13:15.366Z</time></trkpt><trkpt lat="38.0412017" lon="15.7176667"><ele>338.2</ele><time>2026-04-24T09:13:16.366Z</time></trkpt><trkpt lat="38.0413" lon="15.71763"><ele>335.59999999999997</ele><time>2026-04-24T09:13:17.367Z</time></trkpt><trkpt lat="38.0413867" lon="15.7175817"><ele>333.0</ele><time>2026-04-24T09:13:18.367Z</time></trkpt><trkpt lat="38.04148" lon="15.7175117"><ele>333.0</ele><time>2026-04-24T09:13:19.367Z</time></trkpt><trkpt lat="38.0415567" lon="15.7174183"><ele>333.0</ele><time>2026-04-24T09:13:20.366Z</time></trkpt><trkpt lat="38.04163" lon="15.7173183"><ele>333.0</ele><time>2026-04-24T09:13:21.366Z</time></trkpt><trkpt lat="38.0416867" lon="15.7172083"><ele>333.0</ele><time>2026-04-24T09:13:22.366Z</time></trkpt><trkpt lat="38.0417367" lon="15.7170917"><ele>333.0</ele><time>2026-04-24T09:13:23.366Z</time></trkpt><trkpt lat="38.041775" lon="15.7169867"><ele>332.0</ele><time>2026-04-24T09:13:24.366Z</time></trkpt><trkpt lat="38.041805" lon="15.7168867"><ele>331.0</ele><time>2026-04-24T09:13:25.366Z</time></trkpt><trkpt lat="38.041835" lon="15.7168067"><ele>330.0</ele><time>2026-04-24T09:13:26.367Z</time></trkpt><trkpt lat="38.0418917" lon="15.7167183"><ele>329.0</ele><time>2026-04-24T09:13:28.366Z</time></trkpt><trkpt lat="38.041975" lon="15.7167433"><ele>328.0</ele><time>2026-04-24T09:13:30.367Z</time></trkpt><trkpt lat="38.0420333" lon="15.7167933"><ele>327.0</ele><time>2026-04-24T09:13:32.367Z</time></trkpt><trkpt lat="38.0421267" lon="15.7167433"><ele>327.0</ele><time>2026-04-24T09:13:35.367Z</time></trkpt><trkpt lat="38.0422167" lon="15.71668"><ele>327.0</ele><time>2026-04-24T09:13:37.367Z</time></trkpt><trkpt lat="38.04228" lon="15.7166433"><ele>327.0</ele><time>2026-04-24T09:13:38.366Z</time></trkpt><trkpt lat="38.0423467" lon="15.7166117"><ele>327.0</ele><time>2026-04-24T09:13:39.366Z</time></trkpt><trkpt lat="38.0424117" lon="15.7165833"><ele>327.0</ele><time>2026-04-24T09:13:40.367Z</time></trkpt><trkpt lat="38.0424967" lon="15.7165417"><ele>327.0</ele><time>2026-04-24T09:13:42.366Z</time></trkpt><trkpt lat="38.042545" lon="15.7164533"><ele>325.7142857142857</ele><time>2026-04-24T09:13:46.367Z</time></trkpt><trkpt lat="38.0425467" lon="15.7163667"><ele>324.42857142857144</ele><time>2026-04-24T09:13:48.366Z</time></trkpt><trkpt lat="38.0425733" lon="15.716265"><ele>323.1428571428571</ele><time>2026-04-24T09:13:51.366Z</time></trkpt><trkpt lat="38.042605" lon="15.7161917"><ele>321.8571428571429</ele><time>2026-04-24T09:13:54.366Z</time></trkpt><trkpt lat="38.0426333" lon="15.7161167"><ele>320.5714285714286</ele><time>2026-04-24T09:13:57.366Z</time></trkpt><trkpt lat="38.0426167" lon="15.7162117"><ele>319.2857142857143</ele><time>2026-04-24T09:14:36.367Z</time></trkpt><trkpt lat="38.042585" lon="15.7162833"><ele>318.0</ele><time>2026-04-24T09:14:37.366Z</time></trkpt><trkpt lat="38.0425567" lon="15.71636"><ele>318.0</ele><time>2026-04-24T09:14:38.366Z</time></trkpt><trkpt lat="38.0425317" lon="15.7164617"><ele>318.0</ele><time>2026-04-24T09:14:40.366Z</time></trkpt><trkpt lat="38.0425733" lon="15.71653"><ele>318.0</ele><time>2026-04-24T09:14:43.367Z</time></trkpt><trkpt lat="38.04264" lon="15.716575"><ele>318.0</ele><time>2026-04-24T09:14:45.366Z</time></trkpt><trkpt lat="38.0426867" lon="15.7166533"><ele>318.0</ele><time>2026-04-24T09:14:47.366Z</time></trkpt><trkpt lat="38.042715" lon="15.7167417"><ele>318.0</ele><time>2026-04-24T09:14:49.367Z</time></trkpt><trkpt lat="38.04267" lon="15.7166517"><ele>318.0</ele><time>2026-04-24T09:15:09.366Z</time></trkpt><trkpt lat="38.0426133" lon="15.7165367"><ele>318.0</ele><time>2026-04-24T09:15:11.367Z</time></trkpt><trkpt lat="38.042525" lon="15.7165033"><ele>318.0</ele><time>2026-04-24T09:15:13.366Z</time></trkpt><trkpt lat="38.042405" lon="15.716535"><ele>318.0</ele><time>2026-04-24T09:15:15.366Z</time></trkpt><trkpt lat="38.042345" lon="15.7165617"><ele>318.0</ele><time>2026-04-24T09:15:16.366Z</time></trkpt><trkpt lat="38.0422733" lon="15.7165983"><ele>319.1666666666667</ele><time>2026-04-24T09:15:17.367Z</time></trkpt><trkpt lat="38.04219" lon="15.7166567"><ele>320.3333333333333</ele><time>2026-04-24T09:15:18.367Z</time></trkpt><trkpt lat="38.04212" lon="15.7167133"><ele>321.5</ele><time>2026-04-24T09:15:19.366Z</time></trkpt><trkpt lat="38.04206" lon="15.71677"><ele>322.66666666666663</ele><time>2026-04-24T09:15:20.366Z</time></trkpt><trkpt lat="38.042005" lon="15.7168117"><ele>323.8333333333333</ele><time>2026-04-24T09:15:21.367Z</time></trkpt><trkpt lat="38.0419167" lon="15.71688"><ele>325.0</ele><time>2026-04-24T09:15:23.366Z</time></trkpt><trkpt lat="38.0418633" lon="15.7170117"><ele>325.0</ele><time>2026-04-24T09:15:25.366Z</time></trkpt><trkpt lat="38.0418583" lon="15.7171"><ele>325.0</ele><time>2026-04-24T09:15:26.366Z</time></trkpt><trkpt lat="38.04187" lon="15.71721"><ele>325.0</ele><time>2026-04-24T09:15:27.366Z</time></trkpt><trkpt lat="38.0418867" lon="15.717335"><ele>325.0</ele><time>2026-04-24T09:15:28.366Z</time></trkpt><trkpt lat="38.041905" lon="15.7174633"><ele>325.0</ele><time>2026-04-24T09:15:29.366Z</time></trkpt><trkpt lat="38.0419267" lon="15.7176017"><ele>325.8</ele><time>2026-04-24T09:15:30.366Z</time></trkpt><trkpt lat="38.0419467" lon="15.7177467"><ele>326.6</ele><time>2026-04-24T09:15:31.366Z</time></trkpt><trkpt lat="38.0419617" lon="15.7178817"><ele>327.4</ele><time>2026-04-24T09:15:32.367Z</time></trkpt><trkpt lat="38.04198" lon="15.71801"><ele>328.2</ele><time>2026-04-24T09:15:33.367Z</time></trkpt><trkpt lat="38.042005" lon="15.71814"><ele>329.0</ele><time>2026-04-24T09:15:34.366Z</time></trkpt><trkpt lat="38.0420217" lon="15.7182817"><ele>329.0</ele><time>2026-04-24T09:15:35.366Z</time></trkpt><trkpt lat="38.0420483" lon="15.7184117"><ele>329.0</ele><time>2026-04-24T09:15:36.366Z</time></trkpt><trkpt lat="38.0420833" lon="15.7185517"><ele>329.0</ele><time>2026-04-24T09:15:37.366Z</time></trkpt><trkpt lat="38.0421217" lon="15.7187033"><ele>329.0</ele><time>2026-04-24T09:15:38.367Z</time></trkpt><trkpt lat="38.0421517" lon="15.7188417"><ele>329.5</ele><time>2026-04-24T09:15:39.367Z</time></trkpt><trkpt lat="38.0421867" lon="15.718985"><ele>330.0</ele><time>2026-04-24T09:15:40.367Z</time></trkpt><trkpt lat="38.0422283" lon="15.7191417"><ele>330.5</ele><time>2026-04-24T09:15:41.367Z</time></trkpt><trkpt lat="38.0422667" lon="15.719305"><ele>331.0</ele><time>2026-04-24T09:15:42.366Z</time></trkpt><trkpt lat="38.042315" lon="15.7194517"><ele>332.0</ele><time>2026-04-24T09:15:43.366Z</time></trkpt><trkpt lat="38.0423683" lon="15.7195933"><ele>333.0</ele><time>2026-04-24T09:15:44.366Z</time></trkpt><trkpt lat="38.0424183" lon="15.7197467"><ele>334.0</ele><time>2026-04-24T09:15:45.367Z</time></trkpt><trkpt lat="38.0424583" lon="15.7199017"><ele>335.0</ele><time>2026-04-24T09:15:46.366Z</time></trkpt><trkpt lat="38.0424967" lon="15.72005"><ele>335.6</ele><time>2026-04-24T09:15:47.367Z</time></trkpt><trkpt lat="38.0425167" lon="15.7201983"><ele>336.2</ele><time>2026-04-24T09:15:48.367Z</time></trkpt><trkpt lat="38.0425367" lon="15.7203367"><ele>336.79999999999995</ele><time>2026-04-24T09:15:49.367Z</time></trkpt><trkpt lat="38.04255" lon="15.72047"><ele>337.4</ele><time>2026-04-24T09:15:50.366Z</time></trkpt><trkpt lat="38.0425467" lon="15.720615"><ele>338.0</ele><time>2026-04-24T09:15:51.367Z</time></trkpt><trkpt lat="38.04255" lon="15.7207417"><ele>339.0</ele><time>2026-04-24T09:15:52.366Z</time></trkpt><trkpt lat="38.0425517" lon="15.72087"><ele>340.0</ele><time>2026-04-24T09:15:53.367Z</time></trkpt><trkpt lat="38.0425583" lon="15.7209933"><ele>341.0</ele><time>2026-04-24T09:15:54.367Z</time></trkpt><trkpt lat="38.0425567" lon="15.7211117"><ele>342.0</ele><time>2026-04-24T09:15:55.366Z</time></trkpt><trkpt lat="38.0425533" lon="15.721225"><ele>343.0</ele><time>2026-04-24T09:15:56.366Z</time></trkpt><trkpt lat="38.0425383" lon="15.7213317"><ele>343.79999999999995</ele><time>2026-04-24T09:15:57.366Z</time></trkpt><trkpt lat="38.0425167" lon="15.7214417"><ele>344.6</ele><time>2026-04-24T09:15:58.367Z</time></trkpt><trkpt lat="38.0424833" lon="15.7215617"><ele>345.4</ele><time>2026-04-24T09:15:59.366Z</time></trkpt><trkpt lat="38.0424517" lon="15.7216767"><ele>346.20000000000005</ele><time>2026-04-24T09:16:00.367Z</time></trkpt><trkpt lat="38.04241" lon="15.7218083"><ele>347.0</ele><time>2026-04-24T09:16:01.366Z</time></trkpt><trkpt lat="38.0423783" lon="15.721945"><ele>349.0</ele><time>2026-04-24T09:16:02.366Z</time></trkpt><trkpt lat="38.0423417" lon="15.722075"><ele>351.0</ele><time>2026-04-24T09:16:03.366Z</time></trkpt><trkpt lat="38.0423067" lon="15.7222017"><ele>353.0</ele><time>2026-04-24T09:16:04.366Z</time></trkpt><trkpt lat="38.0422533" lon="15.7223183"><ele>355.0</ele><time>2026-04-24T09:16:05.366Z</time></trkpt><trkpt lat="38.0421833" lon="15.7224317"><ele>357.0</ele><time>2026-04-24T09:16:06.366Z</time></trkpt><trkpt lat="38.0421167" lon="15.7225467"><ele>357.0</ele><time>2026-04-24T09:16:07.366Z</time></trkpt><trkpt lat="38.0420483" lon="15.7226683"><ele>357.0</ele><time>2026-04-24T09:16:08.367Z</time></trkpt><trkpt lat="38.04198" lon="15.7227983"><ele>357.0</ele><time>2026-04-24T09:16:09.366Z</time></trkpt><trkpt lat="38.041905" lon="15.7229283"><ele>357.0</ele><time>2026-04-24T09:16:10.366Z</time></trkpt><trkpt lat="38.0418283" lon="15.7230617"><ele>358.5</ele><time>2026-04-24T09:16:11.367Z</time></trkpt><trkpt lat="38.0417483" lon="15.7231983"><ele>360.0</ele><time>2026-04-24T09:16:12.367Z</time></trkpt><trkpt lat="38.0416633" lon="15.72333"><ele>361.5</ele><time>2026-04-24T09:16:13.366Z</time></trkpt><trkpt lat="38.0415767" lon="15.72346"><ele>363.0</ele><time>2026-04-24T09:16:14.366Z</time></trkpt><trkpt lat="38.0414917" lon="15.72358"><ele>365.0</ele><time>2026-04-24T09:16:15.366Z</time></trkpt><trkpt lat="38.0414117" lon="15.7237"><ele>367.0</ele><time>2026-04-24T09:16:16.366Z</time></trkpt><trkpt lat="38.0413383" lon="15.7238167"><ele>369.0</ele><time>2026-04-24T09:16:17.367Z</time></trkpt><trkpt lat="38.0412583" lon="15.7239267"><ele>371.0</ele><time>2026-04-24T09:16:18.366Z</time></trkpt><trkpt lat="38.0411817" lon="15.7240267"><ele>371.0</ele><time>2026-04-24T09:16:19.367Z</time></trkpt><trkpt lat="38.0411383" lon="15.7241083"><ele>371.0</ele><time>2026-04-24T09:16:20.367Z</time></trkpt><trkpt lat="38.0411217" lon="15.7241917"><ele>371.0</ele><time>2026-04-24T09:16:21.366Z</time></trkpt><trkpt lat="38.04114" lon="15.7242717"><ele>371.0</ele><time>2026-04-24T09:16:22.367Z</time></trkpt><trkpt lat="38.04119" lon="15.7243633"><ele>371.0</ele><time>2026-04-24T09:16:23.366Z</time></trkpt><trkpt lat="38.0412667" lon="15.7244483"><ele>371.0</ele><time>2026-04-24T09:16:24.367Z</time></trkpt><trkpt lat="38.041355" lon="15.72454"><ele>371.1666666666667</ele><time>2026-04-24T09:16:25.366Z</time></trkpt><trkpt lat="38.0414383" lon="15.7246133"><ele>371.33333333333337</ele><time>2026-04-24T09:16:26.366Z</time></trkpt><trkpt lat="38.0415017" lon="15.72468"><ele>371.5</ele><time>2026-04-24T09:16:27.366Z</time></trkpt><trkpt lat="38.0415517" lon="15.724735"><ele>371.6666666666667</ele><time>2026-04-24T09:16:28.366Z</time></trkpt><trkpt lat="38.04161" lon="15.7247933"><ele>371.8333333333333</ele><time>2026-04-24T09:16:30.366Z</time></trkpt><trkpt lat="38.0416717" lon="15.7248267"><ele>372.0</ele><time>2026-04-24T09:16:33.366Z</time></trkpt><trkpt lat="38.0417583" lon="15.7247683"><ele>370.75</ele><time>2026-04-24T09:16:36.367Z</time></trkpt><trkpt lat="38.0418183" lon="15.7246883"><ele>369.5</ele><time>2026-04-24T09:16:37.367Z</time></trkpt><trkpt lat="38.0419033" lon="15.72458"><ele>368.25</ele><time>2026-04-24T09:16:38.366Z</time></trkpt><trkpt lat="38.0420117" lon="15.7244533"><ele>367.0</ele><time>2026-04-24T09:16:39.366Z</time></trkpt><trkpt lat="38.042125" lon="15.7243183"><ele>366.66666666666663</ele><time>2026-04-24T09:16:40.366Z</time></trkpt><trkpt lat="38.0422467" lon="15.72419"><ele>366.3333333333333</ele><time>2026-04-24T09:16:41.367Z</time></trkpt><trkpt lat="38.0423667" lon="15.7240483"><ele>366.0</ele><time>2026-04-24T09:16:42.366Z</time></trkpt><trkpt lat="38.0424967" lon="15.7238983"><ele>364.3333333333333</ele><time>2026-04-24T09:16:43.366Z</time></trkpt><trkpt lat="38.0426217" lon="15.7237533"><ele>362.66666666666663</ele><time>2026-04-24T09:16:44.366Z</time></trkpt><trkpt lat="38.042745" lon="15.7236083"><ele>361.0</ele><time>2026-04-24T09:16:45.366Z</time></trkpt><trkpt lat="38.042865" lon="15.7234717"><ele>359.3333333333333</ele><time>2026-04-24T09:16:46.366Z</time></trkpt><trkpt lat="38.0429833" lon="15.723335"><ele>357.6666666666667</ele><time>2026-04-24T09:16:47.367Z</time></trkpt><trkpt lat="38.0431" lon="15.7231983"><ele>356.0</ele><time>2026-04-24T09:16:48.367Z</time></trkpt><trkpt lat="38.04321" lon="15.72307"><ele>355.5</ele><time>2026-04-24T09:16:49.366Z</time></trkpt><trkpt lat="38.0433183" lon="15.722945"><ele>355.0</ele><time>2026-04-24T09:16:50.366Z</time></trkpt><trkpt lat="38.0434233" lon="15.7228217"><ele>354.5</ele><time>2026-04-24T09:16:51.367Z</time></trkpt><trkpt lat="38.0435017" lon="15.722705"><ele>354.0</ele><time>2026-04-24T09:16:52.367Z</time></trkpt><trkpt lat="38.0435533" lon="15.7225783"><ele>354.0</ele><time>2026-04-24T09:16:53.366Z</time></trkpt><trkpt lat="38.0435717" lon="15.72242"><ele>354.0</ele><time>2026-04-24T09:16:54.367Z</time></trkpt><trkpt lat="38.0435633" lon="15.7222483"><ele>354.0</ele><time>2026-04-24T09:16:55.367Z</time></trkpt><trkpt lat="38.043545" lon="15.72207"><ele>354.0</ele><time>2026-04-24T09:16:56.366Z</time></trkpt><trkpt lat="38.0435167" lon="15.7218867"><ele>355.3333333333333</ele><time>2026-04-24T09:16:57.367Z</time></trkpt><trkpt lat="38.0434917" lon="15.721685"><ele>356.66666666666663</ele><time>2026-04-24T09:16:58.366Z</time></trkpt><trkpt lat="38.0434633" lon="15.7214733"><ele>358.0</ele><time>2026-04-24T09:16:59.366Z</time></trkpt><trkpt lat="38.0434383" lon="15.7212683"><ele>358.0</ele><time>2026-04-24T09:17:00.366Z</time></trkpt><trkpt lat="38.0434283" lon="15.721075"><ele>358.0</ele><time>2026-04-24T09:17:01.367Z</time></trkpt><trkpt lat="38.043415" lon="15.72089"><ele>358.0</ele><time>2026-04-24T09:17:02.366Z</time></trkpt><trkpt lat="38.0433967" lon="15.7207217"><ele>358.0</ele><time>2026-04-24T09:17:03.366Z</time></trkpt><trkpt lat="38.0433767" lon="15.7205517"><ele>357.79999999999995</ele><time>2026-04-24T09:17:04.367Z</time></trkpt><trkpt lat="38.0433583" lon="15.72041"><ele>357.6</ele><time>2026-04-24T09:17:05.367Z</time></trkpt><trkpt lat="38.0433567" lon="15.7202967"><ele>357.4</ele><time>2026-04-24T09:17:06.366Z</time></trkpt><trkpt lat="38.0433617" lon="15.7201933"><ele>357.20000000000005</ele><time>2026-04-24T09:17:07.367Z</time></trkpt><trkpt lat="38.0433883" lon="15.7201"><ele>357.0</ele><time>2026-04-24T09:17:08.367Z</time></trkpt><trkpt lat="38.0434633" lon="15.7200367"><ele>354.25</ele><time>2026-04-24T09:17:09.366Z</time></trkpt><trkpt lat="38.0435583" lon="15.7199817"><ele>351.5</ele><time>2026-04-24T09:17:10.367Z</time></trkpt><trkpt lat="38.0436733" lon="15.7199067"><ele>348.75</ele><time>2026-04-24T09:17:11.367Z</time></trkpt><trkpt lat="38.0437767" lon="15.7198117"><ele>346.0</ele><time>2026-04-24T09:17:12.366Z</time></trkpt><trkpt lat="38.0438683" lon="15.7197133"><ele>346.0</ele><time>2026-04-24T09:17:13.367Z</time></trkpt><trkpt lat="38.04396" lon="15.71964"><ele>346.0</ele><time>2026-04-24T09:17:14.367Z</time></trkpt><trkpt lat="38.044055" lon="15.7196067"><ele>346.0</ele><time>2026-04-24T09:17:15.366Z</time></trkpt><trkpt lat="38.0441467" lon="15.719605"><ele>346.0</ele><time>2026-04-24T09:17:16.366Z</time></trkpt><trkpt lat="38.0442367" lon="15.7196233"><ele>346.0</ele><time>2026-04-24T09:17:17.367Z</time></trkpt><trkpt lat="38.0443233" lon="15.7196533"><ele>344.4</ele><time>2026-04-24T09:17:18.367Z</time></trkpt><trkpt lat="38.0444033" lon="15.719655"><ele>342.8</ele><time>2026-04-24T09:17:19.367Z</time></trkpt><trkpt lat="38.0444783" lon="15.71962"><ele>341.2</ele><time>2026-04-24T09:17:20.366Z</time></trkpt><trkpt lat="38.044545" lon="15.7195517"><ele>339.59999999999997</ele><time>2026-04-24T09:17:21.367Z</time></trkpt><trkpt lat="38.0445967" lon="15.7194317"><ele>338.0</ele><time>2026-04-24T09:17:22.367Z</time></trkpt><trkpt lat="38.0446117" lon="15.7192883"><ele>338.0</ele><time>2026-04-24T09:17:23.367Z</time></trkpt><trkpt lat="38.04463" lon="15.7191633"><ele>338.0</ele><time>2026-04-24T09:17:24.366Z</time></trkpt><trkpt lat="38.0446583" lon="15.7190517"><ele>338.0</ele><time>2026-04-24T09:17:25.367Z</time></trkpt><trkpt lat="38.0446967" lon="15.7189317"><ele>338.0</ele><time>2026-04-24T09:17:26.366Z</time></trkpt><trkpt lat="38.0447383" lon="15.7188217"><ele>338.0</ele><time>2026-04-24T09:17:27.366Z</time></trkpt><trkpt lat="38.044775" lon="15.7186983"><ele>338.0</ele><time>2026-04-24T09:17:28.367Z</time></trkpt><trkpt lat="38.0448083" lon="15.7185833"><ele>338.0</ele><time>2026-04-24T09:17:29.367Z</time></trkpt><trkpt lat="38.0448333" lon="15.71848"><ele>338.0</ele><time>2026-04-24T09:17:30.366Z</time></trkpt><trkpt lat="38.0448717" lon="15.7183917"><ele>338.0</ele><time>2026-04-24T09:17:31.366Z</time></trkpt><trkpt lat="38.0449233" lon="15.71832"><ele>338.0</ele><time>2026-04-24T09:17:32.366Z</time></trkpt><trkpt lat="38.0449883" lon="15.7182633"><ele>338.0</ele><time>2026-04-24T09:17:33.367Z</time></trkpt><trkpt lat="38.0450533" lon="15.7181917"><ele>336.79999999999995</ele><time>2026-04-24T09:17:34.367Z</time></trkpt><trkpt lat="38.0450967" lon="15.7181017"><ele>335.6</ele><time>2026-04-24T09:17:35.366Z</time></trkpt><trkpt lat="38.045115" lon="15.7179983"><ele>334.4</ele><time>2026-04-24T09:17:36.367Z</time></trkpt><trkpt lat="38.0451083" lon="15.7178733"><ele>333.20000000000005</ele><time>2026-04-24T09:17:37.367Z</time></trkpt><trkpt lat="38.04507" lon="15.717725"><ele>332.0</ele><time>2026-04-24T09:17:38.366Z</time></trkpt><trkpt lat="38.0450433" lon="15.7175967"><ele>332.0</ele><time>2026-04-24T09:17:39.367Z</time></trkpt><trkpt lat="38.0450383" lon="15.7174883"><ele>332.0</ele><time>2026-04-24T09:17:40.366Z</time></trkpt><trkpt lat="38.04505" lon="15.7173817"><ele>332.0</ele><time>2026-04-24T09:17:41.366Z</time></trkpt><trkpt lat="38.045085" lon="15.7172817"><ele>332.0</ele><time>2026-04-24T09:17:42.367Z</time></trkpt><trkpt lat="38.0451433" lon="15.71719"><ele>332.0</ele><time>2026-04-24T09:17:43.367Z</time></trkpt><trkpt lat="38.0452067" lon="15.7171067"><ele>332.0</ele><time>2026-04-24T09:17:44.367Z</time></trkpt><trkpt lat="38.0452783" lon="15.7170417"><ele>332.0</ele><time>2026-04-24T09:17:45.367Z</time></trkpt><trkpt lat="38.045355" lon="15.7169517"><ele>332.0</ele><time>2026-04-24T09:17:46.366Z</time></trkpt><trkpt lat="38.0454167" lon="15.716835"><ele>332.0</ele><time>2026-04-24T09:17:47.366Z</time></trkpt><trkpt lat="38.045445" lon="15.7167083"><ele>332.0</ele><time>2026-04-24T09:17:48.366Z</time></trkpt><trkpt lat="38.0454367" lon="15.7165817"><ele>332.0</ele><time>2026-04-24T09:17:49.366Z</time></trkpt><trkpt lat="38.045405" lon="15.716445"><ele>329.20000000000005</ele><time>2026-04-24T09:17:50.366Z</time></trkpt><trkpt lat="38.0453767" lon="15.7163017"><ele>326.40000000000003</ele><time>2026-04-24T09:17:51.367Z</time></trkpt><trkpt lat="38.0453817" lon="15.7161467"><ele>323.6</ele><time>2026-04-24T09:17:52.367Z</time></trkpt><trkpt lat="38.0454083" lon="15.7160183"><ele>320.8</ele><time>2026-04-24T09:17:53.366Z</time></trkpt><trkpt lat="38.0454617" lon="15.715925"><ele>318.0</ele><time>2026-04-24T09:17:54.367Z</time></trkpt><trkpt lat="38.0455383" lon="15.7158717"><ele>318.8</ele><time>2026-04-24T09:17:55.366Z</time></trkpt><trkpt lat="38.0456283" lon="15.715845"><ele>319.6</ele><time>2026-04-24T09:17:56.366Z</time></trkpt><trkpt lat="38.045725" lon="15.7158367"><ele>320.40000000000003</ele><time>2026-04-24T09:17:57.367Z</time></trkpt><trkpt lat="38.0458217" lon="15.7158117"><ele>321.20000000000005</ele><time>2026-04-24T09:17:58.366Z</time></trkpt><trkpt lat="38.0459033" lon="15.7157533"><ele>322.0</ele><time>2026-04-24T09:17:59.367Z</time></trkpt><trkpt lat="38.0459683" lon="15.7156633"><ele>322.0</ele><time>2026-04-24T09:18:00.366Z</time></trkpt><trkpt lat="38.0460083" lon="15.71554"><ele>322.0</ele><time>2026-04-24T09:18:01.366Z</time></trkpt><trkpt lat="38.0460017" lon="15.7153733"><ele>322.0</ele><time>2026-04-24T09:18:02.366Z</time></trkpt><trkpt lat="38.0459867" lon="15.7151867"><ele>322.0</ele><time>2026-04-24T09:18:03.367Z</time></trkpt><trkpt lat="38.0459967" lon="15.7150083"><ele>320.25</ele><time>2026-04-24T09:18:04.366Z</time></trkpt><trkpt lat="38.0460317" lon="15.7148483"><ele>318.5</ele><time>2026-04-24T09:18:05.366Z</time></trkpt><trkpt lat="38.04609" lon="15.7146933"><ele>316.75</ele><time>2026-04-24T09:18:06.366Z</time></trkpt><trkpt lat="38.0461317" lon="15.7145283"><ele>315.0</ele><time>2026-04-24T09:18:07.366Z</time></trkpt><trkpt lat="38.0461583" lon="15.7143717"><ele>313.5</ele><time>2026-04-24T09:18:08.367Z</time></trkpt><trkpt lat="38.0461633" lon="15.7142117"><ele>312.0</ele><time>2026-04-24T09:18:09.366Z</time></trkpt><trkpt lat="38.0461833" lon="15.7140567"><ele>310.5</ele><time>2026-04-24T09:18:10.366Z</time></trkpt><trkpt lat="38.046225" lon="15.7139267"><ele>309.0</ele><time>2026-04-24T09:18:11.366Z</time></trkpt><trkpt lat="38.0462817" lon="15.7137967"><ele>309.0</ele><time>2026-04-24T09:18:12.366Z</time></trkpt><trkpt lat="38.04634" lon="15.7136483"><ele>309.0</ele><time>2026-04-24T09:18:13.366Z</time></trkpt><trkpt lat="38.046395" lon="15.713505"><ele>309.0</ele><time>2026-04-24T09:18:14.367Z</time></trkpt><trkpt lat="38.0464467" lon="15.7133667"><ele>309.0</ele><time>2026-04-24T09:18:15.366Z</time></trkpt><trkpt lat="38.0464933" lon="15.7132367"><ele>307.0</ele><time>2026-04-24T09:18:16.366Z</time></trkpt><trkpt lat="38.0465333" lon="15.7131317"><ele>305.0</ele><time>2026-04-24T09:18:17.367Z</time></trkpt><trkpt lat="38.04655" lon="15.71302"><ele>303.0</ele><time>2026-04-24T09:18:18.367Z</time></trkpt><trkpt lat="38.0465617" lon="15.7129167"><ele>301.0</ele><time>2026-04-24T09:18:19.367Z</time></trkpt><trkpt lat="38.0465333" lon="15.7128083"><ele>299.0</ele><time>2026-04-24T09:18:20.366Z</time></trkpt><trkpt lat="38.04647" lon="15.7127167"><ele>297.0</ele><time>2026-04-24T09:18:21.367Z</time></trkpt><trkpt lat="38.0464" lon="15.7126333"><ele>296.3333333333333</ele><time>2026-04-24T09:18:22.366Z</time></trkpt><trkpt lat="38.0463517" lon="15.7125533"><ele>295.6666666666667</ele><time>2026-04-24T09:18:23.366Z</time></trkpt><trkpt lat="38.04633" lon="15.7124733"><ele>295.0</ele><time>2026-04-24T09:18:24.366Z</time></trkpt><trkpt lat="38.0463583" lon="15.7123483"><ele>294.33333333333337</ele><time>2026-04-24T09:18:26.366Z</time></trkpt><trkpt lat="38.0464233" lon="15.71234"><ele>293.6666666666667</ele><time>2026-04-24T09:18:27.365Z</time></trkpt><trkpt lat="38.0465217" lon="15.7123567"><ele>293.0</ele><time>2026-04-24T09:18:28.366Z</time></trkpt><trkpt lat="38.0466333" lon="15.712385"><ele>297.6</ele><time>2026-04-24T09:18:29.366Z</time></trkpt><trkpt lat="38.0467617" lon="15.7123883"><ele>302.20000000000005</ele><time>2026-04-24T09:18:30.365Z</time></trkpt><trkpt lat="38.04686" lon="15.71236"><ele>306.8</ele><time>2026-04-24T09:18:31.365Z</time></trkpt><trkpt lat="38.0469167" lon="15.7122933"><ele>311.40000000000003</ele><time>2026-04-24T09:18:32.365Z</time></trkpt><trkpt lat="38.0469433" lon="15.71222"><ele>316.0</ele><time>2026-04-24T09:18:33.365Z</time></trkpt><trkpt lat="38.0469033" lon="15.7121217"><ele>316.0</ele><time>2026-04-24T09:18:34.365Z</time></trkpt><trkpt lat="38.0468167" lon="15.7120167"><ele>316.0</ele><time>2026-04-24T09:18:35.365Z</time></trkpt><trkpt lat="38.046705" lon="15.7119033"><ele>316.0</ele><time>2026-04-24T09:18:36.365Z</time></trkpt><trkpt lat="38.0465733" lon="15.7118083"><ele>316.0</ele><time>2026-04-24T09:18:37.365Z</time></trkpt><trkpt lat="38.046465" lon="15.7117367"><ele>311.6</ele><time>2026-04-24T09:18:38.366Z</time></trkpt><trkpt lat="38.0463683" lon="15.7116633"><ele>307.20000000000005</ele><time>2026-04-24T09:18:39.365Z</time></trkpt><trkpt lat="38.0462917" lon="15.7115917"><ele>302.79999999999995</ele><time>2026-04-24T09:18:40.366Z</time></trkpt><trkpt lat="38.0462383" lon="15.7115167"><ele>298.4</ele><time>2026-04-24T09:18:41.365Z</time></trkpt><trkpt lat="38.0462283" lon="15.7114083"><ele>294.0</ele><time>2026-04-24T09:18:42.365Z</time></trkpt><trkpt lat="38.0462467" lon="15.7113017"><ele>294.0</ele><time>2026-04-24T09:18:43.366Z</time></trkpt><trkpt lat="38.04628" lon="15.71119"><ele>294.0</ele><time>2026-04-24T09:18:44.365Z</time></trkpt><trkpt lat="38.04631" lon="15.7110583"><ele>294.0</ele><time>2026-04-24T09:18:45.366Z</time></trkpt><trkpt lat="38.046325" lon="15.7109117"><ele>294.0</ele><time>2026-04-24T09:18:46.366Z</time></trkpt><trkpt lat="38.0463233" lon="15.7107683"><ele>294.0</ele><time>2026-04-24T09:18:47.366Z</time></trkpt><trkpt lat="38.0462833" lon="15.7106383"><ele>293.3333333333333</ele><time>2026-04-24T09:18:48.366Z</time></trkpt><trkpt lat="38.0462433" lon="15.7105217"><ele>292.6666666666667</ele><time>2026-04-24T09:18:49.365Z</time></trkpt><trkpt lat="38.0462317" lon="15.7104267"><ele>292.0</ele><time>2026-04-24T09:18:50.366Z</time></trkpt><trkpt lat="38.0462433" lon="15.710335"><ele>291.33333333333337</ele><time>2026-04-24T09:18:51.365Z</time></trkpt><trkpt lat="38.0462783" lon="15.7102517"><ele>290.6666666666667</ele><time>2026-04-24T09:18:52.365Z</time></trkpt><trkpt lat="38.0463333" lon="15.7101617"><ele>290.0</ele><time>2026-04-24T09:18:53.365Z</time></trkpt><trkpt lat="38.0463733" lon="15.710045"><ele>287.5</ele><time>2026-04-24T09:18:54.365Z</time></trkpt><trkpt lat="38.0464017" lon="15.7099067"><ele>285.0</ele><time>2026-04-24T09:18:55.365Z</time></trkpt><trkpt lat="38.046405" lon="15.709755"><ele>282.5</ele><time>2026-04-24T09:18:56.365Z</time></trkpt><trkpt lat="38.0463733" lon="15.7096133"><ele>280.0</ele><time>2026-04-24T09:18:57.365Z</time></trkpt><trkpt lat="38.04633" lon="15.709465"><ele>279.8</ele><time>2026-04-24T09:18:58.365Z</time></trkpt><trkpt lat="38.0462817" lon="15.70933"><ele>279.6</ele><time>2026-04-24T09:18:59.365Z</time></trkpt><trkpt lat="38.0462217" lon="15.7092117"><ele>279.4</ele><time>2026-04-24T09:19:00.365Z</time></trkpt><trkpt lat="38.0461733" lon="15.709105"><ele>279.2</ele><time>2026-04-24T09:19:01.366Z</time></trkpt><trkpt lat="38.0461467" lon="15.7089933"><ele>279.0</ele><time>2026-04-24T09:19:02.365Z</time></trkpt><trkpt lat="38.0461383" lon="15.70887"><ele>279.0</ele><time>2026-04-24T09:19:03.365Z</time></trkpt><trkpt lat="38.04614" lon="15.7087433"><ele>279.0</ele><time>2026-04-24T09:19:04.365Z</time></trkpt><trkpt lat="38.046135" lon="15.70862"><ele>279.0</ele><time>2026-04-24T09:19:05.365Z</time></trkpt><trkpt lat="38.0461067" lon="15.7085067"><ele>279.0</ele><time>2026-04-24T09:19:06.365Z</time></trkpt><trkpt lat="38.0460617" lon="15.7083983"><ele>279.0</ele><time>2026-04-24T09:19:07.365Z</time></trkpt><trkpt lat="38.0460217" lon="15.7082983"><ele>279.59999999999997</ele><time>2026-04-24T09:19:08.365Z</time></trkpt><trkpt lat="38.04599" lon="15.7082017"><ele>280.2</ele><time>2026-04-24T09:19:09.366Z</time></trkpt><trkpt lat="38.0459767" lon="15.708095"><ele>280.79999999999995</ele><time>2026-04-24T09:19:10.365Z</time></trkpt><trkpt lat="38.0459767" lon="15.7079767"><ele>281.4</ele><time>2026-04-24T09:19:11.366Z</time></trkpt><trkpt lat="38.0459867" lon="15.7078483"><ele>282.0</ele><time>2026-04-24T09:19:12.365Z</time></trkpt><trkpt lat="38.0460017" lon="15.707715"><ele>279.8</ele><time>2026-04-24T09:19:13.365Z</time></trkpt><trkpt lat="38.046025" lon="15.7075867"><ele>277.6</ele><time>2026-04-24T09:19:14.365Z</time></trkpt><trkpt lat="38.046055" lon="15.70747"><ele>275.40000000000003</ele><time>2026-04-24T09:19:15.365Z</time></trkpt><trkpt lat="38.0460983" lon="15.7073767"><ele>273.2</ele><time>2026-04-24T09:19:16.365Z</time></trkpt><trkpt lat="38.0461683" lon="15.7072933"><ele>271.0</ele><time>2026-04-24T09:19:17.365Z</time></trkpt><trkpt lat="38.046265" lon="15.7072433"><ele>271.0</ele><time>2026-04-24T09:19:18.366Z</time></trkpt><trkpt lat="38.0463783" lon="15.7072017"><ele>271.0</ele><time>2026-04-24T09:19:19.366Z</time></trkpt><trkpt lat="38.0464883" lon="15.70717"><ele>271.0</ele><time>2026-04-24T09:19:20.365Z</time></trkpt><trkpt lat="38.0465967" lon="15.7071717"><ele>271.0</ele><time>2026-04-24T09:19:21.365Z</time></trkpt><trkpt lat="38.04669" lon="15.7071983"><ele>271.0</ele><time>2026-04-24T09:19:22.365Z</time></trkpt><trkpt lat="38.04677" lon="15.7072667"><ele>273.5</ele><time>2026-04-24T09:19:23.365Z</time></trkpt><trkpt lat="38.0468517" lon="15.70737"><ele>276.0</ele><time>2026-04-24T09:19:24.366Z</time></trkpt><trkpt lat="38.0469267" lon="15.7074917"><ele>278.5</ele><time>2026-04-24T09:19:25.366Z</time></trkpt><trkpt lat="38.0470117" lon="15.707595"><ele>281.0</ele><time>2026-04-24T09:19:26.365Z</time></trkpt><trkpt lat="38.047095" lon="15.7076817"><ele>283.6</ele><time>2026-04-24T09:19:27.366Z</time></trkpt><trkpt lat="38.0471933" lon="15.707765"><ele>286.20000000000005</ele><time>2026-04-24T09:19:28.366Z</time></trkpt><trkpt lat="38.0472817" lon="15.7078417"><ele>288.79999999999995</ele><time>2026-04-24T09:19:29.365Z</time></trkpt><trkpt lat="38.0473733" lon="15.7079067"><ele>291.4</ele><time>2026-04-24T09:19:30.365Z</time></trkpt><trkpt lat="38.0474583" lon="15.7079417"><ele>294.0</ele><time>2026-04-24T09:19:31.365Z</time></trkpt><trkpt lat="38.0475283" lon="15.707955"><ele>294.0</ele><time>2026-04-24T09:19:32.365Z</time></trkpt><trkpt lat="38.0476" lon="15.707935"><ele>294.0</ele><time>2026-04-24T09:19:33.365Z</time></trkpt><trkpt lat="38.0476767" lon="15.7078833"><ele>294.0</ele><time>2026-04-24T09:19:34.365Z</time></trkpt><trkpt lat="38.0477467" lon="15.70781"><ele>294.0</ele><time>2026-04-24T09:19:35.365Z</time></trkpt><trkpt lat="38.0478283" lon="15.7076967"><ele>294.0</ele><time>2026-04-24T09:19:36.366Z</time></trkpt><trkpt lat="38.0478983" lon="15.7075617"><ele>288.2</ele><time>2026-04-24T09:19:37.366Z</time></trkpt><trkpt lat="38.047955" lon="15.7074283"><ele>282.4</ele><time>2026-04-24T09:19:38.366Z</time></trkpt><trkpt lat="38.0480117" lon="15.7072967"><ele>276.6</ele><time>2026-04-24T09:19:39.365Z</time></trkpt><trkpt lat="38.0480467" lon="15.7071867"><ele>270.8</ele><time>2026-04-24T09:19:40.365Z</time></trkpt><trkpt lat="38.0480633" lon="15.70709"><ele>265.0</ele><time>2026-04-24T09:19:41.366Z</time></trkpt><trkpt lat="38.04805" lon="15.7070117"><ele>265.0</ele><time>2026-04-24T09:19:42.366Z</time></trkpt><trkpt lat="38.048" lon="15.7069517"><ele>265.0</ele><time>2026-04-24T09:19:43.364Z</time></trkpt><trkpt lat="38.0478933" lon="15.7069717"><ele>265.0</ele><time>2026-04-24T09:19:45.366Z</time></trkpt><trkpt lat="38.0478333" lon="15.7070617"><ele>265.0</ele><time>2026-04-24T09:19:46.365Z</time></trkpt><trkpt lat="38.0477767" lon="15.7071717"><ele>265.0</ele><time>2026-04-24T09:19:47.365Z</time></trkpt><trkpt lat="38.047715" lon="15.7072467"><ele>265.0</ele><time>2026-04-24T09:19:48.366Z</time></trkpt><trkpt lat="38.0476083" lon="15.7072517"><ele>265.0</ele><time>2026-04-24T09:19:50.366Z</time></trkpt><trkpt lat="38.04757" lon="15.70712"><ele>265.0</ele><time>2026-04-24T09:19:52.366Z</time></trkpt><trkpt lat="38.0475917" lon="15.7069883"><ele>265.0</ele><time>2026-04-24T09:19:53.365Z</time></trkpt><trkpt lat="38.0476283" lon="15.7068283"><ele>262.66666666666663</ele><time>2026-04-24T09:19:54.366Z</time></trkpt><trkpt lat="38.0476783" lon="15.7066367"><ele>260.3333333333333</ele><time>2026-04-24T09:19:55.366Z</time></trkpt><trkpt lat="38.0477267" lon="15.7064183"><ele>258.0</ele><time>2026-04-24T09:19:56.365Z</time></trkpt><trkpt lat="38.0477467" lon="15.70623"><ele>256.5</ele><time>2026-04-24T09:19:57.366Z</time></trkpt><trkpt lat="38.0477667" lon="15.7060633"><ele>255.0</ele><time>2026-04-24T09:19:58.365Z</time></trkpt><trkpt lat="38.0477783" lon="15.70589"><ele>253.5</ele><time>2026-04-24T09:19:59.366Z</time></trkpt><trkpt lat="38.0477967" lon="15.7057317"><ele>252.0</ele><time>2026-04-24T09:20:00.366Z</time></trkpt><trkpt lat="38.0478217" lon="15.7055733"><ele>252.0</ele><time>2026-04-24T09:20:01.365Z</time></trkpt><trkpt lat="38.04783" lon="15.7054383"><ele>252.0</ele><time>2026-04-24T09:20:02.365Z</time></trkpt><trkpt lat="38.0478267" lon="15.7052917"><ele>252.0</ele><time>2026-04-24T09:20:03.365Z</time></trkpt><trkpt lat="38.04781" lon="15.7051667"><ele>252.0</ele><time>2026-04-24T09:20:04.365Z</time></trkpt><trkpt lat="38.047785" lon="15.7050267"><ele>252.0</ele><time>2026-04-24T09:20:05.365Z</time></trkpt><trkpt lat="38.0477267" lon="15.704895"><ele>250.39999999999998</ele><time>2026-04-24T09:20:06.366Z</time></trkpt><trkpt lat="38.0476633" lon="15.704765"><ele>248.79999999999998</ele><time>2026-04-24T09:20:07.365Z</time></trkpt><trkpt lat="38.0476" lon="15.704645"><ele>247.2</ele><time>2026-04-24T09:20:08.365Z</time></trkpt><trkpt lat="38.0475467" lon="15.7045383"><ele>245.6</ele><time>2026-04-24T09:20:09.365Z</time></trkpt><trkpt lat="38.0475033" lon="15.7044283"><ele>244.0</ele><time>2026-04-24T09:20:10.365Z</time></trkpt><trkpt lat="38.0474867" lon="15.7042983"><ele>242.25</ele><time>2026-04-24T09:20:11.365Z</time></trkpt><trkpt lat="38.0474967" lon="15.7041483"><ele>240.5</ele><time>2026-04-24T09:20:12.366Z</time></trkpt><trkpt lat="38.0475233" lon="15.70398"><ele>238.75</ele><time>2026-04-24T09:20:13.366Z</time></trkpt><trkpt lat="38.0475583" lon="15.7038017"><ele>237.0</ele><time>2026-04-24T09:20:14.366Z</time></trkpt><trkpt lat="38.0475933" lon="15.7036133"><ele>235.33333333333331</ele><time>2026-04-24T09:20:15.365Z</time></trkpt><trkpt lat="38.0476317" lon="15.7034167"><ele>233.66666666666666</ele><time>2026-04-24T09:20:16.366Z</time></trkpt><trkpt lat="38.04767" lon="15.7032183"><ele>232.0</ele><time>2026-04-24T09:20:17.365Z</time></trkpt><trkpt lat="38.0477067" lon="15.7030283"><ele>232.0</ele><time>2026-04-24T09:20:18.365Z</time></trkpt><trkpt lat="38.0477533" lon="15.7028433"><ele>232.0</ele><time>2026-04-24T09:20:19.366Z</time></trkpt><trkpt lat="38.0478017" lon="15.7026583"><ele>232.0</ele><time>2026-04-24T09:20:20.365Z</time></trkpt><trkpt lat="38.0478467" lon="15.7024783"><ele>231.5</ele><time>2026-04-24T09:20:21.366Z</time></trkpt><trkpt lat="38.0478867" lon="15.7023117"><ele>231.0</ele><time>2026-04-24T09:20:22.365Z</time></trkpt><trkpt lat="38.047925" lon="15.7021517"><ele>230.5</ele><time>2026-04-24T09:20:23.365Z</time></trkpt><trkpt lat="38.04796" lon="15.7019933"><ele>230.0</ele><time>2026-04-24T09:20:24.365Z</time></trkpt><trkpt lat="38.0479967" lon="15.70183"><ele>229.25</ele><time>2026-04-24T09:20:25.365Z</time></trkpt><trkpt lat="38.0480233" lon="15.7016567"><ele>228.5</ele><time>2026-04-24T09:20:26.366Z</time></trkpt><trkpt lat="38.0480367" lon="15.7014733"><ele>227.75</ele><time>2026-04-24T09:20:27.366Z</time></trkpt><trkpt lat="38.0480467" lon="15.7012817"><ele>227.0</ele><time>2026-04-24T09:20:28.366Z</time></trkpt><trkpt lat="38.048055" lon="15.70109"><ele>225.25</ele><time>2026-04-24T09:20:29.366Z</time></trkpt><trkpt lat="38.0480633" lon="15.700905"><ele>223.5</ele><time>2026-04-24T09:20:30.365Z</time></trkpt><trkpt lat="38.04807" lon="15.7007233"><ele>221.75</ele><time>2026-04-24T09:20:31.365Z</time></trkpt><trkpt lat="38.0480767" lon="15.700545"><ele>220.0</ele><time>2026-04-24T09:20:32.365Z</time></trkpt><trkpt lat="38.0480817" lon="15.7003617"><ele>219.25</ele><time>2026-04-24T09:20:33.365Z</time></trkpt><trkpt lat="38.0480867" lon="15.70018"><ele>218.5</ele><time>2026-04-24T09:20:34.366Z</time></trkpt><trkpt lat="38.0480917" lon="15.6999967"><ele>217.75</ele><time>2026-04-24T09:20:35.365Z</time></trkpt><trkpt lat="38.0481" lon="15.699815"><ele>217.0</ele><time>2026-04-24T09:20:36.366Z</time></trkpt><trkpt lat="38.0481067" lon="15.69964"><ele>217.0</ele><time>2026-04-24T09:20:37.365Z</time></trkpt><trkpt lat="38.048115" lon="15.6994683"><ele>217.0</ele><time>2026-04-24T09:20:38.365Z</time></trkpt><trkpt lat="38.0481217" lon="15.6993017"><ele>217.0</ele><time>2026-04-24T09:20:39.365Z</time></trkpt><trkpt lat="38.0481283" lon="15.6991417"><ele>217.0</ele><time>2026-04-24T09:20:40.365Z</time></trkpt><trkpt lat="38.048135" lon="15.6989883"><ele>216.6</ele><time>2026-04-24T09:20:41.365Z</time></trkpt><trkpt lat="38.04814" lon="15.6988433"><ele>216.2</ele><time>2026-04-24T09:20:42.366Z</time></trkpt><trkpt lat="38.0481383" lon="15.698705"><ele>215.8</ele><time>2026-04-24T09:20:43.366Z</time></trkpt><trkpt lat="38.04814" lon="15.69857"><ele>215.4</ele><time>2026-04-24T09:20:44.365Z</time></trkpt><trkpt lat="38.048145" lon="15.6984267"><ele>215.0</ele><time>2026-04-24T09:20:45.365Z</time></trkpt><trkpt lat="38.0481567" lon="15.698285"><ele>214.50000000000003</ele><time>2026-04-24T09:20:46.366Z</time></trkpt><trkpt lat="38.0481767" lon="15.6981483"><ele>214.0</ele><time>2026-04-24T09:20:47.365Z</time></trkpt><trkpt lat="38.0482033" lon="15.6980317"><ele>213.5</ele><time>2026-04-24T09:20:48.366Z</time></trkpt><trkpt lat="38.0482217" lon="15.6979317"><ele>213.0</ele><time>2026-04-24T09:20:49.366Z</time></trkpt><trkpt lat="38.0482267" lon="15.69784"><ele>212.50000000000003</ele><time>2026-04-24T09:20:50.366Z</time></trkpt><trkpt lat="38.0482083" lon="15.6977633"><ele>212.0</ele><time>2026-04-24T09:20:51.365Z</time></trkpt><trkpt lat="38.0481583" lon="15.697675"><ele>211.50000000000003</ele><time>2026-04-24T09:20:52.366Z</time></trkpt><trkpt lat="38.04811" lon="15.6975783"><ele>211.0</ele><time>2026-04-24T09:20:53.365Z</time></trkpt><trkpt lat="38.04807" lon="15.6974767"><ele>210.5</ele><time>2026-04-24T09:20:54.366Z</time></trkpt><trkpt lat="38.0480433" lon="15.6973833"><ele>210.0</ele><time>2026-04-24T09:20:55.366Z</time></trkpt><trkpt lat="38.0480283" lon="15.6972767"><ele>209.50000000000003</ele><time>2026-04-24T09:20:56.366Z</time></trkpt><trkpt lat="38.0480133" lon="15.697165"><ele>209.0</ele><time>2026-04-24T09:20:57.365Z</time></trkpt><trkpt lat="38.0479933" lon="15.6970583"><ele>209.0</ele><time>2026-04-24T09:20:58.366Z</time></trkpt><trkpt lat="38.047965" lon="15.6969483"><ele>209.0</ele><time>2026-04-24T09:20:59.366Z</time></trkpt><trkpt lat="38.0479433" lon="15.6968367"><ele>209.0</ele><time>2026-04-24T09:21:00.365Z</time></trkpt><trkpt lat="38.04792" lon="15.6967117"><ele>209.0</ele><time>2026-04-24T09:21:01.366Z</time></trkpt><trkpt lat="38.0478967" lon="15.69657"><ele>209.0</ele><time>2026-04-24T09:21:02.365Z</time></trkpt><trkpt lat="38.047865" lon="15.6964267"><ele>207.79999999999998</ele><time>2026-04-24T09:21:03.365Z</time></trkpt><trkpt lat="38.0478333" lon="15.6962767"><ele>206.6</ele><time>2026-04-24T09:21:04.366Z</time></trkpt><trkpt lat="38.047795" lon="15.69614"><ele>205.4</ele><time>2026-04-24T09:21:05.365Z</time></trkpt><trkpt lat="38.047745" lon="15.6960167"><ele>204.2</ele><time>2026-04-24T09:21:06.365Z</time></trkpt><trkpt lat="38.0476817" lon="15.6959133"><ele>203.0</ele><time>2026-04-24T09:21:07.365Z</time></trkpt><trkpt lat="38.0476017" lon="15.69583"><ele>203.0</ele><time>2026-04-24T09:21:08.365Z</time></trkpt><trkpt lat="38.0475117" lon="15.69576"><ele>203.0</ele><time>2026-04-24T09:21:09.366Z</time></trkpt><trkpt lat="38.04742" lon="15.6956983"><ele>203.0</ele><time>2026-04-24T09:21:10.365Z</time></trkpt><trkpt lat="38.0473367" lon="15.69564"><ele>203.0</ele><time>2026-04-24T09:21:11.366Z</time></trkpt><trkpt lat="38.0472667" lon="15.6955883"><ele>203.0</ele><time>2026-04-24T09:21:12.366Z</time></trkpt><trkpt lat="38.0471983" lon="15.6955383"><ele>203.00000000000003</ele><time>2026-04-24T09:21:13.366Z</time></trkpt><trkpt lat="38.0471383" lon="15.6954883"><ele>203.0</ele><time>2026-04-24T09:21:14.365Z</time></trkpt><trkpt lat="38.0470567" lon="15.6954183"><ele>203.0</ele><time>2026-04-24T09:21:16.365Z</time></trkpt><trkpt lat="38.0469967" lon="15.69538"><ele>203.0</ele><time>2026-04-24T09:21:19.366Z</time></trkpt><trkpt lat="38.0470417" lon="15.6954617"><ele>203.00000000000003</ele><time>2026-04-24T09:21:24.366Z</time></trkpt><trkpt lat="38.0471033" lon="15.69552"><ele>203.0</ele><time>2026-04-24T09:21:26.366Z</time></trkpt><trkpt lat="38.0471867" lon="15.6955867"><ele>203.00000000000003</ele><time>2026-04-24T09:21:28.365Z</time></trkpt><trkpt lat="38.0472933" lon="15.69566"><ele>203.0</ele><time>2026-04-24T09:21:30.365Z</time></trkpt><trkpt lat="38.04736" lon="15.695705"><ele>203.0</ele><time>2026-04-24T09:21:31.365Z</time></trkpt><trkpt lat="38.0474317" lon="15.6957533"><ele>203.0</ele><time>2026-04-24T09:21:32.365Z</time></trkpt><trkpt lat="38.0475017" lon="15.6958083"><ele>203.00000000000003</ele><time>2026-04-24T09:21:33.365Z</time></trkpt><trkpt lat="38.0475667" lon="15.6958567"><ele>203.0</ele><time>2026-04-24T09:21:34.366Z</time></trkpt><trkpt lat="38.047625" lon="15.6959"><ele>203.00000000000003</ele><time>2026-04-24T09:21:35.365Z</time></trkpt><trkpt lat="38.0476917" lon="15.69598"><ele>203.0</ele><time>2026-04-24T09:21:37.366Z</time></trkpt><trkpt lat="38.047675" lon="15.6960733"><ele>203.0</ele><time>2026-04-24T09:21:39.366Z</time></trkpt><trkpt lat="38.0476433" lon="15.6962083"><ele>203.0</ele><time>2026-04-24T09:21:41.366Z</time></trkpt><trkpt lat="38.047625" lon="15.6962867"><ele>203.00000000000003</ele><time>2026-04-24T09:21:42.365Z</time></trkpt><trkpt lat="38.047605" lon="15.6963683"><ele>203.0</ele><time>2026-04-24T09:21:43.366Z</time></trkpt><trkpt lat="38.0475817" lon="15.6964517"><ele>203.0</ele><time>2026-04-24T09:21:44.365Z</time></trkpt><trkpt lat="38.0475567" lon="15.6965367"><ele>203.0</ele><time>2026-04-24T09:21:45.365Z</time></trkpt><trkpt lat="38.0475333" lon="15.6966217"><ele>203.0</ele><time>2026-04-24T09:21:46.366Z</time></trkpt><trkpt lat="38.04751" lon="15.6967067"><ele>203.0</ele><time>2026-04-24T09:21:47.365Z</time></trkpt><trkpt lat="38.0474883" lon="15.6967883"><ele>203.0</ele><time>2026-04-24T09:21:48.366Z</time></trkpt><trkpt lat="38.0474667" lon="15.6968667"><ele>203.0</ele><time>2026-04-24T09:21:49.366Z</time></trkpt><trkpt lat="38.047445" lon="15.696945"><ele>203.0</ele><time>2026-04-24T09:21:50.366Z</time></trkpt><trkpt lat="38.047425" lon="15.6970217"><ele>204.75</ele><time>2026-04-24T09:21:51.366Z</time></trkpt><trkpt lat="38.0473833" lon="15.6971667"><ele>206.5</ele><time>2026-04-24T09:21:53.365Z</time></trkpt><trkpt lat="38.04734" lon="15.6973133"><ele>208.25</ele><time>2026-04-24T09:21:55.366Z</time></trkpt><trkpt lat="38.047295" lon="15.697465"><ele>210.0</ele><time>2026-04-24T09:21:57.365Z</time></trkpt><trkpt lat="38.0472533" lon="15.6976033"><ele>210.0</ele><time>2026-04-24T09:21:59.365Z</time></trkpt><trkpt lat="38.0472167" lon="15.69773"><ele>210.0</ele><time>2026-04-24T09:22:01.366Z</time></trkpt><trkpt lat="38.0471933" lon="15.6978283"><ele>210.0</ele><time>2026-04-24T09:22:03.365Z</time></trkpt><trkpt lat="38.0472433" lon="15.6976683"><ele>210.0</ele><time>2026-04-24T09:22:27.365Z</time></trkpt><trkpt lat="38.04727" lon="15.69756"><ele>210.0</ele><time>2026-04-24T09:22:28.366Z</time></trkpt><trkpt lat="38.047305" lon="15.6974333"><ele>210.0</ele><time>2026-04-24T09:22:29.365Z</time></trkpt><trkpt lat="38.0473433" lon="15.6972967"><ele>210.0</ele><time>2026-04-24T09:22:30.365Z</time></trkpt><trkpt lat="38.0473867" lon="15.697155"><ele>210.0</ele><time>2026-04-24T09:22:31.365Z</time></trkpt><trkpt lat="38.0474267" lon="15.697015"><ele>210.0</ele><time>2026-04-24T09:22:32.365Z</time></trkpt><trkpt lat="38.047465" lon="15.6968817"><ele>208.83333333333334</ele><time>2026-04-24T09:22:33.365Z</time></trkpt><trkpt lat="38.0474983" lon="15.6967617"><ele>207.66666666666669</ele><time>2026-04-24T09:22:34.366Z</time></trkpt><trkpt lat="38.04753" lon="15.69665"><ele>206.5</ele><time>2026-04-24T09:22:35.365Z</time></trkpt><trkpt lat="38.0475583" lon="15.6965433"><ele>205.33333333333334</ele><time>2026-04-24T09:22:36.365Z</time></trkpt><trkpt lat="38.047585" lon="15.696445"><ele>204.16666666666669</ele><time>2026-04-24T09:22:37.365Z</time></trkpt><trkpt lat="38.0476083" lon="15.6963533"><ele>203.0</ele><time>2026-04-24T09:22:38.365Z</time></trkpt><trkpt lat="38.04763" lon="15.696265"><ele>203.0</ele><time>2026-04-24T09:22:39.366Z</time></trkpt><trkpt lat="38.0476583" lon="15.6961167"><ele>203.0</ele><time>2026-04-24T09:22:41.366Z</time></trkpt><trkpt lat="38.0476933" lon="15.6960167"><ele>203.0</ele><time>2026-04-24T09:22:43.365Z</time></trkpt><trkpt lat="38.0477717" lon="15.6960567"><ele>203.0</ele><time>2026-04-24T09:22:46.365Z</time></trkpt><trkpt lat="38.0478233" lon="15.6962317"><ele>203.0</ele><time>2026-04-24T09:22:48.365Z</time></trkpt><trkpt lat="38.0478483" lon="15.696355"><ele>203.0</ele><time>2026-04-24T09:22:49.365Z</time></trkpt><trkpt lat="38.0478767" lon="15.6965067"><ele>203.0</ele><time>2026-04-24T09:22:50.365Z</time></trkpt><trkpt lat="38.0478983" lon="15.6966567"><ele>203.0</ele><time>2026-04-24T09:22:51.366Z</time></trkpt><trkpt lat="38.0479117" lon="15.6967933"><ele>203.0</ele><time>2026-04-24T09:22:52.366Z</time></trkpt><trkpt lat="38.0479233" lon="15.6969017"><ele>203.0</ele><time>2026-04-24T09:22:53.365Z</time></trkpt><trkpt lat="38.0479417" lon="15.6969833"><ele>203.00000000000003</ele><time>2026-04-24T09:22:54.365Z</time></trkpt><trkpt lat="38.04796" lon="15.6970617"><ele>203.0</ele><time>2026-04-24T09:22:56.365Z</time></trkpt><trkpt lat="38.0479933" lon="15.696985"><ele>203.0</ele><time>2026-04-24T09:22:59.366Z</time></trkpt><trkpt lat="38.0480083" lon="15.69685"><ele>203.0</ele><time>2026-04-24T09:23:01.365Z</time></trkpt><trkpt lat="38.0480083" lon="15.69676"><ele>203.00000000000003</ele><time>2026-04-24T09:23:02.366Z</time></trkpt><trkpt lat="38.048" lon="15.6966617"><ele>203.0</ele><time>2026-04-24T09:23:03.365Z</time></trkpt><trkpt lat="38.0479833" lon="15.69656"><ele>203.00000000000003</ele><time>2026-04-24T09:23:04.365Z</time></trkpt><trkpt lat="38.047965" lon="15.69646"><ele>203.0</ele><time>2026-04-24T09:23:05.366Z</time></trkpt><trkpt lat="38.0479467" lon="15.6963633"><ele>203.0</ele><time>2026-04-24T09:23:06.366Z</time></trkpt><trkpt lat="38.047925" lon="15.69627"><ele>203.0</ele><time>2026-04-24T09:23:07.366Z</time></trkpt><trkpt lat="38.0479067" lon="15.6961767"><ele>203.00000000000003</ele><time>2026-04-24T09:23:08.366Z</time></trkpt><trkpt lat="38.04789" lon="15.6960883"><ele>203.0</ele><time>2026-04-24T09:23:09.365Z</time></trkpt><trkpt lat="38.0478767" lon="15.6959967"><ele>202.83333333333334</ele><time>2026-04-24T09:23:10.365Z</time></trkpt><trkpt lat="38.0478617" lon="15.6959067"><ele>202.66666666666669</ele><time>2026-04-24T09:23:11.365Z</time></trkpt><trkpt lat="38.0478483" lon="15.6958167"><ele>202.5</ele><time>2026-04-24T09:23:12.366Z</time></trkpt><trkpt lat="38.04784" lon="15.695735"><ele>202.33333333333331</ele><time>2026-04-24T09:23:13.365Z</time></trkpt><trkpt lat="38.0478183" lon="15.6956033"><ele>202.16666666666666</ele><time>2026-04-24T09:23:15.366Z</time></trkpt><trkpt lat="38.0477867" lon="15.6955133"><ele>202.0</ele><time>2026-04-24T09:23:17.366Z</time></trkpt><trkpt lat="38.0477333" lon="15.6954667"><ele>201.99999999999997</ele><time>2026-04-24T09:23:20.365Z</time></trkpt><trkpt lat="38.0476583" lon="15.6955133"><ele>202.0</ele><time>2026-04-24T09:23:23.365Z</time></trkpt><trkpt lat="38.0476383" lon="15.6956017"><ele>202.0</ele><time>2026-04-24T09:23:25.365Z</time></trkpt><trkpt lat="38.04764" lon="15.6957117"><ele>202.0</ele><time>2026-04-24T09:23:27.366Z</time></trkpt><trkpt lat="38.04763" lon="15.6958217"><ele>201.99999999999997</ele><time>2026-04-24T09:23:29.365Z</time></trkpt><trkpt lat="38.0475933" lon="15.6959633"><ele>202.0</ele><time>2026-04-24T09:23:31.365Z</time></trkpt><trkpt lat="38.0475733" lon="15.69605"><ele>202.16666666666666</ele><time>2026-04-24T09:23:32.366Z</time></trkpt><trkpt lat="38.0475533" lon="15.6961483"><ele>202.33333333333331</ele><time>2026-04-24T09:23:33.366Z</time></trkpt><trkpt lat="38.0475317" lon="15.6962433"><ele>202.5</ele><time>2026-04-24T09:23:34.366Z</time></trkpt><trkpt lat="38.0475033" lon="15.6963433"><ele>202.66666666666669</ele><time>2026-04-24T09:23:35.365Z</time></trkpt><trkpt lat="38.047475" lon="15.696445"><ele>202.83333333333334</ele><time>2026-04-24T09:23:36.366Z</time></trkpt><trkpt lat="38.0474467" lon="15.696545"><ele>203.0</ele><time>2026-04-24T09:23:37.366Z</time></trkpt><trkpt lat="38.04742" lon="15.69664"><ele>203.42857142857142</ele><time>2026-04-24T09:23:38.366Z</time></trkpt><trkpt lat="38.0473967" lon="15.69673"><ele>203.85714285714286</ele><time>2026-04-24T09:23:39.365Z</time></trkpt><trkpt lat="38.0473717" lon="15.696815"><ele>204.28571428571428</ele><time>2026-04-24T09:23:40.365Z</time></trkpt><trkpt lat="38.0473433" lon="15.6968967"><ele>204.71428571428572</ele><time>2026-04-24T09:23:41.365Z</time></trkpt><trkpt lat="38.047315" lon="15.696975"><ele>205.14285714285714</ele><time>2026-04-24T09:23:42.365Z</time></trkpt><trkpt lat="38.0472883" lon="15.6970533"><ele>205.57142857142856</ele><time>2026-04-24T09:23:43.366Z</time></trkpt><trkpt lat="38.04726" lon="15.6971333"><ele>206.0</ele><time>2026-04-24T09:23:44.365Z</time></trkpt><trkpt lat="38.047235" lon="15.697215"><ele>206.66666666666669</ele><time>2026-04-24T09:23:45.366Z</time></trkpt><trkpt lat="38.0472117" lon="15.6972933"><ele>207.33333333333334</ele><time>2026-04-24T09:23:46.365Z</time></trkpt><trkpt lat="38.0471867" lon="15.6973717"><ele>208.0</ele><time>2026-04-24T09:23:47.366Z</time></trkpt><trkpt lat="38.047165" lon="15.69745"><ele>208.66666666666669</ele><time>2026-04-24T09:23:48.366Z</time></trkpt><trkpt lat="38.0471333" lon="15.697595"><ele>209.33333333333334</ele><time>2026-04-24T09:23:50.366Z</time></trkpt><trkpt lat="38.047125" lon="15.6976867"><ele>210.0</ele><time>2026-04-24T09:23:52.365Z</time></trkpt><trkpt lat="38.047095" lon="15.697765"><ele>210.66666666666666</ele><time>2026-04-24T09:24:06.365Z</time></trkpt><trkpt lat="38.04707" lon="15.6979"><ele>211.33333333333331</ele><time>2026-04-24T09:24:08.365Z</time></trkpt><trkpt lat="38.0470583" lon="15.6979867"><ele>212.0</ele><time>2026-04-24T09:24:09.366Z</time></trkpt><trkpt lat="38.04704" lon="15.69808"><ele>212.66666666666666</ele><time>2026-04-24T09:24:10.366Z</time></trkpt><trkpt lat="38.047015" lon="15.6981717"><ele>213.33333333333331</ele><time>2026-04-24T09:24:11.365Z</time></trkpt><trkpt lat="38.0469817" lon="15.6982733"><ele>214.0</ele><time>2026-04-24T09:24:12.365Z</time></trkpt><trkpt lat="38.046955" lon="15.6983717"><ele>213.99999999999997</ele><time>2026-04-24T09:24:13.365Z</time></trkpt><trkpt lat="38.0469183" lon="15.6984733"><ele>214.0</ele><time>2026-04-24T09:24:14.365Z</time></trkpt><trkpt lat="38.0468783" lon="15.69856"><ele>214.0</ele><time>2026-04-24T09:24:15.366Z</time></trkpt><trkpt lat="38.0468433" lon="15.6986517"><ele>214.0</ele><time>2026-04-24T09:24:16.365Z</time></trkpt><trkpt lat="38.04681" lon="15.6987617"><ele>213.99999999999997</ele><time>2026-04-24T09:24:17.366Z</time></trkpt><trkpt lat="38.0467967" lon="15.6988583"><ele>214.0</ele><time>2026-04-24T09:24:18.366Z</time></trkpt><trkpt lat="38.0467817" lon="15.698965"><ele>214.39999999999998</ele><time>2026-04-24T09:24:19.366Z</time></trkpt><trkpt lat="38.0467667" lon="15.6990767"><ele>214.79999999999998</ele><time>2026-04-24T09:24:20.366Z</time></trkpt><trkpt lat="38.04674" lon="15.6991967"><ele>215.20000000000002</ele><time>2026-04-24T09:24:21.365Z</time></trkpt><trkpt lat="38.0467183" lon="15.699305"><ele>215.60000000000002</ele><time>2026-04-24T09:24:22.366Z</time></trkpt><trkpt lat="38.0466917" lon="15.6994117"><ele>216.0</ele><time>2026-04-24T09:24:23.366Z</time></trkpt><trkpt lat="38.0466583" lon="15.6995183"><ele>217.0</ele><time>2026-04-24T09:24:24.365Z</time></trkpt><trkpt lat="38.0466233" lon="15.6996133"><ele>218.0</ele><time>2026-04-24T09:24:25.365Z</time></trkpt><trkpt lat="38.0465917" lon="15.69971"><ele>219.0</ele><time>2026-04-24T09:24:26.366Z</time></trkpt><trkpt lat="38.04656" lon="15.6997883"><ele>220.0</ele><time>2026-04-24T09:24:27.366Z</time></trkpt><trkpt lat="38.0465117" lon="15.6999067"><ele>221.0</ele><time>2026-04-24T09:24:29.366Z</time></trkpt><trkpt lat="38.0464917" lon="15.7000067"><ele>222.0</ele><time>2026-04-24T09:24:31.366Z</time></trkpt><trkpt lat="38.0464717" lon="15.70013"><ele>222.33333333333334</ele><time>2026-04-24T09:24:33.366Z</time></trkpt><trkpt lat="38.046445" lon="15.7002833"><ele>222.66666666666669</ele><time>2026-04-24T09:24:35.366Z</time></trkpt><trkpt lat="38.046425" lon="15.7003633"><ele>223.0</ele><time>2026-04-24T09:24:36.366Z</time></trkpt><trkpt lat="38.0464" lon="15.7004433"><ele>223.33333333333334</ele><time>2026-04-24T09:24:37.366Z</time></trkpt><trkpt lat="38.0463683" lon="15.70053"><ele>223.66666666666669</ele><time>2026-04-24T09:24:38.365Z</time></trkpt><trkpt lat="38.0463483" lon="15.7006133"><ele>224.0</ele><time>2026-04-24T09:24:39.366Z</time></trkpt><trkpt lat="38.0463317" lon="15.700705"><ele>224.00000000000003</ele><time>2026-04-24T09:24:40.366Z</time></trkpt><trkpt lat="38.0463167" lon="15.7008017"><ele>224.0</ele><time>2026-04-24T09:24:41.365Z</time></trkpt><trkpt lat="38.0463" lon="15.700905"><ele>224.0</ele><time>2026-04-24T09:24:42.366Z</time></trkpt><trkpt lat="38.0462883" lon="15.7010083"><ele>224.0</ele><time>2026-04-24T09:24:43.366Z</time></trkpt><trkpt lat="38.0462667" lon="15.7011117"><ele>224.00000000000003</ele><time>2026-04-24T09:24:44.365Z</time></trkpt><trkpt lat="38.0462417" lon="15.701205"><ele>224.0</ele><time>2026-04-24T09:24:45.366Z</time></trkpt><trkpt lat="38.0462167" lon="15.701295"><ele>225.00000000000003</ele><time>2026-04-24T09:24:46.365Z</time></trkpt><trkpt lat="38.04619" lon="15.7013917"><ele>226.0</ele><time>2026-04-24T09:24:47.365Z</time></trkpt><trkpt lat="38.0461633" lon="15.70149"><ele>227.0</ele><time>2026-04-24T09:24:48.365Z</time></trkpt><trkpt lat="38.04614" lon="15.7015933"><ele>228.0</ele><time>2026-04-24T09:24:49.365Z</time></trkpt><trkpt lat="38.0461183" lon="15.70169"><ele>229.00000000000003</ele><time>2026-04-24T09:24:50.365Z</time></trkpt><trkpt lat="38.0460933" lon="15.701795"><ele>230.0</ele><time>2026-04-24T09:24:51.366Z</time></trkpt><trkpt lat="38.0460667" lon="15.7018983"><ele>230.8</ele><time>2026-04-24T09:24:52.366Z</time></trkpt><trkpt lat="38.046045" lon="15.702"><ele>231.6</ele><time>2026-04-24T09:24:53.365Z</time></trkpt><trkpt lat="38.0460167" lon="15.7021117"><ele>232.39999999999998</ele><time>2026-04-24T09:24:54.366Z</time></trkpt><trkpt lat="38.0459867" lon="15.70222"><ele>233.2</ele><time>2026-04-24T09:24:55.365Z</time></trkpt><trkpt lat="38.0459617" lon="15.70234"><ele>234.0</ele><time>2026-04-24T09:24:56.366Z</time></trkpt><trkpt lat="38.045935" lon="15.702445"><ele>234.0</ele><time>2026-04-24T09:24:57.366Z</time></trkpt><trkpt lat="38.0459117" lon="15.7025583"><ele>233.99999999999997</ele><time>2026-04-24T09:24:58.366Z</time></trkpt><trkpt lat="38.0458933" lon="15.7026733"><ele>233.99999999999997</ele><time>2026-04-24T09:24:59.365Z</time></trkpt><trkpt lat="38.0458733" lon="15.7027867"><ele>234.0</ele><time>2026-04-24T09:25:00.365Z</time></trkpt><trkpt lat="38.04585" lon="15.7029017"><ele>234.0</ele><time>2026-04-24T09:25:01.365Z</time></trkpt><trkpt lat="38.0458233" lon="15.7030133"><ele>235.0</ele><time>2026-04-24T09:25:02.365Z</time></trkpt><trkpt lat="38.0457983" lon="15.703115"><ele>236.0</ele><time>2026-04-24T09:25:03.366Z</time></trkpt><trkpt lat="38.0457767" lon="15.7032083"><ele>237.0</ele><time>2026-04-24T09:25:04.366Z</time></trkpt><trkpt lat="38.0457583" lon="15.7032867"><ele>238.0</ele><time>2026-04-24T09:25:05.365Z</time></trkpt><trkpt lat="38.045725" lon="15.7033917"><ele>239.0</ele><time>2026-04-24T09:25:07.365Z</time></trkpt><trkpt lat="38.04566" lon="15.7034183"><ele>240.0</ele><time>2026-04-24T09:25:10.366Z</time></trkpt><trkpt lat="38.0455617" lon="15.7034117"><ele>240.33333333333334</ele><time>2026-04-24T09:25:12.365Z</time></trkpt><trkpt lat="38.0454917" lon="15.7034017"><ele>240.66666666666669</ele><time>2026-04-24T09:25:13.365Z</time></trkpt><trkpt lat="38.0454167" lon="15.7033917"><ele>241.0</ele><time>2026-04-24T09:25:14.365Z</time></trkpt><trkpt lat="38.0453433" lon="15.703375"><ele>241.33333333333334</ele><time>2026-04-24T09:25:15.366Z</time></trkpt><trkpt lat="38.0452383" lon="15.703345"><ele>241.66666666666669</ele><time>2026-04-24T09:25:17.365Z</time></trkpt><trkpt lat="38.0451683" lon="15.7033183"><ele>242.0</ele><time>2026-04-24T09:25:20.365Z</time></trkpt><trkpt lat="38.0450933" lon="15.703325"><ele>242.00000000000003</ele><time>2026-04-24T09:25:24.365Z</time></trkpt><trkpt lat="38.0450217" lon="15.70337"><ele>242.0</ele><time>2026-04-24T09:25:26.366Z</time></trkpt><trkpt lat="38.044945" lon="15.703455"><ele>242.0</ele><time>2026-04-24T09:25:28.366Z</time></trkpt><trkpt lat="38.044885" lon="15.7034883"><ele>242.0</ele><time>2026-04-24T09:25:29.365Z</time></trkpt><trkpt lat="38.044825" lon="15.703515"><ele>242.00000000000003</ele><time>2026-04-24T09:25:30.365Z</time></trkpt><trkpt lat="38.0447583" lon="15.7035317"><ele>242.0</ele><time>2026-04-24T09:25:31.366Z</time></trkpt><trkpt lat="38.0446467" lon="15.7035317"><ele>243.33333333333334</ele><time>2026-04-24T09:25:33.365Z</time></trkpt><trkpt lat="38.04453" lon="15.7035333"><ele>244.66666666666669</ele><time>2026-04-24T09:25:35.365Z</time></trkpt><trkpt lat="38.044465" lon="15.7035433"><ele>246.0</ele><time>2026-04-24T09:25:36.366Z</time></trkpt><trkpt lat="38.0443967" lon="15.703555"><ele>247.33333333333331</ele><time>2026-04-24T09:25:37.365Z</time></trkpt><trkpt lat="38.044325" lon="15.7035733"><ele>248.66666666666666</ele><time>2026-04-24T09:25:38.366Z</time></trkpt><trkpt lat="38.0442517" lon="15.7035883"><ele>250.0</ele><time>2026-04-24T09:25:39.365Z</time></trkpt><trkpt lat="38.0441817" lon="15.703605"><ele>252.85714285714283</ele><time>2026-04-24T09:25:40.366Z</time></trkpt><trkpt lat="38.0441083" lon="15.7036267"><ele>255.71428571428572</ele><time>2026-04-24T09:25:41.366Z</time></trkpt><trkpt lat="38.0440367" lon="15.7036467"><ele>258.57142857142856</ele><time>2026-04-24T09:25:42.365Z</time></trkpt><trkpt lat="38.043965" lon="15.70366"><ele>261.42857142857144</ele><time>2026-04-24T09:25:43.365Z</time></trkpt><trkpt lat="38.043895" lon="15.7036717"><ele>264.2857142857143</ele><time>2026-04-24T09:25:44.365Z</time></trkpt><trkpt lat="38.0438267" lon="15.7036767"><ele>267.1428571428571</ele><time>2026-04-24T09:25:45.365Z</time></trkpt><trkpt lat="38.0437617" lon="15.7036767"><ele>270.0</ele><time>2026-04-24T09:25:46.366Z</time></trkpt><trkpt lat="38.0436967" lon="15.7036833"><ele>270.0</ele><time>2026-04-24T09:25:47.365Z</time></trkpt><trkpt lat="38.04363" lon="15.7036867"><ele>270.0</ele><time>2026-04-24T09:25:48.365Z</time></trkpt><trkpt lat="38.04356" lon="15.7036867"><ele>270.0</ele><time>2026-04-24T09:25:49.365Z</time></trkpt><trkpt lat="38.04349" lon="15.703685"><ele>270.0</ele><time>2026-04-24T09:25:50.366Z</time></trkpt><trkpt lat="38.043425" lon="15.7036883"><ele>270.0</ele><time>2026-04-24T09:25:51.365Z</time></trkpt><trkpt lat="38.0433083" lon="15.7036883"><ele>270.0</ele><time>2026-04-24T09:25:53.366Z</time></trkpt><trkpt lat="38.0431833" lon="15.703685"><ele>272.2857142857143</ele><time>2026-04-24T09:25:55.366Z</time></trkpt><trkpt lat="38.0431167" lon="15.7036817"><ele>274.57142857142856</ele><time>2026-04-24T09:25:56.366Z</time></trkpt><trkpt lat="38.0430483" lon="15.7036833"><ele>276.85714285714283</ele><time>2026-04-24T09:25:57.365Z</time></trkpt><trkpt lat="38.0429767" lon="15.70369"><ele>279.1428571428571</ele><time>2026-04-24T09:25:58.365Z</time></trkpt><trkpt lat="38.0429033" lon="15.7036983"><ele>281.42857142857144</ele><time>2026-04-24T09:25:59.365Z</time></trkpt><trkpt lat="38.04283" lon="15.7036917"><ele>283.71428571428567</ele><time>2026-04-24T09:26:00.365Z</time></trkpt><trkpt lat="38.042765" lon="15.7036833"><ele>286.0</ele><time>2026-04-24T09:26:01.366Z</time></trkpt><trkpt lat="38.042655" lon="15.7036633"><ele>286.0</ele><time>2026-04-24T09:26:03.366Z</time></trkpt><trkpt lat="38.042575" lon="15.7037083"><ele>286.0</ele><time>2026-04-24T09:26:05.365Z</time></trkpt><trkpt lat="38.04252" lon="15.7038017"><ele>286.0</ele><time>2026-04-24T09:26:07.366Z</time></trkpt><trkpt lat="38.0424483" lon="15.70385"><ele>286.0</ele><time>2026-04-24T09:26:09.365Z</time></trkpt><trkpt lat="38.0423483" lon="15.7038317"><ele>286.0</ele><time>2026-04-24T09:26:11.365Z</time></trkpt><trkpt lat="38.0422317" lon="15.7038217"><ele>288.8333333333333</ele><time>2026-04-24T09:26:13.366Z</time></trkpt><trkpt lat="38.0421633" lon="15.70383"><ele>291.66666666666663</ele><time>2026-04-24T09:26:14.366Z</time></trkpt><trkpt lat="38.0420517" lon="15.7038517"><ele>294.5</ele><time>2026-04-24T09:26:16.365Z</time></trkpt><trkpt lat="38.0419833" lon="15.7039"><ele>297.3333333333333</ele><time>2026-04-24T09:26:18.365Z</time></trkpt><trkpt lat="38.041995" lon="15.70399"><ele>300.1666666666667</ele><time>2026-04-24T09:26:22.365Z</time></trkpt><trkpt lat="38.042045" lon="15.7040667"><ele>303.0</ele><time>2026-04-24T09:26:24.365Z</time></trkpt><trkpt lat="38.0421117" lon="15.7041983"><ele>303.0</ele><time>2026-04-24T09:26:26.365Z</time></trkpt><trkpt lat="38.042135" lon="15.704275"><ele>303.0</ele><time>2026-04-24T09:26:27.366Z</time></trkpt><trkpt lat="38.0421967" lon="15.7044033"><ele>303.0</ele><time>2026-04-24T09:26:29.366Z</time></trkpt><trkpt lat="38.0422967" lon="15.704465"><ele>303.0</ele><time>2026-04-24T09:26:31.366Z</time></trkpt><trkpt lat="38.04239" lon="15.7044867"><ele>303.0</ele><time>2026-04-24T09:26:33.365Z</time></trkpt><trkpt lat="38.0424933" lon="15.70448"><ele>303.4</ele><time>2026-04-24T09:26:35.365Z</time></trkpt><trkpt lat="38.042595" lon="15.704435"><ele>303.8</ele><time>2026-04-24T09:26:37.366Z</time></trkpt><trkpt lat="38.0426917" lon="15.704415"><ele>304.2</ele><time>2026-04-24T09:26:39.365Z</time></trkpt><trkpt lat="38.0427967" lon="15.7044467"><ele>304.6</ele><time>2026-04-24T09:26:41.365Z</time></trkpt><trkpt lat="38.0428967" lon="15.7045283"><ele>305.0</ele><time>2026-04-24T09:26:43.365Z</time></trkpt><trkpt lat="38.042985" lon="15.7046067"><ele>305.0</ele><time>2026-04-24T09:26:45.365Z</time></trkpt><trkpt lat="38.0430383" lon="15.704725"><ele>305.0</ele><time>2026-04-24T09:26:47.365Z</time></trkpt><trkpt lat="38.043045" lon="15.70484"><ele>305.0</ele><time>2026-04-24T09:26:49.365Z</time></trkpt><trkpt lat="38.0429983" lon="15.704895"><ele>305.0</ele><time>2026-04-24T09:26:51.365Z</time></trkpt><trkpt lat="38.0429433" lon="15.7048233"><ele>305.0</ele><time>2026-04-24T09:27:01.365Z</time></trkpt><trkpt lat="38.0428717" lon="15.7047383"><ele>305.0</ele><time>2026-04-24T09:27:03.365Z</time></trkpt><trkpt lat="38.0427883" lon="15.7046767"><ele>305.0</ele><time>2026-04-24T09:27:05.366Z</time></trkpt><trkpt lat="38.042695" lon="15.704695"><ele>305.0</ele><time>2026-04-24T09:27:07.365Z</time></trkpt><trkpt lat="38.0425867" lon="15.704755"><ele>305.0</ele><time>2026-04-24T09:27:09.365Z</time></trkpt><trkpt lat="38.0424917" lon="15.7048433"><ele>305.0</ele><time>2026-04-24T09:27:11.366Z</time></trkpt><trkpt lat="38.042455" lon="15.7049567"><ele>305.0</ele><time>2026-04-24T09:27:13.366Z</time></trkpt><trkpt lat="38.0424533" lon="15.7050633"><ele>310.0</ele><time>2026-04-24T09:27:15.365Z</time></trkpt><trkpt lat="38.0424183" lon="15.7051583"><ele>315.0</ele><time>2026-04-24T09:27:17.366Z</time></trkpt><trkpt lat="38.0423667" lon="15.7052683"><ele>320.0</ele><time>2026-04-24T09:27:19.365Z</time></trkpt><trkpt lat="38.0423117" lon="15.705395"><ele>325.0</ele><time>2026-04-24T09:27:21.365Z</time></trkpt><trkpt lat="38.0422517" lon="15.7055233"><ele>330.0</ele><time>2026-04-24T09:27:23.366Z</time></trkpt><trkpt lat="38.0421933" lon="15.7056367"><ele>334.8</ele><time>2026-04-24T09:27:25.366Z</time></trkpt><trkpt lat="38.04212" lon="15.70575"><ele>339.6</ele><time>2026-04-24T09:27:27.366Z</time></trkpt><trkpt lat="38.04206" lon="15.705855"><ele>344.4</ele><time>2026-04-24T09:27:29.365Z</time></trkpt><trkpt lat="38.0420333" lon="15.7059583"><ele>349.2</ele><time>2026-04-24T09:27:31.365Z</time></trkpt><trkpt lat="38.0420333" lon="15.706095"><ele>354.0</ele><time>2026-04-24T09:27:33.365Z</time></trkpt><trkpt lat="38.04204" lon="15.7062433"><ele>355.2</ele><time>2026-04-24T09:27:35.365Z</time></trkpt><trkpt lat="38.0420883" lon="15.706335"><ele>356.4</ele><time>2026-04-24T09:27:37.365Z</time></trkpt><trkpt lat="38.0421833" lon="15.7063983"><ele>357.6</ele><time>2026-04-24T09:27:39.365Z</time></trkpt><trkpt lat="38.0422317" lon="15.7065"><ele>358.8</ele><time>2026-04-24T09:27:41.365Z</time></trkpt><trkpt lat="38.0422517" lon="15.706615"><ele>360.0</ele><time>2026-04-24T09:27:43.366Z</time></trkpt><trkpt lat="38.042225" lon="15.70674"><ele>360.0</ele><time>2026-04-24T09:27:45.365Z</time></trkpt><trkpt lat="38.04218" lon="15.7068833"><ele>360.0</ele><time>2026-04-24T09:27:47.366Z</time></trkpt><trkpt lat="38.0421517" lon="15.7069583"><ele>360.0</ele><time>2026-04-24T09:27:48.365Z</time></trkpt><trkpt lat="38.04212" lon="15.7070383"><ele>360.0</ele><time>2026-04-24T09:27:49.365Z</time></trkpt><trkpt lat="38.0420867" lon="15.7071117"><ele>360.0</ele><time>2026-04-24T09:27:50.366Z</time></trkpt><trkpt lat="38.04206" lon="15.7072283"><ele>360.0</ele><time>2026-04-24T09:27:52.365Z</time></trkpt><trkpt lat="38.04213" lon="15.7072917"><ele>362.0</ele><time>2026-04-24T09:27:54.365Z</time></trkpt><trkpt lat="38.042255" lon="15.7073017"><ele>364.0</ele><time>2026-04-24T09:27:56.366Z</time></trkpt><trkpt lat="38.0423333" lon="15.7072983"><ele>366.0</ele><time>2026-04-24T09:27:57.365Z</time></trkpt><trkpt lat="38.0423983" lon="15.7073083"><ele>368.0</ele><time>2026-04-24T09:27:58.365Z</time></trkpt><trkpt lat="38.0425217" lon="15.7073433"><ele>370.0</ele><time>2026-04-24T09:28:00.365Z</time></trkpt><trkpt lat="38.0426133" lon="15.7074033"><ele>368.16666666666663</ele><time>2026-04-24T09:28:02.366Z</time></trkpt><trkpt lat="38.0426633" lon="15.7075217"><ele>366.3333333333333</ele><time>2026-04-24T09:28:04.366Z</time></trkpt><trkpt lat="38.0426483" lon="15.7076617"><ele>364.5</ele><time>2026-04-24T09:28:06.365Z</time></trkpt><trkpt lat="38.0426167" lon="15.7077317"><ele>362.6666666666667</ele><time>2026-04-24T09:28:07.365Z</time></trkpt><trkpt lat="38.042585" lon="15.7078083"><ele>360.83333333333337</ele><time>2026-04-24T09:28:08.366Z</time></trkpt><trkpt lat="38.04256" lon="15.7078917"><ele>359.0</ele><time>2026-04-24T09:28:09.365Z</time></trkpt><trkpt lat="38.0424733" lon="15.7079983"><ele>361.2</ele><time>2026-04-24T09:28:11.366Z</time></trkpt><trkpt lat="38.042405" lon="15.70799"><ele>363.4</ele><time>2026-04-24T09:28:13.365Z</time></trkpt><trkpt lat="38.042395" lon="15.7078583"><ele>365.6</ele><time>2026-04-24T09:28:15.366Z</time></trkpt><trkpt lat="38.0423617" lon="15.7077283"><ele>367.8</ele><time>2026-04-24T09:28:17.365Z</time></trkpt><trkpt lat="38.0422767" lon="15.7076533"><ele>370.0</ele><time>2026-04-24T09:28:19.365Z</time></trkpt><trkpt lat="38.04221" lon="15.7076717"><ele>372.66666666666663</ele><time>2026-04-24T09:28:21.366Z</time></trkpt><trkpt lat="38.0422183" lon="15.7077767"><ele>375.3333333333333</ele><time>2026-04-24T09:31:06.366Z</time></trkpt><trkpt lat="38.042245" lon="15.7078983"><ele>378.0</ele><time>2026-04-24T09:31:09.365Z</time></trkpt><trkpt lat="38.042255" lon="15.708035"><ele>380.66666666666663</ele><time>2026-04-24T09:31:11.366Z</time></trkpt><trkpt lat="38.0422467" lon="15.708115"><ele>383.3333333333333</ele><time>2026-04-24T09:31:12.366Z</time></trkpt><trkpt lat="38.0422333" lon="15.7081967"><ele>386.0</ele><time>2026-04-24T09:31:13.366Z</time></trkpt><trkpt lat="38.0421767" lon="15.708305"><ele>385.99999999999994</ele><time>2026-04-24T09:31:15.365Z</time></trkpt><trkpt lat="38.0420917" lon="15.7083717"><ele>386.0</ele><time>2026-04-24T09:31:17.365Z</time></trkpt><trkpt lat="38.042025" lon="15.7083833"><ele>386.0</ele><time>2026-04-24T09:31:19.365Z</time></trkpt><trkpt lat="38.041985" lon="15.7082817"><ele>386.0</ele><time>2026-04-24T09:31:22.366Z</time></trkpt><trkpt lat="38.041995" lon="15.7081767"><ele>385.99999999999994</ele><time>2026-04-24T09:31:24.366Z</time></trkpt><trkpt lat="38.0419883" lon="15.7080667"><ele>386.0</ele><time>2026-04-24T09:31:26.366Z</time></trkpt><trkpt lat="38.0419133" lon="15.7079867"><ele>385.99999999999994</ele><time>2026-04-24T09:31:28.365Z</time></trkpt><trkpt lat="38.0418" lon="15.7079283"><ele>386.0</ele><time>2026-04-24T09:31:30.366Z</time></trkpt><trkpt lat="38.0417383" lon="15.7078833"><ele>386.0</ele><time>2026-04-24T09:31:31.365Z</time></trkpt><trkpt lat="38.0416683" lon="15.7078267"><ele>386.0</ele><time>2026-04-24T09:31:32.365Z</time></trkpt><trkpt lat="38.0415967" lon="15.7077617"><ele>385.99999999999994</ele><time>2026-04-24T09:31:33.366Z</time></trkpt><trkpt lat="38.0415317" lon="15.7076967"><ele>386.0</ele><time>2026-04-24T09:31:34.365Z</time></trkpt><trkpt lat="38.0414783" lon="15.70762"><ele>393.20000000000005</ele><time>2026-04-24T09:31:35.365Z</time></trkpt><trkpt lat="38.0414283" lon="15.7075433"><ele>400.40000000000003</ele><time>2026-04-24T09:31:36.365Z</time></trkpt><trkpt lat="38.0414017" lon="15.7074567"><ele>407.6</ele><time>2026-04-24T09:31:37.365Z</time></trkpt><trkpt lat="38.0413867" lon="15.7073667"><ele>414.8</ele><time>2026-04-24T09:31:38.365Z</time></trkpt><trkpt lat="38.0413683" lon="15.7072133"><ele>422.0</ele><time>2026-04-24T09:31:40.366Z</time></trkpt><trkpt lat="38.04133" lon="15.70708"><ele>421.99999999999994</ele><time>2026-04-24T09:31:42.365Z</time></trkpt><trkpt lat="38.0412767" lon="15.7069367"><ele>422.0</ele><time>2026-04-24T09:31:44.365Z</time></trkpt><trkpt lat="38.0412383" lon="15.7068533"><ele>422.0</ele><time>2026-04-24T09:31:45.365Z</time></trkpt><trkpt lat="38.0411933" lon="15.7067733"><ele>422.0</ele><time>2026-04-24T09:31:46.366Z</time></trkpt><trkpt lat="38.04117" lon="15.70669"><ele>421.99999999999994</ele><time>2026-04-24T09:31:47.366Z</time></trkpt><trkpt lat="38.0411567" lon="15.7066083"><ele>422.0</ele><time>2026-04-24T09:31:48.365Z</time></trkpt><trkpt lat="38.04111" lon="15.7064833"><ele>424.20000000000005</ele><time>2026-04-24T09:31:50.366Z</time></trkpt><trkpt lat="38.0410267" lon="15.706385"><ele>426.4</ele><time>2026-04-24T09:31:52.365Z</time></trkpt><trkpt lat="38.0409283" lon="15.7062867"><ele>428.59999999999997</ele><time>2026-04-24T09:31:54.366Z</time></trkpt><trkpt lat="38.0408717" lon="15.7062383"><ele>430.79999999999995</ele><time>2026-04-24T09:31:55.366Z</time></trkpt><trkpt lat="38.0407983" lon="15.7062583"><ele>433.0</ele><time>2026-04-24T09:31:58.365Z</time></trkpt><trkpt lat="38.0408067" lon="15.7063783"><ele>431.1666666666667</ele><time>2026-04-24T09:32:00.365Z</time></trkpt><trkpt lat="38.040835" lon="15.70645"><ele>429.33333333333337</ele><time>2026-04-24T09:32:01.366Z</time></trkpt><trkpt lat="38.0408717" lon="15.70652"><ele>427.5</ele><time>2026-04-24T09:32:02.366Z</time></trkpt><trkpt lat="38.0409333" lon="15.7066617"><ele>425.66666666666663</ele><time>2026-04-24T09:32:04.366Z</time></trkpt><trkpt lat="38.0409517" lon="15.7067483"><ele>423.8333333333333</ele><time>2026-04-24T09:32:05.365Z</time></trkpt><trkpt lat="38.040955" lon="15.7068883"><ele>422.0</ele><time>2026-04-24T09:32:07.366Z</time></trkpt><trkpt lat="38.0409583" lon="15.7069967"><ele>422.0</ele><time>2026-04-24T09:32:09.366Z</time></trkpt><trkpt lat="38.04099" lon="15.7071083"><ele>422.0</ele><time>2026-04-24T09:32:11.366Z</time></trkpt><trkpt lat="38.040995" lon="15.7072383"><ele>422.0</ele><time>2026-04-24T09:32:13.365Z</time></trkpt><trkpt lat="38.0409833" lon="15.7073533"><ele>422.0</ele><time>2026-04-24T09:32:15.366Z</time></trkpt><trkpt lat="38.0409367" lon="15.7074733"><ele>422.0</ele><time>2026-04-24T09:32:17.366Z</time></trkpt><trkpt lat="38.0409183" lon="15.70763"><ele>424.6</ele><time>2026-04-24T09:32:19.366Z</time></trkpt><trkpt lat="38.04092" lon="15.707775"><ele>427.20000000000005</ele><time>2026-04-24T09:32:21.365Z</time></trkpt><trkpt lat="38.0409633" lon="15.7079167"><ele>429.8</ele><time>2026-04-24T09:32:23.366Z</time></trkpt><trkpt lat="38.0409967" lon="15.708005"><ele>432.4</ele><time>2026-04-24T09:32:24.366Z</time></trkpt><trkpt lat="38.0410283" lon="15.708095"><ele>435.0</ele><time>2026-04-24T09:32:25.366Z</time></trkpt><trkpt lat="38.0410567" lon="15.708185"><ele>435.0</ele><time>2026-04-24T09:32:26.366Z</time></trkpt><trkpt lat="38.0410583" lon="15.7083333"><ele>435.0</ele><time>2026-04-24T09:32:28.366Z</time></trkpt><trkpt lat="38.0410483" lon="15.7084583"><ele>435.0</ele><time>2026-04-24T09:32:30.366Z</time></trkpt><trkpt lat="38.0410217" lon="15.7085867"><ele>435.0</ele><time>2026-04-24T09:32:32.366Z</time></trkpt><trkpt lat="38.04095" lon="15.7085967"><ele>435.0</ele><time>2026-04-24T09:32:35.366Z</time></trkpt><trkpt lat="38.0409633" lon="15.708455"><ele>435.0</ele><time>2026-04-24T09:32:38.366Z</time></trkpt><trkpt lat="38.040975" lon="15.70836"><ele>435.0</ele><time>2026-04-24T09:32:39.365Z</time></trkpt><trkpt lat="38.0409583" lon="15.7082617"><ele>435.0</ele><time>2026-04-24T09:32:40.365Z</time></trkpt><trkpt lat="38.0409233" lon="15.7081733"><ele>435.0</ele><time>2026-04-24T09:32:41.365Z</time></trkpt><trkpt lat="38.04089" lon="15.70808"><ele>435.0</ele><time>2026-04-24T09:32:42.365Z</time></trkpt><trkpt lat="38.04085" lon="15.7079967"><ele>435.0</ele><time>2026-04-24T09:32:43.365Z</time></trkpt><trkpt lat="38.0408117" lon="15.7079083"><ele>440.1666666666667</ele><time>2026-04-24T09:32:44.366Z</time></trkpt><trkpt lat="38.040775" lon="15.70783"><ele>445.33333333333337</ele><time>2026-04-24T09:32:45.365Z</time></trkpt><trkpt lat="38.04074" lon="15.70776"><ele>450.5</ele><time>2026-04-24T09:32:46.366Z</time></trkpt><trkpt lat="38.0406967" lon="15.7076117"><ele>455.6666666666667</ele><time>2026-04-24T09:32:48.365Z</time></trkpt><trkpt lat="38.04068" lon="15.7075333"><ele>460.83333333333337</ele><time>2026-04-24T09:32:49.365Z</time></trkpt><trkpt lat="38.0406633" lon="15.707455"><ele>466.0</ele><time>2026-04-24T09:32:50.365Z</time></trkpt><trkpt lat="38.0406283" lon="15.7073867"><ele>466.00000000000006</ele><time>2026-04-24T09:32:51.366Z</time></trkpt><trkpt lat="38.04059" lon="15.7073067"><ele>466.0</ele><time>2026-04-24T09:32:52.366Z</time></trkpt><trkpt lat="38.0405383" lon="15.7072283"><ele>466.0</ele><time>2026-04-24T09:32:53.365Z</time></trkpt><trkpt lat="38.0404883" lon="15.707155"><ele>466.0</ele><time>2026-04-24T09:32:54.366Z</time></trkpt><trkpt lat="38.04044" lon="15.7070883"><ele>466.00000000000006</ele><time>2026-04-24T09:32:55.365Z</time></trkpt><trkpt lat="38.04039" lon="15.7070117"><ele>466.0</ele><time>2026-04-24T09:32:56.366Z</time></trkpt><trkpt lat="38.0403417" lon="15.7069383"><ele>466.00000000000006</ele><time>2026-04-24T09:32:57.366Z</time></trkpt><trkpt lat="38.04029" lon="15.7068733"><ele>466.0</ele><time>2026-04-24T09:32:58.366Z</time></trkpt><trkpt lat="38.040235" lon="15.7068183"><ele>466.0</ele><time>2026-04-24T09:32:59.365Z</time></trkpt><trkpt lat="38.0401467" lon="15.70674"><ele>466.0</ele><time>2026-04-24T09:33:01.365Z</time></trkpt><trkpt lat="38.0400783" lon="15.7067367"><ele>466.00000000000006</ele><time>2026-04-24T09:33:03.366Z</time></trkpt><trkpt lat="38.04009" lon="15.7068367"><ele>466.0</ele><time>2026-04-24T09:33:06.366Z</time></trkpt><trkpt lat="38.0401217" lon="15.7069317"><ele>466.00000000000006</ele><time>2026-04-24T09:33:08.365Z</time></trkpt><trkpt lat="38.0401367" lon="15.707025"><ele>466.0</ele><time>2026-04-24T09:33:10.365Z</time></trkpt><trkpt lat="38.04016" lon="15.707105"><ele>466.0</ele><time>2026-04-24T09:33:12.365Z</time></trkpt><trkpt lat="38.0402" lon="15.7072133"><ele>466.0</ele><time>2026-04-24T09:33:14.365Z</time></trkpt><trkpt lat="38.0402483" lon="15.7073183"><ele>466.00000000000006</ele><time>2026-04-24T09:33:16.366Z</time></trkpt><trkpt lat="38.040295" lon="15.707405"><ele>466.0</ele><time>2026-04-24T09:33:18.365Z</time></trkpt><trkpt lat="38.0403383" lon="15.7075017"><ele>466.0</ele><time>2026-04-24T09:33:20.365Z</time></trkpt><trkpt lat="38.040375" lon="15.707625"><ele>466.0</ele><time>2026-04-24T09:33:22.365Z</time></trkpt><trkpt lat="38.0403983" lon="15.7077617"><ele>466.0</ele><time>2026-04-24T09:33:24.365Z</time></trkpt><trkpt lat="38.0404267" lon="15.7079"><ele>466.0</ele><time>2026-04-24T09:33:26.366Z</time></trkpt><trkpt lat="38.0404567" lon="15.7080417"><ele>466.0</ele><time>2026-04-24T09:33:28.366Z</time></trkpt><trkpt lat="38.04048" lon="15.7081667"><ele>469.8</ele><time>2026-04-24T09:33:30.366Z</time></trkpt><trkpt lat="38.04048" lon="15.708295"><ele>473.6</ele><time>2026-04-24T09:33:32.366Z</time></trkpt><trkpt lat="38.04047" lon="15.7084283"><ele>477.4</ele><time>2026-04-24T09:33:34.365Z</time></trkpt><trkpt lat="38.0404383" lon="15.7085633"><ele>481.2</ele><time>2026-04-24T09:33:36.365Z</time></trkpt><trkpt lat="38.0403883" lon="15.7086867"><ele>485.0</ele><time>2026-04-24T09:33:38.366Z</time></trkpt><trkpt lat="38.0403317" lon="15.7087817"><ele>486.49999999999994</ele><time>2026-04-24T09:33:40.365Z</time></trkpt><trkpt lat="38.0402783" lon="15.7088717"><ele>488.0</ele><time>2026-04-24T09:33:42.365Z</time></trkpt><trkpt lat="38.0402883" lon="15.7089717"><ele>489.5</ele><time>2026-04-24T09:33:44.366Z</time></trkpt><trkpt lat="38.0403583" lon="15.7090983"><ele>491.0</ele><time>2026-04-24T09:33:46.366Z</time></trkpt><trkpt lat="38.0404083" lon="15.70915"><ele>492.49999999999994</ele><time>2026-04-24T09:33:47.365Z</time></trkpt><trkpt lat="38.0404633" lon="15.7092033"><ele>494.0</ele><time>2026-04-24T09:33:48.365Z</time></trkpt><trkpt lat="38.0405233" lon="15.7092517"><ele>494.0</ele><time>2026-04-24T09:33:49.366Z</time></trkpt><trkpt lat="38.040615" lon="15.7093333"><ele>494.0</ele><time>2026-04-24T09:33:51.365Z</time></trkpt><trkpt lat="38.0406567" lon="15.7094333"><ele>494.0</ele><time>2026-04-24T09:33:53.366Z</time></trkpt><trkpt lat="38.040655" lon="15.7095733"><ele>494.0</ele><time>2026-04-24T09:33:55.365Z</time></trkpt><trkpt lat="38.04065" lon="15.7096983"><ele>494.0</ele><time>2026-04-24T09:33:57.365Z</time></trkpt><trkpt lat="38.0406367" lon="15.7097867"><ele>496.0</ele><time>2026-04-24T09:33:59.366Z</time></trkpt><trkpt lat="38.04054" lon="15.7098383"><ele>498.0</ele><time>2026-04-24T09:34:02.365Z</time></trkpt><trkpt lat="38.040465" lon="15.7098667"><ele>500.0</ele><time>2026-04-24T09:34:04.365Z</time></trkpt><trkpt lat="38.0404067" lon="15.7098067"><ele>502.0</ele><time>2026-04-24T09:34:06.365Z</time></trkpt><trkpt lat="38.04037" lon="15.709685"><ele>504.0</ele><time>2026-04-24T09:34:08.366Z</time></trkpt><trkpt lat="38.04033" lon="15.70956"><ele>504.0</ele><time>2026-04-24T09:34:10.365Z</time></trkpt><trkpt lat="38.040265" lon="15.7094917"><ele>504.0</ele><time>2026-04-24T09:34:12.365Z</time></trkpt><trkpt lat="38.0401783" lon="15.709425"><ele>504.0</ele><time>2026-04-24T09:34:14.365Z</time></trkpt><trkpt lat="38.0400983" lon="15.7093433"><ele>504.0</ele><time>2026-04-24T09:34:16.365Z</time></trkpt><trkpt lat="38.0400333" lon="15.7092417"><ele>504.0</ele><time>2026-04-24T09:34:18.365Z</time></trkpt><trkpt lat="38.0399633" lon="15.7091583"><ele>504.0</ele><time>2026-04-24T09:34:20.365Z</time></trkpt><trkpt lat="38.039895" lon="15.70917"><ele>504.0</ele><time>2026-04-24T09:34:22.365Z</time></trkpt><trkpt lat="38.0398683" lon="15.7092517"><ele>504.0</ele><time>2026-04-24T09:34:24.365Z</time></trkpt><trkpt lat="38.0398983" lon="15.70936"><ele>504.0</ele><time>2026-04-24T09:34:26.365Z</time></trkpt><trkpt lat="38.0399467" lon="15.7094883"><ele>504.0</ele><time>2026-04-24T09:34:28.365Z</time></trkpt><trkpt lat="38.0399917" lon="15.7096383"><ele>504.0</ele><time>2026-04-24T09:34:30.365Z</time></trkpt><trkpt lat="38.0400017" lon="15.7097867"><ele>504.0</ele><time>2026-04-24T09:34:32.365Z</time></trkpt><trkpt lat="38.0400033" lon="15.7098667"><ele>504.0</ele><time>2026-04-24T09:34:33.365Z</time></trkpt><trkpt lat="38.0399667" lon="15.710015"><ele>504.0</ele><time>2026-04-24T09:34:35.366Z</time></trkpt><trkpt lat="38.0399083" lon="15.71013"><ele>504.0</ele><time>2026-04-24T09:34:37.366Z</time></trkpt><trkpt lat="38.03989" lon="15.710235"><ele>505.4</ele><time>2026-04-24T09:34:39.365Z</time></trkpt><trkpt lat="38.0399583" lon="15.7103283"><ele>506.79999999999995</ele><time>2026-04-24T09:34:41.366Z</time></trkpt><trkpt lat="38.0400083" lon="15.710385"><ele>508.20000000000005</ele><time>2026-04-24T09:34:42.365Z</time></trkpt><trkpt lat="38.0400533" lon="15.7105167"><ele>509.6</ele><time>2026-04-24T09:34:44.366Z</time></trkpt><trkpt lat="38.0400333" lon="15.7106617"><ele>511.0</ele><time>2026-04-24T09:34:46.366Z</time></trkpt><trkpt lat="38.0399867" lon="15.7107433"><ele>520.8</ele><time>2026-04-24T09:34:47.365Z</time></trkpt><trkpt lat="38.03995" lon="15.7108083"><ele>530.6</ele><time>2026-04-24T09:34:48.365Z</time></trkpt><trkpt lat="38.0399217" lon="15.7109217"><ele>540.4</ele><time>2026-04-24T09:34:50.365Z</time></trkpt><trkpt lat="38.039915" lon="15.7110583"><ele>550.2</ele><time>2026-04-24T09:34:52.365Z</time></trkpt><trkpt lat="38.0399" lon="15.7111867"><ele>560.0</ele><time>2026-04-24T09:34:54.366Z</time></trkpt><trkpt lat="38.0398533" lon="15.7113133"><ele>560.5</ele><time>2026-04-24T09:34:56.366Z</time></trkpt><trkpt lat="38.0398133" lon="15.71146"><ele>561.0</ele><time>2026-04-24T09:34:58.366Z</time></trkpt><trkpt lat="38.0398117" lon="15.71155"><ele>561.5</ele><time>2026-04-24T09:34:59.366Z</time></trkpt><trkpt lat="38.0398267" lon="15.7117067"><ele>562.0</ele><time>2026-04-24T09:35:01.366Z</time></trkpt><trkpt lat="38.0398367" lon="15.7117867"><ele>562.5</ele><time>2026-04-24T09:35:02.365Z</time></trkpt><trkpt lat="38.039845" lon="15.7118683"><ele>563.0</ele><time>2026-04-24T09:35:03.365Z</time></trkpt><trkpt lat="38.03985" lon="15.712005"><ele>561.0</ele><time>2026-04-24T09:35:05.366Z</time></trkpt><trkpt lat="38.03985" lon="15.7121417"><ele>559.0</ele><time>2026-04-24T09:35:07.365Z</time></trkpt><trkpt lat="38.0398517" lon="15.7122583"><ele>557.0</ele><time>2026-04-24T09:35:09.365Z</time></trkpt><trkpt lat="38.039795" lon="15.7121917"><ele>555.0</ele><time>2026-04-24T09:35:14.366Z</time></trkpt><trkpt lat="38.039765" lon="15.712085"><ele>553.0</ele><time>2026-04-24T09:35:16.366Z</time></trkpt><trkpt lat="38.0397183" lon="15.7119867"><ele>555.0</ele><time>2026-04-24T09:35:18.365Z</time></trkpt><trkpt lat="38.0396683" lon="15.7118533"><ele>557.0</ele><time>2026-04-24T09:35:20.365Z</time></trkpt><trkpt lat="38.0396417" lon="15.7117783"><ele>559.0</ele><time>2026-04-24T09:35:21.366Z</time></trkpt><trkpt lat="38.039615" lon="15.7117033"><ele>561.0</ele><time>2026-04-24T09:35:22.366Z</time></trkpt><trkpt lat="38.039585" lon="15.7115583"><ele>563.0</ele><time>2026-04-24T09:35:24.365Z</time></trkpt><trkpt lat="38.0395767" lon="15.7114233"><ele>563.0</ele><time>2026-04-24T09:35:26.365Z</time></trkpt><trkpt lat="38.039575" lon="15.71131"><ele>563.0</ele><time>2026-04-24T09:35:28.365Z</time></trkpt><trkpt lat="38.0395317" lon="15.7112267"><ele>563.0</ele><time>2026-04-24T09:35:30.366Z</time></trkpt><trkpt lat="38.03944" lon="15.7111317"><ele>563.0</ele><time>2026-04-24T09:35:32.366Z</time></trkpt><trkpt lat="38.0393717" lon="15.711015"><ele>563.0</ele><time>2026-04-24T09:35:34.365Z</time></trkpt><trkpt lat="38.039355" lon="15.7108667"><ele>562.4</ele><time>2026-04-24T09:35:36.366Z</time></trkpt><trkpt lat="38.0393733" lon="15.710725"><ele>561.8</ele><time>2026-04-24T09:35:38.366Z</time></trkpt><trkpt lat="38.039345" lon="15.710595"><ele>561.2</ele><time>2026-04-24T09:35:40.365Z</time></trkpt><trkpt lat="38.03928" lon="15.710475"><ele>560.6</ele><time>2026-04-24T09:35:42.366Z</time></trkpt><trkpt lat="38.0392567" lon="15.7104"><ele>560.0</ele><time>2026-04-24T09:35:43.366Z</time></trkpt><trkpt lat="38.0392417" lon="15.71032"><ele>557.8</ele><time>2026-04-24T09:35:44.365Z</time></trkpt><trkpt lat="38.0392167" lon="15.7101783"><ele>555.6</ele><time>2026-04-24T09:35:46.365Z</time></trkpt><trkpt lat="38.0391883" lon="15.7100517"><ele>553.4</ele><time>2026-04-24T09:35:48.365Z</time></trkpt><trkpt lat="38.0391333" lon="15.709935"><ele>551.2</ele><time>2026-04-24T09:35:50.365Z</time></trkpt><trkpt lat="38.0390767" lon="15.70984"><ele>549.0</ele><time>2026-04-24T09:35:52.365Z</time></trkpt><trkpt lat="38.0390233" lon="15.7097817"><ele>560.0</ele><time>2026-04-24T09:35:54.366Z</time></trkpt><trkpt lat="38.0389683" lon="15.7098383"><ele>571.0</ele><time>2026-04-24T09:35:57.365Z</time></trkpt><trkpt lat="38.0390117" lon="15.70994"><ele>582.0</ele><time>2026-04-24T09:35:59.366Z</time></trkpt><trkpt lat="38.03905" lon="15.71006"><ele>593.0</ele><time>2026-04-24T09:36:01.366Z</time></trkpt><trkpt lat="38.03906" lon="15.7101967"><ele>604.0</ele><time>2026-04-24T09:36:03.365Z</time></trkpt><trkpt lat="38.0390467" lon="15.7102967"><ele>605.8333333333334</ele><time>2026-04-24T09:36:05.366Z</time></trkpt><trkpt lat="38.0390183" lon="15.7103783"><ele>607.6666666666667</ele><time>2026-04-24T09:36:07.366Z</time></trkpt><trkpt lat="38.0390017" lon="15.7104717"><ele>609.5</ele><time>2026-04-24T09:36:09.366Z</time></trkpt><trkpt lat="38.0389717" lon="15.710565"><ele>611.3333333333334</ele><time>2026-04-24T09:36:11.366Z</time></trkpt><trkpt lat="38.0389267" lon="15.7106583"><ele>613.1666666666666</ele><time>2026-04-24T09:36:13.365Z</time></trkpt><trkpt lat="38.038905" lon="15.7107717"><ele>615.0</ele><time>2026-04-24T09:36:15.366Z</time></trkpt><trkpt lat="38.0388933" lon="15.71088"><ele>615.0</ele><time>2026-04-24T09:36:17.366Z</time></trkpt><trkpt lat="38.03888" lon="15.7109833"><ele>615.0</ele><time>2026-04-24T09:36:19.366Z</time></trkpt><trkpt lat="38.0388733" lon="15.7111217"><ele>615.0</ele><time>2026-04-24T09:36:21.366Z</time></trkpt><trkpt lat="38.03887" lon="15.7112017"><ele>615.0</ele><time>2026-04-24T09:36:22.366Z</time></trkpt><trkpt lat="38.0388683" lon="15.7112817"><ele>615.0</ele><time>2026-04-24T09:36:23.365Z</time></trkpt><trkpt lat="38.0388567" lon="15.711395"><ele>615.0</ele><time>2026-04-24T09:36:25.365Z</time></trkpt><trkpt lat="38.0388133" lon="15.7113183"><ele>615.0</ele><time>2026-04-24T09:36:30.365Z</time></trkpt><trkpt lat="38.0387917" lon="15.71116"><ele>615.0</ele><time>2026-04-24T09:36:32.365Z</time></trkpt><trkpt lat="38.0387783" lon="15.7110767"><ele>615.0</ele><time>2026-04-24T09:36:33.366Z</time></trkpt><trkpt lat="38.0387583" lon="15.7109933"><ele>615.0</ele><time>2026-04-24T09:36:34.365Z</time></trkpt><trkpt lat="38.03873" lon="15.7109117"><ele>615.0</ele><time>2026-04-24T09:36:35.365Z</time></trkpt><trkpt lat="38.0387133" lon="15.7108267"><ele>615.0</ele><time>2026-04-24T09:36:36.365Z</time></trkpt><trkpt lat="38.038705" lon="15.7107467"><ele>615.0</ele><time>2026-04-24T09:36:37.365Z</time></trkpt><trkpt lat="38.038705" lon="15.7106633"><ele>615.0</ele><time>2026-04-24T09:36:38.365Z</time></trkpt><trkpt lat="38.0387217" lon="15.7105167"><ele>615.0</ele><time>2026-04-24T09:36:40.366Z</time></trkpt><trkpt lat="38.0387167" lon="15.7103833"><ele>615.0</ele><time>2026-04-24T09:36:42.365Z</time></trkpt><trkpt lat="38.0386683" lon="15.7102783"><ele>615.0</ele><time>2026-04-24T09:36:44.366Z</time></trkpt><trkpt lat="38.0385933" lon="15.71018"><ele>613.1666666666666</ele><time>2026-04-24T09:36:46.365Z</time></trkpt><trkpt lat="38.038525" lon="15.7100617"><ele>611.3333333333334</ele><time>2026-04-24T09:36:48.365Z</time></trkpt><trkpt lat="38.0384417" lon="15.70994"><ele>609.5</ele><time>2026-04-24T09:36:50.365Z</time></trkpt><trkpt lat="38.0384" lon="15.7098783"><ele>607.6666666666667</ele><time>2026-04-24T09:36:51.366Z</time></trkpt><trkpt lat="38.0383633" lon="15.7098117"><ele>605.8333333333334</ele><time>2026-04-24T09:36:52.366Z</time></trkpt><trkpt lat="38.0383183" lon="15.70975"><ele>604.0</ele><time>2026-04-24T09:36:53.365Z</time></trkpt><trkpt lat="38.038265" lon="15.7097033"><ele>610.8</ele><time>2026-04-24T09:36:54.365Z</time></trkpt><trkpt lat="38.038175" lon="15.7096417"><ele>617.5999999999999</ele><time>2026-04-24T09:36:56.366Z</time></trkpt><trkpt lat="38.0381083" lon="15.709645"><ele>624.4</ele><time>2026-04-24T09:36:59.365Z</time></trkpt><trkpt lat="38.0381667" lon="15.7097517"><ele>631.1999999999999</ele><time>2026-04-24T09:37:02.365Z</time></trkpt><trkpt lat="38.03823" lon="15.7098783"><ele>638.0</ele><time>2026-04-24T09:37:04.366Z</time></trkpt><trkpt lat="38.0382617" lon="15.710025"><ele>638.0</ele><time>2026-04-24T09:37:06.365Z</time></trkpt><trkpt lat="38.0382717" lon="15.71019"><ele>638.0</ele><time>2026-04-24T09:37:08.365Z</time></trkpt><trkpt lat="38.0382717" lon="15.7102733"><ele>638.0</ele><time>2026-04-24T09:37:09.366Z</time></trkpt><trkpt lat="38.0382767" lon="15.7103767"><ele>638.0</ele><time>2026-04-24T09:37:10.366Z</time></trkpt><trkpt lat="38.0382867" lon="15.7104867"><ele>638.0</ele><time>2026-04-24T09:37:11.366Z</time></trkpt><trkpt lat="38.0382883" lon="15.7105933"><ele>638.0</ele><time>2026-04-24T09:37:12.365Z</time></trkpt><trkpt lat="38.03829" lon="15.7107383"><ele>636.8333333333333</ele><time>2026-04-24T09:37:14.366Z</time></trkpt><trkpt lat="38.0382783" lon="15.7108417"><ele>635.6666666666666</ele><time>2026-04-24T09:37:16.366Z</time></trkpt><trkpt lat="38.0382133" lon="15.7107267"><ele>634.5</ele><time>2026-04-24T09:37:20.365Z</time></trkpt><trkpt lat="38.0381867" lon="15.7106417"><ele>633.3333333333334</ele><time>2026-04-24T09:37:21.365Z</time></trkpt><trkpt lat="38.038145" lon="15.7105483"><ele>632.1666666666667</ele><time>2026-04-24T09:37:22.366Z</time></trkpt><trkpt lat="38.0380983" lon="15.7104567"><ele>631.0</ele><time>2026-04-24T09:37:23.365Z</time></trkpt><trkpt lat="38.0380483" lon="15.71038"><ele>631.0</ele><time>2026-04-24T09:37:24.365Z</time></trkpt><trkpt lat="38.0379967" lon="15.710315"><ele>631.0</ele><time>2026-04-24T09:37:25.366Z</time></trkpt><trkpt lat="38.0379467" lon="15.71026"><ele>631.0</ele><time>2026-04-24T09:37:26.366Z</time></trkpt><trkpt lat="38.0378883" lon="15.7102133"><ele>631.0</ele><time>2026-04-24T09:37:27.366Z</time></trkpt><trkpt lat="38.0378333" lon="15.7101733"><ele>631.0</ele><time>2026-04-24T09:37:28.365Z</time></trkpt><trkpt lat="38.0377267" lon="15.7101167"><ele>631.0</ele><time>2026-04-24T09:37:30.365Z</time></trkpt><trkpt lat="38.03763" lon="15.710045"><ele>632.1666666666667</ele><time>2026-04-24T09:37:32.366Z</time></trkpt><trkpt lat="38.037545" lon="15.7099567"><ele>633.3333333333334</ele><time>2026-04-24T09:37:34.366Z</time></trkpt><trkpt lat="38.0374983" lon="15.7099017"><ele>634.5</ele><time>2026-04-24T09:37:35.365Z</time></trkpt><trkpt lat="38.037445" lon="15.7098417"><ele>635.6666666666666</ele><time>2026-04-24T09:37:36.366Z</time></trkpt><trkpt lat="38.037385" lon="15.7097867"><ele>636.8333333333333</ele><time>2026-04-24T09:37:37.365Z</time></trkpt><trkpt lat="38.0373283" lon="15.7097267"><ele>638.0</ele><time>2026-04-24T09:37:38.365Z</time></trkpt><trkpt lat="38.0372683" lon="15.70966"><ele>641.0</ele><time>2026-04-24T09:37:39.366Z</time></trkpt><trkpt lat="38.037215" lon="15.7095833"><ele>644.0</ele><time>2026-04-24T09:37:40.366Z</time></trkpt><trkpt lat="38.0371667" lon="15.7094983"><ele>647.0</ele><time>2026-04-24T09:37:41.365Z</time></trkpt><trkpt lat="38.03712" lon="15.7094183"><ele>650.0</ele><time>2026-04-24T09:37:42.366Z</time></trkpt><trkpt lat="38.0370717" lon="15.7093483"><ele>653.0</ele><time>2026-04-24T09:37:43.366Z</time></trkpt><trkpt lat="38.0370217" lon="15.7092817"><ele>656.0</ele><time>2026-04-24T09:37:44.366Z</time></trkpt><trkpt lat="38.03698" lon="15.709215"><ele>657.5999999999999</ele><time>2026-04-24T09:37:45.366Z</time></trkpt><trkpt lat="38.0369467" lon="15.7091417"><ele>659.2</ele><time>2026-04-24T09:37:46.366Z</time></trkpt><trkpt lat="38.0368817" lon="15.709"><ele>660.8</ele><time>2026-04-24T09:37:48.366Z</time></trkpt><trkpt lat="38.0368433" lon="15.7089333"><ele>662.4000000000001</ele><time>2026-04-24T09:37:49.366Z</time></trkpt><trkpt lat="38.036765" lon="15.708815"><ele>664.0</ele><time>2026-04-24T09:37:51.365Z</time></trkpt><trkpt lat="38.03672" lon="15.7087433"><ele>664.0</ele><time>2026-04-24T09:37:52.365Z</time></trkpt><trkpt lat="38.0366817" lon="15.7086717"><ele>664.0</ele><time>2026-04-24T09:37:53.365Z</time></trkpt><trkpt lat="38.0366517" lon="15.7085983"><ele>664.0</ele><time>2026-04-24T09:37:54.366Z</time></trkpt><trkpt lat="38.036605" lon="15.7084867"><ele>664.0</ele><time>2026-04-24T09:37:56.365Z</time></trkpt><trkpt lat="38.0365717" lon="15.7084033"><ele>664.0</ele><time>2026-04-24T09:37:58.366Z</time></trkpt><trkpt lat="38.0365167" lon="15.7083383"><ele>664.0</ele><time>2026-04-24T09:38:00.365Z</time></trkpt><trkpt lat="38.0364317" lon="15.7083117"><ele>665.2</ele><time>2026-04-24T09:38:02.366Z</time></trkpt><trkpt lat="38.0363267" lon="15.7082883"><ele>666.4000000000001</ele><time>2026-04-24T09:38:04.365Z</time></trkpt><trkpt lat="38.0362367" lon="15.7082383"><ele>667.6</ele><time>2026-04-24T09:38:06.365Z</time></trkpt><trkpt lat="38.03616" lon="15.7081767"><ele>668.8</ele><time>2026-04-24T09:38:08.365Z</time></trkpt><trkpt lat="38.0360733" lon="15.7081083"><ele>670.0</ele><time>2026-04-24T09:38:10.365Z</time></trkpt><trkpt lat="38.035975" lon="15.70804"><ele>670.0</ele><time>2026-04-24T09:38:12.365Z</time></trkpt><trkpt lat="38.0358767" lon="15.707975"><ele>670.0</ele><time>2026-04-24T09:38:14.365Z</time></trkpt><trkpt lat="38.035775" lon="15.7079417"><ele>670.0</ele><time>2026-04-24T09:38:16.365Z</time></trkpt><trkpt lat="38.03567" lon="15.7079333"><ele>670.0</ele><time>2026-04-24T09:38:18.365Z</time></trkpt><trkpt lat="38.0355733" lon="15.7078767"><ele>670.0</ele><time>2026-04-24T09:38:20.365Z</time></trkpt><trkpt lat="38.0354733" lon="15.70779"><ele>668.0</ele><time>2026-04-24T09:38:22.366Z</time></trkpt><trkpt lat="38.0353883" lon="15.7076917"><ele>666.0</ele><time>2026-04-24T09:38:24.365Z</time></trkpt><trkpt lat="38.035295" lon="15.707625"><ele>664.0</ele><time>2026-04-24T09:38:26.365Z</time></trkpt><trkpt lat="38.0352017" lon="15.70761"><ele>662.0</ele><time>2026-04-24T09:38:28.366Z</time></trkpt><trkpt lat="38.0350867" lon="15.707645"><ele>660.0</ele><time>2026-04-24T09:38:30.366Z</time></trkpt><trkpt lat="38.0350267" lon="15.7076767"><ele>660.1666666666666</ele><time>2026-04-24T09:38:31.366Z</time></trkpt><trkpt lat="38.0349667" lon="15.7077117"><ele>660.3333333333334</ele><time>2026-04-24T09:38:32.366Z</time></trkpt><trkpt lat="38.0349083" lon="15.7077483"><ele>660.5</ele><time>2026-04-24T09:38:33.366Z</time></trkpt><trkpt lat="38.0348533" lon="15.7077933"><ele>660.6666666666667</ele><time>2026-04-24T09:38:34.365Z</time></trkpt><trkpt lat="38.0347467" lon="15.7078533"><ele>660.8333333333334</ele><time>2026-04-24T09:38:36.366Z</time></trkpt><trkpt lat="38.03463" lon="15.7078683"><ele>661.0</ele><time>2026-04-24T09:38:38.366Z</time></trkpt><trkpt lat="38.0345667" lon="15.7078833"><ele>664.8</ele><time>2026-04-24T09:38:39.366Z</time></trkpt><trkpt lat="38.034505" lon="15.7079117"><ele>668.5999999999999</ele><time>2026-04-24T09:38:40.365Z</time></trkpt><trkpt lat="38.0344483" lon="15.70795"><ele>672.4</ele><time>2026-04-24T09:38:41.366Z</time></trkpt><trkpt lat="38.0343533" lon="15.70804"><ele>676.2</ele><time>2026-04-24T09:38:43.365Z</time></trkpt><trkpt lat="38.03428" lon="15.708145"><ele>680.0</ele><time>2026-04-24T09:38:45.365Z</time></trkpt><trkpt lat="38.0342083" lon="15.7082717"><ele>680.0</ele><time>2026-04-24T09:38:47.365Z</time></trkpt><trkpt lat="38.034165" lon="15.7083333"><ele>680.0</ele><time>2026-04-24T09:38:48.366Z</time></trkpt><trkpt lat="38.0341183" lon="15.7083917"><ele>680.0</ele><time>2026-04-24T09:38:49.365Z</time></trkpt><trkpt lat="38.0340733" lon="15.7084567"><ele>680.0</ele><time>2026-04-24T09:38:50.366Z</time></trkpt><trkpt lat="38.0340033" lon="15.70858"><ele>680.0</ele><time>2026-04-24T09:38:52.366Z</time></trkpt><trkpt lat="38.0339883" lon="15.7086617"><ele>680.0</ele><time>2026-04-24T09:38:53.365Z</time></trkpt><trkpt lat="38.0339867" lon="15.70875"><ele>680.5</ele><time>2026-04-24T09:38:54.365Z</time></trkpt><trkpt lat="38.0339883" lon="15.708835"><ele>681.0</ele><time>2026-04-24T09:38:55.365Z</time></trkpt><trkpt lat="38.03398" lon="15.7089367"><ele>681.5</ele><time>2026-04-24T09:38:56.366Z</time></trkpt><trkpt lat="38.03397" lon="15.7090433"><ele>682.0</ele><time>2026-04-24T09:38:57.366Z</time></trkpt><trkpt lat="38.03395" lon="15.709155"><ele>682.5</ele><time>2026-04-24T09:38:58.366Z</time></trkpt><trkpt lat="38.0339283" lon="15.7092633"><ele>683.0</ele><time>2026-04-24T09:38:59.366Z</time></trkpt><trkpt lat="38.033905" lon="15.70937"><ele>684.1666666666666</ele><time>2026-04-24T09:39:00.365Z</time></trkpt><trkpt lat="38.033885" lon="15.7094833"><ele>685.3333333333333</ele><time>2026-04-24T09:39:01.365Z</time></trkpt><trkpt lat="38.033865" lon="15.709575"><ele>686.5</ele><time>2026-04-24T09:39:02.366Z</time></trkpt><trkpt lat="38.033835" lon="15.709665"><ele>687.6666666666666</ele><time>2026-04-24T09:39:03.365Z</time></trkpt><trkpt lat="38.0338017" lon="15.7097367"><ele>688.8333333333334</ele><time>2026-04-24T09:39:04.365Z</time></trkpt><trkpt lat="38.033755" lon="15.709795"><ele>690.0</ele><time>2026-04-24T09:39:05.366Z</time></trkpt><trkpt lat="38.03366" lon="15.7099083"><ele>690.0</ele><time>2026-04-24T09:39:07.365Z</time></trkpt><trkpt lat="38.03362" lon="15.7099783"><ele>690.0</ele><time>2026-04-24T09:39:08.366Z</time></trkpt><trkpt lat="38.033595" lon="15.7100633"><ele>690.0</ele><time>2026-04-24T09:39:09.366Z</time></trkpt><trkpt lat="38.03358" lon="15.7101633"><ele>690.0</ele><time>2026-04-24T09:39:10.365Z</time></trkpt><trkpt lat="38.03357" lon="15.71026"><ele>690.0</ele><time>2026-04-24T09:39:11.366Z</time></trkpt><trkpt lat="38.033575" lon="15.7103567"><ele>690.0</ele><time>2026-04-24T09:39:12.366Z</time></trkpt><trkpt lat="38.0335883" lon="15.7104483"><ele>690.0</ele><time>2026-04-24T09:39:13.366Z</time></trkpt><trkpt lat="38.03362" lon="15.71055"><ele>690.1666666666666</ele><time>2026-04-24T09:39:14.366Z</time></trkpt><trkpt lat="38.0336567" lon="15.710645"><ele>690.3333333333334</ele><time>2026-04-24T09:39:15.365Z</time></trkpt><trkpt lat="38.0337017" lon="15.7107383"><ele>690.5</ele><time>2026-04-24T09:39:16.366Z</time></trkpt><trkpt lat="38.0337333" lon="15.7108333"><ele>690.6666666666667</ele><time>2026-04-24T09:39:17.366Z</time></trkpt><trkpt lat="38.03375" lon="15.71093"><ele>690.8333333333334</ele><time>2026-04-24T09:39:18.365Z</time></trkpt><trkpt lat="38.0337583" lon="15.7110283"><ele>691.0</ele><time>2026-04-24T09:39:19.366Z</time></trkpt><trkpt lat="38.0337517" lon="15.7111233"><ele>692.5</ele><time>2026-04-24T09:39:20.365Z</time></trkpt><trkpt lat="38.033735" lon="15.71122"><ele>694.0</ele><time>2026-04-24T09:39:21.366Z</time></trkpt><trkpt lat="38.0337083" lon="15.7113167"><ele>695.5</ele><time>2026-04-24T09:39:22.365Z</time></trkpt><trkpt lat="38.0336917" lon="15.7114117"><ele>697.0</ele><time>2026-04-24T09:39:23.366Z</time></trkpt><trkpt lat="38.033685" lon="15.7115033"><ele>698.5</ele><time>2026-04-24T09:39:24.366Z</time></trkpt><trkpt lat="38.033695" lon="15.7115933"><ele>700.0</ele><time>2026-04-24T09:39:25.365Z</time></trkpt><trkpt lat="38.0337233" lon="15.7116833"><ele>700.0</ele><time>2026-04-24T09:39:26.366Z</time></trkpt><trkpt lat="38.0337633" lon="15.7117733"><ele>700.0</ele><time>2026-04-24T09:39:27.366Z</time></trkpt><trkpt lat="38.0338067" lon="15.71187"><ele>700.0</ele><time>2026-04-24T09:39:28.366Z</time></trkpt><trkpt lat="38.0338467" lon="15.7119767"><ele>700.0</ele><time>2026-04-24T09:39:29.365Z</time></trkpt><trkpt lat="38.0338933" lon="15.71209"><ele>700.0</ele><time>2026-04-24T09:39:30.365Z</time></trkpt><trkpt lat="38.0339383" lon="15.7122117"><ele>697.8</ele><time>2026-04-24T09:39:31.366Z</time></trkpt><trkpt lat="38.03399" lon="15.712335"><ele>695.6</ele><time>2026-04-24T09:39:32.365Z</time></trkpt><trkpt lat="38.0340367" lon="15.7124483"><ele>693.4000000000001</ele><time>2026-04-24T09:39:33.365Z</time></trkpt><trkpt lat="38.0340817" lon="15.7125617"><ele>691.2</ele><time>2026-04-24T09:39:34.365Z</time></trkpt><trkpt lat="38.0341233" lon="15.7126833"><ele>689.0</ele><time>2026-04-24T09:39:35.365Z</time></trkpt><trkpt lat="38.034165" lon="15.7128133"><ele>689.0</ele><time>2026-04-24T09:39:36.366Z</time></trkpt><trkpt lat="38.0342033" lon="15.7129483"><ele>689.0</ele><time>2026-04-24T09:39:37.366Z</time></trkpt><trkpt lat="38.03423" lon="15.7130817"><ele>689.0</ele><time>2026-04-24T09:39:38.366Z</time></trkpt><trkpt lat="38.0342583" lon="15.7132283"><ele>689.0</ele><time>2026-04-24T09:39:39.365Z</time></trkpt><trkpt lat="38.03429" lon="15.7133617"><ele>689.0</ele><time>2026-04-24T09:39:40.366Z</time></trkpt><trkpt lat="38.03432" lon="15.71349"><ele>689.0</ele><time>2026-04-24T09:39:41.365Z</time></trkpt><trkpt lat="38.034345" lon="15.7136133"><ele>689.0</ele><time>2026-04-24T09:39:42.366Z</time></trkpt><trkpt lat="38.0343717" lon="15.713745"><ele>689.0</ele><time>2026-04-24T09:39:43.365Z</time></trkpt><trkpt lat="38.0343967" lon="15.71387"><ele>689.0</ele><time>2026-04-24T09:39:44.365Z</time></trkpt><trkpt lat="38.0344233" lon="15.7139817"><ele>691.1666666666666</ele><time>2026-04-24T09:39:45.365Z</time></trkpt><trkpt lat="38.03445" lon="15.714085"><ele>693.3333333333333</ele><time>2026-04-24T09:39:46.366Z</time></trkpt><trkpt lat="38.0344683" lon="15.7141717"><ele>695.5</ele><time>2026-04-24T09:39:47.365Z</time></trkpt><trkpt lat="38.0344683" lon="15.71433"><ele>697.6666666666666</ele><time>2026-04-24T09:39:49.365Z</time></trkpt><trkpt lat="38.0344617" lon="15.7144117"><ele>699.8333333333334</ele><time>2026-04-24T09:39:50.365Z</time></trkpt><trkpt lat="38.0344467" lon="15.7144933"><ele>702.0</ele><time>2026-04-24T09:39:51.365Z</time></trkpt><trkpt lat="38.0344317" lon="15.7145767"><ele>702.5714285714287</ele><time>2026-04-24T09:39:52.365Z</time></trkpt><trkpt lat="38.0344233" lon="15.71467"><ele>703.1428571428571</ele><time>2026-04-24T09:39:53.365Z</time></trkpt><trkpt lat="38.0344167" lon="15.71477"><ele>703.7142857142858</ele><time>2026-04-24T09:39:54.365Z</time></trkpt><trkpt lat="38.0344083" lon="15.7148667"><ele>704.2857142857143</ele><time>2026-04-24T09:39:55.366Z</time></trkpt><trkpt lat="38.0344" lon="15.7149583"><ele>704.8571428571429</ele><time>2026-04-24T09:39:56.366Z</time></trkpt><trkpt lat="38.0343917" lon="15.715045"><ele>705.4285714285714</ele><time>2026-04-24T09:39:57.366Z</time></trkpt><trkpt lat="38.0343883" lon="15.7151267"><ele>706.0</ele><time>2026-04-24T09:39:58.366Z</time></trkpt><trkpt lat="38.0343717" lon="15.715295"><ele>706.0</ele><time>2026-04-24T09:40:00.365Z</time></trkpt><trkpt lat="38.034345" lon="15.7153767"><ele>706.0</ele><time>2026-04-24T09:40:01.365Z</time></trkpt><trkpt lat="38.0343117" lon="15.71545"><ele>706.0</ele><time>2026-04-24T09:40:02.366Z</time></trkpt><trkpt lat="38.0342717" lon="15.7155183"><ele>706.0</ele><time>2026-04-24T09:40:03.366Z</time></trkpt><trkpt lat="38.03423" lon="15.7155867"><ele>706.0</ele><time>2026-04-24T09:40:04.365Z</time></trkpt><trkpt lat="38.034195" lon="15.7156583"><ele>706.0</ele><time>2026-04-24T09:40:05.365Z</time></trkpt><trkpt lat="38.0341633" lon="15.7157333"><ele>706.0</ele><time>2026-04-24T09:40:06.366Z</time></trkpt><trkpt lat="38.03413" lon="15.7158217"><ele>703.0</ele><time>2026-04-24T09:40:07.366Z</time></trkpt><trkpt lat="38.0340917" lon="15.7159133"><ele>700.0</ele><time>2026-04-24T09:40:08.365Z</time></trkpt><trkpt lat="38.03405" lon="15.7159917"><ele>697.0</ele><time>2026-04-24T09:40:09.366Z</time></trkpt><trkpt lat="38.034005" lon="15.71607"><ele>694.0</ele><time>2026-04-24T09:40:10.366Z</time></trkpt><trkpt lat="38.0339817" lon="15.716235"><ele>691.0</ele><time>2026-04-24T09:40:12.366Z</time></trkpt><trkpt lat="38.0339767" lon="15.716335"><ele>688.0</ele><time>2026-04-24T09:40:13.366Z</time></trkpt><trkpt lat="38.0339783" lon="15.716425"><ele>688.0000000000001</ele><time>2026-04-24T09:40:14.365Z</time></trkpt><trkpt lat="38.0339733" lon="15.7165217"><ele>688.0</ele><time>2026-04-24T09:40:15.366Z</time></trkpt><trkpt lat="38.0339667" lon="15.7166183"><ele>688.0</ele><time>2026-04-24T09:40:16.366Z</time></trkpt><trkpt lat="38.0339633" lon="15.7167217"><ele>688.0</ele><time>2026-04-24T09:40:17.365Z</time></trkpt><trkpt lat="38.0339667" lon="15.7168167"><ele>688.0</ele><time>2026-04-24T09:40:18.366Z</time></trkpt><trkpt lat="38.03396" lon="15.7169017"><ele>688.0000000000001</ele><time>2026-04-24T09:40:19.366Z</time></trkpt><trkpt lat="38.0339467" lon="15.71698"><ele>688.0</ele><time>2026-04-24T09:40:20.365Z</time></trkpt><trkpt lat="38.03389" lon="15.7171"><ele>685.0</ele><time>2026-04-24T09:40:22.365Z</time></trkpt><trkpt lat="38.0337967" lon="15.71719"><ele>682.0</ele><time>2026-04-24T09:40:24.365Z</time></trkpt><trkpt lat="38.0336817" lon="15.7172617"><ele>679.0</ele><time>2026-04-24T09:40:26.365Z</time></trkpt><trkpt lat="38.0335633" lon="15.71726"><ele>676.0</ele><time>2026-04-24T09:40:28.365Z</time></trkpt><trkpt lat="38.0334683" lon="15.7172233"><ele>676.0</ele><time>2026-04-24T09:40:30.365Z</time></trkpt><trkpt lat="38.0334017" lon="15.7172817"><ele>676.0</ele><time>2026-04-24T09:40:33.365Z</time></trkpt><trkpt lat="38.0334683" lon="15.717385"><ele>676.0</ele><time>2026-04-24T09:40:35.366Z</time></trkpt><trkpt lat="38.0335217" lon="15.71744"><ele>676.0</ele><time>2026-04-24T09:40:36.366Z</time></trkpt><trkpt lat="38.033575" lon="15.7174833"><ele>676.0</ele><time>2026-04-24T09:40:37.365Z</time></trkpt><trkpt lat="38.03363" lon="15.7175367"><ele>676.0</ele><time>2026-04-24T09:40:39.366Z</time></trkpt><trkpt lat="38.0336367" lon="15.71767"><ele>674.6666666666667</ele><time>2026-04-24T09:40:42.365Z</time></trkpt><trkpt lat="38.0336267" lon="15.71775"><ele>673.3333333333334</ele><time>2026-04-24T09:40:43.365Z</time></trkpt><trkpt lat="38.0336133" lon="15.7178433"><ele>672.0</ele><time>2026-04-24T09:40:44.365Z</time></trkpt><trkpt lat="38.033595" lon="15.7179517"><ele>670.6666666666666</ele><time>2026-04-24T09:40:45.366Z</time></trkpt><trkpt lat="38.0335683" lon="15.718055"><ele>669.3333333333333</ele><time>2026-04-24T09:40:46.365Z</time></trkpt><trkpt lat="38.0335383" lon="15.718145"><ele>668.0</ele><time>2026-04-24T09:40:47.366Z</time></trkpt><trkpt lat="38.0334983" lon="15.7182317"><ele>668.0</ele><time>2026-04-24T09:40:48.366Z</time></trkpt><trkpt lat="38.0334517" lon="15.71831"><ele>668.0</ele><time>2026-04-24T09:40:49.365Z</time></trkpt><trkpt lat="38.03339" lon="15.7183817"><ele>668.0</ele><time>2026-04-24T09:40:50.365Z</time></trkpt><trkpt lat="38.03333" lon="15.7184517"><ele>668.0</ele><time>2026-04-24T09:40:51.365Z</time></trkpt><trkpt lat="38.03326" lon="15.718595"><ele>668.0</ele><time>2026-04-24T09:40:53.365Z</time></trkpt><trkpt lat="38.0332533" lon="15.7186867"><ele>668.0</ele><time>2026-04-24T09:40:54.366Z</time></trkpt><trkpt lat="38.03326" lon="15.7187833"><ele>668.8333333333333</ele><time>2026-04-24T09:40:55.366Z</time></trkpt><trkpt lat="38.0332633" lon="15.7188817"><ele>669.6666666666666</ele><time>2026-04-24T09:40:56.365Z</time></trkpt><trkpt lat="38.03326" lon="15.71898"><ele>670.5</ele><time>2026-04-24T09:40:57.366Z</time></trkpt><trkpt lat="38.0332483" lon="15.719085"><ele>671.3333333333334</ele><time>2026-04-24T09:40:58.366Z</time></trkpt><trkpt lat="38.0332367" lon="15.7191833"><ele>672.1666666666667</ele><time>2026-04-24T09:40:59.365Z</time></trkpt><trkpt lat="38.0332233" lon="15.71928"><ele>673.0</ele><time>2026-04-24T09:41:00.365Z</time></trkpt><trkpt lat="38.03321" lon="15.7193817"><ele>673.3333333333334</ele><time>2026-04-24T09:41:01.366Z</time></trkpt><trkpt lat="38.0331983" lon="15.7194633"><ele>673.6666666666667</ele><time>2026-04-24T09:41:02.365Z</time></trkpt><trkpt lat="38.033195" lon="15.7195867"><ele>674.0</ele><time>2026-04-24T09:41:04.366Z</time></trkpt><trkpt lat="38.0332283" lon="15.7197"><ele>674.3333333333334</ele><time>2026-04-24T09:41:06.365Z</time></trkpt><trkpt lat="38.0332833" lon="15.71984"><ele>674.6666666666666</ele><time>2026-04-24T09:41:08.366Z</time></trkpt><trkpt lat="38.0333067" lon="15.719915"><ele>675.0</ele><time>2026-04-24T09:41:09.366Z</time></trkpt><trkpt lat="38.0333267" lon="15.72001"><ele>675.0</ele><time>2026-04-24T09:41:11.365Z</time></trkpt><trkpt lat="38.0333333" lon="15.72012"><ele>675.0</ele><time>2026-04-24T09:41:15.365Z</time></trkpt><trkpt lat="38.033335" lon="15.7202017"><ele>675.0</ele><time>2026-04-24T09:41:17.365Z</time></trkpt><trkpt lat="38.0333383" lon="15.720095"><ele>675.0</ele><time>2026-04-24T09:41:34.365Z</time></trkpt><trkpt lat="38.0333333" lon="15.7200017"><ele>675.0</ele><time>2026-04-24T09:41:35.366Z</time></trkpt><trkpt lat="38.033315" lon="15.7198867"><ele>675.0</ele><time>2026-04-24T09:41:36.366Z</time></trkpt><trkpt lat="38.0332833" lon="15.7197867"><ele>677.2</ele><time>2026-04-24T09:41:37.365Z</time></trkpt><trkpt lat="38.0332467" lon="15.7196967"><ele>679.4</ele><time>2026-04-24T09:41:38.366Z</time></trkpt><trkpt lat="38.0331983" lon="15.7195933"><ele>681.5999999999999</ele><time>2026-04-24T09:41:40.365Z</time></trkpt><trkpt lat="38.0331367" lon="15.71963"><ele>683.8</ele><time>2026-04-24T09:41:44.366Z</time></trkpt><trkpt lat="38.0331567" lon="15.71974"><ele>686.0</ele><time>2026-04-24T09:41:46.366Z</time></trkpt><trkpt lat="38.0332033" lon="15.7198883"><ele>686.0</ele><time>2026-04-24T09:41:48.365Z</time></trkpt><trkpt lat="38.03322" lon="15.7199717"><ele>686.0</ele><time>2026-04-24T09:41:49.366Z</time></trkpt><trkpt lat="38.0332317" lon="15.7200617"><ele>686.0</ele><time>2026-04-24T09:41:50.366Z</time></trkpt><trkpt lat="38.03323" lon="15.7201417"><ele>686.0</ele><time>2026-04-24T09:41:51.365Z</time></trkpt><trkpt lat="38.03318" lon="15.7203033"><ele>686.0</ele><time>2026-04-24T09:41:53.366Z</time></trkpt><trkpt lat="38.0331317" lon="15.7203783"><ele>686.0</ele><time>2026-04-24T09:41:54.365Z</time></trkpt><trkpt lat="38.0330617" lon="15.7204233"><ele>686.0</ele><time>2026-04-24T09:41:56.366Z</time></trkpt><trkpt lat="38.0330283" lon="15.7203433"><ele>686.0</ele><time>2026-04-24T09:41:59.365Z</time></trkpt><trkpt lat="38.0330583" lon="15.7202483"><ele>686.0</ele><time>2026-04-24T09:42:03.365Z</time></trkpt><trkpt lat="38.0330583" lon="15.7201217"><ele>686.0</ele><time>2026-04-24T09:42:06.366Z</time></trkpt><trkpt lat="38.0329867" lon="15.72002"><ele>686.0</ele><time>2026-04-24T09:42:08.365Z</time></trkpt><trkpt lat="38.0329" lon="15.719925"><ele>686.0</ele><time>2026-04-24T09:42:10.365Z</time></trkpt><trkpt lat="38.0328533" lon="15.7198633"><ele>686.0</ele><time>2026-04-24T09:42:11.365Z</time></trkpt><trkpt lat="38.0327983" lon="15.7198117"><ele>686.0</ele><time>2026-04-24T09:42:12.366Z</time></trkpt><trkpt lat="38.032745" lon="15.719755"><ele>686.0</ele><time>2026-04-24T09:42:13.365Z</time></trkpt><trkpt lat="38.0327017" lon="15.71969"><ele>686.0</ele><time>2026-04-24T09:42:14.365Z</time></trkpt><trkpt lat="38.0326517" lon="15.7196117"><ele>686.0</ele><time>2026-04-24T09:42:15.365Z</time></trkpt><trkpt lat="38.032615" lon="15.7195417"><ele>686.0</ele><time>2026-04-24T09:42:16.366Z</time></trkpt><trkpt lat="38.0325783" lon="15.7194717"><ele>687.0</ele><time>2026-04-24T09:42:17.366Z</time></trkpt><trkpt lat="38.0325133" lon="15.7193817"><ele>688.0</ele><time>2026-04-24T09:42:19.366Z</time></trkpt><trkpt lat="38.0324633" lon="15.7192983"><ele>689.0</ele><time>2026-04-24T09:42:22.365Z</time></trkpt><trkpt lat="38.03248" lon="15.7192"><ele>690.0</ele><time>2026-04-24T09:46:16.365Z</time></trkpt><trkpt lat="38.032585" lon="15.7191233"><ele>691.0</ele><time>2026-04-24T09:46:18.365Z</time></trkpt><trkpt lat="38.0326383" lon="15.7190733"><ele>692.0</ele><time>2026-04-24T09:46:19.366Z</time></trkpt><trkpt lat="38.0326433" lon="15.7189567"><ele>692.0</ele><time>2026-04-24T09:46:21.365Z</time></trkpt><trkpt lat="38.0325817" lon="15.7188317"><ele>692.0</ele><time>2026-04-24T09:46:23.365Z</time></trkpt><trkpt lat="38.03254" lon="15.7187633"><ele>692.0</ele><time>2026-04-24T09:46:24.365Z</time></trkpt><trkpt lat="38.032495" lon="15.718695"><ele>692.0</ele><time>2026-04-24T09:46:25.365Z</time></trkpt><trkpt lat="38.0324517" lon="15.7186317"><ele>692.0</ele><time>2026-04-24T09:46:26.365Z</time></trkpt><trkpt lat="38.0324067" lon="15.718565"><ele>692.0</ele><time>2026-04-24T09:46:27.366Z</time></trkpt><trkpt lat="38.0323667" lon="15.7184967"><ele>694.8</ele><time>2026-04-24T09:46:28.366Z</time></trkpt><trkpt lat="38.032325" lon="15.7183717"><ele>697.6</ele><time>2026-04-24T09:46:30.365Z</time></trkpt><trkpt lat="38.03234" lon="15.718245"><ele>700.4</ele><time>2026-04-24T09:46:32.365Z</time></trkpt><trkpt lat="38.0323483" lon="15.7181017"><ele>703.1999999999999</ele><time>2026-04-24T09:46:34.365Z</time></trkpt><trkpt lat="38.0323017" lon="15.71797"><ele>706.0</ele><time>2026-04-24T09:46:36.365Z</time></trkpt><trkpt lat="38.03226" lon="15.71791"><ele>706.0</ele><time>2026-04-24T09:46:37.365Z</time></trkpt><trkpt lat="38.032215" lon="15.7178383"><ele>706.0</ele><time>2026-04-24T09:46:38.366Z</time></trkpt><trkpt lat="38.03218" lon="15.7177633"><ele>706.0</ele><time>2026-04-24T09:46:39.366Z</time></trkpt><trkpt lat="38.0321417" lon="15.717695"><ele>706.0</ele><time>2026-04-24T09:46:40.365Z</time></trkpt><trkpt lat="38.032075" lon="15.7175783"><ele>706.0</ele><time>2026-04-24T09:46:42.366Z</time></trkpt><trkpt lat="38.0319983" lon="15.7174633"><ele>706.0</ele><time>2026-04-24T09:46:44.365Z</time></trkpt><trkpt lat="38.0318917" lon="15.7173867"><ele>703.8</ele><time>2026-04-24T09:46:46.365Z</time></trkpt><trkpt lat="38.0317767" lon="15.7173783"><ele>701.5999999999999</ele><time>2026-04-24T09:46:48.364Z</time></trkpt><trkpt lat="38.0316667" lon="15.7173933"><ele>699.4</ele><time>2026-04-24T09:46:50.365Z</time></trkpt><trkpt lat="38.0315767" lon="15.7174133"><ele>697.2</ele><time>2026-04-24T09:46:52.365Z</time></trkpt><trkpt lat="38.0314783" lon="15.71742"><ele>695.0</ele><time>2026-04-24T09:46:54.365Z</time></trkpt><trkpt lat="38.0314067" lon="15.71736"><ele>698.2</ele><time>2026-04-24T09:46:56.365Z</time></trkpt><trkpt lat="38.0314183" lon="15.717255"><ele>701.4</ele><time>2026-04-24T09:46:58.365Z</time></trkpt><trkpt lat="38.0314433" lon="15.71711"><ele>704.5999999999999</ele><time>2026-04-24T09:47:00.364Z</time></trkpt><trkpt lat="38.0314517" lon="15.71703"><ele>707.8</ele><time>2026-04-24T09:47:01.364Z</time></trkpt><trkpt lat="38.0314367" lon="15.7168967"><ele>711.0</ele><time>2026-04-24T09:47:03.364Z</time></trkpt><trkpt lat="38.0313767" lon="15.71679"><ele>711.0</ele><time>2026-04-24T09:47:05.365Z</time></trkpt><trkpt lat="38.031305" lon="15.7167133"><ele>711.0</ele><time>2026-04-24T09:47:07.364Z</time></trkpt><trkpt lat="38.0311967" lon="15.7166883"><ele>711.0</ele><time>2026-04-24T09:47:09.365Z</time></trkpt><trkpt lat="38.03108" lon="15.7167133"><ele>711.0</ele><time>2026-04-24T09:47:11.365Z</time></trkpt><trkpt lat="38.0309767" lon="15.7166483"><ele>711.0</ele><time>2026-04-24T09:47:13.365Z</time></trkpt><trkpt lat="38.0309467" lon="15.7165133"><ele>711.0</ele><time>2026-04-24T09:47:15.365Z</time></trkpt><trkpt lat="38.030905" lon="15.7163783"><ele>711.0</ele><time>2026-04-24T09:47:17.364Z</time></trkpt><trkpt lat="38.0308567" lon="15.7163233"><ele>711.0</ele><time>2026-04-24T09:47:18.364Z</time></trkpt><trkpt lat="38.0307983" lon="15.7162833"><ele>711.0</ele><time>2026-04-24T09:47:19.364Z</time></trkpt><trkpt lat="38.0307367" lon="15.7162533"><ele>711.0</ele><time>2026-04-24T09:47:20.365Z</time></trkpt><trkpt lat="38.030665" lon="15.7162383"><ele>711.0</ele><time>2026-04-24T09:47:21.365Z</time></trkpt><trkpt lat="38.0305933" lon="15.7162367"><ele>711.4</ele><time>2026-04-24T09:47:22.365Z</time></trkpt><trkpt lat="38.03052" lon="15.716255"><ele>711.8</ele><time>2026-04-24T09:47:23.365Z</time></trkpt><trkpt lat="38.0304517" lon="15.7162683"><ele>712.1999999999999</ele><time>2026-04-24T09:47:24.364Z</time></trkpt><trkpt lat="38.030345" lon="15.7162483"><ele>712.5999999999999</ele><time>2026-04-24T09:47:26.365Z</time></trkpt><trkpt lat="38.030265" lon="15.7161133"><ele>713.0</ele><time>2026-04-24T09:47:28.365Z</time></trkpt><trkpt lat="38.0302517" lon="15.7160217"><ele>713.0</ele><time>2026-04-24T09:47:29.364Z</time></trkpt><trkpt lat="38.0302367" lon="15.7159367"><ele>713.0</ele><time>2026-04-24T09:47:30.364Z</time></trkpt><trkpt lat="38.0302183" lon="15.7158417"><ele>713.0</ele><time>2026-04-24T09:47:31.364Z</time></trkpt><trkpt lat="38.0301933" lon="15.71575"><ele>713.0</ele><time>2026-04-24T09:47:32.365Z</time></trkpt><trkpt lat="38.03015" lon="15.7156283"><ele>713.0</ele><time>2026-04-24T09:47:34.364Z</time></trkpt><trkpt lat="38.0300983" lon="15.71553"><ele>713.0</ele><time>2026-04-24T09:47:36.364Z</time></trkpt><trkpt lat="38.0300367" lon="15.7154233"><ele>713.0</ele><time>2026-04-24T09:47:38.364Z</time></trkpt><trkpt lat="38.0300017" lon="15.7153567"><ele>713.0</ele><time>2026-04-24T09:47:39.365Z</time></trkpt><trkpt lat="38.0299433" lon="15.7152617"><ele>713.0</ele><time>2026-04-24T09:47:41.365Z</time></trkpt><trkpt lat="38.0298817" lon="15.7153017"><ele>713.0</ele><time>2026-04-24T09:47:45.364Z</time></trkpt><trkpt lat="38.0299217" lon="15.715365"><ele>713.0</ele><time>2026-04-24T09:47:47.364Z</time></trkpt><trkpt lat="38.0299683" lon="15.715485"><ele>713.0</ele><time>2026-04-24T09:47:49.364Z</time></trkpt><trkpt lat="38.0299933" lon="15.7155667"><ele>713.0</ele><time>2026-04-24T09:47:50.364Z</time></trkpt><trkpt lat="38.03002" lon="15.7156567"><ele>713.0</ele><time>2026-04-24T09:47:51.364Z</time></trkpt><trkpt lat="38.0300367" lon="15.7157483"><ele>713.0</ele><time>2026-04-24T09:47:52.365Z</time></trkpt><trkpt lat="38.03005" lon="15.7158383"><ele>713.0</ele><time>2026-04-24T09:47:53.365Z</time></trkpt><trkpt lat="38.0300683" lon="15.7159267"><ele>713.0</ele><time>2026-04-24T09:47:54.364Z</time></trkpt><trkpt lat="38.0300833" lon="15.71602"><ele>713.0</ele><time>2026-04-24T09:47:55.364Z</time></trkpt><trkpt lat="38.0300933" lon="15.7161067"><ele>713.0</ele><time>2026-04-24T09:47:56.365Z</time></trkpt><trkpt lat="38.030095" lon="15.7161867"><ele>713.5</ele><time>2026-04-24T09:47:57.364Z</time></trkpt><trkpt lat="38.0300833" lon="15.716315"><ele>714.0</ele><time>2026-04-24T09:47:59.364Z</time></trkpt><trkpt lat="38.030085" lon="15.71647"><ele>714.5</ele><time>2026-04-24T09:48:01.365Z</time></trkpt><trkpt lat="38.0301133" lon="15.7165583"><ele>715.0</ele><time>2026-04-24T09:48:02.365Z</time></trkpt><trkpt lat="38.0301533" lon="15.7166367"><ele>715.5</ele><time>2026-04-24T09:48:03.364Z</time></trkpt><trkpt lat="38.030195" lon="15.7167183"><ele>716.0</ele><time>2026-04-24T09:48:04.364Z</time></trkpt><trkpt lat="38.03023" lon="15.716805"><ele>716.0</ele><time>2026-04-24T09:48:05.365Z</time></trkpt><trkpt lat="38.0302583" lon="15.71689"><ele>716.0</ele><time>2026-04-24T09:48:06.365Z</time></trkpt><trkpt lat="38.0302883" lon="15.7169767"><ele>716.0</ele><time>2026-04-24T09:48:07.365Z</time></trkpt><trkpt lat="38.0303233" lon="15.7170717"><ele>716.0</ele><time>2026-04-24T09:48:08.365Z</time></trkpt><trkpt lat="38.0303733" lon="15.717165"><ele>716.0</ele><time>2026-04-24T09:48:09.365Z</time></trkpt><trkpt lat="38.0304317" lon="15.7172567"><ele>716.0</ele><time>2026-04-24T09:48:10.365Z</time></trkpt><trkpt lat="38.0304883" lon="15.7173717"><ele>715.8</ele><time>2026-04-24T09:48:11.365Z</time></trkpt><trkpt lat="38.030525" lon="15.7175"><ele>715.5999999999999</ele><time>2026-04-24T09:48:12.364Z</time></trkpt><trkpt lat="38.03054" lon="15.71762"><ele>715.4</ele><time>2026-04-24T09:48:13.365Z</time></trkpt><trkpt lat="38.03053" lon="15.717755"><ele>715.2</ele><time>2026-04-24T09:48:14.365Z</time></trkpt><trkpt lat="38.0305083" lon="15.7178883"><ele>715.0</ele><time>2026-04-24T09:48:15.364Z</time></trkpt><trkpt lat="38.0304917" lon="15.7180133"><ele>716.6</ele><time>2026-04-24T09:48:16.364Z</time></trkpt><trkpt lat="38.0304683" lon="15.7181317"><ele>718.2</ele><time>2026-04-24T09:48:17.364Z</time></trkpt><trkpt lat="38.03044" lon="15.7182417"><ele>719.8</ele><time>2026-04-24T09:48:18.364Z</time></trkpt><trkpt lat="38.0303967" lon="15.7183517"><ele>721.4</ele><time>2026-04-24T09:48:19.365Z</time></trkpt><trkpt lat="38.0303467" lon="15.71846"><ele>723.0</ele><time>2026-04-24T09:48:20.364Z</time></trkpt><trkpt lat="38.03029" lon="15.7185683"><ele>724.0</ele><time>2026-04-24T09:48:21.365Z</time></trkpt><trkpt lat="38.0302317" lon="15.71867"><ele>725.0</ele><time>2026-04-24T09:48:22.364Z</time></trkpt><trkpt lat="38.0301817" lon="15.7187767"><ele>726.0</ele><time>2026-04-24T09:48:23.364Z</time></trkpt><trkpt lat="38.0301467" lon="15.7188867"><ele>727.0</ele><time>2026-04-24T09:48:24.364Z</time></trkpt><trkpt lat="38.030125" lon="15.7190017"><ele>728.0</ele><time>2026-04-24T09:48:25.365Z</time></trkpt><trkpt lat="38.0301" lon="15.7191083"><ele>728.0</ele><time>2026-04-24T09:48:26.365Z</time></trkpt><trkpt lat="38.0300717" lon="15.7191983"><ele>728.0</ele><time>2026-04-24T09:48:27.364Z</time></trkpt><trkpt lat="38.030035" lon="15.7192667"><ele>728.0</ele><time>2026-04-24T09:48:28.364Z</time></trkpt><trkpt lat="38.0299867" lon="15.719345"><ele>728.0</ele><time>2026-04-24T09:48:30.364Z</time></trkpt><trkpt lat="38.0299417" lon="15.7194233"><ele>728.0</ele><time>2026-04-24T09:48:34.364Z</time></trkpt><trkpt lat="38.0299033" lon="15.7194983"><ele>728.0</ele><time>2026-04-24T09:48:37.365Z</time></trkpt><trkpt lat="38.0298667" lon="15.7195733"><ele>728.0</ele><time>2026-04-24T09:48:39.364Z</time></trkpt><trkpt lat="38.029845" lon="15.7196583"><ele>731.2</ele><time>2026-04-24T09:48:41.364Z</time></trkpt><trkpt lat="38.0298417" lon="15.719765"><ele>734.4</ele><time>2026-04-24T09:48:43.364Z</time></trkpt><trkpt lat="38.0298317" lon="15.71989"><ele>737.6</ele><time>2026-04-24T09:48:45.364Z</time></trkpt><trkpt lat="38.02983" lon="15.7200117"><ele>740.8000000000001</ele><time>2026-04-24T09:48:47.365Z</time></trkpt><trkpt lat="38.0298317" lon="15.7201217"><ele>744.0</ele><time>2026-04-24T09:48:49.364Z</time></trkpt><trkpt lat="38.0298417" lon="15.7202367"><ele>744.8000000000001</ele><time>2026-04-24T09:48:51.364Z</time></trkpt><trkpt lat="38.0298333" lon="15.7203467"><ele>745.6</ele><time>2026-04-24T09:48:53.365Z</time></trkpt><trkpt lat="38.0297933" lon="15.7204633"><ele>746.4</ele><time>2026-04-24T09:48:55.365Z</time></trkpt><trkpt lat="38.029725" lon="15.7205467"><ele>747.2</ele><time>2026-04-24T09:48:57.364Z</time></trkpt><trkpt lat="38.0296483" lon="15.7206017"><ele>748.0</ele><time>2026-04-24T09:48:59.364Z</time></trkpt><trkpt lat="38.0295667" lon="15.7206383"><ele>748.0</ele><time>2026-04-24T09:49:01.364Z</time></trkpt><trkpt lat="38.02947" lon="15.7206817"><ele>748.0</ele><time>2026-04-24T09:49:03.364Z</time></trkpt><trkpt lat="38.02937" lon="15.720725"><ele>748.0</ele><time>2026-04-24T09:49:05.364Z</time></trkpt><trkpt lat="38.0292733" lon="15.7207567"><ele>748.0</ele><time>2026-04-24T09:49:07.365Z</time></trkpt><trkpt lat="38.0291767" lon="15.720795"><ele>748.0</ele><time>2026-04-24T09:49:09.365Z</time></trkpt><trkpt lat="38.0290833" lon="15.7208333"><ele>748.0</ele><time>2026-04-24T09:49:11.364Z</time></trkpt><trkpt lat="38.0289883" lon="15.7208883"><ele>748.0</ele><time>2026-04-24T09:49:13.364Z</time></trkpt><trkpt lat="38.0289133" lon="15.72097"><ele>748.0</ele><time>2026-04-24T09:49:15.365Z</time></trkpt><trkpt lat="38.0288533" lon="15.7210867"><ele>748.0</ele><time>2026-04-24T09:49:17.364Z</time></trkpt><trkpt lat="38.02881" lon="15.721235"><ele>748.0</ele><time>2026-04-24T09:49:19.364Z</time></trkpt><trkpt lat="38.0287883" lon="15.7213117"><ele>749.0</ele><time>2026-04-24T09:49:20.364Z</time></trkpt><trkpt lat="38.0287767" lon="15.7213933"><ele>750.0</ele><time>2026-04-24T09:49:21.364Z</time></trkpt><trkpt lat="38.0287983" lon="15.7215517"><ele>751.0</ele><time>2026-04-24T09:49:23.365Z</time></trkpt><trkpt lat="38.0288117" lon="15.7216383"><ele>752.0</ele><time>2026-04-24T09:49:24.365Z</time></trkpt><trkpt lat="38.02882" lon="15.7217217"><ele>753.0</ele><time>2026-04-24T09:49:25.364Z</time></trkpt><trkpt lat="38.0288083" lon="15.7218067"><ele>754.0</ele><time>2026-04-24T09:49:26.365Z</time></trkpt><trkpt lat="38.028785" lon="15.7218917"><ele>755.7142857142857</ele><time>2026-04-24T09:49:27.365Z</time></trkpt><trkpt lat="38.0287567" lon="15.7219733"><ele>757.4285714285714</ele><time>2026-04-24T09:49:28.364Z</time></trkpt><trkpt lat="38.0287267" lon="15.722055"><ele>759.1428571428571</ele><time>2026-04-24T09:49:29.364Z</time></trkpt><trkpt lat="38.028695" lon="15.72214"><ele>760.8571428571429</ele><time>2026-04-24T09:49:30.365Z</time></trkpt><trkpt lat="38.0286733" lon="15.7222267"><ele>762.5714285714286</ele><time>2026-04-24T09:49:31.364Z</time></trkpt><trkpt lat="38.0286567" lon="15.7223217"><ele>764.2857142857142</ele><time>2026-04-24T09:49:32.364Z</time></trkpt><trkpt lat="38.0286417" lon="15.7224233"><ele>766.0</ele><time>2026-04-24T09:49:33.364Z</time></trkpt><trkpt lat="38.0286433" lon="15.7225133"><ele>766.0</ele><time>2026-04-24T09:49:34.365Z</time></trkpt><trkpt lat="38.0286583" lon="15.7226117"><ele>766.0</ele><time>2026-04-24T09:49:35.365Z</time></trkpt><trkpt lat="38.0286783" lon="15.7227167"><ele>766.0</ele><time>2026-04-24T09:49:36.364Z</time></trkpt><trkpt lat="38.0287017" lon="15.7228167"><ele>766.0</ele><time>2026-04-24T09:49:37.365Z</time></trkpt><trkpt lat="38.0287117" lon="15.7229133"><ele>766.0</ele><time>2026-04-24T09:49:38.364Z</time></trkpt><trkpt lat="38.0287267" lon="15.7229967"><ele>766.0</ele><time>2026-04-24T09:49:39.365Z</time></trkpt><trkpt lat="38.0287333" lon="15.72315"><ele>767.1428571428571</ele><time>2026-04-24T09:49:41.364Z</time></trkpt><trkpt lat="38.0287233" lon="15.7232367"><ele>768.2857142857142</ele><time>2026-04-24T09:49:42.364Z</time></trkpt><trkpt lat="38.0287167" lon="15.7233267"><ele>769.4285714285714</ele><time>2026-04-24T09:49:43.364Z</time></trkpt><trkpt lat="38.0287067" lon="15.7234167"><ele>770.5714285714286</ele><time>2026-04-24T09:49:44.364Z</time></trkpt><trkpt lat="38.028695" lon="15.723505"><ele>771.7142857142858</ele><time>2026-04-24T09:49:45.365Z</time></trkpt><trkpt lat="38.02868" lon="15.723585"><ele>772.8571428571429</ele><time>2026-04-24T09:49:46.364Z</time></trkpt><trkpt lat="38.028665" lon="15.7236683"><ele>774.0</ele><time>2026-04-24T09:49:47.364Z</time></trkpt><trkpt lat="38.0286633" lon="15.7237533"><ele>775.0</ele><time>2026-04-24T09:49:48.365Z</time></trkpt><trkpt lat="38.0286633" lon="15.7238417"><ele>776.0</ele><time>2026-04-24T09:49:49.365Z</time></trkpt><trkpt lat="38.0286617" lon="15.7239267"><ele>777.0</ele><time>2026-04-24T09:49:50.364Z</time></trkpt><trkpt lat="38.0286583" lon="15.724015"><ele>778.0</ele><time>2026-04-24T09:49:51.365Z</time></trkpt><trkpt lat="38.028655" lon="15.72411"><ele>779.0</ele><time>2026-04-24T09:49:52.365Z</time></trkpt><trkpt lat="38.0286717" lon="15.724195"><ele>780.0</ele><time>2026-04-24T09:49:53.364Z</time></trkpt><trkpt lat="38.0287033" lon="15.72428"><ele>781.0</ele><time>2026-04-24T09:49:54.364Z</time></trkpt><trkpt lat="38.0287383" lon="15.7243667"><ele>781.8571428571429</ele><time>2026-04-24T09:49:55.365Z</time></trkpt><trkpt lat="38.0287683" lon="15.7244567"><ele>782.7142857142858</ele><time>2026-04-24T09:49:56.364Z</time></trkpt><trkpt lat="38.0287883" lon="15.72456"><ele>783.5714285714286</ele><time>2026-04-24T09:49:57.364Z</time></trkpt><trkpt lat="38.0288017" lon="15.724655"><ele>784.4285714285714</ele><time>2026-04-24T09:49:58.364Z</time></trkpt><trkpt lat="38.0288233" lon="15.72475"><ele>785.2857142857142</ele><time>2026-04-24T09:49:59.364Z</time></trkpt><trkpt lat="38.0288467" lon="15.7248333"><ele>786.1428571428571</ele><time>2026-04-24T09:50:00.364Z</time></trkpt><trkpt lat="38.0288683" lon="15.72491"><ele>787.0</ele><time>2026-04-24T09:50:01.365Z</time></trkpt><trkpt lat="38.0288933" lon="15.725035"><ele>787.0</ele><time>2026-04-24T09:50:03.364Z</time></trkpt><trkpt lat="38.0288633" lon="15.7251283"><ele>787.0</ele><time>2026-04-24T09:50:05.364Z</time></trkpt><trkpt lat="38.0287717" lon="15.7251683"><ele>787.0</ele><time>2026-04-24T09:50:07.365Z</time></trkpt><trkpt lat="38.0286833" lon="15.725225"><ele>787.0</ele><time>2026-04-24T09:50:09.364Z</time></trkpt><trkpt lat="38.028595" lon="15.7253067"><ele>787.0</ele><time>2026-04-24T09:50:11.365Z</time></trkpt><trkpt lat="38.0285383" lon="15.725425"><ele>786.9999999999999</ele><time>2026-04-24T09:50:13.364Z</time></trkpt><trkpt lat="38.0285117" lon="15.725505"><ele>787.0</ele><time>2026-04-24T09:50:14.365Z</time></trkpt><trkpt lat="38.028485" lon="15.7255833"><ele>787.0</ele><time>2026-04-24T09:50:15.365Z</time></trkpt><trkpt lat="38.0284233" lon="15.7257133"><ele>787.0</ele><time>2026-04-24T09:50:17.364Z</time></trkpt><trkpt lat="38.0283817" lon="15.72579"><ele>786.9999999999999</ele><time>2026-04-24T09:50:18.365Z</time></trkpt><trkpt lat="38.02834" lon="15.7259017"><ele>787.0</ele><time>2026-04-24T09:50:19.365Z</time></trkpt><trkpt lat="38.0282983" lon="15.7260117"><ele>787.9999999999999</ele><time>2026-04-24T09:50:20.364Z</time></trkpt><trkpt lat="38.028255" lon="15.7261183"><ele>789.0</ele><time>2026-04-24T09:50:21.364Z</time></trkpt><trkpt lat="38.0282283" lon="15.7262117"><ele>790.0</ele><time>2026-04-24T09:50:22.365Z</time></trkpt><trkpt lat="38.02822" lon="15.7263017"><ele>791.0</ele><time>2026-04-24T09:50:23.365Z</time></trkpt><trkpt lat="38.0282533" lon="15.7264517"><ele>791.9999999999999</ele><time>2026-04-24T09:50:25.365Z</time></trkpt><trkpt lat="38.0282967" lon="15.7265333"><ele>793.0</ele><time>2026-04-24T09:50:26.364Z</time></trkpt><trkpt lat="38.0283483" lon="15.72662"><ele>793.2</ele><time>2026-04-24T09:50:27.365Z</time></trkpt><trkpt lat="38.0284033" lon="15.7267167"><ele>793.4</ele><time>2026-04-24T09:50:28.364Z</time></trkpt><trkpt lat="38.0284517" lon="15.72682"><ele>793.6</ele><time>2026-04-24T09:50:29.365Z</time></trkpt><trkpt lat="38.0284733" lon="15.7269167"><ele>793.8000000000001</ele><time>2026-04-24T09:50:30.365Z</time></trkpt><trkpt lat="38.0284767" lon="15.7269983"><ele>794.0</ele><time>2026-04-24T09:50:31.365Z</time></trkpt><trkpt lat="38.0284633" lon="15.72716"><ele>794.6666666666667</ele><time>2026-04-24T09:50:33.364Z</time></trkpt><trkpt lat="38.0284567" lon="15.727245"><ele>795.3333333333334</ele><time>2026-04-24T09:50:34.365Z</time></trkpt><trkpt lat="38.02845" lon="15.7273567"><ele>796.0</ele><time>2026-04-24T09:50:35.365Z</time></trkpt><trkpt lat="38.0284467" lon="15.727485"><ele>796.6666666666667</ele><time>2026-04-24T09:50:36.365Z</time></trkpt><trkpt lat="38.0284483" lon="15.7276067"><ele>797.3333333333334</ele><time>2026-04-24T09:50:37.365Z</time></trkpt><trkpt lat="38.0284317" lon="15.727715"><ele>798.0</ele><time>2026-04-24T09:50:38.364Z</time></trkpt><trkpt lat="38.0283883" lon="15.7278167"><ele>798.6666666666666</ele><time>2026-04-24T09:50:39.365Z</time></trkpt><trkpt lat="38.0283317" lon="15.72791"><ele>799.3333333333333</ele><time>2026-04-24T09:50:40.364Z</time></trkpt><trkpt lat="38.02828" lon="15.7279867"><ele>800.0</ele><time>2026-04-24T09:50:41.364Z</time></trkpt><trkpt lat="38.02824" lon="15.7280533"><ele>800.6666666666666</ele><time>2026-04-24T09:50:42.365Z</time></trkpt><trkpt lat="38.0281333" lon="15.7281467"><ele>801.3333333333333</ele><time>2026-04-24T09:50:44.364Z</time></trkpt><trkpt lat="38.02806" lon="15.72818"><ele>802.0</ele><time>2026-04-24T09:50:45.364Z</time></trkpt><trkpt lat="38.0279767" lon="15.7282067"><ele>803.2</ele><time>2026-04-24T09:50:46.364Z</time></trkpt><trkpt lat="38.02789" lon="15.728245"><ele>804.4000000000001</ele><time>2026-04-24T09:50:47.365Z</time></trkpt><trkpt lat="38.0278067" lon="15.72829"><ele>805.5999999999999</ele><time>2026-04-24T09:50:48.364Z</time></trkpt><trkpt lat="38.0277183" lon="15.7283517"><ele>806.8</ele><time>2026-04-24T09:50:49.364Z</time></trkpt><trkpt lat="38.0276467" lon="15.72842"><ele>808.0</ele><time>2026-04-24T09:50:50.364Z</time></trkpt><trkpt lat="38.0275983" lon="15.728505"><ele>808.3333333333333</ele><time>2026-04-24T09:50:51.364Z</time></trkpt><trkpt lat="38.02757" lon="15.7286033"><ele>808.6666666666666</ele><time>2026-04-24T09:50:52.364Z</time></trkpt><trkpt lat="38.02757" lon="15.728705"><ele>809.0</ele><time>2026-04-24T09:50:53.365Z</time></trkpt><trkpt lat="38.0275783" lon="15.7287933"><ele>809.3333333333333</ele><time>2026-04-24T09:50:54.364Z</time></trkpt><trkpt lat="38.0276217" lon="15.7289267"><ele>809.6666666666666</ele><time>2026-04-24T09:50:56.364Z</time></trkpt><trkpt lat="38.027665" lon="15.728995"><ele>810.0</ele><time>2026-04-24T09:50:57.365Z</time></trkpt><trkpt lat="38.02772" lon="15.7290667"><ele>810.0</ele><time>2026-04-24T09:50:58.364Z</time></trkpt><trkpt lat="38.027775" lon="15.7291433"><ele>810.0</ele><time>2026-04-24T09:50:59.365Z</time></trkpt><trkpt lat="38.02784" lon="15.7292267"><ele>810.0</ele><time>2026-04-24T09:51:00.364Z</time></trkpt><trkpt lat="38.027905" lon="15.7293083"><ele>810.0</ele><time>2026-04-24T09:51:01.364Z</time></trkpt><trkpt lat="38.0279683" lon="15.7293783"><ele>810.0</ele><time>2026-04-24T09:51:02.364Z</time></trkpt><trkpt lat="38.02804" lon="15.7294267"><ele>810.0</ele><time>2026-04-24T09:51:03.365Z</time></trkpt><trkpt lat="38.0281217" lon="15.729455"><ele>809.8333333333334</ele><time>2026-04-24T09:51:04.364Z</time></trkpt><trkpt lat="38.0282067" lon="15.7294833"><ele>809.6666666666667</ele><time>2026-04-24T09:51:05.364Z</time></trkpt><trkpt lat="38.0282817" lon="15.7295383"><ele>809.5</ele><time>2026-04-24T09:51:06.364Z</time></trkpt><trkpt lat="38.028345" lon="15.7296117"><ele>809.3333333333334</ele><time>2026-04-24T09:51:07.364Z</time></trkpt><trkpt lat="38.0283983" lon="15.7296983"><ele>809.1666666666667</ele><time>2026-04-24T09:51:08.365Z</time></trkpt><trkpt lat="38.0284417" lon="15.7297983"><ele>809.0</ele><time>2026-04-24T09:51:09.364Z</time></trkpt><trkpt lat="38.0284717" lon="15.7299067"><ele>809.0000000000001</ele><time>2026-04-24T09:51:10.364Z</time></trkpt><trkpt lat="38.0284867" lon="15.7300167"><ele>809.0</ele><time>2026-04-24T09:51:11.364Z</time></trkpt><trkpt lat="38.0284967" lon="15.7301233"><ele>809.0</ele><time>2026-04-24T09:51:12.364Z</time></trkpt><trkpt lat="38.0284983" lon="15.7302217"><ele>809.0</ele><time>2026-04-24T09:51:13.364Z</time></trkpt><trkpt lat="38.0284917" lon="15.7303117"><ele>809.0000000000001</ele><time>2026-04-24T09:51:14.364Z</time></trkpt><trkpt lat="38.0284467" lon="15.7304617"><ele>809.0</ele><time>2026-04-24T09:51:16.364Z</time></trkpt><trkpt lat="38.028405" lon="15.730575"><ele>808.0</ele><time>2026-04-24T09:51:18.365Z</time></trkpt><trkpt lat="38.0284183" lon="15.730665"><ele>807.0</ele><time>2026-04-24T09:51:20.365Z</time></trkpt><trkpt lat="38.0284367" lon="15.7308233"><ele>806.0</ele><time>2026-04-24T09:51:22.365Z</time></trkpt><trkpt lat="38.02845" lon="15.7309367"><ele>805.0</ele><time>2026-04-24T09:51:23.364Z</time></trkpt><trkpt lat="38.02847" lon="15.73105"><ele>804.0</ele><time>2026-04-24T09:51:24.364Z</time></trkpt><trkpt lat="38.0285017" lon="15.7311517"><ele>803.0</ele><time>2026-04-24T09:51:25.365Z</time></trkpt><trkpt lat="38.0285567" lon="15.731235"><ele>802.0</ele><time>2026-04-24T09:51:26.364Z</time></trkpt><trkpt lat="38.0286283" lon="15.7313067"><ele>801.0</ele><time>2026-04-24T09:51:27.365Z</time></trkpt><trkpt lat="38.0286983" lon="15.73138"><ele>800.0</ele><time>2026-04-24T09:51:28.365Z</time></trkpt><trkpt lat="38.028745" lon="15.73147"><ele>799.0</ele><time>2026-04-24T09:51:29.364Z</time></trkpt><trkpt lat="38.028785" lon="15.73158"><ele>798.0</ele><time>2026-04-24T09:51:30.365Z</time></trkpt><trkpt lat="38.028825" lon="15.7316883"><ele>798.0</ele><time>2026-04-24T09:51:31.365Z</time></trkpt><trkpt lat="38.0288517" lon="15.7317833"><ele>798.0</ele><time>2026-04-24T09:51:32.365Z</time></trkpt><trkpt lat="38.0288583" lon="15.73188"><ele>798.0</ele><time>2026-04-24T09:51:33.365Z</time></trkpt><trkpt lat="38.02885" lon="15.73198"><ele>798.0</ele><time>2026-04-24T09:51:34.364Z</time></trkpt><trkpt lat="38.0288317" lon="15.732085"><ele>798.0</ele><time>2026-04-24T09:51:35.365Z</time></trkpt><trkpt lat="38.028805" lon="15.732185"><ele>798.0</ele><time>2026-04-24T09:51:36.364Z</time></trkpt><trkpt lat="38.0287783" lon="15.7322833"><ele>798.6666666666666</ele><time>2026-04-24T09:51:37.365Z</time></trkpt><trkpt lat="38.0287517" lon="15.7323717"><ele>799.3333333333333</ele><time>2026-04-24T09:51:38.364Z</time></trkpt><trkpt lat="38.02871" lon="15.7324467"><ele>800.0</ele><time>2026-04-24T09:51:39.364Z</time></trkpt><trkpt lat="38.0286533" lon="15.7325317"><ele>800.6666666666666</ele><time>2026-04-24T09:51:40.365Z</time></trkpt><trkpt lat="38.0285933" lon="15.7326333"><ele>801.3333333333333</ele><time>2026-04-24T09:51:41.365Z</time></trkpt><trkpt lat="38.0285367" lon="15.7327333"><ele>802.0</ele><time>2026-04-24T09:51:42.364Z</time></trkpt><trkpt lat="38.0284883" lon="15.7328267"><ele>802.3333333333333</ele><time>2026-04-24T09:51:43.365Z</time></trkpt><trkpt lat="38.0284433" lon="15.7329033"><ele>802.6666666666666</ele><time>2026-04-24T09:51:44.364Z</time></trkpt><trkpt lat="38.0283883" lon="15.7329583"><ele>803.0</ele><time>2026-04-24T09:51:45.365Z</time></trkpt><trkpt lat="38.0283233" lon="15.7330017"><ele>803.3333333333333</ele><time>2026-04-24T09:51:46.364Z</time></trkpt><trkpt lat="38.02824" lon="15.733045"><ele>803.6666666666666</ele><time>2026-04-24T09:51:47.364Z</time></trkpt><trkpt lat="38.028145" lon="15.7330967"><ele>804.0</ele><time>2026-04-24T09:51:48.365Z</time></trkpt><trkpt lat="38.0280383" lon="15.7331683"><ele>801.75</ele><time>2026-04-24T09:51:49.365Z</time></trkpt><trkpt lat="38.0279367" lon="15.7332467"><ele>799.5</ele><time>2026-04-24T09:51:50.365Z</time></trkpt><trkpt lat="38.027845" lon="15.7333283"><ele>797.25</ele><time>2026-04-24T09:51:51.365Z</time></trkpt><trkpt lat="38.0277433" lon="15.733425"><ele>795.0</ele><time>2026-04-24T09:51:52.364Z</time></trkpt><trkpt lat="38.0276483" lon="15.733525"><ele>794.25</ele><time>2026-04-24T09:51:53.364Z</time></trkpt><trkpt lat="38.0275617" lon="15.7336067"><ele>793.5</ele><time>2026-04-24T09:51:54.364Z</time></trkpt><trkpt lat="38.0274667" lon="15.73368"><ele>792.75</ele><time>2026-04-24T09:51:55.365Z</time></trkpt><trkpt lat="38.0273567" lon="15.7337517"><ele>792.0</ele><time>2026-04-24T09:51:56.364Z</time></trkpt><trkpt lat="38.02724" lon="15.733815"><ele>789.75</ele><time>2026-04-24T09:51:57.365Z</time></trkpt><trkpt lat="38.0271233" lon="15.7338883"><ele>787.5</ele><time>2026-04-24T09:51:58.365Z</time></trkpt><trkpt lat="38.02701" lon="15.73397"><ele>785.25</ele><time>2026-04-24T09:51:59.365Z</time></trkpt><trkpt lat="38.0269067" lon="15.73405"><ele>783.0</ele><time>2026-04-24T09:52:00.364Z</time></trkpt><trkpt lat="38.02682" lon="15.73414"><ele>783.0</ele><time>2026-04-24T09:52:01.365Z</time></trkpt><trkpt lat="38.0267467" lon="15.7342317"><ele>783.0</ele><time>2026-04-24T09:52:02.364Z</time></trkpt><trkpt lat="38.02669" lon="15.73431"><ele>783.0</ele><time>2026-04-24T09:52:03.365Z</time></trkpt><trkpt lat="38.0266367" lon="15.7343633"><ele>783.0</ele><time>2026-04-24T09:52:04.364Z</time></trkpt><trkpt lat="38.0265233" lon="15.73446"><ele>783.0</ele><time>2026-04-24T09:52:06.365Z</time></trkpt><trkpt lat="38.0264583" lon="15.7345167"><ele>785.3333333333334</ele><time>2026-04-24T09:52:07.364Z</time></trkpt><trkpt lat="38.026395" lon="15.734585"><ele>787.6666666666667</ele><time>2026-04-24T09:52:08.365Z</time></trkpt><trkpt lat="38.0263333" lon="15.7346433"><ele>790.0</ele><time>2026-04-24T09:52:09.365Z</time></trkpt><trkpt lat="38.0262583" lon="15.7346867"><ele>792.3333333333334</ele><time>2026-04-24T09:52:10.365Z</time></trkpt><trkpt lat="38.0261733" lon="15.7347183"><ele>794.6666666666667</ele><time>2026-04-24T09:52:11.365Z</time></trkpt><trkpt lat="38.026095" lon="15.7347333"><ele>797.0</ele><time>2026-04-24T09:52:12.365Z</time></trkpt><trkpt lat="38.0260017" lon="15.734735"><ele>797.0</ele><time>2026-04-24T09:52:13.365Z</time></trkpt><trkpt lat="38.02591" lon="15.7347317"><ele>797.0</ele><time>2026-04-24T09:52:14.364Z</time></trkpt><trkpt lat="38.02582" lon="15.7347617"><ele>797.0</ele><time>2026-04-24T09:52:15.365Z</time></trkpt><trkpt lat="38.025745" lon="15.7348183"><ele>797.0</ele><time>2026-04-24T09:52:16.364Z</time></trkpt><trkpt lat="38.0256933" lon="15.7349133"><ele>797.0</ele><time>2026-04-24T09:52:17.365Z</time></trkpt><trkpt lat="38.025645" lon="15.73502"><ele>797.2</ele><time>2026-04-24T09:52:18.364Z</time></trkpt><trkpt lat="38.025585" lon="15.7351183"><ele>797.4000000000001</ele><time>2026-04-24T09:52:19.364Z</time></trkpt><trkpt lat="38.0255" lon="15.735195"><ele>797.5999999999999</ele><time>2026-04-24T09:52:20.364Z</time></trkpt><trkpt lat="38.0254017" lon="15.73526"><ele>797.8</ele><time>2026-04-24T09:52:21.364Z</time></trkpt><trkpt lat="38.025295" lon="15.7353167"><ele>798.0</ele><time>2026-04-24T09:52:22.364Z</time></trkpt><trkpt lat="38.0251933" lon="15.7353767"><ele>798.25</ele><time>2026-04-24T09:52:23.364Z</time></trkpt><trkpt lat="38.0251" lon="15.7354483"><ele>798.5</ele><time>2026-04-24T09:52:24.364Z</time></trkpt><trkpt lat="38.0249983" lon="15.7355433"><ele>798.75</ele><time>2026-04-24T09:52:25.365Z</time></trkpt><trkpt lat="38.024895" lon="15.73566"><ele>799.0</ele><time>2026-04-24T09:52:26.364Z</time></trkpt><trkpt lat="38.02482" lon="15.7357617"><ele>799.0</ele><time>2026-04-24T09:52:27.364Z</time></trkpt><trkpt lat="38.0247617" lon="15.7358533"><ele>799.0</ele><time>2026-04-24T09:52:28.365Z</time></trkpt><trkpt lat="38.024725" lon="15.7359733"><ele>799.0</ele><time>2026-04-24T09:52:29.364Z</time></trkpt><trkpt lat="38.0246967" lon="15.7361167"><ele>799.0</ele><time>2026-04-24T09:52:30.365Z</time></trkpt><trkpt lat="38.0246783" lon="15.7362683"><ele>799.0</ele><time>2026-04-24T09:52:31.364Z</time></trkpt><trkpt lat="38.0246617" lon="15.7364167"><ele>800.6</ele><time>2026-04-24T09:52:32.365Z</time></trkpt><trkpt lat="38.024635" lon="15.7365183"><ele>802.2</ele><time>2026-04-24T09:52:33.364Z</time></trkpt><trkpt lat="38.0245833" lon="15.7366117"><ele>803.8000000000001</ele><time>2026-04-24T09:52:34.364Z</time></trkpt><trkpt lat="38.0244933" lon="15.736665"><ele>805.4000000000001</ele><time>2026-04-24T09:52:35.365Z</time></trkpt><trkpt lat="38.024405" lon="15.7367217"><ele>807.0</ele><time>2026-04-24T09:52:36.364Z</time></trkpt><trkpt lat="38.0243283" lon="15.736795"><ele>807.0</ele><time>2026-04-24T09:52:37.364Z</time></trkpt><trkpt lat="38.024245" lon="15.7368817"><ele>807.0</ele><time>2026-04-24T09:52:38.365Z</time></trkpt><trkpt lat="38.02414" lon="15.7369783"><ele>807.0</ele><time>2026-04-24T09:52:39.365Z</time></trkpt><trkpt lat="38.0240433" lon="15.73705"><ele>807.0</ele><time>2026-04-24T09:52:40.364Z</time></trkpt><trkpt lat="38.0239767" lon="15.7371"><ele>807.0</ele><time>2026-04-24T09:52:41.364Z</time></trkpt><trkpt lat="38.0239283" lon="15.7371583"><ele>809.1666666666666</ele><time>2026-04-24T09:52:42.364Z</time></trkpt><trkpt lat="38.0238733" lon="15.7372483"><ele>811.3333333333333</ele><time>2026-04-24T09:52:43.364Z</time></trkpt><trkpt lat="38.0238217" lon="15.7373217"><ele>813.5</ele><time>2026-04-24T09:52:44.365Z</time></trkpt><trkpt lat="38.0237583" lon="15.7373633"><ele>815.6666666666666</ele><time>2026-04-24T09:52:45.365Z</time></trkpt><trkpt lat="38.0236867" lon="15.7373817"><ele>817.8333333333333</ele><time>2026-04-24T09:52:46.365Z</time></trkpt><trkpt lat="38.0236133" lon="15.7373783"><ele>820.0</ele><time>2026-04-24T09:52:47.365Z</time></trkpt><trkpt lat="38.0235133" lon="15.7373417"><ele>820.0</ele><time>2026-04-24T09:52:48.364Z</time></trkpt><trkpt lat="38.0234083" lon="15.7372817"><ele>820.0</ele><time>2026-04-24T09:52:49.365Z</time></trkpt><trkpt lat="38.0232783" lon="15.7372117"><ele>820.0</ele><time>2026-04-24T09:52:50.364Z</time></trkpt><trkpt lat="38.02315" lon="15.73714"><ele>820.0</ele><time>2026-04-24T09:52:51.364Z</time></trkpt><trkpt lat="38.02305" lon="15.7370883"><ele>818.4</ele><time>2026-04-24T09:52:52.364Z</time></trkpt><trkpt lat="38.0229617" lon="15.7370583"><ele>816.8</ele><time>2026-04-24T09:52:53.364Z</time></trkpt><trkpt lat="38.022875" lon="15.7370633"><ele>815.2</ele><time>2026-04-24T09:52:54.364Z</time></trkpt><trkpt lat="38.0227967" lon="15.7370733"><ele>813.6</ele><time>2026-04-24T09:52:55.364Z</time></trkpt><trkpt lat="38.0226833" lon="15.7370283"><ele>812.0</ele><time>2026-04-24T09:52:57.364Z</time></trkpt><trkpt lat="38.0225833" lon="15.736935"><ele>811.1428571428571</ele><time>2026-04-24T09:52:59.365Z</time></trkpt><trkpt lat="38.022535" lon="15.7368817"><ele>810.2857142857142</ele><time>2026-04-24T09:53:00.365Z</time></trkpt><trkpt lat="38.0224817" lon="15.7368233"><ele>809.4285714285714</ele><time>2026-04-24T09:53:01.364Z</time></trkpt><trkpt lat="38.0224167" lon="15.736775"><ele>808.5714285714286</ele><time>2026-04-24T09:53:02.365Z</time></trkpt><trkpt lat="38.0223467" lon="15.7367417"><ele>807.7142857142857</ele><time>2026-04-24T09:53:03.364Z</time></trkpt><trkpt lat="38.02227" lon="15.7367333"><ele>806.8571428571429</ele><time>2026-04-24T09:53:04.364Z</time></trkpt><trkpt lat="38.02219" lon="15.7367117"><ele>806.0</ele><time>2026-04-24T09:53:05.364Z</time></trkpt><trkpt lat="38.0221183" lon="15.7367017"><ele>805.3333333333334</ele><time>2026-04-24T09:53:06.365Z</time></trkpt><trkpt lat="38.0220517" lon="15.7366917"><ele>804.6666666666667</ele><time>2026-04-24T09:53:07.364Z</time></trkpt><trkpt lat="38.0219867" lon="15.7366867"><ele>804.0</ele><time>2026-04-24T09:53:08.365Z</time></trkpt><trkpt lat="38.021915" lon="15.7366767"><ele>803.3333333333333</ele><time>2026-04-24T09:53:09.365Z</time></trkpt><trkpt lat="38.0218" lon="15.73669"><ele>802.6666666666666</ele><time>2026-04-24T09:53:11.364Z</time></trkpt><trkpt lat="38.0216967" lon="15.736745"><ele>802.0</ele><time>2026-04-24T09:53:13.364Z</time></trkpt><trkpt lat="38.0216283" lon="15.7368067"><ele>801.4000000000001</ele><time>2026-04-24T09:53:14.364Z</time></trkpt><trkpt lat="38.0215483" lon="15.7368683"><ele>800.8000000000001</ele><time>2026-04-24T09:53:15.364Z</time></trkpt><trkpt lat="38.0214717" lon="15.7369333"><ele>800.2</ele><time>2026-04-24T09:53:16.364Z</time></trkpt><trkpt lat="38.0213983" lon="15.7369833"><ele>799.6</ele><time>2026-04-24T09:53:17.364Z</time></trkpt><trkpt lat="38.0213083" lon="15.7370833"><ele>799.0</ele><time>2026-04-24T09:53:19.364Z</time></trkpt><trkpt lat="38.0212817" lon="15.7371633"><ele>798.3333333333333</ele><time>2026-04-24T09:53:20.365Z</time></trkpt><trkpt lat="38.0212633" lon="15.7372533"><ele>797.6666666666666</ele><time>2026-04-24T09:53:21.365Z</time></trkpt><trkpt lat="38.0212517" lon="15.7373367"><ele>797.0</ele><time>2026-04-24T09:53:22.364Z</time></trkpt><trkpt lat="38.0212217" lon="15.7374083"><ele>796.3333333333333</ele><time>2026-04-24T09:53:23.364Z</time></trkpt><trkpt lat="38.021135" lon="15.7375283"><ele>795.6666666666666</ele><time>2026-04-24T09:53:25.364Z</time></trkpt><trkpt lat="38.0210717" lon="15.7375533"><ele>795.0</ele><time>2026-04-24T09:53:26.364Z</time></trkpt><trkpt lat="38.021" lon="15.7375567"><ele>795.0</ele><time>2026-04-24T09:53:27.365Z</time></trkpt><trkpt lat="38.0209217" lon="15.7375267"><ele>795.0</ele><time>2026-04-24T09:53:28.364Z</time></trkpt><trkpt lat="38.02085" lon="15.7375"><ele>795.0</ele><time>2026-04-24T09:53:29.364Z</time></trkpt><trkpt lat="38.0207883" lon="15.7374683"><ele>795.0</ele><time>2026-04-24T09:53:30.365Z</time></trkpt><trkpt lat="38.0206833" lon="15.7374267"><ele>795.0</ele><time>2026-04-24T09:53:32.364Z</time></trkpt><trkpt lat="38.0205983" lon="15.7374067"><ele>795.0</ele><time>2026-04-24T09:53:34.364Z</time></trkpt><trkpt lat="38.0205017" lon="15.7374067"><ele>796.0</ele><time>2026-04-24T09:53:36.364Z</time></trkpt><trkpt lat="38.0203917" lon="15.7374783"><ele>797.0</ele><time>2026-04-24T09:53:38.365Z</time></trkpt><trkpt lat="38.0203433" lon="15.7375367"><ele>798.0</ele><time>2026-04-24T09:53:39.365Z</time></trkpt><trkpt lat="38.0203117" lon="15.7376067"><ele>799.0</ele><time>2026-04-24T09:53:40.364Z</time></trkpt><trkpt lat="38.020275" lon="15.7376817"><ele>800.0</ele><time>2026-04-24T09:53:41.365Z</time></trkpt><trkpt lat="38.0202383" lon="15.7377567"><ele>801.0</ele><time>2026-04-24T09:53:42.364Z</time></trkpt><trkpt lat="38.0201833" lon="15.7378433"><ele>801.0</ele><time>2026-04-24T09:53:43.365Z</time></trkpt><trkpt lat="38.02011" lon="15.7379333"><ele>801.0</ele><time>2026-04-24T09:53:44.364Z</time></trkpt><trkpt lat="38.0200367" lon="15.7380383"><ele>801.0</ele><time>2026-04-24T09:53:45.365Z</time></trkpt><trkpt lat="38.0199717" lon="15.7381483"><ele>801.0</ele><time>2026-04-24T09:53:46.365Z</time></trkpt><trkpt lat="38.0199017" lon="15.73825"><ele>801.0</ele><time>2026-04-24T09:53:47.364Z</time></trkpt><trkpt lat="38.0198217" lon="15.7383383"><ele>802.4</ele><time>2026-04-24T09:53:48.365Z</time></trkpt><trkpt lat="38.0197367" lon="15.7384167"><ele>803.8</ele><time>2026-04-24T09:53:49.365Z</time></trkpt><trkpt lat="38.0196383" lon="15.73848"><ele>805.1999999999999</ele><time>2026-04-24T09:53:50.365Z</time></trkpt><trkpt lat="38.0195483" lon="15.73854"><ele>806.5999999999999</ele><time>2026-04-24T09:53:51.364Z</time></trkpt><trkpt lat="38.01946" lon="15.7385983"><ele>808.0</ele><time>2026-04-24T09:53:52.364Z</time></trkpt><trkpt lat="38.01938" lon="15.7386983"><ele>807.9999999999999</ele><time>2026-04-24T09:53:53.365Z</time></trkpt><trkpt lat="38.01932" lon="15.7388"><ele>808.0</ele><time>2026-04-24T09:53:54.365Z</time></trkpt><trkpt lat="38.0192583" lon="15.73889"><ele>808.0</ele><time>2026-04-24T09:53:55.364Z</time></trkpt><trkpt lat="38.0192033" lon="15.738955"><ele>808.0</ele><time>2026-04-24T09:53:56.365Z</time></trkpt><trkpt lat="38.01915" lon="15.7390333"><ele>807.9999999999999</ele><time>2026-04-24T09:53:58.364Z</time></trkpt><trkpt lat="38.0192217" lon="15.7391133"><ele>808.0</ele><time>2026-04-24T09:54:00.365Z</time></trkpt><trkpt lat="38.01929" lon="15.7391517"><ele>807.9999999999999</ele><time>2026-04-24T09:54:01.364Z</time></trkpt><trkpt lat="38.01936" lon="15.7391983"><ele>808.0</ele><time>2026-04-24T09:54:02.364Z</time></trkpt><trkpt lat="38.01943" lon="15.73925"><ele>808.0</ele><time>2026-04-24T09:54:03.364Z</time></trkpt><trkpt lat="38.01949" lon="15.7393067"><ele>808.0</ele><time>2026-04-24T09:54:04.365Z</time></trkpt><trkpt lat="38.0195533" lon="15.7393733"><ele>807.9999999999999</ele><time>2026-04-24T09:54:05.365Z</time></trkpt><trkpt lat="38.0196217" lon="15.73945"><ele>808.0</ele><time>2026-04-24T09:54:06.365Z</time></trkpt><trkpt lat="38.0196883" lon="15.7395317"><ele>808.8</ele><time>2026-04-24T09:54:07.364Z</time></trkpt><trkpt lat="38.0197483" lon="15.739615"><ele>809.5999999999999</ele><time>2026-04-24T09:54:08.364Z</time></trkpt><trkpt lat="38.019805" lon="15.73971"><ele>810.4000000000001</ele><time>2026-04-24T09:54:09.365Z</time></trkpt><trkpt lat="38.01986" lon="15.739815"><ele>811.2</ele><time>2026-04-24T09:54:10.364Z</time></trkpt><trkpt lat="38.0199033" lon="15.73993"><ele>812.0</ele><time>2026-04-24T09:54:11.365Z</time></trkpt><trkpt lat="38.0199567" lon="15.7400333"><ele>812.8</ele><time>2026-04-24T09:54:12.365Z</time></trkpt><trkpt lat="38.02002" lon="15.7401317"><ele>813.6</ele><time>2026-04-24T09:54:13.365Z</time></trkpt><trkpt lat="38.0200983" lon="15.7402133"><ele>814.4</ele><time>2026-04-24T09:54:14.365Z</time></trkpt><trkpt lat="38.02019" lon="15.7402833"><ele>815.1999999999999</ele><time>2026-04-24T09:54:15.365Z</time></trkpt><trkpt lat="38.0202867" lon="15.7403183"><ele>816.0</ele><time>2026-04-24T09:54:16.364Z</time></trkpt><trkpt lat="38.020385" lon="15.74032"><ele>816.0</ele><time>2026-04-24T09:54:17.365Z</time></trkpt><trkpt lat="38.0204617" lon="15.7402917"><ele>816.0</ele><time>2026-04-24T09:54:18.364Z</time></trkpt><trkpt lat="38.0205167" lon="15.7402333"><ele>816.0</ele><time>2026-04-24T09:54:19.365Z</time></trkpt><trkpt lat="38.02052" lon="15.7401483"><ele>816.0</ele><time>2026-04-24T09:54:20.364Z</time></trkpt><trkpt lat="38.020425" lon="15.7400367"><ele>816.0</ele><time>2026-04-24T09:54:22.364Z</time></trkpt><trkpt lat="38.02035" lon="15.7400183"><ele>816.0</ele><time>2026-04-24T09:54:23.364Z</time></trkpt><trkpt lat="38.02029" lon="15.739925"><ele>816.0</ele><time>2026-04-24T09:54:25.365Z</time></trkpt><trkpt lat="38.02036" lon="15.7398667"><ele>816.0</ele><time>2026-04-24T09:54:27.365Z</time></trkpt><trkpt lat="38.0204767" lon="15.7399067"><ele>816.0</ele><time>2026-04-24T09:54:29.365Z</time></trkpt><trkpt lat="38.020535" lon="15.73994"><ele>816.0</ele><time>2026-04-24T09:54:30.365Z</time></trkpt><trkpt lat="38.0205967" lon="15.7399833"><ele>816.0</ele><time>2026-04-24T09:54:31.365Z</time></trkpt><trkpt lat="38.0206517" lon="15.74005"><ele>816.0</ele><time>2026-04-24T09:54:32.365Z</time></trkpt><trkpt lat="38.0206933" lon="15.7401417"><ele>817.5999999999999</ele><time>2026-04-24T09:54:33.364Z</time></trkpt><trkpt lat="38.020725" lon="15.7402583"><ele>819.2</ele><time>2026-04-24T09:54:34.365Z</time></trkpt><trkpt lat="38.0207533" lon="15.74038"><ele>820.8</ele><time>2026-04-24T09:54:35.364Z</time></trkpt><trkpt lat="38.02078" lon="15.7405"><ele>822.4000000000001</ele><time>2026-04-24T09:54:36.364Z</time></trkpt><trkpt lat="38.0208067" lon="15.7406167"><ele>824.0</ele><time>2026-04-24T09:54:37.365Z</time></trkpt><trkpt lat="38.02083" lon="15.7407433"><ele>825.1666666666667</ele><time>2026-04-24T09:54:38.365Z</time></trkpt><trkpt lat="38.0208717" lon="15.740845"><ele>826.3333333333334</ele><time>2026-04-24T09:54:39.364Z</time></trkpt><trkpt lat="38.0209367" lon="15.7409267"><ele>827.5</ele><time>2026-04-24T09:54:40.364Z</time></trkpt><trkpt lat="38.0210083" lon="15.7409933"><ele>828.6666666666667</ele><time>2026-04-24T09:54:41.364Z</time></trkpt><trkpt lat="38.021085" lon="15.74105"><ele>829.8333333333334</ele><time>2026-04-24T09:54:42.364Z</time></trkpt><trkpt lat="38.02116" lon="15.7411083"><ele>831.0</ele><time>2026-04-24T09:54:43.364Z</time></trkpt><trkpt lat="38.0212283" lon="15.7411717"><ele>831.0</ele><time>2026-04-24T09:54:44.364Z</time></trkpt><trkpt lat="38.0213017" lon="15.7412317"><ele>831.0</ele><time>2026-04-24T09:54:45.364Z</time></trkpt><trkpt lat="38.021385" lon="15.7412917"><ele>831.0</ele><time>2026-04-24T09:54:46.364Z</time></trkpt><trkpt lat="38.0214733" lon="15.7413367"><ele>831.0</ele><time>2026-04-24T09:54:47.364Z</time></trkpt><trkpt lat="38.0215667" lon="15.74137"><ele>831.0</ele><time>2026-04-24T09:54:48.364Z</time></trkpt><trkpt lat="38.0216617" lon="15.7413933"><ele>833.0</ele><time>2026-04-24T09:54:49.364Z</time></trkpt><trkpt lat="38.02176" lon="15.7414067"><ele>835.0</ele><time>2026-04-24T09:54:50.364Z</time></trkpt><trkpt lat="38.0218667" lon="15.7414217"><ele>837.0</ele><time>2026-04-24T09:54:51.365Z</time></trkpt><trkpt lat="38.021975" lon="15.7414383"><ele>839.0</ele><time>2026-04-24T09:54:52.364Z</time></trkpt><trkpt lat="38.0220833" lon="15.7414433"><ele>841.0</ele><time>2026-04-24T09:54:53.365Z</time></trkpt><trkpt lat="38.02219" lon="15.7414383"><ele>841.0</ele><time>2026-04-24T09:54:54.364Z</time></trkpt><trkpt lat="38.0222917" lon="15.7414067"><ele>841.0</ele><time>2026-04-24T09:54:55.365Z</time></trkpt><trkpt lat="38.0223983" lon="15.74137"><ele>841.0</ele><time>2026-04-24T09:54:56.365Z</time></trkpt><trkpt lat="38.0225033" lon="15.741365"><ele>841.0</ele><time>2026-04-24T09:54:57.364Z</time></trkpt><trkpt lat="38.0226017" lon="15.7413867"><ele>841.0</ele><time>2026-04-24T09:54:58.365Z</time></trkpt><trkpt lat="38.0226967" lon="15.7414317"><ele>842.5999999999999</ele><time>2026-04-24T09:54:59.364Z</time></trkpt><trkpt lat="38.0227883" lon="15.7414933"><ele>844.2</ele><time>2026-04-24T09:55:00.365Z</time></trkpt><trkpt lat="38.02287" lon="15.741565"><ele>845.8</ele><time>2026-04-24T09:55:01.364Z</time></trkpt><trkpt lat="38.02296" lon="15.7416483"><ele>847.4000000000001</ele><time>2026-04-24T09:55:02.365Z</time></trkpt><trkpt lat="38.0230617" lon="15.7417267"><ele>849.0</ele><time>2026-04-24T09:55:03.364Z</time></trkpt><trkpt lat="38.02316" lon="15.7418117"><ele>848.0</ele><time>2026-04-24T09:55:04.365Z</time></trkpt><trkpt lat="38.0232617" lon="15.7418883"><ele>847.0</ele><time>2026-04-24T09:55:05.364Z</time></trkpt><trkpt lat="38.0233533" lon="15.741975"><ele>846.0</ele><time>2026-04-24T09:55:06.365Z</time></trkpt><trkpt lat="38.02343" lon="15.74207"><ele>845.0</ele><time>2026-04-24T09:55:07.365Z</time></trkpt><trkpt lat="38.0235017" lon="15.7421883"><ele>846.6</ele><time>2026-04-24T09:55:08.365Z</time></trkpt><trkpt lat="38.02357" lon="15.7423117"><ele>848.2</ele><time>2026-04-24T09:55:09.365Z</time></trkpt><trkpt lat="38.0236267" lon="15.7424483"><ele>849.8</ele><time>2026-04-24T09:55:10.365Z</time></trkpt><trkpt lat="38.0236667" lon="15.7425733"><ele>851.4</ele><time>2026-04-24T09:55:11.365Z</time></trkpt><trkpt lat="38.0236917" lon="15.74269"><ele>853.0</ele><time>2026-04-24T09:55:12.364Z</time></trkpt><trkpt lat="38.02372" lon="15.7428017"><ele>853.4</ele><time>2026-04-24T09:55:13.364Z</time></trkpt><trkpt lat="38.02376" lon="15.7429133"><ele>853.8</ele><time>2026-04-24T09:55:14.365Z</time></trkpt><trkpt lat="38.02381" lon="15.7430283"><ele>854.2</ele><time>2026-04-24T09:55:15.364Z</time></trkpt><trkpt lat="38.0238567" lon="15.7431483"><ele>854.6</ele><time>2026-04-24T09:55:16.364Z</time></trkpt><trkpt lat="38.0239117" lon="15.7432883"><ele>855.0</ele><time>2026-04-24T09:55:17.364Z</time></trkpt><trkpt lat="38.023965" lon="15.7434367"><ele>855.5</ele><time>2026-04-24T09:55:18.364Z</time></trkpt><trkpt lat="38.0240167" lon="15.743595"><ele>856.0</ele><time>2026-04-24T09:55:19.365Z</time></trkpt><trkpt lat="38.0240583" lon="15.74375"><ele>856.5</ele><time>2026-04-24T09:55:20.364Z</time></trkpt><trkpt lat="38.02409" lon="15.743915"><ele>857.0</ele><time>2026-04-24T09:55:21.365Z</time></trkpt><trkpt lat="38.0241217" lon="15.7440767"><ele>858.25</ele><time>2026-04-24T09:55:22.364Z</time></trkpt><trkpt lat="38.02415" lon="15.744245"><ele>859.5</ele><time>2026-04-24T09:55:23.364Z</time></trkpt><trkpt lat="38.0241767" lon="15.7444283"><ele>860.75</ele><time>2026-04-24T09:55:24.364Z</time></trkpt><trkpt lat="38.0242033" lon="15.7446167"><ele>862.0</ele><time>2026-04-24T09:55:25.364Z</time></trkpt><trkpt lat="38.0242283" lon="15.7448033"><ele>862.0</ele><time>2026-04-24T09:55:26.365Z</time></trkpt><trkpt lat="38.0242583" lon="15.7449967"><ele>862.0</ele><time>2026-04-24T09:55:27.364Z</time></trkpt><trkpt lat="38.0242833" lon="15.7451767"><ele>862.0</ele><time>2026-04-24T09:55:28.364Z</time></trkpt><trkpt lat="38.02431" lon="15.7453433"><ele>862.0</ele><time>2026-04-24T09:55:29.364Z</time></trkpt><trkpt lat="38.0243433" lon="15.7454917"><ele>863.0</ele><time>2026-04-24T09:55:30.364Z</time></trkpt><trkpt lat="38.024375" lon="15.7456217"><ele>864.0</ele><time>2026-04-24T09:55:31.365Z</time></trkpt><trkpt lat="38.0244133" lon="15.7457333"><ele>865.0</ele><time>2026-04-24T09:55:32.364Z</time></trkpt><trkpt lat="38.024465" lon="15.7458417"><ele>866.0</ele><time>2026-04-24T09:55:33.364Z</time></trkpt><trkpt lat="38.02452" lon="15.7459367"><ele>867.0</ele><time>2026-04-24T09:55:34.364Z</time></trkpt><trkpt lat="38.0245833" lon="15.746025"><ele>867.6</ele><time>2026-04-24T09:55:35.365Z</time></trkpt><trkpt lat="38.0246517" lon="15.7461117"><ele>868.2</ele><time>2026-04-24T09:55:36.364Z</time></trkpt><trkpt lat="38.024725" lon="15.7462"><ele>868.8</ele><time>2026-04-24T09:55:37.364Z</time></trkpt><trkpt lat="38.02479" lon="15.74629"><ele>869.4</ele><time>2026-04-24T09:55:38.364Z</time></trkpt><trkpt lat="38.0248433" lon="15.7463933"><ele>870.0</ele><time>2026-04-24T09:55:39.364Z</time></trkpt><trkpt lat="38.0248983" lon="15.7464933"><ele>870.0</ele><time>2026-04-24T09:55:40.365Z</time></trkpt><trkpt lat="38.0249533" lon="15.7465867"><ele>870.0</ele><time>2026-04-24T09:55:41.364Z</time></trkpt><trkpt lat="38.0250683" lon="15.7467633"><ele>870.0</ele><time>2026-04-24T09:55:43.365Z</time></trkpt><trkpt lat="38.0251317" lon="15.746855"><ele>870.0</ele><time>2026-04-24T09:55:44.365Z</time></trkpt><trkpt lat="38.0252" lon="15.7469517"><ele>872.25</ele><time>2026-04-24T09:55:45.365Z</time></trkpt><trkpt lat="38.025265" lon="15.74706"><ele>874.5</ele><time>2026-04-24T09:55:46.364Z</time></trkpt><trkpt lat="38.0253267" lon="15.74718"><ele>876.75</ele><time>2026-04-24T09:55:47.365Z</time></trkpt><trkpt lat="38.025385" lon="15.7473067"><ele>879.0</ele><time>2026-04-24T09:55:48.365Z</time></trkpt><trkpt lat="38.0254317" lon="15.7474533"><ele>879.0</ele><time>2026-04-24T09:55:49.365Z</time></trkpt><trkpt lat="38.0254633" lon="15.7476"><ele>879.0</ele><time>2026-04-24T09:55:50.364Z</time></trkpt><trkpt lat="38.0254933" lon="15.7477467"><ele>879.0</ele><time>2026-04-24T09:55:51.364Z</time></trkpt><trkpt lat="38.0255267" lon="15.747885"><ele>879.0</ele><time>2026-04-24T09:55:52.365Z</time></trkpt><trkpt lat="38.02556" lon="15.7480267"><ele>877.5</ele><time>2026-04-24T09:55:53.364Z</time></trkpt><trkpt lat="38.0256133" lon="15.748165"><ele>876.0</ele><time>2026-04-24T09:55:54.365Z</time></trkpt><trkpt lat="38.02569" lon="15.7482983"><ele>874.5</ele><time>2026-04-24T09:55:55.365Z</time></trkpt><trkpt lat="38.0257817" lon="15.7484233"><ele>873.0</ele><time>2026-04-24T09:55:56.364Z</time></trkpt><trkpt lat="38.0258783" lon="15.7485433"><ele>877.0</ele><time>2026-04-24T09:55:57.364Z</time></trkpt><trkpt lat="38.0259783" lon="15.7486567"><ele>881.0</ele><time>2026-04-24T09:55:58.364Z</time></trkpt><trkpt lat="38.026075" lon="15.7487767"><ele>885.0</ele><time>2026-04-24T09:55:59.365Z</time></trkpt><trkpt lat="38.0261683" lon="15.7488967"><ele>889.0</ele><time>2026-04-24T09:56:00.364Z</time></trkpt><trkpt lat="38.0262667" lon="15.7490167"><ele>889.0</ele><time>2026-04-24T09:56:01.364Z</time></trkpt><trkpt lat="38.0263617" lon="15.7491383"><ele>889.0</ele><time>2026-04-24T09:56:02.364Z</time></trkpt><trkpt lat="38.02645" lon="15.7492533"><ele>889.0</ele><time>2026-04-24T09:56:03.364Z</time></trkpt><trkpt lat="38.0265467" lon="15.74936"><ele>889.0</ele><time>2026-04-24T09:56:04.364Z</time></trkpt><trkpt lat="38.0266433" lon="15.749475"><ele>890.5</ele><time>2026-04-24T09:56:05.364Z</time></trkpt><trkpt lat="38.0267417" lon="15.7495983"><ele>892.0</ele><time>2026-04-24T09:56:06.365Z</time></trkpt><trkpt lat="38.026835" lon="15.7497117"><ele>893.5</ele><time>2026-04-24T09:56:07.364Z</time></trkpt><trkpt lat="38.02692" lon="15.749825"><ele>895.0</ele><time>2026-04-24T09:56:08.364Z</time></trkpt><trkpt lat="38.0269983" lon="15.7499383"><ele>895.0</ele><time>2026-04-24T09:56:09.364Z</time></trkpt><trkpt lat="38.0270717" lon="15.7500567"><ele>895.0</ele><time>2026-04-24T09:56:10.365Z</time></trkpt><trkpt lat="38.02713" lon="15.7501733"><ele>895.0</ele><time>2026-04-24T09:56:11.365Z</time></trkpt><trkpt lat="38.0271833" lon="15.7502867"><ele>895.0</ele><time>2026-04-24T09:56:12.364Z</time></trkpt><trkpt lat="38.0272467" lon="15.7503833"><ele>895.0</ele><time>2026-04-24T09:56:13.364Z</time></trkpt><trkpt lat="38.027315" lon="15.7504683"><ele>893.8</ele><time>2026-04-24T09:56:14.365Z</time></trkpt><trkpt lat="38.0274033" lon="15.750535"><ele>892.6</ele><time>2026-04-24T09:56:15.365Z</time></trkpt><trkpt lat="38.0274833" lon="15.7505917"><ele>891.4000000000001</ele><time>2026-04-24T09:56:16.365Z</time></trkpt><trkpt lat="38.027555" lon="15.7506617"><ele>890.2</ele><time>2026-04-24T09:56:17.365Z</time></trkpt><trkpt lat="38.027615" lon="15.7507583"><ele>889.0</ele><time>2026-04-24T09:56:18.364Z</time></trkpt><trkpt lat="38.0276717" lon="15.750875"><ele>889.0</ele><time>2026-04-24T09:56:19.364Z</time></trkpt><trkpt lat="38.0277233" lon="15.7509867"><ele>889.0000000000001</ele><time>2026-04-24T09:56:20.364Z</time></trkpt><trkpt lat="38.027785" lon="15.751085"><ele>889.0000000000001</ele><time>2026-04-24T09:56:21.364Z</time></trkpt><trkpt lat="38.027835" lon="15.7511667"><ele>889.0</ele><time>2026-04-24T09:56:22.365Z</time></trkpt><trkpt lat="38.027895" lon="15.7512933"><ele>889.0</ele><time>2026-04-24T09:56:24.364Z</time></trkpt><trkpt lat="38.0278983" lon="15.75142"><ele>887.1666666666666</ele><time>2026-04-24T09:56:26.364Z</time></trkpt><trkpt lat="38.0278483" lon="15.75152"><ele>885.3333333333333</ele><time>2026-04-24T09:56:28.365Z</time></trkpt><trkpt lat="38.02781" lon="15.7516183"><ele>883.5</ele><time>2026-04-24T09:56:30.364Z</time></trkpt><trkpt lat="38.02785" lon="15.751695"><ele>881.6666666666667</ele><time>2026-04-24T09:56:32.364Z</time></trkpt><trkpt lat="38.0279217" lon="15.751705"><ele>879.8333333333334</ele><time>2026-04-24T09:56:34.364Z</time></trkpt><trkpt lat="38.0279883" lon="15.7516717"><ele>878.0</ele><time>2026-04-24T09:56:36.364Z</time></trkpt><trkpt lat="38.0280717" lon="15.75161"><ele>878.0000000000001</ele><time>2026-04-24T09:56:38.364Z</time></trkpt><trkpt lat="38.0281317" lon="15.7515717"><ele>878.0</ele><time>2026-04-24T09:56:39.364Z</time></trkpt><trkpt lat="38.028195" lon="15.751535"><ele>878.0</ele><time>2026-04-24T09:56:40.364Z</time></trkpt><trkpt lat="38.0282633" lon="15.7515067"><ele>878.0</ele><time>2026-04-24T09:56:41.365Z</time></trkpt><trkpt lat="38.02834" lon="15.7514967"><ele>878.0000000000001</ele><time>2026-04-24T09:56:42.365Z</time></trkpt><trkpt lat="38.0284133" lon="15.751505"><ele>878.0</ele><time>2026-04-24T09:56:43.365Z</time></trkpt><trkpt lat="38.0285233" lon="15.7515317"><ele>877.5999999999999</ele><time>2026-04-24T09:56:45.364Z</time></trkpt><trkpt lat="38.0286083" lon="15.75152"><ele>877.1999999999999</ele><time>2026-04-24T09:56:47.364Z</time></trkpt><trkpt lat="38.02873" lon="15.7514533"><ele>876.8</ele><time>2026-04-24T09:56:49.364Z</time></trkpt><trkpt lat="38.028805" lon="15.7513883"><ele>876.4</ele><time>2026-04-24T09:56:50.365Z</time></trkpt><trkpt lat="38.0288783" lon="15.7513067"><ele>876.0</ele><time>2026-04-24T09:56:51.364Z</time></trkpt><trkpt lat="38.0289533" lon="15.751205"><ele>876.0</ele><time>2026-04-24T09:56:52.364Z</time></trkpt><trkpt lat="38.029035" lon="15.75109"><ele>876.0</ele><time>2026-04-24T09:56:53.364Z</time></trkpt><trkpt lat="38.0291117" lon="15.7509717"><ele>876.0</ele><time>2026-04-24T09:56:54.364Z</time></trkpt><trkpt lat="38.029195" lon="15.7508483"><ele>876.0</ele><time>2026-04-24T09:56:55.365Z</time></trkpt><trkpt lat="38.0292783" lon="15.7507383"><ele>874.1999999999999</ele><time>2026-04-24T09:56:56.365Z</time></trkpt><trkpt lat="38.0293567" lon="15.7506233"><ele>872.3999999999999</ele><time>2026-04-24T09:56:57.365Z</time></trkpt><trkpt lat="38.0294233" lon="15.7505033"><ele>870.6</ele><time>2026-04-24T09:56:58.364Z</time></trkpt><trkpt lat="38.029475" lon="15.7503833"><ele>868.8</ele><time>2026-04-24T09:56:59.365Z</time></trkpt><trkpt lat="38.0295167" lon="15.7502717"><ele>867.0</ele><time>2026-04-24T09:57:00.364Z</time></trkpt><trkpt lat="38.0295483" lon="15.750175"><ele>867.0</ele><time>2026-04-24T09:57:01.364Z</time></trkpt><trkpt lat="38.02958" lon="15.7500933"><ele>867.0</ele><time>2026-04-24T09:57:02.364Z</time></trkpt><trkpt lat="38.0296567" lon="15.7500233"><ele>867.0</ele><time>2026-04-24T09:57:04.364Z</time></trkpt><trkpt lat="38.0297583" lon="15.7500833"><ele>867.0</ele><time>2026-04-24T09:57:06.364Z</time></trkpt><trkpt lat="38.029835" lon="15.7501633"><ele>867.0</ele><time>2026-04-24T09:57:07.364Z</time></trkpt><trkpt lat="38.0299383" lon="15.7502683"><ele>866.6666666666667</ele><time>2026-04-24T09:57:08.365Z</time></trkpt><trkpt lat="38.03005" lon="15.7504017"><ele>866.3333333333334</ele><time>2026-04-24T09:57:09.364Z</time></trkpt><trkpt lat="38.0301817" lon="15.7505383"><ele>866.0</ele><time>2026-04-24T09:57:10.365Z</time></trkpt><trkpt lat="38.0303083" lon="15.7506683"><ele>866.0</ele><time>2026-04-24T09:57:11.364Z</time></trkpt><trkpt lat="38.030425" lon="15.7507717"><ele>866.0</ele><time>2026-04-24T09:57:12.365Z</time></trkpt><trkpt lat="38.0305267" lon="15.7508683"><ele>866.0</ele><time>2026-04-24T09:57:13.364Z</time></trkpt><trkpt lat="38.0306317" lon="15.7509583"><ele>866.0</ele><time>2026-04-24T09:57:14.365Z</time></trkpt><trkpt lat="38.03074" lon="15.7510233"><ele>868.0</ele><time>2026-04-24T09:57:15.364Z</time></trkpt><trkpt lat="38.0308433" lon="15.7510867"><ele>870.0</ele><time>2026-04-24T09:57:16.364Z</time></trkpt><trkpt lat="38.0309383" lon="15.7511583"><ele>872.0</ele><time>2026-04-24T09:57:17.364Z</time></trkpt><trkpt lat="38.031025" lon="15.7512467"><ele>874.0</ele><time>2026-04-24T09:57:18.365Z</time></trkpt><trkpt lat="38.0311117" lon="15.75135"><ele>874.0</ele><time>2026-04-24T09:57:19.364Z</time></trkpt><trkpt lat="38.0311933" lon="15.751455"><ele>874.0</ele><time>2026-04-24T09:57:20.365Z</time></trkpt><trkpt lat="38.0312733" lon="15.7515533"><ele>874.0</ele><time>2026-04-24T09:57:21.364Z</time></trkpt><trkpt lat="38.031355" lon="15.7516683"><ele>874.0</ele><time>2026-04-24T09:57:22.365Z</time></trkpt><trkpt lat="38.031425" lon="15.7518017"><ele>877.0</ele><time>2026-04-24T09:57:23.364Z</time></trkpt><trkpt lat="38.0314617" lon="15.7519483"><ele>880.0</ele><time>2026-04-24T09:57:24.365Z</time></trkpt><trkpt lat="38.0314917" lon="15.7521"><ele>883.0</ele><time>2026-04-24T09:57:25.364Z</time></trkpt><trkpt lat="38.0315083" lon="15.7522683"><ele>886.0</ele><time>2026-04-24T09:57:26.364Z</time></trkpt><trkpt lat="38.031505" lon="15.7524383"><ele>886.0</ele><time>2026-04-24T09:57:27.365Z</time></trkpt><trkpt lat="38.0314867" lon="15.7526133"><ele>886.0</ele><time>2026-04-24T09:57:28.365Z</time></trkpt><trkpt lat="38.0314583" lon="15.7527817"><ele>886.0</ele><time>2026-04-24T09:57:29.365Z</time></trkpt><trkpt lat="38.0314067" lon="15.752915"><ele>886.0</ele><time>2026-04-24T09:57:30.364Z</time></trkpt><trkpt lat="38.0313217" lon="15.753035"><ele>886.1999999999999</ele><time>2026-04-24T09:57:31.365Z</time></trkpt><trkpt lat="38.0312333" lon="15.7531267"><ele>886.3999999999999</ele><time>2026-04-24T09:57:32.364Z</time></trkpt><trkpt lat="38.0311633" lon="15.7532217"><ele>886.6</ele><time>2026-04-24T09:57:33.365Z</time></trkpt><trkpt lat="38.031135" lon="15.75334"><ele>886.8</ele><time>2026-04-24T09:57:34.365Z</time></trkpt><trkpt lat="38.0311383" lon="15.75346"><ele>887.0</ele><time>2026-04-24T09:57:35.364Z</time></trkpt><trkpt lat="38.03117" lon="15.75357"><ele>887.2</ele><time>2026-04-24T09:57:36.364Z</time></trkpt><trkpt lat="38.0312133" lon="15.753675"><ele>887.4000000000001</ele><time>2026-04-24T09:57:37.365Z</time></trkpt><trkpt lat="38.0312433" lon="15.7537917"><ele>887.5999999999999</ele><time>2026-04-24T09:57:38.365Z</time></trkpt><trkpt lat="38.0312833" lon="15.7538983"><ele>887.8</ele><time>2026-04-24T09:57:39.365Z</time></trkpt><trkpt lat="38.0313417" lon="15.7539867"><ele>888.0</ele><time>2026-04-24T09:57:40.365Z</time></trkpt><trkpt lat="38.0314117" lon="15.754055"><ele>888.0</ele><time>2026-04-24T09:57:41.364Z</time></trkpt><trkpt lat="38.031485" lon="15.7541233"><ele>888.0</ele><time>2026-04-24T09:57:42.364Z</time></trkpt><trkpt lat="38.03155" lon="15.754205"><ele>888.0</ele><time>2026-04-24T09:57:43.364Z</time></trkpt><trkpt lat="38.0315867" lon="15.754315"><ele>888.0</ele><time>2026-04-24T09:57:44.364Z</time></trkpt><trkpt lat="38.0315917" lon="15.7544217"><ele>888.0</ele><time>2026-04-24T09:57:45.364Z</time></trkpt><trkpt lat="38.0315533" lon="15.7545233"><ele>888.0</ele><time>2026-04-24T09:57:46.365Z</time></trkpt><trkpt lat="38.0315133" lon="15.7546283"><ele>887.3333333333334</ele><time>2026-04-24T09:57:47.364Z</time></trkpt><trkpt lat="38.031495" lon="15.75473"><ele>886.6666666666667</ele><time>2026-04-24T09:57:48.364Z</time></trkpt><trkpt lat="38.0315117" lon="15.7548267"><ele>886.0</ele><time>2026-04-24T09:57:49.365Z</time></trkpt><trkpt lat="38.0315483" lon="15.7549083"><ele>885.3333333333334</ele><time>2026-04-24T09:57:50.364Z</time></trkpt><trkpt lat="38.031605" lon="15.7549817"><ele>884.6666666666667</ele><time>2026-04-24T09:57:51.365Z</time></trkpt><trkpt lat="38.0316633" lon="15.755045"><ele>884.0</ele><time>2026-04-24T09:57:52.364Z</time></trkpt><trkpt lat="38.031725" lon="15.7550933"><ele>886.0000000000001</ele><time>2026-04-24T09:57:53.364Z</time></trkpt><trkpt lat="38.0317733" lon="15.75515"><ele>888.0</ele><time>2026-04-24T09:57:54.365Z</time></trkpt><trkpt lat="38.0318117" lon="15.75522"><ele>890.0</ele><time>2026-04-24T09:57:55.364Z</time></trkpt><trkpt lat="38.0318517" lon="15.7552967"><ele>892.0</ele><time>2026-04-24T09:57:56.365Z</time></trkpt><trkpt lat="38.0319033" lon="15.7553733"><ele>894.0000000000001</ele><time>2026-04-24T09:57:57.364Z</time></trkpt><trkpt lat="38.0319617" lon="15.7554517"><ele>896.0</ele><time>2026-04-24T09:57:58.364Z</time></trkpt><trkpt lat="38.0320233" lon="15.7555417"><ele>896.4</ele><time>2026-04-24T09:57:59.364Z</time></trkpt><trkpt lat="38.0320867" lon="15.7556367"><ele>896.8</ele><time>2026-04-24T09:58:00.365Z</time></trkpt><trkpt lat="38.0321517" lon="15.7557317"><ele>897.1999999999999</ele><time>2026-04-24T09:58:01.365Z</time></trkpt><trkpt lat="38.0322083" lon="15.75582"><ele>897.5999999999999</ele><time>2026-04-24T09:58:02.364Z</time></trkpt><trkpt lat="38.032265" lon="15.75592"><ele>898.0</ele><time>2026-04-24T09:58:03.365Z</time></trkpt><trkpt lat="38.03232" lon="15.7560267"><ele>897.0</ele><time>2026-04-24T09:58:04.365Z</time></trkpt><trkpt lat="38.0323633" lon="15.7561317"><ele>896.0</ele><time>2026-04-24T09:58:05.364Z</time></trkpt><trkpt lat="38.0324067" lon="15.7562433"><ele>895.0</ele><time>2026-04-24T09:58:06.364Z</time></trkpt><trkpt lat="38.0324483" lon="15.7563467"><ele>894.0</ele><time>2026-04-24T09:58:07.364Z</time></trkpt><trkpt lat="38.0325083" lon="15.756455"><ele>893.0</ele><time>2026-04-24T09:58:08.365Z</time></trkpt><trkpt lat="38.0325817" lon="15.7565617"><ele>895.0</ele><time>2026-04-24T09:58:09.365Z</time></trkpt><trkpt lat="38.0326733" lon="15.7566567"><ele>897.0</ele><time>2026-04-24T09:58:10.364Z</time></trkpt><trkpt lat="38.0327883" lon="15.7567433"><ele>899.0</ele><time>2026-04-24T09:58:11.365Z</time></trkpt><trkpt lat="38.03291" lon="15.7568167"><ele>901.0</ele><time>2026-04-24T09:58:12.364Z</time></trkpt><trkpt lat="38.0330333" lon="15.7568833"><ele>901.0</ele><time>2026-04-24T09:58:13.364Z</time></trkpt><trkpt lat="38.03315" lon="15.7569583"><ele>901.0</ele><time>2026-04-24T09:58:14.365Z</time></trkpt><trkpt lat="38.0332583" lon="15.7570433"><ele>901.0</ele><time>2026-04-24T09:58:15.364Z</time></trkpt><trkpt lat="38.0333617" lon="15.7571383"><ele>901.0</ele><time>2026-04-24T09:58:16.365Z</time></trkpt><trkpt lat="38.033455" lon="15.7572567"><ele>904.75</ele><time>2026-04-24T09:58:17.365Z</time></trkpt><trkpt lat="38.033545" lon="15.757385"><ele>908.5</ele><time>2026-04-24T09:58:18.364Z</time></trkpt><trkpt lat="38.0336467" lon="15.7575017"><ele>912.25</ele><time>2026-04-24T09:58:19.365Z</time></trkpt><trkpt lat="38.0337483" lon="15.7576133"><ele>916.0</ele><time>2026-04-24T09:58:20.364Z</time></trkpt><trkpt lat="38.0338617" lon="15.7577267"><ele>916.0</ele><time>2026-04-24T09:58:21.365Z</time></trkpt><trkpt lat="38.0339683" lon="15.7578383"><ele>916.0</ele><time>2026-04-24T09:58:22.364Z</time></trkpt><trkpt lat="38.03408" lon="15.7579567"><ele>916.0</ele><time>2026-04-24T09:58:23.364Z</time></trkpt><trkpt lat="38.03419" lon="15.758085"><ele>916.0</ele><time>2026-04-24T09:58:24.365Z</time></trkpt><trkpt lat="38.0342833" lon="15.7582217"><ele>919.0</ele><time>2026-04-24T09:58:25.365Z</time></trkpt><trkpt lat="38.03438" lon="15.758365"><ele>922.0</ele><time>2026-04-24T09:58:26.365Z</time></trkpt><trkpt lat="38.03448" lon="15.7584983"><ele>925.0</ele><time>2026-04-24T09:58:27.365Z</time></trkpt><trkpt lat="38.0345667" lon="15.75862"><ele>928.0</ele><time>2026-04-24T09:58:28.365Z</time></trkpt><trkpt lat="38.034645" lon="15.7587283"><ele>928.0</ele><time>2026-04-24T09:58:29.365Z</time></trkpt><trkpt lat="38.0347217" lon="15.75884"><ele>928.0</ele><time>2026-04-24T09:58:30.365Z</time></trkpt><trkpt lat="38.0347933" lon="15.75895"><ele>928.0</ele><time>2026-04-24T09:58:31.365Z</time></trkpt><trkpt lat="38.034875" lon="15.75906"><ele>928.0</ele><time>2026-04-24T09:58:32.365Z</time></trkpt><trkpt lat="38.0349617" lon="15.7591817"><ele>930.75</ele><time>2026-04-24T09:58:33.365Z</time></trkpt><trkpt lat="38.0350483" lon="15.759305"><ele>933.5</ele><time>2026-04-24T09:58:34.364Z</time></trkpt><trkpt lat="38.0351367" lon="15.7594517"><ele>936.25</ele><time>2026-04-24T09:58:35.364Z</time></trkpt><trkpt lat="38.035215" lon="15.7596183"><ele>939.0</ele><time>2026-04-24T09:58:36.365Z</time></trkpt><trkpt lat="38.0352833" lon="15.75979"><ele>939.3333333333333</ele><time>2026-04-24T09:58:37.365Z</time></trkpt><trkpt lat="38.0353533" lon="15.7599717"><ele>939.6666666666666</ele><time>2026-04-24T09:58:38.364Z</time></trkpt><trkpt lat="38.0354267" lon="15.7601583"><ele>940.0</ele><time>2026-04-24T09:58:39.364Z</time></trkpt><trkpt lat="38.0355083" lon="15.7603583"><ele>940.0</ele><time>2026-04-24T09:58:40.365Z</time></trkpt><trkpt lat="38.03559" lon="15.7605617"><ele>940.0</ele><time>2026-04-24T09:58:41.364Z</time></trkpt><trkpt lat="38.0356767" lon="15.7607633"><ele>940.0</ele><time>2026-04-24T09:58:42.364Z</time></trkpt><trkpt lat="38.0357583" lon="15.7609633"><ele>944.3333333333333</ele><time>2026-04-24T09:58:43.364Z</time></trkpt><trkpt lat="38.035835" lon="15.7611567"><ele>948.6666666666667</ele><time>2026-04-24T09:58:44.365Z</time></trkpt><trkpt lat="38.0359067" lon="15.7613367"><ele>953.0</ele><time>2026-04-24T09:58:45.365Z</time></trkpt><trkpt lat="38.0359667" lon="15.7614983"><ele>953.0</ele><time>2026-04-24T09:58:46.365Z</time></trkpt><trkpt lat="38.0360183" lon="15.7616467"><ele>953.0</ele><time>2026-04-24T09:58:47.364Z</time></trkpt><trkpt lat="38.0360583" lon="15.7617883"><ele>953.0</ele><time>2026-04-24T09:58:48.364Z</time></trkpt><trkpt lat="38.036085" lon="15.76193"><ele>953.0</ele><time>2026-04-24T09:58:49.364Z</time></trkpt><trkpt lat="38.0360733" lon="15.7620617"><ele>952.5</ele><time>2026-04-24T09:58:50.364Z</time></trkpt><trkpt lat="38.0360367" lon="15.7622033"><ele>952.0</ele><time>2026-04-24T09:58:51.365Z</time></trkpt><trkpt lat="38.0359567" lon="15.7623433"><ele>951.5</ele><time>2026-04-24T09:58:52.364Z</time></trkpt><trkpt lat="38.035865" lon="15.76248"><ele>951.0</ele><time>2026-04-24T09:58:53.364Z</time></trkpt><trkpt lat="38.035795" lon="15.7626217"><ele>950.75</ele><time>2026-04-24T09:58:54.365Z</time></trkpt><trkpt lat="38.035745" lon="15.762775"><ele>950.5</ele><time>2026-04-24T09:58:55.364Z</time></trkpt><trkpt lat="38.0357033" lon="15.7629133"><ele>950.25</ele><time>2026-04-24T09:58:56.365Z</time></trkpt><trkpt lat="38.0356533" lon="15.763045"><ele>950.0</ele><time>2026-04-24T09:58:57.365Z</time></trkpt><trkpt lat="38.0355917" lon="15.7631667"><ele>950.0</ele><time>2026-04-24T09:58:58.364Z</time></trkpt><trkpt lat="38.0355233" lon="15.7632817"><ele>950.0</ele><time>2026-04-24T09:58:59.364Z</time></trkpt><trkpt lat="38.0354533" lon="15.7633933"><ele>950.0</ele><time>2026-04-24T09:59:00.365Z</time></trkpt><trkpt lat="38.035395" lon="15.7635117"><ele>950.0</ele><time>2026-04-24T09:59:01.365Z</time></trkpt><trkpt lat="38.03535" lon="15.76363"><ele>950.0</ele><time>2026-04-24T09:59:02.365Z</time></trkpt><trkpt lat="38.03533" lon="15.7637583"><ele>950.4</ele><time>2026-04-24T09:59:03.364Z</time></trkpt><trkpt lat="38.0353317" lon="15.7638883"><ele>950.8</ele><time>2026-04-24T09:59:04.364Z</time></trkpt><trkpt lat="38.03535" lon="15.7640083"><ele>951.2</ele><time>2026-04-24T09:59:05.365Z</time></trkpt><trkpt lat="38.0353567" lon="15.7641383"><ele>951.6</ele><time>2026-04-24T09:59:06.365Z</time></trkpt><trkpt lat="38.035355" lon="15.7642733"><ele>952.0</ele><time>2026-04-24T09:59:07.365Z</time></trkpt><trkpt lat="38.03533" lon="15.7644017"><ele>952.25</ele><time>2026-04-24T09:59:08.365Z</time></trkpt><trkpt lat="38.0353" lon="15.7645317"><ele>952.5</ele><time>2026-04-24T09:59:09.365Z</time></trkpt><trkpt lat="38.0352633" lon="15.7646633"><ele>952.75</ele><time>2026-04-24T09:59:10.365Z</time></trkpt><trkpt lat="38.0352317" lon="15.764805"><ele>953.0</ele><time>2026-04-24T09:59:11.365Z</time></trkpt><trkpt lat="38.035195" lon="15.7649567"><ele>953.0</ele><time>2026-04-24T09:59:12.364Z</time></trkpt><trkpt lat="38.03515" lon="15.7651083"><ele>953.0</ele><time>2026-04-24T09:59:13.364Z</time></trkpt><trkpt lat="38.0351167" lon="15.7652683"><ele>953.0</ele><time>2026-04-24T09:59:14.365Z</time></trkpt><trkpt lat="38.0350817" lon="15.7654433"><ele>953.0</ele><time>2026-04-24T09:59:15.365Z</time></trkpt><trkpt lat="38.0350483" lon="15.7656267"><ele>954.0</ele><time>2026-04-24T09:59:16.364Z</time></trkpt><trkpt lat="38.035" lon="15.7658133"><ele>955.0</ele><time>2026-04-24T09:59:17.364Z</time></trkpt><trkpt lat="38.0349483" lon="15.7660217"><ele>956.0</ele><time>2026-04-24T09:59:18.364Z</time></trkpt><trkpt lat="38.0349083" lon="15.7662483"><ele>956.6666666666667</ele><time>2026-04-24T09:59:19.364Z</time></trkpt><trkpt lat="38.0348633" lon="15.766485"><ele>957.3333333333333</ele><time>2026-04-24T09:59:20.364Z</time></trkpt><trkpt lat="38.0348233" lon="15.766715"><ele>958.0</ele><time>2026-04-24T09:59:21.365Z</time></trkpt><trkpt lat="38.0347767" lon="15.7669433"><ele>960.0</ele><time>2026-04-24T09:59:22.364Z</time></trkpt><trkpt lat="38.0347333" lon="15.76715"><ele>962.0</ele><time>2026-04-24T09:59:23.364Z</time></trkpt><trkpt lat="38.0346833" lon="15.7673317"><ele>964.0</ele><time>2026-04-24T09:59:24.365Z</time></trkpt><trkpt lat="38.034615" lon="15.7674933"><ele>964.0</ele><time>2026-04-24T09:59:25.364Z</time></trkpt><trkpt lat="38.034555" lon="15.7676517"><ele>964.0</ele><time>2026-04-24T09:59:26.364Z</time></trkpt><trkpt lat="38.0344883" lon="15.767805"><ele>964.0</ele><time>2026-04-24T09:59:27.365Z</time></trkpt><trkpt lat="38.03442" lon="15.767965"><ele>964.0</ele><time>2026-04-24T09:59:28.364Z</time></trkpt><trkpt lat="38.034345" lon="15.7681267"><ele>966.3333333333333</ele><time>2026-04-24T09:59:29.364Z</time></trkpt><trkpt lat="38.0342667" lon="15.7682867"><ele>968.6666666666667</ele><time>2026-04-24T09:59:30.365Z</time></trkpt><trkpt lat="38.034205" lon="15.768465"><ele>971.0</ele><time>2026-04-24T09:59:31.364Z</time></trkpt><trkpt lat="38.0341433" lon="15.7686583"><ele>971.3333333333334</ele><time>2026-04-24T09:59:32.364Z</time></trkpt><trkpt lat="38.0340733" lon="15.76886"><ele>971.6666666666667</ele><time>2026-04-24T09:59:33.364Z</time></trkpt><trkpt lat="38.0340083" lon="15.7690733"><ele>972.0</ele><time>2026-04-24T09:59:34.365Z</time></trkpt><trkpt lat="38.0339367" lon="15.76929"><ele>974.0</ele><time>2026-04-24T09:59:35.365Z</time></trkpt><trkpt lat="38.0338667" lon="15.7695067"><ele>976.0</ele><time>2026-04-24T09:59:36.364Z</time></trkpt><trkpt lat="38.0338033" lon="15.7697217"><ele>978.0</ele><time>2026-04-24T09:59:37.364Z</time></trkpt><trkpt lat="38.0337433" lon="15.7699283"><ele>978.0</ele><time>2026-04-24T09:59:38.365Z</time></trkpt><trkpt lat="38.03369" lon="15.7701283"><ele>978.0</ele><time>2026-04-24T09:59:39.364Z</time></trkpt><trkpt lat="38.033635" lon="15.7703133"><ele>978.0</ele><time>2026-04-24T09:59:40.365Z</time></trkpt><trkpt lat="38.03357" lon="15.7704967"><ele>978.6666666666667</ele><time>2026-04-24T09:59:41.364Z</time></trkpt><trkpt lat="38.0335" lon="15.7706733"><ele>979.3333333333334</ele><time>2026-04-24T09:59:42.364Z</time></trkpt><trkpt lat="38.03343" lon="15.7708367"><ele>980.0</ele><time>2026-04-24T09:59:43.364Z</time></trkpt><trkpt lat="38.0333517" lon="15.7709983"><ele>985.0</ele><time>2026-04-24T09:59:44.365Z</time></trkpt><trkpt lat="38.0332667" lon="15.77116"><ele>990.0</ele><time>2026-04-24T09:59:45.364Z</time></trkpt><trkpt lat="38.03319" lon="15.7713433"><ele>995.0</ele><time>2026-04-24T09:59:46.364Z</time></trkpt><trkpt lat="38.0331183" lon="15.7715367"><ele>995.0</ele><time>2026-04-24T09:59:47.365Z</time></trkpt><trkpt lat="38.0330483" lon="15.771735"><ele>995.0</ele><time>2026-04-24T09:59:48.364Z</time></trkpt><trkpt lat="38.03298" lon="15.77194"><ele>995.0</ele><time>2026-04-24T09:59:49.364Z</time></trkpt><trkpt lat="38.0329183" lon="15.77213"><ele>995.0</ele><time>2026-04-24T09:59:50.364Z</time></trkpt><trkpt lat="38.0328517" lon="15.7723033"><ele>995.0</ele><time>2026-04-24T09:59:51.364Z</time></trkpt><trkpt lat="38.0327933" lon="15.772475"><ele>995.0</ele><time>2026-04-24T09:59:52.365Z</time></trkpt><trkpt lat="38.032725" lon="15.7726317"><ele>995.0</ele><time>2026-04-24T09:59:53.364Z</time></trkpt><trkpt lat="38.03266" lon="15.77279"><ele>994.25</ele><time>2026-04-24T09:59:54.365Z</time></trkpt><trkpt lat="38.0325867" lon="15.7729267"><ele>993.5</ele><time>2026-04-24T09:59:55.365Z</time></trkpt><trkpt lat="38.0325433" lon="15.773055"><ele>992.75</ele><time>2026-04-24T09:59:56.364Z</time></trkpt><trkpt lat="38.032515" lon="15.7732"><ele>992.0</ele><time>2026-04-24T09:59:57.364Z</time></trkpt><trkpt lat="38.0325283" lon="15.773335"><ele>992.0</ele><time>2026-04-24T09:59:58.365Z</time></trkpt><trkpt lat="38.032555" lon="15.7734383"><ele>992.0</ele><time>2026-04-24T09:59:59.364Z</time></trkpt><trkpt lat="38.03258" lon="15.7735333"><ele>992.0</ele><time>2026-04-24T10:00:00.365Z</time></trkpt><trkpt lat="38.032605" lon="15.7736433"><ele>992.0</ele><time>2026-04-24T10:00:01.365Z</time></trkpt><trkpt lat="38.032635" lon="15.7737717"><ele>992.0</ele><time>2026-04-24T10:00:02.365Z</time></trkpt><trkpt lat="38.032675" lon="15.7739317"><ele>992.3333333333334</ele><time>2026-04-24T10:00:03.365Z</time></trkpt><trkpt lat="38.0327067" lon="15.774105"><ele>992.6666666666667</ele><time>2026-04-24T10:00:04.364Z</time></trkpt><trkpt lat="38.0327383" lon="15.7742983"><ele>993.0</ele><time>2026-04-24T10:00:05.365Z</time></trkpt><trkpt lat="38.0327633" lon="15.7745167"><ele>993.0</ele><time>2026-04-24T10:00:06.364Z</time></trkpt><trkpt lat="38.0327867" lon="15.774745"><ele>993.0</ele><time>2026-04-24T10:00:07.364Z</time></trkpt><trkpt lat="38.03281" lon="15.7749733"><ele>993.0</ele><time>2026-04-24T10:00:08.364Z</time></trkpt><trkpt lat="38.03283" lon="15.7752083"><ele>996.0</ele><time>2026-04-24T10:00:09.364Z</time></trkpt><trkpt lat="38.0328517" lon="15.7754517"><ele>999.0</ele><time>2026-04-24T10:00:10.365Z</time></trkpt><trkpt lat="38.03287" lon="15.7756917"><ele>1002.0</ele><time>2026-04-24T10:00:11.365Z</time></trkpt><trkpt lat="38.0328883" lon="15.7759233"><ele>1004.3333333333333</ele><time>2026-04-24T10:00:12.365Z</time></trkpt><trkpt lat="38.032915" lon="15.7761417"><ele>1006.6666666666666</ele><time>2026-04-24T10:00:13.364Z</time></trkpt><trkpt lat="38.0329583" lon="15.7763383"><ele>1009.0</ele><time>2026-04-24T10:00:14.364Z</time></trkpt><trkpt lat="38.03301" lon="15.7765217"><ele>1009.0</ele><time>2026-04-24T10:00:15.365Z</time></trkpt><trkpt lat="38.0330533" lon="15.7767033"><ele>1009.0</ele><time>2026-04-24T10:00:16.364Z</time></trkpt><trkpt lat="38.0330917" lon="15.7768783"><ele>1009.0</ele><time>2026-04-24T10:00:17.364Z</time></trkpt><trkpt lat="38.033115" lon="15.7770583"><ele>1009.0</ele><time>2026-04-24T10:00:18.364Z</time></trkpt><trkpt lat="38.0331183" lon="15.777255"><ele>1009.3333333333333</ele><time>2026-04-24T10:00:19.365Z</time></trkpt><trkpt lat="38.03311" lon="15.7774517"><ele>1009.6666666666667</ele><time>2026-04-24T10:00:20.364Z</time></trkpt><trkpt lat="38.0330917" lon="15.7776517"><ele>1010.0</ele><time>2026-04-24T10:00:21.364Z</time></trkpt><trkpt lat="38.03307" lon="15.77785"><ele>1009.3333333333334</ele><time>2026-04-24T10:00:22.365Z</time></trkpt><trkpt lat="38.0330517" lon="15.7780517"><ele>1008.6666666666667</ele><time>2026-04-24T10:00:23.364Z</time></trkpt><trkpt lat="38.0330267" lon="15.77826"><ele>1008.0</ele><time>2026-04-24T10:00:24.366Z</time></trkpt><trkpt lat="38.0329983" lon="15.778465"><ele>1008.3333333333333</ele><time>2026-04-24T10:00:25.365Z</time></trkpt><trkpt lat="38.0329783" lon="15.778665"><ele>1008.6666666666666</ele><time>2026-04-24T10:00:26.365Z</time></trkpt><trkpt lat="38.0329467" lon="15.7788767"><ele>1009.0</ele><time>2026-04-24T10:00:27.365Z</time></trkpt><trkpt lat="38.032925" lon="15.7790783"><ele>1009.0</ele><time>2026-04-24T10:00:28.365Z</time></trkpt><trkpt lat="38.0328833" lon="15.7792567"><ele>1009.0</ele><time>2026-04-24T10:00:29.366Z</time></trkpt><trkpt lat="38.03285" lon="15.7794217"><ele>1009.0</ele><time>2026-04-24T10:00:30.366Z</time></trkpt><trkpt lat="38.0328283" lon="15.77958"><ele>1009.0</ele><time>2026-04-24T10:00:31.366Z</time></trkpt><trkpt lat="38.0328267" lon="15.7797233"><ele>1010.0</ele><time>2026-04-24T10:00:32.365Z</time></trkpt><trkpt lat="38.0328467" lon="15.7798667"><ele>1011.0</ele><time>2026-04-24T10:00:33.365Z</time></trkpt><trkpt lat="38.0328717" lon="15.7800083"><ele>1012.0</ele><time>2026-04-24T10:00:34.365Z</time></trkpt><trkpt lat="38.0329067" lon="15.780145"><ele>1013.0</ele><time>2026-04-24T10:00:35.366Z</time></trkpt><trkpt lat="38.032925" lon="15.7802883"><ele>1013.2</ele><time>2026-04-24T10:00:36.365Z</time></trkpt><trkpt lat="38.0329333" lon="15.7804267"><ele>1013.4</ele><time>2026-04-24T10:00:37.365Z</time></trkpt><trkpt lat="38.03293" lon="15.7805633"><ele>1013.6000000000001</ele><time>2026-04-24T10:00:38.365Z</time></trkpt><trkpt lat="38.0329317" lon="15.7806917"><ele>1013.8000000000001</ele><time>2026-04-24T10:00:39.366Z</time></trkpt><trkpt lat="38.0329617" lon="15.7808083"><ele>1014.0</ele><time>2026-04-24T10:00:40.365Z</time></trkpt><trkpt lat="38.0330033" lon="15.7809183"><ele>1013.4000000000001</ele><time>2026-04-24T10:00:41.365Z</time></trkpt><trkpt lat="38.03305" lon="15.78103"><ele>1012.8000000000001</ele><time>2026-04-24T10:00:42.365Z</time></trkpt><trkpt lat="38.0330833" lon="15.7811533"><ele>1012.1999999999999</ele><time>2026-04-24T10:00:43.365Z</time></trkpt><trkpt lat="38.0330967" lon="15.78127"><ele>1011.5999999999999</ele><time>2026-04-24T10:00:44.366Z</time></trkpt><trkpt lat="38.0331133" lon="15.78138"><ele>1011.0</ele><time>2026-04-24T10:00:45.365Z</time></trkpt><trkpt lat="38.0331433" lon="15.7814783"><ele>1011.0</ele><time>2026-04-24T10:00:46.366Z</time></trkpt><trkpt lat="38.033185" lon="15.7815567"><ele>1011.0</ele><time>2026-04-24T10:00:47.365Z</time></trkpt><trkpt lat="38.0332417" lon="15.7816233"><ele>1011.0</ele><time>2026-04-24T10:00:48.366Z</time></trkpt><trkpt lat="38.0333083" lon="15.7816783"><ele>1011.0</ele><time>2026-04-24T10:00:49.365Z</time></trkpt><trkpt lat="38.033395" lon="15.781725"><ele>1011.0</ele><time>2026-04-24T10:00:50.366Z</time></trkpt><trkpt lat="38.03349" lon="15.781765"><ele>1011.0</ele><time>2026-04-24T10:00:51.366Z</time></trkpt><trkpt lat="38.0336" lon="15.7818117"><ele>1003.75</ele><time>2026-04-24T10:00:52.366Z</time></trkpt><trkpt lat="38.0337183" lon="15.7818733"><ele>996.5</ele><time>2026-04-24T10:00:53.366Z</time></trkpt><trkpt lat="38.0338467" lon="15.7819467"><ele>989.25</ele><time>2026-04-24T10:00:54.366Z</time></trkpt><trkpt lat="38.0339867" lon="15.7820183"><ele>982.0</ele><time>2026-04-24T10:00:55.366Z</time></trkpt><trkpt lat="38.03413" lon="15.782085"><ele>985.3333333333333</ele><time>2026-04-24T10:00:56.365Z</time></trkpt><trkpt lat="38.034265" lon="15.7821583"><ele>988.6666666666667</ele><time>2026-04-24T10:00:57.365Z</time></trkpt><trkpt lat="38.0344017" lon="15.7822467"><ele>992.0</ele><time>2026-04-24T10:00:58.366Z</time></trkpt><trkpt lat="38.03454" lon="15.78233"><ele>992.0</ele><time>2026-04-24T10:00:59.366Z</time></trkpt><trkpt lat="38.0346817" lon="15.78244"><ele>992.0</ele><time>2026-04-24T10:01:00.366Z</time></trkpt><trkpt lat="38.0348233" lon="15.782555"><ele>992.0</ele><time>2026-04-24T10:01:01.365Z</time></trkpt><trkpt lat="38.0349667" lon="15.7826767"><ele>986.6666666666667</ele><time>2026-04-24T10:01:02.365Z</time></trkpt><trkpt lat="38.035105" lon="15.7828033"><ele>981.3333333333333</ele><time>2026-04-24T10:01:03.366Z</time></trkpt><trkpt lat="38.0352367" lon="15.7829383"><ele>976.0</ele><time>2026-04-24T10:01:04.365Z</time></trkpt><trkpt lat="38.035365" lon="15.783075"><ele>976.0</ele><time>2026-04-24T10:01:05.365Z</time></trkpt><trkpt lat="38.0354967" lon="15.7832167"><ele>976.0</ele><time>2026-04-24T10:01:06.365Z</time></trkpt><trkpt lat="38.0356217" lon="15.7833467"><ele>976.0</ele><time>2026-04-24T10:01:07.365Z</time></trkpt><trkpt lat="38.035745" lon="15.7834717"><ele>977.3333333333333</ele><time>2026-04-24T10:01:08.366Z</time></trkpt><trkpt lat="38.0358717" lon="15.7836017"><ele>978.6666666666667</ele><time>2026-04-24T10:01:09.366Z</time></trkpt><trkpt lat="38.0359867" lon="15.7837217"><ele>980.0</ele><time>2026-04-24T10:01:10.365Z</time></trkpt><trkpt lat="38.0360967" lon="15.7838367"><ele>980.0</ele><time>2026-04-24T10:01:11.365Z</time></trkpt><trkpt lat="38.0361983" lon="15.7839333"><ele>980.0</ele><time>2026-04-24T10:01:12.365Z</time></trkpt><trkpt lat="38.0363067" lon="15.784025"><ele>980.0</ele><time>2026-04-24T10:01:13.365Z</time></trkpt><trkpt lat="38.036425" lon="15.78411"><ele>980.0</ele><time>2026-04-24T10:01:14.365Z</time></trkpt><trkpt lat="38.0365467" lon="15.7841883"><ele>982.25</ele><time>2026-04-24T10:01:15.365Z</time></trkpt><trkpt lat="38.0366733" lon="15.784245"><ele>984.5</ele><time>2026-04-24T10:01:16.366Z</time></trkpt><trkpt lat="38.0367917" lon="15.78429"><ele>986.75</ele><time>2026-04-24T10:01:17.365Z</time></trkpt><trkpt lat="38.0369067" lon="15.78432"><ele>989.0</ele><time>2026-04-24T10:01:18.365Z</time></trkpt><trkpt lat="38.0370233" lon="15.784335"><ele>989.0</ele><time>2026-04-24T10:01:19.365Z</time></trkpt><trkpt lat="38.037155" lon="15.7843333"><ele>989.0</ele><time>2026-04-24T10:01:20.365Z</time></trkpt><trkpt lat="38.0372967" lon="15.7843217"><ele>989.0</ele><time>2026-04-24T10:01:21.365Z</time></trkpt><trkpt lat="38.0374533" lon="15.7842967"><ele>989.0</ele><time>2026-04-24T10:01:22.365Z</time></trkpt><trkpt lat="38.03761" lon="15.7842567"><ele>989.0</ele><time>2026-04-24T10:01:23.365Z</time></trkpt><trkpt lat="38.0377517" lon="15.7842233"><ele>989.0</ele><time>2026-04-24T10:01:24.365Z</time></trkpt><trkpt lat="38.0378883" lon="15.7841917"><ele>989.0</ele><time>2026-04-24T10:01:25.365Z</time></trkpt><trkpt lat="38.03803" lon="15.7841683"><ele>989.0</ele><time>2026-04-24T10:01:26.366Z</time></trkpt><trkpt lat="38.0381633" lon="15.7841517"><ele>989.5</ele><time>2026-04-24T10:01:27.366Z</time></trkpt><trkpt lat="38.0383017" lon="15.784135"><ele>990.0</ele><time>2026-04-24T10:01:28.366Z</time></trkpt><trkpt lat="38.038445" lon="15.7841167"><ele>990.5</ele><time>2026-04-24T10:01:29.365Z</time></trkpt><trkpt lat="38.0385933" lon="15.78411"><ele>991.0</ele><time>2026-04-24T10:01:30.365Z</time></trkpt><trkpt lat="38.038755" lon="15.7841"><ele>991.0</ele><time>2026-04-24T10:01:31.366Z</time></trkpt><trkpt lat="38.0389183" lon="15.7840883"><ele>991.0</ele><time>2026-04-24T10:01:32.365Z</time></trkpt><trkpt lat="38.0390883" lon="15.7840667"><ele>991.0</ele><time>2026-04-24T10:01:33.365Z</time></trkpt><trkpt lat="38.0392417" lon="15.7840183"><ele>989.3333333333333</ele><time>2026-04-24T10:01:34.366Z</time></trkpt><trkpt lat="38.039405" lon="15.78396"><ele>987.6666666666667</ele><time>2026-04-24T10:01:35.365Z</time></trkpt><trkpt lat="38.0395683" lon="15.783885"><ele>986.0</ele><time>2026-04-24T10:01:36.366Z</time></trkpt><trkpt lat="38.039725" lon="15.7838117"><ele>986.0</ele><time>2026-04-24T10:01:37.365Z</time></trkpt><trkpt lat="38.0398783" lon="15.783725"><ele>986.0</ele><time>2026-04-24T10:01:38.366Z</time></trkpt><trkpt lat="38.0400267" lon="15.7836283"><ele>986.0</ele><time>2026-04-24T10:01:39.366Z</time></trkpt><trkpt lat="38.0401717" lon="15.783515"><ele>986.3333333333334</ele><time>2026-04-24T10:01:40.365Z</time></trkpt><trkpt lat="38.0403167" lon="15.7833883"><ele>986.6666666666667</ele><time>2026-04-24T10:01:41.365Z</time></trkpt><trkpt lat="38.0404617" lon="15.783275"><ele>987.0</ele><time>2026-04-24T10:01:42.365Z</time></trkpt><trkpt lat="38.0405967" lon="15.783165"><ele>987.0</ele><time>2026-04-24T10:01:43.366Z</time></trkpt><trkpt lat="38.040725" lon="15.783055"><ele>987.0</ele><time>2026-04-24T10:01:44.365Z</time></trkpt><trkpt lat="38.040855" lon="15.78295"><ele>987.0</ele><time>2026-04-24T10:01:45.365Z</time></trkpt><trkpt lat="38.0409733" lon="15.7828383"><ele>987.25</ele><time>2026-04-24T10:01:46.365Z</time></trkpt><trkpt lat="38.04109" lon="15.7827283"><ele>987.5</ele><time>2026-04-24T10:01:47.365Z</time></trkpt><trkpt lat="38.041205" lon="15.7826167"><ele>987.75</ele><time>2026-04-24T10:01:48.366Z</time></trkpt><trkpt lat="38.0413183" lon="15.78251"><ele>988.0</ele><time>2026-04-24T10:01:49.365Z</time></trkpt><trkpt lat="38.0414317" lon="15.78241"><ele>989.75</ele><time>2026-04-24T10:01:50.366Z</time></trkpt><trkpt lat="38.041535" lon="15.7823167"><ele>991.5</ele><time>2026-04-24T10:01:51.365Z</time></trkpt><trkpt lat="38.041635" lon="15.7822233"><ele>993.25</ele><time>2026-04-24T10:01:52.365Z</time></trkpt><trkpt lat="38.0417267" lon="15.7821283"><ele>995.0</ele><time>2026-04-24T10:01:53.366Z</time></trkpt><trkpt lat="38.04182" lon="15.7820433"><ele>995.0</ele><time>2026-04-24T10:01:54.366Z</time></trkpt><trkpt lat="38.0419217" lon="15.7819733"><ele>995.0</ele><time>2026-04-24T10:01:55.365Z</time></trkpt><trkpt lat="38.0420333" lon="15.7819233"><ele>995.0</ele><time>2026-04-24T10:01:56.365Z</time></trkpt><trkpt lat="38.0421567" lon="15.7818883"><ele>995.0</ele><time>2026-04-24T10:01:57.366Z</time></trkpt><trkpt lat="38.0422833" lon="15.781845"><ele>995.75</ele><time>2026-04-24T10:01:58.366Z</time></trkpt><trkpt lat="38.0423983" lon="15.7818"><ele>996.5</ele><time>2026-04-24T10:01:59.366Z</time></trkpt><trkpt lat="38.042515" lon="15.7817583"><ele>997.25</ele><time>2026-04-24T10:02:00.365Z</time></trkpt><trkpt lat="38.042635" lon="15.7817167"><ele>998.0</ele><time>2026-04-24T10:02:01.366Z</time></trkpt><trkpt lat="38.04275" lon="15.7816667"><ele>998.0</ele><time>2026-04-24T10:02:02.366Z</time></trkpt><trkpt lat="38.042865" lon="15.7816083"><ele>998.0</ele><time>2026-04-24T10:02:03.366Z</time></trkpt><trkpt lat="38.0429817" lon="15.7815517"><ele>998.0</ele><time>2026-04-24T10:02:04.365Z</time></trkpt><trkpt lat="38.0430967" lon="15.7815033"><ele>998.0</ele><time>2026-04-24T10:02:05.365Z</time></trkpt><trkpt lat="38.0432117" lon="15.7814517"><ele>997.8</ele><time>2026-04-24T10:02:06.366Z</time></trkpt><trkpt lat="38.0433217" lon="15.7813867"><ele>997.5999999999999</ele><time>2026-04-24T10:02:07.366Z</time></trkpt><trkpt lat="38.0434283" lon="15.7813183"><ele>997.4000000000001</ele><time>2026-04-24T10:02:08.366Z</time></trkpt><trkpt lat="38.043515" lon="15.7812583"><ele>997.2</ele><time>2026-04-24T10:02:09.366Z</time></trkpt><trkpt lat="38.043605" lon="15.7812033"><ele>997.0</ele><time>2026-04-24T10:02:10.365Z</time></trkpt><trkpt lat="38.0437267" lon="15.78115"><ele>997.0</ele><time>2026-04-24T10:02:11.366Z</time></trkpt><trkpt lat="38.0438567" lon="15.7811133"><ele>997.0</ele><time>2026-04-24T10:02:12.366Z</time></trkpt><trkpt lat="38.0439933" lon="15.78109"><ele>997.0</ele><time>2026-04-24T10:02:13.366Z</time></trkpt><trkpt lat="38.044135" lon="15.7810783"><ele>997.0</ele><time>2026-04-24T10:02:14.365Z</time></trkpt><trkpt lat="38.0442767" lon="15.7810833"><ele>995.2</ele><time>2026-04-24T10:02:15.366Z</time></trkpt><trkpt lat="38.0443867" lon="15.78109"><ele>993.4000000000001</ele><time>2026-04-24T10:02:16.365Z</time></trkpt><trkpt lat="38.0444883" lon="15.781145"><ele>991.5999999999999</ele><time>2026-04-24T10:02:17.365Z</time></trkpt><trkpt lat="38.0445517" lon="15.7812233"><ele>989.8</ele><time>2026-04-24T10:02:18.365Z</time></trkpt><trkpt lat="38.0445717" lon="15.781325"><ele>988.0</ele><time>2026-04-24T10:02:19.366Z</time></trkpt><trkpt lat="38.0445533" lon="15.7814267"><ele>988.0</ele><time>2026-04-24T10:02:20.365Z</time></trkpt><trkpt lat="38.04449" lon="15.78153"><ele>988.0</ele><time>2026-04-24T10:02:21.365Z</time></trkpt><trkpt lat="38.0443983" lon="15.7816283"><ele>988.0</ele><time>2026-04-24T10:02:22.366Z</time></trkpt><trkpt lat="38.0443033" lon="15.7817167"><ele>988.0</ele><time>2026-04-24T10:02:23.365Z</time></trkpt><trkpt lat="38.044225" lon="15.7817867"><ele>988.0</ele><time>2026-04-24T10:02:24.366Z</time></trkpt><trkpt lat="38.04419" lon="15.781875"><ele>986.1666666666666</ele><time>2026-04-24T10:02:25.366Z</time></trkpt><trkpt lat="38.0441933" lon="15.7819567"><ele>984.3333333333333</ele><time>2026-04-24T10:02:26.365Z</time></trkpt><trkpt lat="38.0442233" lon="15.7820283"><ele>982.5</ele><time>2026-04-24T10:02:27.365Z</time></trkpt><trkpt lat="38.0442833" lon="15.7820733"><ele>980.6666666666667</ele><time>2026-04-24T10:02:28.365Z</time></trkpt><trkpt lat="38.0443667" lon="15.7821033"><ele>978.8333333333334</ele><time>2026-04-24T10:02:29.365Z</time></trkpt><trkpt lat="38.0444733" lon="15.7821167"><ele>977.0</ele><time>2026-04-24T10:02:30.366Z</time></trkpt><trkpt lat="38.0445967" lon="15.7821133"><ele>977.0</ele><time>2026-04-24T10:02:31.366Z</time></trkpt><trkpt lat="38.0447283" lon="15.7821"><ele>977.0</ele><time>2026-04-24T10:02:32.365Z</time></trkpt><trkpt lat="38.0448583" lon="15.78208"><ele>977.0</ele><time>2026-04-24T10:02:33.365Z</time></trkpt><trkpt lat="38.0449717" lon="15.7820433"><ele>977.0</ele><time>2026-04-24T10:02:34.366Z</time></trkpt><trkpt lat="38.0450833" lon="15.781995"><ele>977.75</ele><time>2026-04-24T10:02:35.365Z</time></trkpt><trkpt lat="38.04519" lon="15.7819167"><ele>978.5</ele><time>2026-04-24T10:02:36.365Z</time></trkpt><trkpt lat="38.0452933" lon="15.7818183"><ele>979.25</ele><time>2026-04-24T10:02:37.365Z</time></trkpt><trkpt lat="38.045395" lon="15.7817117"><ele>980.0</ele><time>2026-04-24T10:02:38.365Z</time></trkpt><trkpt lat="38.0455033" lon="15.7816267"><ele>980.25</ele><time>2026-04-24T10:02:39.365Z</time></trkpt><trkpt lat="38.0456233" lon="15.7815683"><ele>980.5</ele><time>2026-04-24T10:02:40.366Z</time></trkpt><trkpt lat="38.0457533" lon="15.7815217"><ele>980.75</ele><time>2026-04-24T10:02:41.365Z</time></trkpt><trkpt lat="38.0459" lon="15.781485"><ele>981.0</ele><time>2026-04-24T10:02:42.366Z</time></trkpt><trkpt lat="38.04604" lon="15.7814533"><ele>979.75</ele><time>2026-04-24T10:02:43.366Z</time></trkpt><trkpt lat="38.046185" lon="15.7814367"><ele>978.5</ele><time>2026-04-24T10:02:44.365Z</time></trkpt><trkpt lat="38.0463383" lon="15.7814333"><ele>977.25</ele><time>2026-04-24T10:02:45.366Z</time></trkpt><trkpt lat="38.0464833" lon="15.78145"><ele>976.0</ele><time>2026-04-24T10:02:46.365Z</time></trkpt><trkpt lat="38.04663" lon="15.7814667"><ele>975.25</ele><time>2026-04-24T10:02:47.365Z</time></trkpt><trkpt lat="38.04677" lon="15.7814817"><ele>974.5</ele><time>2026-04-24T10:02:48.366Z</time></trkpt><trkpt lat="38.046905" lon="15.7814883"><ele>973.75</ele><time>2026-04-24T10:02:49.365Z</time></trkpt><trkpt lat="38.047045" lon="15.7814767"><ele>973.0</ele><time>2026-04-24T10:02:50.366Z</time></trkpt><trkpt lat="38.0471667" lon="15.7814433"><ele>973.0</ele><time>2026-04-24T10:02:51.366Z</time></trkpt><trkpt lat="38.04726" lon="15.781395"><ele>973.0</ele><time>2026-04-24T10:02:52.365Z</time></trkpt><trkpt lat="38.047335" lon="15.7813183"><ele>973.0</ele><time>2026-04-24T10:02:53.365Z</time></trkpt><trkpt lat="38.0473967" lon="15.7812183"><ele>973.0</ele><time>2026-04-24T10:02:54.366Z</time></trkpt><trkpt lat="38.0474433" lon="15.781085"><ele>973.0</ele><time>2026-04-24T10:02:55.365Z</time></trkpt><trkpt lat="38.0474833" lon="15.7809533"><ele>973.8333333333333</ele><time>2026-04-24T10:02:56.365Z</time></trkpt><trkpt lat="38.0475283" lon="15.7808483"><ele>974.6666666666666</ele><time>2026-04-24T10:02:57.365Z</time></trkpt><trkpt lat="38.047575" lon="15.7807717"><ele>975.5</ele><time>2026-04-24T10:02:58.365Z</time></trkpt><trkpt lat="38.0476833" lon="15.7807667"><ele>976.3333333333333</ele><time>2026-04-24T10:03:00.365Z</time></trkpt><trkpt lat="38.0477367" lon="15.7808217"><ele>977.1666666666666</ele><time>2026-04-24T10:03:01.365Z</time></trkpt><trkpt lat="38.0477783" lon="15.7809133"><ele>978.0</ele><time>2026-04-24T10:03:02.365Z</time></trkpt><trkpt lat="38.0477983" lon="15.781025"><ele>978.4</ele><time>2026-04-24T10:03:03.366Z</time></trkpt><trkpt lat="38.0477983" lon="15.7811617"><ele>978.8</ele><time>2026-04-24T10:03:04.365Z</time></trkpt><trkpt lat="38.0477733" lon="15.7813"><ele>979.2</ele><time>2026-04-24T10:03:05.365Z</time></trkpt><trkpt lat="38.0477317" lon="15.7814433"><ele>979.6</ele><time>2026-04-24T10:03:06.366Z</time></trkpt><trkpt lat="38.0477167" lon="15.781575"><ele>980.0</ele><time>2026-04-24T10:03:07.365Z</time></trkpt><trkpt lat="38.0477333" lon="15.7816983"><ele>980.0</ele><time>2026-04-24T10:03:08.366Z</time></trkpt><trkpt lat="38.0477667" lon="15.7818433"><ele>980.0</ele><time>2026-04-24T10:03:09.365Z</time></trkpt><trkpt lat="38.04783" lon="15.7819933"><ele>980.0</ele><time>2026-04-24T10:03:10.365Z</time></trkpt><trkpt lat="38.047895" lon="15.782125"><ele>980.0</ele><time>2026-04-24T10:03:11.365Z</time></trkpt><trkpt lat="38.0479617" lon="15.7822383"><ele>980.5</ele><time>2026-04-24T10:03:12.365Z</time></trkpt><trkpt lat="38.04804" lon="15.7823283"><ele>981.0</ele><time>2026-04-24T10:03:13.366Z</time></trkpt><trkpt lat="38.0481183" lon="15.7824117"><ele>981.5</ele><time>2026-04-24T10:03:14.365Z</time></trkpt><trkpt lat="38.0482033" lon="15.78251"><ele>982.0</ele><time>2026-04-24T10:03:15.365Z</time></trkpt><trkpt lat="38.0482783" lon="15.78264"><ele>984.5</ele><time>2026-04-24T10:03:16.366Z</time></trkpt><trkpt lat="38.04835" lon="15.7827683"><ele>987.0</ele><time>2026-04-24T10:03:17.366Z</time></trkpt><trkpt lat="38.0484367" lon="15.7828983"><ele>989.5</ele><time>2026-04-24T10:03:18.365Z</time></trkpt><trkpt lat="38.048525" lon="15.7830283"><ele>992.0</ele><time>2026-04-24T10:03:19.365Z</time></trkpt><trkpt lat="38.048625" lon="15.78316"><ele>992.0</ele><time>2026-04-24T10:03:20.365Z</time></trkpt><trkpt lat="38.0487317" lon="15.78328"><ele>992.0</ele><time>2026-04-24T10:03:21.365Z</time></trkpt><trkpt lat="38.0488367" lon="15.78341"><ele>992.0</ele><time>2026-04-24T10:03:22.365Z</time></trkpt><trkpt lat="38.0489317" lon="15.7835467"><ele>992.0</ele><time>2026-04-24T10:03:23.365Z</time></trkpt><trkpt lat="38.049015" lon="15.78369"><ele>992.75</ele><time>2026-04-24T10:03:24.365Z</time></trkpt><trkpt lat="38.0490967" lon="15.7838217"><ele>993.5</ele><time>2026-04-24T10:03:25.366Z</time></trkpt><trkpt lat="38.0491783" lon="15.783935"><ele>994.25</ele><time>2026-04-24T10:03:26.366Z</time></trkpt><trkpt lat="38.0492883" lon="15.784025"><ele>995.0</ele><time>2026-04-24T10:03:27.365Z</time></trkpt><trkpt lat="38.0494167" lon="15.78409"><ele>996.25</ele><time>2026-04-24T10:03:28.365Z</time></trkpt><trkpt lat="38.0495417" lon="15.7841483"><ele>997.5</ele><time>2026-04-24T10:03:29.366Z</time></trkpt><trkpt lat="38.0496833" lon="15.7841783"><ele>998.75</ele><time>2026-04-24T10:03:30.366Z</time></trkpt><trkpt lat="38.0498383" lon="15.7841917"><ele>1000.0</ele><time>2026-04-24T10:03:31.366Z</time></trkpt><trkpt lat="38.0499967" lon="15.784205"><ele>1002.3333333333333</ele><time>2026-04-24T10:03:32.366Z</time></trkpt><trkpt lat="38.0501633" lon="15.7842183"><ele>1004.6666666666667</ele><time>2026-04-24T10:03:33.365Z</time></trkpt><trkpt lat="38.0503233" lon="15.7842333"><ele>1007.0</ele><time>2026-04-24T10:03:34.365Z</time></trkpt><trkpt lat="38.0504833" lon="15.7842667"><ele>1007.0</ele><time>2026-04-24T10:03:35.366Z</time></trkpt><trkpt lat="38.050645" lon="15.784315"><ele>1007.0</ele><time>2026-04-24T10:03:36.365Z</time></trkpt><trkpt lat="38.050795" lon="15.7843633"><ele>1007.0</ele><time>2026-04-24T10:03:37.365Z</time></trkpt><trkpt lat="38.0509533" lon="15.7843867"><ele>1008.6666666666667</ele><time>2026-04-24T10:03:38.365Z</time></trkpt><trkpt lat="38.051115" lon="15.7843917"><ele>1010.3333333333333</ele><time>2026-04-24T10:03:39.366Z</time></trkpt><trkpt lat="38.0512783" lon="15.7843967"><ele>1012.0</ele><time>2026-04-24T10:03:40.365Z</time></trkpt><trkpt lat="38.05145" lon="15.7843867"><ele>1012.0</ele><time>2026-04-24T10:03:41.365Z</time></trkpt><trkpt lat="38.05161" lon="15.78438"><ele>1012.0</ele><time>2026-04-24T10:03:42.365Z</time></trkpt><trkpt lat="38.0517817" lon="15.7843783"><ele>1012.0</ele><time>2026-04-24T10:03:43.366Z</time></trkpt><trkpt lat="38.05194" lon="15.7843817"><ele>1014.3333333333333</ele><time>2026-04-24T10:03:44.365Z</time></trkpt><trkpt lat="38.052095" lon="15.784395"><ele>1016.6666666666667</ele><time>2026-04-24T10:03:45.365Z</time></trkpt><trkpt lat="38.052255" lon="15.78442"><ele>1019.0</ele><time>2026-04-24T10:03:46.365Z</time></trkpt><trkpt lat="38.0524083" lon="15.7844517"><ele>1021.6666666666667</ele><time>2026-04-24T10:03:47.366Z</time></trkpt><trkpt lat="38.0525717" lon="15.7844833"><ele>1024.3333333333333</ele><time>2026-04-24T10:03:48.365Z</time></trkpt><trkpt lat="38.0527283" lon="15.7845117"><ele>1027.0</ele><time>2026-04-24T10:03:49.365Z</time></trkpt><trkpt lat="38.05288" lon="15.7845417"><ele>1027.0</ele><time>2026-04-24T10:03:50.366Z</time></trkpt><trkpt lat="38.0530283" lon="15.784555"><ele>1027.0</ele><time>2026-04-24T10:03:51.365Z</time></trkpt><trkpt lat="38.0531733" lon="15.7845567"><ele>1027.0</ele><time>2026-04-24T10:03:52.365Z</time></trkpt><trkpt lat="38.053325" lon="15.7845333"><ele>1027.0</ele><time>2026-04-24T10:03:53.365Z</time></trkpt><trkpt lat="38.0534583" lon="15.7845167"><ele>1029.5</ele><time>2026-04-24T10:03:54.366Z</time></trkpt><trkpt lat="38.053585" lon="15.7845033"><ele>1032.0</ele><time>2026-04-24T10:03:55.365Z</time></trkpt><trkpt lat="38.0536967" lon="15.7845183"><ele>1034.5</ele><time>2026-04-24T10:03:56.365Z</time></trkpt><trkpt lat="38.0538117" lon="15.7845617"><ele>1037.0</ele><time>2026-04-24T10:03:57.366Z</time></trkpt><trkpt lat="38.0539233" lon="15.7846217"><ele>1037.0</ele><time>2026-04-24T10:03:58.366Z</time></trkpt><trkpt lat="38.0540417" lon="15.784695"><ele>1037.0</ele><time>2026-04-24T10:03:59.366Z</time></trkpt><trkpt lat="38.05416" lon="15.7847633"><ele>1037.0</ele><time>2026-04-24T10:04:00.365Z</time></trkpt><trkpt lat="38.05429" lon="15.7848083"><ele>1037.0</ele><time>2026-04-24T10:04:01.365Z</time></trkpt><trkpt lat="38.0544333" lon="15.78485"><ele>1039.0</ele><time>2026-04-24T10:04:02.365Z</time></trkpt><trkpt lat="38.0545933" lon="15.7849033"><ele>1041.0</ele><time>2026-04-24T10:04:03.365Z</time></trkpt><trkpt lat="38.0547533" lon="15.7849517"><ele>1043.0</ele><time>2026-04-24T10:04:04.366Z</time></trkpt><trkpt lat="38.0549133" lon="15.7849967"><ele>1042.6666666666667</ele><time>2026-04-24T10:04:05.365Z</time></trkpt><trkpt lat="38.055065" lon="15.78504"><ele>1042.3333333333333</ele><time>2026-04-24T10:04:06.366Z</time></trkpt><trkpt lat="38.055225" lon="15.7850683"><ele>1042.0</ele><time>2026-04-24T10:04:07.365Z</time></trkpt><trkpt lat="38.05539" lon="15.7850933"><ele>1042.0</ele><time>2026-04-24T10:04:08.365Z</time></trkpt><trkpt lat="38.055555" lon="15.7851233"><ele>1042.0</ele><time>2026-04-24T10:04:09.366Z</time></trkpt><trkpt lat="38.055715" lon="15.7851567"><ele>1042.0</ele><time>2026-04-24T10:04:10.365Z</time></trkpt><trkpt lat="38.0558517" lon="15.7851933"><ele>1036.5</ele><time>2026-04-24T10:04:11.365Z</time></trkpt><trkpt lat="38.0559617" lon="15.7852283"><ele>1031.0</ele><time>2026-04-24T10:04:12.365Z</time></trkpt><trkpt lat="38.0560633" lon="15.785245"><ele>1025.5</ele><time>2026-04-24T10:04:13.365Z</time></trkpt><trkpt lat="38.056185" lon="15.7852317"><ele>1020.0</ele><time>2026-04-24T10:04:14.366Z</time></trkpt><trkpt lat="38.0563217" lon="15.7852117"><ele>1020.0</ele><time>2026-04-24T10:04:15.365Z</time></trkpt><trkpt lat="38.0564633" lon="15.7851983"><ele>1020.0</ele><time>2026-04-24T10:04:16.365Z</time></trkpt><trkpt lat="38.0566067" lon="15.7851967"><ele>1020.0</ele><time>2026-04-24T10:04:17.366Z</time></trkpt><trkpt lat="38.0567583" lon="15.7852167"><ele>1020.0</ele><time>2026-04-24T10:04:18.366Z</time></trkpt><trkpt lat="38.05691" lon="15.7852583"><ele>1019.3333333333333</ele><time>2026-04-24T10:04:19.365Z</time></trkpt><trkpt lat="38.0570733" lon="15.7852983"><ele>1018.6666666666666</ele><time>2026-04-24T10:04:20.365Z</time></trkpt><trkpt lat="38.0572467" lon="15.78532"><ele>1018.0</ele><time>2026-04-24T10:04:21.365Z</time></trkpt><trkpt lat="38.0574267" lon="15.7853333"><ele>1020.6666666666666</ele><time>2026-04-24T10:04:22.366Z</time></trkpt><trkpt lat="38.05761" lon="15.785335"><ele>1023.3333333333333</ele><time>2026-04-24T10:04:23.365Z</time></trkpt><trkpt lat="38.0577933" lon="15.7853283"><ele>1026.0</ele><time>2026-04-24T10:04:24.366Z</time></trkpt><trkpt lat="38.057965" lon="15.785325"><ele>1026.0</ele><time>2026-04-24T10:04:25.365Z</time></trkpt><trkpt lat="38.0581267" lon="15.7853383"><ele>1026.0</ele><time>2026-04-24T10:04:26.366Z</time></trkpt><trkpt lat="38.05829" lon="15.785365"><ele>1026.0</ele><time>2026-04-24T10:04:27.366Z</time></trkpt><trkpt lat="38.0584483" lon="15.785405"><ele>1028.0</ele><time>2026-04-24T10:04:28.365Z</time></trkpt><trkpt lat="38.0586133" lon="15.7854383"><ele>1030.0</ele><time>2026-04-24T10:04:29.365Z</time></trkpt><trkpt lat="38.0587767" lon="15.785475"><ele>1032.0</ele><time>2026-04-24T10:04:30.366Z</time></trkpt><trkpt lat="38.0589383" lon="15.785505"><ele>1032.0</ele><time>2026-04-24T10:04:31.366Z</time></trkpt><trkpt lat="38.0590967" lon="15.78551"><ele>1032.0</ele><time>2026-04-24T10:04:32.365Z</time></trkpt><trkpt lat="38.0592583" lon="15.785495"><ele>1032.0</ele><time>2026-04-24T10:04:33.366Z</time></trkpt><trkpt lat="38.0594267" lon="15.78546"><ele>1035.3333333333333</ele><time>2026-04-24T10:04:34.366Z</time></trkpt><trkpt lat="38.0595967" lon="15.78542"><ele>1038.6666666666665</ele><time>2026-04-24T10:04:35.366Z</time></trkpt><trkpt lat="38.05976" lon="15.7853817"><ele>1042.0</ele><time>2026-04-24T10:04:36.365Z</time></trkpt><trkpt lat="38.0599067" lon="15.7853483"><ele>1043.8</ele><time>2026-04-24T10:04:37.366Z</time></trkpt><trkpt lat="38.06004" lon="15.7853233"><ele>1045.6</ele><time>2026-04-24T10:04:38.366Z</time></trkpt><trkpt lat="38.0601533" lon="15.785325"><ele>1047.3999999999999</ele><time>2026-04-24T10:04:39.365Z</time></trkpt><trkpt lat="38.06024" lon="15.7853583"><ele>1049.2</ele><time>2026-04-24T10:04:40.365Z</time></trkpt><trkpt lat="38.0603183" lon="15.7854183"><ele>1051.0</ele><time>2026-04-24T10:04:41.365Z</time></trkpt><trkpt lat="38.060395" lon="15.785505"><ele>1051.0</ele><time>2026-04-24T10:04:42.365Z</time></trkpt><trkpt lat="38.0604817" lon="15.7856017"><ele>1051.0</ele><time>2026-04-24T10:04:43.365Z</time></trkpt><trkpt lat="38.0605833" lon="15.7857117"><ele>1051.0</ele><time>2026-04-24T10:04:44.366Z</time></trkpt><trkpt lat="38.060685" lon="15.7858383"><ele>1051.0</ele><time>2026-04-24T10:04:45.365Z</time></trkpt><trkpt lat="38.060785" lon="15.7859717"><ele>1052.25</ele><time>2026-04-24T10:04:46.365Z</time></trkpt><trkpt lat="38.0608717" lon="15.7861183"><ele>1053.5</ele><time>2026-04-24T10:04:47.365Z</time></trkpt><trkpt lat="38.0609517" lon="15.7862717"><ele>1054.75</ele><time>2026-04-24T10:04:48.365Z</time></trkpt><trkpt lat="38.0610217" lon="15.7864217"><ele>1056.0</ele><time>2026-04-24T10:04:49.365Z</time></trkpt><trkpt lat="38.0610767" lon="15.78657"><ele>1056.0</ele><time>2026-04-24T10:04:50.365Z</time></trkpt><trkpt lat="38.0611083" lon="15.7867417"><ele>1056.0</ele><time>2026-04-24T10:04:51.365Z</time></trkpt><trkpt lat="38.061125" lon="15.786925"><ele>1056.0</ele><time>2026-04-24T10:04:52.365Z</time></trkpt><trkpt lat="38.06113" lon="15.7871183"><ele>1056.0</ele><time>2026-04-24T10:04:53.366Z</time></trkpt><trkpt lat="38.0611317" lon="15.7873133"><ele>1057.0</ele><time>2026-04-24T10:04:54.365Z</time></trkpt><trkpt lat="38.06113" lon="15.78749"><ele>1058.0</ele><time>2026-04-24T10:04:55.365Z</time></trkpt><trkpt lat="38.0611283" lon="15.7876483"><ele>1059.0</ele><time>2026-04-24T10:04:56.366Z</time></trkpt><trkpt lat="38.0611233" lon="15.7878017"><ele>1060.0</ele><time>2026-04-24T10:04:57.365Z</time></trkpt><trkpt lat="38.0611217" lon="15.7879633"><ele>1060.0</ele><time>2026-04-24T10:04:58.365Z</time></trkpt><trkpt lat="38.06111" lon="15.78814"><ele>1060.0</ele><time>2026-04-24T10:04:59.366Z</time></trkpt><trkpt lat="38.061105" lon="15.7883283"><ele>1060.0</ele><time>2026-04-24T10:05:00.366Z</time></trkpt><trkpt lat="38.06111" lon="15.78852"><ele>1060.0</ele><time>2026-04-24T10:05:01.365Z</time></trkpt><trkpt lat="38.0611167" lon="15.7887017"><ele>1063.0</ele><time>2026-04-24T10:05:02.365Z</time></trkpt><trkpt lat="38.0611333" lon="15.78886"><ele>1066.0</ele><time>2026-04-24T10:05:03.365Z</time></trkpt><trkpt lat="38.061125" lon="15.7889833"><ele>1069.0</ele><time>2026-04-24T10:05:04.365Z</time></trkpt><trkpt lat="38.061095" lon="15.7890733"><ele>1072.0</ele><time>2026-04-24T10:05:05.366Z</time></trkpt><trkpt lat="38.0610417" lon="15.7891367"><ele>1075.0</ele><time>2026-04-24T10:05:06.366Z</time></trkpt><trkpt lat="38.0609233" lon="15.7891617"><ele>1075.0</ele><time>2026-04-24T10:05:08.365Z</time></trkpt><trkpt lat="38.0608617" lon="15.7891183"><ele>1075.0</ele><time>2026-04-24T10:05:09.366Z</time></trkpt><trkpt lat="38.06079" lon="15.7890467"><ele>1075.0</ele><time>2026-04-24T10:05:10.366Z</time></trkpt><trkpt lat="38.06071" lon="15.78896"><ele>1075.0</ele><time>2026-04-24T10:05:11.365Z</time></trkpt><trkpt lat="38.0606267" lon="15.7888917"><ele>1075.0</ele><time>2026-04-24T10:05:12.366Z</time></trkpt><trkpt lat="38.060545" lon="15.7888817"><ele>1075.0</ele><time>2026-04-24T10:05:13.366Z</time></trkpt><trkpt lat="38.0604667" lon="15.788905"><ele>1074.1666666666665</ele><time>2026-04-24T10:05:14.366Z</time></trkpt><trkpt lat="38.0603817" lon="15.7889617"><ele>1073.3333333333333</ele><time>2026-04-24T10:05:15.365Z</time></trkpt><trkpt lat="38.0603" lon="15.7890283"><ele>1072.5</ele><time>2026-04-24T10:05:16.365Z</time></trkpt><trkpt lat="38.0602317" lon="15.7891017"><ele>1071.6666666666667</ele><time>2026-04-24T10:05:17.366Z</time></trkpt><trkpt lat="38.06017" lon="15.7891767"><ele>1070.8333333333335</ele><time>2026-04-24T10:05:18.366Z</time></trkpt><trkpt lat="38.06013" lon="15.789255"><ele>1070.0</ele><time>2026-04-24T10:05:19.366Z</time></trkpt><trkpt lat="38.0600883" lon="15.7893367"><ele>1067.4</ele><time>2026-04-24T10:05:20.366Z</time></trkpt><trkpt lat="38.060045" lon="15.789425"><ele>1064.8</ele><time>2026-04-24T10:05:21.366Z</time></trkpt><trkpt lat="38.0599917" lon="15.7895267"><ele>1062.2</ele><time>2026-04-24T10:05:22.366Z</time></trkpt><trkpt lat="38.0599283" lon="15.7896517"><ele>1059.6</ele><time>2026-04-24T10:05:23.365Z</time></trkpt><trkpt lat="38.05986" lon="15.7897967"><ele>1057.0</ele><time>2026-04-24T10:05:24.365Z</time></trkpt><trkpt lat="38.0597767" lon="15.7899633"><ele>1057.0</ele><time>2026-04-24T10:05:25.365Z</time></trkpt><trkpt lat="38.0596883" lon="15.7901383"><ele>1057.0</ele><time>2026-04-24T10:05:26.366Z</time></trkpt><trkpt lat="38.059595" lon="15.7903183"><ele>1057.0</ele><time>2026-04-24T10:05:27.366Z</time></trkpt><trkpt lat="38.059505" lon="15.7905117"><ele>1064.0</ele><time>2026-04-24T10:05:28.365Z</time></trkpt><trkpt lat="38.0594017" lon="15.7907067"><ele>1071.0</ele><time>2026-04-24T10:05:29.365Z</time></trkpt><trkpt lat="38.0593017" lon="15.79091"><ele>1078.0</ele><time>2026-04-24T10:05:30.366Z</time></trkpt><trkpt lat="38.0592" lon="15.79112"><ele>1074.6666666666665</ele><time>2026-04-24T10:05:31.366Z</time></trkpt><trkpt lat="38.0590983" lon="15.7913317"><ele>1071.3333333333333</ele><time>2026-04-24T10:05:32.365Z</time></trkpt><trkpt lat="38.05901" lon="15.79155"><ele>1068.0</ele><time>2026-04-24T10:05:33.365Z</time></trkpt><trkpt lat="38.058925" lon="15.79175"><ele>1068.25</ele><time>2026-04-24T10:05:34.366Z</time></trkpt><trkpt lat="38.0588417" lon="15.7919317"><ele>1068.5</ele><time>2026-04-24T10:05:35.365Z</time></trkpt><trkpt lat="38.0587733" lon="15.79209"><ele>1068.75</ele><time>2026-04-24T10:05:36.365Z</time></trkpt><trkpt lat="38.0587283" lon="15.79223"><ele>1069.0</ele><time>2026-04-24T10:05:37.365Z</time></trkpt><trkpt lat="38.0587267" lon="15.79237"><ele>1069.0</ele><time>2026-04-24T10:05:38.366Z</time></trkpt><trkpt lat="38.0587483" lon="15.7925117"><ele>1069.0</ele><time>2026-04-24T10:05:39.365Z</time></trkpt><trkpt lat="38.0587967" lon="15.7926633"><ele>1069.0</ele><time>2026-04-24T10:05:40.365Z</time></trkpt><trkpt lat="38.0588567" lon="15.792825"><ele>1069.0</ele><time>2026-04-24T10:05:41.365Z</time></trkpt><trkpt lat="38.0589217" lon="15.7930033"><ele>1063.0</ele><time>2026-04-24T10:05:42.365Z</time></trkpt><trkpt lat="38.0589967" lon="15.7931817"><ele>1057.0</ele><time>2026-04-24T10:05:43.365Z</time></trkpt><trkpt lat="38.059075" lon="15.7933783"><ele>1051.0</ele><time>2026-04-24T10:05:44.365Z</time></trkpt><trkpt lat="38.0591567" lon="15.79358"><ele>1064.0</ele><time>2026-04-24T10:05:45.366Z</time></trkpt><trkpt lat="38.05925" lon="15.793795"><ele>1077.0</ele><time>2026-04-24T10:05:46.365Z</time></trkpt><trkpt lat="38.05934" lon="15.7940217"><ele>1090.0</ele><time>2026-04-24T10:05:47.365Z</time></trkpt><trkpt lat="38.0594383" lon="15.79425"><ele>1087.0</ele><time>2026-04-24T10:05:48.366Z</time></trkpt><trkpt lat="38.0595317" lon="15.7944767"><ele>1084.0</ele><time>2026-04-24T10:05:49.366Z</time></trkpt><trkpt lat="38.059615" lon="15.7946917"><ele>1081.0</ele><time>2026-04-24T10:05:50.366Z</time></trkpt><trkpt lat="38.0596883" lon="15.7948767"><ele>1081.0</ele><time>2026-04-24T10:05:51.365Z</time></trkpt><trkpt lat="38.05976" lon="15.7950483"><ele>1081.0</ele><time>2026-04-24T10:05:52.366Z</time></trkpt><trkpt lat="38.05981" lon="15.79519"><ele>1081.0</ele><time>2026-04-24T10:05:53.365Z</time></trkpt><trkpt lat="38.05983" lon="15.79531"><ele>1081.0</ele><time>2026-04-24T10:05:54.366Z</time></trkpt><trkpt lat="38.0598317" lon="15.7954183"><ele>1084.3999999999999</ele><time>2026-04-24T10:05:55.365Z</time></trkpt><trkpt lat="38.05981" lon="15.7955217"><ele>1087.8</ele><time>2026-04-24T10:05:56.365Z</time></trkpt><trkpt lat="38.0597683" lon="15.795615"><ele>1091.1999999999998</ele><time>2026-04-24T10:05:57.365Z</time></trkpt><trkpt lat="38.0596967" lon="15.7957167"><ele>1094.6</ele><time>2026-04-24T10:05:58.366Z</time></trkpt><trkpt lat="38.0595933" lon="15.7958033"><ele>1098.0</ele><time>2026-04-24T10:05:59.365Z</time></trkpt><trkpt lat="38.0594967" lon="15.7959167"><ele>1100.75</ele><time>2026-04-24T10:06:00.366Z</time></trkpt><trkpt lat="38.0594167" lon="15.79604"><ele>1103.5</ele><time>2026-04-24T10:06:01.365Z</time></trkpt><trkpt lat="38.05936" lon="15.7961833"><ele>1106.25</ele><time>2026-04-24T10:06:02.366Z</time></trkpt><trkpt lat="38.059325" lon="15.7963417"><ele>1109.0</ele><time>2026-04-24T10:06:03.365Z</time></trkpt><trkpt lat="38.059295" lon="15.7965183"><ele>1109.0</ele><time>2026-04-24T10:06:04.366Z</time></trkpt><trkpt lat="38.059275" lon="15.7967067"><ele>1109.0</ele><time>2026-04-24T10:06:05.365Z</time></trkpt><trkpt lat="38.0592483" lon="15.7968967"><ele>1109.0</ele><time>2026-04-24T10:06:06.366Z</time></trkpt><trkpt lat="38.0592217" lon="15.79708"><ele>1109.0</ele><time>2026-04-24T10:06:07.366Z</time></trkpt><trkpt lat="38.0592067" lon="15.7972417"><ele>1109.25</ele><time>2026-04-24T10:06:08.366Z</time></trkpt><trkpt lat="38.0591867" lon="15.7973933"><ele>1109.5</ele><time>2026-04-24T10:06:09.366Z</time></trkpt><trkpt lat="38.0591733" lon="15.7975533"><ele>1109.75</ele><time>2026-04-24T10:06:10.366Z</time></trkpt><trkpt lat="38.0591433" lon="15.7977167"><ele>1110.0</ele><time>2026-04-24T10:06:11.365Z</time></trkpt><trkpt lat="38.0591117" lon="15.7978783"><ele>1107.5</ele><time>2026-04-24T10:06:12.366Z</time></trkpt><trkpt lat="38.059085" lon="15.7980483"><ele>1105.0</ele><time>2026-04-24T10:06:13.366Z</time></trkpt><trkpt lat="38.059065" lon="15.7982217"><ele>1102.5</ele><time>2026-04-24T10:06:14.365Z</time></trkpt><trkpt lat="38.0590433" lon="15.7984083"><ele>1100.0</ele><time>2026-04-24T10:06:15.365Z</time></trkpt><trkpt lat="38.0590317" lon="15.7985967"><ele>1096.75</ele><time>2026-04-24T10:06:16.365Z</time></trkpt><trkpt lat="38.05903" lon="15.798775"><ele>1093.5</ele><time>2026-04-24T10:06:17.366Z</time></trkpt><trkpt lat="38.0590483" lon="15.798955"><ele>1090.25</ele><time>2026-04-24T10:06:18.366Z</time></trkpt><trkpt lat="38.0590767" lon="15.79912"><ele>1087.0</ele><time>2026-04-24T10:06:19.366Z</time></trkpt><trkpt lat="38.0591067" lon="15.7992633"><ele>1091.8</ele><time>2026-04-24T10:06:20.366Z</time></trkpt><trkpt lat="38.059135" lon="15.7993967"><ele>1096.6</ele><time>2026-04-24T10:06:21.366Z</time></trkpt><trkpt lat="38.05916" lon="15.799515"><ele>1101.3999999999999</ele><time>2026-04-24T10:06:22.365Z</time></trkpt><trkpt lat="38.05917" lon="15.7996333"><ele>1106.2</ele><time>2026-04-24T10:06:23.366Z</time></trkpt><trkpt lat="38.0591733" lon="15.7997633"><ele>1111.0</ele><time>2026-04-24T10:06:24.366Z</time></trkpt><trkpt lat="38.0591683" lon="15.7999067"><ele>1111.0</ele><time>2026-04-24T10:06:25.366Z</time></trkpt><trkpt lat="38.0591617" lon="15.8000767"><ele>1111.0</ele><time>2026-04-24T10:06:26.365Z</time></trkpt><trkpt lat="38.0591533" lon="15.8002533"><ele>1111.0</ele><time>2026-04-24T10:06:27.365Z</time></trkpt><trkpt lat="38.0591417" lon="15.80044"><ele>1111.0</ele><time>2026-04-24T10:06:28.365Z</time></trkpt><trkpt lat="38.0591267" lon="15.80061"><ele>1110.2</ele><time>2026-04-24T10:06:29.366Z</time></trkpt><trkpt lat="38.0591183" lon="15.8007467"><ele>1109.3999999999999</ele><time>2026-04-24T10:06:30.365Z</time></trkpt><trkpt lat="38.059095" lon="15.8008717"><ele>1108.6</ele><time>2026-04-24T10:06:31.366Z</time></trkpt><trkpt lat="38.0590633" lon="15.80098"><ele>1107.8</ele><time>2026-04-24T10:06:32.366Z</time></trkpt><trkpt lat="38.05902" lon="15.8010717"><ele>1107.0</ele><time>2026-04-24T10:06:33.366Z</time></trkpt><trkpt lat="38.0589517" lon="15.8011667"><ele>1109.5</ele><time>2026-04-24T10:06:34.365Z</time></trkpt><trkpt lat="38.05887" lon="15.80126"><ele>1112.0</ele><time>2026-04-24T10:06:35.366Z</time></trkpt><trkpt lat="38.0587667" lon="15.801365"><ele>1114.5</ele><time>2026-04-24T10:06:36.365Z</time></trkpt><trkpt lat="38.05866" lon="15.8014817"><ele>1117.0</ele><time>2026-04-24T10:06:37.366Z</time></trkpt><trkpt lat="38.0585433" lon="15.8016017"><ele>1117.0</ele><time>2026-04-24T10:06:38.365Z</time></trkpt><trkpt lat="38.0584283" lon="15.801725"><ele>1117.0</ele><time>2026-04-24T10:06:39.365Z</time></trkpt><trkpt lat="38.0583167" lon="15.8018383"><ele>1117.0</ele><time>2026-04-24T10:06:40.366Z</time></trkpt><trkpt lat="38.0582117" lon="15.8019633"><ele>1117.0</ele><time>2026-04-24T10:06:41.366Z</time></trkpt><trkpt lat="38.0581033" lon="15.8020867"><ele>1116.3333333333333</ele><time>2026-04-24T10:06:42.365Z</time></trkpt><trkpt lat="38.05799" lon="15.8022067"><ele>1115.6666666666667</ele><time>2026-04-24T10:06:43.365Z</time></trkpt><trkpt lat="38.0578767" lon="15.80234"><ele>1115.0</ele><time>2026-04-24T10:06:44.365Z</time></trkpt><trkpt lat="38.0577617" lon="15.8024733"><ele>1115.0</ele><time>2026-04-24T10:06:45.365Z</time></trkpt><trkpt lat="38.057645" lon="15.80261"><ele>1115.0</ele><time>2026-04-24T10:06:46.366Z</time></trkpt><trkpt lat="38.0575233" lon="15.80275"><ele>1115.0</ele><time>2026-04-24T10:06:47.365Z</time></trkpt><trkpt lat="38.0574117" lon="15.8028717"><ele>1114.75</ele><time>2026-04-24T10:06:48.366Z</time></trkpt><trkpt lat="38.0572983" lon="15.8029967"><ele>1114.5</ele><time>2026-04-24T10:06:49.365Z</time></trkpt><trkpt lat="38.0572" lon="15.80312"><ele>1114.25</ele><time>2026-04-24T10:06:50.366Z</time></trkpt><trkpt lat="38.0571033" lon="15.8032583"><ele>1114.0</ele><time>2026-04-24T10:06:51.365Z</time></trkpt><trkpt lat="38.057025" lon="15.8034183"><ele>1114.0</ele><time>2026-04-24T10:06:52.366Z</time></trkpt><trkpt lat="38.05696" lon="15.8035917"><ele>1114.0</ele><time>2026-04-24T10:06:53.366Z</time></trkpt><trkpt lat="38.0569083" lon="15.8037833"><ele>1114.0</ele><time>2026-04-24T10:06:54.365Z</time></trkpt><trkpt lat="38.05686" lon="15.803985"><ele>1114.0</ele><time>2026-04-24T10:06:55.365Z</time></trkpt><trkpt lat="38.05682" lon="15.8041817"><ele>1114.0</ele><time>2026-04-24T10:06:56.366Z</time></trkpt><trkpt lat="38.0567917" lon="15.8043617"><ele>1114.0</ele><time>2026-04-24T10:06:57.365Z</time></trkpt><trkpt lat="38.0567633" lon="15.8045283"><ele>1114.0</ele><time>2026-04-24T10:06:58.366Z</time></trkpt><trkpt lat="38.0567267" lon="15.804685"><ele>1115.75</ele><time>2026-04-24T10:06:59.366Z</time></trkpt><trkpt lat="38.0567033" lon="15.804845"><ele>1117.5</ele><time>2026-04-24T10:07:00.365Z</time></trkpt><trkpt lat="38.0566817" lon="15.8050067"><ele>1119.25</ele><time>2026-04-24T10:07:01.365Z</time></trkpt><trkpt lat="38.05667" lon="15.8051633"><ele>1121.0</ele><time>2026-04-24T10:07:02.366Z</time></trkpt><trkpt lat="38.0566533" lon="15.8053"><ele>1121.25</ele><time>2026-04-24T10:07:03.365Z</time></trkpt><trkpt lat="38.0566467" lon="15.8054433"><ele>1121.5</ele><time>2026-04-24T10:07:04.365Z</time></trkpt><trkpt lat="38.0566433" lon="15.805585"><ele>1121.75</ele><time>2026-04-24T10:07:05.365Z</time></trkpt><trkpt lat="38.0566433" lon="15.8057267"><ele>1122.0</ele><time>2026-04-24T10:07:06.365Z</time></trkpt><trkpt lat="38.05665" lon="15.8058717"><ele>1123.0</ele><time>2026-04-24T10:07:07.365Z</time></trkpt><trkpt lat="38.05666" lon="15.806005"><ele>1124.0</ele><time>2026-04-24T10:07:08.366Z</time></trkpt><trkpt lat="38.0566717" lon="15.806125"><ele>1125.0</ele><time>2026-04-24T10:07:09.365Z</time></trkpt><trkpt lat="38.0566817" lon="15.8062483"><ele>1126.0</ele><time>2026-04-24T10:07:10.365Z</time></trkpt><trkpt lat="38.0566867" lon="15.8063667"><ele>1127.0</ele><time>2026-04-24T10:07:11.366Z</time></trkpt><trkpt lat="38.0566867" lon="15.8064767"><ele>1127.0</ele><time>2026-04-24T10:07:12.365Z</time></trkpt><trkpt lat="38.0566717" lon="15.8065817"><ele>1127.0</ele><time>2026-04-24T10:07:13.365Z</time></trkpt><trkpt lat="38.05666" lon="15.8066833"><ele>1127.0</ele><time>2026-04-24T10:07:14.365Z</time></trkpt><trkpt lat="38.0566483" lon="15.8067917"><ele>1127.0</ele><time>2026-04-24T10:07:15.365Z</time></trkpt><trkpt lat="38.056645" lon="15.8068983"><ele>1127.0</ele><time>2026-04-24T10:07:16.365Z</time></trkpt><trkpt lat="38.0566517" lon="15.8069933"><ele>1127.0</ele><time>2026-04-24T10:07:17.366Z</time></trkpt><trkpt lat="38.0566567" lon="15.8070817"><ele>1127.3333333333335</ele><time>2026-04-24T10:07:18.366Z</time></trkpt><trkpt lat="38.0566683" lon="15.8071617"><ele>1127.6666666666667</ele><time>2026-04-24T10:07:19.365Z</time></trkpt><trkpt lat="38.0566833" lon="15.8072467"><ele>1128.0</ele><time>2026-04-24T10:07:20.365Z</time></trkpt><trkpt lat="38.0566917" lon="15.8073467"><ele>1128.3333333333333</ele><time>2026-04-24T10:07:21.365Z</time></trkpt><trkpt lat="38.0566933" lon="15.8074583"><ele>1128.6666666666665</ele><time>2026-04-24T10:07:22.365Z</time></trkpt><trkpt lat="38.0566867" lon="15.8075833"><ele>1129.0</ele><time>2026-04-24T10:07:23.365Z</time></trkpt><trkpt lat="38.05668" lon="15.807715"><ele>1129.2</ele><time>2026-04-24T10:07:24.365Z</time></trkpt><trkpt lat="38.0566667" lon="15.8078533"><ele>1129.4</ele><time>2026-04-24T10:07:25.365Z</time></trkpt><trkpt lat="38.0566633" lon="15.80799"><ele>1129.6</ele><time>2026-04-24T10:07:26.366Z</time></trkpt><trkpt lat="38.0566517" lon="15.8081117"><ele>1129.8</ele><time>2026-04-24T10:07:27.365Z</time></trkpt><trkpt lat="38.0566417" lon="15.808215"><ele>1130.0</ele><time>2026-04-24T10:07:28.366Z</time></trkpt><trkpt lat="38.056635" lon="15.8083017"><ele>1130.0</ele><time>2026-04-24T10:07:29.366Z</time></trkpt><trkpt lat="38.0566267" lon="15.8084267"><ele>1130.0</ele><time>2026-04-24T10:07:31.365Z</time></trkpt><trkpt lat="38.0566317" lon="15.80852"><ele>1130.0</ele><time>2026-04-24T10:07:34.366Z</time></trkpt><trkpt lat="38.0566267" lon="15.8086067"><ele>1130.0</ele><time>2026-04-24T10:07:36.366Z</time></trkpt><trkpt lat="38.0565917" lon="15.8087517"><ele>1130.0</ele><time>2026-04-24T10:07:38.365Z</time></trkpt><trkpt lat="38.0565467" lon="15.808845"><ele>1130.0</ele><time>2026-04-24T10:07:39.366Z</time></trkpt><trkpt lat="38.0564933" lon="15.8089367"><ele>1128.6666666666667</ele><time>2026-04-24T10:07:40.366Z</time></trkpt><trkpt lat="38.0564383" lon="15.809025"><ele>1127.3333333333335</ele><time>2026-04-24T10:07:41.365Z</time></trkpt><trkpt lat="38.05639" lon="15.8091083"><ele>1126.0</ele><time>2026-04-24T10:07:42.365Z</time></trkpt><trkpt lat="38.0563483" lon="15.80918"><ele>1124.6666666666667</ele><time>2026-04-24T10:07:43.365Z</time></trkpt><trkpt lat="38.056305" lon="15.8092433"><ele>1123.3333333333333</ele><time>2026-04-24T10:07:44.366Z</time></trkpt><trkpt lat="38.0562067" lon="15.809325"><ele>1122.0</ele><time>2026-04-24T10:07:46.365Z</time></trkpt><trkpt lat="38.0560883" lon="15.8093583"><ele>1122.0</ele><time>2026-04-24T10:07:48.366Z</time></trkpt><trkpt lat="38.0559717" lon="15.8093567"><ele>1122.0</ele><time>2026-04-24T10:07:50.366Z</time></trkpt><trkpt lat="38.0558567" lon="15.80934"><ele>1122.0</ele><time>2026-04-24T10:07:52.366Z</time></trkpt><trkpt lat="38.0557367" lon="15.8093467"><ele>1122.0</ele><time>2026-04-24T10:07:54.366Z</time></trkpt><trkpt lat="38.0556267" lon="15.8094067"><ele>1122.0</ele><time>2026-04-24T10:07:56.365Z</time></trkpt><trkpt lat="38.0555983" lon="15.8095367"><ele>1122.0</ele><time>2026-04-24T10:07:58.365Z</time></trkpt><trkpt lat="38.0556817" lon="15.8096667"><ele>1122.0</ele><time>2026-04-24T10:08:00.365Z</time></trkpt><trkpt lat="38.0557517" lon="15.8097183"><ele>1122.0</ele><time>2026-04-24T10:08:01.365Z</time></trkpt><trkpt lat="38.0558367" lon="15.8097617"><ele>1122.0</ele><time>2026-04-24T10:08:02.365Z</time></trkpt><trkpt lat="38.0559233" lon="15.8097967"><ele>1122.0</ele><time>2026-04-24T10:08:03.365Z</time></trkpt><trkpt lat="38.056" lon="15.8098333"><ele>1122.0</ele><time>2026-04-24T10:08:04.365Z</time></trkpt><trkpt lat="38.0560533" lon="15.809885"><ele>1122.0</ele><time>2026-04-24T10:08:05.365Z</time></trkpt><trkpt lat="38.0561067" lon="15.810015"><ele>1122.0</ele><time>2026-04-24T10:08:07.365Z</time></trkpt><trkpt lat="38.0560967" lon="15.810095"><ele>1122.0</ele><time>2026-04-24T10:08:08.365Z</time></trkpt><trkpt lat="38.0560667" lon="15.8101683"><ele>1122.0</ele><time>2026-04-24T10:08:09.366Z</time></trkpt><trkpt lat="38.05595" lon="15.81025"><ele>1122.5</ele><time>2026-04-24T10:08:11.365Z</time></trkpt><trkpt lat="38.055855" lon="15.810245"><ele>1123.0</ele><time>2026-04-24T10:08:12.365Z</time></trkpt><trkpt lat="38.0557683" lon="15.81024"><ele>1123.5</ele><time>2026-04-24T10:08:13.365Z</time></trkpt><trkpt lat="38.0556833" lon="15.8102333"><ele>1124.0</ele><time>2026-04-24T10:08:14.365Z</time></trkpt><trkpt lat="38.0556067" lon="15.81024"><ele>1124.5</ele><time>2026-04-24T10:08:15.366Z</time></trkpt><trkpt lat="38.055535" lon="15.81025"><ele>1125.0</ele><time>2026-04-24T10:08:16.366Z</time></trkpt><trkpt lat="38.0554733" lon="15.810275"><ele>1122.5</ele><time>2026-04-24T10:08:17.366Z</time></trkpt><trkpt lat="38.0554117" lon="15.8103233"><ele>1120.0</ele><time>2026-04-24T10:08:18.365Z</time></trkpt><trkpt lat="38.0553667" lon="15.8103817"><ele>1117.5</ele><time>2026-04-24T10:08:19.366Z</time></trkpt><trkpt lat="38.0553133" lon="15.810535"><ele>1115.0</ele><time>2026-04-24T10:08:21.366Z</time></trkpt><trkpt lat="38.0552933" lon="15.8106183"><ele>1112.5</ele><time>2026-04-24T10:08:22.365Z</time></trkpt><trkpt lat="38.0552683" lon="15.810705"><ele>1110.0</ele><time>2026-04-24T10:08:23.365Z</time></trkpt><trkpt lat="38.0552267" lon="15.8107817"><ele>1110.0</ele><time>2026-04-24T10:08:24.366Z</time></trkpt><trkpt lat="38.0551683" lon="15.8108383"><ele>1110.0</ele><time>2026-04-24T10:08:25.365Z</time></trkpt><trkpt lat="38.0550917" lon="15.8108833"><ele>1110.0</ele><time>2026-04-24T10:08:26.366Z</time></trkpt><trkpt lat="38.0550217" lon="15.810905"><ele>1110.0</ele><time>2026-04-24T10:08:27.366Z</time></trkpt><trkpt lat="38.054945" lon="15.8109333"><ele>1110.0</ele><time>2026-04-24T10:08:37.366Z</time></trkpt><trkpt lat="38.0549033" lon="15.81106"><ele>1110.0</ele><time>2026-04-24T10:08:39.366Z</time></trkpt><trkpt lat="38.0549067" lon="15.811145"><ele>1109.6666666666667</ele><time>2026-04-24T10:08:40.365Z</time></trkpt><trkpt lat="38.0549367" lon="15.8112317"><ele>1109.3333333333333</ele><time>2026-04-24T10:08:41.365Z</time></trkpt><trkpt lat="38.0549667" lon="15.8113083"><ele>1109.0</ele><time>2026-04-24T10:08:42.366Z</time></trkpt><trkpt lat="38.0550033" lon="15.81143"><ele>1108.6666666666665</ele><time>2026-04-24T10:08:44.366Z</time></trkpt><trkpt lat="38.05499" lon="15.8115367"><ele>1108.3333333333333</ele><time>2026-04-24T10:08:46.365Z</time></trkpt><trkpt lat="38.0549217" lon="15.811615"><ele>1108.0</ele><time>2026-04-24T10:08:48.366Z</time></trkpt><trkpt lat="38.0548633" lon="15.8116483"><ele>1108.0</ele><time>2026-04-24T10:08:50.365Z</time></trkpt><trkpt lat="38.0549167" lon="15.8117033"><ele>1108.0</ele><time>2026-04-24T10:08:55.365Z</time></trkpt><trkpt lat="38.05484" lon="15.8116867"><ele>1108.0</ele><time>2026-04-24T10:13:00.365Z</time></trkpt><trkpt lat="38.0547383" lon="15.8116367"><ele>1108.0</ele><time>2026-04-24T10:13:02.366Z</time></trkpt><trkpt lat="38.0546767" lon="15.8116"><ele>1108.0</ele><time>2026-04-24T10:13:03.365Z</time></trkpt><trkpt lat="38.05461" lon="15.8115483"><ele>1108.0</ele><time>2026-04-24T10:13:04.365Z</time></trkpt><trkpt lat="38.054535" lon="15.81149"><ele>1108.0</ele><time>2026-04-24T10:13:05.365Z</time></trkpt><trkpt lat="38.0544533" lon="15.8114333"><ele>1108.0</ele><time>2026-04-24T10:13:06.365Z</time></trkpt><trkpt lat="38.0543767" lon="15.8113533"><ele>1108.0</ele><time>2026-04-24T10:13:07.366Z</time></trkpt><trkpt lat="38.0542917" lon="15.8112633"><ele>1108.0</ele><time>2026-04-24T10:13:08.365Z</time></trkpt><trkpt lat="38.0541967" lon="15.8111817"><ele>1108.0</ele><time>2026-04-24T10:13:09.366Z</time></trkpt><trkpt lat="38.0541033" lon="15.81111"><ele>1106.6</ele><time>2026-04-24T10:13:10.365Z</time></trkpt><trkpt lat="38.0540167" lon="15.811035"><ele>1105.1999999999998</ele><time>2026-04-24T10:13:11.365Z</time></trkpt><trkpt lat="38.0539367" lon="15.8109617"><ele>1103.8</ele><time>2026-04-24T10:13:12.366Z</time></trkpt><trkpt lat="38.0538583" lon="15.8108933"><ele>1102.3999999999999</ele><time>2026-04-24T10:13:13.365Z</time></trkpt><trkpt lat="38.05378" lon="15.810825"><ele>1101.0</ele><time>2026-04-24T10:13:14.366Z</time></trkpt><trkpt lat="38.053705" lon="15.8107467"><ele>1100.8333333333333</ele><time>2026-04-24T10:13:15.366Z</time></trkpt><trkpt lat="38.05363" lon="15.8106633"><ele>1100.6666666666667</ele><time>2026-04-24T10:13:16.366Z</time></trkpt><trkpt lat="38.0535633" lon="15.8105717"><ele>1100.5</ele><time>2026-04-24T10:13:17.365Z</time></trkpt><trkpt lat="38.05351" lon="15.8104733"><ele>1100.3333333333335</ele><time>2026-04-24T10:13:18.366Z</time></trkpt><trkpt lat="38.053465" lon="15.8103867"><ele>1100.1666666666667</ele><time>2026-04-24T10:13:19.365Z</time></trkpt><trkpt lat="38.0534167" lon="15.810315"><ele>1100.0</ele><time>2026-04-24T10:13:20.366Z</time></trkpt><trkpt lat="38.0533567" lon="15.8102683"><ele>1099.0</ele><time>2026-04-24T10:13:21.365Z</time></trkpt><trkpt lat="38.0532883" lon="15.810245"><ele>1098.0</ele><time>2026-04-24T10:13:22.365Z</time></trkpt><trkpt lat="38.0532117" lon="15.810245"><ele>1097.0</ele><time>2026-04-24T10:13:23.365Z</time></trkpt><trkpt lat="38.0531233" lon="15.8102583"><ele>1096.0</ele><time>2026-04-24T10:13:24.365Z</time></trkpt><trkpt lat="38.0530117" lon="15.810275"><ele>1095.0</ele><time>2026-04-24T10:13:25.366Z</time></trkpt><trkpt lat="38.0529083" lon="15.8102917"><ele>1095.0</ele><time>2026-04-24T10:13:26.365Z</time></trkpt><trkpt lat="38.052815" lon="15.8103"><ele>1095.0</ele><time>2026-04-24T10:13:27.366Z</time></trkpt><trkpt lat="38.0527283" lon="15.8103083"><ele>1095.0</ele><time>2026-04-24T10:13:28.365Z</time></trkpt><trkpt lat="38.052645" lon="15.81031"><ele>1095.0</ele><time>2026-04-24T10:13:29.365Z</time></trkpt><trkpt lat="38.052565" lon="15.8102983"><ele>1095.0</ele><time>2026-04-24T10:13:30.365Z</time></trkpt><trkpt lat="38.0524983" lon="15.810265"><ele>1095.0</ele><time>2026-04-24T10:13:31.366Z</time></trkpt><trkpt lat="38.0524317" lon="15.8102217"><ele>1093.9999999999998</ele><time>2026-04-24T10:13:32.366Z</time></trkpt><trkpt lat="38.052365" lon="15.810175"><ele>1093.0</ele><time>2026-04-24T10:13:33.366Z</time></trkpt><trkpt lat="38.052305" lon="15.810135"><ele>1092.0</ele><time>2026-04-24T10:13:34.365Z</time></trkpt><trkpt lat="38.052245" lon="15.8100917"><ele>1091.0</ele><time>2026-04-24T10:13:35.366Z</time></trkpt><trkpt lat="38.05218" lon="15.8100517"><ele>1090.0</ele><time>2026-04-24T10:13:36.365Z</time></trkpt><trkpt lat="38.0521167" lon="15.810015"><ele>1088.9999999999998</ele><time>2026-04-24T10:13:37.365Z</time></trkpt><trkpt lat="38.05205" lon="15.8099783"><ele>1088.0</ele><time>2026-04-24T10:13:38.365Z</time></trkpt><trkpt lat="38.0519783" lon="15.8099467"><ele>1087.7142857142856</ele><time>2026-04-24T10:13:39.365Z</time></trkpt><trkpt lat="38.05191" lon="15.809915"><ele>1087.4285714285713</ele><time>2026-04-24T10:13:40.366Z</time></trkpt><trkpt lat="38.0518467" lon="15.80988"><ele>1087.142857142857</ele><time>2026-04-24T10:13:41.365Z</time></trkpt><trkpt lat="38.0517783" lon="15.8098483"><ele>1086.8571428571427</ele><time>2026-04-24T10:13:42.365Z</time></trkpt><trkpt lat="38.051715" lon="15.8098167"><ele>1086.5714285714284</ele><time>2026-04-24T10:13:43.366Z</time></trkpt><trkpt lat="38.0516483" lon="15.809795"><ele>1086.2857142857142</ele><time>2026-04-24T10:13:44.365Z</time></trkpt><trkpt lat="38.0515867" lon="15.8097767"><ele>1086.0</ele><time>2026-04-24T10:13:45.365Z</time></trkpt><trkpt lat="38.05152" lon="15.8097517"><ele>1085.4285714285716</ele><time>2026-04-24T10:13:46.366Z</time></trkpt><trkpt lat="38.0514583" lon="15.8097267"><ele>1084.857142857143</ele><time>2026-04-24T10:13:47.365Z</time></trkpt><trkpt lat="38.051395" lon="15.809695"><ele>1084.2857142857142</ele><time>2026-04-24T10:13:48.366Z</time></trkpt><trkpt lat="38.0513267" lon="15.8096733"><ele>1083.7142857142858</ele><time>2026-04-24T10:13:49.365Z</time></trkpt><trkpt lat="38.0512617" lon="15.8096567"><ele>1083.142857142857</ele><time>2026-04-24T10:13:50.365Z</time></trkpt><trkpt lat="38.0511933" lon="15.8096417"><ele>1082.5714285714287</ele><time>2026-04-24T10:13:51.365Z</time></trkpt><trkpt lat="38.0511267" lon="15.8096217"><ele>1082.0</ele><time>2026-04-24T10:13:52.365Z</time></trkpt><trkpt lat="38.05106" lon="15.8096"><ele>1082.0</ele><time>2026-04-24T10:13:53.366Z</time></trkpt><trkpt lat="38.0509967" lon="15.8095783"><ele>1082.0</ele><time>2026-04-24T10:13:54.365Z</time></trkpt><trkpt lat="38.0508717" lon="15.8095433"><ele>1082.0</ele><time>2026-04-24T10:13:56.366Z</time></trkpt><trkpt lat="38.05076" lon="15.809495"><ele>1082.0</ele><time>2026-04-24T10:13:58.366Z</time></trkpt><trkpt lat="38.0506433" lon="15.8094617"><ele>1082.0</ele><time>2026-04-24T10:14:00.365Z</time></trkpt><trkpt lat="38.0505333" lon="15.8094683"><ele>1080.6666666666667</ele><time>2026-04-24T10:14:02.365Z</time></trkpt><trkpt lat="38.0504683" lon="15.8094883"><ele>1079.3333333333335</ele><time>2026-04-24T10:14:03.365Z</time></trkpt><trkpt lat="38.0504083" lon="15.809525"><ele>1078.0</ele><time>2026-04-24T10:14:04.365Z</time></trkpt><trkpt lat="38.0503517" lon="15.8095683"><ele>1076.6666666666667</ele><time>2026-04-24T10:14:05.365Z</time></trkpt><trkpt lat="38.0502567" lon="15.8096667"><ele>1075.3333333333333</ele><time>2026-04-24T10:14:07.366Z</time></trkpt><trkpt lat="38.0502067" lon="15.8097217"><ele>1074.0</ele><time>2026-04-24T10:14:08.366Z</time></trkpt><trkpt lat="38.05011" lon="15.80982"><ele>1073.9999999999998</ele><time>2026-04-24T10:14:10.365Z</time></trkpt><trkpt lat="38.05006" lon="15.809875"><ele>1074.0</ele><time>2026-04-24T10:14:11.366Z</time></trkpt><trkpt lat="38.0500117" lon="15.8099317"><ele>1074.0</ele><time>2026-04-24T10:14:12.365Z</time></trkpt><trkpt lat="38.0499617" lon="15.8099917"><ele>1074.0</ele><time>2026-04-24T10:14:13.366Z</time></trkpt><trkpt lat="38.0499083" lon="15.8100533"><ele>1074.0</ele><time>2026-04-24T10:14:14.366Z</time></trkpt><trkpt lat="38.0498467" lon="15.8101017"><ele>1073.9999999999998</ele><time>2026-04-24T10:14:15.365Z</time></trkpt><trkpt lat="38.0497733" lon="15.81015"><ele>1074.0</ele><time>2026-04-24T10:14:16.366Z</time></trkpt><trkpt lat="38.049685" lon="15.81019"><ele>1073.2</ele><time>2026-04-24T10:14:17.365Z</time></trkpt><trkpt lat="38.0495833" lon="15.81022"><ele>1072.4</ele><time>2026-04-24T10:14:18.366Z</time></trkpt><trkpt lat="38.0494733" lon="15.8102417"><ele>1071.6</ele><time>2026-04-24T10:14:19.365Z</time></trkpt><trkpt lat="38.049365" lon="15.8102633"><ele>1070.8</ele><time>2026-04-24T10:14:20.366Z</time></trkpt><trkpt lat="38.04925" lon="15.810285"><ele>1070.0</ele><time>2026-04-24T10:14:21.365Z</time></trkpt><trkpt lat="38.0491383" lon="15.8103083"><ele>1068.0</ele><time>2026-04-24T10:14:22.365Z</time></trkpt><trkpt lat="38.04903" lon="15.8103383"><ele>1066.0</ele><time>2026-04-24T10:14:23.365Z</time></trkpt><trkpt lat="38.048925" lon="15.81037"><ele>1064.0</ele><time>2026-04-24T10:14:24.365Z</time></trkpt><trkpt lat="38.048815" lon="15.81042"><ele>1062.0</ele><time>2026-04-24T10:14:25.366Z</time></trkpt><trkpt lat="38.0487017" lon="15.8104883"><ele>1062.0</ele><time>2026-04-24T10:14:26.365Z</time></trkpt><trkpt lat="38.0485883" lon="15.8105667"><ele>1062.0</ele><time>2026-04-24T10:14:27.366Z</time></trkpt><trkpt lat="38.0484783" lon="15.8106617"><ele>1062.0</ele><time>2026-04-24T10:14:28.366Z</time></trkpt><trkpt lat="38.04837" lon="15.810755"><ele>1062.0</ele><time>2026-04-24T10:14:29.366Z</time></trkpt><trkpt lat="38.04826" lon="15.8108467"><ele>1062.25</ele><time>2026-04-24T10:14:30.365Z</time></trkpt><trkpt lat="38.0481567" lon="15.810935"><ele>1062.5</ele><time>2026-04-24T10:14:31.365Z</time></trkpt><trkpt lat="38.0480583" lon="15.8110233"><ele>1062.75</ele><time>2026-04-24T10:14:32.365Z</time></trkpt><trkpt lat="38.0479617" lon="15.8110933"><ele>1063.0</ele><time>2026-04-24T10:14:33.365Z</time></trkpt><trkpt lat="38.0478667" lon="15.8111517"><ele>1063.0</ele><time>2026-04-24T10:14:34.365Z</time></trkpt><trkpt lat="38.04777" lon="15.8111783"><ele>1063.0</ele><time>2026-04-24T10:14:35.365Z</time></trkpt><trkpt lat="38.047675" lon="15.8111833"><ele>1063.0</ele><time>2026-04-24T10:14:36.365Z</time></trkpt><trkpt lat="38.0475883" lon="15.8111583"><ele>1063.0</ele><time>2026-04-24T10:14:37.365Z</time></trkpt><trkpt lat="38.0474983" lon="15.8111"><ele>1063.0</ele><time>2026-04-24T10:14:38.366Z</time></trkpt><trkpt lat="38.0474183" lon="15.8110083"><ele>1058.75</ele><time>2026-04-24T10:14:39.366Z</time></trkpt><trkpt lat="38.047345" lon="15.8109033"><ele>1054.5</ele><time>2026-04-24T10:14:40.365Z</time></trkpt><trkpt lat="38.047275" lon="15.810785"><ele>1050.25</ele><time>2026-04-24T10:14:41.365Z</time></trkpt><trkpt lat="38.0471983" lon="15.810665"><ele>1046.0</ele><time>2026-04-24T10:14:42.365Z</time></trkpt><trkpt lat="38.047115" lon="15.8105617"><ele>1046.0</ele><time>2026-04-24T10:14:43.366Z</time></trkpt><trkpt lat="38.04703" lon="15.8104767"><ele>1046.0</ele><time>2026-04-24T10:14:44.365Z</time></trkpt><trkpt lat="38.04695" lon="15.810405"><ele>1046.0</ele><time>2026-04-24T10:14:45.365Z</time></trkpt><trkpt lat="38.0468683" lon="15.8103633"><ele>1046.0</ele><time>2026-04-24T10:14:46.366Z</time></trkpt><trkpt lat="38.0467983" lon="15.8103667"><ele>1046.0</ele><time>2026-04-24T10:14:47.365Z</time></trkpt><trkpt lat="38.046725" lon="15.810415"><ele>1046.0</ele><time>2026-04-24T10:14:48.366Z</time></trkpt><trkpt lat="38.0466783" lon="15.8105167"><ele>1046.0</ele><time>2026-04-24T10:14:49.366Z</time></trkpt><trkpt lat="38.04665" lon="15.8106433"><ele>1046.0</ele><time>2026-04-24T10:14:50.365Z</time></trkpt><trkpt lat="38.0466067" lon="15.8107283"><ele>1046.0</ele><time>2026-04-24T10:14:51.365Z</time></trkpt><trkpt lat="38.0465517" lon="15.81077"><ele>1046.0</ele><time>2026-04-24T10:14:52.365Z</time></trkpt><trkpt lat="38.0464267" lon="15.8107467"><ele>1046.0</ele><time>2026-04-24T10:14:54.365Z</time></trkpt><trkpt lat="38.0463617" lon="15.8106983"><ele>1046.0</ele><time>2026-04-24T10:14:55.366Z</time></trkpt><trkpt lat="38.0462933" lon="15.81063"><ele>1045.5</ele><time>2026-04-24T10:14:56.365Z</time></trkpt><trkpt lat="38.0462183" lon="15.8105633"><ele>1045.0</ele><time>2026-04-24T10:14:57.365Z</time></trkpt><trkpt lat="38.0461433" lon="15.8105067"><ele>1044.5</ele><time>2026-04-24T10:14:58.365Z</time></trkpt><trkpt lat="38.04606" lon="15.810495"><ele>1044.0</ele><time>2026-04-24T10:14:59.365Z</time></trkpt><trkpt lat="38.0459733" lon="15.8105067"><ele>1043.5</ele><time>2026-04-24T10:15:00.365Z</time></trkpt><trkpt lat="38.0458867" lon="15.8105367"><ele>1043.0</ele><time>2026-04-24T10:15:01.365Z</time></trkpt><trkpt lat="38.0457967" lon="15.81057"><ele>1042.4</ele><time>2026-04-24T10:15:02.366Z</time></trkpt><trkpt lat="38.0456983" lon="15.81061"><ele>1041.8</ele><time>2026-04-24T10:15:03.366Z</time></trkpt><trkpt lat="38.045605" lon="15.810665"><ele>1041.2</ele><time>2026-04-24T10:15:04.365Z</time></trkpt><trkpt lat="38.0455267" lon="15.81072"><ele>1040.6</ele><time>2026-04-24T10:15:05.366Z</time></trkpt><trkpt lat="38.0454433" lon="15.8107683"><ele>1040.0</ele><time>2026-04-24T10:15:06.366Z</time></trkpt><trkpt lat="38.045365" lon="15.8108033"><ele>1040.0</ele><time>2026-04-24T10:15:07.365Z</time></trkpt><trkpt lat="38.0452867" lon="15.8107983"><ele>1040.0</ele><time>2026-04-24T10:15:08.365Z</time></trkpt><trkpt lat="38.0452033" lon="15.81077"><ele>1040.0</ele><time>2026-04-24T10:15:09.365Z</time></trkpt><trkpt lat="38.0451167" lon="15.8107417"><ele>1040.0</ele><time>2026-04-24T10:15:10.366Z</time></trkpt><trkpt lat="38.0450183" lon="15.8107133"><ele>1040.0</ele><time>2026-04-24T10:15:11.365Z</time></trkpt><trkpt lat="38.0449217" lon="15.8106967"><ele>1039.4</ele><time>2026-04-24T10:15:12.366Z</time></trkpt><trkpt lat="38.04482" lon="15.810675"><ele>1038.8</ele><time>2026-04-24T10:15:13.365Z</time></trkpt><trkpt lat="38.0447267" lon="15.8106467"><ele>1038.2</ele><time>2026-04-24T10:15:14.365Z</time></trkpt><trkpt lat="38.044635" lon="15.8105967"><ele>1037.6</ele><time>2026-04-24T10:15:15.365Z</time></trkpt><trkpt lat="38.04454" lon="15.8105333"><ele>1037.0</ele><time>2026-04-24T10:15:16.366Z</time></trkpt><trkpt lat="38.04446" lon="15.8104733"><ele>1037.0</ele><time>2026-04-24T10:15:17.365Z</time></trkpt><trkpt lat="38.0443717" lon="15.8104183"><ele>1037.0</ele><time>2026-04-24T10:15:18.365Z</time></trkpt><trkpt lat="38.0442867" lon="15.810365"><ele>1037.0</ele><time>2026-04-24T10:15:19.366Z</time></trkpt><trkpt lat="38.0441983" lon="15.81032"><ele>1037.0</ele><time>2026-04-24T10:15:20.366Z</time></trkpt><trkpt lat="38.044105" lon="15.8102767"><ele>1037.0</ele><time>2026-04-24T10:15:21.366Z</time></trkpt><trkpt lat="38.0440183" lon="15.8102233"><ele>1035.3333333333335</ele><time>2026-04-24T10:15:22.365Z</time></trkpt><trkpt lat="38.0439317" lon="15.810175"><ele>1033.6666666666667</ele><time>2026-04-24T10:15:23.365Z</time></trkpt><trkpt lat="38.043845" lon="15.8101467"><ele>1032.0</ele><time>2026-04-24T10:15:24.365Z</time></trkpt><trkpt lat="38.04376" lon="15.8101317"><ele>1030.3333333333333</ele><time>2026-04-24T10:15:25.366Z</time></trkpt><trkpt lat="38.04368" lon="15.8101333"><ele>1028.6666666666665</ele><time>2026-04-24T10:15:26.366Z</time></trkpt><trkpt lat="38.0435933" lon="15.8101433"><ele>1027.0</ele><time>2026-04-24T10:15:27.366Z</time></trkpt><trkpt lat="38.0435033" lon="15.8101617"><ele>1027.0</ele><time>2026-04-24T10:15:28.365Z</time></trkpt><trkpt lat="38.04341" lon="15.810175"><ele>1027.0</ele><time>2026-04-24T10:15:29.365Z</time></trkpt><trkpt lat="38.0433083" lon="15.8101717"><ele>1027.0</ele><time>2026-04-24T10:15:30.365Z</time></trkpt><trkpt lat="38.0432117" lon="15.8101517"><ele>1027.0</ele><time>2026-04-24T10:15:31.366Z</time></trkpt><trkpt lat="38.0431217" lon="15.810145"><ele>1027.0</ele><time>2026-04-24T10:15:32.366Z</time></trkpt><trkpt lat="38.043025" lon="15.8101633"><ele>1025.8</ele><time>2026-04-24T10:15:33.365Z</time></trkpt><trkpt lat="38.0429267" lon="15.8102033"><ele>1024.6</ele><time>2026-04-24T10:15:34.366Z</time></trkpt><trkpt lat="38.0428233" lon="15.8102583"><ele>1023.3999999999999</ele><time>2026-04-24T10:15:35.365Z</time></trkpt><trkpt lat="38.042725" lon="15.810305"><ele>1022.1999999999999</ele><time>2026-04-24T10:15:36.366Z</time></trkpt><trkpt lat="38.0426383" lon="15.8103517"><ele>1021.0</ele><time>2026-04-24T10:15:37.365Z</time></trkpt><trkpt lat="38.04256" lon="15.8103833"><ele>1021.0</ele><time>2026-04-24T10:15:38.365Z</time></trkpt><trkpt lat="38.042475" lon="15.8104067"><ele>1020.9999999999999</ele><time>2026-04-24T10:15:39.366Z</time></trkpt><trkpt lat="38.0423917" lon="15.8104067"><ele>1020.9999999999999</ele><time>2026-04-24T10:15:40.365Z</time></trkpt><trkpt lat="38.0422733" lon="15.8103817"><ele>1021.0</ele><time>2026-04-24T10:15:42.365Z</time></trkpt><trkpt lat="38.0421833" lon="15.8103333"><ele>1021.0</ele><time>2026-04-24T10:15:44.365Z</time></trkpt><trkpt lat="38.04212" lon="15.8102717"><ele>1018.0</ele><time>2026-04-24T10:15:46.365Z</time></trkpt><trkpt lat="38.042065" lon="15.81022"><ele>1014.9999999999999</ele><time>2026-04-24T10:15:48.365Z</time></trkpt><trkpt lat="38.041995" lon="15.8101417"><ele>1011.9999999999999</ele><time>2026-04-24T10:15:50.365Z</time></trkpt><trkpt lat="38.0419233" lon="15.810055"><ele>1009.0</ele><time>2026-04-24T10:15:52.366Z</time></trkpt><trkpt lat="38.0418533" lon="15.8099783"><ele>1006.0</ele><time>2026-04-24T10:15:54.365Z</time></trkpt><trkpt lat="38.0417733" lon="15.8098983"><ele>1005.4</ele><time>2026-04-24T10:15:56.365Z</time></trkpt><trkpt lat="38.04169" lon="15.8098133"><ele>1004.8</ele><time>2026-04-24T10:15:58.365Z</time></trkpt><trkpt lat="38.041565" lon="15.80979"><ele>1004.1999999999999</ele><time>2026-04-24T10:16:00.365Z</time></trkpt><trkpt lat="38.0415033" lon="15.809815"><ele>1003.5999999999999</ele><time>2026-04-24T10:16:01.365Z</time></trkpt><trkpt lat="38.041445" lon="15.8098783"><ele>1003.0</ele><time>2026-04-24T10:16:02.365Z</time></trkpt><trkpt lat="38.0414217" lon="15.8099783"><ele>997.5999999999999</ele><time>2026-04-24T10:16:03.365Z</time></trkpt><trkpt lat="38.04142" lon="15.8100833"><ele>992.1999999999999</ele><time>2026-04-24T10:16:04.365Z</time></trkpt><trkpt lat="38.0414417" lon="15.8102017"><ele>986.8</ele><time>2026-04-24T10:16:05.365Z</time></trkpt><trkpt lat="38.0414817" lon="15.8103333"><ele>981.4</ele><time>2026-04-24T10:16:06.365Z</time></trkpt><trkpt lat="38.0415233" lon="15.8104617"><ele>976.0</ele><time>2026-04-24T10:16:07.365Z</time></trkpt><trkpt lat="38.041555" lon="15.8105767"><ele>976.0</ele><time>2026-04-24T10:16:08.365Z</time></trkpt><trkpt lat="38.041585" lon="15.81068"><ele>975.9999999999999</ele><time>2026-04-24T10:16:09.365Z</time></trkpt><trkpt lat="38.0416033" lon="15.8107867"><ele>975.9999999999999</ele><time>2026-04-24T10:16:10.366Z</time></trkpt><trkpt lat="38.04161" lon="15.8109"><ele>976.0</ele><time>2026-04-24T10:16:11.366Z</time></trkpt><trkpt lat="38.041625" lon="15.8110167"><ele>976.0</ele><time>2026-04-24T10:16:12.365Z</time></trkpt><trkpt lat="38.04165" lon="15.8111333"><ele>979.8333333333333</ele><time>2026-04-24T10:16:13.366Z</time></trkpt><trkpt lat="38.041665" lon="15.8112317"><ele>983.6666666666666</ele><time>2026-04-24T10:16:14.366Z</time></trkpt><trkpt lat="38.04166" lon="15.811325"><ele>987.5</ele><time>2026-04-24T10:16:15.366Z</time></trkpt><trkpt lat="38.041645" lon="15.8114133"><ele>991.3333333333333</ele><time>2026-04-24T10:16:16.365Z</time></trkpt><trkpt lat="38.0416" lon="15.8114867"><ele>995.1666666666666</ele><time>2026-04-24T10:16:17.365Z</time></trkpt><trkpt lat="38.04153" lon="15.8115433"><ele>999.0</ele><time>2026-04-24T10:16:18.366Z</time></trkpt><trkpt lat="38.04145" lon="15.8115717"><ele>999.0</ele><time>2026-04-24T10:16:19.365Z</time></trkpt><trkpt lat="38.0413583" lon="15.81157"><ele>999.0</ele><time>2026-04-24T10:16:20.365Z</time></trkpt><trkpt lat="38.04125" lon="15.811545"><ele>999.0</ele><time>2026-04-24T10:16:21.365Z</time></trkpt><trkpt lat="38.0411167" lon="15.811505"><ele>999.0</ele><time>2026-04-24T10:16:22.365Z</time></trkpt><trkpt lat="38.0409817" lon="15.81146"><ele>999.0</ele><time>2026-04-24T10:16:23.365Z</time></trkpt><trkpt lat="38.0408683" lon="15.8114267"><ele>999.0</ele><time>2026-04-24T10:16:24.365Z</time></trkpt><trkpt lat="38.0407583" lon="15.8114033"><ele>999.0</ele><time>2026-04-24T10:16:25.366Z</time></trkpt><trkpt lat="38.040645" lon="15.8113967"><ele>999.0</ele><time>2026-04-24T10:16:26.366Z</time></trkpt><trkpt lat="38.0405317" lon="15.8114033"><ele>998.2</ele><time>2026-04-24T10:16:27.366Z</time></trkpt><trkpt lat="38.0404217" lon="15.81139"><ele>997.4000000000001</ele><time>2026-04-24T10:16:28.365Z</time></trkpt><trkpt lat="38.0403267" lon="15.8113533"><ele>996.6</ele><time>2026-04-24T10:16:29.365Z</time></trkpt><trkpt lat="38.0402367" lon="15.811285"><ele>995.8</ele><time>2026-04-24T10:16:30.366Z</time></trkpt><trkpt lat="38.0401533" lon="15.8111983"><ele>995.0</ele><time>2026-04-24T10:16:31.366Z</time></trkpt><trkpt lat="38.0400633" lon="15.8111133"><ele>992.0</ele><time>2026-04-24T10:16:32.366Z</time></trkpt><trkpt lat="38.039965" lon="15.8110517"><ele>989.0</ele><time>2026-04-24T10:16:33.365Z</time></trkpt><trkpt lat="38.039855" lon="15.8110033"><ele>986.0</ele><time>2026-04-24T10:16:34.366Z</time></trkpt><trkpt lat="38.0397317" lon="15.81098"><ele>983.0</ele><time>2026-04-24T10:16:35.365Z</time></trkpt><trkpt lat="38.03962" lon="15.810975"><ele>983.0</ele><time>2026-04-24T10:16:36.365Z</time></trkpt><trkpt lat="38.0395167" lon="15.8109767"><ele>983.0</ele><time>2026-04-24T10:16:37.366Z</time></trkpt><trkpt lat="38.0394067" lon="15.8109917"><ele>983.0</ele><time>2026-04-24T10:16:38.365Z</time></trkpt><trkpt lat="38.039295" lon="15.8110167"><ele>983.0</ele><time>2026-04-24T10:16:39.365Z</time></trkpt><trkpt lat="38.03917" lon="15.8110533"><ele>979.75</ele><time>2026-04-24T10:16:40.365Z</time></trkpt><trkpt lat="38.03903" lon="15.8110917"><ele>976.5</ele><time>2026-04-24T10:16:41.365Z</time></trkpt><trkpt lat="38.03889" lon="15.8111233"><ele>973.25</ele><time>2026-04-24T10:16:42.365Z</time></trkpt><trkpt lat="38.0387583" lon="15.8111517"><ele>970.0</ele><time>2026-04-24T10:16:43.365Z</time></trkpt><trkpt lat="38.0386233" lon="15.8111667"><ele>970.0</ele><time>2026-04-24T10:16:44.366Z</time></trkpt><trkpt lat="38.0384833" lon="15.81119"><ele>970.0</ele><time>2026-04-24T10:16:45.366Z</time></trkpt><trkpt lat="38.0383433" lon="15.8112067"><ele>970.0</ele><time>2026-04-24T10:16:46.366Z</time></trkpt><trkpt lat="38.0382133" lon="15.811215"><ele>970.0</ele><time>2026-04-24T10:16:47.365Z</time></trkpt><trkpt lat="38.0380883" lon="15.8112183"><ele>965.6</ele><time>2026-04-24T10:16:48.365Z</time></trkpt><trkpt lat="38.0379733" lon="15.811225"><ele>961.2</ele><time>2026-04-24T10:16:49.366Z</time></trkpt><trkpt lat="38.0378733" lon="15.8112233"><ele>956.8</ele><time>2026-04-24T10:16:50.365Z</time></trkpt><trkpt lat="38.0377917" lon="15.811205"><ele>952.4</ele><time>2026-04-24T10:16:51.366Z</time></trkpt><trkpt lat="38.0377133" lon="15.8111633"><ele>948.0</ele><time>2026-04-24T10:16:52.365Z</time></trkpt><trkpt lat="38.0376417" lon="15.8110883"><ele>946.0</ele><time>2026-04-24T10:16:53.365Z</time></trkpt><trkpt lat="38.03759" lon="15.8109733"><ele>944.0</ele><time>2026-04-24T10:16:54.366Z</time></trkpt><trkpt lat="38.0375433" lon="15.8108517"><ele>942.0</ele><time>2026-04-24T10:16:55.365Z</time></trkpt><trkpt lat="38.0374867" lon="15.8107233"><ele>940.0</ele><time>2026-04-24T10:16:56.365Z</time></trkpt><trkpt lat="38.0374067" lon="15.8106133"><ele>938.0</ele><time>2026-04-24T10:16:57.366Z</time></trkpt><trkpt lat="38.0373067" lon="15.810525"><ele>938.0</ele><time>2026-04-24T10:16:58.365Z</time></trkpt><trkpt lat="38.0372" lon="15.810445"><ele>938.0</ele><time>2026-04-24T10:16:59.366Z</time></trkpt><trkpt lat="38.0370967" lon="15.8103467"><ele>938.0</ele><time>2026-04-24T10:17:00.366Z</time></trkpt><trkpt lat="38.0369967" lon="15.810235"><ele>938.0</ele><time>2026-04-24T10:17:01.365Z</time></trkpt><trkpt lat="38.0369083" lon="15.8101217"><ele>934.75</ele><time>2026-04-24T10:17:02.365Z</time></trkpt><trkpt lat="38.03682" lon="15.8100083"><ele>931.5</ele><time>2026-04-24T10:17:03.366Z</time></trkpt><trkpt lat="38.03674" lon="15.8098917"><ele>928.25</ele><time>2026-04-24T10:17:04.365Z</time></trkpt><trkpt lat="38.036665" lon="15.80978"><ele>925.0</ele><time>2026-04-24T10:17:05.365Z</time></trkpt><trkpt lat="38.0365833" lon="15.8096833"><ele>925.0</ele><time>2026-04-24T10:17:06.365Z</time></trkpt><trkpt lat="38.0365017" lon="15.8095917"><ele>925.0</ele><time>2026-04-24T10:17:07.366Z</time></trkpt><trkpt lat="38.0364133" lon="15.80952"><ele>925.0</ele><time>2026-04-24T10:17:08.365Z</time></trkpt><trkpt lat="38.0363233" lon="15.80946"><ele>925.0</ele><time>2026-04-24T10:17:09.365Z</time></trkpt><trkpt lat="38.0362467" lon="15.8093983"><ele>925.0</ele><time>2026-04-24T10:17:10.366Z</time></trkpt><trkpt lat="38.0361783" lon="15.8093433"><ele>924.9999999999999</ele><time>2026-04-24T10:17:11.365Z</time></trkpt><trkpt lat="38.0361067" lon="15.8093183"><ele>925.0</ele><time>2026-04-24T10:17:12.365Z</time></trkpt><trkpt lat="38.0360433" lon="15.80934"><ele>925.0</ele><time>2026-04-24T10:17:13.365Z</time></trkpt><trkpt lat="38.035995" lon="15.8093933"><ele>925.0</ele><time>2026-04-24T10:17:14.366Z</time></trkpt><trkpt lat="38.0360333" lon="15.8095283"><ele>924.9999999999999</ele><time>2026-04-24T10:17:16.365Z</time></trkpt><trkpt lat="38.0360933" lon="15.809565"><ele>925.0</ele><time>2026-04-24T10:17:17.365Z</time></trkpt><trkpt lat="38.0361667" lon="15.8095833"><ele>925.0</ele><time>2026-04-24T10:17:18.365Z</time></trkpt><trkpt lat="38.036255" lon="15.8096133"><ele>925.0</ele><time>2026-04-24T10:17:19.366Z</time></trkpt><trkpt lat="38.0363433" lon="15.8096567"><ele>925.0</ele><time>2026-04-24T10:17:20.365Z</time></trkpt><trkpt lat="38.0364233" lon="15.8097317"><ele>925.0</ele><time>2026-04-24T10:17:21.366Z</time></trkpt><trkpt lat="38.0365" lon="15.8098283"><ele>925.0</ele><time>2026-04-24T10:17:22.365Z</time></trkpt><trkpt lat="38.0365633" lon="15.8099283"><ele>924.9999999999999</ele><time>2026-04-24T10:17:23.365Z</time></trkpt><trkpt lat="38.0366167" lon="15.8100167"><ele>925.0</ele><time>2026-04-24T10:17:24.366Z</time></trkpt><trkpt lat="38.0366733" lon="15.8101033"><ele>925.0</ele><time>2026-04-24T10:17:25.366Z</time></trkpt><trkpt lat="38.0367217" lon="15.8101967"><ele>925.0</ele><time>2026-04-24T10:17:26.365Z</time></trkpt><trkpt lat="38.036755" lon="15.8103"><ele>924.9999999999999</ele><time>2026-04-24T10:17:27.365Z</time></trkpt><trkpt lat="38.0367733" lon="15.81041"><ele>925.0</ele><time>2026-04-24T10:17:28.365Z</time></trkpt><trkpt lat="38.0367917" lon="15.8105067"><ele>927.1666666666666</ele><time>2026-04-24T10:17:29.365Z</time></trkpt><trkpt lat="38.0368217" lon="15.8106083"><ele>929.3333333333333</ele><time>2026-04-24T10:17:30.365Z</time></trkpt><trkpt lat="38.0368817" lon="15.810695"><ele>931.5</ele><time>2026-04-24T10:17:31.365Z</time></trkpt><trkpt lat="38.0369583" lon="15.8107533"><ele>933.6666666666667</ele><time>2026-04-24T10:17:32.366Z</time></trkpt><trkpt lat="38.0370417" lon="15.8108083"><ele>935.8333333333334</ele><time>2026-04-24T10:17:33.366Z</time></trkpt><trkpt lat="38.03711" lon="15.8108817"><ele>938.0</ele><time>2026-04-24T10:17:34.366Z</time></trkpt><trkpt lat="38.03715" lon="15.810985"><ele>932.4</ele><time>2026-04-24T10:17:35.365Z</time></trkpt><trkpt lat="38.0371533" lon="15.81112"><ele>926.8</ele><time>2026-04-24T10:17:36.365Z</time></trkpt><trkpt lat="38.0371583" lon="15.8112617"><ele>921.2</ele><time>2026-04-24T10:17:37.366Z</time></trkpt><trkpt lat="38.0371767" lon="15.8113967"><ele>915.6</ele><time>2026-04-24T10:17:38.366Z</time></trkpt><trkpt lat="38.03721" lon="15.81152"><ele>910.0</ele><time>2026-04-24T10:17:39.365Z</time></trkpt><trkpt lat="38.0372483" lon="15.81164"><ele>910.0</ele><time>2026-04-24T10:17:40.365Z</time></trkpt><trkpt lat="38.0373033" lon="15.8117533"><ele>910.0</ele><time>2026-04-24T10:17:41.366Z</time></trkpt><trkpt lat="38.037375" lon="15.8118483"><ele>910.0</ele><time>2026-04-24T10:17:42.365Z</time></trkpt><trkpt lat="38.0374583" lon="15.811935"><ele>910.0</ele><time>2026-04-24T10:17:43.366Z</time></trkpt><trkpt lat="38.0375467" lon="15.8120133"><ele>910.0</ele><time>2026-04-24T10:17:44.366Z</time></trkpt><trkpt lat="38.0376233" lon="15.81208"><ele>910.1666666666666</ele><time>2026-04-24T10:17:45.366Z</time></trkpt><trkpt lat="38.0376983" lon="15.81215"><ele>910.3333333333333</ele><time>2026-04-24T10:17:46.365Z</time></trkpt><trkpt lat="38.0377717" lon="15.8122017"><ele>910.5</ele><time>2026-04-24T10:17:47.365Z</time></trkpt><trkpt lat="38.037855" lon="15.81223"><ele>910.6666666666667</ele><time>2026-04-24T10:17:48.365Z</time></trkpt><trkpt lat="38.0379417" lon="15.8122233"><ele>910.8333333333334</ele><time>2026-04-24T10:17:49.365Z</time></trkpt><trkpt lat="38.038025" lon="15.8121967"><ele>911.0</ele><time>2026-04-24T10:17:50.365Z</time></trkpt><trkpt lat="38.0381133" lon="15.8121683"><ele>911.0000000000001</ele><time>2026-04-24T10:17:51.366Z</time></trkpt><trkpt lat="38.0382017" lon="15.8121767"><ele>911.0</ele><time>2026-04-24T10:17:52.366Z</time></trkpt><trkpt lat="38.0382783" lon="15.8122217"><ele>911.0</ele><time>2026-04-24T10:17:53.366Z</time></trkpt><trkpt lat="38.03834" lon="15.8122783"><ele>911.0</ele><time>2026-04-24T10:17:54.366Z</time></trkpt><trkpt lat="38.0384033" lon="15.8123267"><ele>911.0000000000001</ele><time>2026-04-24T10:17:55.365Z</time></trkpt><trkpt lat="38.0384617" lon="15.8123617"><ele>911.0</ele><time>2026-04-24T10:17:56.365Z</time></trkpt><trkpt lat="38.03854" lon="15.8123667"><ele>913.5000000000001</ele><time>2026-04-24T10:17:57.365Z</time></trkpt><trkpt lat="38.0386283" lon="15.812375"><ele>916.0</ele><time>2026-04-24T10:17:58.365Z</time></trkpt><trkpt lat="38.0387067" lon="15.812415"><ele>918.5</ele><time>2026-04-24T10:17:59.365Z</time></trkpt><trkpt lat="38.0387717" lon="15.812465"><ele>921.0</ele><time>2026-04-24T10:18:00.365Z</time></trkpt><trkpt lat="38.038835" lon="15.8125033"><ele>923.5000000000001</ele><time>2026-04-24T10:18:01.365Z</time></trkpt><trkpt lat="38.0389383" lon="15.8125533"><ele>926.0</ele><time>2026-04-24T10:18:03.365Z</time></trkpt><trkpt lat="38.0390467" lon="15.8126"><ele>929.0000000000001</ele><time>2026-04-24T10:18:05.365Z</time></trkpt><trkpt lat="38.03916" lon="15.81264"><ele>932.0</ele><time>2026-04-24T10:18:07.366Z</time></trkpt><trkpt lat="38.0392817" lon="15.8126767"><ele>935.0</ele><time>2026-04-24T10:18:09.365Z</time></trkpt><trkpt lat="38.039345" lon="15.81269"><ele>938.0</ele><time>2026-04-24T10:18:10.366Z</time></trkpt><trkpt lat="38.0394083" lon="15.812705"><ele>941.0000000000001</ele><time>2026-04-24T10:18:11.366Z</time></trkpt><trkpt lat="38.0394767" lon="15.8127117"><ele>944.0</ele><time>2026-04-24T10:18:12.365Z</time></trkpt><trkpt lat="38.03958" lon="15.8128017"><ele>934.4000000000001</ele><time>2026-04-24T10:18:14.365Z</time></trkpt><trkpt lat="38.03968" lon="15.8128867"><ele>924.8000000000001</ele><time>2026-04-24T10:18:16.365Z</time></trkpt><trkpt lat="38.0397717" lon="15.8129733"><ele>915.1999999999999</ele><time>2026-04-24T10:18:18.365Z</time></trkpt><trkpt lat="38.039815" lon="15.8130683"><ele>905.5999999999999</ele><time>2026-04-24T10:18:20.365Z</time></trkpt><trkpt lat="38.0397733" lon="15.8131417"><ele>896.0</ele><time>2026-04-24T10:18:22.366Z</time></trkpt><trkpt lat="38.0396867" lon="15.8131083"><ele>896.0</ele><time>2026-04-24T10:18:24.365Z</time></trkpt><trkpt lat="38.039605" lon="15.81301"><ele>895.9999999999999</ele><time>2026-04-24T10:18:26.365Z</time></trkpt><trkpt lat="38.0395383" lon="15.812915"><ele>895.9999999999999</ele><time>2026-04-24T10:18:28.365Z</time></trkpt><trkpt lat="38.039455" lon="15.8128633"><ele>896.0</ele><time>2026-04-24T10:18:30.366Z</time></trkpt><trkpt lat="38.0393633" lon="15.812835"><ele>896.0</ele><time>2026-04-24T10:18:32.365Z</time></trkpt><trkpt lat="38.0392733" lon="15.8128167"><ele>896.0000000000001</ele><time>2026-04-24T10:18:34.366Z</time></trkpt><trkpt lat="38.03917" lon="15.81279"><ele>896.0</ele><time>2026-04-24T10:18:36.366Z</time></trkpt><trkpt lat="38.0390533" lon="15.8127483"><ele>896.0</ele><time>2026-04-24T10:18:38.366Z</time></trkpt><trkpt lat="38.03899" lon="15.8127333"><ele>896.0</ele><time>2026-04-24T10:18:39.365Z</time></trkpt><trkpt lat="38.0389217" lon="15.8127167"><ele>896.0000000000001</ele><time>2026-04-24T10:18:40.365Z</time></trkpt><trkpt lat="38.0388533" lon="15.8126967"><ele>896.0</ele><time>2026-04-24T10:18:41.365Z</time></trkpt><trkpt lat="38.0387783" lon="15.8126733"><ele>898.1428571428571</ele><time>2026-04-24T10:18:42.365Z</time></trkpt><trkpt lat="38.0387" lon="15.81265"><ele>900.2857142857142</ele><time>2026-04-24T10:18:43.366Z</time></trkpt><trkpt lat="38.0386217" lon="15.8126283"><ele>902.4285714285714</ele><time>2026-04-24T10:18:44.365Z</time></trkpt><trkpt lat="38.03855" lon="15.81261"><ele>904.5714285714286</ele><time>2026-04-24T10:18:45.365Z</time></trkpt><trkpt lat="38.038485" lon="15.8125967"><ele>906.7142857142857</ele><time>2026-04-24T10:18:46.365Z</time></trkpt><trkpt lat="38.03842" lon="15.8125967"><ele>908.8571428571429</ele><time>2026-04-24T10:18:47.365Z</time></trkpt><trkpt lat="38.0383533" lon="15.8125967"><ele>911.0</ele><time>2026-04-24T10:18:48.366Z</time></trkpt><trkpt lat="38.03823" lon="15.8125533"><ele>911.0</ele><time>2026-04-24T10:18:50.366Z</time></trkpt><trkpt lat="38.03817" lon="15.812515"><ele>910.9999999999999</ele><time>2026-04-24T10:18:51.366Z</time></trkpt><trkpt lat="38.03811" lon="15.8124867"><ele>910.9999999999999</ele><time>2026-04-24T10:18:52.365Z</time></trkpt><trkpt lat="38.0379967" lon="15.8125083"><ele>911.0</ele><time>2026-04-24T10:18:54.365Z</time></trkpt><trkpt lat="38.0378917" lon="15.8125783"><ele>911.0</ele><time>2026-04-24T10:18:56.365Z</time></trkpt><trkpt lat="38.0377817" lon="15.81264"><ele>911.0000000000001</ele><time>2026-04-24T10:18:58.366Z</time></trkpt><trkpt lat="38.0376667" lon="15.81264"><ele>911.0</ele><time>2026-04-24T10:19:00.365Z</time></trkpt><trkpt lat="38.0375983" lon="15.8126133"><ele>911.0</ele><time>2026-04-24T10:19:01.366Z</time></trkpt><trkpt lat="38.0375367" lon="15.8125567"><ele>911.0</ele><time>2026-04-24T10:19:02.365Z</time></trkpt><trkpt lat="38.0374783" lon="15.8124983"><ele>911.0000000000001</ele><time>2026-04-24T10:19:03.365Z</time></trkpt><trkpt lat="38.0374217" lon="15.81244"><ele>911.0</ele><time>2026-04-24T10:19:04.365Z</time></trkpt><trkpt lat="38.0373667" lon="15.8123933"><ele>907.7142857142858</ele><time>2026-04-24T10:19:05.366Z</time></trkpt><trkpt lat="38.0373033" lon="15.8123617"><ele>904.4285714285713</ele><time>2026-04-24T10:19:06.365Z</time></trkpt><trkpt lat="38.03723" lon="15.8123567"><ele>901.1428571428571</ele><time>2026-04-24T10:19:07.365Z</time></trkpt><trkpt lat="38.0371617" lon="15.8123667"><ele>897.8571428571429</ele><time>2026-04-24T10:19:08.366Z</time></trkpt><trkpt lat="38.0370883" lon="15.8123833"><ele>894.5714285714287</ele><time>2026-04-24T10:19:09.365Z</time></trkpt><trkpt lat="38.0370083" lon="15.8123933"><ele>891.2857142857142</ele><time>2026-04-24T10:19:10.365Z</time></trkpt><trkpt lat="38.0369283" lon="15.8123967"><ele>888.0</ele><time>2026-04-24T10:19:11.366Z</time></trkpt><trkpt lat="38.036855" lon="15.8123833"><ele>888.0</ele><time>2026-04-24T10:19:12.366Z</time></trkpt><trkpt lat="38.0367817" lon="15.8123567"><ele>888.0</ele><time>2026-04-24T10:19:13.365Z</time></trkpt><trkpt lat="38.0367067" lon="15.8123117"><ele>888.0</ele><time>2026-04-24T10:19:14.365Z</time></trkpt><trkpt lat="38.0366433" lon="15.8122417"><ele>888.0</ele><time>2026-04-24T10:19:15.365Z</time></trkpt><trkpt lat="38.0366067" lon="15.812165"><ele>888.0</ele><time>2026-04-24T10:19:16.366Z</time></trkpt><trkpt lat="38.03659" lon="15.8120833"><ele>888.0</ele><time>2026-04-24T10:19:17.365Z</time></trkpt><trkpt lat="38.0365933" lon="15.811995"><ele>883.5999999999999</ele><time>2026-04-24T10:19:18.365Z</time></trkpt><trkpt lat="38.03661" lon="15.81191"><ele>879.1999999999999</ele><time>2026-04-24T10:19:19.365Z</time></trkpt><trkpt lat="38.0366317" lon="15.8118233"><ele>874.8</ele><time>2026-04-24T10:19:20.366Z</time></trkpt><trkpt lat="38.0366517" lon="15.811735"><ele>870.4</ele><time>2026-04-24T10:19:21.366Z</time></trkpt><trkpt lat="38.03664" lon="15.8115883"><ele>866.0</ele><time>2026-04-24T10:19:23.366Z</time></trkpt><trkpt lat="38.03653" lon="15.8114983"><ele>866.0000000000001</ele><time>2026-04-24T10:19:25.365Z</time></trkpt><trkpt lat="38.0364467" lon="15.8114783"><ele>866.0</ele><time>2026-04-24T10:19:26.365Z</time></trkpt><trkpt lat="38.0363583" lon="15.811475"><ele>866.0</ele><time>2026-04-24T10:19:27.365Z</time></trkpt><trkpt lat="38.036275" lon="15.8114633"><ele>866.0</ele><time>2026-04-24T10:19:28.366Z</time></trkpt><trkpt lat="38.0362017" lon="15.8114483"><ele>866.0000000000001</ele><time>2026-04-24T10:19:29.366Z</time></trkpt><trkpt lat="38.036125" lon="15.8114083"><ele>866.0</ele><time>2026-04-24T10:19:30.365Z</time></trkpt><trkpt lat="38.0360633" lon="15.8113417"><ele>865.9999999999999</ele><time>2026-04-24T10:19:31.366Z</time></trkpt><trkpt lat="38.0360283" lon="15.8112533"><ele>866.0</ele><time>2026-04-24T10:19:32.365Z</time></trkpt><trkpt lat="38.036015" lon="15.8111417"><ele>866.0</ele><time>2026-04-24T10:19:33.366Z</time></trkpt><trkpt lat="38.0360067" lon="15.8110433"><ele>866.0</ele><time>2026-04-24T10:19:34.366Z</time></trkpt><trkpt lat="38.0359867" lon="15.8109633"><ele>866.0</ele><time>2026-04-24T10:19:35.365Z</time></trkpt><trkpt lat="38.0359483" lon="15.8108983"><ele>865.9999999999999</ele><time>2026-04-24T10:19:36.365Z</time></trkpt><trkpt lat="38.03589" lon="15.810855"><ele>866.0</ele><time>2026-04-24T10:19:37.366Z</time></trkpt><trkpt lat="38.03579" lon="15.8107867"><ele>865.4285714285713</ele><time>2026-04-24T10:19:39.365Z</time></trkpt><trkpt lat="38.0357133" lon="15.810735"><ele>864.8571428571429</ele><time>2026-04-24T10:19:41.366Z</time></trkpt><trkpt lat="38.0356567" lon="15.8106767"><ele>864.2857142857142</ele><time>2026-04-24T10:19:44.365Z</time></trkpt><trkpt lat="38.03563" lon="15.8105983"><ele>863.7142857142857</ele><time>2026-04-24T10:19:48.365Z</time></trkpt><trkpt lat="38.0356933" lon="15.8106533"><ele>863.1428571428571</ele><time>2026-04-24T10:25:04.365Z</time></trkpt><trkpt lat="38.0356417" lon="15.810585"><ele>862.5714285714286</ele><time>2026-04-24T10:25:13.365Z</time></trkpt><trkpt lat="38.0355983" lon="15.8105133"><ele>862.0</ele><time>2026-04-24T10:25:14.365Z</time></trkpt><trkpt lat="38.035535" lon="15.81044"><ele>862.0</ele><time>2026-04-24T10:25:15.365Z</time></trkpt><trkpt lat="38.0354533" lon="15.8103617"><ele>862.0</ele><time>2026-04-24T10:25:16.365Z</time></trkpt><trkpt lat="38.0353667" lon="15.8102767"><ele>862.0</ele><time>2026-04-24T10:25:17.366Z</time></trkpt><trkpt lat="38.03528" lon="15.8101967"><ele>862.0</ele><time>2026-04-24T10:25:18.365Z</time></trkpt><trkpt lat="38.0351883" lon="15.8101383"><ele>862.0</ele><time>2026-04-24T10:25:19.365Z</time></trkpt><trkpt lat="38.0350983" lon="15.8100883"><ele>865.2</ele><time>2026-04-24T10:25:20.366Z</time></trkpt><trkpt lat="38.0350083" lon="15.8100583"><ele>868.4000000000001</ele><time>2026-04-24T10:25:21.366Z</time></trkpt><trkpt lat="38.0349017" lon="15.8100517"><ele>871.5999999999999</ele><time>2026-04-24T10:25:22.365Z</time></trkpt><trkpt lat="38.0347917" lon="15.8100617"><ele>874.8</ele><time>2026-04-24T10:25:23.365Z</time></trkpt><trkpt lat="38.0346817" lon="15.81008"><ele>878.0</ele><time>2026-04-24T10:25:24.365Z</time></trkpt><trkpt lat="38.0345733" lon="15.8101167"><ele>878.0</ele><time>2026-04-24T10:25:25.366Z</time></trkpt><trkpt lat="38.034475" lon="15.810155"><ele>878.0</ele><time>2026-04-24T10:25:26.366Z</time></trkpt><trkpt lat="38.03438" lon="15.81019"><ele>878.0</ele><time>2026-04-24T10:25:27.366Z</time></trkpt><trkpt lat="38.034285" lon="15.8102067"><ele>878.0</ele><time>2026-04-24T10:25:28.365Z</time></trkpt><trkpt lat="38.0341867" lon="15.8102183"><ele>878.0</ele><time>2026-04-24T10:25:29.365Z</time></trkpt><trkpt lat="38.0340833" lon="15.8102183"><ele>877.4</ele><time>2026-04-24T10:25:30.365Z</time></trkpt><trkpt lat="38.0339833" lon="15.8102133"><ele>876.8</ele><time>2026-04-24T10:25:31.365Z</time></trkpt><trkpt lat="38.03389" lon="15.8101967"><ele>876.2</ele><time>2026-04-24T10:25:32.365Z</time></trkpt><trkpt lat="38.0338017" lon="15.8101767"><ele>875.6</ele><time>2026-04-24T10:25:33.365Z</time></trkpt><trkpt lat="38.0337117" lon="15.81017"><ele>875.0</ele><time>2026-04-24T10:25:34.365Z</time></trkpt><trkpt lat="38.03361" lon="15.810185"><ele>875.0000000000001</ele><time>2026-04-24T10:25:35.365Z</time></trkpt><trkpt lat="38.03351" lon="15.8101983"><ele>875.0</ele><time>2026-04-24T10:25:36.366Z</time></trkpt><trkpt lat="38.0334183" lon="15.8102317"><ele>875.0</ele><time>2026-04-24T10:25:37.366Z</time></trkpt><trkpt lat="38.0333383" lon="15.8102733"><ele>875.0</ele><time>2026-04-24T10:25:38.366Z</time></trkpt><trkpt lat="38.03327" lon="15.810335"><ele>875.0000000000001</ele><time>2026-04-24T10:25:39.365Z</time></trkpt><trkpt lat="38.0332217" lon="15.81042"><ele>875.0</ele><time>2026-04-24T10:25:40.366Z</time></trkpt><trkpt lat="38.0331983" lon="15.810535"><ele>869.4</ele><time>2026-04-24T10:25:41.365Z</time></trkpt><trkpt lat="38.0332" lon="15.810675"><ele>863.8</ele><time>2026-04-24T10:25:42.365Z</time></trkpt><trkpt lat="38.0332183" lon="15.8108217"><ele>858.2</ele><time>2026-04-24T10:25:43.366Z</time></trkpt><trkpt lat="38.0332383" lon="15.810955"><ele>852.6</ele><time>2026-04-24T10:25:44.365Z</time></trkpt><trkpt lat="38.03326" lon="15.8110633"><ele>847.0</ele><time>2026-04-24T10:25:45.366Z</time></trkpt><trkpt lat="38.0332983" lon="15.8111483"><ele>848.0</ele><time>2026-04-24T10:25:46.366Z</time></trkpt><trkpt lat="38.033355" lon="15.8112067"><ele>849.0</ele><time>2026-04-24T10:25:47.365Z</time></trkpt><trkpt lat="38.0334433" lon="15.811235"><ele>850.0</ele><time>2026-04-24T10:25:48.366Z</time></trkpt><trkpt lat="38.03355" lon="15.811215"><ele>851.0</ele><time>2026-04-24T10:25:49.366Z</time></trkpt><trkpt lat="38.0336667" lon="15.8111633"><ele>852.0</ele><time>2026-04-24T10:25:50.365Z</time></trkpt><trkpt lat="38.0338083" lon="15.8110967"><ele>852.0</ele><time>2026-04-24T10:25:51.365Z</time></trkpt><trkpt lat="38.033935" lon="15.8110333"><ele>852.0</ele><time>2026-04-24T10:25:52.366Z</time></trkpt><trkpt lat="38.03406" lon="15.8109867"><ele>852.0</ele><time>2026-04-24T10:25:53.365Z</time></trkpt><trkpt lat="38.034175" lon="15.8109233"><ele>852.0</ele><time>2026-04-24T10:25:54.365Z</time></trkpt><trkpt lat="38.0342767" lon="15.8108567"><ele>857.0</ele><time>2026-04-24T10:25:55.365Z</time></trkpt><trkpt lat="38.034385" lon="15.8107733"><ele>862.0</ele><time>2026-04-24T10:25:56.366Z</time></trkpt><trkpt lat="38.034485" lon="15.8106767"><ele>867.0</ele><time>2026-04-24T10:25:57.365Z</time></trkpt><trkpt lat="38.0345867" lon="15.8105917"><ele>872.0</ele><time>2026-04-24T10:25:58.365Z</time></trkpt><trkpt lat="38.0346983" lon="15.8105183"><ele>872.0</ele><time>2026-04-24T10:25:59.365Z</time></trkpt><trkpt lat="38.0348083" lon="15.81047"><ele>872.0</ele><time>2026-04-24T10:26:00.366Z</time></trkpt><trkpt lat="38.0348933" lon="15.810465"><ele>872.0</ele><time>2026-04-24T10:26:01.365Z</time></trkpt><trkpt lat="38.0349683" lon="15.81049"><ele>872.0</ele><time>2026-04-24T10:26:02.365Z</time></trkpt><trkpt lat="38.0350433" lon="15.8105433"><ele>872.0</ele><time>2026-04-24T10:26:03.365Z</time></trkpt><trkpt lat="38.0351117" lon="15.810625"><ele>869.5</ele><time>2026-04-24T10:26:04.365Z</time></trkpt><trkpt lat="38.0351617" lon="15.81074"><ele>867.0</ele><time>2026-04-24T10:26:05.366Z</time></trkpt><trkpt lat="38.03524" lon="15.8108383"><ele>864.5</ele><time>2026-04-24T10:26:06.365Z</time></trkpt><trkpt lat="38.035355" lon="15.8109167"><ele>862.0</ele><time>2026-04-24T10:26:07.366Z</time></trkpt><trkpt lat="38.0354683" lon="15.8109983"><ele>852.0</ele><time>2026-04-24T10:26:08.366Z</time></trkpt><trkpt lat="38.0355583" lon="15.811085"><ele>842.0</ele><time>2026-04-24T10:26:09.365Z</time></trkpt><trkpt lat="38.035625" lon="15.8112"><ele>832.0</ele><time>2026-04-24T10:26:10.365Z</time></trkpt><trkpt lat="38.03567" lon="15.8113467"><ele>822.0</ele><time>2026-04-24T10:26:11.365Z</time></trkpt><trkpt lat="38.0357017" lon="15.811515"><ele>822.0</ele><time>2026-04-24T10:26:12.366Z</time></trkpt><trkpt lat="38.0357117" lon="15.81168"><ele>822.0</ele><time>2026-04-24T10:26:13.365Z</time></trkpt><trkpt lat="38.0357383" lon="15.8118133"><ele>822.0</ele><time>2026-04-24T10:26:14.366Z</time></trkpt><trkpt lat="38.0357833" lon="15.811925"><ele>822.0</ele><time>2026-04-24T10:26:15.365Z</time></trkpt><trkpt lat="38.0358583" lon="15.81202"><ele>822.0</ele><time>2026-04-24T10:26:16.365Z</time></trkpt><trkpt lat="38.035935" lon="15.81211"><ele>820.2</ele><time>2026-04-24T10:26:17.366Z</time></trkpt><trkpt lat="38.0359867" lon="15.81221"><ele>818.4000000000001</ele><time>2026-04-24T10:26:18.366Z</time></trkpt><trkpt lat="38.0360317" lon="15.8123417"><ele>816.5999999999999</ele><time>2026-04-24T10:26:19.365Z</time></trkpt><trkpt lat="38.0360867" lon="15.8124817"><ele>814.8</ele><time>2026-04-24T10:26:20.365Z</time></trkpt><trkpt lat="38.0361333" lon="15.8126033"><ele>813.0</ele><time>2026-04-24T10:26:21.365Z</time></trkpt><trkpt lat="38.0361533" lon="15.8127133"><ele>813.0</ele><time>2026-04-24T10:26:22.366Z</time></trkpt><trkpt lat="38.0361583" lon="15.812835"><ele>813.0</ele><time>2026-04-24T10:26:23.366Z</time></trkpt><trkpt lat="38.0361567" lon="15.8129817"><ele>813.0</ele><time>2026-04-24T10:26:24.366Z</time></trkpt><trkpt lat="38.036145" lon="15.8131333"><ele>813.0</ele><time>2026-04-24T10:26:25.365Z</time></trkpt><trkpt lat="38.0361283" lon="15.8132733"><ele>813.0</ele><time>2026-04-24T10:26:26.365Z</time></trkpt><trkpt lat="38.0360967" lon="15.8134"><ele>811.1666666666666</ele><time>2026-04-24T10:26:27.365Z</time></trkpt><trkpt lat="38.0360567" lon="15.8135033"><ele>809.3333333333333</ele><time>2026-04-24T10:26:28.365Z</time></trkpt><trkpt lat="38.0360333" lon="15.8135883"><ele>807.5</ele><time>2026-04-24T10:26:29.365Z</time></trkpt><trkpt lat="38.0360967" lon="15.8137183"><ele>805.6666666666666</ele><time>2026-04-24T10:26:31.366Z</time></trkpt><trkpt lat="38.036165" lon="15.8137333"><ele>803.8333333333333</ele><time>2026-04-24T10:26:32.365Z</time></trkpt><trkpt lat="38.0362567" lon="15.8137167"><ele>802.0</ele><time>2026-04-24T10:26:33.366Z</time></trkpt><trkpt lat="38.0363667" lon="15.813665"><ele>801.9999999999999</ele><time>2026-04-24T10:26:34.365Z</time></trkpt><trkpt lat="38.0364633" lon="15.8136433"><ele>802.0</ele><time>2026-04-24T10:26:35.366Z</time></trkpt><trkpt lat="38.0365517" lon="15.813635"><ele>802.0</ele><time>2026-04-24T10:26:36.366Z</time></trkpt><trkpt lat="38.0366317" lon="15.813635"><ele>802.0</ele><time>2026-04-24T10:26:37.366Z</time></trkpt><trkpt lat="38.0367067" lon="15.8136483"><ele>801.9999999999999</ele><time>2026-04-24T10:26:38.366Z</time></trkpt><trkpt lat="38.0367733" lon="15.8136833"><ele>802.0</ele><time>2026-04-24T10:26:39.365Z</time></trkpt><trkpt lat="38.0368617" lon="15.8137483"><ele>802.0</ele><time>2026-04-24T10:26:41.365Z</time></trkpt><trkpt lat="38.036815" lon="15.81367"><ele>802.0</ele><time>2026-04-24T10:26:48.366Z</time></trkpt><trkpt lat="38.0366867" lon="15.81362"><ele>802.0</ele><time>2026-04-24T10:26:50.365Z</time></trkpt><trkpt lat="38.0365933" lon="15.8135967"><ele>802.0</ele><time>2026-04-24T10:26:51.365Z</time></trkpt><trkpt lat="38.0364733" lon="15.8136"><ele>802.0</ele><time>2026-04-24T10:26:52.366Z</time></trkpt><trkpt lat="38.0363417" lon="15.8136217"><ele>802.0</ele><time>2026-04-24T10:26:53.366Z</time></trkpt><trkpt lat="38.0362283" lon="15.8136617"><ele>802.0</ele><time>2026-04-24T10:26:54.365Z</time></trkpt><trkpt lat="38.03614" lon="15.813675"><ele>802.0</ele><time>2026-04-24T10:26:55.366Z</time></trkpt><trkpt lat="38.03607" lon="15.8136567"><ele>802.0</ele><time>2026-04-24T10:26:56.365Z</time></trkpt><trkpt lat="38.0360267" lon="15.8135983"><ele>802.0</ele><time>2026-04-24T10:26:57.366Z</time></trkpt><trkpt lat="38.0360383" lon="15.8134067"><ele>804.75</ele><time>2026-04-24T10:26:59.365Z</time></trkpt><trkpt lat="38.0360883" lon="15.81326"><ele>807.5</ele><time>2026-04-24T10:27:00.365Z</time></trkpt><trkpt lat="38.0361433" lon="15.8130783"><ele>810.25</ele><time>2026-04-24T10:27:01.366Z</time></trkpt><trkpt lat="38.0361617" lon="15.8128867"><ele>813.0</ele><time>2026-04-24T10:27:02.365Z</time></trkpt><trkpt lat="38.0361583" lon="15.81271"><ele>818.75</ele><time>2026-04-24T10:27:03.366Z</time></trkpt><trkpt lat="38.0361167" lon="15.8125583"><ele>824.5</ele><time>2026-04-24T10:27:04.366Z</time></trkpt><trkpt lat="38.0360567" lon="15.8124067"><ele>830.25</ele><time>2026-04-24T10:27:05.366Z</time></trkpt><trkpt lat="38.0359933" lon="15.8122317"><ele>836.0</ele><time>2026-04-24T10:27:06.365Z</time></trkpt><trkpt lat="38.0359117" lon="15.812075"><ele>836.0</ele><time>2026-04-24T10:27:07.365Z</time></trkpt><trkpt lat="38.0358183" lon="15.8119633"><ele>836.0</ele><time>2026-04-24T10:27:08.365Z</time></trkpt><trkpt lat="38.03575" lon="15.81186"><ele>836.0</ele><time>2026-04-24T10:27:09.365Z</time></trkpt><trkpt lat="38.03571" lon="15.811715"><ele>836.0</ele><time>2026-04-24T10:27:10.365Z</time></trkpt><trkpt lat="38.03568" lon="15.81154"><ele>832.5</ele><time>2026-04-24T10:27:11.365Z</time></trkpt><trkpt lat="38.0356433" lon="15.8113567"><ele>829.0</ele><time>2026-04-24T10:27:12.365Z</time></trkpt><trkpt lat="38.0356" lon="15.8111817"><ele>825.5</ele><time>2026-04-24T10:27:13.366Z</time></trkpt><trkpt lat="38.035525" lon="15.8110317"><ele>822.0</ele><time>2026-04-24T10:27:14.365Z</time></trkpt><trkpt lat="38.0354267" lon="15.8109117"><ele>832.0</ele><time>2026-04-24T10:27:15.366Z</time></trkpt><trkpt lat="38.0352983" lon="15.8108133"><ele>842.0</ele><time>2026-04-24T10:27:16.366Z</time></trkpt><trkpt lat="38.0351867" lon="15.8107433"><ele>852.0</ele><time>2026-04-24T10:27:17.365Z</time></trkpt><trkpt lat="38.0351067" lon="15.81064"><ele>862.0</ele><time>2026-04-24T10:27:18.366Z</time></trkpt><trkpt lat="38.035035" lon="15.8105283"><ele>864.0</ele><time>2026-04-24T10:27:19.365Z</time></trkpt><trkpt lat="38.0349483" lon="15.8104617"><ele>866.0</ele><time>2026-04-24T10:27:20.365Z</time></trkpt><trkpt lat="38.03485" lon="15.8104333"><ele>868.0</ele><time>2026-04-24T10:27:21.365Z</time></trkpt><trkpt lat="38.03474" lon="15.8104517"><ele>870.0</ele><time>2026-04-24T10:27:22.366Z</time></trkpt><trkpt lat="38.0346233" lon="15.81051"><ele>872.0</ele><time>2026-04-24T10:27:23.365Z</time></trkpt><trkpt lat="38.0344933" lon="15.8106133"><ele>872.0</ele><time>2026-04-24T10:27:24.365Z</time></trkpt><trkpt lat="38.0343683" lon="15.81073"><ele>872.0</ele><time>2026-04-24T10:27:25.366Z</time></trkpt><trkpt lat="38.0342233" lon="15.8108333"><ele>872.0</ele><time>2026-04-24T10:27:26.366Z</time></trkpt><trkpt lat="38.03409" lon="15.8109083"><ele>872.75</ele><time>2026-04-24T10:27:27.365Z</time></trkpt><trkpt lat="38.03397" lon="15.81097"><ele>873.5</ele><time>2026-04-24T10:27:28.366Z</time></trkpt><trkpt lat="38.0338633" lon="15.811025"><ele>874.25</ele><time>2026-04-24T10:27:29.365Z</time></trkpt><trkpt lat="38.033765" lon="15.8110633"><ele>875.0</ele><time>2026-04-24T10:27:30.366Z</time></trkpt><trkpt lat="38.033665" lon="15.8110917"><ele>871.1666666666667</ele><time>2026-04-24T10:27:31.365Z</time></trkpt><trkpt lat="38.033575" lon="15.811125"><ele>867.3333333333334</ele><time>2026-04-24T10:27:32.366Z</time></trkpt><trkpt lat="38.03349" lon="15.811155"><ele>863.5</ele><time>2026-04-24T10:27:33.365Z</time></trkpt><trkpt lat="38.0334083" lon="15.8111667"><ele>859.6666666666667</ele><time>2026-04-24T10:27:34.366Z</time></trkpt><trkpt lat="38.0333417" lon="15.81116"><ele>855.8333333333334</ele><time>2026-04-24T10:27:35.366Z</time></trkpt><trkpt lat="38.033285" lon="15.81112"><ele>852.0</ele><time>2026-04-24T10:27:36.365Z</time></trkpt><trkpt lat="38.0332567" lon="15.8110417"><ele>851.0</ele><time>2026-04-24T10:27:37.366Z</time></trkpt><trkpt lat="38.0332533" lon="15.8109317"><ele>850.0</ele><time>2026-04-24T10:27:38.366Z</time></trkpt><trkpt lat="38.03325" lon="15.8108033"><ele>849.0</ele><time>2026-04-24T10:27:39.366Z</time></trkpt><trkpt lat="38.0332533" lon="15.8106733"><ele>848.0</ele><time>2026-04-24T10:27:40.366Z</time></trkpt><trkpt lat="38.033255" lon="15.8105517"><ele>847.0</ele><time>2026-04-24T10:27:41.366Z</time></trkpt><trkpt lat="38.0332717" lon="15.8104383"><ele>847.0</ele><time>2026-04-24T10:27:42.365Z</time></trkpt><trkpt lat="38.0333033" lon="15.8103383"><ele>847.0</ele><time>2026-04-24T10:27:43.365Z</time></trkpt><trkpt lat="38.03336" lon="15.8102633"><ele>847.0</ele><time>2026-04-24T10:27:44.366Z</time></trkpt><trkpt lat="38.033435" lon="15.8102033"><ele>847.0</ele><time>2026-04-24T10:27:45.365Z</time></trkpt><trkpt lat="38.0335267" lon="15.8101767"><ele>847.0</ele><time>2026-04-24T10:27:46.366Z</time></trkpt><trkpt lat="38.033635" lon="15.81016"><ele>853.25</ele><time>2026-04-24T10:27:47.365Z</time></trkpt><trkpt lat="38.0337567" lon="15.810165"><ele>859.5</ele><time>2026-04-24T10:27:48.366Z</time></trkpt><trkpt lat="38.03389" lon="15.8101883"><ele>865.75</ele><time>2026-04-24T10:27:49.366Z</time></trkpt><trkpt lat="38.0340217" lon="15.8102167"><ele>872.0</ele><time>2026-04-24T10:27:50.366Z</time></trkpt><trkpt lat="38.034145" lon="15.810235"><ele>872.0</ele><time>2026-04-24T10:27:51.366Z</time></trkpt><trkpt lat="38.0342633" lon="15.8102317"><ele>872.0</ele><time>2026-04-24T10:27:52.365Z</time></trkpt><trkpt lat="38.0343817" lon="15.8102217"><ele>872.0</ele><time>2026-04-24T10:27:53.366Z</time></trkpt><trkpt lat="38.0345033" lon="15.8101883"><ele>872.0</ele><time>2026-04-24T10:27:54.365Z</time></trkpt><trkpt lat="38.0346267" lon="15.8101333"><ele>873.5</ele><time>2026-04-24T10:27:55.365Z</time></trkpt><trkpt lat="38.0347417" lon="15.8100917"><ele>875.0</ele><time>2026-04-24T10:27:56.365Z</time></trkpt><trkpt lat="38.0348517" lon="15.8100783"><ele>876.5</ele><time>2026-04-24T10:27:57.365Z</time></trkpt><trkpt lat="38.0349683" lon="15.8100717"><ele>878.0</ele><time>2026-04-24T10:27:58.366Z</time></trkpt><trkpt lat="38.0350767" lon="15.8100817"><ele>882.0</ele><time>2026-04-24T10:27:59.365Z</time></trkpt><trkpt lat="38.0351783" lon="15.8101283"><ele>886.0</ele><time>2026-04-24T10:28:00.366Z</time></trkpt><trkpt lat="38.035285" lon="15.8102067"><ele>890.0</ele><time>2026-04-24T10:28:01.365Z</time></trkpt><trkpt lat="38.0353883" lon="15.8102867"><ele>894.0</ele><time>2026-04-24T10:28:02.365Z</time></trkpt><trkpt lat="38.0354867" lon="15.8103667"><ele>894.75</ele><time>2026-04-24T10:28:03.365Z</time></trkpt><trkpt lat="38.0355783" lon="15.810455"><ele>895.5</ele><time>2026-04-24T10:28:04.366Z</time></trkpt><trkpt lat="38.0356683" lon="15.8105683"><ele>896.25</ele><time>2026-04-24T10:28:05.366Z</time></trkpt><trkpt lat="38.03575" lon="15.810695"><ele>897.0</ele><time>2026-04-24T10:28:06.365Z</time></trkpt><trkpt lat="38.03584" lon="15.8108083"><ele>897.0</ele><time>2026-04-24T10:28:07.366Z</time></trkpt><trkpt lat="38.035925" lon="15.8108883"><ele>897.0</ele><time>2026-04-24T10:28:08.366Z</time></trkpt><trkpt lat="38.03599" lon="15.8109667"><ele>897.0</ele><time>2026-04-24T10:28:09.365Z</time></trkpt><trkpt lat="38.03602" lon="15.81105"><ele>897.0</ele><time>2026-04-24T10:28:10.365Z</time></trkpt><trkpt lat="38.0360333" lon="15.8111467"><ele>897.0</ele><time>2026-04-24T10:28:11.365Z</time></trkpt><trkpt lat="38.0360417" lon="15.8112417"><ele>897.0</ele><time>2026-04-24T10:28:12.366Z</time></trkpt><trkpt lat="38.036065" lon="15.8113183"><ele>892.5714285714286</ele><time>2026-04-24T10:28:13.366Z</time></trkpt><trkpt lat="38.0361083" lon="15.8113883"><ele>888.1428571428571</ele><time>2026-04-24T10:28:14.365Z</time></trkpt><trkpt lat="38.0361683" lon="15.8114333"><ele>883.7142857142857</ele><time>2026-04-24T10:28:15.365Z</time></trkpt><trkpt lat="38.0362383" lon="15.8114617"><ele>879.2857142857142</ele><time>2026-04-24T10:28:16.366Z</time></trkpt><trkpt lat="38.0363133" lon="15.8114733"><ele>874.8571428571429</ele><time>2026-04-24T10:28:17.365Z</time></trkpt><trkpt lat="38.03638" lon="15.811485"><ele>870.4285714285713</ele><time>2026-04-24T10:28:18.365Z</time></trkpt><trkpt lat="38.0364533" lon="15.8114917"><ele>866.0</ele><time>2026-04-24T10:28:19.366Z</time></trkpt><trkpt lat="38.0365217" lon="15.8115083"><ele>866.0000000000001</ele><time>2026-04-24T10:28:20.366Z</time></trkpt><trkpt lat="38.03658" lon="15.811545"><ele>866.0</ele><time>2026-04-24T10:28:21.366Z</time></trkpt><trkpt lat="38.03663" lon="15.811595"><ele>866.0</ele><time>2026-04-24T10:28:22.366Z</time></trkpt><trkpt lat="38.0366833" lon="15.8117417"><ele>866.0</ele><time>2026-04-24T10:28:24.365Z</time></trkpt><trkpt lat="38.0366833" lon="15.8118267"><ele>866.0000000000001</ele><time>2026-04-24T10:28:25.366Z</time></trkpt><trkpt lat="38.0366567" lon="15.811915"><ele>866.0</ele><time>2026-04-24T10:28:26.365Z</time></trkpt><trkpt lat="38.036625" lon="15.8120133"><ele>870.4</ele><time>2026-04-24T10:28:27.365Z</time></trkpt><trkpt lat="38.0366083" lon="15.812115"><ele>874.8</ele><time>2026-04-24T10:28:28.365Z</time></trkpt><trkpt lat="38.0366233" lon="15.8122217"><ele>879.1999999999999</ele><time>2026-04-24T10:28:29.365Z</time></trkpt><trkpt lat="38.0366833" lon="15.812315"><ele>883.5999999999999</ele><time>2026-04-24T10:28:30.366Z</time></trkpt><trkpt lat="38.0367767" lon="15.8123833"><ele>888.0</ele><time>2026-04-24T10:28:31.365Z</time></trkpt><trkpt lat="38.03689" lon="15.81243"><ele>888.0</ele><time>2026-04-24T10:28:32.365Z</time></trkpt><trkpt lat="38.037005" lon="15.8124517"><ele>888.0</ele><time>2026-04-24T10:28:33.365Z</time></trkpt><trkpt lat="38.037115" lon="15.8124417"><ele>888.0</ele><time>2026-04-24T10:28:34.366Z</time></trkpt><trkpt lat="38.0372117" lon="15.8124083"><ele>888.0</ele><time>2026-04-24T10:28:35.365Z</time></trkpt><trkpt lat="38.0373033" lon="15.8123917"><ele>888.0</ele><time>2026-04-24T10:28:36.366Z</time></trkpt><trkpt lat="38.0373933" lon="15.8123933"><ele>888.0</ele><time>2026-04-24T10:28:37.366Z</time></trkpt><trkpt lat="38.0374667" lon="15.81243"><ele>888.0</ele><time>2026-04-24T10:28:38.365Z</time></trkpt><trkpt lat="38.0375317" lon="15.8125083"><ele>888.0</ele><time>2026-04-24T10:28:39.366Z</time></trkpt><trkpt lat="38.03759" lon="15.8125867"><ele>888.0</ele><time>2026-04-24T10:28:40.365Z</time></trkpt><trkpt lat="38.0376483" lon="15.8126567"><ele>888.0</ele><time>2026-04-24T10:28:41.365Z</time></trkpt><trkpt lat="38.03772" lon="15.8126933"><ele>888.0</ele><time>2026-04-24T10:28:42.365Z</time></trkpt><trkpt lat="38.0378" lon="15.812695"><ele>885.3333333333334</ele><time>2026-04-24T10:28:43.366Z</time></trkpt><trkpt lat="38.037885" lon="15.812665"><ele>882.6666666666667</ele><time>2026-04-24T10:28:44.365Z</time></trkpt><trkpt lat="38.0379683" lon="15.81259"><ele>880.0</ele><time>2026-04-24T10:28:45.366Z</time></trkpt><trkpt lat="38.0380417" lon="15.812525"><ele>877.3333333333334</ele><time>2026-04-24T10:28:46.365Z</time></trkpt><trkpt lat="38.0381167" lon="15.8124967"><ele>874.6666666666667</ele><time>2026-04-24T10:28:47.365Z</time></trkpt><trkpt lat="38.0382" lon="15.8125033"><ele>872.0</ele><time>2026-04-24T10:28:48.366Z</time></trkpt><trkpt lat="38.038285" lon="15.8125283"><ele>882.8</ele><time>2026-04-24T10:28:49.365Z</time></trkpt><trkpt lat="38.038365" lon="15.8125583"><ele>893.6</ele><time>2026-04-24T10:28:50.365Z</time></trkpt><trkpt lat="38.0384533" lon="15.8125817"><ele>904.3999999999999</ele><time>2026-04-24T10:28:51.365Z</time></trkpt><trkpt lat="38.03854" lon="15.812605"><ele>915.1999999999999</ele><time>2026-04-24T10:28:52.366Z</time></trkpt><trkpt lat="38.0386383" lon="15.812625"><ele>926.0</ele><time>2026-04-24T10:28:53.366Z</time></trkpt><trkpt lat="38.0387367" lon="15.8126483"><ele>918.5</ele><time>2026-04-24T10:28:54.365Z</time></trkpt><trkpt lat="38.0388433" lon="15.81268"><ele>911.0</ele><time>2026-04-24T10:28:55.365Z</time></trkpt><trkpt lat="38.038955" lon="15.8127033"><ele>903.5</ele><time>2026-04-24T10:28:56.366Z</time></trkpt><trkpt lat="38.0390667" lon="15.8127367"><ele>896.0</ele><time>2026-04-24T10:28:57.365Z</time></trkpt><trkpt lat="38.0391867" lon="15.8127633"><ele>896.0</ele><time>2026-04-24T10:28:58.366Z</time></trkpt><trkpt lat="38.0392983" lon="15.8128117"><ele>895.9999999999999</ele><time>2026-04-24T10:28:59.365Z</time></trkpt><trkpt lat="38.0394133" lon="15.81285"><ele>895.9999999999999</ele><time>2026-04-24T10:29:00.365Z</time></trkpt><trkpt lat="38.0395083" lon="15.8128983"><ele>896.0</ele><time>2026-04-24T10:29:01.366Z</time></trkpt><trkpt lat="38.03959" lon="15.8129567"><ele>896.0</ele><time>2026-04-24T10:29:02.365Z</time></trkpt><trkpt lat="38.0396567" lon="15.813025"><ele>896.0</ele><time>2026-04-24T10:29:03.366Z</time></trkpt><trkpt lat="38.039705" lon="15.8130967"><ele>895.9999999999999</ele><time>2026-04-24T10:29:04.366Z</time></trkpt><trkpt lat="38.039805" lon="15.8131383"><ele>895.9999999999999</ele><time>2026-04-24T10:29:06.365Z</time></trkpt><trkpt lat="38.039845" lon="15.813055"><ele>896.0</ele><time>2026-04-24T10:29:08.365Z</time></trkpt><trkpt lat="38.03975" lon="15.81291"><ele>896.0</ele><time>2026-04-24T10:29:10.365Z</time></trkpt><trkpt lat="38.0396483" lon="15.8128417"><ele>896.0</ele><time>2026-04-24T10:29:11.365Z</time></trkpt><trkpt lat="38.03953" lon="15.81278"><ele>896.0</ele><time>2026-04-24T10:29:12.366Z</time></trkpt><trkpt lat="38.0394133" lon="15.8127183"><ele>896.0</ele><time>2026-04-24T10:29:13.365Z</time></trkpt><trkpt lat="38.039315" lon="15.8126667"><ele>896.0</ele><time>2026-04-24T10:29:14.366Z</time></trkpt><trkpt lat="38.0392083" lon="15.8126283"><ele>902.0</ele><time>2026-04-24T10:29:15.365Z</time></trkpt><trkpt lat="38.0390967" lon="15.8125917"><ele>907.9999999999999</ele><time>2026-04-24T10:29:16.365Z</time></trkpt><trkpt lat="38.038985" lon="15.8125567"><ele>913.9999999999999</ele><time>2026-04-24T10:29:17.365Z</time></trkpt><trkpt lat="38.0388783" lon="15.8125167"><ele>920.0</ele><time>2026-04-24T10:29:18.366Z</time></trkpt><trkpt lat="38.0387817" lon="15.8124717"><ele>926.0</ele><time>2026-04-24T10:29:19.365Z</time></trkpt><trkpt lat="38.0386883" lon="15.81241"><ele>926.0</ele><time>2026-04-24T10:29:20.366Z</time></trkpt><trkpt lat="38.0385967" lon="15.8123617"><ele>925.9999999999999</ele><time>2026-04-24T10:29:21.365Z</time></trkpt><trkpt lat="38.038505" lon="15.8123283"><ele>925.9999999999999</ele><time>2026-04-24T10:29:22.365Z</time></trkpt><trkpt lat="38.03841" lon="15.8123"><ele>926.0</ele><time>2026-04-24T10:29:23.366Z</time></trkpt><trkpt lat="38.03832" lon="15.812265"><ele>926.0</ele><time>2026-04-24T10:29:24.366Z</time></trkpt><trkpt lat="38.0382483" lon="15.8122"><ele>923.5000000000001</ele><time>2026-04-24T10:29:25.365Z</time></trkpt><trkpt lat="38.03818" lon="15.8121467"><ele>921.0</ele><time>2026-04-24T10:29:26.366Z</time></trkpt><trkpt lat="38.0381033" lon="15.8121133"><ele>918.5</ele><time>2026-04-24T10:29:27.366Z</time></trkpt><trkpt lat="38.0380267" lon="15.8121133"><ele>916.0</ele><time>2026-04-24T10:29:28.366Z</time></trkpt><trkpt lat="38.0379567" lon="15.81214"><ele>913.5000000000001</ele><time>2026-04-24T10:29:29.365Z</time></trkpt><trkpt lat="38.037875" lon="15.8121533"><ele>911.0</ele><time>2026-04-24T10:29:30.366Z</time></trkpt><trkpt lat="38.037795" lon="15.8121533"><ele>911.0</ele><time>2026-04-24T10:29:31.365Z</time></trkpt><trkpt lat="38.0377117" lon="15.8121183"><ele>910.9999999999999</ele><time>2026-04-24T10:29:32.366Z</time></trkpt><trkpt lat="38.0376367" lon="15.8120517"><ele>910.9999999999999</ele><time>2026-04-24T10:29:33.366Z</time></trkpt><trkpt lat="38.0375583" lon="15.81197"><ele>911.0</ele><time>2026-04-24T10:29:34.365Z</time></trkpt><trkpt lat="38.0374733" lon="15.8118783"><ele>911.0</ele><time>2026-04-24T10:29:35.366Z</time></trkpt><trkpt lat="38.03739" lon="15.8117733"><ele>910.8</ele><time>2026-04-24T10:29:36.365Z</time></trkpt><trkpt lat="38.037315" lon="15.81166"><ele>910.5999999999999</ele><time>2026-04-24T10:29:37.365Z</time></trkpt><trkpt lat="38.0372567" lon="15.8115483"><ele>910.4</ele><time>2026-04-24T10:29:38.366Z</time></trkpt><trkpt lat="38.0372133" lon="15.811435"><ele>910.2</ele><time>2026-04-24T10:29:39.365Z</time></trkpt><trkpt lat="38.03719" lon="15.8113167"><ele>910.0</ele><time>2026-04-24T10:29:40.365Z</time></trkpt><trkpt lat="38.0371767" lon="15.8111933"><ele>910.0</ele><time>2026-04-24T10:29:41.366Z</time></trkpt><trkpt lat="38.0371633" lon="15.811065"><ele>910.0</ele><time>2026-04-24T10:29:42.365Z</time></trkpt><trkpt lat="38.037145" lon="15.8109367"><ele>910.0</ele><time>2026-04-24T10:29:43.366Z</time></trkpt><trkpt lat="38.037115" lon="15.8108167"><ele>910.0</ele><time>2026-04-24T10:29:44.365Z</time></trkpt><trkpt lat="38.0370483" lon="15.8107267"><ele>910.0</ele><time>2026-04-24T10:29:45.365Z</time></trkpt><trkpt lat="38.0369583" lon="15.8106583"><ele>915.6</ele><time>2026-04-24T10:29:46.365Z</time></trkpt><trkpt lat="38.0368717" lon="15.8105983"><ele>921.2</ele><time>2026-04-24T10:29:47.366Z</time></trkpt><trkpt lat="38.0367967" lon="15.8105217"><ele>926.8</ele><time>2026-04-24T10:29:48.365Z</time></trkpt><trkpt lat="38.0367567" lon="15.81042"><ele>932.4</ele><time>2026-04-24T10:29:49.365Z</time></trkpt><trkpt lat="38.0367317" lon="15.8103"><ele>938.0</ele><time>2026-04-24T10:29:50.366Z</time></trkpt><trkpt lat="38.0366967" lon="15.8101817"><ele>935.4</ele><time>2026-04-24T10:29:51.365Z</time></trkpt><trkpt lat="38.0366467" lon="15.8100633"><ele>932.8</ele><time>2026-04-24T10:29:52.366Z</time></trkpt><trkpt lat="38.036585" lon="15.8099517"><ele>930.2</ele><time>2026-04-24T10:29:53.365Z</time></trkpt><trkpt lat="38.0365117" lon="15.8098417"><ele>927.6</ele><time>2026-04-24T10:29:54.366Z</time></trkpt><trkpt lat="38.03643" lon="15.8097417"><ele>925.0</ele><time>2026-04-24T10:29:55.365Z</time></trkpt><trkpt lat="38.0363383" lon="15.8096667"><ele>924.9999999999999</ele><time>2026-04-24T10:29:56.365Z</time></trkpt><trkpt lat="38.03626" lon="15.809615"><ele>925.0</ele><time>2026-04-24T10:29:57.365Z</time></trkpt><trkpt lat="38.03617" lon="15.8095733"><ele>925.0</ele><time>2026-04-24T10:29:58.365Z</time></trkpt><trkpt lat="38.0361" lon="15.8095367"><ele>925.0</ele><time>2026-04-24T10:29:59.365Z</time></trkpt><trkpt lat="38.0360483" lon="15.8094783"><ele>924.9999999999999</ele><time>2026-04-24T10:30:00.365Z</time></trkpt><trkpt lat="38.036035" lon="15.80936"><ele>925.0</ele><time>2026-04-24T10:30:02.365Z</time></trkpt><trkpt lat="38.0361683" lon="15.8093417"><ele>925.0</ele><time>2026-04-24T10:30:04.366Z</time></trkpt><trkpt lat="38.036265" lon="15.8093917"><ele>925.0</ele><time>2026-04-24T10:30:05.365Z</time></trkpt><trkpt lat="38.0363517" lon="15.809465"><ele>925.0</ele><time>2026-04-24T10:30:06.365Z</time></trkpt><trkpt lat="38.0364333" lon="15.8095417"><ele>925.0</ele><time>2026-04-24T10:30:07.365Z</time></trkpt><trkpt lat="38.0365183" lon="15.809615"><ele>925.0</ele><time>2026-04-24T10:30:08.365Z</time></trkpt><trkpt lat="38.0365967" lon="15.8097017"><ele>928.25</ele><time>2026-04-24T10:30:09.365Z</time></trkpt><trkpt lat="38.0366833" lon="15.8098067"><ele>931.5</ele><time>2026-04-24T10:30:10.365Z</time></trkpt><trkpt lat="38.0367667" lon="15.809925"><ele>934.75</ele><time>2026-04-24T10:30:11.365Z</time></trkpt><trkpt lat="38.0368517" lon="15.810055"><ele>938.0</ele><time>2026-04-24T10:30:12.366Z</time></trkpt><trkpt lat="38.03694" lon="15.81017"><ele>938.0</ele><time>2026-04-24T10:30:13.365Z</time></trkpt><trkpt lat="38.0370367" lon="15.8102933"><ele>938.0</ele><time>2026-04-24T10:30:14.365Z</time></trkpt><trkpt lat="38.0371267" lon="15.8104117"><ele>938.0</ele><time>2026-04-24T10:30:15.366Z</time></trkpt><trkpt lat="38.037225" lon="15.8105017"><ele>938.0</ele><time>2026-04-24T10:30:16.365Z</time></trkpt><trkpt lat="38.0373367" lon="15.8105867"><ele>938.0</ele><time>2026-04-24T10:30:17.365Z</time></trkpt><trkpt lat="38.03744" lon="15.810675"><ele>938.0</ele><time>2026-04-24T10:30:18.365Z</time></trkpt><trkpt lat="38.0375267" lon="15.8107867"><ele>938.0</ele><time>2026-04-24T10:30:19.366Z</time></trkpt><trkpt lat="38.0375933" lon="15.81092"><ele>938.0</ele><time>2026-04-24T10:30:20.366Z</time></trkpt><trkpt lat="38.03765" lon="15.811055"><ele>940.5</ele><time>2026-04-24T10:30:21.366Z</time></trkpt><trkpt lat="38.0377183" lon="15.8111717"><ele>943.0</ele><time>2026-04-24T10:30:22.366Z</time></trkpt><trkpt lat="38.0378117" lon="15.8112383"><ele>945.5</ele><time>2026-04-24T10:30:23.365Z</time></trkpt><trkpt lat="38.0379283" lon="15.81126"><ele>948.0</ele><time>2026-04-24T10:30:24.365Z</time></trkpt><trkpt lat="38.0380567" lon="15.8112483"><ele>948.0</ele><time>2026-04-24T10:30:25.366Z</time></trkpt><trkpt lat="38.0382" lon="15.8112283"><ele>948.0</ele><time>2026-04-24T10:30:26.366Z</time></trkpt><trkpt lat="38.0383483" lon="15.8112167"><ele>948.0</ele><time>2026-04-24T10:30:27.365Z</time></trkpt><trkpt lat="38.0384983" lon="15.8112067"><ele>948.0</ele><time>2026-04-24T10:30:28.365Z</time></trkpt><trkpt lat="38.0386467" lon="15.811195"><ele>953.5</ele><time>2026-04-24T10:30:29.365Z</time></trkpt><trkpt lat="38.03879" lon="15.8111833"><ele>959.0</ele><time>2026-04-24T10:30:30.365Z</time></trkpt><trkpt lat="38.0389383" lon="15.8111517"><ele>964.5</ele><time>2026-04-24T10:30:31.365Z</time></trkpt><trkpt lat="38.03908" lon="15.8111117"><ele>970.0</ele><time>2026-04-24T10:30:32.365Z</time></trkpt><trkpt lat="38.0392183" lon="15.8110683"><ele>973.25</ele><time>2026-04-24T10:30:33.366Z</time></trkpt><trkpt lat="38.0393617" lon="15.8110367"><ele>976.5</ele><time>2026-04-24T10:30:34.366Z</time></trkpt><trkpt lat="38.03951" lon="15.8110233"><ele>979.75</ele><time>2026-04-24T10:30:35.365Z</time></trkpt><trkpt lat="38.0396633" lon="15.81102"><ele>983.0</ele><time>2026-04-24T10:30:36.365Z</time></trkpt><trkpt lat="38.039805" lon="15.811035"><ele>983.0</ele><time>2026-04-24T10:30:37.365Z</time></trkpt><trkpt lat="38.0399283" lon="15.811055"><ele>983.0</ele><time>2026-04-24T10:30:38.366Z</time></trkpt><trkpt lat="38.0400533" lon="15.8111033"><ele>983.0</ele><time>2026-04-24T10:30:39.365Z</time></trkpt><trkpt lat="38.040165" lon="15.81119"><ele>983.0</ele><time>2026-04-24T10:30:40.366Z</time></trkpt><trkpt lat="38.0402617" lon="15.8112833"><ele>986.0</ele><time>2026-04-24T10:30:41.366Z</time></trkpt><trkpt lat="38.0403483" lon="15.8113633"><ele>989.0</ele><time>2026-04-24T10:30:42.365Z</time></trkpt><trkpt lat="38.040455" lon="15.8114083"><ele>992.0</ele><time>2026-04-24T10:30:43.366Z</time></trkpt><trkpt lat="38.04057" lon="15.8114317"><ele>995.0</ele><time>2026-04-24T10:30:44.365Z</time></trkpt><trkpt lat="38.0407083" lon="15.8114267"><ele>996.0</ele><time>2026-04-24T10:30:45.365Z</time></trkpt><trkpt lat="38.0408467" lon="15.8114267"><ele>997.0</ele><time>2026-04-24T10:30:46.366Z</time></trkpt><trkpt lat="38.04098" lon="15.8114467"><ele>998.0</ele><time>2026-04-24T10:30:47.365Z</time></trkpt><trkpt lat="38.04111" lon="15.8114817"><ele>999.0</ele><time>2026-04-24T10:30:48.366Z</time></trkpt><trkpt lat="38.0412483" lon="15.8115167"><ele>999.0</ele><time>2026-04-24T10:30:49.366Z</time></trkpt><trkpt lat="38.0413917" lon="15.8115433"><ele>999.0</ele><time>2026-04-24T10:30:50.365Z</time></trkpt><trkpt lat="38.0415233" lon="15.8115283"><ele>999.0</ele><time>2026-04-24T10:30:51.366Z</time></trkpt><trkpt lat="38.0416233" lon="15.81149"><ele>999.0</ele><time>2026-04-24T10:30:52.366Z</time></trkpt><trkpt lat="38.0417" lon="15.8114083"><ele>1000.75</ele><time>2026-04-24T10:30:53.365Z</time></trkpt><trkpt lat="38.0417283" lon="15.8113017"><ele>1002.5</ele><time>2026-04-24T10:30:54.365Z</time></trkpt><trkpt lat="38.0417133" lon="15.811165"><ele>1004.25</ele><time>2026-04-24T10:30:55.365Z</time></trkpt><trkpt lat="38.0416683" lon="15.8110067"><ele>1006.0</ele><time>2026-04-24T10:30:56.366Z</time></trkpt><trkpt lat="38.04164" lon="15.8108283"><ele>998.5</ele><time>2026-04-24T10:30:57.365Z</time></trkpt><trkpt lat="38.04162" lon="15.8106467"><ele>991.0</ele><time>2026-04-24T10:30:58.365Z</time></trkpt><trkpt lat="38.0415833" lon="15.8104633"><ele>983.5</ele><time>2026-04-24T10:30:59.366Z</time></trkpt><trkpt lat="38.0415433" lon="15.8103"><ele>976.0</ele><time>2026-04-24T10:31:00.365Z</time></trkpt><trkpt lat="38.0414867" lon="15.8101533"><ele>975.8333333333333</ele><time>2026-04-24T10:31:01.366Z</time></trkpt><trkpt lat="38.0414717" lon="15.810015"><ele>975.6666666666666</ele><time>2026-04-24T10:31:02.366Z</time></trkpt><trkpt lat="38.0414867" lon="15.8098983"><ele>975.5</ele><time>2026-04-24T10:31:03.365Z</time></trkpt><trkpt lat="38.041525" lon="15.8098183"><ele>975.3333333333333</ele><time>2026-04-24T10:31:04.365Z</time></trkpt><trkpt lat="38.0415817" lon="15.8097733"><ele>975.1666666666666</ele><time>2026-04-24T10:31:05.365Z</time></trkpt><trkpt lat="38.0416533" lon="15.8097817"><ele>975.0</ele><time>2026-04-24T10:31:06.365Z</time></trkpt><trkpt lat="38.0417317" lon="15.8098417"><ele>982.0</ele><time>2026-04-24T10:31:07.366Z</time></trkpt><trkpt lat="38.0418117" lon="15.8099433"><ele>989.0</ele><time>2026-04-24T10:31:08.365Z</time></trkpt><trkpt lat="38.0419" lon="15.81005"><ele>996.0</ele><time>2026-04-24T10:31:09.366Z</time></trkpt><trkpt lat="38.041995" lon="15.8101533"><ele>1003.0</ele><time>2026-04-24T10:31:10.365Z</time></trkpt><trkpt lat="38.0420833" lon="15.8102517"><ele>1003.75</ele><time>2026-04-24T10:31:11.365Z</time></trkpt><trkpt lat="38.0421633" lon="15.81034"><ele>1004.5</ele><time>2026-04-24T10:31:12.366Z</time></trkpt><trkpt lat="38.0422517" lon="15.8103883"><ele>1005.25</ele><time>2026-04-24T10:31:13.365Z</time></trkpt><trkpt lat="38.04237" lon="15.8103967"><ele>1006.0</ele><time>2026-04-24T10:31:14.366Z</time></trkpt><trkpt lat="38.0425" lon="15.8103867"><ele>1005.25</ele><time>2026-04-24T10:31:15.365Z</time></trkpt><trkpt lat="38.0426467" lon="15.8103533"><ele>1004.5</ele><time>2026-04-24T10:31:16.365Z</time></trkpt><trkpt lat="38.042785" lon="15.81029"><ele>1003.75</ele><time>2026-04-24T10:31:17.366Z</time></trkpt><trkpt lat="38.04291" lon="15.810215"><ele>1003.0</ele><time>2026-04-24T10:31:18.366Z</time></trkpt><trkpt lat="38.0430233" lon="15.8101517"><ele>1003.0</ele><time>2026-04-24T10:31:19.365Z</time></trkpt><trkpt lat="38.0431267" lon="15.8101233"><ele>1003.0</ele><time>2026-04-24T10:31:20.366Z</time></trkpt><trkpt lat="38.0432483" lon="15.8101267"><ele>1003.0</ele><time>2026-04-24T10:31:21.365Z</time></trkpt><trkpt lat="38.0433733" lon="15.8101367"><ele>1003.0</ele><time>2026-04-24T10:31:22.365Z</time></trkpt><trkpt lat="38.0435" lon="15.810135"><ele>1005.5</ele><time>2026-04-24T10:31:23.365Z</time></trkpt><trkpt lat="38.04362" lon="15.8101217"><ele>1008.0</ele><time>2026-04-24T10:31:24.366Z</time></trkpt><trkpt lat="38.0437433" lon="15.8101217"><ele>1010.5</ele><time>2026-04-24T10:31:25.366Z</time></trkpt><trkpt lat="38.0438633" lon="15.8101433"><ele>1013.0</ele><time>2026-04-24T10:31:26.365Z</time></trkpt><trkpt lat="38.0439833" lon="15.8101967"><ele>1016.5</ele><time>2026-04-24T10:31:27.366Z</time></trkpt><trkpt lat="38.044095" lon="15.8102717"><ele>1020.0</ele><time>2026-04-24T10:31:28.365Z</time></trkpt><trkpt lat="38.0442067" lon="15.8103533"><ele>1023.5</ele><time>2026-04-24T10:31:29.365Z</time></trkpt><trkpt lat="38.0443233" lon="15.8104267"><ele>1027.0</ele><time>2026-04-24T10:31:30.365Z</time></trkpt><trkpt lat="38.0444417" lon="15.8105033"><ele>1029.5</ele><time>2026-04-24T10:31:31.365Z</time></trkpt><trkpt lat="38.0445633" lon="15.8105733"><ele>1032.0</ele><time>2026-04-24T10:31:32.366Z</time></trkpt><trkpt lat="38.04468" lon="15.810635"><ele>1034.5</ele><time>2026-04-24T10:31:33.366Z</time></trkpt><trkpt lat="38.0448017" lon="15.810675"><ele>1037.0</ele><time>2026-04-24T10:31:34.365Z</time></trkpt><trkpt lat="38.04493" lon="15.8107117"><ele>1037.75</ele><time>2026-04-24T10:31:35.366Z</time></trkpt><trkpt lat="38.0450583" lon="15.8107483"><ele>1038.5</ele><time>2026-04-24T10:31:36.365Z</time></trkpt><trkpt lat="38.0451867" lon="15.8107767"><ele>1039.25</ele><time>2026-04-24T10:31:37.366Z</time></trkpt><trkpt lat="38.04531" lon="15.8107983"><ele>1040.0</ele><time>2026-04-24T10:31:38.366Z</time></trkpt><trkpt lat="38.0454183" lon="15.8108133"><ele>1040.0</ele><time>2026-04-24T10:31:39.365Z</time></trkpt><trkpt lat="38.0455217" lon="15.8107833"><ele>1040.0</ele><time>2026-04-24T10:31:40.365Z</time></trkpt><trkpt lat="38.04562" lon="15.8107283"><ele>1040.0</ele><time>2026-04-24T10:31:41.365Z</time></trkpt><trkpt lat="38.0457217" lon="15.8106517"><ele>1040.0</ele><time>2026-04-24T10:31:42.366Z</time></trkpt><trkpt lat="38.0458267" lon="15.8105917"><ele>1040.0</ele><time>2026-04-24T10:31:43.366Z</time></trkpt><trkpt lat="38.0459333" lon="15.8105467"><ele>1040.6</ele><time>2026-04-24T10:31:44.365Z</time></trkpt><trkpt lat="38.0460433" lon="15.81051"><ele>1041.2</ele><time>2026-04-24T10:31:45.366Z</time></trkpt><trkpt lat="38.0461533" lon="15.8105133"><ele>1041.8</ele><time>2026-04-24T10:31:46.365Z</time></trkpt><trkpt lat="38.0462567" lon="15.8105583"><ele>1042.4</ele><time>2026-04-24T10:31:47.366Z</time></trkpt><trkpt lat="38.0463483" lon="15.8106383"><ele>1043.0</ele><time>2026-04-24T10:31:48.365Z</time></trkpt><trkpt lat="38.0464317" lon="15.8107333"><ele>1043.0</ele><time>2026-04-24T10:31:49.366Z</time></trkpt><trkpt lat="38.0465233" lon="15.8107883"><ele>1043.0</ele><time>2026-04-24T10:31:50.366Z</time></trkpt><trkpt lat="38.0466133" lon="15.8107867"><ele>1043.0</ele><time>2026-04-24T10:31:51.365Z</time></trkpt><trkpt lat="38.0466933" lon="15.8107283"><ele>1043.0</ele><time>2026-04-24T10:31:52.366Z</time></trkpt><trkpt lat="38.046745" lon="15.81063"><ele>1043.0</ele><time>2026-04-24T10:31:53.365Z</time></trkpt><trkpt lat="38.0467817" lon="15.81052"><ele>1043.5</ele><time>2026-04-24T10:31:54.365Z</time></trkpt><trkpt lat="38.04682" lon="15.8104317"><ele>1044.0</ele><time>2026-04-24T10:31:55.365Z</time></trkpt><trkpt lat="38.046875" lon="15.8103783"><ele>1044.5</ele><time>2026-04-24T10:31:56.366Z</time></trkpt><trkpt lat="38.0469483" lon="15.8103783"><ele>1045.0</ele><time>2026-04-24T10:31:57.365Z</time></trkpt><trkpt lat="38.047025" lon="15.8104367"><ele>1045.5</ele><time>2026-04-24T10:31:58.366Z</time></trkpt><trkpt lat="38.0471167" lon="15.81054"><ele>1046.0</ele><time>2026-04-24T10:31:59.366Z</time></trkpt><trkpt lat="38.0472083" lon="15.81065"><ele>1046.0</ele><time>2026-04-24T10:32:00.366Z</time></trkpt><trkpt lat="38.0473" lon="15.8107583"><ele>1046.0</ele><time>2026-04-24T10:32:01.366Z</time></trkpt><trkpt lat="38.0473833" lon="15.8108817"><ele>1046.0</ele><time>2026-04-24T10:32:02.365Z</time></trkpt><trkpt lat="38.0474667" lon="15.8110117"><ele>1046.0</ele><time>2026-04-24T10:32:03.365Z</time></trkpt><trkpt lat="38.0475517" lon="15.8111233"><ele>1050.25</ele><time>2026-04-24T10:32:04.366Z</time></trkpt><trkpt lat="38.0476483" lon="15.811185"><ele>1054.5</ele><time>2026-04-24T10:32:05.366Z</time></trkpt><trkpt lat="38.0477567" lon="15.8111933"><ele>1058.75</ele><time>2026-04-24T10:32:06.366Z</time></trkpt><trkpt lat="38.04787" lon="15.81116"><ele>1063.0</ele><time>2026-04-24T10:32:07.365Z</time></trkpt><trkpt lat="38.04798" lon="15.8110983"><ele>1063.0</ele><time>2026-04-24T10:32:08.365Z</time></trkpt><trkpt lat="38.048085" lon="15.8110133"><ele>1063.0</ele><time>2026-04-24T10:32:09.366Z</time></trkpt><trkpt lat="38.0482" lon="15.8109167"><ele>1063.0</ele><time>2026-04-24T10:32:10.366Z</time></trkpt><trkpt lat="38.0483083" lon="15.8108183"><ele>1063.0</ele><time>2026-04-24T10:32:11.366Z</time></trkpt><trkpt lat="38.0484267" lon="15.8107183"><ele>1062.75</ele><time>2026-04-24T10:32:12.365Z</time></trkpt><trkpt lat="38.048545" lon="15.8106183"><ele>1062.5</ele><time>2026-04-24T10:32:13.365Z</time></trkpt><trkpt lat="38.0486617" lon="15.810525"><ele>1062.25</ele><time>2026-04-24T10:32:14.365Z</time></trkpt><trkpt lat="38.048775" lon="15.8104417"><ele>1062.0</ele><time>2026-04-24T10:32:15.366Z</time></trkpt><trkpt lat="38.048895" lon="15.810375"><ele>1062.0</ele><time>2026-04-24T10:32:16.366Z</time></trkpt><trkpt lat="38.0490133" lon="15.810325"><ele>1062.0</ele><time>2026-04-24T10:32:17.365Z</time></trkpt><trkpt lat="38.0491367" lon="15.810295"><ele>1062.0</ele><time>2026-04-24T10:32:18.366Z</time></trkpt><trkpt lat="38.04927" lon="15.810265"><ele>1062.0</ele><time>2026-04-24T10:32:19.365Z</time></trkpt><trkpt lat="38.049405" lon="15.8102367"><ele>1062.75</ele><time>2026-04-24T10:32:20.365Z</time></trkpt><trkpt lat="38.049535" lon="15.8102083"><ele>1063.5</ele><time>2026-04-24T10:32:21.365Z</time></trkpt><trkpt lat="38.049655" lon="15.810185"><ele>1064.25</ele><time>2026-04-24T10:32:22.366Z</time></trkpt><trkpt lat="38.049765" lon="15.81015"><ele>1065.0</ele><time>2026-04-24T10:32:23.365Z</time></trkpt><trkpt lat="38.0498667" lon="15.8101017"><ele>1065.0</ele><time>2026-04-24T10:32:24.366Z</time></trkpt><trkpt lat="38.0499567" lon="15.8100467"><ele>1065.0</ele><time>2026-04-24T10:32:25.365Z</time></trkpt><trkpt lat="38.0500433" lon="15.8099617"><ele>1065.0</ele><time>2026-04-24T10:32:26.366Z</time></trkpt><trkpt lat="38.0501267" lon="15.8098717"><ele>1065.0</ele><time>2026-04-24T10:32:27.366Z</time></trkpt><trkpt lat="38.05021" lon="15.809775"><ele>1065.0</ele><time>2026-04-24T10:32:28.365Z</time></trkpt><trkpt lat="38.05029" lon="15.8096783"><ele>1066.8</ele><time>2026-04-24T10:32:29.366Z</time></trkpt><trkpt lat="38.0503667" lon="15.8095867"><ele>1068.6</ele><time>2026-04-24T10:32:30.366Z</time></trkpt><trkpt lat="38.0504517" lon="15.8095017"><ele>1070.4</ele><time>2026-04-24T10:32:31.366Z</time></trkpt><trkpt lat="38.0505483" lon="15.80946"><ele>1072.2</ele><time>2026-04-24T10:32:32.365Z</time></trkpt><trkpt lat="38.050645" lon="15.8094583"><ele>1074.0</ele><time>2026-04-24T10:32:33.365Z</time></trkpt><trkpt lat="38.0507517" lon="15.80949"><ele>1076.0</ele><time>2026-04-24T10:32:34.366Z</time></trkpt><trkpt lat="38.0508583" lon="15.8095367"><ele>1078.0</ele><time>2026-04-24T10:32:35.365Z</time></trkpt><trkpt lat="38.0509733" lon="15.8095783"><ele>1080.0</ele><time>2026-04-24T10:32:36.365Z</time></trkpt><trkpt lat="38.0510967" lon="15.809615"><ele>1082.0</ele><time>2026-04-24T10:32:37.366Z</time></trkpt><trkpt lat="38.0512183" lon="15.8096483"><ele>1082.0</ele><time>2026-04-24T10:32:38.366Z</time></trkpt><trkpt lat="38.0513367" lon="15.8096933"><ele>1082.0</ele><time>2026-04-24T10:32:39.365Z</time></trkpt><trkpt lat="38.0514533" lon="15.8097417"><ele>1082.0</ele><time>2026-04-24T10:32:40.366Z</time></trkpt><trkpt lat="38.051595" lon="15.8097917"><ele>1082.0</ele><time>2026-04-24T10:32:41.366Z</time></trkpt><trkpt lat="38.0517333" lon="15.80984"><ele>1083.3333333333335</ele><time>2026-04-24T10:32:42.366Z</time></trkpt><trkpt lat="38.0518783" lon="15.8099067"><ele>1084.6666666666667</ele><time>2026-04-24T10:32:43.365Z</time></trkpt><trkpt lat="38.0520283" lon="15.809985"><ele>1086.0</ele><time>2026-04-24T10:32:44.366Z</time></trkpt><trkpt lat="38.0521683" lon="15.8100667"><ele>1086.0</ele><time>2026-04-24T10:32:45.365Z</time></trkpt><trkpt lat="38.0523" lon="15.8101533"><ele>1086.0</ele><time>2026-04-24T10:32:46.365Z</time></trkpt><trkpt lat="38.052425" lon="15.8102317"><ele>1086.0</ele><time>2026-04-24T10:32:47.365Z</time></trkpt><trkpt lat="38.0525617" lon="15.8103"><ele>1086.0</ele><time>2026-04-24T10:32:48.366Z</time></trkpt><trkpt lat="38.0527033" lon="15.8103367"><ele>1088.25</ele><time>2026-04-24T10:32:49.366Z</time></trkpt><trkpt lat="38.0528433" lon="15.8103283"><ele>1090.5</ele><time>2026-04-24T10:32:50.366Z</time></trkpt><trkpt lat="38.0529883" lon="15.8102917"><ele>1092.75</ele><time>2026-04-24T10:32:51.365Z</time></trkpt><trkpt lat="38.0531217" lon="15.8102667"><ele>1095.0</ele><time>2026-04-24T10:32:52.366Z</time></trkpt><trkpt lat="38.0532417" lon="15.81026"><ele>1096.0</ele><time>2026-04-24T10:32:53.366Z</time></trkpt><trkpt lat="38.053345" lon="15.810285"><ele>1097.0</ele><time>2026-04-24T10:32:54.365Z</time></trkpt><trkpt lat="38.05344" lon="15.810355"><ele>1098.0</ele><time>2026-04-24T10:32:55.365Z</time></trkpt><trkpt lat="38.0535233" lon="15.8104633"><ele>1099.0</ele><time>2026-04-24T10:32:56.365Z</time></trkpt><trkpt lat="38.0535817" lon="15.8105683"><ele>1100.0</ele><time>2026-04-24T10:32:57.365Z</time></trkpt><trkpt lat="38.0536367" lon="15.8106633"><ele>1100.0</ele><time>2026-04-24T10:32:58.366Z</time></trkpt><trkpt lat="38.0536983" lon="15.8107533"><ele>1100.0</ele><time>2026-04-24T10:32:59.365Z</time></trkpt><trkpt lat="38.0537767" lon="15.810835"><ele>1100.0</ele><time>2026-04-24T10:33:00.366Z</time></trkpt><trkpt lat="38.0538717" lon="15.8109067"><ele>1100.0</ele><time>2026-04-24T10:33:01.365Z</time></trkpt><trkpt lat="38.053975" lon="15.8109883"><ele>1100.0</ele><time>2026-04-24T10:33:02.365Z</time></trkpt><trkpt lat="38.0540733" lon="15.811075"><ele>1102.0</ele><time>2026-04-24T10:33:03.365Z</time></trkpt><trkpt lat="38.0541767" lon="15.81117"><ele>1104.0</ele><time>2026-04-24T10:33:04.366Z</time></trkpt><trkpt lat="38.0542783" lon="15.8112617"><ele>1106.0</ele><time>2026-04-24T10:33:05.366Z</time></trkpt><trkpt lat="38.0543783" lon="15.8113533"><ele>1108.0</ele><time>2026-04-24T10:33:06.365Z</time></trkpt><trkpt lat="38.05448" lon="15.8114517"><ele>1108.0</ele><time>2026-04-24T10:33:07.365Z</time></trkpt><trkpt lat="38.05458" lon="15.8115367"><ele>1108.0</ele><time>2026-04-24T10:33:08.366Z</time></trkpt><trkpt lat="38.05468" lon="15.811605"><ele>1108.0</ele><time>2026-04-24T10:33:09.365Z</time></trkpt><trkpt lat="38.0547783" lon="15.8116567"><ele>1108.0</ele><time>2026-04-24T10:33:10.365Z</time></trkpt><trkpt lat="38.0548667" lon="15.8116967"><ele>1108.0</ele><time>2026-04-24T10:33:11.365Z</time></trkpt><trkpt lat="38.05494" lon="15.8117067"><ele>1109.1666666666665</ele><time>2026-04-24T10:33:12.366Z</time></trkpt><trkpt lat="38.055015" lon="15.8116833"><ele>1110.3333333333333</ele><time>2026-04-24T10:33:13.365Z</time></trkpt><trkpt lat="38.0550583" lon="15.8116117"><ele>1111.5</ele><time>2026-04-24T10:33:14.365Z</time></trkpt><trkpt lat="38.05508" lon="15.81151"><ele>1112.6666666666667</ele><time>2026-04-24T10:33:15.366Z</time></trkpt><trkpt lat="38.0550717" lon="15.8113933"><ele>1113.8333333333335</ele><time>2026-04-24T10:33:16.365Z</time></trkpt><trkpt lat="38.0550183" lon="15.8112667"><ele>1115.0</ele><time>2026-04-24T10:33:17.366Z</time></trkpt><trkpt lat="38.05496" lon="15.81114"><ele>1114.1666666666667</ele><time>2026-04-24T10:33:18.365Z</time></trkpt><trkpt lat="38.0549433" lon="15.8110333"><ele>1113.3333333333335</ele><time>2026-04-24T10:33:19.366Z</time></trkpt><trkpt lat="38.0549667" lon="15.81094"><ele>1112.5</ele><time>2026-04-24T10:33:20.366Z</time></trkpt><trkpt lat="38.0550167" lon="15.8108717"><ele>1111.6666666666667</ele><time>2026-04-24T10:33:21.365Z</time></trkpt><trkpt lat="38.0551067" lon="15.81082"><ele>1110.8333333333333</ele><time>2026-04-24T10:33:22.366Z</time></trkpt><trkpt lat="38.0551983" lon="15.8107567"><ele>1110.0</ele><time>2026-04-24T10:33:23.366Z</time></trkpt><trkpt lat="38.0552717" lon="15.8106533"><ele>1110.0</ele><time>2026-04-24T10:33:24.366Z</time></trkpt><trkpt lat="38.0553283" lon="15.81052"><ele>1110.0</ele><time>2026-04-24T10:33:25.365Z</time></trkpt><trkpt lat="38.055375" lon="15.8103967"><ele>1110.0</ele><time>2026-04-24T10:33:26.366Z</time></trkpt><trkpt lat="38.055445" lon="15.8102967"><ele>1110.0</ele><time>2026-04-24T10:33:27.366Z</time></trkpt><trkpt lat="38.0555433" lon="15.8102383"><ele>1110.0</ele><time>2026-04-24T10:33:28.365Z</time></trkpt><trkpt lat="38.05566" lon="15.8102333"><ele>1110.0</ele><time>2026-04-24T10:33:29.366Z</time></trkpt><trkpt lat="38.055785" lon="15.8102533"><ele>1110.0</ele><time>2026-04-24T10:33:30.366Z</time></trkpt><trkpt lat="38.0559017" lon="15.8102633"><ele>1110.0</ele><time>2026-04-24T10:33:31.365Z</time></trkpt><trkpt lat="38.0560017" lon="15.810245"><ele>1110.0</ele><time>2026-04-24T10:33:32.366Z</time></trkpt><trkpt lat="38.0560783" lon="15.810185"><ele>1110.0</ele><time>2026-04-24T10:33:33.366Z</time></trkpt><trkpt lat="38.0561317" lon="15.8101017"><ele>1112.0</ele><time>2026-04-24T10:33:34.366Z</time></trkpt><trkpt lat="38.0561583" lon="15.8100083"><ele>1114.0</ele><time>2026-04-24T10:33:35.365Z</time></trkpt><trkpt lat="38.056155" lon="15.8098967"><ele>1116.0</ele><time>2026-04-24T10:33:36.365Z</time></trkpt><trkpt lat="38.0561167" lon="15.80981"><ele>1118.0</ele><time>2026-04-24T10:33:37.366Z</time></trkpt><trkpt lat="38.056045" lon="15.8097467"><ele>1120.0</ele><time>2026-04-24T10:33:38.365Z</time></trkpt><trkpt lat="38.0559333" lon="15.80972"><ele>1122.0</ele><time>2026-04-24T10:33:39.366Z</time></trkpt><trkpt lat="38.05582" lon="15.809695"><ele>1120.8</ele><time>2026-04-24T10:33:40.366Z</time></trkpt><trkpt lat="38.0557183" lon="15.8096483"><ele>1119.6</ele><time>2026-04-24T10:33:41.366Z</time></trkpt><trkpt lat="38.0556467" lon="15.8095833"><ele>1118.3999999999999</ele><time>2026-04-24T10:33:42.366Z</time></trkpt><trkpt lat="38.05562" lon="15.8094917"><ele>1117.2</ele><time>2026-04-24T10:33:43.365Z</time></trkpt><trkpt lat="38.055675" lon="15.8093533"><ele>1116.0</ele><time>2026-04-24T10:33:45.365Z</time></trkpt><trkpt lat="38.05577" lon="15.809325"><ele>1117.5</ele><time>2026-04-24T10:33:46.365Z</time></trkpt><trkpt lat="38.0558717" lon="15.8093333"><ele>1119.0</ele><time>2026-04-24T10:33:47.365Z</time></trkpt><trkpt lat="38.0559883" lon="15.809365"><ele>1120.5</ele><time>2026-04-24T10:33:48.366Z</time></trkpt><trkpt lat="38.0561133" lon="15.8093767"><ele>1122.0</ele><time>2026-04-24T10:33:49.366Z</time></trkpt><trkpt lat="38.0562267" lon="15.8093433"><ele>1122.0</ele><time>2026-04-24T10:33:50.365Z</time></trkpt><trkpt lat="38.0563383" lon="15.8092617"><ele>1122.0</ele><time>2026-04-24T10:33:51.365Z</time></trkpt><trkpt lat="38.0564283" lon="15.8091367"><ele>1122.0</ele><time>2026-04-24T10:33:52.365Z</time></trkpt><trkpt lat="38.0565117" lon="15.809005"><ele>1122.0</ele><time>2026-04-24T10:33:53.365Z</time></trkpt><trkpt lat="38.0565717" lon="15.808875"><ele>1123.6</ele><time>2026-04-24T10:33:54.366Z</time></trkpt><trkpt lat="38.0566267" lon="15.8087533"><ele>1125.2</ele><time>2026-04-24T10:33:55.365Z</time></trkpt><trkpt lat="38.0566783" lon="15.8086333"><ele>1126.8</ele><time>2026-04-24T10:33:56.365Z</time></trkpt><trkpt lat="38.0567133" lon="15.8085083"><ele>1128.4</ele><time>2026-04-24T10:33:57.366Z</time></trkpt><trkpt lat="38.0567617" lon="15.808385"><ele>1130.0</ele><time>2026-04-24T10:33:58.366Z</time></trkpt><trkpt lat="38.0568217" lon="15.8082483"><ele>1130.0</ele><time>2026-04-24T10:33:59.366Z</time></trkpt><trkpt lat="38.0569017" lon="15.8081317"><ele>1130.0</ele><time>2026-04-24T10:34:00.365Z</time></trkpt><trkpt lat="38.057015" lon="15.8080217"><ele>1130.0</ele><time>2026-04-24T10:34:01.365Z</time></trkpt><trkpt lat="38.0571483" lon="15.8079283"><ele>1130.0</ele><time>2026-04-24T10:34:02.366Z</time></trkpt><trkpt lat="38.0572983" lon="15.8078433"><ele>1130.0</ele><time>2026-04-24T10:34:03.366Z</time></trkpt><trkpt lat="38.05744" lon="15.8077667"><ele>1130.0</ele><time>2026-04-24T10:34:04.365Z</time></trkpt><trkpt lat="38.0575967" lon="15.80769"><ele>1130.0</ele><time>2026-04-24T10:34:05.366Z</time></trkpt><trkpt lat="38.057755" lon="15.8076167"><ele>1132.3333333333335</ele><time>2026-04-24T10:34:06.365Z</time></trkpt><trkpt lat="38.05791" lon="15.80756"><ele>1134.6666666666667</ele><time>2026-04-24T10:34:07.365Z</time></trkpt><trkpt lat="38.05807" lon="15.80752"><ele>1137.0</ele><time>2026-04-24T10:34:08.366Z</time></trkpt><trkpt lat="38.0582367" lon="15.8074933"><ele>1138.6666666666667</ele><time>2026-04-24T10:34:09.366Z</time></trkpt><trkpt lat="38.058405" lon="15.8074717"><ele>1140.3333333333335</ele><time>2026-04-24T10:34:10.365Z</time></trkpt><trkpt lat="38.05858" lon="15.8074483"><ele>1142.0</ele><time>2026-04-24T10:34:11.365Z</time></trkpt><trkpt lat="38.05875" lon="15.8074283"><ele>1142.0</ele><time>2026-04-24T10:34:12.366Z</time></trkpt><trkpt lat="38.0589233" lon="15.80741"><ele>1142.0</ele><time>2026-04-24T10:34:13.365Z</time></trkpt><trkpt lat="38.0590967" lon="15.8073817"><ele>1142.0</ele><time>2026-04-24T10:34:14.366Z</time></trkpt><trkpt lat="38.0592633" lon="15.807355"><ele>1144.0</ele><time>2026-04-24T10:34:15.366Z</time></trkpt><trkpt lat="38.0594217" lon="15.8073333"><ele>1146.0</ele><time>2026-04-24T10:34:16.366Z</time></trkpt><trkpt lat="38.0595767" lon="15.8073267"><ele>1148.0</ele><time>2026-04-24T10:34:17.365Z</time></trkpt><trkpt lat="38.0597383" lon="15.8073433"><ele>1148.0</ele><time>2026-04-24T10:34:18.366Z</time></trkpt><trkpt lat="38.059895" lon="15.8073783"><ele>1148.0</ele><time>2026-04-24T10:34:19.365Z</time></trkpt><trkpt lat="38.0600533" lon="15.8074283"><ele>1148.0</ele><time>2026-04-24T10:34:20.365Z</time></trkpt><trkpt lat="38.0602133" lon="15.8074883"><ele>1149.0</ele><time>2026-04-24T10:34:21.365Z</time></trkpt><trkpt lat="38.0603633" lon="15.80756"><ele>1150.0</ele><time>2026-04-24T10:34:22.366Z</time></trkpt><trkpt lat="38.060515" lon="15.8076383"><ele>1151.0</ele><time>2026-04-24T10:34:23.365Z</time></trkpt><trkpt lat="38.06067" lon="15.8077233"><ele>1153.0</ele><time>2026-04-24T10:34:24.366Z</time></trkpt><trkpt lat="38.0608233" lon="15.8078217"><ele>1155.0</ele><time>2026-04-24T10:34:25.365Z</time></trkpt><trkpt lat="38.0609767" lon="15.8079333"><ele>1157.0</ele><time>2026-04-24T10:34:26.365Z</time></trkpt><trkpt lat="38.061125" lon="15.8080567"><ele>1157.0</ele><time>2026-04-24T10:34:27.365Z</time></trkpt><trkpt lat="38.0612767" lon="15.8082033"><ele>1157.0</ele><time>2026-04-24T10:34:28.366Z</time></trkpt><trkpt lat="38.0614333" lon="15.8083667"><ele>1157.0</ele><time>2026-04-24T10:34:29.366Z</time></trkpt><trkpt lat="38.061575" lon="15.8085367"><ele>1158.0</ele><time>2026-04-24T10:34:30.366Z</time></trkpt><trkpt lat="38.0616717" lon="15.8087167"><ele>1159.0</ele><time>2026-04-24T10:34:31.365Z</time></trkpt><trkpt lat="38.0617333" lon="15.8089033"><ele>1160.0</ele><time>2026-04-24T10:34:32.366Z</time></trkpt><trkpt lat="38.061755" lon="15.8091017"><ele>1160.0</ele><time>2026-04-24T10:34:33.366Z</time></trkpt><trkpt lat="38.0617483" lon="15.8093233"><ele>1160.0</ele><time>2026-04-24T10:34:34.365Z</time></trkpt><trkpt lat="38.061735" lon="15.809545"><ele>1160.0</ele><time>2026-04-24T10:34:35.365Z</time></trkpt><trkpt lat="38.0617283" lon="15.8097733"><ele>1161.0</ele><time>2026-04-24T10:34:36.365Z</time></trkpt><trkpt lat="38.0617433" lon="15.8100133"><ele>1162.0</ele><time>2026-04-24T10:34:37.366Z</time></trkpt><trkpt lat="38.0617667" lon="15.8102533"><ele>1163.0</ele><time>2026-04-24T10:34:38.365Z</time></trkpt><trkpt lat="38.061815" lon="15.8105083"><ele>1163.0</ele><time>2026-04-24T10:34:39.366Z</time></trkpt><trkpt lat="38.0618933" lon="15.8107733"><ele>1163.0</ele><time>2026-04-24T10:34:40.366Z</time></trkpt><trkpt lat="38.061985" lon="15.811055"><ele>1165.0</ele><time>2026-04-24T10:34:41.366Z</time></trkpt><trkpt lat="38.062085" lon="15.8113317"><ele>1167.0</ele><time>2026-04-24T10:34:42.365Z</time></trkpt><trkpt lat="38.0621867" lon="15.8115933"><ele>1167.0</ele><time>2026-04-24T10:34:43.365Z</time></trkpt><trkpt lat="38.06228" lon="15.811835"><ele>1167.0</ele><time>2026-04-24T10:34:44.366Z</time></trkpt><trkpt lat="38.062365" lon="15.8120633"><ele>1167.0</ele><time>2026-04-24T10:34:45.365Z</time></trkpt><trkpt lat="38.0624483" lon="15.8122783"><ele>1167.0</ele><time>2026-04-24T10:34:46.365Z</time></trkpt><trkpt lat="38.0625233" lon="15.81249"><ele>1167.0</ele><time>2026-04-24T10:34:47.365Z</time></trkpt><trkpt lat="38.0625983" lon="15.8127017"><ele>1167.0</ele><time>2026-04-24T10:34:48.365Z</time></trkpt><trkpt lat="38.0626883" lon="15.8129117"><ele>1168.0</ele><time>2026-04-24T10:34:49.365Z</time></trkpt><trkpt lat="38.06279" lon="15.813115"><ele>1169.0</ele><time>2026-04-24T10:34:50.366Z</time></trkpt><trkpt lat="38.062905" lon="15.8133033"><ele>1170.0</ele><time>2026-04-24T10:34:51.366Z</time></trkpt><trkpt lat="38.063035" lon="15.8134883"><ele>1170.0</ele><time>2026-04-24T10:34:52.365Z</time></trkpt><trkpt lat="38.063185" lon="15.81366"><ele>1170.0</ele><time>2026-04-24T10:34:53.365Z</time></trkpt><trkpt lat="38.063325" lon="15.8138117"><ele>1170.0</ele><time>2026-04-24T10:34:54.366Z</time></trkpt><trkpt lat="38.0634617" lon="15.8139633"><ele>1170.0</ele><time>2026-04-24T10:34:55.365Z</time></trkpt><trkpt lat="38.06359" lon="15.8141067"><ele>1170.0</ele><time>2026-04-24T10:34:56.365Z</time></trkpt><trkpt lat="38.06372" lon="15.81425"><ele>1170.0</ele><time>2026-04-24T10:34:57.366Z</time></trkpt><trkpt lat="38.0638433" lon="15.814395"><ele>1171.0</ele><time>2026-04-24T10:34:58.366Z</time></trkpt><trkpt lat="38.0639633" lon="15.8145367"><ele>1172.0</ele><time>2026-04-24T10:34:59.366Z</time></trkpt><trkpt lat="38.064085" lon="15.8146767"><ele>1173.0</ele><time>2026-04-24T10:35:00.366Z</time></trkpt><trkpt lat="38.0642067" lon="15.8148167"><ele>1173.6666666666667</ele><time>2026-04-24T10:35:01.366Z</time></trkpt><trkpt lat="38.064325" lon="15.8149533"><ele>1174.3333333333335</ele><time>2026-04-24T10:35:02.365Z</time></trkpt><trkpt lat="38.0644383" lon="15.8150883"><ele>1175.0</ele><time>2026-04-24T10:35:03.365Z</time></trkpt><trkpt lat="38.0645583" lon="15.8152267"><ele>1176.0</ele><time>2026-04-24T10:35:04.366Z</time></trkpt><trkpt lat="38.0646783" lon="15.81537"><ele>1177.0</ele><time>2026-04-24T10:35:05.365Z</time></trkpt><trkpt lat="38.064805" lon="15.81551"><ele>1178.0</ele><time>2026-04-24T10:35:06.366Z</time></trkpt><trkpt lat="38.0649333" lon="15.8156533"><ele>1177.6666666666667</ele><time>2026-04-24T10:35:07.365Z</time></trkpt><trkpt lat="38.0650667" lon="15.8158033"><ele>1177.3333333333333</ele><time>2026-04-24T10:35:08.365Z</time></trkpt><trkpt lat="38.0652033" lon="15.8159567"><ele>1177.0</ele><time>2026-04-24T10:35:09.365Z</time></trkpt><trkpt lat="38.0653533" lon="15.8161283"><ele>1177.3333333333333</ele><time>2026-04-24T10:35:10.365Z</time></trkpt><trkpt lat="38.0655017" lon="15.8163217"><ele>1177.6666666666667</ele><time>2026-04-24T10:35:11.366Z</time></trkpt><trkpt lat="38.065655" lon="15.81653"><ele>1178.0</ele><time>2026-04-24T10:35:12.366Z</time></trkpt><trkpt lat="38.0658217" lon="15.8167433"><ele>1178.6666666666667</ele><time>2026-04-24T10:35:13.366Z</time></trkpt><trkpt lat="38.0659817" lon="15.8169467"><ele>1179.3333333333333</ele><time>2026-04-24T10:35:14.365Z</time></trkpt><trkpt lat="38.06614" lon="15.8171433"><ele>1180.0</ele><time>2026-04-24T10:35:15.366Z</time></trkpt><trkpt lat="38.0663033" lon="15.8173467"><ele>1180.0</ele><time>2026-04-24T10:35:16.366Z</time></trkpt><trkpt lat="38.066465" lon="15.8175517"><ele>1180.0</ele><time>2026-04-24T10:35:17.365Z</time></trkpt><trkpt lat="38.0666217" lon="15.81777"><ele>1180.0</ele><time>2026-04-24T10:35:18.366Z</time></trkpt><trkpt lat="38.0667883" lon="15.8179833"><ele>1180.0</ele><time>2026-04-24T10:35:19.365Z</time></trkpt><trkpt lat="38.0669583" lon="15.8181867"><ele>1180.0</ele><time>2026-04-24T10:35:20.366Z</time></trkpt><trkpt lat="38.0671183" lon="15.8183783"><ele>1180.0</ele><time>2026-04-24T10:35:21.366Z</time></trkpt><trkpt lat="38.0672683" lon="15.8185683"><ele>1180.0</ele><time>2026-04-24T10:35:22.365Z</time></trkpt><trkpt lat="38.0674133" lon="15.81875"><ele>1181.0</ele><time>2026-04-24T10:35:23.366Z</time></trkpt><trkpt lat="38.06755" lon="15.8189383"><ele>1182.0</ele><time>2026-04-24T10:35:24.365Z</time></trkpt><trkpt lat="38.0676967" lon="15.8191117"><ele>1183.0</ele><time>2026-04-24T10:35:25.365Z</time></trkpt><trkpt lat="38.06783" lon="15.819275"><ele>1183.3333333333333</ele><time>2026-04-24T10:35:26.365Z</time></trkpt><trkpt lat="38.0679683" lon="15.81943"><ele>1183.6666666666667</ele><time>2026-04-24T10:35:27.366Z</time></trkpt><trkpt lat="38.0681017" lon="15.8195833"><ele>1184.0</ele><time>2026-04-24T10:35:28.366Z</time></trkpt><trkpt lat="38.0682417" lon="15.81974"><ele>1184.0</ele><time>2026-04-24T10:35:29.365Z</time></trkpt><trkpt lat="38.0683817" lon="15.8198867"><ele>1184.0</ele><time>2026-04-24T10:35:30.365Z</time></trkpt><trkpt lat="38.0685167" lon="15.820025"><ele>1184.0</ele><time>2026-04-24T10:35:31.366Z</time></trkpt><trkpt lat="38.0686433" lon="15.82016"><ele>1184.0</ele><time>2026-04-24T10:35:32.365Z</time></trkpt><trkpt lat="38.0687717" lon="15.8202833"><ele>1184.0</ele><time>2026-04-24T10:35:33.365Z</time></trkpt><trkpt lat="38.0688983" lon="15.8204033"><ele>1184.0</ele><time>2026-04-24T10:35:34.365Z</time></trkpt><trkpt lat="38.0690283" lon="15.820525"><ele>1184.3333333333335</ele><time>2026-04-24T10:35:35.365Z</time></trkpt><trkpt lat="38.06916" lon="15.820645"><ele>1184.6666666666667</ele><time>2026-04-24T10:35:36.365Z</time></trkpt><trkpt lat="38.0692917" lon="15.8207717"><ele>1185.0</ele><time>2026-04-24T10:35:37.365Z</time></trkpt><trkpt lat="38.0695567" lon="15.821035"><ele>1185.6666666666667</ele><time>2026-04-24T10:35:39.366Z</time></trkpt><trkpt lat="38.0696983" lon="15.821165"><ele>1186.3333333333335</ele><time>2026-04-24T10:35:40.365Z</time></trkpt><trkpt lat="38.0698367" lon="15.8212917"><ele>1187.0</ele><time>2026-04-24T10:35:41.365Z</time></trkpt><trkpt lat="38.0699633" lon="15.82141"><ele>1187.0</ele><time>2026-04-24T10:35:42.365Z</time></trkpt><trkpt lat="38.0700933" lon="15.821525"><ele>1187.0</ele><time>2026-04-24T10:35:43.365Z</time></trkpt><trkpt lat="38.0702233" lon="15.8216167"><ele>1187.0</ele><time>2026-04-24T10:35:44.366Z</time></trkpt><trkpt lat="38.0703517" lon="15.8216867"><ele>1187.0</ele><time>2026-04-24T10:35:45.366Z</time></trkpt><trkpt lat="38.0704817" lon="15.8217483"><ele>1187.0</ele><time>2026-04-24T10:35:46.365Z</time></trkpt><trkpt lat="38.0706017" lon="15.8217967"><ele>1187.0</ele><time>2026-04-24T10:35:47.366Z</time></trkpt><trkpt lat="38.0707267" lon="15.8218433"><ele>1187.0</ele><time>2026-04-24T10:35:48.365Z</time></trkpt><trkpt lat="38.070855" lon="15.8218933"><ele>1187.0</ele><time>2026-04-24T10:35:49.365Z</time></trkpt><trkpt lat="38.0709733" lon="15.821945"><ele>1188.2</ele><time>2026-04-24T10:35:50.365Z</time></trkpt><trkpt lat="38.0710867" lon="15.8219883"><ele>1189.4</ele><time>2026-04-24T10:35:51.365Z</time></trkpt><trkpt lat="38.0711783" lon="15.822015"><ele>1190.6</ele><time>2026-04-24T10:35:52.366Z</time></trkpt><trkpt lat="38.071265" lon="15.8220467"><ele>1191.8</ele><time>2026-04-24T10:35:53.366Z</time></trkpt><trkpt lat="38.07134" lon="15.82208"><ele>1193.0</ele><time>2026-04-24T10:35:54.365Z</time></trkpt><trkpt lat="38.0714083" lon="15.82211"><ele>1193.0</ele><time>2026-04-24T10:35:55.365Z</time></trkpt><trkpt lat="38.0715217" lon="15.8221617"><ele>1193.0</ele><time>2026-04-24T10:35:57.366Z</time></trkpt><trkpt lat="38.07165" lon="15.8221917"><ele>1193.0</ele><time>2026-04-24T10:35:59.366Z</time></trkpt><trkpt lat="38.07172" lon="15.8222117"><ele>1193.0</ele><time>2026-04-24T10:36:00.366Z</time></trkpt><trkpt lat="38.0717817" lon="15.8222333"><ele>1193.0</ele><time>2026-04-24T10:36:01.365Z</time></trkpt><trkpt lat="38.0718717" lon="15.82229"><ele>1193.8333333333335</ele><time>2026-04-24T10:36:03.365Z</time></trkpt><trkpt lat="38.0719233" lon="15.82236"><ele>1194.6666666666667</ele><time>2026-04-24T10:36:05.365Z</time></trkpt><trkpt lat="38.07194" lon="15.8224567"><ele>1195.5</ele><time>2026-04-24T10:36:07.366Z</time></trkpt><trkpt lat="38.0719033" lon="15.822595"><ele>1196.3333333333333</ele><time>2026-04-24T10:36:09.366Z</time></trkpt><trkpt lat="38.0718583" lon="15.82268"><ele>1197.1666666666665</ele><time>2026-04-24T10:36:10.366Z</time></trkpt><trkpt lat="38.0718" lon="15.8227783"><ele>1198.0</ele><time>2026-04-24T10:36:11.366Z</time></trkpt><trkpt lat="38.071725" lon="15.8228867"><ele>1198.0</ele><time>2026-04-24T10:36:12.365Z</time></trkpt><trkpt lat="38.071645" lon="15.8229933"><ele>1198.0</ele><time>2026-04-24T10:36:13.366Z</time></trkpt><trkpt lat="38.0715683" lon="15.823105"><ele>1198.0</ele><time>2026-04-24T10:36:14.366Z</time></trkpt><trkpt lat="38.0714883" lon="15.8232333"><ele>1198.0</ele><time>2026-04-24T10:36:15.366Z</time></trkpt><trkpt lat="38.071415" lon="15.8233483"><ele>1198.0</ele><time>2026-04-24T10:36:16.366Z</time></trkpt><trkpt lat="38.0713517" lon="15.82343"><ele>1198.0</ele><time>2026-04-24T10:36:17.366Z</time></trkpt><trkpt lat="38.0712533" lon="15.8235433"><ele>1198.0</ele><time>2026-04-24T10:36:19.365Z</time></trkpt><trkpt lat="38.0712117" lon="15.8236267"><ele>1198.0</ele><time>2026-04-24T10:36:20.365Z</time></trkpt><trkpt lat="38.0711767" lon="15.82372"><ele>1198.0</ele><time>2026-04-24T10:36:21.365Z</time></trkpt><trkpt lat="38.071135" lon="15.8238233"><ele>1199.0</ele><time>2026-04-24T10:36:22.365Z</time></trkpt><trkpt lat="38.0710917" lon="15.8239317"><ele>1200.0</ele><time>2026-04-24T10:36:23.365Z</time></trkpt><trkpt lat="38.0710317" lon="15.8240283"><ele>1201.0</ele><time>2026-04-24T10:36:24.366Z</time></trkpt><trkpt lat="38.0709733" lon="15.824135"><ele>1202.0</ele><time>2026-04-24T10:36:25.365Z</time></trkpt><trkpt lat="38.0709183" lon="15.824255"><ele>1203.0</ele><time>2026-04-24T10:36:26.366Z</time></trkpt><trkpt lat="38.0708667" lon="15.8243683"><ele>1203.0</ele><time>2026-04-24T10:36:27.365Z</time></trkpt><trkpt lat="38.0708267" lon="15.82448"><ele>1203.0</ele><time>2026-04-24T10:36:28.365Z</time></trkpt><trkpt lat="38.07079" lon="15.8246033"><ele>1203.0</ele><time>2026-04-24T10:36:29.365Z</time></trkpt><trkpt lat="38.0707633" lon="15.8247133"><ele>1203.0</ele><time>2026-04-24T10:36:30.365Z</time></trkpt><trkpt lat="38.0707367" lon="15.824835"><ele>1203.0</ele><time>2026-04-24T10:36:31.366Z</time></trkpt><trkpt lat="38.07071" lon="15.824955"><ele>1203.0</ele><time>2026-04-24T10:36:32.365Z</time></trkpt><trkpt lat="38.070685" lon="15.8250617"><ele>1203.0</ele><time>2026-04-24T10:36:33.365Z</time></trkpt><trkpt lat="38.0706567" lon="15.8251683"><ele>1203.0</ele><time>2026-04-24T10:36:34.365Z</time></trkpt><trkpt lat="38.0706367" lon="15.8252683"><ele>1203.0</ele><time>2026-04-24T10:36:35.366Z</time></trkpt><trkpt lat="38.0706167" lon="15.825375"><ele>1203.0</ele><time>2026-04-24T10:36:36.365Z</time></trkpt><trkpt lat="38.0705917" lon="15.8254833"><ele>1203.0</ele><time>2026-04-24T10:36:37.365Z</time></trkpt><trkpt lat="38.0705633" lon="15.8255867"><ele>1204.3333333333333</ele><time>2026-04-24T10:36:38.365Z</time></trkpt><trkpt lat="38.070545" lon="15.825685"><ele>1205.6666666666667</ele><time>2026-04-24T10:36:39.365Z</time></trkpt><trkpt lat="38.0705217" lon="15.8257817"><ele>1207.0</ele><time>2026-04-24T10:36:40.365Z</time></trkpt><trkpt lat="38.0704967" lon="15.8258783"><ele>1208.3333333333335</ele><time>2026-04-24T10:36:41.365Z</time></trkpt><trkpt lat="38.0704767" lon="15.8259767"><ele>1209.6666666666667</ele><time>2026-04-24T10:36:42.365Z</time></trkpt><trkpt lat="38.0704483" lon="15.8260833"><ele>1211.0</ele><time>2026-04-24T10:36:43.365Z</time></trkpt><trkpt lat="38.0704317" lon="15.82618"><ele>1212.6</ele><time>2026-04-24T10:36:44.365Z</time></trkpt><trkpt lat="38.0704067" lon="15.8262683"><ele>1214.1999999999998</ele><time>2026-04-24T10:36:45.365Z</time></trkpt><trkpt lat="38.0703667" lon="15.8264033"><ele>1215.8000000000002</ele><time>2026-04-24T10:36:47.365Z</time></trkpt><trkpt lat="38.0703233" lon="15.826545"><ele>1217.4</ele><time>2026-04-24T10:36:49.365Z</time></trkpt><trkpt lat="38.0703117" lon="15.826645"><ele>1219.0</ele><time>2026-04-24T10:36:50.365Z</time></trkpt><trkpt lat="38.0703167" lon="15.82675"><ele>1218.0</ele><time>2026-04-24T10:36:51.365Z</time></trkpt><trkpt lat="38.0703117" lon="15.826855"><ele>1217.0</ele><time>2026-04-24T10:36:52.365Z</time></trkpt><trkpt lat="38.0703233" lon="15.8269483"><ele>1216.0</ele><time>2026-04-24T10:36:53.365Z</time></trkpt><trkpt lat="38.0703717" lon="15.827095"><ele>1215.0</ele><time>2026-04-24T10:36:55.365Z</time></trkpt><trkpt lat="38.070425" lon="15.8271483"><ele>1214.0</ele><time>2026-04-24T10:36:56.365Z</time></trkpt><trkpt lat="38.0704883" lon="15.8271883"><ele>1213.0</ele><time>2026-04-24T10:36:57.365Z</time></trkpt><trkpt lat="38.0705583" lon="15.8272133"><ele>1213.0</ele><time>2026-04-24T10:36:58.365Z</time></trkpt><trkpt lat="38.0706483" lon="15.8272233"><ele>1213.0</ele><time>2026-04-24T10:36:59.365Z</time></trkpt><trkpt lat="38.0707383" lon="15.8272417"><ele>1213.0</ele><time>2026-04-24T10:37:00.366Z</time></trkpt><trkpt lat="38.0708117" lon="15.8272683"><ele>1213.0</ele><time>2026-04-24T10:37:01.365Z</time></trkpt><trkpt lat="38.0708767" lon="15.8272967"><ele>1213.0</ele><time>2026-04-24T10:37:02.365Z</time></trkpt><trkpt lat="38.0709583" lon="15.8273417"><ele>1213.0</ele><time>2026-04-24T10:37:04.365Z</time></trkpt><trkpt lat="38.0709233" lon="15.8274333"><ele>1213.0</ele><time>2026-04-24T10:37:09.365Z</time></trkpt><trkpt lat="38.07082" lon="15.827495"><ele>1213.0</ele><time>2026-04-24T10:37:11.365Z</time></trkpt><trkpt lat="38.07074" lon="15.82756"><ele>1213.0</ele><time>2026-04-24T10:37:13.365Z</time></trkpt><trkpt lat="38.07071" lon="15.8276633"><ele>1213.0</ele><time>2026-04-24T10:37:15.366Z</time></trkpt><trkpt lat="38.070695" lon="15.8277483"><ele>1213.0</ele><time>2026-04-24T10:37:16.366Z</time></trkpt><trkpt lat="38.0706867" lon="15.8278383"><ele>1213.0</ele><time>2026-04-24T10:37:17.365Z</time></trkpt><trkpt lat="38.0706667" lon="15.8279283"><ele>1210.8333333333333</ele><time>2026-04-24T10:37:18.365Z</time></trkpt><trkpt lat="38.0706633" lon="15.8280333"><ele>1208.6666666666665</ele><time>2026-04-24T10:37:19.365Z</time></trkpt><trkpt lat="38.0706633" lon="15.8281283"><ele>1206.5</ele><time>2026-04-24T10:37:20.366Z</time></trkpt><trkpt lat="38.0706567" lon="15.82822"><ele>1204.3333333333333</ele><time>2026-04-24T10:37:21.366Z</time></trkpt><trkpt lat="38.070655" lon="15.8283183"><ele>1202.1666666666667</ele><time>2026-04-24T10:37:22.365Z</time></trkpt><trkpt lat="38.0706517" lon="15.8284167"><ele>1200.0</ele><time>2026-04-24T10:37:23.365Z</time></trkpt><trkpt lat="38.0706467" lon="15.8285117"><ele>1199.5</ele><time>2026-04-24T10:37:24.365Z</time></trkpt><trkpt lat="38.0706533" lon="15.8286117"><ele>1199.0</ele><time>2026-04-24T10:37:25.365Z</time></trkpt><trkpt lat="38.0706917" lon="15.82873"><ele>1198.5</ele><time>2026-04-24T10:37:26.366Z</time></trkpt><trkpt lat="38.0707367" lon="15.82884"><ele>1198.0</ele><time>2026-04-24T10:37:27.366Z</time></trkpt><trkpt lat="38.0708017" lon="15.8289283"><ele>1197.5</ele><time>2026-04-24T10:37:28.365Z</time></trkpt><trkpt lat="38.0708567" lon="15.8289783"><ele>1197.0</ele><time>2026-04-24T10:37:29.365Z</time></trkpt><trkpt lat="38.0709833" lon="15.8289967"><ele>1197.0</ele><time>2026-04-24T10:37:31.366Z</time></trkpt><trkpt lat="38.0710633" lon="15.8289767"><ele>1197.0</ele><time>2026-04-24T10:37:32.365Z</time></trkpt><trkpt lat="38.07114" lon="15.8289333"><ele>1197.0</ele><time>2026-04-24T10:37:33.365Z</time></trkpt><trkpt lat="38.0712133" lon="15.8289083"><ele>1197.0</ele><time>2026-04-24T10:37:34.365Z</time></trkpt><trkpt lat="38.071275" lon="15.8288833"><ele>1197.0</ele><time>2026-04-24T10:37:35.365Z</time></trkpt><trkpt lat="38.071395" lon="15.8288983"><ele>1197.0</ele><time>2026-04-24T10:37:37.365Z</time></trkpt><trkpt lat="38.071465" lon="15.8289117"><ele>1197.0</ele><time>2026-04-24T10:37:38.366Z</time></trkpt><trkpt lat="38.071555" lon="15.828955"><ele>1197.0</ele><time>2026-04-24T10:37:40.365Z</time></trkpt><trkpt lat="38.0715867" lon="15.829035"><ele>1197.0</ele><time>2026-04-24T10:37:42.365Z</time></trkpt><trkpt lat="38.0715367" lon="15.829125"><ele>1197.0</ele><time>2026-04-24T10:37:46.366Z</time></trkpt><trkpt lat="38.0714183" lon="15.829155"><ele>1197.0</ele><time>2026-04-24T10:37:48.365Z</time></trkpt><trkpt lat="38.0713383" lon="15.829175"><ele>1197.0</ele><time>2026-04-24T10:37:49.366Z</time></trkpt><trkpt lat="38.07123" lon="15.829185"><ele>1197.0</ele><time>2026-04-24T10:37:50.365Z</time></trkpt><trkpt lat="38.0711383" lon="15.829205"><ele>1197.0</ele><time>2026-04-24T10:37:51.365Z</time></trkpt><trkpt lat="38.071065" lon="15.8292533"><ele>1197.0</ele><time>2026-04-24T10:37:52.366Z</time></trkpt><trkpt lat="38.0710083" lon="15.829325"><ele>1197.0</ele><time>2026-04-24T10:37:53.365Z</time></trkpt><trkpt lat="38.0709717" lon="15.8294017"><ele>1197.0</ele><time>2026-04-24T10:37:54.366Z</time></trkpt><trkpt lat="38.07096" lon="15.829495"><ele>1195.6666666666667</ele><time>2026-04-24T10:37:55.366Z</time></trkpt><trkpt lat="38.07092" lon="15.8295633"><ele>1194.3333333333333</ele><time>2026-04-24T10:37:56.365Z</time></trkpt><trkpt lat="38.07087" lon="15.8296183"><ele>1193.0</ele><time>2026-04-24T10:37:57.366Z</time></trkpt><trkpt lat="38.0708167" lon="15.8296917"><ele>1191.6666666666665</ele><time>2026-04-24T10:37:58.366Z</time></trkpt><trkpt lat="38.0707817" lon="15.8297783"><ele>1190.3333333333333</ele><time>2026-04-24T10:37:59.365Z</time></trkpt><trkpt lat="38.0707433" lon="15.829865"><ele>1189.0</ele><time>2026-04-24T10:38:00.365Z</time></trkpt><trkpt lat="38.0706717" lon="15.829945"><ele>1187.8333333333333</ele><time>2026-04-24T10:38:02.365Z</time></trkpt><trkpt lat="38.0705667" lon="15.829925"><ele>1186.6666666666665</ele><time>2026-04-24T10:38:04.365Z</time></trkpt><trkpt lat="38.0704917" lon="15.8298983"><ele>1185.5</ele><time>2026-04-24T10:38:05.365Z</time></trkpt><trkpt lat="38.0704117" lon="15.82987"><ele>1184.3333333333333</ele><time>2026-04-24T10:38:06.365Z</time></trkpt><trkpt lat="38.0703283" lon="15.829835"><ele>1183.1666666666667</ele><time>2026-04-24T10:38:07.366Z</time></trkpt><trkpt lat="38.0702533" lon="15.8298017"><ele>1182.0</ele><time>2026-04-24T10:38:08.365Z</time></trkpt><trkpt lat="38.0701767" lon="15.8297933"><ele>1182.0</ele><time>2026-04-24T10:38:09.365Z</time></trkpt><trkpt lat="38.0701" lon="15.8298033"><ele>1182.0</ele><time>2026-04-24T10:38:10.365Z</time></trkpt><trkpt lat="38.0700133" lon="15.8298217"><ele>1182.0</ele><time>2026-04-24T10:38:11.366Z</time></trkpt><trkpt lat="38.0699267" lon="15.829845"><ele>1182.0</ele><time>2026-04-24T10:38:12.365Z</time></trkpt><trkpt lat="38.0698483" lon="15.82986"><ele>1182.0</ele><time>2026-04-24T10:38:13.365Z</time></trkpt><trkpt lat="38.0697733" lon="15.8298633"><ele>1182.0</ele><time>2026-04-24T10:38:14.365Z</time></trkpt><trkpt lat="38.0696933" lon="15.829865"><ele>1179.4</ele><time>2026-04-24T10:38:15.366Z</time></trkpt><trkpt lat="38.069605" lon="15.8298517"><ele>1176.8000000000002</ele><time>2026-04-24T10:38:16.366Z</time></trkpt><trkpt lat="38.0695167" lon="15.829835"><ele>1174.2</ele><time>2026-04-24T10:38:17.366Z</time></trkpt><trkpt lat="38.06942" lon="15.8298233"><ele>1171.6000000000001</ele><time>2026-04-24T10:38:18.365Z</time></trkpt><trkpt lat="38.069325" lon="15.8298283"><ele>1169.0</ele><time>2026-04-24T10:38:19.366Z</time></trkpt><trkpt lat="38.06923" lon="15.829845"><ele>1169.0</ele><time>2026-04-24T10:38:20.365Z</time></trkpt><trkpt lat="38.06913" lon="15.8298717"><ele>1169.0</ele><time>2026-04-24T10:38:21.365Z</time></trkpt><trkpt lat="38.0690517" lon="15.8299083"><ele>1169.0</ele><time>2026-04-24T10:38:22.365Z</time></trkpt><trkpt lat="38.0689733" lon="15.8299433"><ele>1169.0</ele><time>2026-04-24T10:38:23.366Z</time></trkpt><trkpt lat="38.06892" lon="15.8299917"><ele>1169.0</ele><time>2026-04-24T10:38:24.366Z</time></trkpt><trkpt lat="38.068885" lon="15.8300917"><ele>1169.0</ele><time>2026-04-24T10:38:26.365Z</time></trkpt><trkpt lat="38.0689417" lon="15.8301733"><ele>1166.3333333333335</ele><time>2026-04-24T10:38:28.365Z</time></trkpt><trkpt lat="38.069045" lon="15.830265"><ele>1163.6666666666667</ele><time>2026-04-24T10:38:30.365Z</time></trkpt><trkpt lat="38.0691" lon="15.8303167"><ele>1161.0</ele><time>2026-04-24T10:38:31.366Z</time></trkpt><trkpt lat="38.0691417" lon="15.8303833"><ele>1158.3333333333333</ele><time>2026-04-24T10:38:32.366Z</time></trkpt><trkpt lat="38.0691833" lon="15.8304533"><ele>1155.6666666666665</ele><time>2026-04-24T10:38:33.366Z</time></trkpt><trkpt lat="38.0692183" lon="15.830525"><ele>1153.0</ele><time>2026-04-24T10:38:34.365Z</time></trkpt><trkpt lat="38.0692567" lon="15.8305967"><ele>1153.0</ele><time>2026-04-24T10:38:35.365Z</time></trkpt><trkpt lat="38.0693017" lon="15.83066"><ele>1153.0</ele><time>2026-04-24T10:38:36.365Z</time></trkpt><trkpt lat="38.0693583" lon="15.8307683"><ele>1153.0</ele><time>2026-04-24T10:38:38.365Z</time></trkpt><trkpt lat="38.0693517" lon="15.8309067"><ele>1153.0</ele><time>2026-04-24T10:38:40.366Z</time></trkpt><trkpt lat="38.0693183" lon="15.8310633"><ele>1153.0</ele><time>2026-04-24T10:38:42.365Z</time></trkpt><trkpt lat="38.0693117" lon="15.8311967"><ele>1149.1666666666665</ele><time>2026-04-24T10:38:44.366Z</time></trkpt><trkpt lat="38.0693633" lon="15.83131"><ele>1145.3333333333333</ele><time>2026-04-24T10:38:46.365Z</time></trkpt><trkpt lat="38.0694417" lon="15.83138"><ele>1141.5</ele><time>2026-04-24T10:38:48.366Z</time></trkpt><trkpt lat="38.069505" lon="15.8314"><ele>1137.6666666666667</ele><time>2026-04-24T10:38:49.366Z</time></trkpt><trkpt lat="38.0695717" lon="15.8314017"><ele>1133.8333333333335</ele><time>2026-04-24T10:38:50.365Z</time></trkpt><trkpt lat="38.0696867" lon="15.8313867"><ele>1130.0</ele><time>2026-04-24T10:38:52.366Z</time></trkpt><trkpt lat="38.06977" lon="15.831365"><ele>1130.0</ele><time>2026-04-24T10:38:54.366Z</time></trkpt><trkpt lat="38.0698317" lon="15.8313933"><ele>1130.0</ele><time>2026-04-24T10:38:56.365Z</time></trkpt><trkpt lat="38.0698333" lon="15.8314767"><ele>1130.0</ele><time>2026-04-24T10:38:59.365Z</time></trkpt><trkpt lat="38.0697733" lon="15.8315217"><ele>1130.0</ele><time>2026-04-24T10:39:01.366Z</time></trkpt><trkpt lat="38.06969" lon="15.83156"><ele>1130.0</ele><time>2026-04-24T10:39:03.365Z</time></trkpt><trkpt lat="38.06961" lon="15.8316183"><ele>1130.0</ele><time>2026-04-24T10:39:05.365Z</time></trkpt><trkpt lat="38.0696017" lon="15.8317233"><ele>1130.0</ele><time>2026-04-24T10:39:08.366Z</time></trkpt><trkpt lat="38.0696683" lon="15.8317433"><ele>1130.0</ele><time>2026-04-24T10:39:11.365Z</time></trkpt><trkpt lat="38.0697333" lon="15.83169"><ele>1130.0</ele><time>2026-04-24T10:39:13.365Z</time></trkpt><trkpt lat="38.0698183" lon="15.831625"><ele>1130.0</ele><time>2026-04-24T10:39:15.365Z</time></trkpt><trkpt lat="38.0699183" lon="15.8315667"><ele>1130.0</ele><time>2026-04-24T10:39:17.365Z</time></trkpt><trkpt lat="38.070015" lon="15.8315017"><ele>1131.2</ele><time>2026-04-24T10:39:19.365Z</time></trkpt><trkpt lat="38.0700767" lon="15.8314233"><ele>1132.4</ele><time>2026-04-24T10:39:21.366Z</time></trkpt><trkpt lat="38.07017" lon="15.8313517"><ele>1133.6</ele><time>2026-04-24T10:39:23.366Z</time></trkpt><trkpt lat="38.0702833" lon="15.8313"><ele>1134.8</ele><time>2026-04-24T10:39:25.366Z</time></trkpt><trkpt lat="38.070385" lon="15.8312483"><ele>1136.0</ele><time>2026-04-24T10:39:27.365Z</time></trkpt><trkpt lat="38.0704867" lon="15.8312067"><ele>1136.0</ele><time>2026-04-24T10:39:29.365Z</time></trkpt><trkpt lat="38.0705867" lon="15.8311717"><ele>1136.0</ele><time>2026-04-24T10:39:31.366Z</time></trkpt><trkpt lat="38.0706783" lon="15.8311467"><ele>1136.0</ele><time>2026-04-24T10:39:33.365Z</time></trkpt><trkpt lat="38.0707833" lon="15.831135"><ele>1136.0</ele><time>2026-04-24T10:39:35.365Z</time></trkpt><trkpt lat="38.0709067" lon="15.8311567"><ele>1136.0</ele><time>2026-04-24T10:39:37.365Z</time></trkpt><trkpt lat="38.07097" lon="15.8311767"><ele>1131.2</ele><time>2026-04-24T10:39:38.365Z</time></trkpt><trkpt lat="38.0710883" lon="15.83121"><ele>1126.3999999999999</ele><time>2026-04-24T10:39:40.366Z</time></trkpt><trkpt lat="38.0712017" lon="15.8312533"><ele>1121.6</ele><time>2026-04-24T10:39:42.366Z</time></trkpt><trkpt lat="38.071315" lon="15.8313183"><ele>1116.8</ele><time>2026-04-24T10:39:44.365Z</time></trkpt><trkpt lat="38.0713717" lon="15.831355"><ele>1112.0</ele><time>2026-04-24T10:39:45.365Z</time></trkpt><trkpt lat="38.0714633" lon="15.83144"><ele>1112.0</ele><time>2026-04-24T10:39:47.365Z</time></trkpt><trkpt lat="38.0715367" lon="15.83151"><ele>1112.0</ele><time>2026-04-24T10:39:49.365Z</time></trkpt><trkpt lat="38.0715317" lon="15.8315933"><ele>1112.0</ele><time>2026-04-24T10:39:52.366Z</time></trkpt><trkpt lat="38.0714583" lon="15.831585"><ele>1112.0</ele><time>2026-04-24T10:39:54.366Z</time></trkpt><trkpt lat="38.0713533" lon="15.8315433"><ele>1112.0</ele><time>2026-04-24T10:39:56.365Z</time></trkpt><trkpt lat="38.071245" lon="15.83152"><ele>1112.0</ele><time>2026-04-24T10:39:58.366Z</time></trkpt><trkpt lat="38.0711433" lon="15.8315467"><ele>1112.0</ele><time>2026-04-24T10:40:00.365Z</time></trkpt><trkpt lat="38.0710383" lon="15.8316433"><ele>1112.0</ele><time>2026-04-24T10:40:02.365Z</time></trkpt><trkpt lat="38.07097" lon="15.831715"><ele>1112.0</ele><time>2026-04-24T10:40:03.366Z</time></trkpt><trkpt lat="38.0709017" lon="15.8317983"><ele>1112.0</ele><time>2026-04-24T10:40:04.365Z</time></trkpt><trkpt lat="38.07084" lon="15.83188"><ele>1107.0</ele><time>2026-04-24T10:40:05.366Z</time></trkpt><trkpt lat="38.0707767" lon="15.8319567"><ele>1102.0</ele><time>2026-04-24T10:40:06.365Z</time></trkpt><trkpt lat="38.0707067" lon="15.83204"><ele>1097.0</ele><time>2026-04-24T10:40:07.366Z</time></trkpt><trkpt lat="38.07063" lon="15.8321117"><ele>1092.0</ele><time>2026-04-24T10:40:08.365Z</time></trkpt><trkpt lat="38.0705533" lon="15.8321817"><ele>1087.0</ele><time>2026-04-24T10:40:09.365Z</time></trkpt><trkpt lat="38.0704883" lon="15.8322467"><ele>1087.0</ele><time>2026-04-24T10:40:10.365Z</time></trkpt><trkpt lat="38.0704333" lon="15.8323017"><ele>1087.0</ele><time>2026-04-24T10:40:11.366Z</time></trkpt><trkpt lat="38.0704317" lon="15.8323867"><ele>1087.0</ele><time>2026-04-24T10:40:13.365Z</time></trkpt><trkpt lat="38.0705483" lon="15.8324317"><ele>1087.0</ele><time>2026-04-24T10:40:15.365Z</time></trkpt><trkpt lat="38.07062" lon="15.8324517"><ele>1087.0</ele><time>2026-04-24T10:40:16.366Z</time></trkpt><trkpt lat="38.0706817" lon="15.8324833"><ele>1087.0</ele><time>2026-04-24T10:40:17.365Z</time></trkpt><trkpt lat="38.0707883" lon="15.8325383"><ele>1086.0</ele><time>2026-04-24T10:40:19.366Z</time></trkpt><trkpt lat="38.0708733" lon="15.8325817"><ele>1085.0</ele><time>2026-04-24T10:40:21.365Z</time></trkpt><trkpt lat="38.07091" lon="15.832685"><ele>1084.0</ele><time>2026-04-24T10:40:24.366Z</time></trkpt><trkpt lat="38.0708533" lon="15.83274"><ele>1083.0</ele><time>2026-04-24T10:40:26.365Z</time></trkpt><trkpt lat="38.0707683" lon="15.83272"><ele>1082.0</ele><time>2026-04-24T10:40:28.365Z</time></trkpt><trkpt lat="38.0706617" lon="15.832685"><ele>1081.0</ele><time>2026-04-24T10:40:30.365Z</time></trkpt><trkpt lat="38.07061" lon="15.8327333"><ele>1076.5</ele><time>2026-04-24T10:40:32.366Z</time></trkpt><trkpt lat="38.07065" lon="15.8328083"><ele>1072.0</ele><time>2026-04-24T10:40:34.365Z</time></trkpt><trkpt lat="38.0707567" lon="15.832855"><ele>1067.5</ele><time>2026-04-24T10:40:36.366Z</time></trkpt><trkpt lat="38.0708067" lon="15.8329283"><ele>1063.0</ele><time>2026-04-24T10:40:38.366Z</time></trkpt><trkpt lat="38.0707183" lon="15.8329517"><ele>1058.5</ele><time>2026-04-24T10:40:41.366Z</time></trkpt><trkpt lat="38.070645" lon="15.83292"><ele>1054.0</ele><time>2026-04-24T10:40:43.365Z</time></trkpt><trkpt lat="38.0707283" lon="15.8329467"><ele>1054.0</ele><time>2026-04-24T10:40:58.365Z</time></trkpt><trkpt lat="38.070795" lon="15.83292"><ele>1054.0</ele><time>2026-04-24T10:41:00.365Z</time></trkpt><trkpt lat="38.0707233" lon="15.8328083"><ele>1054.0</ele><time>2026-04-24T10:41:03.365Z</time></trkpt><trkpt lat="38.07065" lon="15.8327167"><ele>1054.0</ele><time>2026-04-24T10:41:05.365Z</time></trkpt><trkpt lat="38.070705" lon="15.8326667"><ele>1054.0</ele><time>2026-04-24T10:41:07.366Z</time></trkpt><trkpt lat="38.070825" lon="15.8327117"><ele>1054.0</ele><time>2026-04-24T10:41:09.366Z</time></trkpt><trkpt lat="38.0709117" lon="15.8326633"><ele>1054.0</ele><time>2026-04-24T10:41:11.366Z</time></trkpt><trkpt lat="38.0708933" lon="15.8325533"><ele>1054.0</ele><time>2026-04-24T10:41:13.365Z</time></trkpt><trkpt lat="38.0708433" lon="15.8324967"><ele>1054.0</ele><time>2026-04-24T10:41:14.366Z</time></trkpt><trkpt lat="38.07077" lon="15.8324383"><ele>1054.0</ele><time>2026-04-24T10:41:15.365Z</time></trkpt><trkpt lat="38.0706833" lon="15.8323883"><ele>1054.0</ele><time>2026-04-24T10:41:16.366Z</time></trkpt><trkpt lat="38.0705983" lon="15.8323583"><ele>1060.6000000000001</ele><time>2026-04-24T10:41:17.366Z</time></trkpt><trkpt lat="38.0705117" lon="15.8323583"><ele>1067.2</ele><time>2026-04-24T10:41:18.365Z</time></trkpt><trkpt lat="38.0704383" lon="15.8323383"><ele>1073.8000000000002</ele><time>2026-04-24T10:41:19.365Z</time></trkpt><trkpt lat="38.070395" lon="15.832255"><ele>1080.4</ele><time>2026-04-24T10:41:21.365Z</time></trkpt><trkpt lat="38.0705117" lon="15.8321583"><ele>1087.0</ele><time>2026-04-24T10:41:23.365Z</time></trkpt><trkpt lat="38.0705967" lon="15.8321"><ele>1087.0</ele><time>2026-04-24T10:41:24.366Z</time></trkpt><trkpt lat="38.07069" lon="15.8320167"><ele>1087.0</ele><time>2026-04-24T10:41:25.365Z</time></trkpt><trkpt lat="38.07078" lon="15.8319233"><ele>1087.0</ele><time>2026-04-24T10:41:26.365Z</time></trkpt><trkpt lat="38.0708583" lon="15.8318233"><ele>1087.0</ele><time>2026-04-24T10:41:27.365Z</time></trkpt><trkpt lat="38.0709333" lon="15.8317233"><ele>1091.1666666666665</ele><time>2026-04-24T10:41:28.366Z</time></trkpt><trkpt lat="38.0710133" lon="15.831635"><ele>1095.3333333333333</ele><time>2026-04-24T10:41:29.366Z</time></trkpt><trkpt lat="38.07109" lon="15.831555"><ele>1099.5</ele><time>2026-04-24T10:41:30.366Z</time></trkpt><trkpt lat="38.0711533" lon="15.8314933"><ele>1103.6666666666667</ele><time>2026-04-24T10:41:31.365Z</time></trkpt><trkpt lat="38.071225" lon="15.831455"><ele>1107.8333333333335</ele><time>2026-04-24T10:41:32.365Z</time></trkpt><trkpt lat="38.0713033" lon="15.8314533"><ele>1112.0</ele><time>2026-04-24T10:41:33.365Z</time></trkpt><trkpt lat="38.0713817" lon="15.8314783"><ele>1112.0</ele><time>2026-04-24T10:41:34.365Z</time></trkpt><trkpt lat="38.07145" lon="15.83152"><ele>1112.0</ele><time>2026-04-24T10:41:35.365Z</time></trkpt><trkpt lat="38.0715183" lon="15.8315433"><ele>1112.0</ele><time>2026-04-24T10:41:36.366Z</time></trkpt><trkpt lat="38.07152" lon="15.831445"><ele>1112.0</ele><time>2026-04-24T10:41:40.365Z</time></trkpt><trkpt lat="38.0714117" lon="15.8313867"><ele>1112.0</ele><time>2026-04-24T10:41:42.365Z</time></trkpt><trkpt lat="38.0713183" lon="15.8313067"><ele>1112.0</ele><time>2026-04-24T10:41:44.366Z</time></trkpt><trkpt lat="38.0712617" lon="15.8312683"><ele>1112.0</ele><time>2026-04-24T10:41:45.365Z</time></trkpt><trkpt lat="38.0711933" lon="15.8312383"><ele>1112.0</ele><time>2026-04-24T10:41:46.366Z</time></trkpt><trkpt lat="38.071125" lon="15.83121"><ele>1112.0</ele><time>2026-04-24T10:41:47.366Z</time></trkpt><trkpt lat="38.0710567" lon="15.83118"><ele>1112.0</ele><time>2026-04-24T10:41:48.365Z</time></trkpt><trkpt lat="38.0709833" lon="15.83116"><ele>1112.0</ele><time>2026-04-24T10:41:49.365Z</time></trkpt><trkpt lat="38.0709117" lon="15.831155"><ele>1112.0</ele><time>2026-04-24T10:41:50.366Z</time></trkpt><trkpt lat="38.0708383" lon="15.831165"><ele>1116.0</ele><time>2026-04-24T10:41:51.366Z</time></trkpt><trkpt lat="38.07076" lon="15.83117"><ele>1120.0</ele><time>2026-04-24T10:41:52.366Z</time></trkpt><trkpt lat="38.0706867" lon="15.8311817"><ele>1124.0</ele><time>2026-04-24T10:41:53.365Z</time></trkpt><trkpt lat="38.0706133" lon="15.831205"><ele>1128.0</ele><time>2026-04-24T10:41:54.366Z</time></trkpt><trkpt lat="38.070535" lon="15.83123"><ele>1132.0</ele><time>2026-04-24T10:41:55.366Z</time></trkpt><trkpt lat="38.0704583" lon="15.8312683"><ele>1136.0</ele><time>2026-04-24T10:41:56.366Z</time></trkpt><trkpt lat="38.07037" lon="15.8312967"><ele>1136.0</ele><time>2026-04-24T10:41:57.366Z</time></trkpt><trkpt lat="38.0702833" lon="15.83133"><ele>1136.0</ele><time>2026-04-24T10:41:58.365Z</time></trkpt><trkpt lat="38.0701983" lon="15.8313733"><ele>1136.0</ele><time>2026-04-24T10:41:59.366Z</time></trkpt><trkpt lat="38.0701183" lon="15.8314267"><ele>1136.0</ele><time>2026-04-24T10:42:00.365Z</time></trkpt><trkpt lat="38.0700383" lon="15.8314917"><ele>1136.0</ele><time>2026-04-24T10:42:01.366Z</time></trkpt><trkpt lat="38.0699667" lon="15.8315667"><ele>1135.0</ele><time>2026-04-24T10:42:02.365Z</time></trkpt><trkpt lat="38.0698983" lon="15.8316217"><ele>1134.0</ele><time>2026-04-24T10:42:03.365Z</time></trkpt><trkpt lat="38.069825" lon="15.83167"><ele>1133.0</ele><time>2026-04-24T10:42:04.365Z</time></trkpt><trkpt lat="38.0697517" lon="15.8317017"><ele>1132.0</ele><time>2026-04-24T10:42:05.365Z</time></trkpt><trkpt lat="38.0696483" lon="15.8317467"><ele>1131.0</ele><time>2026-04-24T10:42:07.365Z</time></trkpt><trkpt lat="38.0695883" lon="15.8317033"><ele>1130.0</ele><time>2026-04-24T10:42:09.366Z</time></trkpt><trkpt lat="38.0695883" lon="15.8316217"><ele>1130.0</ele><time>2026-04-24T10:42:11.366Z</time></trkpt><trkpt lat="38.0696583" lon="15.8315583"><ele>1130.0</ele><time>2026-04-24T10:42:13.365Z</time></trkpt><trkpt lat="38.069775" lon="15.8315167"><ele>1130.0</ele><time>2026-04-24T10:42:15.365Z</time></trkpt><trkpt lat="38.0698317" lon="15.831435"><ele>1130.0</ele><time>2026-04-24T10:42:17.365Z</time></trkpt><trkpt lat="38.0697467" lon="15.8313733"><ele>1130.0</ele><time>2026-04-24T10:42:20.366Z</time></trkpt><trkpt lat="38.0696217" lon="15.831405"><ele>1130.0</ele><time>2026-04-24T10:42:22.366Z</time></trkpt><trkpt lat="38.0695533" lon="15.8314017"><ele>1130.0</ele><time>2026-04-24T10:42:23.366Z</time></trkpt><trkpt lat="38.0694833" lon="15.8313933"><ele>1130.0</ele><time>2026-04-24T10:42:24.365Z</time></trkpt><trkpt lat="38.0693667" lon="15.831345"><ele>1130.0</ele><time>2026-04-24T10:42:26.365Z</time></trkpt><trkpt lat="38.0693233" lon="15.831285"><ele>1130.0</ele><time>2026-04-24T10:42:27.366Z</time></trkpt><trkpt lat="38.06931" lon="15.831145"><ele>1130.0</ele><time>2026-04-24T10:42:29.365Z</time></trkpt><trkpt lat="38.0693317" lon="15.8310567"><ele>1133.8333333333335</ele><time>2026-04-24T10:42:30.365Z</time></trkpt><trkpt lat="38.0693483" lon="15.8309533"><ele>1137.6666666666667</ele><time>2026-04-24T10:42:31.366Z</time></trkpt><trkpt lat="38.0693683" lon="15.8308467"><ele>1141.5</ele><time>2026-04-24T10:42:32.365Z</time></trkpt><trkpt lat="38.0693583" lon="15.8307367"><ele>1145.3333333333333</ele><time>2026-04-24T10:42:33.365Z</time></trkpt><trkpt lat="38.06933" lon="15.8306433"><ele>1149.1666666666665</ele><time>2026-04-24T10:42:34.365Z</time></trkpt><trkpt lat="38.0692833" lon="15.8305633"><ele>1153.0</ele><time>2026-04-24T10:42:35.365Z</time></trkpt><trkpt lat="38.06922" lon="15.830495"><ele>1153.0</ele><time>2026-04-24T10:42:36.366Z</time></trkpt><trkpt lat="38.0691583" lon="15.83041"><ele>1153.0</ele><time>2026-04-24T10:42:37.366Z</time></trkpt><trkpt lat="38.0690983" lon="15.8303117"><ele>1153.0</ele><time>2026-04-24T10:42:38.366Z</time></trkpt><trkpt lat="38.0690317" lon="15.8302267"><ele>1153.0</ele><time>2026-04-24T10:42:39.365Z</time></trkpt><trkpt lat="38.0689667" lon="15.8301483"><ele>1153.0</ele><time>2026-04-24T10:42:40.366Z</time></trkpt><trkpt lat="38.0689367" lon="15.8300717"><ele>1153.0</ele><time>2026-04-24T10:42:41.366Z</time></trkpt><trkpt lat="38.0689567" lon="15.829965"><ele>1151.0</ele><time>2026-04-24T10:42:43.365Z</time></trkpt><trkpt lat="38.06906" lon="15.8298983"><ele>1149.0</ele><time>2026-04-24T10:42:45.365Z</time></trkpt><trkpt lat="38.0691333" lon="15.82987"><ele>1147.0</ele><time>2026-04-24T10:42:46.365Z</time></trkpt><trkpt lat="38.0692267" lon="15.829845"><ele>1145.0</ele><time>2026-04-24T10:42:47.365Z</time></trkpt><trkpt lat="38.0693333" lon="15.829825"><ele>1143.0</ele><time>2026-04-24T10:42:48.365Z</time></trkpt><trkpt lat="38.0694333" lon="15.829815"><ele>1148.2</ele><time>2026-04-24T10:42:49.366Z</time></trkpt><trkpt lat="38.0695417" lon="15.82983"><ele>1153.4</ele><time>2026-04-24T10:42:50.365Z</time></trkpt><trkpt lat="38.0696583" lon="15.829845"><ele>1158.6000000000001</ele><time>2026-04-24T10:42:51.365Z</time></trkpt><trkpt lat="38.0697667" lon="15.829855"><ele>1163.8</ele><time>2026-04-24T10:42:52.365Z</time></trkpt><trkpt lat="38.06988" lon="15.8298533"><ele>1169.0</ele><time>2026-04-24T10:42:53.366Z</time></trkpt><trkpt lat="38.0699867" lon="15.8298333"><ele>1171.1666666666667</ele><time>2026-04-24T10:42:54.365Z</time></trkpt><trkpt lat="38.0700833" lon="15.829815"><ele>1173.3333333333335</ele><time>2026-04-24T10:42:55.366Z</time></trkpt><trkpt lat="38.0701667" lon="15.829805"><ele>1175.5</ele><time>2026-04-24T10:42:56.365Z</time></trkpt><trkpt lat="38.070255" lon="15.829805"><ele>1177.6666666666667</ele><time>2026-04-24T10:42:57.365Z</time></trkpt><trkpt lat="38.07034" lon="15.8298267"><ele>1179.8333333333333</ele><time>2026-04-24T10:42:58.366Z</time></trkpt><trkpt lat="38.0704217" lon="15.829865"><ele>1182.0</ele><time>2026-04-24T10:42:59.365Z</time></trkpt><trkpt lat="38.0705083" lon="15.8299083"><ele>1182.0</ele><time>2026-04-24T10:43:00.365Z</time></trkpt><trkpt lat="38.07059" lon="15.82995"><ele>1182.0</ele><time>2026-04-24T10:43:01.366Z</time></trkpt><trkpt lat="38.0706567" lon="15.8299767"><ele>1182.0</ele><time>2026-04-24T10:43:02.366Z</time></trkpt><trkpt lat="38.070765" lon="15.8299533"><ele>1182.0</ele><time>2026-04-24T10:43:04.365Z</time></trkpt><trkpt lat="38.0708483" lon="15.8298233"><ele>1182.0</ele><time>2026-04-24T10:43:06.365Z</time></trkpt><trkpt lat="38.0708883" lon="15.829735"><ele>1183.4</ele><time>2026-04-24T10:43:07.366Z</time></trkpt><trkpt lat="38.0709367" lon="15.8296417"><ele>1184.8000000000002</ele><time>2026-04-24T10:43:08.365Z</time></trkpt><trkpt lat="38.0709933" lon="15.82955"><ele>1186.2</ele><time>2026-04-24T10:43:09.365Z</time></trkpt><trkpt lat="38.0710417" lon="15.8294533"><ele>1187.6000000000001</ele><time>2026-04-24T10:43:10.366Z</time></trkpt><trkpt lat="38.0710767" lon="15.8293733"><ele>1189.0</ele><time>2026-04-24T10:43:11.365Z</time></trkpt><trkpt lat="38.0711533" lon="15.8292683"><ele>1190.6000000000001</ele><time>2026-04-24T10:43:13.366Z</time></trkpt><trkpt lat="38.07126" lon="15.8292183"><ele>1192.2</ele><time>2026-04-24T10:43:15.366Z</time></trkpt><trkpt lat="38.07135" lon="15.8292017"><ele>1193.8000000000002</ele><time>2026-04-24T10:43:16.366Z</time></trkpt><trkpt lat="38.0714467" lon="15.82919"><ele>1195.4</ele><time>2026-04-24T10:43:17.365Z</time></trkpt><trkpt lat="38.0715383" lon="15.8291583"><ele>1197.0</ele><time>2026-04-24T10:43:18.365Z</time></trkpt><trkpt lat="38.0716067" lon="15.8291283"><ele>1197.0</ele><time>2026-04-24T10:43:19.365Z</time></trkpt><trkpt lat="38.0716783" lon="15.8290483"><ele>1197.0</ele><time>2026-04-24T10:43:21.366Z</time></trkpt><trkpt lat="38.0716767" lon="15.8289617"><ele>1197.0</ele><time>2026-04-24T10:43:23.365Z</time></trkpt><trkpt lat="38.0715633" lon="15.8289217"><ele>1197.0</ele><time>2026-04-24T10:43:25.365Z</time></trkpt><trkpt lat="38.0714817" lon="15.82891"><ele>1197.0</ele><time>2026-04-24T10:43:26.366Z</time></trkpt><trkpt lat="38.0713917" lon="15.8289033"><ele>1197.0</ele><time>2026-04-24T10:43:27.366Z</time></trkpt><trkpt lat="38.0712867" lon="15.8289267"><ele>1197.0</ele><time>2026-04-24T10:43:28.366Z</time></trkpt><trkpt lat="38.0711133" lon="15.8289533"><ele>1197.0</ele><time>2026-04-24T10:43:29.365Z</time></trkpt><trkpt lat="38.0709967" lon="15.8289667"><ele>1197.0</ele><time>2026-04-24T10:43:30.366Z</time></trkpt><trkpt lat="38.0708967" lon="15.8289633"><ele>1197.0</ele><time>2026-04-24T10:43:31.365Z</time></trkpt><trkpt lat="38.07081" lon="15.8289417"><ele>1197.0</ele><time>2026-04-24T10:43:32.365Z</time></trkpt><trkpt lat="38.0707517" lon="15.82889"><ele>1197.0</ele><time>2026-04-24T10:43:33.365Z</time></trkpt><trkpt lat="38.0707033" lon="15.82883"><ele>1197.0</ele><time>2026-04-24T10:43:34.366Z</time></trkpt><trkpt lat="38.0706567" lon="15.8286833"><ele>1197.0</ele><time>2026-04-24T10:43:36.366Z</time></trkpt><trkpt lat="38.0706367" lon="15.828605"><ele>1197.0</ele><time>2026-04-24T10:43:37.365Z</time></trkpt><trkpt lat="38.070635" lon="15.82851"><ele>1197.5</ele><time>2026-04-24T10:43:38.365Z</time></trkpt><trkpt lat="38.0706333" lon="15.8284083"><ele>1198.0</ele><time>2026-04-24T10:43:39.365Z</time></trkpt><trkpt lat="38.0706283" lon="15.828315"><ele>1198.5</ele><time>2026-04-24T10:43:40.366Z</time></trkpt><trkpt lat="38.07063" lon="15.8282167"><ele>1199.0</ele><time>2026-04-24T10:43:41.366Z</time></trkpt><trkpt lat="38.07065" lon="15.8281083"><ele>1199.5</ele><time>2026-04-24T10:43:42.365Z</time></trkpt><trkpt lat="38.0706667" lon="15.82801"><ele>1200.0</ele><time>2026-04-24T10:43:43.366Z</time></trkpt><trkpt lat="38.0707083" lon="15.827905"><ele>1200.0</ele><time>2026-04-24T10:43:44.366Z</time></trkpt><trkpt lat="38.0707667" lon="15.8278117"><ele>1200.0</ele><time>2026-04-24T10:43:45.366Z</time></trkpt><trkpt lat="38.07084" lon="15.8277233"><ele>1200.0</ele><time>2026-04-24T10:43:46.366Z</time></trkpt><trkpt lat="38.0708967" lon="15.8276583"><ele>1200.0</ele><time>2026-04-24T10:43:47.365Z</time></trkpt><trkpt lat="38.070955" lon="15.8275467"><ele>1200.0</ele><time>2026-04-24T10:43:49.365Z</time></trkpt><trkpt lat="38.0709017" lon="15.8274567"><ele>1202.1666666666667</ele><time>2026-04-24T10:43:51.365Z</time></trkpt><trkpt lat="38.0708033" lon="15.82741"><ele>1204.3333333333333</ele><time>2026-04-24T10:43:52.365Z</time></trkpt><trkpt lat="38.0707433" lon="15.8273767"><ele>1206.5</ele><time>2026-04-24T10:43:53.366Z</time></trkpt><trkpt lat="38.0706817" lon="15.82735"><ele>1208.6666666666665</ele><time>2026-04-24T10:43:54.365Z</time></trkpt><trkpt lat="38.0705617" lon="15.82728"><ele>1210.8333333333333</ele><time>2026-04-24T10:43:56.366Z</time></trkpt><trkpt lat="38.0705033" lon="15.8272083"><ele>1213.0</ele><time>2026-04-24T10:43:57.365Z</time></trkpt><trkpt lat="38.07046" lon="15.8271467"><ele>1213.0</ele><time>2026-04-24T10:43:58.365Z</time></trkpt><trkpt lat="38.0704217" lon="15.82703"><ele>1213.0</ele><time>2026-04-24T10:43:59.366Z</time></trkpt><trkpt lat="38.07039" lon="15.8269217"><ele>1213.0</ele><time>2026-04-24T10:44:00.365Z</time></trkpt><trkpt lat="38.0703533" lon="15.8267983"><ele>1213.0</ele><time>2026-04-24T10:44:01.366Z</time></trkpt><trkpt lat="38.0703367" lon="15.8266883"><ele>1213.0</ele><time>2026-04-24T10:44:02.365Z</time></trkpt><trkpt lat="38.0703283" lon="15.8265633"><ele>1212.5</ele><time>2026-04-24T10:44:03.366Z</time></trkpt><trkpt lat="38.0703583" lon="15.8264217"><ele>1212.0</ele><time>2026-04-24T10:44:04.365Z</time></trkpt><trkpt lat="38.0704" lon="15.8262617"><ele>1211.5</ele><time>2026-04-24T10:44:05.365Z</time></trkpt><trkpt lat="38.0704417" lon="15.82608"><ele>1211.0</ele><time>2026-04-24T10:44:06.365Z</time></trkpt><trkpt lat="38.0704933" lon="15.8258867"><ele>1211.0</ele><time>2026-04-24T10:44:07.366Z</time></trkpt><trkpt lat="38.070545" lon="15.8257"><ele>1211.0</ele><time>2026-04-24T10:44:08.366Z</time></trkpt><trkpt lat="38.0705933" lon="15.8255267"><ele>1211.0</ele><time>2026-04-24T10:44:09.365Z</time></trkpt><trkpt lat="38.0706283" lon="15.8253717"><ele>1211.0</ele><time>2026-04-24T10:44:10.366Z</time></trkpt><trkpt lat="38.0706533" lon="15.8252183"><ele>1209.75</ele><time>2026-04-24T10:44:11.366Z</time></trkpt><trkpt lat="38.070695" lon="15.82508"><ele>1208.5</ele><time>2026-04-24T10:44:12.365Z</time></trkpt><trkpt lat="38.070725" lon="15.8249533"><ele>1207.25</ele><time>2026-04-24T10:44:13.366Z</time></trkpt><trkpt lat="38.070755" lon="15.8248167"><ele>1206.0</ele><time>2026-04-24T10:44:14.365Z</time></trkpt><trkpt lat="38.0707833" lon="15.82467"><ele>1206.0</ele><time>2026-04-24T10:44:15.365Z</time></trkpt><trkpt lat="38.0708167" lon="15.8245267"><ele>1206.0</ele><time>2026-04-24T10:44:16.365Z</time></trkpt><trkpt lat="38.0708633" lon="15.8243883"><ele>1206.0</ele><time>2026-04-24T10:44:17.366Z</time></trkpt><trkpt lat="38.070915" lon="15.8242483"><ele>1206.0</ele><time>2026-04-24T10:44:18.365Z</time></trkpt><trkpt lat="38.0709767" lon="15.8241117"><ele>1205.3999999999999</ele><time>2026-04-24T10:44:19.366Z</time></trkpt><trkpt lat="38.0710367" lon="15.823985"><ele>1204.8</ele><time>2026-04-24T10:44:20.365Z</time></trkpt><trkpt lat="38.0711033" lon="15.8238633"><ele>1204.1999999999998</ele><time>2026-04-24T10:44:21.365Z</time></trkpt><trkpt lat="38.0711633" lon="15.8237467"><ele>1203.6</ele><time>2026-04-24T10:44:22.365Z</time></trkpt><trkpt lat="38.0712217" lon="15.8236417"><ele>1203.0</ele><time>2026-04-24T10:44:23.366Z</time></trkpt><trkpt lat="38.0712817" lon="15.8235483"><ele>1203.6</ele><time>2026-04-24T10:44:24.365Z</time></trkpt><trkpt lat="38.0713333" lon="15.82347"><ele>1204.1999999999998</ele><time>2026-04-24T10:44:25.365Z</time></trkpt><trkpt lat="38.0713983" lon="15.8233817"><ele>1204.8</ele><time>2026-04-24T10:44:26.365Z</time></trkpt><trkpt lat="38.0714767" lon="15.82327"><ele>1205.3999999999999</ele><time>2026-04-24T10:44:27.365Z</time></trkpt><trkpt lat="38.071555" lon="15.8231583"><ele>1206.0</ele><time>2026-04-24T10:44:28.365Z</time></trkpt><trkpt lat="38.07164" lon="15.8230417"><ele>1206.0</ele><time>2026-04-24T10:44:29.366Z</time></trkpt><trkpt lat="38.0717117" lon="15.8229383"><ele>1206.0</ele><time>2026-04-24T10:44:30.366Z</time></trkpt><trkpt lat="38.0717817" lon="15.822845"><ele>1206.0</ele><time>2026-04-24T10:44:31.365Z</time></trkpt><trkpt lat="38.0718317" lon="15.8227633"><ele>1206.0</ele><time>2026-04-24T10:44:32.365Z</time></trkpt><trkpt lat="38.071885" lon="15.822685"><ele>1206.0</ele><time>2026-04-24T10:44:33.366Z</time></trkpt><trkpt lat="38.0719333" lon="15.822595"><ele>1204.6666666666667</ele><time>2026-04-24T10:44:34.365Z</time></trkpt><trkpt lat="38.0719517" lon="15.8225067"><ele>1203.3333333333333</ele><time>2026-04-24T10:44:35.366Z</time></trkpt><trkpt lat="38.0719833" lon="15.822385"><ele>1202.0</ele><time>2026-04-24T10:44:37.365Z</time></trkpt><trkpt lat="38.0719017" lon="15.8222883"><ele>1200.6666666666665</ele><time>2026-04-24T10:44:40.366Z</time></trkpt><trkpt lat="38.07183" lon="15.82227"><ele>1199.3333333333333</ele><time>2026-04-24T10:44:41.365Z</time></trkpt><trkpt lat="38.0717467" lon="15.82225"><ele>1198.0</ele><time>2026-04-24T10:44:42.366Z</time></trkpt><trkpt lat="38.07165" lon="15.8222317"><ele>1198.0</ele><time>2026-04-24T10:44:43.365Z</time></trkpt><trkpt lat="38.0715617" lon="15.82221"><ele>1198.0</ele><time>2026-04-24T10:44:44.365Z</time></trkpt><trkpt lat="38.0714933" lon="15.8221833"><ele>1198.0</ele><time>2026-04-24T10:44:45.366Z</time></trkpt><trkpt lat="38.071455" lon="15.8220667"><ele>1198.0</ele><time>2026-04-24T13:13:40.37Z</time></trkpt><trkpt lat="38.0715217" lon="15.822115"><ele>1198.0</ele><time>2026-04-24T13:13:43.371Z</time></trkpt><trkpt lat="38.0716" lon="15.8221667"><ele>1198.0</ele><time>2026-04-24T13:13:45.37Z</time></trkpt><trkpt lat="38.0717167" lon="15.8222183"><ele>1198.0</ele><time>2026-04-24T13:13:47.37Z</time></trkpt><trkpt lat="38.071795" lon="15.8221933"><ele>1198.0</ele><time>2026-04-24T13:13:49.37Z</time></trkpt><trkpt lat="38.07178" lon="15.8220483"><ele>1198.0</ele><time>2026-04-24T13:13:52.37Z</time></trkpt><trkpt lat="38.0717383" lon="15.8219683"><ele>1198.0</ele><time>2026-04-24T13:13:53.37Z</time></trkpt><trkpt lat="38.071685" lon="15.8218817"><ele>1198.0</ele><time>2026-04-24T13:13:54.371Z</time></trkpt><trkpt lat="38.071625" lon="15.821775"><ele>1195.75</ele><time>2026-04-24T13:13:55.37Z</time></trkpt><trkpt lat="38.0715583" lon="15.8216617"><ele>1193.5</ele><time>2026-04-24T13:13:56.37Z</time></trkpt><trkpt lat="38.0714917" lon="15.8215417"><ele>1191.25</ele><time>2026-04-24T13:13:57.37Z</time></trkpt><trkpt lat="38.0714167" lon="15.8214167"><ele>1189.0</ele><time>2026-04-24T13:13:58.37Z</time></trkpt><trkpt lat="38.07133" lon="15.8212983"><ele>1189.0</ele><time>2026-04-24T13:13:59.37Z</time></trkpt><trkpt lat="38.071265" lon="15.8211717"><ele>1189.0</ele><time>2026-04-24T13:14:00.37Z</time></trkpt><trkpt lat="38.0712167" lon="15.8210483"><ele>1189.0</ele><time>2026-04-24T13:14:01.371Z</time></trkpt><trkpt lat="38.0711917" lon="15.8209017"><ele>1189.0</ele><time>2026-04-24T13:14:02.37Z</time></trkpt><trkpt lat="38.0711683" lon="15.8207267"><ele>1188.0</ele><time>2026-04-24T13:14:03.37Z</time></trkpt><trkpt lat="38.0711467" lon="15.820535"><ele>1187.0</ele><time>2026-04-24T13:14:04.37Z</time></trkpt><trkpt lat="38.0711217" lon="15.8203217"><ele>1186.0</ele><time>2026-04-24T13:14:05.37Z</time></trkpt><trkpt lat="38.071085" lon="15.820085"><ele>1186.0</ele><time>2026-04-24T13:14:06.37Z</time></trkpt><trkpt lat="38.071045" lon="15.8198483"><ele>1186.0</ele><time>2026-04-24T13:14:07.371Z</time></trkpt><trkpt lat="38.0710067" lon="15.8196067"><ele>1186.0</ele><time>2026-04-24T13:14:08.371Z</time></trkpt><trkpt lat="38.070965" lon="15.8193583"><ele>1184.6666666666665</ele><time>2026-04-24T13:14:09.371Z</time></trkpt><trkpt lat="38.0709117" lon="15.8190983"><ele>1183.3333333333333</ele><time>2026-04-24T13:14:10.371Z</time></trkpt><trkpt lat="38.0708433" lon="15.8188367"><ele>1182.0</ele><time>2026-04-24T13:14:11.371Z</time></trkpt><trkpt lat="38.0707733" lon="15.818575"><ele>1181.6666666666667</ele><time>2026-04-24T13:14:12.37Z</time></trkpt><trkpt lat="38.0707117" lon="15.8183067"><ele>1181.3333333333335</ele><time>2026-04-24T13:14:13.371Z</time></trkpt><trkpt lat="38.0706483" lon="15.8180367"><ele>1181.0</ele><time>2026-04-24T13:14:14.37Z</time></trkpt><trkpt lat="38.0705933" lon="15.8177733"><ele>1180.0</ele><time>2026-04-24T13:14:15.37Z</time></trkpt><trkpt lat="38.0705367" lon="15.81752"><ele>1179.0</ele><time>2026-04-24T13:14:16.37Z</time></trkpt><trkpt lat="38.0704783" lon="15.8172867"><ele>1178.0</ele><time>2026-04-24T13:14:17.37Z</time></trkpt><trkpt lat="38.0704233" lon="15.81707"><ele>1178.0</ele><time>2026-04-24T13:14:18.371Z</time></trkpt><trkpt lat="38.0703883" lon="15.8168717"><ele>1178.0</ele><time>2026-04-24T13:14:19.37Z</time></trkpt><trkpt lat="38.0703717" lon="15.8166817"><ele>1178.0</ele><time>2026-04-24T13:14:20.37Z</time></trkpt><trkpt lat="38.0703817" lon="15.8164917"><ele>1177.0</ele><time>2026-04-24T13:14:21.37Z</time></trkpt><trkpt lat="38.07042" lon="15.81629"><ele>1176.0</ele><time>2026-04-24T13:14:22.37Z</time></trkpt><trkpt lat="38.0704667" lon="15.8160817"><ele>1175.0</ele><time>2026-04-24T13:14:23.371Z</time></trkpt><trkpt lat="38.070545" lon="15.815865"><ele>1175.0</ele><time>2026-04-24T13:14:24.371Z</time></trkpt><trkpt lat="38.0706067" lon="15.8156217"><ele>1175.0</ele><time>2026-04-24T13:14:25.371Z</time></trkpt><trkpt lat="38.070645" lon="15.815355"><ele>1175.0</ele><time>2026-04-24T13:14:26.37Z</time></trkpt><trkpt lat="38.0706617" lon="15.8150733"><ele>1174.0</ele><time>2026-04-24T13:14:27.37Z</time></trkpt><trkpt lat="38.0706583" lon="15.8147883"><ele>1173.0</ele><time>2026-04-24T13:14:28.371Z</time></trkpt><trkpt lat="38.0706583" lon="15.814495"><ele>1172.6666666666667</ele><time>2026-04-24T13:14:29.37Z</time></trkpt><trkpt lat="38.0706583" lon="15.814205"><ele>1172.3333333333335</ele><time>2026-04-24T13:14:30.371Z</time></trkpt><trkpt lat="38.07067" lon="15.813945"><ele>1172.0</ele><time>2026-04-24T13:14:31.37Z</time></trkpt><trkpt lat="38.0706917" lon="15.8137017"><ele>1171.0</ele><time>2026-04-24T13:14:32.37Z</time></trkpt><trkpt lat="38.0707283" lon="15.8134683"><ele>1170.0</ele><time>2026-04-24T13:14:33.371Z</time></trkpt><trkpt lat="38.070775" lon="15.8132583"><ele>1169.0</ele><time>2026-04-24T13:14:34.371Z</time></trkpt><trkpt lat="38.0708317" lon="15.8130583"><ele>1168.0</ele><time>2026-04-24T13:14:35.37Z</time></trkpt><trkpt lat="38.0708667" lon="15.81284"><ele>1167.0</ele><time>2026-04-24T13:14:36.371Z</time></trkpt><trkpt lat="38.0708717" lon="15.8125933"><ele>1166.0</ele><time>2026-04-24T13:14:37.37Z</time></trkpt><trkpt lat="38.070865" lon="15.81233"><ele>1165.3333333333335</ele><time>2026-04-24T13:14:38.37Z</time></trkpt><trkpt lat="38.07086" lon="15.8120567"><ele>1164.6666666666667</ele><time>2026-04-24T13:14:39.371Z</time></trkpt><trkpt lat="38.0708517" lon="15.81178"><ele>1164.0</ele><time>2026-04-24T13:14:40.37Z</time></trkpt><trkpt lat="38.0708483" lon="15.8114883"><ele>1163.5</ele><time>2026-04-24T13:14:41.37Z</time></trkpt><trkpt lat="38.0708417" lon="15.8111933"><ele>1163.0</ele><time>2026-04-24T13:14:42.371Z</time></trkpt><trkpt lat="38.070835" lon="15.810895"><ele>1161.5</ele><time>2026-04-24T13:14:43.37Z</time></trkpt><trkpt lat="38.0708333" lon="15.81059"><ele>1160.0</ele><time>2026-04-24T13:14:44.371Z</time></trkpt><trkpt lat="38.0708317" lon="15.8102767"><ele>1158.0</ele><time>2026-04-24T13:14:45.371Z</time></trkpt><trkpt lat="38.0708267" lon="15.8099683"><ele>1156.0</ele><time>2026-04-24T13:14:46.37Z</time></trkpt><trkpt lat="38.0708367" lon="15.80967"><ele>1156.0</ele><time>2026-04-24T13:14:47.37Z</time></trkpt><trkpt lat="38.0708567" lon="15.80937"><ele>1156.0</ele><time>2026-04-24T13:14:48.37Z</time></trkpt><trkpt lat="38.070895" lon="15.8090683"><ele>1155.0</ele><time>2026-04-24T13:14:49.371Z</time></trkpt><trkpt lat="38.0709417" lon="15.8087533"><ele>1154.0</ele><time>2026-04-24T13:14:50.37Z</time></trkpt><trkpt lat="38.0709967" lon="15.8084467"><ele>1151.0</ele><time>2026-04-24T13:14:51.37Z</time></trkpt><trkpt lat="38.071055" lon="15.808165"><ele>1148.0</ele><time>2026-04-24T13:14:52.37Z</time></trkpt><trkpt lat="38.0711183" lon="15.8078967"><ele>1146.3333333333335</ele><time>2026-04-24T13:14:53.37Z</time></trkpt><trkpt lat="38.071185" lon="15.80766"><ele>1144.6666666666667</ele><time>2026-04-24T13:14:54.37Z</time></trkpt><trkpt lat="38.0712583" lon="15.8074417"><ele>1143.0</ele><time>2026-04-24T13:14:55.371Z</time></trkpt><trkpt lat="38.0713233" lon="15.80722"><ele>1143.0</ele><time>2026-04-24T13:14:56.37Z</time></trkpt><trkpt lat="38.0713733" lon="15.8069733"><ele>1143.0</ele><time>2026-04-24T13:14:57.371Z</time></trkpt><trkpt lat="38.071405" lon="15.8066983"><ele>1143.0</ele><time>2026-04-24T13:14:58.37Z</time></trkpt><trkpt lat="38.07142" lon="15.806395"><ele>1142.5</ele><time>2026-04-24T13:14:59.37Z</time></trkpt><trkpt lat="38.071435" lon="15.8060883"><ele>1142.0</ele><time>2026-04-24T13:15:00.37Z</time></trkpt><trkpt lat="38.0714467" lon="15.8057717"><ele>1142.0</ele><time>2026-04-24T13:15:01.371Z</time></trkpt><trkpt lat="38.0714583" lon="15.805465"><ele>1142.0</ele><time>2026-04-24T13:15:02.37Z</time></trkpt><trkpt lat="38.0714767" lon="15.805165"><ele>1142.5</ele><time>2026-04-24T13:15:03.371Z</time></trkpt><trkpt lat="38.0715217" lon="15.804855"><ele>1143.0</ele><time>2026-04-24T13:15:04.371Z</time></trkpt><trkpt lat="38.07157" lon="15.8045533"><ele>1142.5</ele><time>2026-04-24T13:15:05.37Z</time></trkpt><trkpt lat="38.0716233" lon="15.80426"><ele>1142.0</ele><time>2026-04-24T13:15:06.371Z</time></trkpt><trkpt lat="38.0716733" lon="15.8039783"><ele>1142.0</ele><time>2026-04-24T13:15:07.37Z</time></trkpt><trkpt lat="38.0717283" lon="15.80371"><ele>1142.0</ele><time>2026-04-24T13:15:08.371Z</time></trkpt><trkpt lat="38.07177" lon="15.8034667"><ele>1142.0</ele><time>2026-04-24T13:15:09.37Z</time></trkpt><trkpt lat="38.0718017" lon="15.8032433"><ele>1141.6666666666667</ele><time>2026-04-24T13:15:10.37Z</time></trkpt><trkpt lat="38.0718183" lon="15.803015"><ele>1141.3333333333333</ele><time>2026-04-24T13:15:11.37Z</time></trkpt><trkpt lat="38.0718083" lon="15.8027883"><ele>1141.0</ele><time>2026-04-24T13:15:12.37Z</time></trkpt><trkpt lat="38.07179" lon="15.8025833"><ele>1140.5</ele><time>2026-04-24T13:15:13.37Z</time></trkpt><trkpt lat="38.0717683" lon="15.8024"><ele>1140.0</ele><time>2026-04-24T13:15:14.37Z</time></trkpt><trkpt lat="38.07173" lon="15.8022233"><ele>1139.5</ele><time>2026-04-24T13:15:15.371Z</time></trkpt><trkpt lat="38.0717017" lon="15.8020667"><ele>1139.0</ele><time>2026-04-24T13:15:16.371Z</time></trkpt><trkpt lat="38.071675" lon="15.8019283"><ele>1138.4</ele><time>2026-04-24T13:15:17.37Z</time></trkpt><trkpt lat="38.07165" lon="15.801805"><ele>1137.8000000000002</ele><time>2026-04-24T13:15:18.37Z</time></trkpt><trkpt lat="38.07163" lon="15.80168"><ele>1137.1999999999998</ele><time>2026-04-24T13:15:19.37Z</time></trkpt><trkpt lat="38.071605" lon="15.80154"><ele>1136.6</ele><time>2026-04-24T13:15:20.371Z</time></trkpt><trkpt lat="38.0715867" lon="15.801395"><ele>1136.0</ele><time>2026-04-24T13:15:21.37Z</time></trkpt><trkpt lat="38.0715567" lon="15.8012433"><ele>1135.75</ele><time>2026-04-24T13:15:22.37Z</time></trkpt><trkpt lat="38.071525" lon="15.8010783"><ele>1135.5</ele><time>2026-04-24T13:15:23.37Z</time></trkpt><trkpt lat="38.071495" lon="15.8009033"><ele>1135.25</ele><time>2026-04-24T13:15:24.371Z</time></trkpt><trkpt lat="38.0714567" lon="15.8007233"><ele>1135.0</ele><time>2026-04-24T13:15:25.37Z</time></trkpt><trkpt lat="38.07142" lon="15.800555"><ele>1134.0</ele><time>2026-04-24T13:15:26.371Z</time></trkpt><trkpt lat="38.0713883" lon="15.8004"><ele>1133.0</ele><time>2026-04-24T13:15:27.37Z</time></trkpt><trkpt lat="38.07135" lon="15.8002617"><ele>1132.0</ele><time>2026-04-24T13:15:28.371Z</time></trkpt><trkpt lat="38.0713233" lon="15.8001167"><ele>1131.0</ele><time>2026-04-24T13:15:29.37Z</time></trkpt><trkpt lat="38.071295" lon="15.79998"><ele>1131.0</ele><time>2026-04-24T13:15:30.37Z</time></trkpt><trkpt lat="38.0712683" lon="15.7998417"><ele>1131.0</ele><time>2026-04-24T13:15:31.371Z</time></trkpt><trkpt lat="38.0712417" lon="15.7996983"><ele>1131.0</ele><time>2026-04-24T13:15:32.37Z</time></trkpt><trkpt lat="38.0712067" lon="15.799545"><ele>1131.0</ele><time>2026-04-24T13:15:33.37Z</time></trkpt><trkpt lat="38.0711583" lon="15.79939"><ele>1131.2</ele><time>2026-04-24T13:15:34.371Z</time></trkpt><trkpt lat="38.0711183" lon="15.7992367"><ele>1131.3999999999999</ele><time>2026-04-24T13:15:35.37Z</time></trkpt><trkpt lat="38.07109" lon="15.7991033"><ele>1131.6</ele><time>2026-04-24T13:15:36.37Z</time></trkpt><trkpt lat="38.0710683" lon="15.7989733"><ele>1131.8</ele><time>2026-04-24T13:15:37.371Z</time></trkpt><trkpt lat="38.07104" lon="15.79884"><ele>1132.0</ele><time>2026-04-24T13:15:38.371Z</time></trkpt><trkpt lat="38.0710117" lon="15.7987067"><ele>1132.0</ele><time>2026-04-24T13:15:39.371Z</time></trkpt><trkpt lat="38.0709783" lon="15.7985733"><ele>1132.0</ele><time>2026-04-24T13:15:40.371Z</time></trkpt><trkpt lat="38.0709483" lon="15.7984317"><ele>1132.0</ele><time>2026-04-24T13:15:41.37Z</time></trkpt><trkpt lat="38.0709167" lon="15.7982717"><ele>1132.0</ele><time>2026-04-24T13:15:42.37Z</time></trkpt><trkpt lat="38.07089" lon="15.7981217"><ele>1131.8</ele><time>2026-04-24T13:15:43.371Z</time></trkpt><trkpt lat="38.0708567" lon="15.797975"><ele>1131.6</ele><time>2026-04-24T13:15:44.37Z</time></trkpt><trkpt lat="38.07083" lon="15.7978283"><ele>1131.3999999999999</ele><time>2026-04-24T13:15:45.371Z</time></trkpt><trkpt lat="38.0708033" lon="15.797695"><ele>1131.2</ele><time>2026-04-24T13:15:46.37Z</time></trkpt><trkpt lat="38.0707833" lon="15.797575"><ele>1131.0</ele><time>2026-04-24T13:15:47.37Z</time></trkpt><trkpt lat="38.0707683" lon="15.7974617"><ele>1129.6666666666667</ele><time>2026-04-24T13:15:48.37Z</time></trkpt><trkpt lat="38.0707517" lon="15.7973583"><ele>1128.3333333333333</ele><time>2026-04-24T13:15:49.371Z</time></trkpt><trkpt lat="38.0707333" lon="15.7972567"><ele>1127.0</ele><time>2026-04-24T13:15:50.37Z</time></trkpt><trkpt lat="38.0707183" lon="15.79716"><ele>1125.6666666666665</ele><time>2026-04-24T13:15:51.37Z</time></trkpt><trkpt lat="38.0706983" lon="15.7970633"><ele>1124.3333333333333</ele><time>2026-04-24T13:15:52.371Z</time></trkpt><trkpt lat="38.0706783" lon="15.79697"><ele>1123.0</ele><time>2026-04-24T13:15:53.37Z</time></trkpt><trkpt lat="38.07065" lon="15.796885"><ele>1122.5714285714284</ele><time>2026-04-24T13:15:54.37Z</time></trkpt><trkpt lat="38.0706183" lon="15.7968083"><ele>1122.142857142857</ele><time>2026-04-24T13:15:55.371Z</time></trkpt><trkpt lat="38.0705733" lon="15.796735"><ele>1121.7142857142858</ele><time>2026-04-24T13:15:56.371Z</time></trkpt><trkpt lat="38.070515" lon="15.7966867"><ele>1121.2857142857142</ele><time>2026-04-24T13:15:57.371Z</time></trkpt><trkpt lat="38.0704533" lon="15.7966333"><ele>1120.857142857143</ele><time>2026-04-24T13:15:58.37Z</time></trkpt><trkpt lat="38.0703883" lon="15.7965783"><ele>1120.4285714285713</ele><time>2026-04-24T13:15:59.37Z</time></trkpt><trkpt lat="38.0703183" lon="15.7965217"><ele>1120.0</ele><time>2026-04-24T13:16:00.37Z</time></trkpt><trkpt lat="38.070245" lon="15.79647"><ele>1120.0</ele><time>2026-04-24T13:16:01.371Z</time></trkpt><trkpt lat="38.0701733" lon="15.796415"><ele>1120.0</ele><time>2026-04-24T13:16:02.37Z</time></trkpt><trkpt lat="38.0700983" lon="15.79637"><ele>1120.0</ele><time>2026-04-24T13:16:03.37Z</time></trkpt><trkpt lat="38.0700267" lon="15.796335"><ele>1120.0</ele><time>2026-04-24T13:16:04.37Z</time></trkpt><trkpt lat="38.069955" lon="15.7963283"><ele>1120.0</ele><time>2026-04-24T13:16:05.37Z</time></trkpt><trkpt lat="38.069885" lon="15.796345"><ele>1120.0</ele><time>2026-04-24T13:16:06.371Z</time></trkpt><trkpt lat="38.0698017" lon="15.796365"><ele>1119.6</ele><time>2026-04-24T13:16:07.37Z</time></trkpt><trkpt lat="38.0697217" lon="15.7963883"><ele>1119.2</ele><time>2026-04-24T13:16:08.371Z</time></trkpt><trkpt lat="38.0696333" lon="15.7964067"><ele>1118.8</ele><time>2026-04-24T13:16:09.37Z</time></trkpt><trkpt lat="38.0695383" lon="15.7964267"><ele>1118.4</ele><time>2026-04-24T13:16:10.37Z</time></trkpt><trkpt lat="38.0694417" lon="15.79645"><ele>1118.0</ele><time>2026-04-24T13:16:11.371Z</time></trkpt><trkpt lat="38.0693517" lon="15.79647"><ele>1118.0</ele><time>2026-04-24T13:16:12.37Z</time></trkpt><trkpt lat="38.0692567" lon="15.7964967"><ele>1118.0</ele><time>2026-04-24T13:16:13.37Z</time></trkpt><trkpt lat="38.069175" lon="15.79652"><ele>1118.0</ele><time>2026-04-24T13:16:14.371Z</time></trkpt><trkpt lat="38.0690967" lon="15.796535"><ele>1118.0</ele><time>2026-04-24T13:16:15.371Z</time></trkpt><trkpt lat="38.0690233" lon="15.7965467"><ele>1118.0</ele><time>2026-04-24T13:16:16.37Z</time></trkpt><trkpt lat="38.0689517" lon="15.7965467"><ele>1118.0</ele><time>2026-04-24T13:16:17.371Z</time></trkpt><trkpt lat="38.0688833" lon="15.79652"><ele>1117.6</ele><time>2026-04-24T13:16:18.371Z</time></trkpt><trkpt lat="38.0688217" lon="15.7964617"><ele>1117.1999999999998</ele><time>2026-04-24T13:16:19.37Z</time></trkpt><trkpt lat="38.06877" lon="15.7963733"><ele>1116.8</ele><time>2026-04-24T13:16:20.37Z</time></trkpt><trkpt lat="38.068725" lon="15.7962633"><ele>1116.3999999999999</ele><time>2026-04-24T13:16:21.371Z</time></trkpt><trkpt lat="38.068675" lon="15.7961417"><ele>1116.0</ele><time>2026-04-24T13:16:22.371Z</time></trkpt><trkpt lat="38.06862" lon="15.7960067"><ele>1115.75</ele><time>2026-04-24T13:16:23.37Z</time></trkpt><trkpt lat="38.0685567" lon="15.7958633"><ele>1115.5</ele><time>2026-04-24T13:16:24.371Z</time></trkpt><trkpt lat="38.06849" lon="15.7957133"><ele>1115.25</ele><time>2026-04-24T13:16:25.371Z</time></trkpt><trkpt lat="38.0684233" lon="15.7955633"><ele>1115.0</ele><time>2026-04-24T13:16:26.37Z</time></trkpt><trkpt lat="38.068355" lon="15.7953933"><ele>1115.0</ele><time>2026-04-24T13:16:27.37Z</time></trkpt><trkpt lat="38.0682917" lon="15.79523"><ele>1115.0</ele><time>2026-04-24T13:16:28.371Z</time></trkpt><trkpt lat="38.0682283" lon="15.7950683"><ele>1115.0</ele><time>2026-04-24T13:16:29.37Z</time></trkpt><trkpt lat="38.06817" lon="15.7949183"><ele>1115.0</ele><time>2026-04-24T13:16:30.37Z</time></trkpt><trkpt lat="38.068105" lon="15.7947583"><ele>1114.25</ele><time>2026-04-24T13:16:31.371Z</time></trkpt><trkpt lat="38.0680417" lon="15.7946033"><ele>1113.5</ele><time>2026-04-24T13:16:32.37Z</time></trkpt><trkpt lat="38.0679733" lon="15.7944567"><ele>1112.75</ele><time>2026-04-24T13:16:33.371Z</time></trkpt><trkpt lat="38.0679083" lon="15.7943067"><ele>1112.0</ele><time>2026-04-24T13:16:34.37Z</time></trkpt><trkpt lat="38.0678417" lon="15.7941483"><ele>1111.0</ele><time>2026-04-24T13:16:35.371Z</time></trkpt><trkpt lat="38.0677767" lon="15.7939967"><ele>1110.0</ele><time>2026-04-24T13:16:36.37Z</time></trkpt><trkpt lat="38.0677167" lon="15.7938533"><ele>1109.0</ele><time>2026-04-24T13:16:37.37Z</time></trkpt><trkpt lat="38.0676517" lon="15.7937133"><ele>1108.0</ele><time>2026-04-24T13:16:38.371Z</time></trkpt><trkpt lat="38.0675933" lon="15.7935817"><ele>1108.0</ele><time>2026-04-24T13:16:39.37Z</time></trkpt><trkpt lat="38.06753" lon="15.7934433"><ele>1108.0</ele><time>2026-04-24T13:16:40.37Z</time></trkpt><trkpt lat="38.0674617" lon="15.793295"><ele>1108.0</ele><time>2026-04-24T13:16:41.371Z</time></trkpt><trkpt lat="38.0673933" lon="15.793145"><ele>1108.0</ele><time>2026-04-24T13:16:42.37Z</time></trkpt><trkpt lat="38.0673233" lon="15.792985"><ele>1108.0</ele><time>2026-04-24T13:16:43.371Z</time></trkpt><trkpt lat="38.0672517" lon="15.79283"><ele>1108.0</ele><time>2026-04-24T13:16:44.371Z</time></trkpt><trkpt lat="38.0671883" lon="15.79267"><ele>1108.0</ele><time>2026-04-24T13:16:45.371Z</time></trkpt><trkpt lat="38.06712" lon="15.7924983"><ele>1108.0</ele><time>2026-04-24T13:16:46.37Z</time></trkpt><trkpt lat="38.0670633" lon="15.79232"><ele>1108.0</ele><time>2026-04-24T13:16:47.37Z</time></trkpt><trkpt lat="38.0670033" lon="15.79214"><ele>1108.0</ele><time>2026-04-24T13:16:48.371Z</time></trkpt><trkpt lat="38.0669483" lon="15.7919617"><ele>1108.0</ele><time>2026-04-24T13:16:49.37Z</time></trkpt><trkpt lat="38.0668967" lon="15.79179"><ele>1108.0</ele><time>2026-04-24T13:16:50.371Z</time></trkpt><trkpt lat="38.0668467" lon="15.791625"><ele>1108.0</ele><time>2026-04-24T13:16:51.371Z</time></trkpt><trkpt lat="38.0668067" lon="15.791475"><ele>1108.0</ele><time>2026-04-24T13:16:52.371Z</time></trkpt><trkpt lat="38.066785" lon="15.791315"><ele>1108.0</ele><time>2026-04-24T13:16:53.37Z</time></trkpt><trkpt lat="38.0667717" lon="15.7911517"><ele>1108.0</ele><time>2026-04-24T13:16:54.371Z</time></trkpt><trkpt lat="38.0667717" lon="15.7909683"><ele>1107.3333333333333</ele><time>2026-04-24T13:16:55.371Z</time></trkpt><trkpt lat="38.0667717" lon="15.7907833"><ele>1106.6666666666667</ele><time>2026-04-24T13:16:56.37Z</time></trkpt><trkpt lat="38.0667717" lon="15.79059"><ele>1106.0</ele><time>2026-04-24T13:16:57.37Z</time></trkpt><trkpt lat="38.0667817" lon="15.7903833"><ele>1106.0</ele><time>2026-04-24T13:16:58.37Z</time></trkpt><trkpt lat="38.066785" lon="15.7901867"><ele>1106.0</ele><time>2026-04-24T13:16:59.371Z</time></trkpt><trkpt lat="38.0667883" lon="15.7900017"><ele>1106.0</ele><time>2026-04-24T13:17:00.37Z</time></trkpt><trkpt lat="38.0667933" lon="15.7898317"><ele>1106.0</ele><time>2026-04-24T13:17:01.371Z</time></trkpt><trkpt lat="38.06679" lon="15.7896717"><ele>1105.8</ele><time>2026-04-24T13:17:02.37Z</time></trkpt><trkpt lat="38.066785" lon="15.7895317"><ele>1105.6</ele><time>2026-04-24T13:17:03.37Z</time></trkpt><trkpt lat="38.0667867" lon="15.78941"><ele>1105.4</ele><time>2026-04-24T13:17:04.37Z</time></trkpt><trkpt lat="38.0668083" lon="15.789315"><ele>1105.2</ele><time>2026-04-24T13:17:05.37Z</time></trkpt><trkpt lat="38.06685" lon="15.78925"><ele>1105.0</ele><time>2026-04-24T13:17:06.37Z</time></trkpt><trkpt lat="38.0669767" lon="15.78918"><ele>1104.4</ele><time>2026-04-24T13:17:08.371Z</time></trkpt><trkpt lat="38.0670533" lon="15.7891583"><ele>1103.8</ele><time>2026-04-24T13:17:09.37Z</time></trkpt><trkpt lat="38.0671367" lon="15.7891383"><ele>1103.2</ele><time>2026-04-24T13:17:10.371Z</time></trkpt><trkpt lat="38.067225" lon="15.789105"><ele>1102.6</ele><time>2026-04-24T13:17:11.371Z</time></trkpt><trkpt lat="38.0673167" lon="15.789065"><ele>1102.0</ele><time>2026-04-24T13:17:12.371Z</time></trkpt><trkpt lat="38.06742" lon="15.7890283"><ele>1101.6</ele><time>2026-04-24T13:17:13.371Z</time></trkpt><trkpt lat="38.0675233" lon="15.7889933"><ele>1101.2</ele><time>2026-04-24T13:17:14.371Z</time></trkpt><trkpt lat="38.067625" lon="15.7889583"><ele>1100.8</ele><time>2026-04-24T13:17:15.371Z</time></trkpt><trkpt lat="38.067715" lon="15.78892"><ele>1100.4</ele><time>2026-04-24T13:17:16.372Z</time></trkpt><trkpt lat="38.0677983" lon="15.7888817"><ele>1100.0</ele><time>2026-04-24T13:17:17.372Z</time></trkpt><trkpt lat="38.0678767" lon="15.7888483"><ele>1100.0</ele><time>2026-04-24T13:17:18.372Z</time></trkpt><trkpt lat="38.0679467" lon="15.7888133"><ele>1100.0</ele><time>2026-04-24T13:17:19.371Z</time></trkpt><trkpt lat="38.0680167" lon="15.788785"><ele>1100.0</ele><time>2026-04-24T13:17:20.371Z</time></trkpt><trkpt lat="38.068085" lon="15.7887567"><ele>1100.0</ele><time>2026-04-24T13:17:21.372Z</time></trkpt><trkpt lat="38.0681567" lon="15.7887267"><ele>1100.0</ele><time>2026-04-24T13:17:22.371Z</time></trkpt><trkpt lat="38.06823" lon="15.788695"><ele>1100.0</ele><time>2026-04-24T13:17:23.371Z</time></trkpt><trkpt lat="38.0682967" lon="15.7886533"><ele>1100.0</ele><time>2026-04-24T13:17:24.371Z</time></trkpt><trkpt lat="38.0683633" lon="15.78862"><ele>1099.5714285714287</ele><time>2026-04-24T13:17:25.371Z</time></trkpt><trkpt lat="38.0684333" lon="15.7886017"><ele>1099.142857142857</ele><time>2026-04-24T13:17:26.371Z</time></trkpt><trkpt lat="38.0685" lon="15.788565"><ele>1098.7142857142858</ele><time>2026-04-24T13:17:27.371Z</time></trkpt><trkpt lat="38.0685667" lon="15.788525"><ele>1098.2857142857142</ele><time>2026-04-24T13:17:28.371Z</time></trkpt><trkpt lat="38.0686317" lon="15.7884917"><ele>1097.857142857143</ele><time>2026-04-24T13:17:29.371Z</time></trkpt><trkpt lat="38.0687067" lon="15.7884617"><ele>1097.4285714285716</ele><time>2026-04-24T13:17:30.371Z</time></trkpt><trkpt lat="38.0687817" lon="15.7884333"><ele>1097.0</ele><time>2026-04-24T13:17:31.371Z</time></trkpt><trkpt lat="38.0688483" lon="15.7883967"><ele>1096.1666666666667</ele><time>2026-04-24T13:17:32.371Z</time></trkpt><trkpt lat="38.0689083" lon="15.78837"><ele>1095.3333333333335</ele><time>2026-04-24T13:17:33.372Z</time></trkpt><trkpt lat="38.06897" lon="15.7883367"><ele>1094.5</ele><time>2026-04-24T13:17:34.371Z</time></trkpt><trkpt lat="38.0690783" lon="15.7883033"><ele>1093.6666666666667</ele><time>2026-04-24T13:17:36.372Z</time></trkpt><trkpt lat="38.0691367" lon="15.7882717"><ele>1092.8333333333333</ele><time>2026-04-24T13:17:37.372Z</time></trkpt><trkpt lat="38.06925" lon="15.7882117"><ele>1092.0</ele><time>2026-04-24T13:17:39.372Z</time></trkpt><trkpt lat="38.069375" lon="15.788165"><ele>1091.1666666666667</ele><time>2026-04-24T13:17:41.372Z</time></trkpt><trkpt lat="38.0694483" lon="15.7881467"><ele>1090.3333333333333</ele><time>2026-04-24T13:17:42.371Z</time></trkpt><trkpt lat="38.0695133" lon="15.788135"><ele>1089.5</ele><time>2026-04-24T13:17:43.371Z</time></trkpt><trkpt lat="38.0695867" lon="15.7881067"><ele>1088.6666666666665</ele><time>2026-04-24T13:17:44.372Z</time></trkpt><trkpt lat="38.0696717" lon="15.7880667"><ele>1087.8333333333333</ele><time>2026-04-24T13:17:45.371Z</time></trkpt><trkpt lat="38.06976" lon="15.788025"><ele>1087.0</ele><time>2026-04-24T13:17:46.372Z</time></trkpt><trkpt lat="38.0698583" lon="15.7879717"><ele>1087.6</ele><time>2026-04-24T13:17:47.371Z</time></trkpt><trkpt lat="38.069955" lon="15.7879217"><ele>1088.2</ele><time>2026-04-24T13:17:48.371Z</time></trkpt><trkpt lat="38.0700583" lon="15.78788"><ele>1088.8</ele><time>2026-04-24T13:17:49.371Z</time></trkpt><trkpt lat="38.0701667" lon="15.787845"><ele>1089.4</ele><time>2026-04-24T13:17:50.372Z</time></trkpt><trkpt lat="38.0702767" lon="15.7878183"><ele>1090.0</ele><time>2026-04-24T13:17:51.371Z</time></trkpt><trkpt lat="38.0703617" lon="15.787755"><ele>1089.4</ele><time>2026-04-24T13:17:52.372Z</time></trkpt><trkpt lat="38.0704333" lon="15.7876533"><ele>1088.8</ele><time>2026-04-24T13:17:53.372Z</time></trkpt><trkpt lat="38.0704817" lon="15.7875467"><ele>1088.2</ele><time>2026-04-24T13:17:54.372Z</time></trkpt><trkpt lat="38.0705217" lon="15.7874267"><ele>1087.6</ele><time>2026-04-24T13:17:55.371Z</time></trkpt><trkpt lat="38.0705617" lon="15.787295"><ele>1087.0</ele><time>2026-04-24T13:17:56.372Z</time></trkpt><trkpt lat="38.0706" lon="15.78716"><ele>1087.0</ele><time>2026-04-24T13:17:57.372Z</time></trkpt><trkpt lat="38.0706433" lon="15.7870267"><ele>1087.0</ele><time>2026-04-24T13:17:58.371Z</time></trkpt><trkpt lat="38.070685" lon="15.7869017"><ele>1087.0</ele><time>2026-04-24T13:17:59.371Z</time></trkpt><trkpt lat="38.0707317" lon="15.7867883"><ele>1087.0</ele><time>2026-04-24T13:18:00.371Z</time></trkpt><trkpt lat="38.0707817" lon="15.7866917"><ele>1087.0</ele><time>2026-04-24T13:18:01.372Z</time></trkpt><trkpt lat="38.0708467" lon="15.7866183"><ele>1086.8</ele><time>2026-04-24T13:18:02.371Z</time></trkpt><trkpt lat="38.0709217" lon="15.7865683"><ele>1086.6</ele><time>2026-04-24T13:18:03.372Z</time></trkpt><trkpt lat="38.0710083" lon="15.7865283"><ele>1086.3999999999999</ele><time>2026-04-24T13:18:04.372Z</time></trkpt><trkpt lat="38.0711083" lon="15.7864933"><ele>1086.2</ele><time>2026-04-24T13:18:05.372Z</time></trkpt><trkpt lat="38.07121" lon="15.7864683"><ele>1086.0</ele><time>2026-04-24T13:18:06.371Z</time></trkpt><trkpt lat="38.0713167" lon="15.7864367"><ele>1086.0</ele><time>2026-04-24T13:18:07.371Z</time></trkpt><trkpt lat="38.0714183" lon="15.7864083"><ele>1086.0</ele><time>2026-04-24T13:18:08.371Z</time></trkpt><trkpt lat="38.07152" lon="15.7863817"><ele>1086.0</ele><time>2026-04-24T13:18:09.371Z</time></trkpt><trkpt lat="38.07162" lon="15.7863467"><ele>1086.0</ele><time>2026-04-24T13:18:10.371Z</time></trkpt><trkpt lat="38.0717233" lon="15.78631"><ele>1086.0</ele><time>2026-04-24T13:18:11.372Z</time></trkpt><trkpt lat="38.0718283" lon="15.7862683"><ele>1086.75</ele><time>2026-04-24T13:18:12.371Z</time></trkpt><trkpt lat="38.07194" lon="15.7862267"><ele>1087.5</ele><time>2026-04-24T13:18:13.371Z</time></trkpt><trkpt lat="38.0720467" lon="15.7861883"><ele>1088.25</ele><time>2026-04-24T13:18:14.372Z</time></trkpt><trkpt lat="38.0721617" lon="15.7861517"><ele>1089.0</ele><time>2026-04-24T13:18:15.371Z</time></trkpt><trkpt lat="38.0722733" lon="15.7861133"><ele>1089.0</ele><time>2026-04-24T13:18:16.372Z</time></trkpt><trkpt lat="38.07238" lon="15.78608"><ele>1089.0</ele><time>2026-04-24T13:18:17.371Z</time></trkpt><trkpt lat="38.0724767" lon="15.786055"><ele>1089.0</ele><time>2026-04-24T13:18:18.371Z</time></trkpt><trkpt lat="38.0725733" lon="15.7860183"><ele>1089.0</ele><time>2026-04-24T13:18:19.371Z</time></trkpt><trkpt lat="38.07268" lon="15.7859883"><ele>1089.0</ele><time>2026-04-24T13:18:20.372Z</time></trkpt><trkpt lat="38.072795" lon="15.7859567"><ele>1088.25</ele><time>2026-04-24T13:18:21.372Z</time></trkpt><trkpt lat="38.0729083" lon="15.7859267"><ele>1087.5</ele><time>2026-04-24T13:18:22.372Z</time></trkpt><trkpt lat="38.073025" lon="15.7859017"><ele>1086.75</ele><time>2026-04-24T13:18:23.372Z</time></trkpt><trkpt lat="38.073135" lon="15.7858733"><ele>1086.0</ele><time>2026-04-24T13:18:24.371Z</time></trkpt><trkpt lat="38.0732517" lon="15.78584"><ele>1086.25</ele><time>2026-04-24T13:18:25.371Z</time></trkpt><trkpt lat="38.0733617" lon="15.785805"><ele>1086.5</ele><time>2026-04-24T13:18:26.372Z</time></trkpt><trkpt lat="38.0734683" lon="15.7857617"><ele>1086.75</ele><time>2026-04-24T13:18:27.372Z</time></trkpt><trkpt lat="38.0735767" lon="15.7857267"><ele>1087.0</ele><time>2026-04-24T13:18:28.372Z</time></trkpt><trkpt lat="38.0736883" lon="15.785695"><ele>1087.0</ele><time>2026-04-24T13:18:29.371Z</time></trkpt><trkpt lat="38.07381" lon="15.7856567"><ele>1087.0</ele><time>2026-04-24T13:18:30.372Z</time></trkpt><trkpt lat="38.0739233" lon="15.7856167"><ele>1087.0</ele><time>2026-04-24T13:18:31.371Z</time></trkpt><trkpt lat="38.0740367" lon="15.785575"><ele>1087.0</ele><time>2026-04-24T13:18:32.371Z</time></trkpt><trkpt lat="38.0741517" lon="15.785515"><ele>1085.75</ele><time>2026-04-24T13:18:33.371Z</time></trkpt><trkpt lat="38.0742633" lon="15.785445"><ele>1084.5</ele><time>2026-04-24T13:18:34.372Z</time></trkpt><trkpt lat="38.0743733" lon="15.7853517"><ele>1083.25</ele><time>2026-04-24T13:18:35.371Z</time></trkpt><trkpt lat="38.0744767" lon="15.78526"><ele>1082.0</ele><time>2026-04-24T13:18:36.372Z</time></trkpt><trkpt lat="38.0745733" lon="15.7851667"><ele>1082.0</ele><time>2026-04-24T13:18:37.371Z</time></trkpt><trkpt lat="38.0746683" lon="15.7850717"><ele>1082.0</ele><time>2026-04-24T13:18:38.371Z</time></trkpt><trkpt lat="38.0747733" lon="15.785"><ele>1082.0</ele><time>2026-04-24T13:18:39.372Z</time></trkpt><trkpt lat="38.074885" lon="15.7849467"><ele>1082.0</ele><time>2026-04-24T13:18:40.372Z</time></trkpt><trkpt lat="38.0750033" lon="15.7849283"><ele>1080.0</ele><time>2026-04-24T13:18:41.371Z</time></trkpt><trkpt lat="38.0751233" lon="15.7849317"><ele>1078.0</ele><time>2026-04-24T13:18:42.372Z</time></trkpt><trkpt lat="38.075245" lon="15.7849433"><ele>1076.0</ele><time>2026-04-24T13:18:43.372Z</time></trkpt><trkpt lat="38.0753617" lon="15.7849433"><ele>1074.0</ele><time>2026-04-24T13:18:44.371Z</time></trkpt><trkpt lat="38.075485" lon="15.7849283"><ele>1074.0</ele><time>2026-04-24T13:18:45.372Z</time></trkpt><trkpt lat="38.0756067" lon="15.784905"><ele>1074.0</ele><time>2026-04-24T13:18:46.371Z</time></trkpt><trkpt lat="38.0757217" lon="15.784865"><ele>1074.0</ele><time>2026-04-24T13:18:47.372Z</time></trkpt><trkpt lat="38.0758333" lon="15.7848183"><ele>1074.0</ele><time>2026-04-24T13:18:48.372Z</time></trkpt><trkpt lat="38.075935" lon="15.7847583"><ele>1073.2</ele><time>2026-04-24T13:18:49.371Z</time></trkpt><trkpt lat="38.076035" lon="15.7847167"><ele>1072.4</ele><time>2026-04-24T13:18:50.371Z</time></trkpt><trkpt lat="38.0761383" lon="15.7846967"><ele>1071.6</ele><time>2026-04-24T13:18:51.371Z</time></trkpt><trkpt lat="38.0762417" lon="15.78472"><ele>1070.8</ele><time>2026-04-24T13:18:52.371Z</time></trkpt><trkpt lat="38.0763383" lon="15.7847633"><ele>1070.0</ele><time>2026-04-24T13:18:53.372Z</time></trkpt><trkpt lat="38.0764183" lon="15.7848567"><ele>1070.0</ele><time>2026-04-24T13:18:54.371Z</time></trkpt><trkpt lat="38.0764883" lon="15.7849517"><ele>1070.0</ele><time>2026-04-24T13:18:55.371Z</time></trkpt><trkpt lat="38.0765633" lon="15.7850433"><ele>1070.0</ele><time>2026-04-24T13:18:56.371Z</time></trkpt><trkpt lat="38.0766567" lon="15.7850933"><ele>1070.0</ele><time>2026-04-24T13:18:57.372Z</time></trkpt><trkpt lat="38.0767583" lon="15.7851033"><ele>1070.0</ele><time>2026-04-24T13:18:58.371Z</time></trkpt><trkpt lat="38.076865" lon="15.7850767"><ele>1066.6</ele><time>2026-04-24T13:18:59.371Z</time></trkpt><trkpt lat="38.0769717" lon="15.785035"><ele>1063.2</ele><time>2026-04-24T13:19:00.372Z</time></trkpt><trkpt lat="38.0770733" lon="15.785"><ele>1059.8</ele><time>2026-04-24T13:19:01.371Z</time></trkpt><trkpt lat="38.07717" lon="15.7849933"><ele>1056.4</ele><time>2026-04-24T13:19:02.371Z</time></trkpt><trkpt lat="38.077255" lon="15.7850183"><ele>1053.0</ele><time>2026-04-24T13:19:03.372Z</time></trkpt><trkpt lat="38.0773117" lon="15.7850783"><ele>1053.0</ele><time>2026-04-24T13:19:04.371Z</time></trkpt><trkpt lat="38.0773467" lon="15.7851617"><ele>1053.0</ele><time>2026-04-24T13:19:05.372Z</time></trkpt><trkpt lat="38.077345" lon="15.7852567"><ele>1053.0</ele><time>2026-04-24T13:19:06.371Z</time></trkpt><trkpt lat="38.0773267" lon="15.7853567"><ele>1053.0</ele><time>2026-04-24T13:19:07.371Z</time></trkpt><trkpt lat="38.0773283" lon="15.7854383"><ele>1053.0</ele><time>2026-04-24T13:19:08.371Z</time></trkpt><trkpt lat="38.0773733" lon="15.785505"><ele>1053.0</ele><time>2026-04-24T13:19:10.371Z</time></trkpt><trkpt lat="38.0774667" lon="15.7854517"><ele>1047.25</ele><time>2026-04-24T13:19:12.372Z</time></trkpt><trkpt lat="38.077515" lon="15.7853433"><ele>1041.5</ele><time>2026-04-24T13:19:13.371Z</time></trkpt><trkpt lat="38.077555" lon="15.785185"><ele>1035.75</ele><time>2026-04-24T13:19:14.372Z</time></trkpt><trkpt lat="38.0775783" lon="15.785025"><ele>1030.0</ele><time>2026-04-24T13:19:15.371Z</time></trkpt><trkpt lat="38.0775817" lon="15.7848617"><ele>1030.0</ele><time>2026-04-24T13:19:16.372Z</time></trkpt><trkpt lat="38.077565" lon="15.7847133"><ele>1030.0</ele><time>2026-04-24T13:19:17.371Z</time></trkpt><trkpt lat="38.07751" lon="15.7845733"><ele>1030.0</ele><time>2026-04-24T13:19:18.371Z</time></trkpt><trkpt lat="38.077435" lon="15.7844583"><ele>1030.0</ele><time>2026-04-24T13:19:19.371Z</time></trkpt><trkpt lat="38.0773383" lon="15.78437"><ele>1030.1666666666665</ele><time>2026-04-24T13:19:20.371Z</time></trkpt><trkpt lat="38.0772267" lon="15.7843283"><ele>1030.3333333333333</ele><time>2026-04-24T13:19:21.371Z</time></trkpt><trkpt lat="38.0771233" lon="15.7843117"><ele>1030.5</ele><time>2026-04-24T13:19:22.372Z</time></trkpt><trkpt lat="38.0770367" lon="15.7843033"><ele>1030.6666666666667</ele><time>2026-04-24T13:19:23.371Z</time></trkpt><trkpt lat="38.076965" lon="15.784285"><ele>1030.8333333333335</ele><time>2026-04-24T13:19:24.371Z</time></trkpt><trkpt lat="38.0769133" lon="15.7842333"><ele>1031.0</ele><time>2026-04-24T13:19:25.371Z</time></trkpt><trkpt lat="38.07689" lon="15.784155"><ele>1031.0</ele><time>2026-04-24T13:19:26.372Z</time></trkpt><trkpt lat="38.0768983" lon="15.784075"><ele>1031.0</ele><time>2026-04-24T13:19:27.372Z</time></trkpt><trkpt lat="38.0769817" lon="15.7840267"><ele>1031.0</ele><time>2026-04-24T13:19:29.371Z</time></trkpt><trkpt lat="38.0770617" lon="15.7841017"><ele>1031.0</ele><time>2026-04-24T13:19:31.372Z</time></trkpt><trkpt lat="38.0771867" lon="15.7841667"><ele>1031.0</ele><time>2026-04-24T13:19:33.371Z</time></trkpt><trkpt lat="38.0772767" lon="15.7841683"><ele>1031.0</ele><time>2026-04-24T13:19:34.371Z</time></trkpt><trkpt lat="38.0773733" lon="15.7841517"><ele>1031.0</ele><time>2026-04-24T13:19:35.372Z</time></trkpt><trkpt lat="38.0774633" lon="15.7841317"><ele>1031.0</ele><time>2026-04-24T13:19:36.371Z</time></trkpt><trkpt lat="38.077565" lon="15.7841433"><ele>1031.0</ele><time>2026-04-24T13:19:37.371Z</time></trkpt><trkpt lat="38.0776583" lon="15.78419"><ele>1031.0</ele><time>2026-04-24T13:19:38.371Z</time></trkpt><trkpt lat="38.0777517" lon="15.7842517"><ele>1030.8</ele><time>2026-04-24T13:19:39.371Z</time></trkpt><trkpt lat="38.07783" lon="15.7843317"><ele>1030.6</ele><time>2026-04-24T13:19:40.371Z</time></trkpt><trkpt lat="38.0779017" lon="15.7844383"><ele>1030.4</ele><time>2026-04-24T13:19:41.372Z</time></trkpt><trkpt lat="38.0779533" lon="15.7845533"><ele>1030.2</ele><time>2026-04-24T13:19:42.371Z</time></trkpt><trkpt lat="38.0779867" lon="15.7846633"><ele>1030.0</ele><time>2026-04-24T13:19:43.371Z</time></trkpt><trkpt lat="38.07801" lon="15.7847783"><ele>1030.0</ele><time>2026-04-24T13:19:44.372Z</time></trkpt><trkpt lat="38.0780333" lon="15.784865"><ele>1030.0</ele><time>2026-04-24T13:19:45.372Z</time></trkpt><trkpt lat="38.0780933" lon="15.7849667"><ele>1030.0</ele><time>2026-04-24T13:19:47.371Z</time></trkpt><trkpt lat="38.0781817" lon="15.78494"><ele>1030.0</ele><time>2026-04-24T13:19:49.371Z</time></trkpt><trkpt lat="38.07822" lon="15.7847917"><ele>1030.0</ele><time>2026-04-24T13:19:51.372Z</time></trkpt><trkpt lat="38.0782083" lon="15.7847117"><ele>1030.0</ele><time>2026-04-24T13:19:52.371Z</time></trkpt><trkpt lat="38.0781867" lon="15.7846167"><ele>1030.0</ele><time>2026-04-24T13:19:53.371Z</time></trkpt><trkpt lat="38.0781667" lon="15.7845167"><ele>1030.0</ele><time>2026-04-24T13:19:54.372Z</time></trkpt><trkpt lat="38.0781417" lon="15.7844083"><ele>1030.0</ele><time>2026-04-24T13:19:55.371Z</time></trkpt><trkpt lat="38.0781267" lon="15.7843"><ele>1030.0</ele><time>2026-04-24T13:19:56.371Z</time></trkpt><trkpt lat="38.0781183" lon="15.7841983"><ele>1030.0</ele><time>2026-04-24T13:19:57.372Z</time></trkpt><trkpt lat="38.0781417" lon="15.7840683"><ele>1025.8333333333333</ele><time>2026-04-24T13:19:59.371Z</time></trkpt><trkpt lat="38.0782133" lon="15.7841133"><ele>1021.6666666666666</ele><time>2026-04-24T13:20:01.372Z</time></trkpt><trkpt lat="38.0782467" lon="15.7842133"><ele>1017.5</ele><time>2026-04-24T13:20:02.371Z</time></trkpt><trkpt lat="38.0782633" lon="15.784345"><ele>1013.3333333333333</ele><time>2026-04-24T13:20:03.372Z</time></trkpt><trkpt lat="38.07828" lon="15.7844717"><ele>1009.1666666666666</ele><time>2026-04-24T13:20:04.371Z</time></trkpt><trkpt lat="38.0783017" lon="15.784555"><ele>1005.0</ele><time>2026-04-24T13:20:05.371Z</time></trkpt><trkpt lat="38.07836" lon="15.7846383"><ele>999.0</ele><time>2026-04-24T13:20:07.371Z</time></trkpt><trkpt lat="38.078425" lon="15.78454"><ele>993.0</ele><time>2026-04-24T13:20:09.371Z</time></trkpt><trkpt lat="38.0784583" lon="15.7844067"><ele>987.0</ele><time>2026-04-24T13:20:10.371Z</time></trkpt><trkpt lat="38.07849" lon="15.7842383"><ele>981.0</ele><time>2026-04-24T13:20:11.371Z</time></trkpt><trkpt lat="38.078495" lon="15.7840733"><ele>978.25</ele><time>2026-04-24T13:20:12.371Z</time></trkpt><trkpt lat="38.0784833" lon="15.78391"><ele>975.5</ele><time>2026-04-24T13:20:13.371Z</time></trkpt><trkpt lat="38.0784683" lon="15.7837667"><ele>972.75</ele><time>2026-04-24T13:20:14.371Z</time></trkpt><trkpt lat="38.07843" lon="15.7836367"><ele>970.0</ele><time>2026-04-24T13:20:15.372Z</time></trkpt><trkpt lat="38.0783583" lon="15.7835317"><ele>969.25</ele><time>2026-04-24T13:20:16.371Z</time></trkpt><trkpt lat="38.0782633" lon="15.7834583"><ele>968.5</ele><time>2026-04-24T13:20:17.371Z</time></trkpt><trkpt lat="38.0781483" lon="15.783405"><ele>967.75</ele><time>2026-04-24T13:20:18.371Z</time></trkpt><trkpt lat="38.0780367" lon="15.78337"><ele>967.0</ele><time>2026-04-24T13:20:19.372Z</time></trkpt><trkpt lat="38.0779217" lon="15.7833367"><ele>967.0</ele><time>2026-04-24T13:20:20.371Z</time></trkpt><trkpt lat="38.0778167" lon="15.7833133"><ele>967.0</ele><time>2026-04-24T13:20:21.372Z</time></trkpt><trkpt lat="38.0777083" lon="15.7832933"><ele>967.0</ele><time>2026-04-24T13:20:22.371Z</time></trkpt><trkpt lat="38.0776183" lon="15.7832367"><ele>967.0</ele><time>2026-04-24T13:20:23.372Z</time></trkpt><trkpt lat="38.0775383" lon="15.7831567"><ele>967.0</ele><time>2026-04-24T13:20:24.371Z</time></trkpt><trkpt lat="38.0774567" lon="15.7830933"><ele>971.1666666666666</ele><time>2026-04-24T13:20:25.371Z</time></trkpt><trkpt lat="38.0773783" lon="15.783055"><ele>975.3333333333333</ele><time>2026-04-24T13:20:26.372Z</time></trkpt><trkpt lat="38.0772917" lon="15.7830517"><ele>979.5</ele><time>2026-04-24T13:20:27.372Z</time></trkpt><trkpt lat="38.0772067" lon="15.7830483"><ele>983.6666666666667</ele><time>2026-04-24T13:20:28.371Z</time></trkpt><trkpt lat="38.077115" lon="15.7830267"><ele>987.8333333333334</ele><time>2026-04-24T13:20:29.371Z</time></trkpt><trkpt lat="38.0770283" lon="15.7829967"><ele>992.0</ele><time>2026-04-24T13:20:30.371Z</time></trkpt><trkpt lat="38.07695" lon="15.7829617"><ele>992.0000000000001</ele><time>2026-04-24T13:20:31.371Z</time></trkpt><trkpt lat="38.0768783" lon="15.782905"><ele>992.0</ele><time>2026-04-24T13:20:32.372Z</time></trkpt><trkpt lat="38.07682" lon="15.782835"><ele>992.0</ele><time>2026-04-24T13:20:33.372Z</time></trkpt><trkpt lat="38.0767867" lon="15.7827567"><ele>992.0</ele><time>2026-04-24T13:20:34.371Z</time></trkpt><trkpt lat="38.0767733" lon="15.78266"><ele>992.0000000000001</ele><time>2026-04-24T13:20:35.372Z</time></trkpt><trkpt lat="38.0768" lon="15.7825417"><ele>992.0</ele><time>2026-04-24T13:20:36.371Z</time></trkpt><trkpt lat="38.076835" lon="15.7824167"><ele>988.2</ele><time>2026-04-24T13:20:37.371Z</time></trkpt><trkpt lat="38.0768683" lon="15.7823"><ele>984.4000000000001</ele><time>2026-04-24T13:20:38.371Z</time></trkpt><trkpt lat="38.0768917" lon="15.7821783"><ele>980.5999999999999</ele><time>2026-04-24T13:20:39.372Z</time></trkpt><trkpt lat="38.0769217" lon="15.7820617"><ele>976.8</ele><time>2026-04-24T13:20:40.372Z</time></trkpt><trkpt lat="38.07695" lon="15.7819483"><ele>973.0</ele><time>2026-04-24T13:20:41.371Z</time></trkpt><trkpt lat="38.0769883" lon="15.7818483"><ele>971.8333333333333</ele><time>2026-04-24T13:20:42.371Z</time></trkpt><trkpt lat="38.0770267" lon="15.7817483"><ele>970.6666666666666</ele><time>2026-04-24T13:20:43.371Z</time></trkpt><trkpt lat="38.07707" lon="15.781645"><ele>969.5</ele><time>2026-04-24T13:20:44.371Z</time></trkpt><trkpt lat="38.0771183" lon="15.78155"><ele>968.3333333333333</ele><time>2026-04-24T13:20:45.371Z</time></trkpt><trkpt lat="38.0771583" lon="15.7814583"><ele>967.1666666666666</ele><time>2026-04-24T13:20:46.371Z</time></trkpt><trkpt lat="38.077195" lon="15.781365"><ele>966.0</ele><time>2026-04-24T13:20:47.372Z</time></trkpt><trkpt lat="38.0772083" lon="15.781265"><ele>966.0</ele><time>2026-04-24T13:20:48.372Z</time></trkpt><trkpt lat="38.0772067" lon="15.78116"><ele>965.9999999999999</ele><time>2026-04-24T13:20:49.372Z</time></trkpt><trkpt lat="38.0771983" lon="15.781045"><ele>965.9999999999999</ele><time>2026-04-24T13:20:50.372Z</time></trkpt><trkpt lat="38.077195" lon="15.7809233"><ele>966.0</ele><time>2026-04-24T13:20:51.371Z</time></trkpt><trkpt lat="38.07719" lon="15.7807967"><ele>966.0</ele><time>2026-04-24T13:20:52.372Z</time></trkpt><trkpt lat="38.0772" lon="15.7806667"><ele>964.5999999999999</ele><time>2026-04-24T13:20:53.372Z</time></trkpt><trkpt lat="38.0771967" lon="15.78053"><ele>963.1999999999999</ele><time>2026-04-24T13:20:54.372Z</time></trkpt><trkpt lat="38.07719" lon="15.7803967"><ele>961.8000000000001</ele><time>2026-04-24T13:20:55.371Z</time></trkpt><trkpt lat="38.0771667" lon="15.7802733"><ele>960.4000000000001</ele><time>2026-04-24T13:20:56.372Z</time></trkpt><trkpt lat="38.07713" lon="15.780145"><ele>959.0</ele><time>2026-04-24T13:20:57.371Z</time></trkpt><trkpt lat="38.0770833" lon="15.7800267"><ele>955.8000000000001</ele><time>2026-04-24T13:20:58.372Z</time></trkpt><trkpt lat="38.0770317" lon="15.7799133"><ele>952.6000000000001</ele><time>2026-04-24T13:20:59.372Z</time></trkpt><trkpt lat="38.0769733" lon="15.7797933"><ele>949.4</ele><time>2026-04-24T13:21:00.372Z</time></trkpt><trkpt lat="38.076925" lon="15.7796683"><ele>946.2</ele><time>2026-04-24T13:21:01.372Z</time></trkpt><trkpt lat="38.0768783" lon="15.7795417"><ele>943.0</ele><time>2026-04-24T13:21:02.372Z</time></trkpt><trkpt lat="38.0768517" lon="15.77941"><ele>940.0</ele><time>2026-04-24T13:21:03.371Z</time></trkpt><trkpt lat="38.0768467" lon="15.7792867"><ele>937.0</ele><time>2026-04-24T13:21:04.371Z</time></trkpt><trkpt lat="38.0768417" lon="15.7791583"><ele>934.0</ele><time>2026-04-24T13:21:05.372Z</time></trkpt><trkpt lat="38.07683" lon="15.7790283"><ele>931.0</ele><time>2026-04-24T13:21:06.371Z</time></trkpt><trkpt lat="38.076825" lon="15.7789033"><ele>928.0</ele><time>2026-04-24T13:21:07.371Z</time></trkpt><trkpt lat="38.0768167" lon="15.7787717"><ele>928.0</ele><time>2026-04-24T13:21:08.372Z</time></trkpt><trkpt lat="38.07681" lon="15.77863"><ele>928.0</ele><time>2026-04-24T13:21:09.371Z</time></trkpt><trkpt lat="38.076805" lon="15.7784933"><ele>928.0</ele><time>2026-04-24T13:21:10.371Z</time></trkpt><trkpt lat="38.0768" lon="15.7783633"><ele>928.0</ele><time>2026-04-24T13:21:11.372Z</time></trkpt><trkpt lat="38.0767833" lon="15.7782417"><ele>928.0</ele><time>2026-04-24T13:21:12.371Z</time></trkpt><trkpt lat="38.0767833" lon="15.778125"><ele>925.2</ele><time>2026-04-24T13:21:13.371Z</time></trkpt><trkpt lat="38.0767967" lon="15.778005"><ele>922.4</ele><time>2026-04-24T13:21:14.372Z</time></trkpt><trkpt lat="38.076825" lon="15.77789"><ele>919.6000000000001</ele><time>2026-04-24T13:21:15.372Z</time></trkpt><trkpt lat="38.0768583" lon="15.7777817"><ele>916.8000000000001</ele><time>2026-04-24T13:21:16.372Z</time></trkpt><trkpt lat="38.076895" lon="15.7776683"><ele>914.0</ele><time>2026-04-24T13:21:17.372Z</time></trkpt><trkpt lat="38.0769233" lon="15.7775517"><ele>910.25</ele><time>2026-04-24T13:21:18.371Z</time></trkpt><trkpt lat="38.076955" lon="15.77742"><ele>906.5</ele><time>2026-04-24T13:21:19.372Z</time></trkpt><trkpt lat="38.076995" lon="15.7772783"><ele>902.75</ele><time>2026-04-24T13:21:20.371Z</time></trkpt><trkpt lat="38.0770483" lon="15.7771433"><ele>899.0</ele><time>2026-04-24T13:21:21.371Z</time></trkpt><trkpt lat="38.0771083" lon="15.7770233"><ele>899.0</ele><time>2026-04-24T13:21:22.372Z</time></trkpt><trkpt lat="38.077175" lon="15.7769067"><ele>899.0000000000001</ele><time>2026-04-24T13:21:23.371Z</time></trkpt><trkpt lat="38.077245" lon="15.776785"><ele>899.0000000000001</ele><time>2026-04-24T13:21:24.371Z</time></trkpt><trkpt lat="38.0773033" lon="15.7766683"><ele>899.0</ele><time>2026-04-24T13:21:25.371Z</time></trkpt><trkpt lat="38.077335" lon="15.7765433"><ele>899.0</ele><time>2026-04-24T13:21:26.372Z</time></trkpt><trkpt lat="38.0773567" lon="15.7764217"><ele>898.8000000000001</ele><time>2026-04-24T13:21:27.371Z</time></trkpt><trkpt lat="38.0773933" lon="15.7763083"><ele>898.6000000000001</ele><time>2026-04-24T13:21:28.372Z</time></trkpt><trkpt lat="38.07745" lon="15.776215"><ele>898.4</ele><time>2026-04-24T13:21:29.371Z</time></trkpt><trkpt lat="38.07752" lon="15.776125"><ele>898.2</ele><time>2026-04-24T13:21:30.372Z</time></trkpt><trkpt lat="38.077595" lon="15.7760283"><ele>898.0</ele><time>2026-04-24T13:21:31.372Z</time></trkpt><trkpt lat="38.0776667" lon="15.775925"><ele>899.0</ele><time>2026-04-24T13:21:32.372Z</time></trkpt><trkpt lat="38.0777367" lon="15.7758217"><ele>900.0</ele><time>2026-04-24T13:21:33.372Z</time></trkpt><trkpt lat="38.0778067" lon="15.77572"><ele>901.0</ele><time>2026-04-24T13:21:34.372Z</time></trkpt><trkpt lat="38.0778717" lon="15.77562"><ele>902.0</ele><time>2026-04-24T13:21:35.371Z</time></trkpt><trkpt lat="38.077935" lon="15.7755117"><ele>903.0</ele><time>2026-04-24T13:21:36.372Z</time></trkpt><trkpt lat="38.077985" lon="15.7753983"><ele>903.0</ele><time>2026-04-24T13:21:37.372Z</time></trkpt><trkpt lat="38.0780317" lon="15.775285"><ele>903.0</ele><time>2026-04-24T13:21:38.372Z</time></trkpt><trkpt lat="38.07806" lon="15.7751667"><ele>903.0</ele><time>2026-04-24T13:21:39.371Z</time></trkpt><trkpt lat="38.0780667" lon="15.7750433"><ele>903.0</ele><time>2026-04-24T13:21:40.372Z</time></trkpt><trkpt lat="38.0780517" lon="15.774925"><ele>903.0</ele><time>2026-04-24T13:21:41.371Z</time></trkpt><trkpt lat="38.0780233" lon="15.7748067"><ele>900.5</ele><time>2026-04-24T13:21:42.372Z</time></trkpt><trkpt lat="38.0779867" lon="15.7747067"><ele>898.0</ele><time>2026-04-24T13:21:43.371Z</time></trkpt><trkpt lat="38.0779283" lon="15.7746333"><ele>895.5</ele><time>2026-04-24T13:21:44.372Z</time></trkpt><trkpt lat="38.077855" lon="15.774605"><ele>893.0</ele><time>2026-04-24T13:21:45.372Z</time></trkpt><trkpt lat="38.0777617" lon="15.7746217"><ele>890.5</ele><time>2026-04-24T13:21:46.371Z</time></trkpt><trkpt lat="38.07768" lon="15.7746617"><ele>888.0</ele><time>2026-04-24T13:21:47.371Z</time></trkpt><trkpt lat="38.0776167" lon="15.77468"><ele>888.0</ele><time>2026-04-24T13:21:48.371Z</time></trkpt><trkpt lat="38.0775583" lon="15.77461"><ele>888.0</ele><time>2026-04-24T13:21:50.372Z</time></trkpt><trkpt lat="38.0776333" lon="15.7745283"><ele>888.0</ele><time>2026-04-24T13:21:52.372Z</time></trkpt><trkpt lat="38.0777033" lon="15.7745183"><ele>888.0</ele><time>2026-04-24T13:21:53.372Z</time></trkpt><trkpt lat="38.077785" lon="15.7745183"><ele>888.0</ele><time>2026-04-24T13:21:54.372Z</time></trkpt><trkpt lat="38.0778583" lon="15.774525"><ele>888.0</ele><time>2026-04-24T13:21:55.372Z</time></trkpt><trkpt lat="38.0779283" lon="15.7745517"><ele>888.0</ele><time>2026-04-24T13:21:56.372Z</time></trkpt><trkpt lat="38.077995" lon="15.7745933"><ele>888.0</ele><time>2026-04-24T13:21:57.371Z</time></trkpt><trkpt lat="38.078065" lon="15.7746283"><ele>888.0</ele><time>2026-04-24T13:21:58.372Z</time></trkpt><trkpt lat="38.0781283" lon="15.7746533"><ele>888.0</ele><time>2026-04-24T13:21:59.372Z</time></trkpt><trkpt lat="38.0782017" lon="15.7746683"><ele>888.0</ele><time>2026-04-24T13:22:00.371Z</time></trkpt><trkpt lat="38.07827" lon="15.7746833"><ele>888.0</ele><time>2026-04-24T13:22:01.371Z</time></trkpt><trkpt lat="38.0783333" lon="15.7747183"><ele>888.0</ele><time>2026-04-24T13:22:02.371Z</time></trkpt><trkpt lat="38.0783767" lon="15.7747867"><ele>884.6666666666666</ele><time>2026-04-24T13:22:03.372Z</time></trkpt><trkpt lat="38.0783967" lon="15.7748817"><ele>881.3333333333333</ele><time>2026-04-24T13:22:04.371Z</time></trkpt><trkpt lat="38.0784083" lon="15.7749867"><ele>878.0</ele><time>2026-04-24T13:22:05.372Z</time></trkpt><trkpt lat="38.0784183" lon="15.7750933"><ele>874.6666666666666</ele><time>2026-04-24T13:22:06.371Z</time></trkpt><trkpt lat="38.078425" lon="15.7752"><ele>871.3333333333333</ele><time>2026-04-24T13:22:07.372Z</time></trkpt><trkpt lat="38.0784317" lon="15.7753"><ele>868.0</ele><time>2026-04-24T13:22:08.371Z</time></trkpt><trkpt lat="38.0784283" lon="15.7753983"><ele>867.2</ele><time>2026-04-24T13:22:09.372Z</time></trkpt><trkpt lat="38.0783983" lon="15.775495"><ele>866.4</ele><time>2026-04-24T13:22:10.371Z</time></trkpt><trkpt lat="38.0783567" lon="15.7755967"><ele>865.6000000000001</ele><time>2026-04-24T13:22:11.371Z</time></trkpt><trkpt lat="38.0783133" lon="15.7757"><ele>864.8000000000001</ele><time>2026-04-24T13:22:12.371Z</time></trkpt><trkpt lat="38.0782683" lon="15.7757967"><ele>864.0</ele><time>2026-04-24T13:22:13.372Z</time></trkpt><trkpt lat="38.0782267" lon="15.7759083"><ele>872.5</ele><time>2026-04-24T13:22:14.371Z</time></trkpt><trkpt lat="38.078195" lon="15.776045"><ele>881.0</ele><time>2026-04-24T13:22:15.371Z</time></trkpt><trkpt lat="38.0781633" lon="15.7761867"><ele>889.5</ele><time>2026-04-24T13:22:16.371Z</time></trkpt><trkpt lat="38.0781333" lon="15.7763267"><ele>898.0</ele><time>2026-04-24T13:22:17.371Z</time></trkpt><trkpt lat="38.078105" lon="15.7764583"><ele>898.0</ele><time>2026-04-24T13:22:18.371Z</time></trkpt><trkpt lat="38.0780967" lon="15.776595"><ele>898.0</ele><time>2026-04-24T13:22:19.372Z</time></trkpt><trkpt lat="38.0781033" lon="15.776745"><ele>898.0</ele><time>2026-04-24T13:22:20.371Z</time></trkpt><trkpt lat="38.0781083" lon="15.77688"><ele>898.0</ele><time>2026-04-24T13:22:21.371Z</time></trkpt><trkpt lat="38.078105" lon="15.77701"><ele>898.0</ele><time>2026-04-24T13:22:22.372Z</time></trkpt><trkpt lat="38.0780883" lon="15.77713"><ele>895.4</ele><time>2026-04-24T13:22:23.371Z</time></trkpt><trkpt lat="38.0780717" lon="15.77725"><ele>892.8</ele><time>2026-04-24T13:22:24.372Z</time></trkpt><trkpt lat="38.0780733" lon="15.7773783"><ele>890.2</ele><time>2026-04-24T13:22:25.372Z</time></trkpt><trkpt lat="38.0781" lon="15.77751"><ele>887.6</ele><time>2026-04-24T13:22:26.372Z</time></trkpt><trkpt lat="38.0781433" lon="15.7776467"><ele>885.0</ele><time>2026-04-24T13:22:27.372Z</time></trkpt><trkpt lat="38.0782017" lon="15.7777817"><ele>885.0</ele><time>2026-04-24T13:22:28.372Z</time></trkpt><trkpt lat="38.0782567" lon="15.7779083"><ele>885.0</ele><time>2026-04-24T13:22:29.371Z</time></trkpt><trkpt lat="38.0783167" lon="15.7780267"><ele>885.0</ele><time>2026-04-24T13:22:30.371Z</time></trkpt><trkpt lat="38.07836" lon="15.7781367"><ele>885.0</ele><time>2026-04-24T13:22:31.371Z</time></trkpt><trkpt lat="38.0784017" lon="15.7782383"><ele>885.0</ele><time>2026-04-24T13:22:32.371Z</time></trkpt><trkpt lat="38.07843" lon="15.7783333"><ele>878.4</ele><time>2026-04-24T13:22:33.372Z</time></trkpt><trkpt lat="38.07845" lon="15.7784233"><ele>871.8</ele><time>2026-04-24T13:22:34.371Z</time></trkpt><trkpt lat="38.0784967" lon="15.7785083"><ele>865.2</ele><time>2026-04-24T13:22:36.371Z</time></trkpt><trkpt lat="38.0785917" lon="15.7784367"><ele>858.6</ele><time>2026-04-24T13:22:38.371Z</time></trkpt><trkpt lat="38.0786217" lon="15.7783383"><ele>852.0</ele><time>2026-04-24T13:22:39.371Z</time></trkpt><trkpt lat="38.078625" lon="15.7782083"><ele>852.0</ele><time>2026-04-24T13:22:40.371Z</time></trkpt><trkpt lat="38.0786167" lon="15.7780683"><ele>852.0</ele><time>2026-04-24T13:22:41.371Z</time></trkpt><trkpt lat="38.0786033" lon="15.7779267"><ele>852.0</ele><time>2026-04-24T13:22:42.372Z</time></trkpt><trkpt lat="38.0785933" lon="15.7777933"><ele>852.0</ele><time>2026-04-24T13:22:43.371Z</time></trkpt><trkpt lat="38.07858" lon="15.7776633"><ele>852.0</ele><time>2026-04-24T13:22:44.371Z</time></trkpt><trkpt lat="38.07857" lon="15.777535"><ele>851.0</ele><time>2026-04-24T13:22:45.371Z</time></trkpt><trkpt lat="38.078575" lon="15.77739"><ele>850.0</ele><time>2026-04-24T13:22:46.372Z</time></trkpt><trkpt lat="38.0785867" lon="15.7772517"><ele>849.0</ele><time>2026-04-24T13:22:47.372Z</time></trkpt><trkpt lat="38.0786033" lon="15.7771167"><ele>848.0</ele><time>2026-04-24T13:22:48.371Z</time></trkpt><trkpt lat="38.07864" lon="15.77699"><ele>847.0</ele><time>2026-04-24T13:22:49.371Z</time></trkpt><trkpt lat="38.0786867" lon="15.7768717"><ele>847.0</ele><time>2026-04-24T13:22:50.372Z</time></trkpt><trkpt lat="38.0787367" lon="15.7767567"><ele>847.0</ele><time>2026-04-24T13:22:51.371Z</time></trkpt><trkpt lat="38.0787883" lon="15.776645"><ele>847.0</ele><time>2026-04-24T13:22:52.372Z</time></trkpt><trkpt lat="38.0788367" lon="15.7765383"><ele>847.0</ele><time>2026-04-24T13:22:53.371Z</time></trkpt><trkpt lat="38.07887" lon="15.7764283"><ele>847.0</ele><time>2026-04-24T13:22:54.371Z</time></trkpt><trkpt lat="38.0789067" lon="15.7763233"><ele>847.0</ele><time>2026-04-24T13:22:55.372Z</time></trkpt><trkpt lat="38.0789417" lon="15.77625"><ele>847.0</ele><time>2026-04-24T13:22:56.371Z</time></trkpt><trkpt lat="38.079035" lon="15.7762133"><ele>847.0</ele><time>2026-04-24T13:22:58.371Z</time></trkpt><trkpt lat="38.07913" lon="15.7763283"><ele>847.0</ele><time>2026-04-24T13:23:00.372Z</time></trkpt><trkpt lat="38.079135" lon="15.7764483"><ele>847.0</ele><time>2026-04-24T13:23:01.371Z</time></trkpt><trkpt lat="38.0791267" lon="15.7766067"><ele>840.6</ele><time>2026-04-24T13:23:02.371Z</time></trkpt><trkpt lat="38.079115" lon="15.7767617"><ele>834.2</ele><time>2026-04-24T13:23:03.371Z</time></trkpt><trkpt lat="38.07912" lon="15.7769"><ele>827.8</ele><time>2026-04-24T13:23:04.371Z</time></trkpt><trkpt lat="38.0791317" lon="15.7770317"><ele>821.4</ele><time>2026-04-24T13:23:05.371Z</time></trkpt><trkpt lat="38.0791617" lon="15.7771617"><ele>815.0</ele><time>2026-04-24T13:23:06.372Z</time></trkpt><trkpt lat="38.0792017" lon="15.7772817"><ele>814.6</ele><time>2026-04-24T13:23:07.371Z</time></trkpt><trkpt lat="38.0792517" lon="15.7773983"><ele>814.2</ele><time>2026-04-24T13:23:08.371Z</time></trkpt><trkpt lat="38.0793083" lon="15.77752"><ele>813.8</ele><time>2026-04-24T13:23:09.372Z</time></trkpt><trkpt lat="38.07937" lon="15.7776333"><ele>813.4</ele><time>2026-04-24T13:23:10.372Z</time></trkpt><trkpt lat="38.079435" lon="15.77775"><ele>813.0</ele><time>2026-04-24T13:23:11.372Z</time></trkpt><trkpt lat="38.0795017" lon="15.7778567"><ele>814.4</ele><time>2026-04-24T13:23:12.372Z</time></trkpt><trkpt lat="38.0795567" lon="15.77797"><ele>815.8</ele><time>2026-04-24T13:23:13.371Z</time></trkpt><trkpt lat="38.0796017" lon="15.7780883"><ele>817.2</ele><time>2026-04-24T13:23:14.371Z</time></trkpt><trkpt lat="38.0796333" lon="15.7782083"><ele>818.6</ele><time>2026-04-24T13:23:15.371Z</time></trkpt><trkpt lat="38.0796583" lon="15.7783167"><ele>820.0</ele><time>2026-04-24T13:23:16.371Z</time></trkpt><trkpt lat="38.0796833" lon="15.778405"><ele>820.0</ele><time>2026-04-24T13:23:17.371Z</time></trkpt><trkpt lat="38.0797683" lon="15.7784867"><ele>820.0</ele><time>2026-04-24T13:23:19.372Z</time></trkpt><trkpt lat="38.079825" lon="15.77837"><ele>820.0</ele><time>2026-04-24T13:23:21.372Z</time></trkpt><trkpt lat="38.079825" lon="15.77827"><ele>820.0</ele><time>2026-04-24T13:23:22.371Z</time></trkpt><trkpt lat="38.0798167" lon="15.778165"><ele>820.0</ele><time>2026-04-24T13:23:23.372Z</time></trkpt><trkpt lat="38.0798167" lon="15.778045"><ele>819.9999999999999</ele><time>2026-04-24T13:23:24.372Z</time></trkpt><trkpt lat="38.07982" lon="15.7779267"><ele>820.0</ele><time>2026-04-24T13:23:25.372Z</time></trkpt><trkpt lat="38.0798133" lon="15.7778083"><ele>820.0</ele><time>2026-04-24T13:23:26.372Z</time></trkpt><trkpt lat="38.07979" lon="15.7777083"><ele>820.0</ele><time>2026-04-24T13:23:27.371Z</time></trkpt><trkpt lat="38.0797417" lon="15.7776267"><ele>819.9999999999999</ele><time>2026-04-24T13:23:28.371Z</time></trkpt><trkpt lat="38.0796767" lon="15.7775617"><ele>820.0</ele><time>2026-04-24T13:23:29.371Z</time></trkpt><trkpt lat="38.079615" lon="15.7774883"><ele>818.6</ele><time>2026-04-24T13:23:30.371Z</time></trkpt><trkpt lat="38.0795683" lon="15.7773967"><ele>817.2</ele><time>2026-04-24T13:23:31.371Z</time></trkpt><trkpt lat="38.0795433" lon="15.77729"><ele>815.8</ele><time>2026-04-24T13:23:32.371Z</time></trkpt><trkpt lat="38.0795417" lon="15.7771717"><ele>814.4</ele><time>2026-04-24T13:23:33.371Z</time></trkpt><trkpt lat="38.0795583" lon="15.777045"><ele>813.0</ele><time>2026-04-24T13:23:34.371Z</time></trkpt><trkpt lat="38.0795783" lon="15.776915"><ele>813.5</ele><time>2026-04-24T13:23:35.371Z</time></trkpt><trkpt lat="38.079595" lon="15.7767733"><ele>814.0</ele><time>2026-04-24T13:23:36.371Z</time></trkpt><trkpt lat="38.0796117" lon="15.7766367"><ele>814.5</ele><time>2026-04-24T13:23:37.372Z</time></trkpt><trkpt lat="38.0796283" lon="15.776495"><ele>815.0</ele><time>2026-04-24T13:23:38.372Z</time></trkpt><trkpt lat="38.0796383" lon="15.776345"><ele>815.0</ele><time>2026-04-24T13:23:39.372Z</time></trkpt><trkpt lat="38.0796417" lon="15.77619"><ele>815.0</ele><time>2026-04-24T13:23:40.371Z</time></trkpt><trkpt lat="38.0796367" lon="15.776055"><ele>815.0</ele><time>2026-04-24T13:23:41.371Z</time></trkpt><trkpt lat="38.079625" lon="15.775925"><ele>815.0</ele><time>2026-04-24T13:23:42.371Z</time></trkpt><trkpt lat="38.0796067" lon="15.77581"><ele>815.0</ele><time>2026-04-24T13:23:43.372Z</time></trkpt><trkpt lat="38.0795967" lon="15.775705"><ele>815.6</ele><time>2026-04-24T13:23:44.371Z</time></trkpt><trkpt lat="38.079595" lon="15.77561"><ele>816.2</ele><time>2026-04-24T13:23:45.371Z</time></trkpt><trkpt lat="38.0796533" lon="15.775535"><ele>816.8</ele><time>2026-04-24T13:23:47.371Z</time></trkpt><trkpt lat="38.0797167" lon="15.7756083"><ele>817.4</ele><time>2026-04-24T13:23:49.371Z</time></trkpt><trkpt lat="38.07974" lon="15.7757283"><ele>818.0</ele><time>2026-04-24T13:23:50.371Z</time></trkpt><trkpt lat="38.0797717" lon="15.7758767"><ele>817.4</ele><time>2026-04-24T13:23:51.371Z</time></trkpt><trkpt lat="38.0798283" lon="15.77602"><ele>816.8</ele><time>2026-04-24T13:23:52.372Z</time></trkpt><trkpt lat="38.0798967" lon="15.77612"><ele>816.2</ele><time>2026-04-24T13:23:53.371Z</time></trkpt><trkpt lat="38.0799717" lon="15.7762167"><ele>815.6</ele><time>2026-04-24T13:23:54.372Z</time></trkpt><trkpt lat="38.08003" lon="15.7762817"><ele>815.0</ele><time>2026-04-24T13:23:55.371Z</time></trkpt><trkpt lat="38.080145" lon="15.77631"><ele>808.5000000000001</ele><time>2026-04-24T13:23:57.371Z</time></trkpt><trkpt lat="38.0801883" lon="15.7762483"><ele>802.0</ele><time>2026-04-24T13:23:58.371Z</time></trkpt><trkpt lat="38.0802033" lon="15.7761483"><ele>795.5</ele><time>2026-04-24T13:23:59.371Z</time></trkpt><trkpt lat="38.0801883" lon="15.7760333"><ele>789.0</ele><time>2026-04-24T13:24:00.371Z</time></trkpt><trkpt lat="38.0801667" lon="15.7759117"><ele>782.5000000000001</ele><time>2026-04-24T13:24:01.371Z</time></trkpt><trkpt lat="38.080145" lon="15.7757833"><ele>776.0</ele><time>2026-04-24T13:24:02.371Z</time></trkpt><trkpt lat="38.080135" lon="15.7756583"><ele>774.6666666666667</ele><time>2026-04-24T13:24:03.371Z</time></trkpt><trkpt lat="38.080135" lon="15.7755317"><ele>773.3333333333334</ele><time>2026-04-24T13:24:04.371Z</time></trkpt><trkpt lat="38.0801533" lon="15.77541"><ele>772.0</ele><time>2026-04-24T13:24:05.371Z</time></trkpt><trkpt lat="38.080185" lon="15.7753167"><ele>770.6666666666667</ele><time>2026-04-24T13:24:06.371Z</time></trkpt><trkpt lat="38.0802133" lon="15.7752217"><ele>769.3333333333334</ele><time>2026-04-24T13:24:07.372Z</time></trkpt><trkpt lat="38.0802333" lon="15.7751133"><ele>768.0</ele><time>2026-04-24T13:24:08.372Z</time></trkpt><trkpt lat="38.0802267" lon="15.7750083"><ele>767.0</ele><time>2026-04-24T13:24:09.371Z</time></trkpt><trkpt lat="38.0802083" lon="15.7748967"><ele>766.0</ele><time>2026-04-24T13:24:10.372Z</time></trkpt><trkpt lat="38.0801717" lon="15.7747817"><ele>765.0</ele><time>2026-04-24T13:24:11.371Z</time></trkpt><trkpt lat="38.080125" lon="15.77468"><ele>764.0</ele><time>2026-04-24T13:24:12.371Z</time></trkpt><trkpt lat="38.0800783" lon="15.7745817"><ele>763.0</ele><time>2026-04-24T13:24:13.372Z</time></trkpt><trkpt lat="38.0800267" lon="15.774475"><ele>763.0</ele><time>2026-04-24T13:24:14.371Z</time></trkpt><trkpt lat="38.07999" lon="15.7743567"><ele>763.0</ele><time>2026-04-24T13:24:15.372Z</time></trkpt><trkpt lat="38.0799633" lon="15.774225"><ele>763.0</ele><time>2026-04-24T13:24:16.372Z</time></trkpt><trkpt lat="38.0799383" lon="15.7740933"><ele>763.0</ele><time>2026-04-24T13:24:17.371Z</time></trkpt><trkpt lat="38.0799117" lon="15.7739617"><ele>763.0</ele><time>2026-04-24T13:24:18.372Z</time></trkpt><trkpt lat="38.07987" lon="15.7738317"><ele>763.5</ele><time>2026-04-24T13:24:19.371Z</time></trkpt><trkpt lat="38.079805" lon="15.773715"><ele>764.0</ele><time>2026-04-24T13:24:20.372Z</time></trkpt><trkpt lat="38.07974" lon="15.7735967"><ele>764.5</ele><time>2026-04-24T13:24:21.372Z</time></trkpt><trkpt lat="38.079675" lon="15.7734767"><ele>765.0</ele><time>2026-04-24T13:24:22.371Z</time></trkpt><trkpt lat="38.0796167" lon="15.7733433"><ele>765.0</ele><time>2026-04-24T13:24:23.371Z</time></trkpt><trkpt lat="38.07956" lon="15.7732217"><ele>765.0</ele><time>2026-04-24T13:24:24.371Z</time></trkpt><trkpt lat="38.0795083" lon="15.7730917"><ele>765.0</ele><time>2026-04-24T13:24:25.371Z</time></trkpt><trkpt lat="38.0794717" lon="15.7729717"><ele>765.0</ele><time>2026-04-24T13:24:26.371Z</time></trkpt><trkpt lat="38.0794517" lon="15.7728533"><ele>765.0</ele><time>2026-04-24T13:24:27.372Z</time></trkpt><trkpt lat="38.079425" lon="15.7727367"><ele>764.8</ele><time>2026-04-24T13:24:28.372Z</time></trkpt><trkpt lat="38.0793833" lon="15.7726317"><ele>764.6</ele><time>2026-04-24T13:24:29.372Z</time></trkpt><trkpt lat="38.079325" lon="15.7725367"><ele>764.4000000000001</ele><time>2026-04-24T13:24:30.372Z</time></trkpt><trkpt lat="38.0792567" lon="15.7724433"><ele>764.2</ele><time>2026-04-24T13:24:31.372Z</time></trkpt><trkpt lat="38.07918" lon="15.7723733"><ele>764.0</ele><time>2026-04-24T13:24:32.371Z</time></trkpt><trkpt lat="38.0791" lon="15.772315"><ele>764.0</ele><time>2026-04-24T13:24:33.371Z</time></trkpt><trkpt lat="38.0790217" lon="15.7722567"><ele>764.0</ele><time>2026-04-24T13:24:34.371Z</time></trkpt><trkpt lat="38.0789533" lon="15.7721867"><ele>764.0</ele><time>2026-04-24T13:24:35.372Z</time></trkpt><trkpt lat="38.0789083" lon="15.7720967"><ele>764.0</ele><time>2026-04-24T13:24:36.371Z</time></trkpt><trkpt lat="38.0788833" lon="15.7720017"><ele>764.0</ele><time>2026-04-24T13:24:37.371Z</time></trkpt><trkpt lat="38.0788767" lon="15.7718967"><ele>764.0</ele><time>2026-04-24T13:24:38.371Z</time></trkpt><trkpt lat="38.07886" lon="15.7717883"><ele>760.3333333333333</ele><time>2026-04-24T13:24:39.372Z</time></trkpt><trkpt lat="38.0788433" lon="15.771685"><ele>756.6666666666666</ele><time>2026-04-24T13:24:40.371Z</time></trkpt><trkpt lat="38.0788133" lon="15.77159"><ele>753.0</ele><time>2026-04-24T13:24:41.371Z</time></trkpt><trkpt lat="38.0787617" lon="15.7715183"><ele>749.3333333333334</ele><time>2026-04-24T13:24:42.372Z</time></trkpt><trkpt lat="38.0787" lon="15.7714633"><ele>745.6666666666667</ele><time>2026-04-24T13:24:43.372Z</time></trkpt><trkpt lat="38.0786517" lon="15.771405"><ele>742.0</ele><time>2026-04-24T13:24:44.371Z</time></trkpt><trkpt lat="38.078635" lon="15.7712583"><ele>742.0</ele><time>2026-04-24T13:24:46.372Z</time></trkpt><trkpt lat="38.0787167" lon="15.771205"><ele>742.0</ele><time>2026-04-24T13:24:48.371Z</time></trkpt><trkpt lat="38.07879" lon="15.7712517"><ele>742.0</ele><time>2026-04-24T13:24:49.372Z</time></trkpt><trkpt lat="38.0788633" lon="15.7713433"><ele>742.0</ele><time>2026-04-24T13:24:50.371Z</time></trkpt><trkpt lat="38.0789517" lon="15.7714517"><ele>742.0</ele><time>2026-04-24T13:24:51.371Z</time></trkpt><trkpt lat="38.0790333" lon="15.7715517"><ele>740.5</ele><time>2026-04-24T13:24:52.371Z</time></trkpt><trkpt lat="38.0791183" lon="15.771645"><ele>739.0</ele><time>2026-04-24T13:24:53.372Z</time></trkpt><trkpt lat="38.0792133" lon="15.77174"><ele>737.5</ele><time>2026-04-24T13:24:54.371Z</time></trkpt><trkpt lat="38.0793133" lon="15.771835"><ele>736.0</ele><time>2026-04-24T13:24:55.371Z</time></trkpt><trkpt lat="38.0794067" lon="15.77192"><ele>736.0</ele><time>2026-04-24T13:24:56.372Z</time></trkpt><trkpt lat="38.079495" lon="15.77202"><ele>736.0</ele><time>2026-04-24T13:24:57.372Z</time></trkpt><trkpt lat="38.0795767" lon="15.7721017"><ele>736.0</ele><time>2026-04-24T13:24:58.372Z</time></trkpt><trkpt lat="38.0796567" lon="15.7721733"><ele>736.0</ele><time>2026-04-24T13:24:59.372Z</time></trkpt><trkpt lat="38.0797267" lon="15.7722483"><ele>736.0</ele><time>2026-04-24T13:25:00.371Z</time></trkpt><trkpt lat="38.0797967" lon="15.77232"><ele>736.0</ele><time>2026-04-24T13:25:01.372Z</time></trkpt><trkpt lat="38.0798533" lon="15.7723983"><ele>736.0</ele><time>2026-04-24T13:25:02.371Z</time></trkpt><trkpt lat="38.0799033" lon="15.772485"><ele>736.0</ele><time>2026-04-24T13:25:03.371Z</time></trkpt><trkpt lat="38.079955" lon="15.7725833"><ele>736.0</ele><time>2026-04-24T13:25:04.372Z</time></trkpt><trkpt lat="38.0800083" lon="15.77269"><ele>736.0</ele><time>2026-04-24T13:25:05.371Z</time></trkpt><trkpt lat="38.0800717" lon="15.7728033"><ele>733.5999999999999</ele><time>2026-04-24T13:25:06.371Z</time></trkpt><trkpt lat="38.080145" lon="15.7729033"><ele>731.2</ele><time>2026-04-24T13:25:07.372Z</time></trkpt><trkpt lat="38.080215" lon="15.7730033"><ele>728.8</ele><time>2026-04-24T13:25:08.372Z</time></trkpt><trkpt lat="38.080285" lon="15.7731033"><ele>726.4000000000001</ele><time>2026-04-24T13:25:09.372Z</time></trkpt><trkpt lat="38.0803467" lon="15.773195"><ele>724.0</ele><time>2026-04-24T13:25:10.371Z</time></trkpt><trkpt lat="38.0804" lon="15.773265"><ele>724.0</ele><time>2026-04-24T13:25:11.371Z</time></trkpt><trkpt lat="38.0804717" lon="15.7733133"><ele>724.0</ele><time>2026-04-24T13:25:12.371Z</time></trkpt><trkpt lat="38.08054" lon="15.77334"><ele>724.0</ele><time>2026-04-24T13:25:13.371Z</time></trkpt><trkpt lat="38.08062" lon="15.7733233"><ele>724.0</ele><time>2026-04-24T13:25:14.372Z</time></trkpt><trkpt lat="38.0807183" lon="15.7732917"><ele>724.0</ele><time>2026-04-24T13:25:15.371Z</time></trkpt><trkpt lat="38.0808133" lon="15.7732633"><ele>724.0</ele><time>2026-04-24T13:25:16.372Z</time></trkpt><trkpt lat="38.080905" lon="15.77325"><ele>720.0</ele><time>2026-04-24T13:25:17.371Z</time></trkpt><trkpt lat="38.0809867" lon="15.7732333"><ele>716.0</ele><time>2026-04-24T13:25:18.372Z</time></trkpt><trkpt lat="38.08106" lon="15.7732383"><ele>712.0</ele><time>2026-04-24T13:25:19.372Z</time></trkpt><trkpt lat="38.0811333" lon="15.7732533"><ele>708.0</ele><time>2026-04-24T13:25:20.371Z</time></trkpt><trkpt lat="38.0812017" lon="15.7732867"><ele>704.0</ele><time>2026-04-24T13:25:21.372Z</time></trkpt><trkpt lat="38.081265" lon="15.77334"><ele>700.0</ele><time>2026-04-24T13:25:22.372Z</time></trkpt><trkpt lat="38.0813133" lon="15.773405"><ele>700.0</ele><time>2026-04-24T13:25:23.372Z</time></trkpt><trkpt lat="38.081345" lon="15.7734883"><ele>700.0</ele><time>2026-04-24T13:25:24.371Z</time></trkpt><trkpt lat="38.0813667" lon="15.7736"><ele>700.0</ele><time>2026-04-24T13:25:25.372Z</time></trkpt><trkpt lat="38.0813717" lon="15.773715"><ele>700.0</ele><time>2026-04-24T13:25:26.371Z</time></trkpt><trkpt lat="38.0813733" lon="15.7738283"><ele>700.0</ele><time>2026-04-24T13:25:27.371Z</time></trkpt><trkpt lat="38.0813683" lon="15.7739267"><ele>700.0</ele><time>2026-04-24T13:25:28.372Z</time></trkpt><trkpt lat="38.0813817" lon="15.774025"><ele>701.2857142857143</ele><time>2026-04-24T13:25:29.372Z</time></trkpt><trkpt lat="38.0814117" lon="15.7741167"><ele>702.5714285714286</ele><time>2026-04-24T13:25:30.371Z</time></trkpt><trkpt lat="38.081445" lon="15.7741867"><ele>703.8571428571429</ele><time>2026-04-24T13:25:31.371Z</time></trkpt><trkpt lat="38.081495" lon="15.7742467"><ele>705.1428571428571</ele><time>2026-04-24T13:25:32.371Z</time></trkpt><trkpt lat="38.0815583" lon="15.7743017"><ele>706.4285714285714</ele><time>2026-04-24T13:25:33.372Z</time></trkpt><trkpt lat="38.0816183" lon="15.774355"><ele>707.7142857142858</ele><time>2026-04-24T13:25:34.371Z</time></trkpt><trkpt lat="38.081675" lon="15.7744133"><ele>709.0</ele><time>2026-04-24T13:25:35.372Z</time></trkpt><trkpt lat="38.0817283" lon="15.774485"><ele>709.0</ele><time>2026-04-24T13:25:36.371Z</time></trkpt><trkpt lat="38.0817883" lon="15.7745583"><ele>709.0</ele><time>2026-04-24T13:25:37.371Z</time></trkpt><trkpt lat="38.0818383" lon="15.7746367"><ele>709.0</ele><time>2026-04-24T13:25:38.372Z</time></trkpt><trkpt lat="38.0818783" lon="15.7747233"><ele>709.0</ele><time>2026-04-24T13:25:39.371Z</time></trkpt><trkpt lat="38.0819033" lon="15.774815"><ele>709.0</ele><time>2026-04-24T13:25:40.371Z</time></trkpt><trkpt lat="38.0819183" lon="15.7749083"><ele>709.0</ele><time>2026-04-24T13:25:41.372Z</time></trkpt><trkpt lat="38.081925" lon="15.7749983"><ele>709.0</ele><time>2026-04-24T13:25:42.371Z</time></trkpt><trkpt lat="38.0819283" lon="15.775095"><ele>709.0</ele><time>2026-04-24T13:25:43.371Z</time></trkpt><trkpt lat="38.0819633" lon="15.775185"><ele>709.0</ele><time>2026-04-24T13:25:44.372Z</time></trkpt><trkpt lat="38.082015" lon="15.7752617"><ele>709.0</ele><time>2026-04-24T13:25:45.372Z</time></trkpt><trkpt lat="38.0820867" lon="15.7753217"><ele>709.0</ele><time>2026-04-24T13:25:46.371Z</time></trkpt><trkpt lat="38.0821817" lon="15.7753817"><ele>709.0</ele><time>2026-04-24T13:25:47.372Z</time></trkpt><trkpt lat="38.0822733" lon="15.775445"><ele>711.0</ele><time>2026-04-24T13:25:48.371Z</time></trkpt><trkpt lat="38.0823567" lon="15.775505"><ele>713.0</ele><time>2026-04-24T13:25:49.372Z</time></trkpt><trkpt lat="38.0824333" lon="15.7755717"><ele>715.0</ele><time>2026-04-24T13:25:50.371Z</time></trkpt><trkpt lat="38.082505" lon="15.7756383"><ele>717.0</ele><time>2026-04-24T13:25:51.371Z</time></trkpt><trkpt lat="38.0825683" lon="15.7757067"><ele>719.0</ele><time>2026-04-24T13:25:52.372Z</time></trkpt><trkpt lat="38.08263" lon="15.7757883"><ele>717.6</ele><time>2026-04-24T13:25:53.371Z</time></trkpt><trkpt lat="38.0826833" lon="15.7758833"><ele>716.2</ele><time>2026-04-24T13:25:54.372Z</time></trkpt><trkpt lat="38.0827317" lon="15.77599"><ele>714.8000000000001</ele><time>2026-04-24T13:25:55.372Z</time></trkpt><trkpt lat="38.0827733" lon="15.77611"><ele>713.4000000000001</ele><time>2026-04-24T13:25:56.372Z</time></trkpt><trkpt lat="38.082815" lon="15.776235"><ele>712.0</ele><time>2026-04-24T13:25:57.372Z</time></trkpt><trkpt lat="38.08285" lon="15.776365"><ele>712.0</ele><time>2026-04-24T13:25:58.371Z</time></trkpt><trkpt lat="38.082885" lon="15.77649"><ele>712.0</ele><time>2026-04-24T13:25:59.371Z</time></trkpt><trkpt lat="38.082915" lon="15.7766017"><ele>712.0</ele><time>2026-04-24T13:26:00.371Z</time></trkpt><trkpt lat="38.082945" lon="15.776695"><ele>712.0</ele><time>2026-04-24T13:26:01.372Z</time></trkpt><trkpt lat="38.0829867" lon="15.7767667"><ele>712.0</ele><time>2026-04-24T13:26:02.371Z</time></trkpt><trkpt lat="38.0831033" lon="15.77678"><ele>712.0</ele><time>2026-04-24T13:26:04.371Z</time></trkpt><trkpt lat="38.08316" lon="15.7767283"><ele>712.0</ele><time>2026-04-24T13:26:05.371Z</time></trkpt><trkpt lat="38.08319" lon="15.77664"><ele>712.0</ele><time>2026-04-24T13:26:06.371Z</time></trkpt><trkpt lat="38.0831617" lon="15.776515"><ele>712.0</ele><time>2026-04-24T13:26:07.372Z</time></trkpt><trkpt lat="38.0831083" lon="15.77639"><ele>712.0</ele><time>2026-04-24T13:26:08.371Z</time></trkpt><trkpt lat="38.0830417" lon="15.7762733"><ele>712.0</ele><time>2026-04-24T13:26:09.371Z</time></trkpt><trkpt lat="38.08299" lon="15.7761583"><ele>712.0</ele><time>2026-04-24T13:26:10.371Z</time></trkpt><trkpt lat="38.08294" lon="15.7760433"><ele>712.0</ele><time>2026-04-24T13:26:11.371Z</time></trkpt><trkpt lat="38.0828933" lon="15.775935"><ele>712.0</ele><time>2026-04-24T13:26:12.372Z</time></trkpt><trkpt lat="38.082855" lon="15.7758317"><ele>712.0</ele><time>2026-04-24T13:26:13.371Z</time></trkpt><trkpt lat="38.082815" lon="15.7757183"><ele>708.8</ele><time>2026-04-24T13:26:14.371Z</time></trkpt><trkpt lat="38.082765" lon="15.7756067"><ele>705.6</ele><time>2026-04-24T13:26:15.371Z</time></trkpt><trkpt lat="38.0827067" lon="15.7755067"><ele>702.4</ele><time>2026-04-24T13:26:16.371Z</time></trkpt><trkpt lat="38.0826317" lon="15.7754083"><ele>699.1999999999999</ele><time>2026-04-24T13:26:17.372Z</time></trkpt><trkpt lat="38.082555" lon="15.7753133"><ele>696.0</ele><time>2026-04-24T13:26:18.371Z</time></trkpt><trkpt lat="38.0824867" lon="15.7752133"><ele>698.5999999999999</ele><time>2026-04-24T13:26:19.372Z</time></trkpt><trkpt lat="38.0824283" lon="15.7751017"><ele>701.2</ele><time>2026-04-24T13:26:20.372Z</time></trkpt><trkpt lat="38.0823833" lon="15.774985"><ele>703.8</ele><time>2026-04-24T13:26:21.371Z</time></trkpt><trkpt lat="38.082355" lon="15.7748683"><ele>706.4000000000001</ele><time>2026-04-24T13:26:22.371Z</time></trkpt><trkpt lat="38.082345" lon="15.7747517"><ele>709.0</ele><time>2026-04-24T13:26:23.371Z</time></trkpt><trkpt lat="38.082325" lon="15.77463"><ele>709.0</ele><time>2026-04-24T13:26:24.371Z</time></trkpt><trkpt lat="38.0822917" lon="15.7745083"><ele>709.0</ele><time>2026-04-24T13:26:25.371Z</time></trkpt><trkpt lat="38.082245" lon="15.774395"><ele>709.0</ele><time>2026-04-24T13:26:26.371Z</time></trkpt><trkpt lat="38.0821883" lon="15.7742867"><ele>709.0</ele><time>2026-04-24T13:26:27.371Z</time></trkpt><trkpt lat="38.0821217" lon="15.7741817"><ele>709.0</ele><time>2026-04-24T13:26:28.372Z</time></trkpt><trkpt lat="38.08206" lon="15.7740817"><ele>706.1666666666667</ele><time>2026-04-24T13:26:29.372Z</time></trkpt><trkpt lat="38.0820017" lon="15.7739717"><ele>703.3333333333334</ele><time>2026-04-24T13:26:30.372Z</time></trkpt><trkpt lat="38.0819617" lon="15.7738683"><ele>700.5</ele><time>2026-04-24T13:26:31.372Z</time></trkpt><trkpt lat="38.08195" lon="15.7737667"><ele>697.6666666666666</ele><time>2026-04-24T13:26:32.371Z</time></trkpt><trkpt lat="38.0819633" lon="15.7736567"><ele>694.8333333333333</ele><time>2026-04-24T13:26:33.371Z</time></trkpt><trkpt lat="38.0819933" lon="15.7735583"><ele>692.0</ele><time>2026-04-24T13:26:34.372Z</time></trkpt><trkpt lat="38.0820133" lon="15.7734567"><ele>689.6666666666666</ele><time>2026-04-24T13:26:35.371Z</time></trkpt><trkpt lat="38.0820167" lon="15.7733533"><ele>687.3333333333333</ele><time>2026-04-24T13:26:36.371Z</time></trkpt><trkpt lat="38.08201" lon="15.77325"><ele>685.0</ele><time>2026-04-24T13:26:37.372Z</time></trkpt><trkpt lat="38.081985" lon="15.7731433"><ele>682.6666666666666</ele><time>2026-04-24T13:26:38.371Z</time></trkpt><trkpt lat="38.0819467" lon="15.7730383"><ele>680.3333333333334</ele><time>2026-04-24T13:26:39.371Z</time></trkpt><trkpt lat="38.081905" lon="15.77294"><ele>678.0</ele><time>2026-04-24T13:26:40.372Z</time></trkpt><trkpt lat="38.081855" lon="15.7728567"><ele>678.0</ele><time>2026-04-24T13:26:41.371Z</time></trkpt><trkpt lat="38.0818067" lon="15.77278"><ele>678.0</ele><time>2026-04-24T13:26:42.371Z</time></trkpt><trkpt lat="38.0817667" lon="15.7727033"><ele>678.0</ele><time>2026-04-24T13:26:43.371Z</time></trkpt><trkpt lat="38.081735" lon="15.7726333"><ele>678.0</ele><time>2026-04-24T13:26:44.371Z</time></trkpt><trkpt lat="38.0817183" lon="15.772505"><ele>678.0</ele><time>2026-04-24T13:26:46.372Z</time></trkpt><trkpt lat="38.0817833" lon="15.7724317"><ele>678.0</ele><time>2026-04-24T13:26:48.372Z</time></trkpt><trkpt lat="38.081845" lon="15.7724533"><ele>678.0</ele><time>2026-04-24T13:26:49.372Z</time></trkpt><trkpt lat="38.081905" lon="15.7725017"><ele>678.0</ele><time>2026-04-24T13:26:50.371Z</time></trkpt><trkpt lat="38.08197" lon="15.772585"><ele>678.0</ele><time>2026-04-24T13:26:51.371Z</time></trkpt><trkpt lat="38.0820267" lon="15.7727017"><ele>678.0</ele><time>2026-04-24T13:26:52.372Z</time></trkpt><trkpt lat="38.0820683" lon="15.7728183"><ele>678.0</ele><time>2026-04-24T13:26:53.372Z</time></trkpt><trkpt lat="38.0821017" lon="15.77294"><ele>678.0</ele><time>2026-04-24T13:26:54.371Z</time></trkpt><trkpt lat="38.082125" lon="15.773055"><ele>678.0</ele><time>2026-04-24T13:26:55.371Z</time></trkpt><trkpt lat="38.0821583" lon="15.7731667"><ele>678.0</ele><time>2026-04-24T13:26:56.372Z</time></trkpt><trkpt lat="38.0821983" lon="15.77326"><ele>678.0</ele><time>2026-04-24T13:26:57.372Z</time></trkpt><trkpt lat="38.0822433" lon="15.7733333"><ele>678.0</ele><time>2026-04-24T13:26:58.371Z</time></trkpt><trkpt lat="38.0823383" lon="15.7734067"><ele>678.0</ele><time>2026-04-24T13:27:00.372Z</time></trkpt><trkpt lat="38.0824483" lon="15.77334"><ele>678.0</ele><time>2026-04-24T13:27:02.372Z</time></trkpt><trkpt lat="38.0824833" lon="15.7732517"><ele>678.0</ele><time>2026-04-24T13:27:03.372Z</time></trkpt><trkpt lat="38.0824917" lon="15.7731533"><ele>678.0</ele><time>2026-04-24T13:27:04.371Z</time></trkpt><trkpt lat="38.0824733" lon="15.7730633"><ele>678.0</ele><time>2026-04-24T13:27:05.372Z</time></trkpt><trkpt lat="38.0824367" lon="15.77297"><ele>678.0</ele><time>2026-04-24T13:27:06.372Z</time></trkpt><trkpt lat="38.082385" lon="15.7728767"><ele>678.0</ele><time>2026-04-24T13:27:07.371Z</time></trkpt><trkpt lat="38.0823333" lon="15.7727917"><ele>678.0</ele><time>2026-04-24T13:27:08.372Z</time></trkpt><trkpt lat="38.0822767" lon="15.7727033"><ele>678.0</ele><time>2026-04-24T13:27:09.371Z</time></trkpt><trkpt lat="38.0822167" lon="15.7726067"><ele>678.0</ele><time>2026-04-24T13:27:10.371Z</time></trkpt><trkpt lat="38.0821583" lon="15.772505"><ele>678.0</ele><time>2026-04-24T13:27:11.371Z</time></trkpt><trkpt lat="38.0821" lon="15.7724083"><ele>673.8</ele><time>2026-04-24T13:27:12.371Z</time></trkpt><trkpt lat="38.08204" lon="15.77232"><ele>669.5999999999999</ele><time>2026-04-24T13:27:13.371Z</time></trkpt><trkpt lat="38.0819667" lon="15.7722433"><ele>665.4000000000001</ele><time>2026-04-24T13:27:14.371Z</time></trkpt><trkpt lat="38.08188" lon="15.7721883"><ele>661.2</ele><time>2026-04-24T13:27:15.371Z</time></trkpt><trkpt lat="38.0817867" lon="15.7721433"><ele>657.0</ele><time>2026-04-24T13:27:16.372Z</time></trkpt><trkpt lat="38.0816883" lon="15.7721033"><ele>657.0</ele><time>2026-04-24T13:27:17.371Z</time></trkpt><trkpt lat="38.0816033" lon="15.7720717"><ele>657.0</ele><time>2026-04-24T13:27:18.372Z</time></trkpt><trkpt lat="38.0815217" lon="15.7720233"><ele>657.0</ele><time>2026-04-24T13:27:19.371Z</time></trkpt><trkpt lat="38.08146" lon="15.7719683"><ele>657.0</ele><time>2026-04-24T13:27:20.371Z</time></trkpt><trkpt lat="38.0813983" lon="15.7718933"><ele>657.0</ele><time>2026-04-24T13:27:21.371Z</time></trkpt><trkpt lat="38.0813267" lon="15.7718067"><ele>657.0</ele><time>2026-04-24T13:27:22.371Z</time></trkpt><trkpt lat="38.0812483" lon="15.7717117"><ele>656.0</ele><time>2026-04-24T13:27:23.371Z</time></trkpt><trkpt lat="38.0811683" lon="15.7716167"><ele>655.0</ele><time>2026-04-24T13:27:24.372Z</time></trkpt><trkpt lat="38.0810883" lon="15.77152"><ele>654.0</ele><time>2026-04-24T13:27:25.372Z</time></trkpt><trkpt lat="38.0809983" lon="15.77142"><ele>653.0</ele><time>2026-04-24T13:27:26.372Z</time></trkpt><trkpt lat="38.0809017" lon="15.7713233"><ele>653.0</ele><time>2026-04-24T13:27:27.372Z</time></trkpt><trkpt lat="38.0808" lon="15.77124"><ele>653.0</ele><time>2026-04-24T13:27:28.371Z</time></trkpt><trkpt lat="38.0807117" lon="15.7711483"><ele>653.0</ele><time>2026-04-24T13:27:29.371Z</time></trkpt><trkpt lat="38.0806317" lon="15.7710433"><ele>653.0</ele><time>2026-04-24T13:27:30.372Z</time></trkpt><trkpt lat="38.0805567" lon="15.7709383"><ele>652.25</ele><time>2026-04-24T13:27:31.372Z</time></trkpt><trkpt lat="38.0804717" lon="15.7708233"><ele>651.5</ele><time>2026-04-24T13:27:32.372Z</time></trkpt><trkpt lat="38.0803867" lon="15.7707033"><ele>650.75</ele><time>2026-04-24T13:27:33.371Z</time></trkpt><trkpt lat="38.0803" lon="15.7705833"><ele>650.0</ele><time>2026-04-24T13:27:34.371Z</time></trkpt><trkpt lat="38.0802167" lon="15.7704733"><ele>650.0</ele><time>2026-04-24T13:27:35.371Z</time></trkpt><trkpt lat="38.0801333" lon="15.7703733"><ele>650.0</ele><time>2026-04-24T13:27:36.371Z</time></trkpt><trkpt lat="38.080055" lon="15.7702783"><ele>650.0</ele><time>2026-04-24T13:27:37.371Z</time></trkpt><trkpt lat="38.0799783" lon="15.7701917"><ele>650.0</ele><time>2026-04-24T13:27:38.371Z</time></trkpt><trkpt lat="38.0799117" lon="15.7700967"><ele>650.0</ele><time>2026-04-24T13:27:39.372Z</time></trkpt><trkpt lat="38.0798633" lon="15.7700083"><ele>650.3333333333333</ele><time>2026-04-24T13:27:40.371Z</time></trkpt><trkpt lat="38.0798367" lon="15.76991"><ele>650.6666666666666</ele><time>2026-04-24T13:27:41.371Z</time></trkpt><trkpt lat="38.079855" lon="15.76982"><ele>651.0</ele><time>2026-04-24T13:27:42.371Z</time></trkpt><trkpt lat="38.0799033" lon="15.7697417"><ele>651.3333333333334</ele><time>2026-04-24T13:27:43.372Z</time></trkpt><trkpt lat="38.0799733" lon="15.7697083"><ele>651.6666666666667</ele><time>2026-04-24T13:27:44.371Z</time></trkpt><trkpt lat="38.08005" lon="15.7697283"><ele>652.0</ele><time>2026-04-24T13:27:45.371Z</time></trkpt><trkpt lat="38.0801333" lon="15.7697917"><ele>646.0</ele><time>2026-04-24T13:27:46.371Z</time></trkpt><trkpt lat="38.0802233" lon="15.7698767"><ele>640.0</ele><time>2026-04-24T13:27:47.371Z</time></trkpt><trkpt lat="38.0803217" lon="15.7699767"><ele>634.0</ele><time>2026-04-24T13:27:48.371Z</time></trkpt><trkpt lat="38.0804267" lon="15.7700783"><ele>628.0</ele><time>2026-04-24T13:27:49.371Z</time></trkpt><trkpt lat="38.08052" lon="15.7701767"><ele>626.25</ele><time>2026-04-24T13:27:50.371Z</time></trkpt><trkpt lat="38.08062" lon="15.770265"><ele>624.5</ele><time>2026-04-24T13:27:51.371Z</time></trkpt><trkpt lat="38.080715" lon="15.7703517"><ele>622.75</ele><time>2026-04-24T13:27:52.372Z</time></trkpt><trkpt lat="38.0808183" lon="15.770435"><ele>621.0</ele><time>2026-04-24T13:27:53.371Z</time></trkpt><trkpt lat="38.0809233" lon="15.7705267"><ele>621.0</ele><time>2026-04-24T13:27:54.372Z</time></trkpt><trkpt lat="38.0810183" lon="15.7706133"><ele>621.0</ele><time>2026-04-24T13:27:55.371Z</time></trkpt><trkpt lat="38.0811267" lon="15.7706783"><ele>621.0</ele><time>2026-04-24T13:27:56.372Z</time></trkpt><trkpt lat="38.0812333" lon="15.7707567"><ele>621.0</ele><time>2026-04-24T13:27:57.372Z</time></trkpt><trkpt lat="38.0813417" lon="15.7708367"><ele>621.0</ele><time>2026-04-24T13:27:58.371Z</time></trkpt><trkpt lat="38.0814433" lon="15.77091"><ele>621.0</ele><time>2026-04-24T13:27:59.372Z</time></trkpt><trkpt lat="38.0815483" lon="15.7709767"><ele>621.0</ele><time>2026-04-24T13:28:00.371Z</time></trkpt><trkpt lat="38.0816417" lon="15.771045"><ele>621.0</ele><time>2026-04-24T13:28:01.372Z</time></trkpt><trkpt lat="38.0817417" lon="15.771115"><ele>622.8</ele><time>2026-04-24T13:28:02.371Z</time></trkpt><trkpt lat="38.08183" lon="15.7711817"><ele>624.6</ele><time>2026-04-24T13:28:03.372Z</time></trkpt><trkpt lat="38.0819133" lon="15.7712417"><ele>626.4</ele><time>2026-04-24T13:28:04.371Z</time></trkpt><trkpt lat="38.082005" lon="15.7713"><ele>628.2</ele><time>2026-04-24T13:28:05.372Z</time></trkpt><trkpt lat="38.0820833" lon="15.7713533"><ele>630.0</ele><time>2026-04-24T13:28:06.371Z</time></trkpt><trkpt lat="38.08217" lon="15.7714017"><ele>630.0</ele><time>2026-04-24T13:28:07.371Z</time></trkpt><trkpt lat="38.0822517" lon="15.77146"><ele>630.0</ele><time>2026-04-24T13:28:08.372Z</time></trkpt><trkpt lat="38.0823383" lon="15.7715067"><ele>630.0</ele><time>2026-04-24T13:28:09.372Z</time></trkpt><trkpt lat="38.0824267" lon="15.7715417"><ele>630.0</ele><time>2026-04-24T13:28:10.371Z</time></trkpt><trkpt lat="38.0825167" lon="15.77157"><ele>630.0</ele><time>2026-04-24T13:28:11.372Z</time></trkpt><trkpt lat="38.0826183" lon="15.7715767"><ele>624.2</ele><time>2026-04-24T13:28:12.372Z</time></trkpt><trkpt lat="38.0827267" lon="15.7715733"><ele>618.4</ele><time>2026-04-24T13:28:13.371Z</time></trkpt><trkpt lat="38.0828217" lon="15.7715733"><ele>612.6</ele><time>2026-04-24T13:28:14.371Z</time></trkpt><trkpt lat="38.082915" lon="15.7715833"><ele>606.8</ele><time>2026-04-24T13:28:15.371Z</time></trkpt><trkpt lat="38.0830083" lon="15.771605"><ele>601.0</ele><time>2026-04-24T13:28:16.372Z</time></trkpt><trkpt lat="38.0830933" lon="15.77164"><ele>601.0</ele><time>2026-04-24T13:28:17.372Z</time></trkpt><trkpt lat="38.08317" lon="15.7717"><ele>601.0</ele><time>2026-04-24T13:28:18.371Z</time></trkpt><trkpt lat="38.0832383" lon="15.7717783"><ele>601.0</ele><time>2026-04-24T13:28:19.371Z</time></trkpt><trkpt lat="38.083305" lon="15.7718667"><ele>601.0</ele><time>2026-04-24T13:28:20.371Z</time></trkpt><trkpt lat="38.083375" lon="15.7719483"><ele>601.0</ele><time>2026-04-24T13:28:21.371Z</time></trkpt><trkpt lat="38.0834533" lon="15.772035"><ele>601.3333333333334</ele><time>2026-04-24T13:28:22.371Z</time></trkpt><trkpt lat="38.08352" lon="15.7721167"><ele>601.6666666666667</ele><time>2026-04-24T13:28:23.371Z</time></trkpt><trkpt lat="38.0835783" lon="15.7721967"><ele>602.0</ele><time>2026-04-24T13:28:24.372Z</time></trkpt><trkpt lat="38.0836167" lon="15.7723"><ele>602.3333333333334</ele><time>2026-04-24T13:28:25.371Z</time></trkpt><trkpt lat="38.0836233" lon="15.7724"><ele>602.6666666666666</ele><time>2026-04-24T13:28:26.372Z</time></trkpt><trkpt lat="38.0836067" lon="15.77251"><ele>603.0</ele><time>2026-04-24T13:28:27.371Z</time></trkpt><trkpt lat="38.083565" lon="15.7726133"><ele>603.4</ele><time>2026-04-24T13:28:28.371Z</time></trkpt><trkpt lat="38.083525" lon="15.7727267"><ele>603.8</ele><time>2026-04-24T13:28:29.371Z</time></trkpt><trkpt lat="38.0835017" lon="15.77285"><ele>604.2</ele><time>2026-04-24T13:28:30.371Z</time></trkpt><trkpt lat="38.0834817" lon="15.7729783"><ele>604.6</ele><time>2026-04-24T13:28:31.372Z</time></trkpt><trkpt lat="38.083465" lon="15.7731083"><ele>605.0</ele><time>2026-04-24T13:28:32.372Z</time></trkpt><trkpt lat="38.0834717" lon="15.7732433"><ele>605.0</ele><time>2026-04-24T13:28:33.372Z</time></trkpt><trkpt lat="38.0834883" lon="15.7733783"><ele>605.0</ele><time>2026-04-24T13:28:34.372Z</time></trkpt><trkpt lat="38.083515" lon="15.7735033"><ele>605.0</ele><time>2026-04-24T13:28:35.372Z</time></trkpt><trkpt lat="38.08355" lon="15.7736383"><ele>605.0</ele><time>2026-04-24T13:28:36.371Z</time></trkpt><trkpt lat="38.0835817" lon="15.77377"><ele>605.0</ele><time>2026-04-24T13:28:37.371Z</time></trkpt><trkpt lat="38.08362" lon="15.77389"><ele>606.6</ele><time>2026-04-24T13:28:38.372Z</time></trkpt><trkpt lat="38.0836683" lon="15.7740067"><ele>608.2</ele><time>2026-04-24T13:28:39.371Z</time></trkpt><trkpt lat="38.083735" lon="15.7740983"><ele>609.8</ele><time>2026-04-24T13:28:40.371Z</time></trkpt><trkpt lat="38.0838183" lon="15.7741533"><ele>611.4</ele><time>2026-04-24T13:28:41.371Z</time></trkpt><trkpt lat="38.0839033" lon="15.7741817"><ele>613.0</ele><time>2026-04-24T13:28:42.372Z</time></trkpt><trkpt lat="38.0839967" lon="15.7741867"><ele>613.0</ele><time>2026-04-24T13:28:43.372Z</time></trkpt><trkpt lat="38.0840867" lon="15.7741833"><ele>613.0</ele><time>2026-04-24T13:28:44.372Z</time></trkpt><trkpt lat="38.0841717" lon="15.7741883"><ele>613.0</ele><time>2026-04-24T13:28:45.371Z</time></trkpt><trkpt lat="38.0842717" lon="15.7742433"><ele>613.0</ele><time>2026-04-24T13:28:46.371Z</time></trkpt><trkpt lat="38.0843467" lon="15.7743083"><ele>613.0</ele><time>2026-04-24T13:28:47.372Z</time></trkpt><trkpt lat="38.08442" lon="15.7743983"><ele>612.0</ele><time>2026-04-24T13:28:48.372Z</time></trkpt><trkpt lat="38.0844817" lon="15.77449"><ele>611.0</ele><time>2026-04-24T13:28:49.371Z</time></trkpt><trkpt lat="38.0845317" lon="15.77455"><ele>610.0</ele><time>2026-04-24T13:28:50.372Z</time></trkpt><trkpt lat="38.084625" lon="15.7746433"><ele>609.0</ele><time>2026-04-24T13:28:52.371Z</time></trkpt><trkpt lat="38.0847217" lon="15.7746767"><ele>608.0</ele><time>2026-04-24T13:28:54.371Z</time></trkpt><trkpt lat="38.084805" lon="15.7746617"><ele>608.0</ele><time>2026-04-24T13:28:56.372Z</time></trkpt><trkpt lat="38.0848783" lon="15.774595"><ele>608.0</ele><time>2026-04-24T13:28:58.371Z</time></trkpt><trkpt lat="38.084955" lon="15.7745333"><ele>608.0</ele><time>2026-04-24T13:29:00.372Z</time></trkpt><trkpt lat="38.0850383" lon="15.7744783"><ele>608.0</ele><time>2026-04-24T13:29:02.372Z</time></trkpt><trkpt lat="38.0851383" lon="15.774405"><ele>608.0</ele><time>2026-04-24T13:29:04.372Z</time></trkpt><trkpt lat="38.0852517" lon="15.7743317"><ele>599.8</ele><time>2026-04-24T13:29:06.371Z</time></trkpt><trkpt lat="38.0853117" lon="15.7742933"><ele>591.5999999999999</ele><time>2026-04-24T13:29:07.372Z</time></trkpt><trkpt lat="38.0854167" lon="15.774205"><ele>583.4000000000001</ele><time>2026-04-24T13:29:09.372Z</time></trkpt><trkpt lat="38.0855" lon="15.774085"><ele>575.2</ele><time>2026-04-24T13:29:11.372Z</time></trkpt><trkpt lat="38.085535" lon="15.7740133"><ele>567.0</ele><time>2026-04-24T13:29:12.372Z</time></trkpt><trkpt lat="38.0855683" lon="15.77394"><ele>567.0</ele><time>2026-04-24T13:29:13.371Z</time></trkpt><trkpt lat="38.0856233" lon="15.773795"><ele>567.0</ele><time>2026-04-24T13:29:15.371Z</time></trkpt><trkpt lat="38.0856517" lon="15.77372"><ele>567.0</ele><time>2026-04-24T13:29:16.372Z</time></trkpt><trkpt lat="38.085675" lon="15.7736383"><ele>567.0</ele><time>2026-04-24T13:29:17.372Z</time></trkpt><trkpt lat="38.0856967" lon="15.77349"><ele>567.0</ele><time>2026-04-24T13:29:19.371Z</time></trkpt><trkpt lat="38.0856883" lon="15.77336"><ele>567.0</ele><time>2026-04-24T13:29:21.371Z</time></trkpt><trkpt lat="38.0856317" lon="15.77324"><ele>567.0</ele><time>2026-04-24T13:29:23.371Z</time></trkpt><trkpt lat="38.0855367" lon="15.773125"><ele>567.0</ele><time>2026-04-24T13:29:25.371Z</time></trkpt><trkpt lat="38.08547" lon="15.773085"><ele>567.0</ele><time>2026-04-24T13:29:26.371Z</time></trkpt><trkpt lat="38.0853917" lon="15.77306"><ele>567.0</ele><time>2026-04-24T13:29:27.371Z</time></trkpt><trkpt lat="38.0852833" lon="15.7730333"><ele>567.0</ele><time>2026-04-24T13:29:29.371Z</time></trkpt><trkpt lat="38.085235" lon="15.772945"><ele>567.0</ele><time>2026-04-24T13:29:32.371Z</time></trkpt><trkpt lat="38.085275" lon="15.7727933"><ele>567.0</ele><time>2026-04-24T13:29:34.371Z</time></trkpt><trkpt lat="38.0853033" lon="15.77269"><ele>567.0</ele><time>2026-04-24T13:29:35.371Z</time></trkpt><trkpt lat="38.0853317" lon="15.7725767"><ele>567.0</ele><time>2026-04-24T13:29:36.371Z</time></trkpt><trkpt lat="38.085355" lon="15.7724567"><ele>566.6666666666666</ele><time>2026-04-24T13:29:37.372Z</time></trkpt><trkpt lat="38.0853733" lon="15.7723467"><ele>566.3333333333334</ele><time>2026-04-24T13:29:38.372Z</time></trkpt><trkpt lat="38.0853867" lon="15.7722383"><ele>566.0</ele><time>2026-04-24T13:29:39.372Z</time></trkpt><trkpt lat="38.0853933" lon="15.7721367"><ele>565.6666666666667</ele><time>2026-04-24T13:29:40.372Z</time></trkpt><trkpt lat="38.085405" lon="15.7720317"><ele>565.3333333333334</ele><time>2026-04-24T13:29:41.372Z</time></trkpt><trkpt lat="38.0854167" lon="15.7719267"><ele>565.0</ele><time>2026-04-24T13:29:42.371Z</time></trkpt><trkpt lat="38.08543" lon="15.77182"><ele>565.0</ele><time>2026-04-24T13:29:43.371Z</time></trkpt><trkpt lat="38.08544" lon="15.7717067"><ele>565.0</ele><time>2026-04-24T13:29:44.372Z</time></trkpt><trkpt lat="38.0854617" lon="15.7715983"><ele>565.0</ele><time>2026-04-24T13:29:45.371Z</time></trkpt><trkpt lat="38.0854867" lon="15.7714933"><ele>565.0</ele><time>2026-04-24T13:29:46.371Z</time></trkpt><trkpt lat="38.08552" lon="15.7713967"><ele>565.0</ele><time>2026-04-24T13:29:47.371Z</time></trkpt><trkpt lat="38.0855467" lon="15.7712917"><ele>565.0</ele><time>2026-04-24T13:29:48.372Z</time></trkpt><trkpt lat="38.08556" lon="15.7711867"><ele>565.0</ele><time>2026-04-24T13:29:49.371Z</time></trkpt><trkpt lat="38.0855533" lon="15.771085"><ele>565.0</ele><time>2026-04-24T13:29:50.371Z</time></trkpt><trkpt lat="38.085525" lon="15.7709917"><ele>565.0</ele><time>2026-04-24T13:29:51.371Z</time></trkpt><trkpt lat="38.0854733" lon="15.7708483"><ele>565.0</ele><time>2026-04-24T13:29:53.372Z</time></trkpt><trkpt lat="38.0854" lon="15.7707267"><ele>565.0</ele><time>2026-04-24T13:29:55.371Z</time></trkpt><trkpt lat="38.0853167" lon="15.7706267"><ele>567.3333333333334</ele><time>2026-04-24T13:29:57.371Z</time></trkpt><trkpt lat="38.0852317" lon="15.7705167"><ele>569.6666666666667</ele><time>2026-04-24T13:29:59.372Z</time></trkpt><trkpt lat="38.0852033" lon="15.7704317"><ele>572.0</ele><time>2026-04-24T13:30:00.372Z</time></trkpt><trkpt lat="38.0851867" lon="15.7703483"><ele>574.3333333333334</ele><time>2026-04-24T13:30:01.371Z</time></trkpt><trkpt lat="38.0851867" lon="15.7702567"><ele>576.6666666666666</ele><time>2026-04-24T13:30:02.371Z</time></trkpt><trkpt lat="38.0851967" lon="15.77016"><ele>579.0</ele><time>2026-04-24T13:30:03.371Z</time></trkpt><trkpt lat="38.08522" lon="15.7700667"><ele>581.6666666666666</ele><time>2026-04-24T13:30:04.372Z</time></trkpt><trkpt lat="38.0852417" lon="15.7699733"><ele>584.3333333333334</ele><time>2026-04-24T13:30:05.372Z</time></trkpt><trkpt lat="38.0852733" lon="15.76988"><ele>587.0</ele><time>2026-04-24T13:30:06.372Z</time></trkpt><trkpt lat="38.0853233" lon="15.769815"><ele>589.6666666666667</ele><time>2026-04-24T13:30:07.372Z</time></trkpt><trkpt lat="38.08538" lon="15.7697533"><ele>592.3333333333334</ele><time>2026-04-24T13:30:08.372Z</time></trkpt><trkpt lat="38.0854417" lon="15.7696967"><ele>595.0</ele><time>2026-04-24T13:30:09.372Z</time></trkpt><trkpt lat="38.0855067" lon="15.7696383"><ele>595.0</ele><time>2026-04-24T13:30:10.371Z</time></trkpt><trkpt lat="38.0855717" lon="15.7695867"><ele>595.0</ele><time>2026-04-24T13:30:11.371Z</time></trkpt><trkpt lat="38.085645" lon="15.7695217"><ele>595.0</ele><time>2026-04-24T13:30:12.372Z</time></trkpt><trkpt lat="38.0856983" lon="15.76946"><ele>595.0</ele><time>2026-04-24T13:30:13.372Z</time></trkpt><trkpt lat="38.0857433" lon="15.7693917"><ele>595.0</ele><time>2026-04-24T13:30:14.371Z</time></trkpt><trkpt lat="38.0857517" lon="15.7693117"><ele>595.0</ele><time>2026-04-24T13:30:15.372Z</time></trkpt><trkpt lat="38.085685" lon="15.7691783"><ele>596.3333333333334</ele><time>2026-04-24T13:30:17.372Z</time></trkpt><trkpt lat="38.0856233" lon="15.7691267"><ele>597.6666666666667</ele><time>2026-04-24T13:30:18.372Z</time></trkpt><trkpt lat="38.0855567" lon="15.76908"><ele>599.0</ele><time>2026-04-24T13:30:19.371Z</time></trkpt><trkpt lat="38.0854967" lon="15.7690417"><ele>600.3333333333334</ele><time>2026-04-24T13:30:20.372Z</time></trkpt><trkpt lat="38.0854417" lon="15.76898"><ele>601.6666666666666</ele><time>2026-04-24T13:30:21.372Z</time></trkpt><trkpt lat="38.0854067" lon="15.7689"><ele>603.0</ele><time>2026-04-24T13:30:22.372Z</time></trkpt><trkpt lat="38.0854467" lon="15.76873"><ele>603.0</ele><time>2026-04-24T13:30:23.371Z</time></trkpt><trkpt lat="38.0854467" lon="15.7685717"><ele>603.0</ele><time>2026-04-24T13:30:25.371Z</time></trkpt><trkpt lat="38.0854667" lon="15.768485"><ele>603.0</ele><time>2026-04-24T13:30:26.371Z</time></trkpt><trkpt lat="38.0854867" lon="15.7684033"><ele>603.0</ele><time>2026-04-24T13:30:27.371Z</time></trkpt><trkpt lat="38.0855033" lon="15.7683217"><ele>603.0</ele><time>2026-04-24T13:30:28.372Z</time></trkpt><trkpt lat="38.085545" lon="15.768195"><ele>603.0</ele><time>2026-04-24T13:30:30.371Z</time></trkpt><trkpt lat="38.0855833" lon="15.7680717"><ele>605.4</ele><time>2026-04-24T13:30:32.371Z</time></trkpt><trkpt lat="38.0856067" lon="15.7679467"><ele>607.8</ele><time>2026-04-24T13:30:34.371Z</time></trkpt><trkpt lat="38.085585" lon="15.7678367"><ele>610.2</ele><time>2026-04-24T13:30:36.372Z</time></trkpt><trkpt lat="38.0855467" lon="15.7676883"><ele>612.6</ele><time>2026-04-24T13:30:38.372Z</time></trkpt><trkpt lat="38.085555" lon="15.7675933"><ele>615.0</ele><time>2026-04-24T13:30:39.371Z</time></trkpt><trkpt lat="38.08557" lon="15.7675083"><ele>619.0</ele><time>2026-04-24T13:30:40.372Z</time></trkpt><trkpt lat="38.0855633" lon="15.76741"><ele>623.0</ele><time>2026-04-24T13:30:41.371Z</time></trkpt><trkpt lat="38.0855417" lon="15.7673267"><ele>627.0</ele><time>2026-04-24T13:30:42.371Z</time></trkpt><trkpt lat="38.08551" lon="15.767255"><ele>631.0</ele><time>2026-04-24T13:30:43.372Z</time></trkpt><trkpt lat="38.0854317" lon="15.7671533"><ele>635.0</ele><time>2026-04-24T13:30:45.371Z</time></trkpt><trkpt lat="38.085335" lon="15.767125"><ele>639.0</ele><time>2026-04-24T13:30:47.371Z</time></trkpt><trkpt lat="38.08527" lon="15.767145"><ele>639.0</ele><time>2026-04-24T13:30:48.372Z</time></trkpt><trkpt lat="38.08515" lon="15.7671733"><ele>639.0</ele><time>2026-04-24T13:30:50.372Z</time></trkpt><trkpt lat="38.0850283" lon="15.7672067"><ele>639.0</ele><time>2026-04-24T13:30:52.372Z</time></trkpt><trkpt lat="38.084955" lon="15.7672417"><ele>639.0</ele><time>2026-04-24T13:30:53.372Z</time></trkpt><trkpt lat="38.08488" lon="15.767275"><ele>639.0</ele><time>2026-04-24T13:30:54.371Z</time></trkpt><trkpt lat="38.08481" lon="15.76731"><ele>638.6666666666666</ele><time>2026-04-24T13:30:55.372Z</time></trkpt><trkpt lat="38.084735" lon="15.7673633"><ele>638.3333333333334</ele><time>2026-04-24T13:30:56.372Z</time></trkpt><trkpt lat="38.0846483" lon="15.7674"><ele>638.0</ele><time>2026-04-24T13:30:57.372Z</time></trkpt><trkpt lat="38.08457" lon="15.7674033"><ele>637.6666666666667</ele><time>2026-04-24T13:30:58.371Z</time></trkpt><trkpt lat="38.0844983" lon="15.7673917"><ele>637.3333333333334</ele><time>2026-04-24T13:30:59.371Z</time></trkpt><trkpt lat="38.0844333" lon="15.7673667"><ele>637.0</ele><time>2026-04-24T13:31:00.372Z</time></trkpt><trkpt lat="38.0843317" lon="15.7672783"><ele>637.0</ele><time>2026-04-24T13:31:02.372Z</time></trkpt><trkpt lat="38.0842983" lon="15.76721"><ele>637.0</ele><time>2026-04-24T13:31:03.371Z</time></trkpt><trkpt lat="38.0842633" lon="15.7671433"><ele>637.0</ele><time>2026-04-24T13:31:04.371Z</time></trkpt><trkpt lat="38.0841967" lon="15.7670333"><ele>637.0</ele><time>2026-04-24T13:31:06.372Z</time></trkpt><trkpt lat="38.0841617" lon="15.7669667"><ele>637.0</ele><time>2026-04-24T13:31:07.371Z</time></trkpt><trkpt lat="38.0841267" lon="15.7668983"><ele>637.0</ele><time>2026-04-24T13:31:08.371Z</time></trkpt><trkpt lat="38.084045" lon="15.7667883"><ele>634.0</ele><time>2026-04-24T13:31:10.371Z</time></trkpt><trkpt lat="38.0839983" lon="15.7667333"><ele>631.0</ele><time>2026-04-24T13:31:11.371Z</time></trkpt><trkpt lat="38.0839467" lon="15.7666733"><ele>628.0</ele><time>2026-04-24T13:31:12.372Z</time></trkpt><trkpt lat="38.08391" lon="15.7666033"><ele>625.0</ele><time>2026-04-24T13:31:13.371Z</time></trkpt><trkpt lat="38.08388" lon="15.7665217"><ele>622.0</ele><time>2026-04-24T13:31:14.371Z</time></trkpt><trkpt lat="38.08385" lon="15.76645"><ele>619.0</ele><time>2026-04-24T13:31:15.371Z</time></trkpt><trkpt lat="38.0838233" lon="15.766375"><ele>616.0</ele><time>2026-04-24T13:31:16.372Z</time></trkpt><trkpt lat="38.0837983" lon="15.7662933"><ele>616.0</ele><time>2026-04-24T13:31:17.371Z</time></trkpt><trkpt lat="38.0837883" lon="15.7662083"><ele>616.0</ele><time>2026-04-24T13:31:18.371Z</time></trkpt><trkpt lat="38.0837917" lon="15.7661167"><ele>616.0</ele><time>2026-04-24T13:31:19.371Z</time></trkpt><trkpt lat="38.0837983" lon="15.7660217"><ele>616.0</ele><time>2026-04-24T13:31:20.371Z</time></trkpt><trkpt lat="38.083795" lon="15.7659283"><ele>616.0</ele><time>2026-04-24T13:31:21.371Z</time></trkpt><trkpt lat="38.0837683" lon="15.765845"><ele>616.0</ele><time>2026-04-24T13:31:22.372Z</time></trkpt><trkpt lat="38.0837217" lon="15.765765"><ele>616.0</ele><time>2026-04-24T13:31:23.371Z</time></trkpt><trkpt lat="38.0836633" lon="15.7657"><ele>617.8333333333334</ele><time>2026-04-24T13:31:24.371Z</time></trkpt><trkpt lat="38.0835933" lon="15.7656483"><ele>619.6666666666667</ele><time>2026-04-24T13:31:25.371Z</time></trkpt><trkpt lat="38.08353" lon="15.7655933"><ele>621.5</ele><time>2026-04-24T13:31:26.371Z</time></trkpt><trkpt lat="38.08347" lon="15.7655517"><ele>623.3333333333334</ele><time>2026-04-24T13:31:27.372Z</time></trkpt><trkpt lat="38.083415" lon="15.765505"><ele>625.1666666666666</ele><time>2026-04-24T13:31:28.372Z</time></trkpt><trkpt lat="38.0833767" lon="15.7653767"><ele>627.0</ele><time>2026-04-24T13:31:30.371Z</time></trkpt><trkpt lat="38.0834067" lon="15.7653"><ele>627.0</ele><time>2026-04-24T13:31:31.372Z</time></trkpt><trkpt lat="38.0834467" lon="15.7652117"><ele>627.0</ele><time>2026-04-24T13:31:32.371Z</time></trkpt><trkpt lat="38.083485" lon="15.7651217"><ele>627.0</ele><time>2026-04-24T13:31:33.371Z</time></trkpt><trkpt lat="38.0835167" lon="15.765025"><ele>627.0</ele><time>2026-04-24T13:31:34.371Z</time></trkpt><trkpt lat="38.0835567" lon="15.7649367"><ele>627.0</ele><time>2026-04-24T13:31:35.371Z</time></trkpt><trkpt lat="38.0836017" lon="15.7648583"><ele>627.0</ele><time>2026-04-24T13:31:36.372Z</time></trkpt><trkpt lat="38.0836317" lon="15.7647767"><ele>627.4285714285714</ele><time>2026-04-24T13:31:37.371Z</time></trkpt><trkpt lat="38.0836633" lon="15.7647"><ele>627.8571428571429</ele><time>2026-04-24T13:31:38.371Z</time></trkpt><trkpt lat="38.0836817" lon="15.76461"><ele>628.2857142857142</ele><time>2026-04-24T13:31:39.371Z</time></trkpt><trkpt lat="38.08369" lon="15.76452"><ele>628.7142857142858</ele><time>2026-04-24T13:31:40.371Z</time></trkpt><trkpt lat="38.0836917" lon="15.7644317"><ele>629.1428571428571</ele><time>2026-04-24T13:31:41.372Z</time></trkpt><trkpt lat="38.0836933" lon="15.7643367"><ele>629.5714285714286</ele><time>2026-04-24T13:31:42.372Z</time></trkpt><trkpt lat="38.0836967" lon="15.7642417"><ele>630.0</ele><time>2026-04-24T13:31:43.372Z</time></trkpt><trkpt lat="38.083705" lon="15.7641433"><ele>630.0</ele><time>2026-04-24T13:31:44.371Z</time></trkpt><trkpt lat="38.0837217" lon="15.7640317"><ele>630.0</ele><time>2026-04-24T13:31:45.371Z</time></trkpt><trkpt lat="38.08373" lon="15.7639317"><ele>630.0</ele><time>2026-04-24T13:31:46.372Z</time></trkpt><trkpt lat="38.0837517" lon="15.7638383"><ele>630.0</ele><time>2026-04-24T13:31:47.371Z</time></trkpt><trkpt lat="38.08379" lon="15.7637483"><ele>630.0</ele><time>2026-04-24T13:31:48.372Z</time></trkpt><trkpt lat="38.083835" lon="15.763675"><ele>630.0</ele><time>2026-04-24T13:31:49.371Z</time></trkpt><trkpt lat="38.08386" lon="15.763595"><ele>630.5</ele><time>2026-04-24T13:31:50.371Z</time></trkpt><trkpt lat="38.0838733" lon="15.7635133"><ele>631.0</ele><time>2026-04-24T13:31:51.371Z</time></trkpt><trkpt lat="38.0838683" lon="15.76339"><ele>631.5</ele><time>2026-04-24T13:31:53.372Z</time></trkpt><trkpt lat="38.083845" lon="15.7632267"><ele>632.0</ele><time>2026-04-24T13:31:55.372Z</time></trkpt><trkpt lat="38.0838283" lon="15.763145"><ele>632.5</ele><time>2026-04-24T13:31:56.372Z</time></trkpt><trkpt lat="38.0838117" lon="15.7630567"><ele>633.0</ele><time>2026-04-24T13:31:57.371Z</time></trkpt><trkpt lat="38.0837733" lon="15.7629833"><ele>633.0</ele><time>2026-04-24T13:31:58.371Z</time></trkpt><trkpt lat="38.0837183" lon="15.7629117"><ele>633.0</ele><time>2026-04-24T13:31:59.371Z</time></trkpt><trkpt lat="38.0836583" lon="15.7628467"><ele>633.0</ele><time>2026-04-24T13:32:00.372Z</time></trkpt><trkpt lat="38.083585" lon="15.7627967"><ele>633.0</ele><time>2026-04-24T13:32:01.371Z</time></trkpt><trkpt lat="38.0835217" lon="15.7627617"><ele>633.0</ele><time>2026-04-24T13:32:02.371Z</time></trkpt><trkpt lat="38.0834333" lon="15.762665"><ele>633.0</ele><time>2026-04-24T13:32:04.371Z</time></trkpt><trkpt lat="38.0834167" lon="15.7625333"><ele>630.8</ele><time>2026-04-24T13:32:06.372Z</time></trkpt><trkpt lat="38.08339" lon="15.7624183"><ele>628.5999999999999</ele><time>2026-04-24T13:32:08.371Z</time></trkpt><trkpt lat="38.083375" lon="15.76225"><ele>626.4000000000001</ele><time>2026-04-24T13:32:10.371Z</time></trkpt><trkpt lat="38.08333" lon="15.76216"><ele>624.2</ele><time>2026-04-24T13:32:11.371Z</time></trkpt><trkpt lat="38.08329" lon="15.76207"><ele>622.0</ele><time>2026-04-24T13:32:12.371Z</time></trkpt><trkpt lat="38.0832467" lon="15.7619867"><ele>622.0</ele><time>2026-04-24T13:32:13.371Z</time></trkpt><trkpt lat="38.0832133" lon="15.761895"><ele>622.0</ele><time>2026-04-24T13:32:14.372Z</time></trkpt><trkpt lat="38.0831717" lon="15.7618067"><ele>622.0</ele><time>2026-04-24T13:32:15.371Z</time></trkpt><trkpt lat="38.0831167" lon="15.7617217"><ele>622.0</ele><time>2026-04-24T13:32:16.372Z</time></trkpt><trkpt lat="38.083075" lon="15.7616333"><ele>622.0</ele><time>2026-04-24T13:32:17.372Z</time></trkpt><trkpt lat="38.0830433" lon="15.7615417"><ele>622.0</ele><time>2026-04-24T13:32:18.372Z</time></trkpt><trkpt lat="38.0830217" lon="15.7614467"><ele>625.5</ele><time>2026-04-24T13:32:19.372Z</time></trkpt><trkpt lat="38.0830017" lon="15.7613583"><ele>629.0</ele><time>2026-04-24T13:32:20.372Z</time></trkpt><trkpt lat="38.0829717" lon="15.7612783"><ele>632.5</ele><time>2026-04-24T13:32:21.371Z</time></trkpt><trkpt lat="38.0829017" lon="15.7612067"><ele>636.0</ele><time>2026-04-24T13:32:22.371Z</time></trkpt><trkpt lat="38.0828067" lon="15.7611717"><ele>639.5</ele><time>2026-04-24T13:32:23.371Z</time></trkpt><trkpt lat="38.0827217" lon="15.76114"><ele>643.0</ele><time>2026-04-24T13:32:24.372Z</time></trkpt><trkpt lat="38.0826333" lon="15.7611167"><ele>643.0</ele><time>2026-04-24T13:32:25.372Z</time></trkpt><trkpt lat="38.08255" lon="15.7610983"><ele>643.0</ele><time>2026-04-24T13:32:26.372Z</time></trkpt><trkpt lat="38.08247" lon="15.7610767"><ele>643.0</ele><time>2026-04-24T13:32:27.372Z</time></trkpt><trkpt lat="38.08239" lon="15.7610483"><ele>643.0</ele><time>2026-04-24T13:32:28.372Z</time></trkpt><trkpt lat="38.0823133" lon="15.7610267"><ele>643.0</ele><time>2026-04-24T13:32:29.371Z</time></trkpt><trkpt lat="38.082245" lon="15.7610067"><ele>643.0</ele><time>2026-04-24T13:32:30.371Z</time></trkpt><trkpt lat="38.0821867" lon="15.7609467"><ele>639.3333333333334</ele><time>2026-04-24T13:32:31.371Z</time></trkpt><trkpt lat="38.0821433" lon="15.7608667"><ele>635.6666666666667</ele><time>2026-04-24T13:32:32.371Z</time></trkpt><trkpt lat="38.0821233" lon="15.7607717"><ele>632.0</ele><time>2026-04-24T13:32:33.372Z</time></trkpt><trkpt lat="38.0821167" lon="15.7606783"><ele>628.3333333333334</ele><time>2026-04-24T13:32:34.371Z</time></trkpt><trkpt lat="38.0821433" lon="15.76058"><ele>624.6666666666666</ele><time>2026-04-24T13:32:35.372Z</time></trkpt><trkpt lat="38.0821917" lon="15.7605083"><ele>621.0</ele><time>2026-04-24T13:32:36.371Z</time></trkpt><trkpt lat="38.08226" lon="15.7604667"><ele>621.0</ele><time>2026-04-24T13:32:37.371Z</time></trkpt><trkpt lat="38.082335" lon="15.7604317"><ele>621.0</ele><time>2026-04-24T13:32:38.372Z</time></trkpt><trkpt lat="38.0823983" lon="15.760385"><ele>621.0</ele><time>2026-04-24T13:32:39.371Z</time></trkpt><trkpt lat="38.082455" lon="15.7603267"><ele>621.0</ele><time>2026-04-24T13:32:40.372Z</time></trkpt><trkpt lat="38.0825067" lon="15.7602633"><ele>621.0</ele><time>2026-04-24T13:32:41.371Z</time></trkpt><trkpt lat="38.08255" lon="15.7602017"><ele>621.0</ele><time>2026-04-24T13:32:42.372Z</time></trkpt><trkpt lat="38.0825867" lon="15.7600567"><ele>623.1666666666666</ele><time>2026-04-24T13:32:44.371Z</time></trkpt><trkpt lat="38.0825717" lon="15.7599767"><ele>625.3333333333334</ele><time>2026-04-24T13:32:45.371Z</time></trkpt><trkpt lat="38.0825217" lon="15.759905"><ele>627.5</ele><time>2026-04-24T13:32:46.371Z</time></trkpt><trkpt lat="38.0824533" lon="15.75985"><ele>629.6666666666667</ele><time>2026-04-24T13:32:47.371Z</time></trkpt><trkpt lat="38.0823617" lon="15.7598133"><ele>631.8333333333334</ele><time>2026-04-24T13:32:48.372Z</time></trkpt><trkpt lat="38.082275" lon="15.7597817"><ele>634.0</ele><time>2026-04-24T13:32:49.371Z</time></trkpt><trkpt lat="38.082185" lon="15.75976"><ele>634.0</ele><time>2026-04-24T13:32:50.372Z</time></trkpt><trkpt lat="38.08211" lon="15.7597267"><ele>634.0</ele><time>2026-04-24T13:32:51.371Z</time></trkpt><trkpt lat="38.0820317" lon="15.75969"><ele>634.0</ele><time>2026-04-24T13:32:52.372Z</time></trkpt><trkpt lat="38.0819583" lon="15.75963"><ele>634.0</ele><time>2026-04-24T13:32:53.372Z</time></trkpt><trkpt lat="38.0818867" lon="15.7595617"><ele>634.0</ele><time>2026-04-24T13:32:54.371Z</time></trkpt><trkpt lat="38.0818183" lon="15.7595"><ele>634.0</ele><time>2026-04-24T13:32:55.371Z</time></trkpt><trkpt lat="38.0817383" lon="15.75945"><ele>634.0</ele><time>2026-04-24T13:32:56.371Z</time></trkpt><trkpt lat="38.0816533" lon="15.75942"><ele>634.0</ele><time>2026-04-24T13:32:57.372Z</time></trkpt><trkpt lat="38.0815667" lon="15.759385"><ele>634.0</ele><time>2026-04-24T13:32:58.372Z</time></trkpt><trkpt lat="38.0814817" lon="15.759325"><ele>634.0</ele><time>2026-04-24T13:32:59.371Z</time></trkpt><trkpt lat="38.081405" lon="15.7592583"><ele>634.0</ele><time>2026-04-24T13:33:00.372Z</time></trkpt><trkpt lat="38.081335" lon="15.7591833"><ele>633.6666666666667</ele><time>2026-04-24T13:33:01.372Z</time></trkpt><trkpt lat="38.0812667" lon="15.759105"><ele>633.3333333333334</ele><time>2026-04-24T13:33:02.371Z</time></trkpt><trkpt lat="38.0811967" lon="15.759035"><ele>633.0</ele><time>2026-04-24T13:33:03.372Z</time></trkpt><trkpt lat="38.0811317" lon="15.7589567"><ele>632.6666666666666</ele><time>2026-04-24T13:33:04.371Z</time></trkpt><trkpt lat="38.0810717" lon="15.758885"><ele>632.3333333333333</ele><time>2026-04-24T13:33:05.372Z</time></trkpt><trkpt lat="38.081025" lon="15.7588017"><ele>632.0</ele><time>2026-04-24T13:33:06.371Z</time></trkpt><trkpt lat="38.0809933" lon="15.7587183"><ele>632.0</ele><time>2026-04-24T13:33:07.372Z</time></trkpt><trkpt lat="38.0809717" lon="15.7586167"><ele>632.0</ele><time>2026-04-24T13:33:08.371Z</time></trkpt><trkpt lat="38.0809683" lon="15.7585017"><ele>632.0</ele><time>2026-04-24T13:33:09.372Z</time></trkpt><trkpt lat="38.080975" lon="15.7583967"><ele>632.0</ele><time>2026-04-24T13:33:10.371Z</time></trkpt><trkpt lat="38.08098" lon="15.7583"><ele>632.0</ele><time>2026-04-24T13:33:11.371Z</time></trkpt><trkpt lat="38.08098" lon="15.75821"><ele>632.0</ele><time>2026-04-24T13:33:12.371Z</time></trkpt><trkpt lat="38.08097" lon="15.75813"><ele>636.0</ele><time>2026-04-24T13:33:13.371Z</time></trkpt><trkpt lat="38.0809417" lon="15.7580517"><ele>640.0</ele><time>2026-04-24T13:33:14.371Z</time></trkpt><trkpt lat="38.0809" lon="15.757975"><ele>644.0</ele><time>2026-04-24T13:33:15.371Z</time></trkpt><trkpt lat="38.0808333" lon="15.75793"><ele>648.0</ele><time>2026-04-24T13:33:16.372Z</time></trkpt><trkpt lat="38.0807633" lon="15.757885"><ele>652.0</ele><time>2026-04-24T13:33:17.371Z</time></trkpt><trkpt lat="38.080685" lon="15.75785"><ele>656.0</ele><time>2026-04-24T13:33:18.371Z</time></trkpt><trkpt lat="38.0806133" lon="15.7578183"><ele>652.0</ele><time>2026-04-24T13:33:19.372Z</time></trkpt><trkpt lat="38.0805383" lon="15.7577867"><ele>648.0</ele><time>2026-04-24T13:33:20.371Z</time></trkpt><trkpt lat="38.08047" lon="15.7577583"><ele>644.0</ele><time>2026-04-24T13:33:21.371Z</time></trkpt><trkpt lat="38.080385" lon="15.7576567"><ele>640.0</ele><time>2026-04-24T13:33:23.371Z</time></trkpt><trkpt lat="38.08036" lon="15.757575"><ele>636.0</ele><time>2026-04-24T13:33:24.371Z</time></trkpt><trkpt lat="38.0803383" lon="15.7574883"><ele>632.0</ele><time>2026-04-24T13:33:25.372Z</time></trkpt><trkpt lat="38.0803067" lon="15.75741"><ele>632.0</ele><time>2026-04-24T13:33:26.371Z</time></trkpt><trkpt lat="38.0802617" lon="15.7573367"><ele>632.0</ele><time>2026-04-24T13:33:27.371Z</time></trkpt><trkpt lat="38.08021" lon="15.7572583"><ele>632.0</ele><time>2026-04-24T13:33:28.372Z</time></trkpt><trkpt lat="38.0801517" lon="15.7571817"><ele>632.0</ele><time>2026-04-24T13:33:29.372Z</time></trkpt><trkpt lat="38.0800883" lon="15.7571067"><ele>632.0</ele><time>2026-04-24T13:33:30.371Z</time></trkpt><trkpt lat="38.0800167" lon="15.75703"><ele>632.0</ele><time>2026-04-24T13:33:31.371Z</time></trkpt><trkpt lat="38.07995" lon="15.75695"><ele>628.0</ele><time>2026-04-24T13:33:32.372Z</time></trkpt><trkpt lat="38.07988" lon="15.7568633"><ele>624.0</ele><time>2026-04-24T13:33:33.371Z</time></trkpt><trkpt lat="38.079805" lon="15.756775"><ele>620.0</ele><time>2026-04-24T13:33:34.372Z</time></trkpt><trkpt lat="38.0797317" lon="15.756685"><ele>616.0</ele><time>2026-04-24T13:33:35.372Z</time></trkpt><trkpt lat="38.07966" lon="15.7565833"><ele>612.0</ele><time>2026-04-24T13:33:36.372Z</time></trkpt><trkpt lat="38.07959" lon="15.756485"><ele>612.0</ele><time>2026-04-24T13:33:37.372Z</time></trkpt><trkpt lat="38.079525" lon="15.7564"><ele>612.0</ele><time>2026-04-24T13:33:38.372Z</time></trkpt><trkpt lat="38.079475" lon="15.75632"><ele>612.0</ele><time>2026-04-24T13:33:39.372Z</time></trkpt><trkpt lat="38.0794417" lon="15.7562317"><ele>612.0</ele><time>2026-04-24T13:33:40.371Z</time></trkpt><trkpt lat="38.0794233" lon="15.7561417"><ele>612.0</ele><time>2026-04-24T13:33:41.371Z</time></trkpt><trkpt lat="38.079445" lon="15.75606"><ele>612.0</ele><time>2026-04-24T13:33:42.371Z</time></trkpt><trkpt lat="38.0795033" lon="15.7559483"><ele>612.0</ele><time>2026-04-24T13:33:44.372Z</time></trkpt><trkpt lat="38.0795767" lon="15.75596"><ele>612.0</ele><time>2026-04-24T13:33:45.372Z</time></trkpt><trkpt lat="38.0796767" lon="15.7559967"><ele>612.0</ele><time>2026-04-24T13:33:46.371Z</time></trkpt><trkpt lat="38.0797867" lon="15.7560367"><ele>612.0</ele><time>2026-04-24T13:33:47.372Z</time></trkpt><trkpt lat="38.0798883" lon="15.7560683"><ele>612.0</ele><time>2026-04-24T13:33:48.372Z</time></trkpt><trkpt lat="38.079985" lon="15.7560983"><ele>620.0</ele><time>2026-04-24T13:33:49.372Z</time></trkpt><trkpt lat="38.0800867" lon="15.7561283"><ele>628.0</ele><time>2026-04-24T13:33:50.372Z</time></trkpt><trkpt lat="38.080175" lon="15.756165"><ele>636.0</ele><time>2026-04-24T13:33:51.371Z</time></trkpt><trkpt lat="38.0802717" lon="15.756185"><ele>644.0</ele><time>2026-04-24T13:33:52.372Z</time></trkpt><trkpt lat="38.080365" lon="15.7561917"><ele>652.0</ele><time>2026-04-24T13:33:53.372Z</time></trkpt><trkpt lat="38.0804517" lon="15.7561517"><ele>652.0</ele><time>2026-04-24T13:33:54.371Z</time></trkpt><trkpt lat="38.0805383" lon="15.7560967"><ele>652.0</ele><time>2026-04-24T13:33:55.372Z</time></trkpt><trkpt lat="38.08063" lon="15.7560133"><ele>652.0</ele><time>2026-04-24T13:33:56.372Z</time></trkpt><trkpt lat="38.0807217" lon="15.75591"><ele>652.0</ele><time>2026-04-24T13:33:57.371Z</time></trkpt><trkpt lat="38.0808083" lon="15.7557967"><ele>650.25</ele><time>2026-04-24T13:33:58.372Z</time></trkpt><trkpt lat="38.080895" lon="15.7557"><ele>648.5</ele><time>2026-04-24T13:33:59.371Z</time></trkpt><trkpt lat="38.08097" lon="15.7555883"><ele>646.75</ele><time>2026-04-24T13:34:00.371Z</time></trkpt><trkpt lat="38.0810367" lon="15.75546"><ele>645.0</ele><time>2026-04-24T13:34:01.371Z</time></trkpt><trkpt lat="38.0810967" lon="15.7553367"><ele>645.0</ele><time>2026-04-24T13:34:02.372Z</time></trkpt><trkpt lat="38.0811517" lon="15.75523"><ele>645.0</ele><time>2026-04-24T13:34:03.372Z</time></trkpt><trkpt lat="38.0811883" lon="15.755115"><ele>645.0</ele><time>2026-04-24T13:34:04.371Z</time></trkpt><trkpt lat="38.0812283" lon="15.755"><ele>645.0</ele><time>2026-04-24T13:34:05.371Z</time></trkpt><trkpt lat="38.0812767" lon="15.7548933"><ele>645.0</ele><time>2026-04-24T13:34:06.371Z</time></trkpt><trkpt lat="38.0813317" lon="15.7547917"><ele>639.4</ele><time>2026-04-24T13:34:07.371Z</time></trkpt><trkpt lat="38.0813867" lon="15.754695"><ele>633.8</ele><time>2026-04-24T13:34:08.371Z</time></trkpt><trkpt lat="38.0814333" lon="15.754595"><ele>628.2</ele><time>2026-04-24T13:34:09.372Z</time></trkpt><trkpt lat="38.081465" lon="15.7544883"><ele>622.6</ele><time>2026-04-24T13:34:10.371Z</time></trkpt><trkpt lat="38.0814933" lon="15.7543833"><ele>617.0</ele><time>2026-04-24T13:34:11.371Z</time></trkpt><trkpt lat="38.081515" lon="15.7542733"><ele>618.8000000000001</ele><time>2026-04-24T13:34:12.371Z</time></trkpt><trkpt lat="38.08156" lon="15.754165"><ele>620.6</ele><time>2026-04-24T13:34:13.371Z</time></trkpt><trkpt lat="38.0816133" lon="15.75405"><ele>622.4000000000001</ele><time>2026-04-24T13:34:14.371Z</time></trkpt><trkpt lat="38.08168" lon="15.7539383"><ele>624.2</ele><time>2026-04-24T13:34:15.371Z</time></trkpt><trkpt lat="38.0817483" lon="15.7538167"><ele>626.0</ele><time>2026-04-24T13:34:16.372Z</time></trkpt><trkpt lat="38.0818217" lon="15.753695"><ele>626.0</ele><time>2026-04-24T13:34:17.371Z</time></trkpt><trkpt lat="38.081885" lon="15.753585"><ele>626.0</ele><time>2026-04-24T13:34:18.372Z</time></trkpt><trkpt lat="38.0819483" lon="15.7534683"><ele>626.0</ele><time>2026-04-24T13:34:19.372Z</time></trkpt><trkpt lat="38.082005" lon="15.7533617"><ele>626.0</ele><time>2026-04-24T13:34:20.371Z</time></trkpt><trkpt lat="38.0820617" lon="15.7532617"><ele>626.0</ele><time>2026-04-24T13:34:21.372Z</time></trkpt><trkpt lat="38.0821283" lon="15.75316"><ele>622.0</ele><time>2026-04-24T13:34:22.372Z</time></trkpt><trkpt lat="38.0821917" lon="15.7530717"><ele>618.0</ele><time>2026-04-24T13:34:23.372Z</time></trkpt><trkpt lat="38.08225" lon="15.7529767"><ele>614.0</ele><time>2026-04-24T13:34:24.371Z</time></trkpt><trkpt lat="38.0823067" lon="15.7528767"><ele>610.0</ele><time>2026-04-24T13:34:25.371Z</time></trkpt><trkpt lat="38.08236" lon="15.7527783"><ele>606.0</ele><time>2026-04-24T13:34:26.371Z</time></trkpt><trkpt lat="38.08241" lon="15.7526883"><ele>607.0</ele><time>2026-04-24T13:34:27.372Z</time></trkpt><trkpt lat="38.0824767" lon="15.7526033"><ele>608.0</ele><time>2026-04-24T13:34:28.371Z</time></trkpt><trkpt lat="38.0825583" lon="15.75253"><ele>609.0</ele><time>2026-04-24T13:34:29.371Z</time></trkpt><trkpt lat="38.0826467" lon="15.75246"><ele>610.0</ele><time>2026-04-24T13:34:30.371Z</time></trkpt><trkpt lat="38.082735" lon="15.7523917"><ele>611.0</ele><time>2026-04-24T13:34:31.371Z</time></trkpt><trkpt lat="38.0828367" lon="15.75232"><ele>611.0</ele><time>2026-04-24T13:34:32.371Z</time></trkpt><trkpt lat="38.0829417" lon="15.7522433"><ele>611.0</ele><time>2026-04-24T13:34:33.371Z</time></trkpt><trkpt lat="38.083045" lon="15.7521633"><ele>611.0</ele><time>2026-04-24T13:34:34.371Z</time></trkpt><trkpt lat="38.083155" lon="15.752095"><ele>611.0</ele><time>2026-04-24T13:34:35.371Z</time></trkpt><trkpt lat="38.08325" lon="15.7519917"><ele>608.5</ele><time>2026-04-24T13:34:36.371Z</time></trkpt><trkpt lat="38.083335" lon="15.75188"><ele>606.0</ele><time>2026-04-24T13:34:37.372Z</time></trkpt><trkpt lat="38.0834033" lon="15.7517483"><ele>603.5</ele><time>2026-04-24T13:34:38.372Z</time></trkpt><trkpt lat="38.0834633" lon="15.7516133"><ele>601.0</ele><time>2026-04-24T13:34:39.372Z</time></trkpt><trkpt lat="38.08352" lon="15.75148"><ele>601.0</ele><time>2026-04-24T13:34:40.371Z</time></trkpt><trkpt lat="38.083575" lon="15.7513667"><ele>601.0</ele><time>2026-04-24T13:34:41.372Z</time></trkpt><trkpt lat="38.0836183" lon="15.7512567"><ele>601.0</ele><time>2026-04-24T13:34:42.372Z</time></trkpt><trkpt lat="38.083665" lon="15.7511667"><ele>601.0</ele><time>2026-04-24T13:34:43.371Z</time></trkpt><trkpt lat="38.083685" lon="15.751075"><ele>601.0</ele><time>2026-04-24T13:34:44.371Z</time></trkpt><trkpt lat="38.0836483" lon="15.7509533"><ele>601.0</ele><time>2026-04-24T13:34:46.372Z</time></trkpt><trkpt lat="38.0835417" lon="15.7509717"><ele>601.0</ele><time>2026-04-24T13:34:48.371Z</time></trkpt><trkpt lat="38.0834917" lon="15.751065"><ele>601.0</ele><time>2026-04-24T13:34:49.372Z</time></trkpt><trkpt lat="38.0834433" lon="15.751195"><ele>601.0</ele><time>2026-04-24T13:34:50.371Z</time></trkpt><trkpt lat="38.0833867" lon="15.7513283"><ele>601.0</ele><time>2026-04-24T13:34:51.372Z</time></trkpt><trkpt lat="38.083325" lon="15.751445"><ele>596.25</ele><time>2026-04-24T13:34:52.371Z</time></trkpt><trkpt lat="38.08325" lon="15.7515267"><ele>591.5</ele><time>2026-04-24T13:34:53.371Z</time></trkpt><trkpt lat="38.083145" lon="15.7515917"><ele>586.75</ele><time>2026-04-24T13:34:54.371Z</time></trkpt><trkpt lat="38.0830317" lon="15.751625"><ele>582.0</ele><time>2026-04-24T13:34:55.372Z</time></trkpt><trkpt lat="38.082915" lon="15.75166"><ele>582.0</ele><time>2026-04-24T13:34:56.372Z</time></trkpt><trkpt lat="38.0828" lon="15.7517033"><ele>582.0</ele><time>2026-04-24T13:34:57.371Z</time></trkpt><trkpt lat="38.082695" lon="15.75176"><ele>582.0</ele><time>2026-04-24T13:34:58.371Z</time></trkpt><trkpt lat="38.0825883" lon="15.75182"><ele>582.0</ele><time>2026-04-24T13:34:59.372Z</time></trkpt><trkpt lat="38.08249" lon="15.7518817"><ele>581.4</ele><time>2026-04-24T13:35:00.371Z</time></trkpt><trkpt lat="38.0823933" lon="15.7519367"><ele>580.8000000000001</ele><time>2026-04-24T13:35:01.371Z</time></trkpt><trkpt lat="38.0823033" lon="15.7520133"><ele>580.2</ele><time>2026-04-24T13:35:02.371Z</time></trkpt><trkpt lat="38.0822117" lon="15.7520817"><ele>579.6</ele><time>2026-04-24T13:35:03.372Z</time></trkpt><trkpt lat="38.082125" lon="15.7521533"><ele>579.0</ele><time>2026-04-24T13:35:04.371Z</time></trkpt><trkpt lat="38.082055" lon="15.7522267"><ele>579.0</ele><time>2026-04-24T13:35:05.372Z</time></trkpt><trkpt lat="38.0819917" lon="15.7523"><ele>579.0</ele><time>2026-04-24T13:35:06.371Z</time></trkpt><trkpt lat="38.0819233" lon="15.752365"><ele>579.0</ele><time>2026-04-24T13:35:07.371Z</time></trkpt><trkpt lat="38.0818617" lon="15.7524"><ele>579.0</ele><time>2026-04-24T13:35:08.371Z</time></trkpt><trkpt lat="38.0817667" lon="15.752375"><ele>579.0</ele><time>2026-04-24T13:35:10.372Z</time></trkpt><trkpt lat="38.0817617" lon="15.7522183"><ele>579.0</ele><time>2026-04-24T13:35:12.372Z</time></trkpt><trkpt lat="38.0818017" lon="15.752115"><ele>579.0</ele><time>2026-04-24T13:35:13.371Z</time></trkpt><trkpt lat="38.0818567" lon="15.7520283"><ele>579.0</ele><time>2026-04-24T13:35:14.371Z</time></trkpt><trkpt lat="38.0819217" lon="15.7519433"><ele>579.0</ele><time>2026-04-24T13:35:15.372Z</time></trkpt><trkpt lat="38.082" lon="15.7518433"><ele>579.0</ele><time>2026-04-24T13:35:16.371Z</time></trkpt><trkpt lat="38.0820817" lon="15.7517517"><ele>574.6</ele><time>2026-04-24T13:35:17.371Z</time></trkpt><trkpt lat="38.082155" lon="15.7516533"><ele>570.2</ele><time>2026-04-24T13:35:18.371Z</time></trkpt><trkpt lat="38.0822233" lon="15.751545"><ele>565.8000000000001</ele><time>2026-04-24T13:35:19.372Z</time></trkpt><trkpt lat="38.0822917" lon="15.7514483"><ele>561.4</ele><time>2026-04-24T13:35:20.371Z</time></trkpt><trkpt lat="38.0823617" lon="15.751345"><ele>557.0</ele><time>2026-04-24T13:35:21.371Z</time></trkpt><trkpt lat="38.0824283" lon="15.751245"><ele>558.8000000000001</ele><time>2026-04-24T13:35:22.372Z</time></trkpt><trkpt lat="38.0824917" lon="15.7511433"><ele>560.6</ele><time>2026-04-24T13:35:23.371Z</time></trkpt><trkpt lat="38.0825583" lon="15.7510483"><ele>562.4000000000001</ele><time>2026-04-24T13:35:24.372Z</time></trkpt><trkpt lat="38.0826233" lon="15.7509517"><ele>564.2</ele><time>2026-04-24T13:35:25.371Z</time></trkpt><trkpt lat="38.0826883" lon="15.750855"><ele>566.0</ele><time>2026-04-24T13:35:26.372Z</time></trkpt><trkpt lat="38.0827533" lon="15.7507567"><ele>566.0</ele><time>2026-04-24T13:35:27.372Z</time></trkpt><trkpt lat="38.0828167" lon="15.7506567"><ele>566.0</ele><time>2026-04-24T13:35:28.372Z</time></trkpt><trkpt lat="38.082875" lon="15.75055"><ele>566.0</ele><time>2026-04-24T13:35:29.372Z</time></trkpt><trkpt lat="38.0829383" lon="15.7504467"><ele>566.0</ele><time>2026-04-24T13:35:30.371Z</time></trkpt><trkpt lat="38.0829867" lon="15.7503383"><ele>566.0</ele><time>2026-04-24T13:35:31.372Z</time></trkpt><trkpt lat="38.08303" lon="15.7502217"><ele>565.0</ele><time>2026-04-24T13:35:32.372Z</time></trkpt><trkpt lat="38.08308" lon="15.75011"><ele>564.0</ele><time>2026-04-24T13:35:33.371Z</time></trkpt><trkpt lat="38.083135" lon="15.7500083"><ele>563.0</ele><time>2026-04-24T13:35:34.371Z</time></trkpt><trkpt lat="38.0831983" lon="15.7499183"><ele>562.0</ele><time>2026-04-24T13:35:35.372Z</time></trkpt><trkpt lat="38.08326" lon="15.7498433"><ele>561.0</ele><time>2026-04-24T13:35:36.371Z</time></trkpt><trkpt lat="38.08331" lon="15.749775"><ele>561.0</ele><time>2026-04-24T13:35:37.371Z</time></trkpt><trkpt lat="38.0833217" lon="15.74965"><ele>561.0</ele><time>2026-04-24T13:35:39.371Z</time></trkpt><trkpt lat="38.0832217" lon="15.7496233"><ele>561.0</ele><time>2026-04-24T13:35:41.372Z</time></trkpt><trkpt lat="38.0831617" lon="15.7496733"><ele>561.0</ele><time>2026-04-24T13:35:42.371Z</time></trkpt><trkpt lat="38.0831133" lon="15.7497517"><ele>561.0</ele><time>2026-04-24T13:35:43.371Z</time></trkpt><trkpt lat="38.083065" lon="15.7498533"><ele>561.0</ele><time>2026-04-24T13:35:44.372Z</time></trkpt><trkpt lat="38.0830067" lon="15.7499533"><ele>562.0</ele><time>2026-04-24T13:35:45.372Z</time></trkpt><trkpt lat="38.0829283" lon="15.7500333"><ele>563.0</ele><time>2026-04-24T13:35:46.372Z</time></trkpt><trkpt lat="38.0828433" lon="15.7501033"><ele>564.0</ele><time>2026-04-24T13:35:47.371Z</time></trkpt><trkpt lat="38.0827533" lon="15.7501717"><ele>565.0</ele><time>2026-04-24T13:35:48.371Z</time></trkpt><trkpt lat="38.0826633" lon="15.7502517"><ele>566.0</ele><time>2026-04-24T13:35:49.371Z</time></trkpt><trkpt lat="38.0825867" lon="15.75033"><ele>566.0</ele><time>2026-04-24T13:35:50.371Z</time></trkpt><trkpt lat="38.08251" lon="15.750395"><ele>566.0</ele><time>2026-04-24T13:35:51.372Z</time></trkpt><trkpt lat="38.0824317" lon="15.75045"><ele>566.0</ele><time>2026-04-24T13:35:52.371Z</time></trkpt><trkpt lat="38.0823567" lon="15.7504833"><ele>566.0</ele><time>2026-04-24T13:35:53.371Z</time></trkpt><trkpt lat="38.0822783" lon="15.75048"><ele>566.0</ele><time>2026-04-24T13:35:54.372Z</time></trkpt><trkpt lat="38.0822033" lon="15.7504483"><ele>566.0</ele><time>2026-04-24T13:35:55.371Z</time></trkpt><trkpt lat="38.082135" lon="15.7503833"><ele>560.3333333333333</ele><time>2026-04-24T13:35:56.371Z</time></trkpt><trkpt lat="38.08208" lon="15.7502867"><ele>554.6666666666666</ele><time>2026-04-24T13:35:57.371Z</time></trkpt><trkpt lat="38.0820133" lon="15.75022"><ele>549.0</ele><time>2026-04-24T13:35:58.372Z</time></trkpt><trkpt lat="38.0819467" lon="15.7502017"><ele>543.3333333333334</ele><time>2026-04-24T13:35:59.371Z</time></trkpt><trkpt lat="38.0818833" lon="15.7502383"><ele>537.6666666666667</ele><time>2026-04-24T13:36:00.371Z</time></trkpt><trkpt lat="38.08183" lon="15.7503067"><ele>532.0</ele><time>2026-04-24T13:36:01.371Z</time></trkpt><trkpt lat="38.0817983" lon="15.7504133"><ele>532.0</ele><time>2026-04-24T13:36:02.371Z</time></trkpt><trkpt lat="38.0818133" lon="15.7505467"><ele>532.0</ele><time>2026-04-24T13:36:03.372Z</time></trkpt><trkpt lat="38.0818417" lon="15.750675"><ele>532.0</ele><time>2026-04-24T13:36:04.371Z</time></trkpt><trkpt lat="38.0818767" lon="15.75078"><ele>532.0</ele><time>2026-04-24T13:36:05.372Z</time></trkpt><trkpt lat="38.0818983" lon="15.7508817"><ele>532.0</ele><time>2026-04-24T13:36:06.371Z</time></trkpt><trkpt lat="38.0819" lon="15.7509917"><ele>536.1666666666667</ele><time>2026-04-24T13:36:07.372Z</time></trkpt><trkpt lat="38.0818867" lon="15.751095"><ele>540.3333333333334</ele><time>2026-04-24T13:36:08.372Z</time></trkpt><trkpt lat="38.08186" lon="15.751185"><ele>544.5</ele><time>2026-04-24T13:36:09.372Z</time></trkpt><trkpt lat="38.0818233" lon="15.7512633"><ele>548.6666666666666</ele><time>2026-04-24T13:36:10.372Z</time></trkpt><trkpt lat="38.0817667" lon="15.7513167"><ele>552.8333333333333</ele><time>2026-04-24T13:36:11.371Z</time></trkpt><trkpt lat="38.0817117" lon="15.751375"><ele>557.0</ele><time>2026-04-24T13:36:12.371Z</time></trkpt><trkpt lat="38.0816317" lon="15.75142"><ele>546.8000000000001</ele><time>2026-04-24T13:36:13.372Z</time></trkpt><trkpt lat="38.0815567" lon="15.751465"><ele>536.6</ele><time>2026-04-24T13:36:14.371Z</time></trkpt><trkpt lat="38.0814983" lon="15.7515133"><ele>526.4000000000001</ele><time>2026-04-24T13:36:15.372Z</time></trkpt><trkpt lat="38.08142" lon="15.751625"><ele>516.2</ele><time>2026-04-24T13:36:17.372Z</time></trkpt><trkpt lat="38.0813933" lon="15.7517633"><ele>506.0</ele><time>2026-04-24T13:36:19.371Z</time></trkpt><trkpt lat="38.0813217" lon="15.7518317"><ele>505.99999999999994</ele><time>2026-04-24T13:36:21.371Z</time></trkpt><trkpt lat="38.0812617" lon="15.7517433"><ele>506.0</ele><time>2026-04-24T13:36:23.371Z</time></trkpt><trkpt lat="38.081275" lon="15.75159"><ele>506.0</ele><time>2026-04-24T13:36:25.372Z</time></trkpt><trkpt lat="38.0813117" lon="15.7515233"><ele>506.0</ele><time>2026-04-24T13:36:26.371Z</time></trkpt><trkpt lat="38.0813633" lon="15.7514767"><ele>505.99999999999994</ele><time>2026-04-24T13:36:27.372Z</time></trkpt><trkpt lat="38.0814317" lon="15.75145"><ele>506.0</ele><time>2026-04-24T13:36:28.372Z</time></trkpt><trkpt lat="38.0815017" lon="15.7514133"><ele>505.99999999999994</ele><time>2026-04-24T13:36:29.372Z</time></trkpt><trkpt lat="38.0815733" lon="15.751375"><ele>506.0</ele><time>2026-04-24T13:36:30.372Z</time></trkpt><trkpt lat="38.0816367" lon="15.7513367"><ele>506.0</ele><time>2026-04-24T13:36:31.372Z</time></trkpt><trkpt lat="38.0816983" lon="15.75129"><ele>506.0</ele><time>2026-04-24T13:36:32.372Z</time></trkpt><trkpt lat="38.0817533" lon="15.7512267"><ele>505.99999999999994</ele><time>2026-04-24T13:36:33.372Z</time></trkpt><trkpt lat="38.0817983" lon="15.7511417"><ele>506.0</ele><time>2026-04-24T13:36:34.371Z</time></trkpt><trkpt lat="38.0818233" lon="15.7510383"><ele>510.3333333333333</ele><time>2026-04-24T13:36:35.372Z</time></trkpt><trkpt lat="38.0818467" lon="15.750955"><ele>514.6666666666666</ele><time>2026-04-24T13:36:36.372Z</time></trkpt><trkpt lat="38.0818333" lon="15.75086"><ele>519.0</ele><time>2026-04-24T13:36:37.371Z</time></trkpt><trkpt lat="38.081785" lon="15.75077"><ele>523.3333333333334</ele><time>2026-04-24T13:36:38.371Z</time></trkpt><trkpt lat="38.0817183" lon="15.7506917"><ele>527.6666666666667</ele><time>2026-04-24T13:36:39.372Z</time></trkpt><trkpt lat="38.0816567" lon="15.7506067"><ele>532.0</ele><time>2026-04-24T13:36:40.371Z</time></trkpt><trkpt lat="38.081615" lon="15.75052"><ele>532.0</ele><time>2026-04-24T13:36:41.371Z</time></trkpt><trkpt lat="38.0815917" lon="15.7504317"><ele>532.0</ele><time>2026-04-24T13:36:42.372Z</time></trkpt><trkpt lat="38.0815917" lon="15.7503317"><ele>532.0</ele><time>2026-04-24T13:36:43.371Z</time></trkpt><trkpt lat="38.081605" lon="15.75024"><ele>532.0</ele><time>2026-04-24T13:36:44.371Z</time></trkpt><trkpt lat="38.0816283" lon="15.7501383"><ele>532.0</ele><time>2026-04-24T13:36:45.371Z</time></trkpt><trkpt lat="38.08165" lon="15.750035"><ele>532.0</ele><time>2026-04-24T13:36:46.372Z</time></trkpt><trkpt lat="38.0816633" lon="15.74993"><ele>529.6666666666667</ele><time>2026-04-24T13:36:47.372Z</time></trkpt><trkpt lat="38.0816767" lon="15.7498433"><ele>527.3333333333334</ele><time>2026-04-24T13:36:48.372Z</time></trkpt><trkpt lat="38.0816983" lon="15.7497633"><ele>525.0</ele><time>2026-04-24T13:36:49.371Z</time></trkpt><trkpt lat="38.0818033" lon="15.749675"><ele>522.6666666666666</ele><time>2026-04-24T13:36:51.371Z</time></trkpt><trkpt lat="38.08188" lon="15.749675"><ele>520.3333333333333</ele><time>2026-04-24T13:36:52.372Z</time></trkpt><trkpt lat="38.08196" lon="15.74969"><ele>518.0</ele><time>2026-04-24T13:36:53.371Z</time></trkpt><trkpt lat="38.0820467" lon="15.749715"><ele>518.0</ele><time>2026-04-24T13:36:54.372Z</time></trkpt><trkpt lat="38.08214" lon="15.74974"><ele>518.0</ele><time>2026-04-24T13:36:55.372Z</time></trkpt><trkpt lat="38.082235" lon="15.7497567"><ele>518.0</ele><time>2026-04-24T13:36:56.371Z</time></trkpt><trkpt lat="38.082325" lon="15.7497417"><ele>518.0</ele><time>2026-04-24T13:36:57.371Z</time></trkpt><trkpt lat="38.0824133" lon="15.7496833"><ele>518.0</ele><time>2026-04-24T13:36:58.371Z</time></trkpt><trkpt lat="38.0824867" lon="15.7496117"><ele>515.4</ele><time>2026-04-24T13:36:59.372Z</time></trkpt><trkpt lat="38.08256" lon="15.749515"><ele>512.8</ele><time>2026-04-24T13:37:00.371Z</time></trkpt><trkpt lat="38.08262" lon="15.7493933"><ele>510.2</ele><time>2026-04-24T13:37:01.371Z</time></trkpt><trkpt lat="38.08266" lon="15.7492633"><ele>507.6</ele><time>2026-04-24T13:37:02.371Z</time></trkpt><trkpt lat="38.0827033" lon="15.7491467"><ele>505.0</ele><time>2026-04-24T13:37:03.371Z</time></trkpt><trkpt lat="38.0827567" lon="15.74905"><ele>505.0</ele><time>2026-04-24T13:37:04.371Z</time></trkpt><trkpt lat="38.08282" lon="15.7489617"><ele>505.0</ele><time>2026-04-24T13:37:05.371Z</time></trkpt><trkpt lat="38.0828933" lon="15.74889"><ele>505.0</ele><time>2026-04-24T13:37:06.372Z</time></trkpt><trkpt lat="38.082975" lon="15.748835"><ele>505.0</ele><time>2026-04-24T13:37:07.372Z</time></trkpt><trkpt lat="38.0830583" lon="15.7487967"><ele>505.0</ele><time>2026-04-24T13:37:08.372Z</time></trkpt><trkpt lat="38.08315" lon="15.7487733"><ele>505.0</ele><time>2026-04-24T13:37:09.372Z</time></trkpt><trkpt lat="38.0832417" lon="15.7487633"><ele>505.0</ele><time>2026-04-24T13:37:10.372Z</time></trkpt><trkpt lat="38.08333" lon="15.7487483"><ele>505.0</ele><time>2026-04-24T13:37:11.372Z</time></trkpt><trkpt lat="38.0834117" lon="15.7487183"><ele>505.0</ele><time>2026-04-24T13:37:12.371Z</time></trkpt><trkpt lat="38.0835" lon="15.7486783"><ele>505.0</ele><time>2026-04-24T13:37:13.371Z</time></trkpt><trkpt lat="38.0835883" lon="15.7486283"><ele>508.0</ele><time>2026-04-24T13:37:14.371Z</time></trkpt><trkpt lat="38.0836817" lon="15.7485917"><ele>511.0</ele><time>2026-04-24T13:37:15.372Z</time></trkpt><trkpt lat="38.083795" lon="15.7485983"><ele>514.0</ele><time>2026-04-24T13:37:16.372Z</time></trkpt><trkpt lat="38.0839083" lon="15.7486083"><ele>517.0</ele><time>2026-04-24T13:37:17.371Z</time></trkpt><trkpt lat="38.084025" lon="15.748605"><ele>520.0</ele><time>2026-04-24T13:37:18.371Z</time></trkpt><trkpt lat="38.0841233" lon="15.7485617"><ele>515.0</ele><time>2026-04-24T13:37:19.372Z</time></trkpt><trkpt lat="38.0842083" lon="15.7484867"><ele>510.0</ele><time>2026-04-24T13:37:20.371Z</time></trkpt><trkpt lat="38.0842567" lon="15.7483817"><ele>505.0</ele><time>2026-04-24T13:37:21.371Z</time></trkpt><trkpt lat="38.0842767" lon="15.748265"><ele>500.0</ele><time>2026-04-24T13:37:22.371Z</time></trkpt><trkpt lat="38.0842767" lon="15.748135"><ele>495.0</ele><time>2026-04-24T13:37:23.372Z</time></trkpt><trkpt lat="38.0842717" lon="15.748005"><ele>495.0</ele><time>2026-04-24T13:37:24.372Z</time></trkpt><trkpt lat="38.0842617" lon="15.7478567"><ele>495.0</ele><time>2026-04-24T13:37:25.372Z</time></trkpt><trkpt lat="38.0842467" lon="15.747705"><ele>495.0</ele><time>2026-04-24T13:37:26.371Z</time></trkpt><trkpt lat="38.08422" lon="15.7475383"><ele>495.0</ele><time>2026-04-24T13:37:27.372Z</time></trkpt><trkpt lat="38.08418" lon="15.7473733"><ele>494.75</ele><time>2026-04-24T13:37:28.371Z</time></trkpt><trkpt lat="38.08413" lon="15.747205"><ele>494.5</ele><time>2026-04-24T13:37:29.372Z</time></trkpt><trkpt lat="38.08407" lon="15.74703"><ele>494.25</ele><time>2026-04-24T13:37:30.371Z</time></trkpt><trkpt lat="38.0839883" lon="15.7468833"><ele>494.0</ele><time>2026-04-24T13:37:31.372Z</time></trkpt><trkpt lat="38.083895" lon="15.7467433"><ele>494.0</ele><time>2026-04-24T13:37:32.372Z</time></trkpt><trkpt lat="38.0837867" lon="15.746665"><ele>494.0</ele><time>2026-04-24T13:37:33.371Z</time></trkpt><trkpt lat="38.0836733" lon="15.7466317"><ele>494.0</ele><time>2026-04-24T13:37:34.371Z</time></trkpt><trkpt lat="38.08355" lon="15.7466517"><ele>494.0</ele><time>2026-04-24T13:37:35.372Z</time></trkpt><trkpt lat="38.0834533" lon="15.7466817"><ele>494.0</ele><time>2026-04-24T13:37:36.372Z</time></trkpt><trkpt lat="38.0833683" lon="15.7466917"><ele>494.0</ele><time>2026-04-24T13:37:37.372Z</time></trkpt><trkpt lat="38.0833" lon="15.7466667"><ele>494.0</ele><time>2026-04-24T13:37:38.371Z</time></trkpt><trkpt lat="38.083235" lon="15.7466083"><ele>494.0</ele><time>2026-04-24T13:37:39.371Z</time></trkpt><trkpt lat="38.0831767" lon="15.74651"><ele>494.0</ele><time>2026-04-24T13:37:40.371Z</time></trkpt><trkpt lat="38.0831233" lon="15.746365"><ele>492.0</ele><time>2026-04-24T13:37:41.371Z</time></trkpt><trkpt lat="38.083065" lon="15.7462217"><ele>490.0</ele><time>2026-04-24T13:37:42.372Z</time></trkpt><trkpt lat="38.0829883" lon="15.7461217"><ele>488.0</ele><time>2026-04-24T13:37:43.371Z</time></trkpt><trkpt lat="38.08291" lon="15.7460733"><ele>486.0</ele><time>2026-04-24T13:37:44.371Z</time></trkpt><trkpt lat="38.082835" lon="15.746055"><ele>484.0</ele><time>2026-04-24T13:37:45.372Z</time></trkpt><trkpt lat="38.0827617" lon="15.74606"><ele>484.00000000000006</ele><time>2026-04-24T13:37:46.372Z</time></trkpt><trkpt lat="38.08269" lon="15.7460833"><ele>484.0</ele><time>2026-04-24T13:37:47.372Z</time></trkpt><trkpt lat="38.082625" lon="15.746085"><ele>484.0</ele><time>2026-04-24T13:37:48.371Z</time></trkpt><trkpt lat="38.0826017" lon="15.74597"><ele>484.0</ele><time>2026-04-24T13:37:51.372Z</time></trkpt><trkpt lat="38.0826467" lon="15.74588"><ele>484.00000000000006</ele><time>2026-04-24T13:37:52.371Z</time></trkpt><trkpt lat="38.0827333" lon="15.745755"><ele>484.0</ele><time>2026-04-24T13:37:53.372Z</time></trkpt><trkpt lat="38.0828483" lon="15.7456033"><ele>486.0</ele><time>2026-04-24T13:37:54.372Z</time></trkpt><trkpt lat="38.0830117" lon="15.745415"><ele>488.0</ele><time>2026-04-24T13:37:55.372Z</time></trkpt><trkpt lat="38.083165" lon="15.74524"><ele>490.0</ele><time>2026-04-24T13:37:56.371Z</time></trkpt><trkpt lat="38.0832683" lon="15.7450933"><ele>495.6</ele><time>2026-04-24T13:37:57.371Z</time></trkpt><trkpt lat="38.0833217" lon="15.7449783"><ele>501.2</ele><time>2026-04-24T13:37:58.371Z</time></trkpt><trkpt lat="38.083325" lon="15.7448717"><ele>506.79999999999995</ele><time>2026-04-24T13:37:59.371Z</time></trkpt><trkpt lat="38.0833133" lon="15.7447567"><ele>512.4</ele><time>2026-04-24T13:38:00.371Z</time></trkpt><trkpt lat="38.0833067" lon="15.7446367"><ele>518.0</ele><time>2026-04-24T13:38:01.372Z</time></trkpt><trkpt lat="38.083295" lon="15.7445267"><ele>518.0</ele><time>2026-04-24T13:38:02.372Z</time></trkpt><trkpt lat="38.0832867" lon="15.7444033"><ele>518.0</ele><time>2026-04-24T13:38:03.371Z</time></trkpt><trkpt lat="38.08329" lon="15.74426"><ele>518.0</ele><time>2026-04-24T13:38:04.371Z</time></trkpt><trkpt lat="38.0833033" lon="15.74412"><ele>518.0</ele><time>2026-04-24T13:38:05.371Z</time></trkpt><trkpt lat="38.0833283" lon="15.7439917"><ele>518.0</ele><time>2026-04-24T13:38:06.372Z</time></trkpt><trkpt lat="38.0833533" lon="15.7438617"><ele>516.4</ele><time>2026-04-24T13:38:07.371Z</time></trkpt><trkpt lat="38.0833817" lon="15.743725"><ele>514.8</ele><time>2026-04-24T13:38:08.371Z</time></trkpt><trkpt lat="38.0834067" lon="15.7436017"><ele>513.2</ele><time>2026-04-24T13:38:09.371Z</time></trkpt><trkpt lat="38.08343" lon="15.7434883"><ele>511.6</ele><time>2026-04-24T13:38:10.371Z</time></trkpt><trkpt lat="38.0834467" lon="15.7433867"><ele>510.0</ele><time>2026-04-24T13:38:11.371Z</time></trkpt><trkpt lat="38.0834533" lon="15.74329"><ele>509.1666666666667</ele><time>2026-04-24T13:38:12.371Z</time></trkpt><trkpt lat="38.0834483" lon="15.7432017"><ele>508.33333333333337</ele><time>2026-04-24T13:38:13.371Z</time></trkpt><trkpt lat="38.0834183" lon="15.7431033"><ele>507.5</ele><time>2026-04-24T13:38:14.372Z</time></trkpt><trkpt lat="38.0833633" lon="15.7429983"><ele>506.6666666666667</ele><time>2026-04-24T13:38:15.372Z</time></trkpt><trkpt lat="38.0832967" lon="15.7428933"><ele>505.83333333333337</ele><time>2026-04-24T13:38:16.373Z</time></trkpt><trkpt lat="38.0832633" lon="15.7428"><ele>505.0</ele><time>2026-04-24T13:38:17.372Z</time></trkpt><trkpt lat="38.08324" lon="15.7426917"><ele>504.4</ele><time>2026-04-24T13:38:18.372Z</time></trkpt><trkpt lat="38.0832317" lon="15.74256"><ele>503.8</ele><time>2026-04-24T13:38:19.372Z</time></trkpt><trkpt lat="38.0832333" lon="15.7424283"><ele>503.20000000000005</ele><time>2026-04-24T13:38:20.372Z</time></trkpt><trkpt lat="38.08324" lon="15.7423033"><ele>502.6</ele><time>2026-04-24T13:38:21.372Z</time></trkpt><trkpt lat="38.0832567" lon="15.7421867"><ele>502.0</ele><time>2026-04-24T13:38:22.373Z</time></trkpt><trkpt lat="38.08329" lon="15.7420733"><ele>502.0</ele><time>2026-04-24T13:38:23.373Z</time></trkpt><trkpt lat="38.08335" lon="15.7419683"><ele>502.00000000000006</ele><time>2026-04-24T13:38:24.372Z</time></trkpt><trkpt lat="38.083425" lon="15.741885"><ele>502.00000000000006</ele><time>2026-04-24T13:38:25.372Z</time></trkpt><trkpt lat="38.0835067" lon="15.7418133"><ele>502.0</ele><time>2026-04-24T13:38:26.372Z</time></trkpt><trkpt lat="38.0835717" lon="15.7417483"><ele>502.0</ele><time>2026-04-24T13:38:27.372Z</time></trkpt><trkpt lat="38.0836283" lon="15.7416817"><ele>499.6666666666667</ele><time>2026-04-24T13:38:28.372Z</time></trkpt><trkpt lat="38.0836667" lon="15.7416"><ele>497.33333333333337</ele><time>2026-04-24T13:38:29.373Z</time></trkpt><trkpt lat="38.0836983" lon="15.7415083"><ele>495.0</ele><time>2026-04-24T13:38:30.372Z</time></trkpt><trkpt lat="38.0837233" lon="15.7414183"><ele>492.66666666666663</ele><time>2026-04-24T13:38:31.372Z</time></trkpt><trkpt lat="38.0837383" lon="15.74132"><ele>490.3333333333333</ele><time>2026-04-24T13:38:32.372Z</time></trkpt><trkpt lat="38.0837583" lon="15.74123"><ele>488.0</ele><time>2026-04-24T13:38:33.372Z</time></trkpt><trkpt lat="38.0837933" lon="15.741145"><ele>487.99999999999994</ele><time>2026-04-24T13:38:34.372Z</time></trkpt><trkpt lat="38.08384" lon="15.7410683"><ele>488.0</ele><time>2026-04-24T13:38:35.373Z</time></trkpt><trkpt lat="38.08391" lon="15.7410233"><ele>488.0</ele><time>2026-04-24T13:38:36.372Z</time></trkpt><trkpt lat="38.0839983" lon="15.7409867"><ele>488.0</ele><time>2026-04-24T13:38:37.372Z</time></trkpt><trkpt lat="38.0840867" lon="15.7409633"><ele>487.99999999999994</ele><time>2026-04-24T13:38:38.373Z</time></trkpt><trkpt lat="38.0841717" lon="15.740925"><ele>488.0</ele><time>2026-04-24T13:38:39.373Z</time></trkpt><trkpt lat="38.0842567" lon="15.7408867"><ele>487.59999999999997</ele><time>2026-04-24T13:38:40.372Z</time></trkpt><trkpt lat="38.0843367" lon="15.74083"><ele>487.19999999999993</ele><time>2026-04-24T13:38:41.372Z</time></trkpt><trkpt lat="38.0844183" lon="15.74075"><ele>486.8</ele><time>2026-04-24T13:38:42.372Z</time></trkpt><trkpt lat="38.0845067" lon="15.7406633"><ele>486.4</ele><time>2026-04-24T13:38:43.372Z</time></trkpt><trkpt lat="38.0845983" lon="15.740585"><ele>486.0</ele><time>2026-04-24T13:38:44.373Z</time></trkpt><trkpt lat="38.0846917" lon="15.740515"><ele>486.0</ele><time>2026-04-24T13:38:45.372Z</time></trkpt><trkpt lat="38.0847867" lon="15.7404517"><ele>486.0</ele><time>2026-04-24T13:38:46.372Z</time></trkpt><trkpt lat="38.08487" lon="15.7403817"><ele>486.0</ele><time>2026-04-24T13:38:47.373Z</time></trkpt><trkpt lat="38.0849383" lon="15.7403083"><ele>486.0</ele><time>2026-04-24T13:38:48.373Z</time></trkpt><trkpt lat="38.0849783" lon="15.7402167"><ele>486.0</ele><time>2026-04-24T13:38:49.373Z</time></trkpt><trkpt lat="38.0849983" lon="15.74011"><ele>485.6666666666667</ele><time>2026-04-24T13:38:50.372Z</time></trkpt><trkpt lat="38.0850033" lon="15.740015"><ele>485.33333333333337</ele><time>2026-04-24T13:38:51.372Z</time></trkpt><trkpt lat="38.0850183" lon="15.7399217"><ele>485.0</ele><time>2026-04-24T13:38:52.372Z</time></trkpt><trkpt lat="38.0850467" lon="15.739835"><ele>484.6666666666667</ele><time>2026-04-24T13:38:53.372Z</time></trkpt><trkpt lat="38.0850983" lon="15.7397733"><ele>484.33333333333337</ele><time>2026-04-24T13:38:54.373Z</time></trkpt><trkpt lat="38.0851667" lon="15.7397383"><ele>484.0</ele><time>2026-04-24T13:38:55.373Z</time></trkpt><trkpt lat="38.0852533" lon="15.7397167"><ele>484.0</ele><time>2026-04-24T13:38:56.372Z</time></trkpt><trkpt lat="38.08535" lon="15.7396967"><ele>484.0</ele><time>2026-04-24T13:38:57.372Z</time></trkpt><trkpt lat="38.0854467" lon="15.739665"><ele>484.0</ele><time>2026-04-24T13:38:58.372Z</time></trkpt><trkpt lat="38.0855333" lon="15.73961"><ele>484.0</ele><time>2026-04-24T13:38:59.372Z</time></trkpt><trkpt lat="38.0856083" lon="15.7395433"><ele>484.0</ele><time>2026-04-24T13:39:00.372Z</time></trkpt><trkpt lat="38.0856567" lon="15.7394567"><ele>479.6666666666667</ele><time>2026-04-24T13:39:01.372Z</time></trkpt><trkpt lat="38.0857017" lon="15.7393817"><ele>475.33333333333337</ele><time>2026-04-24T13:39:02.372Z</time></trkpt><trkpt lat="38.0857167" lon="15.7393033"><ele>471.0</ele><time>2026-04-24T13:39:03.373Z</time></trkpt><trkpt lat="38.0856383" lon="15.7391783"><ele>466.66666666666663</ele><time>2026-04-24T13:39:05.372Z</time></trkpt><trkpt lat="38.0855683" lon="15.739125"><ele>462.3333333333333</ele><time>2026-04-24T13:39:06.373Z</time></trkpt><trkpt lat="38.0855133" lon="15.7390667"><ele>458.0</ele><time>2026-04-24T13:39:07.373Z</time></trkpt><trkpt lat="38.0854567" lon="15.7390167"><ele>457.99999999999994</ele><time>2026-04-24T13:39:08.372Z</time></trkpt><trkpt lat="38.0854283" lon="15.738935"><ele>458.0</ele><time>2026-04-24T13:39:09.372Z</time></trkpt><trkpt lat="38.0854067" lon="15.7388517"><ele>458.0</ele><time>2026-04-24T13:39:10.372Z</time></trkpt><trkpt lat="38.08538" lon="15.738745"><ele>458.0</ele><time>2026-04-24T13:39:11.373Z</time></trkpt><trkpt lat="38.08536" lon="15.7386267"><ele>457.99999999999994</ele><time>2026-04-24T13:39:12.372Z</time></trkpt><trkpt lat="38.085365" lon="15.7384967"><ele>458.0</ele><time>2026-04-24T13:39:13.372Z</time></trkpt><trkpt lat="38.08537" lon="15.73836"><ele>455.79999999999995</ele><time>2026-04-24T13:39:14.372Z</time></trkpt><trkpt lat="38.0853583" lon="15.7382283"><ele>453.59999999999997</ele><time>2026-04-24T13:39:15.372Z</time></trkpt><trkpt lat="38.085335" lon="15.7381017"><ele>451.40000000000003</ele><time>2026-04-24T13:39:16.372Z</time></trkpt><trkpt lat="38.08531" lon="15.7379833"><ele>449.20000000000005</ele><time>2026-04-24T13:39:17.373Z</time></trkpt><trkpt lat="38.0853" lon="15.7378617"><ele>447.0</ele><time>2026-04-24T13:39:18.373Z</time></trkpt><trkpt lat="38.0853067" lon="15.737745"><ele>445.6</ele><time>2026-04-24T13:39:19.372Z</time></trkpt><trkpt lat="38.0853583" lon="15.7376433"><ele>444.20000000000005</ele><time>2026-04-24T13:39:20.373Z</time></trkpt><trkpt lat="38.085425" lon="15.7375517"><ele>442.8</ele><time>2026-04-24T13:39:21.372Z</time></trkpt><trkpt lat="38.0854967" lon="15.7374667"><ele>441.4</ele><time>2026-04-24T13:39:22.373Z</time></trkpt><trkpt lat="38.0855617" lon="15.7373733"><ele>440.0</ele><time>2026-04-24T13:39:23.372Z</time></trkpt><trkpt lat="38.0856017" lon="15.73727"><ele>440.0</ele><time>2026-04-24T13:39:24.373Z</time></trkpt><trkpt lat="38.0856217" lon="15.7371717"><ele>440.0</ele><time>2026-04-24T13:39:25.372Z</time></trkpt><trkpt lat="38.0856033" lon="15.7370683"><ele>440.0</ele><time>2026-04-24T13:39:26.373Z</time></trkpt><trkpt lat="38.0855733" lon="15.736965"><ele>440.0</ele><time>2026-04-24T13:39:27.373Z</time></trkpt><trkpt lat="38.0855567" lon="15.7368383"><ele>440.0</ele><time>2026-04-24T13:39:28.372Z</time></trkpt><trkpt lat="38.0855767" lon="15.73671"><ele>437.3333333333333</ele><time>2026-04-24T13:39:29.372Z</time></trkpt><trkpt lat="38.0855967" lon="15.7365983"><ele>434.66666666666663</ele><time>2026-04-24T13:39:30.372Z</time></trkpt><trkpt lat="38.0855917" lon="15.7364983"><ele>432.0</ele><time>2026-04-24T13:39:31.372Z</time></trkpt><trkpt lat="38.0855767" lon="15.7364017"><ele>429.33333333333337</ele><time>2026-04-24T13:39:32.372Z</time></trkpt><trkpt lat="38.0855733" lon="15.7363017"><ele>426.6666666666667</ele><time>2026-04-24T13:39:33.372Z</time></trkpt><trkpt lat="38.0855817" lon="15.73621"><ele>424.0</ele><time>2026-04-24T13:39:34.373Z</time></trkpt><trkpt lat="38.0856017" lon="15.7361067"><ele>421.50000000000006</ele><time>2026-04-24T13:39:35.373Z</time></trkpt><trkpt lat="38.0856317" lon="15.7360017"><ele>419.0</ele><time>2026-04-24T13:39:36.373Z</time></trkpt><trkpt lat="38.08566" lon="15.73591"><ele>416.5</ele><time>2026-04-24T13:39:37.372Z</time></trkpt><trkpt lat="38.08568" lon="15.7358083"><ele>414.0</ele><time>2026-04-24T13:39:38.373Z</time></trkpt><trkpt lat="38.0856983" lon="15.7357017"><ele>411.50000000000006</ele><time>2026-04-24T13:39:39.372Z</time></trkpt><trkpt lat="38.0857283" lon="15.7356033"><ele>409.0</ele><time>2026-04-24T13:39:40.372Z</time></trkpt><trkpt lat="38.085775" lon="15.7355233"><ele>416.1666666666667</ele><time>2026-04-24T13:39:41.372Z</time></trkpt><trkpt lat="38.085835" lon="15.735485"><ele>423.33333333333337</ele><time>2026-04-24T13:39:42.372Z</time></trkpt><trkpt lat="38.0859033" lon="15.7354917"><ele>430.5</ele><time>2026-04-24T13:39:43.373Z</time></trkpt><trkpt lat="38.0859833" lon="15.7355517"><ele>437.66666666666663</ele><time>2026-04-24T13:39:44.372Z</time></trkpt><trkpt lat="38.08607" lon="15.7356333"><ele>444.8333333333333</ele><time>2026-04-24T13:39:45.372Z</time></trkpt><trkpt lat="38.0861517" lon="15.735705"><ele>452.0</ele><time>2026-04-24T13:39:46.372Z</time></trkpt><trkpt lat="38.0862383" lon="15.7357433"><ele>452.0</ele><time>2026-04-24T13:39:47.373Z</time></trkpt><trkpt lat="38.08632" lon="15.7357617"><ele>452.00000000000006</ele><time>2026-04-24T13:39:48.373Z</time></trkpt><trkpt lat="38.0864067" lon="15.73577"><ele>452.00000000000006</ele><time>2026-04-24T13:39:49.372Z</time></trkpt><trkpt lat="38.0865033" lon="15.73578"><ele>452.0</ele><time>2026-04-24T13:39:50.373Z</time></trkpt><trkpt lat="38.08661" lon="15.7357817"><ele>452.0</ele><time>2026-04-24T13:39:51.372Z</time></trkpt><trkpt lat="38.08674" lon="15.7357783"><ele>452.0</ele><time>2026-04-24T13:39:52.373Z</time></trkpt><trkpt lat="38.0868717" lon="15.735785"><ele>452.0</ele><time>2026-04-24T13:39:53.373Z</time></trkpt><trkpt lat="38.0870017" lon="15.73579"><ele>452.0</ele><time>2026-04-24T13:39:54.372Z</time></trkpt><trkpt lat="38.08713" lon="15.735785"><ele>452.0</ele><time>2026-04-24T13:39:55.373Z</time></trkpt><trkpt lat="38.0872417" lon="15.7357667"><ele>451.99999999999994</ele><time>2026-04-24T13:39:56.372Z</time></trkpt><trkpt lat="38.08735" lon="15.73574"><ele>452.0</ele><time>2026-04-24T13:39:57.372Z</time></trkpt><trkpt lat="38.0874367" lon="15.7357267"><ele>452.0</ele><time>2026-04-24T13:39:58.373Z</time></trkpt><trkpt lat="38.0875083" lon="15.7357133"><ele>452.0</ele><time>2026-04-24T13:39:59.373Z</time></trkpt><trkpt lat="38.087575" lon="15.7356633"><ele>451.99999999999994</ele><time>2026-04-24T13:40:00.373Z</time></trkpt><trkpt lat="38.08763" lon="15.7356017"><ele>452.0</ele><time>2026-04-24T13:40:01.372Z</time></trkpt><trkpt lat="38.087665" lon="15.735515"><ele>452.20000000000005</ele><time>2026-04-24T13:40:02.372Z</time></trkpt><trkpt lat="38.0876717" lon="15.7354133"><ele>452.40000000000003</ele><time>2026-04-24T13:40:03.372Z</time></trkpt><trkpt lat="38.0876533" lon="15.7353283"><ele>452.59999999999997</ele><time>2026-04-24T13:40:04.373Z</time></trkpt><trkpt lat="38.0876017" lon="15.7352283"><ele>452.79999999999995</ele><time>2026-04-24T13:40:05.372Z</time></trkpt><trkpt lat="38.0875283" lon="15.7351233"><ele>453.0</ele><time>2026-04-24T13:40:06.372Z</time></trkpt><trkpt lat="38.08743" lon="15.7350133"><ele>446.25</ele><time>2026-04-24T13:40:07.373Z</time></trkpt><trkpt lat="38.08733" lon="15.7348883"><ele>439.5</ele><time>2026-04-24T13:40:08.373Z</time></trkpt><trkpt lat="38.08723" lon="15.734775"><ele>432.75</ele><time>2026-04-24T13:40:09.372Z</time></trkpt><trkpt lat="38.0871383" lon="15.7346667"><ele>426.0</ele><time>2026-04-24T13:40:10.373Z</time></trkpt><trkpt lat="38.0870467" lon="15.7345583"><ele>426.0</ele><time>2026-04-24T13:40:11.372Z</time></trkpt><trkpt lat="38.0869583" lon="15.7344483"><ele>426.0</ele><time>2026-04-24T13:40:12.373Z</time></trkpt><trkpt lat="38.0868817" lon="15.73435"><ele>426.0</ele><time>2026-04-24T13:40:13.373Z</time></trkpt><trkpt lat="38.0868117" lon="15.734245"><ele>426.0</ele><time>2026-04-24T13:40:14.372Z</time></trkpt><trkpt lat="38.0867583" lon="15.7341233"><ele>425.6</ele><time>2026-04-24T13:40:15.372Z</time></trkpt><trkpt lat="38.0867017" lon="15.7339983"><ele>425.20000000000005</ele><time>2026-04-24T13:40:16.372Z</time></trkpt><trkpt lat="38.0866283" lon="15.73389"><ele>424.79999999999995</ele><time>2026-04-24T13:40:17.373Z</time></trkpt><trkpt lat="38.0865567" lon="15.7337867"><ele>424.4</ele><time>2026-04-24T13:40:18.373Z</time></trkpt><trkpt lat="38.086485" lon="15.733695"><ele>424.0</ele><time>2026-04-24T13:40:19.372Z</time></trkpt><trkpt lat="38.0864267" lon="15.7335917"><ele>417.50000000000006</ele><time>2026-04-24T13:40:20.373Z</time></trkpt><trkpt lat="38.08638" lon="15.7335017"><ele>411.0</ele><time>2026-04-24T13:40:21.372Z</time></trkpt><trkpt lat="38.0863583" lon="15.7334133"><ele>404.5</ele><time>2026-04-24T13:40:22.372Z</time></trkpt><trkpt lat="38.0863633" lon="15.7333083"><ele>398.0</ele><time>2026-04-24T13:40:23.373Z</time></trkpt><trkpt lat="38.0863783" lon="15.7332017"><ele>391.50000000000006</ele><time>2026-04-24T13:40:24.372Z</time></trkpt><trkpt lat="38.0863983" lon="15.733105"><ele>385.0</ele><time>2026-04-24T13:40:25.373Z</time></trkpt><trkpt lat="38.0864283" lon="15.7330317"><ele>385.00000000000006</ele><time>2026-04-24T13:40:26.372Z</time></trkpt><trkpt lat="38.0864" lon="15.73294"><ele>385.0</ele><time>2026-04-24T13:40:27.373Z</time></trkpt><trkpt lat="38.0863533" lon="15.7328483"><ele>385.0</ele><time>2026-04-24T13:40:28.372Z</time></trkpt><trkpt lat="38.0862833" lon="15.7327833"><ele>385.0</ele><time>2026-04-24T13:40:29.372Z</time></trkpt><trkpt lat="38.0862267" lon="15.7326867"><ele>385.00000000000006</ele><time>2026-04-24T13:40:30.373Z</time></trkpt><trkpt lat="38.0861783" lon="15.7325767"><ele>385.0</ele><time>2026-04-24T13:40:31.372Z</time></trkpt><trkpt lat="38.0861433" lon="15.7324567"><ele>386.2</ele><time>2026-04-24T13:40:32.372Z</time></trkpt><trkpt lat="38.0861217" lon="15.7323417"><ele>387.4</ele><time>2026-04-24T13:40:33.373Z</time></trkpt><trkpt lat="38.0860917" lon="15.7322217"><ele>388.6</ele><time>2026-04-24T13:40:34.372Z</time></trkpt><trkpt lat="38.0860417" lon="15.7321217"><ele>389.8</ele><time>2026-04-24T13:40:35.372Z</time></trkpt><trkpt lat="38.0859683" lon="15.73203"><ele>391.0</ele><time>2026-04-24T13:40:36.372Z</time></trkpt><trkpt lat="38.0858767" lon="15.73195"><ele>394.8</ele><time>2026-04-24T13:40:37.373Z</time></trkpt><trkpt lat="38.0857883" lon="15.73188"><ele>398.6</ele><time>2026-04-24T13:40:38.372Z</time></trkpt><trkpt lat="38.085705" lon="15.73181"><ele>402.4</ele><time>2026-04-24T13:40:39.372Z</time></trkpt><trkpt lat="38.08562" lon="15.731735"><ele>406.2</ele><time>2026-04-24T13:40:40.372Z</time></trkpt><trkpt lat="38.0855467" lon="15.7316567"><ele>410.0</ele><time>2026-04-24T13:40:41.372Z</time></trkpt><trkpt lat="38.0854833" lon="15.73156"><ele>401.8</ele><time>2026-04-24T13:40:42.372Z</time></trkpt><trkpt lat="38.085425" lon="15.73145"><ele>393.6</ele><time>2026-04-24T13:40:43.373Z</time></trkpt><trkpt lat="38.0853867" lon="15.7313233"><ele>385.4</ele><time>2026-04-24T13:40:44.372Z</time></trkpt><trkpt lat="38.085365" lon="15.731205"><ele>377.2</ele><time>2026-04-24T13:40:45.372Z</time></trkpt><trkpt lat="38.08537" lon="15.7310917"><ele>369.0</ele><time>2026-04-24T13:40:46.372Z</time></trkpt><trkpt lat="38.0853933" lon="15.7309867"><ele>369.0</ele><time>2026-04-24T13:40:47.373Z</time></trkpt><trkpt lat="38.0854383" lon="15.7308917"><ele>369.0</ele><time>2026-04-24T13:40:48.372Z</time></trkpt><trkpt lat="38.085495" lon="15.7307983"><ele>369.0</ele><time>2026-04-24T13:40:49.372Z</time></trkpt><trkpt lat="38.085575" lon="15.7307233"><ele>369.0</ele><time>2026-04-24T13:40:50.372Z</time></trkpt><trkpt lat="38.0856617" lon="15.7306383"><ele>369.0</ele><time>2026-04-24T13:40:51.372Z</time></trkpt><trkpt lat="38.085755" lon="15.7305617"><ele>370.0</ele><time>2026-04-24T13:40:52.372Z</time></trkpt><trkpt lat="38.0858467" lon="15.7304817"><ele>371.0</ele><time>2026-04-24T13:40:53.373Z</time></trkpt><trkpt lat="38.0859333" lon="15.730395"><ele>372.0</ele><time>2026-04-24T13:40:54.372Z</time></trkpt><trkpt lat="38.08602" lon="15.7303117"><ele>373.0</ele><time>2026-04-24T13:40:55.372Z</time></trkpt><trkpt lat="38.0861067" lon="15.7302283"><ele>374.0</ele><time>2026-04-24T13:40:56.372Z</time></trkpt><trkpt lat="38.0861967" lon="15.7301567"><ele>374.0</ele><time>2026-04-24T13:40:57.373Z</time></trkpt><trkpt lat="38.0862817" lon="15.7301067"><ele>374.0</ele><time>2026-04-24T13:40:58.372Z</time></trkpt><trkpt lat="38.0863617" lon="15.7300667"><ele>374.0</ele><time>2026-04-24T13:40:59.372Z</time></trkpt><trkpt lat="38.0864317" lon="15.730015"><ele>374.0</ele><time>2026-04-24T13:41:00.373Z</time></trkpt><trkpt lat="38.0865" lon="15.7299583"><ele>374.0</ele><time>2026-04-24T13:41:01.372Z</time></trkpt><trkpt lat="38.0865667" lon="15.7298883"><ele>374.0</ele><time>2026-04-24T13:41:02.372Z</time></trkpt><trkpt lat="38.0866133" lon="15.729805"><ele>375.1666666666667</ele><time>2026-04-24T13:41:03.372Z</time></trkpt><trkpt lat="38.0866467" lon="15.7297167"><ele>376.33333333333337</ele><time>2026-04-24T13:41:04.373Z</time></trkpt><trkpt lat="38.08666" lon="15.7296233"><ele>377.5</ele><time>2026-04-24T13:41:05.372Z</time></trkpt><trkpt lat="38.086655" lon="15.7295233"><ele>378.6666666666667</ele><time>2026-04-24T13:41:06.373Z</time></trkpt><trkpt lat="38.0866383" lon="15.7294117"><ele>379.8333333333333</ele><time>2026-04-24T13:41:07.373Z</time></trkpt><trkpt lat="38.0866083" lon="15.7293033"><ele>381.0</ele><time>2026-04-24T13:41:08.372Z</time></trkpt><trkpt lat="38.08658" lon="15.72919"><ele>381.0</ele><time>2026-04-24T13:41:09.373Z</time></trkpt><trkpt lat="38.0865667" lon="15.7290867"><ele>381.0</ele><time>2026-04-24T13:41:10.372Z</time></trkpt><trkpt lat="38.0865833" lon="15.7289817"><ele>381.0</ele><time>2026-04-24T13:41:11.373Z</time></trkpt><trkpt lat="38.0866083" lon="15.728895"><ele>381.0</ele><time>2026-04-24T13:41:12.372Z</time></trkpt><trkpt lat="38.0866533" lon="15.728815"><ele>381.0</ele><time>2026-04-24T13:41:13.372Z</time></trkpt><trkpt lat="38.086705" lon="15.7287417"><ele>381.0</ele><time>2026-04-24T13:41:14.373Z</time></trkpt><trkpt lat="38.08677" lon="15.72868"><ele>381.0</ele><time>2026-04-24T13:41:15.372Z</time></trkpt><trkpt lat="38.0868417" lon="15.7286367"><ele>381.0</ele><time>2026-04-24T13:41:16.373Z</time></trkpt><trkpt lat="38.0869167" lon="15.7286217"><ele>381.0</ele><time>2026-04-24T13:41:17.372Z</time></trkpt><trkpt lat="38.08699" lon="15.7285983"><ele>381.0</ele><time>2026-04-24T13:41:18.372Z</time></trkpt><trkpt lat="38.0870633" lon="15.728575"><ele>381.0</ele><time>2026-04-24T13:41:19.372Z</time></trkpt><trkpt lat="38.0871333" lon="15.72857"><ele>381.0</ele><time>2026-04-24T13:41:20.372Z</time></trkpt><trkpt lat="38.087195" lon="15.7285483"><ele>381.0</ele><time>2026-04-24T13:41:21.372Z</time></trkpt><trkpt lat="38.08726" lon="15.7285283"><ele>379.3333333333333</ele><time>2026-04-24T13:41:22.372Z</time></trkpt><trkpt lat="38.0873383" lon="15.7285067"><ele>377.6666666666667</ele><time>2026-04-24T13:41:23.373Z</time></trkpt><trkpt lat="38.0874183" lon="15.7284917"><ele>376.0</ele><time>2026-04-24T13:41:24.372Z</time></trkpt><trkpt lat="38.0874983" lon="15.7284883"><ele>374.33333333333337</ele><time>2026-04-24T13:41:25.372Z</time></trkpt><trkpt lat="38.087575" lon="15.7285"><ele>372.6666666666667</ele><time>2026-04-24T13:41:26.373Z</time></trkpt><trkpt lat="38.08765" lon="15.7285383"><ele>371.0</ele><time>2026-04-24T13:41:27.373Z</time></trkpt><trkpt lat="38.0877217" lon="15.7285633"><ele>371.0</ele><time>2026-04-24T13:41:28.372Z</time></trkpt><trkpt lat="38.087835" lon="15.72851"><ele>371.0</ele><time>2026-04-24T13:41:30.372Z</time></trkpt><trkpt lat="38.0878717" lon="15.7284"><ele>371.0</ele><time>2026-04-24T13:41:32.372Z</time></trkpt><trkpt lat="38.0877967" lon="15.7282883"><ele>371.0</ele><time>2026-04-24T13:41:34.373Z</time></trkpt><trkpt lat="38.087725" lon="15.7282533"><ele>371.0</ele><time>2026-04-24T13:41:35.373Z</time></trkpt><trkpt lat="38.0876383" lon="15.7282233"><ele>371.0</ele><time>2026-04-24T13:41:36.373Z</time></trkpt><trkpt lat="38.0875467" lon="15.7282"><ele>371.0</ele><time>2026-04-24T13:41:37.372Z</time></trkpt><trkpt lat="38.0874583" lon="15.7281767"><ele>371.0</ele><time>2026-04-24T13:41:38.373Z</time></trkpt><trkpt lat="38.0873667" lon="15.7281617"><ele>371.0</ele><time>2026-04-24T13:41:39.372Z</time></trkpt><trkpt lat="38.0872717" lon="15.7281567"><ele>371.0</ele><time>2026-04-24T13:41:40.373Z</time></trkpt><trkpt lat="38.0871783" lon="15.7281583"><ele>370.0</ele><time>2026-04-24T13:41:41.372Z</time></trkpt><trkpt lat="38.08709" lon="15.7281417"><ele>369.0</ele><time>2026-04-24T13:41:42.372Z</time></trkpt><trkpt lat="38.0870117" lon="15.728135"><ele>368.0</ele><time>2026-04-24T13:41:43.373Z</time></trkpt><trkpt lat="38.0869333" lon="15.7281133"><ele>367.0</ele><time>2026-04-24T13:41:44.372Z</time></trkpt><trkpt lat="38.0868583" lon="15.7280783"><ele>366.0</ele><time>2026-04-24T13:41:45.372Z</time></trkpt><trkpt lat="38.08679" lon="15.7280617"><ele>365.0</ele><time>2026-04-24T13:41:46.372Z</time></trkpt><trkpt lat="38.0867233" lon="15.728085"><ele>365.0</ele><time>2026-04-24T13:41:47.372Z</time></trkpt><trkpt lat="38.0866067" lon="15.7281533"><ele>365.0</ele><time>2026-04-24T13:41:49.373Z</time></trkpt><trkpt lat="38.0865567" lon="15.728205"><ele>365.0</ele><time>2026-04-24T13:41:50.372Z</time></trkpt><trkpt lat="38.0864733" lon="15.728295"><ele>365.0</ele><time>2026-04-24T13:41:52.372Z</time></trkpt><trkpt lat="38.0864083" lon="15.72837"><ele>365.0</ele><time>2026-04-24T13:41:54.372Z</time></trkpt><trkpt lat="38.0863467" lon="15.7282833"><ele>365.0</ele><time>2026-04-24T13:41:57.372Z</time></trkpt><trkpt lat="38.08638" lon="15.728165"><ele>365.0</ele><time>2026-04-24T13:41:59.372Z</time></trkpt><trkpt lat="38.086435" lon="15.7280967"><ele>365.0</ele><time>2026-04-24T13:42:00.372Z</time></trkpt><trkpt lat="38.0865017" lon="15.7280317"><ele>365.0</ele><time>2026-04-24T13:42:01.372Z</time></trkpt><trkpt lat="38.086575" lon="15.727985"><ele>365.0</ele><time>2026-04-24T13:42:02.373Z</time></trkpt><trkpt lat="38.0866567" lon="15.72798"><ele>365.0</ele><time>2026-04-24T13:42:03.373Z</time></trkpt><trkpt lat="38.0867417" lon="15.727975"><ele>365.0</ele><time>2026-04-24T13:42:04.372Z</time></trkpt><trkpt lat="38.0868367" lon="15.7279617"><ele>365.0</ele><time>2026-04-24T13:42:05.372Z</time></trkpt><trkpt lat="38.086925" lon="15.7279467"><ele>365.0</ele><time>2026-04-24T13:42:06.372Z</time></trkpt><trkpt lat="38.0870133" lon="15.7279183"><ele>365.0</ele><time>2026-04-24T13:42:07.373Z</time></trkpt><trkpt lat="38.0871" lon="15.7278917"><ele>365.0</ele><time>2026-04-24T13:42:08.372Z</time></trkpt><trkpt lat="38.0871867" lon="15.7278667"><ele>365.0</ele><time>2026-04-24T13:42:09.372Z</time></trkpt><trkpt lat="38.08728" lon="15.72785"><ele>365.0</ele><time>2026-04-24T13:42:10.372Z</time></trkpt><trkpt lat="38.08736" lon="15.727845"><ele>365.0</ele><time>2026-04-24T13:42:11.372Z</time></trkpt><trkpt lat="38.0874267" lon="15.72786"><ele>365.0</ele><time>2026-04-24T13:42:12.372Z</time></trkpt><trkpt lat="38.0875433" lon="15.7278933"><ele>365.0</ele><time>2026-04-24T13:42:14.372Z</time></trkpt><trkpt lat="38.0876633" lon="15.7279133"><ele>366.2</ele><time>2026-04-24T13:42:16.372Z</time></trkpt><trkpt lat="38.0877667" lon="15.727865"><ele>367.4</ele><time>2026-04-24T13:42:18.372Z</time></trkpt><trkpt lat="38.087815" lon="15.7278067"><ele>368.6</ele><time>2026-04-24T13:42:19.372Z</time></trkpt><trkpt lat="38.08788" lon="15.7277233"><ele>369.8</ele><time>2026-04-24T13:42:21.373Z</time></trkpt><trkpt lat="38.08799" lon="15.7277583"><ele>371.0</ele><time>2026-04-24T13:42:23.372Z</time></trkpt><trkpt lat="38.08806" lon="15.7278183"><ele>371.0</ele><time>2026-04-24T13:42:24.373Z</time></trkpt><trkpt lat="38.0881333" lon="15.7278783"><ele>371.0</ele><time>2026-04-24T13:42:25.373Z</time></trkpt><trkpt lat="38.0881867" lon="15.72793"><ele>371.0</ele><time>2026-04-24T13:42:26.372Z</time></trkpt><trkpt lat="38.0882283" lon="15.7279983"><ele>371.0</ele><time>2026-04-24T13:42:27.372Z</time></trkpt><trkpt lat="38.08827" lon="15.7280683"><ele>371.0</ele><time>2026-04-24T13:42:28.372Z</time></trkpt><trkpt lat="38.0883583" lon="15.7281817"><ele>371.0</ele><time>2026-04-24T13:42:30.373Z</time></trkpt><trkpt lat="38.0884517" lon="15.7282017"><ele>370.6666666666667</ele><time>2026-04-24T13:42:32.372Z</time></trkpt><trkpt lat="38.0885233" lon="15.728105"><ele>370.33333333333337</ele><time>2026-04-24T13:42:34.373Z</time></trkpt><trkpt lat="38.0885317" lon="15.727995"><ele>370.0</ele><time>2026-04-24T13:42:35.372Z</time></trkpt><trkpt lat="38.08854" lon="15.7278867"><ele>369.6666666666667</ele><time>2026-04-24T13:42:36.373Z</time></trkpt><trkpt lat="38.0885433" lon="15.7277883"><ele>369.3333333333333</ele><time>2026-04-24T13:42:37.373Z</time></trkpt><trkpt lat="38.088545" lon="15.7276933"><ele>369.0</ele><time>2026-04-24T13:42:38.373Z</time></trkpt><trkpt lat="38.08855" lon="15.72761"><ele>364.2</ele><time>2026-04-24T13:42:39.372Z</time></trkpt><trkpt lat="38.0885683" lon="15.72745"><ele>359.4</ele><time>2026-04-24T13:42:41.373Z</time></trkpt><trkpt lat="38.088595" lon="15.7273767"><ele>354.6</ele><time>2026-04-24T13:42:42.372Z</time></trkpt><trkpt lat="38.0887" lon="15.727285"><ele>349.8</ele><time>2026-04-24T13:42:44.372Z</time></trkpt><trkpt lat="38.0887833" lon="15.727275"><ele>345.0</ele><time>2026-04-24T13:42:45.373Z</time></trkpt><trkpt lat="38.0888683" lon="15.7272767"><ele>345.0</ele><time>2026-04-24T13:42:46.372Z</time></trkpt><trkpt lat="38.0889667" lon="15.727275"><ele>345.0</ele><time>2026-04-24T13:42:47.373Z</time></trkpt><trkpt lat="38.0890567" lon="15.727265"><ele>345.0</ele><time>2026-04-24T13:42:48.373Z</time></trkpt><trkpt lat="38.0891417" lon="15.7272833"><ele>345.0</ele><time>2026-04-24T13:42:49.372Z</time></trkpt><trkpt lat="38.0892067" lon="15.727305"><ele>345.0</ele><time>2026-04-24T13:42:50.373Z</time></trkpt><trkpt lat="38.0892633" lon="15.727355"><ele>345.0</ele><time>2026-04-24T13:42:51.372Z</time></trkpt><trkpt lat="38.089325" lon="15.7273783"><ele>345.0</ele><time>2026-04-24T13:42:53.372Z</time></trkpt><trkpt lat="38.0893333" lon="15.7272883"><ele>345.0</ele><time>2026-04-24T13:42:55.373Z</time></trkpt><trkpt lat="38.08923" lon="15.7272217"><ele>345.0</ele><time>2026-04-24T13:42:57.373Z</time></trkpt><trkpt lat="38.0891633" lon="15.7272017"><ele>345.0</ele><time>2026-04-24T13:42:58.372Z</time></trkpt><trkpt lat="38.0890967" lon="15.72719"><ele>345.0</ele><time>2026-04-24T13:42:59.372Z</time></trkpt><trkpt lat="38.089025" lon="15.7271583"><ele>345.0</ele><time>2026-04-24T13:43:00.373Z</time></trkpt><trkpt lat="38.08896" lon="15.7271233"><ele>345.0</ele><time>2026-04-24T13:43:01.372Z</time></trkpt><trkpt lat="38.0888983" lon="15.7270533"><ele>345.0</ele><time>2026-04-24T13:43:02.373Z</time></trkpt><trkpt lat="38.0888433" lon="15.7269817"><ele>345.0</ele><time>2026-04-24T13:43:03.372Z</time></trkpt><trkpt lat="38.08879" lon="15.7269"><ele>345.0</ele><time>2026-04-24T13:43:04.372Z</time></trkpt><trkpt lat="38.0887317" lon="15.726825"><ele>345.0</ele><time>2026-04-24T13:43:05.372Z</time></trkpt><trkpt lat="38.0886717" lon="15.72675"><ele>345.0</ele><time>2026-04-24T13:43:06.372Z</time></trkpt><trkpt lat="38.0886017" lon="15.7267017"><ele>343.3333333333333</ele><time>2026-04-24T13:43:07.373Z</time></trkpt><trkpt lat="38.0885283" lon="15.7266333"><ele>341.6666666666667</ele><time>2026-04-24T13:43:08.372Z</time></trkpt><trkpt lat="38.0884633" lon="15.72658"><ele>340.0</ele><time>2026-04-24T13:43:09.372Z</time></trkpt><trkpt lat="38.0884083" lon="15.7264983"><ele>338.33333333333337</ele><time>2026-04-24T13:43:10.373Z</time></trkpt><trkpt lat="38.0883683" lon="15.7264067"><ele>336.6666666666667</ele><time>2026-04-24T13:43:11.373Z</time></trkpt><trkpt lat="38.0883383" lon="15.72629"><ele>335.0</ele><time>2026-04-24T13:43:12.373Z</time></trkpt><trkpt lat="38.088335" lon="15.7261333"><ele>335.33333333333337</ele><time>2026-04-24T13:43:13.372Z</time></trkpt><trkpt lat="38.088305" lon="15.72603"><ele>335.6666666666667</ele><time>2026-04-24T13:43:14.373Z</time></trkpt><trkpt lat="38.0882833" lon="15.72592"><ele>336.0</ele><time>2026-04-24T13:43:15.373Z</time></trkpt><trkpt lat="38.0882617" lon="15.72581"><ele>336.3333333333333</ele><time>2026-04-24T13:43:16.372Z</time></trkpt><trkpt lat="38.0882433" lon="15.72571"><ele>336.66666666666663</ele><time>2026-04-24T13:43:17.372Z</time></trkpt><trkpt lat="38.0882317" lon="15.7256083"><ele>337.0</ele><time>2026-04-24T13:43:18.373Z</time></trkpt><trkpt lat="38.088235" lon="15.7255"><ele>328.8</ele><time>2026-04-24T13:43:19.373Z</time></trkpt><trkpt lat="38.0882383" lon="15.7253917"><ele>320.6</ele><time>2026-04-24T13:43:20.373Z</time></trkpt><trkpt lat="38.0882167" lon="15.7252933"><ele>312.40000000000003</ele><time>2026-04-24T13:43:21.372Z</time></trkpt><trkpt lat="38.088165" lon="15.7251917"><ele>304.20000000000005</ele><time>2026-04-24T13:43:22.373Z</time></trkpt><trkpt lat="38.0880967" lon="15.7251083"><ele>296.0</ele><time>2026-04-24T13:43:23.372Z</time></trkpt><trkpt lat="38.0880267" lon="15.725015"><ele>296.0</ele><time>2026-04-24T13:43:24.373Z</time></trkpt><trkpt lat="38.0879667" lon="15.7249317"><ele>296.0</ele><time>2026-04-24T13:43:25.373Z</time></trkpt><trkpt lat="38.0879183" lon="15.72485"><ele>296.0</ele><time>2026-04-24T13:43:26.372Z</time></trkpt><trkpt lat="38.087885" lon="15.7247667"><ele>296.0</ele><time>2026-04-24T13:43:27.373Z</time></trkpt><trkpt lat="38.087875" lon="15.7246717"><ele>296.0</ele><time>2026-04-24T13:43:28.373Z</time></trkpt><trkpt lat="38.087895" lon="15.7245833"><ele>296.0</ele><time>2026-04-24T13:43:29.373Z</time></trkpt><trkpt lat="38.08795" lon="15.7245033"><ele>296.0</ele><time>2026-04-24T13:43:30.372Z</time></trkpt><trkpt lat="38.0880217" lon="15.72444"><ele>296.0</ele><time>2026-04-24T13:43:31.372Z</time></trkpt><trkpt lat="38.0881067" lon="15.7243817"><ele>296.0</ele><time>2026-04-24T13:43:32.372Z</time></trkpt><trkpt lat="38.0881833" lon="15.7243083"><ele>296.0</ele><time>2026-04-24T13:43:33.373Z</time></trkpt><trkpt lat="38.0882417" lon="15.7242417"><ele>296.0</ele><time>2026-04-24T13:43:34.373Z</time></trkpt><trkpt lat="38.0882833" lon="15.7241583"><ele>296.0</ele><time>2026-04-24T13:43:35.372Z</time></trkpt><trkpt lat="38.0883117" lon="15.7240733"><ele>293.1666666666667</ele><time>2026-04-24T13:43:36.373Z</time></trkpt><trkpt lat="38.08831" lon="15.7239817"><ele>290.33333333333337</ele><time>2026-04-24T13:43:37.372Z</time></trkpt><trkpt lat="38.088295" lon="15.723875"><ele>287.5</ele><time>2026-04-24T13:43:38.373Z</time></trkpt><trkpt lat="38.0882817" lon="15.7237733"><ele>284.6666666666667</ele><time>2026-04-24T13:43:39.372Z</time></trkpt><trkpt lat="38.0882667" lon="15.72366"><ele>281.8333333333333</ele><time>2026-04-24T13:43:40.372Z</time></trkpt><trkpt lat="38.0882533" lon="15.7235483"><ele>279.0</ele><time>2026-04-24T13:43:41.372Z</time></trkpt><trkpt lat="38.0882383" lon="15.7234433"><ele>279.0</ele><time>2026-04-24T13:43:42.372Z</time></trkpt><trkpt lat="38.0882317" lon="15.7233317"><ele>279.0</ele><time>2026-04-24T13:43:43.372Z</time></trkpt><trkpt lat="38.088235" lon="15.7232233"><ele>279.0</ele><time>2026-04-24T13:43:44.373Z</time></trkpt><trkpt lat="38.0882517" lon="15.7231083"><ele>279.0</ele><time>2026-04-24T13:43:45.372Z</time></trkpt><trkpt lat="38.088275" lon="15.7230033"><ele>279.0</ele><time>2026-04-24T13:43:46.372Z</time></trkpt><trkpt lat="38.0883083" lon="15.7229"><ele>279.0</ele><time>2026-04-24T13:43:47.373Z</time></trkpt><trkpt lat="38.0883517" lon="15.7228217"><ele>280.0</ele><time>2026-04-24T13:43:48.373Z</time></trkpt><trkpt lat="38.08841" lon="15.72278"><ele>281.0</ele><time>2026-04-24T13:43:49.373Z</time></trkpt><trkpt lat="38.088495" lon="15.7227683"><ele>282.0</ele><time>2026-04-24T13:43:50.373Z</time></trkpt><trkpt lat="38.08858" lon="15.722735"><ele>283.0</ele><time>2026-04-24T13:43:51.372Z</time></trkpt><trkpt lat="38.0886667" lon="15.7226867"><ele>284.0</ele><time>2026-04-24T13:43:52.372Z</time></trkpt><trkpt lat="38.0887517" lon="15.7226067"><ele>285.0</ele><time>2026-04-24T13:43:53.373Z</time></trkpt><trkpt lat="38.0888167" lon="15.7225017"><ele>285.0</ele><time>2026-04-24T13:43:54.373Z</time></trkpt><trkpt lat="38.0888717" lon="15.7223867"><ele>285.0</ele><time>2026-04-24T13:43:55.372Z</time></trkpt><trkpt lat="38.0889167" lon="15.7222617"><ele>285.0</ele><time>2026-04-24T13:43:56.373Z</time></trkpt><trkpt lat="38.0889483" lon="15.7221383"><ele>285.0</ele><time>2026-04-24T13:43:57.373Z</time></trkpt><trkpt lat="38.0889567" lon="15.72202"><ele>285.0</ele><time>2026-04-24T13:43:58.372Z</time></trkpt><trkpt lat="38.0889417" lon="15.7219117"><ele>282.8333333333333</ele><time>2026-04-24T13:43:59.373Z</time></trkpt><trkpt lat="38.08891" lon="15.7218283"><ele>280.6666666666667</ele><time>2026-04-24T13:44:00.373Z</time></trkpt><trkpt lat="38.0888617" lon="15.7217567"><ele>278.5</ele><time>2026-04-24T13:44:01.373Z</time></trkpt><trkpt lat="38.0888083" lon="15.7216767"><ele>276.33333333333337</ele><time>2026-04-24T13:44:02.373Z</time></trkpt><trkpt lat="38.08877" lon="15.7215833"><ele>274.1666666666667</ele><time>2026-04-24T13:44:03.372Z</time></trkpt><trkpt lat="38.0887383" lon="15.721475"><ele>272.0</ele><time>2026-04-24T13:44:04.372Z</time></trkpt><trkpt lat="38.088715" lon="15.721365"><ele>272.0</ele><time>2026-04-24T13:44:05.372Z</time></trkpt><trkpt lat="38.0886917" lon="15.7212617"><ele>272.0</ele><time>2026-04-24T13:44:06.373Z</time></trkpt><trkpt lat="38.08867" lon="15.7211417"><ele>272.0</ele><time>2026-04-24T13:44:07.372Z</time></trkpt><trkpt lat="38.088655" lon="15.7210267"><ele>272.0</ele><time>2026-04-24T13:44:08.373Z</time></trkpt><trkpt lat="38.0886367" lon="15.7209217"><ele>272.0</ele><time>2026-04-24T13:44:09.373Z</time></trkpt><trkpt lat="38.0886167" lon="15.7208217"><ele>272.0</ele><time>2026-04-24T13:44:10.373Z</time></trkpt><trkpt lat="38.088605" lon="15.7207267"><ele>272.1666666666667</ele><time>2026-04-24T13:44:11.372Z</time></trkpt><trkpt lat="38.0886183" lon="15.7206367"><ele>272.33333333333337</ele><time>2026-04-24T13:44:12.372Z</time></trkpt><trkpt lat="38.0886467" lon="15.7205567"><ele>272.5</ele><time>2026-04-24T13:44:13.372Z</time></trkpt><trkpt lat="38.0886767" lon="15.7204283"><ele>272.6666666666667</ele><time>2026-04-24T13:44:15.373Z</time></trkpt><trkpt lat="38.08862" lon="15.7203517"><ele>272.8333333333333</ele><time>2026-04-24T13:44:17.373Z</time></trkpt><trkpt lat="38.0885233" lon="15.7203567"><ele>273.0</ele><time>2026-04-24T13:44:19.373Z</time></trkpt><trkpt lat="38.0884683" lon="15.72046"><ele>273.0</ele><time>2026-04-24T13:44:21.372Z</time></trkpt><trkpt lat="38.0884583" lon="15.7206133"><ele>273.0</ele><time>2026-04-24T13:44:23.373Z</time></trkpt><trkpt lat="38.0884533" lon="15.7206933"><ele>273.0</ele><time>2026-04-24T13:44:24.372Z</time></trkpt><trkpt lat="38.08843" lon="15.720795"><ele>273.0</ele><time>2026-04-24T13:44:26.372Z</time></trkpt><trkpt lat="38.08836" lon="15.72071"><ele>273.0</ele><time>2026-04-24T13:44:29.372Z</time></trkpt><trkpt lat="38.0883617" lon="15.72063"><ele>273.0</ele><time>2026-04-24T13:44:30.372Z</time></trkpt><trkpt lat="38.088375" lon="15.7205383"><ele>273.0</ele><time>2026-04-24T13:44:31.372Z</time></trkpt><trkpt lat="38.0883983" lon="15.7204517"><ele>273.0</ele><time>2026-04-24T13:44:32.372Z</time></trkpt><trkpt lat="38.0884283" lon="15.7203767"><ele>273.0</ele><time>2026-04-24T13:44:33.372Z</time></trkpt><trkpt lat="38.088475" lon="15.7203117"><ele>273.0</ele><time>2026-04-24T13:44:34.372Z</time></trkpt><trkpt lat="38.088525" lon="15.7202517"><ele>273.0</ele><time>2026-04-24T13:44:35.372Z</time></trkpt><trkpt lat="38.0885717" lon="15.7201933"><ele>273.0</ele><time>2026-04-24T13:44:36.373Z</time></trkpt><trkpt lat="38.0886117" lon="15.7201267"><ele>273.0</ele><time>2026-04-24T13:44:37.373Z</time></trkpt><trkpt lat="38.08866" lon="15.7200133"><ele>272.0</ele><time>2026-04-24T13:44:39.372Z</time></trkpt><trkpt lat="38.088605" lon="15.7198817"><ele>271.0</ele><time>2026-04-24T13:44:41.372Z</time></trkpt><trkpt lat="38.08853" lon="15.71982"><ele>270.0</ele><time>2026-04-24T13:44:42.373Z</time></trkpt><trkpt lat="38.0884667" lon="15.719745"><ele>269.0</ele><time>2026-04-24T13:44:43.373Z</time></trkpt><trkpt lat="38.0884117" lon="15.7196533"><ele>268.0</ele><time>2026-04-24T13:44:44.373Z</time></trkpt><trkpt lat="38.0883767" lon="15.7195583"><ele>268.0</ele><time>2026-04-24T13:44:45.372Z</time></trkpt><trkpt lat="38.0883467" lon="15.719455"><ele>268.0</ele><time>2026-04-24T13:44:46.372Z</time></trkpt><trkpt lat="38.0883117" lon="15.7193517"><ele>268.0</ele><time>2026-04-24T13:44:47.373Z</time></trkpt><trkpt lat="38.08827" lon="15.719255"><ele>268.0</ele><time>2026-04-24T13:44:48.373Z</time></trkpt><trkpt lat="38.0882383" lon="15.7191617"><ele>268.0</ele><time>2026-04-24T13:44:49.372Z</time></trkpt><trkpt lat="38.0882183" lon="15.7190583"><ele>268.0</ele><time>2026-04-24T13:44:50.372Z</time></trkpt><trkpt lat="38.0881883" lon="15.7189567"><ele>266.66666666666663</ele><time>2026-04-24T13:44:51.373Z</time></trkpt><trkpt lat="38.0881533" lon="15.718865"><ele>265.3333333333333</ele><time>2026-04-24T13:44:52.372Z</time></trkpt><trkpt lat="38.0881217" lon="15.71878"><ele>264.0</ele><time>2026-04-24T13:44:53.372Z</time></trkpt><trkpt lat="38.0880867" lon="15.7187033"><ele>262.6666666666667</ele><time>2026-04-24T13:44:54.372Z</time></trkpt><trkpt lat="38.0880583" lon="15.718615"><ele>261.33333333333337</ele><time>2026-04-24T13:44:55.372Z</time></trkpt><trkpt lat="38.0880367" lon="15.7185167"><ele>260.0</ele><time>2026-04-24T13:44:56.372Z</time></trkpt><trkpt lat="38.088015" lon="15.7184217"><ele>260.0</ele><time>2026-04-24T13:44:57.372Z</time></trkpt><trkpt lat="38.0880033" lon="15.71832"><ele>260.0</ele><time>2026-04-24T13:44:58.372Z</time></trkpt><trkpt lat="38.0879967" lon="15.7182117"><ele>260.0</ele><time>2026-04-24T13:44:59.373Z</time></trkpt><trkpt lat="38.088005" lon="15.7181033"><ele>260.0</ele><time>2026-04-24T13:45:00.373Z</time></trkpt><trkpt lat="38.088005" lon="15.7179883"><ele>260.0</ele><time>2026-04-24T13:45:01.372Z</time></trkpt><trkpt lat="38.0880167" lon="15.717885"><ele>260.0</ele><time>2026-04-24T13:45:02.372Z</time></trkpt><trkpt lat="38.0880233" lon="15.717785"><ele>258.8</ele><time>2026-04-24T13:45:03.373Z</time></trkpt><trkpt lat="38.08803" lon="15.7176817"><ele>257.6</ele><time>2026-04-24T13:45:04.373Z</time></trkpt><trkpt lat="38.08804" lon="15.7175717"><ele>256.4</ele><time>2026-04-24T13:45:05.372Z</time></trkpt><trkpt lat="38.08805" lon="15.7174517"><ele>255.2</ele><time>2026-04-24T13:45:06.373Z</time></trkpt><trkpt lat="38.0880667" lon="15.7173367"><ele>254.0</ele><time>2026-04-24T13:45:07.373Z</time></trkpt><trkpt lat="38.0880917" lon="15.7172167"><ele>254.0</ele><time>2026-04-24T13:45:08.373Z</time></trkpt><trkpt lat="38.08811" lon="15.7170983"><ele>253.99999999999997</ele><time>2026-04-24T13:45:09.372Z</time></trkpt><trkpt lat="38.08812" lon="15.71698"><ele>253.99999999999997</ele><time>2026-04-24T13:45:10.373Z</time></trkpt><trkpt lat="38.088135" lon="15.7168583"><ele>254.0</ele><time>2026-04-24T13:45:11.372Z</time></trkpt><trkpt lat="38.0881483" lon="15.7167367"><ele>254.0</ele><time>2026-04-24T13:45:12.373Z</time></trkpt><trkpt lat="38.0881433" lon="15.7166183"><ele>252.50000000000003</ele><time>2026-04-24T13:45:13.373Z</time></trkpt><trkpt lat="38.0881533" lon="15.7165217"><ele>251.0</ele><time>2026-04-24T13:45:14.373Z</time></trkpt><trkpt lat="38.0881717" lon="15.7164333"><ele>249.5</ele><time>2026-04-24T13:45:15.373Z</time></trkpt><trkpt lat="38.08821" lon="15.716365"><ele>248.0</ele><time>2026-04-24T13:45:16.373Z</time></trkpt><trkpt lat="38.0882567" lon="15.7163083"><ele>246.50000000000003</ele><time>2026-04-24T13:45:17.373Z</time></trkpt><trkpt lat="38.0883733" lon="15.7162567"><ele>245.0</ele><time>2026-04-24T13:45:19.372Z</time></trkpt><trkpt lat="38.0884383" lon="15.71627"><ele>248.8</ele><time>2026-04-24T13:45:20.373Z</time></trkpt><trkpt lat="38.0885067" lon="15.71632"><ele>252.6</ele><time>2026-04-24T13:45:21.373Z</time></trkpt><trkpt lat="38.08858" lon="15.7163983"><ele>256.4</ele><time>2026-04-24T13:45:22.372Z</time></trkpt><trkpt lat="38.0886583" lon="15.71649"><ele>260.2</ele><time>2026-04-24T13:45:23.372Z</time></trkpt><trkpt lat="38.0887333" lon="15.716585"><ele>264.0</ele><time>2026-04-24T13:45:24.372Z</time></trkpt><trkpt lat="38.08881" lon="15.716685"><ele>264.0</ele><time>2026-04-24T13:45:25.373Z</time></trkpt><trkpt lat="38.088875" lon="15.7167817"><ele>264.0</ele><time>2026-04-24T13:45:26.372Z</time></trkpt><trkpt lat="38.0889333" lon="15.7168767"><ele>264.0</ele><time>2026-04-24T13:45:27.372Z</time></trkpt><trkpt lat="38.0889883" lon="15.7169783"><ele>264.0</ele><time>2026-04-24T13:45:28.373Z</time></trkpt><trkpt lat="38.0890267" lon="15.7170733"><ele>264.0</ele><time>2026-04-24T13:45:29.372Z</time></trkpt><trkpt lat="38.08906" lon="15.7171783"><ele>263.5</ele><time>2026-04-24T13:45:30.372Z</time></trkpt><trkpt lat="38.089095" lon="15.7172867"><ele>263.0</ele><time>2026-04-24T13:45:31.372Z</time></trkpt><trkpt lat="38.0891317" lon="15.7173867"><ele>262.5</ele><time>2026-04-24T13:45:32.373Z</time></trkpt><trkpt lat="38.0891867" lon="15.71747"><ele>262.0</ele><time>2026-04-24T13:45:33.372Z</time></trkpt><trkpt lat="38.089255" lon="15.7175233"><ele>261.5</ele><time>2026-04-24T13:45:34.373Z</time></trkpt><trkpt lat="38.089335" lon="15.7175367"><ele>261.0</ele><time>2026-04-24T13:45:35.373Z</time></trkpt><trkpt lat="38.0894233" lon="15.717505"><ele>261.0</ele><time>2026-04-24T13:45:36.373Z</time></trkpt><trkpt lat="38.089515" lon="15.717445"><ele>261.0</ele><time>2026-04-24T13:45:37.372Z</time></trkpt><trkpt lat="38.0896017" lon="15.7173867"><ele>261.0</ele><time>2026-04-24T13:45:38.373Z</time></trkpt><trkpt lat="38.0896883" lon="15.7173317"><ele>261.0</ele><time>2026-04-24T13:45:39.372Z</time></trkpt><trkpt lat="38.0897733" lon="15.7172867"><ele>261.0</ele><time>2026-04-24T13:45:40.373Z</time></trkpt><trkpt lat="38.089855" lon="15.7172283"><ele>261.0</ele><time>2026-04-24T13:45:41.372Z</time></trkpt><trkpt lat="38.0899167" lon="15.71715"><ele>261.0</ele><time>2026-04-24T13:45:42.373Z</time></trkpt><trkpt lat="38.0899583" lon="15.717055"><ele>261.0</ele><time>2026-04-24T13:45:43.373Z</time></trkpt><trkpt lat="38.08997" lon="15.7169517"><ele>261.0</ele><time>2026-04-24T13:45:44.373Z</time></trkpt><trkpt lat="38.0899533" lon="15.7168367"><ele>261.0</ele><time>2026-04-24T13:45:45.372Z</time></trkpt><trkpt lat="38.0899183" lon="15.7167233"><ele>261.0</ele><time>2026-04-24T13:45:46.372Z</time></trkpt><trkpt lat="38.089875" lon="15.7166033"><ele>258.6</ele><time>2026-04-24T13:45:47.372Z</time></trkpt><trkpt lat="38.0898417" lon="15.7164733"><ele>256.20000000000005</ele><time>2026-04-24T13:45:48.373Z</time></trkpt><trkpt lat="38.089815" lon="15.7163417"><ele>253.79999999999998</ele><time>2026-04-24T13:45:49.373Z</time></trkpt><trkpt lat="38.0897917" lon="15.716215"><ele>251.39999999999998</ele><time>2026-04-24T13:45:50.373Z</time></trkpt><trkpt lat="38.0897467" lon="15.716095"><ele>249.0</ele><time>2026-04-24T13:45:51.373Z</time></trkpt><trkpt lat="38.0896883" lon="15.715985"><ele>247.25</ele><time>2026-04-24T13:45:52.372Z</time></trkpt><trkpt lat="38.089615" lon="15.7158817"><ele>245.5</ele><time>2026-04-24T13:45:53.372Z</time></trkpt><trkpt lat="38.0895467" lon="15.7157783"><ele>243.75</ele><time>2026-04-24T13:45:54.372Z</time></trkpt><trkpt lat="38.08948" lon="15.7156583"><ele>242.0</ele><time>2026-04-24T13:45:55.372Z</time></trkpt><trkpt lat="38.08941" lon="15.7155367"><ele>242.0</ele><time>2026-04-24T13:45:56.372Z</time></trkpt><trkpt lat="38.0893483" lon="15.7154167"><ele>242.0</ele><time>2026-04-24T13:45:57.373Z</time></trkpt><trkpt lat="38.089295" lon="15.715295"><ele>242.0</ele><time>2026-04-24T13:45:58.373Z</time></trkpt><trkpt lat="38.0892533" lon="15.7151833"><ele>242.0</ele><time>2026-04-24T13:45:59.373Z</time></trkpt><trkpt lat="38.0892383" lon="15.71506"><ele>242.0</ele><time>2026-04-24T13:46:00.372Z</time></trkpt><trkpt lat="38.0892233" lon="15.714935"><ele>243.0</ele><time>2026-04-24T13:46:01.372Z</time></trkpt><trkpt lat="38.0891867" lon="15.714835"><ele>244.0</ele><time>2026-04-24T13:46:02.372Z</time></trkpt><trkpt lat="38.0891267" lon="15.7147367"><ele>245.0</ele><time>2026-04-24T13:46:03.373Z</time></trkpt><trkpt lat="38.0890733" lon="15.7146467"><ele>246.0</ele><time>2026-04-24T13:46:04.373Z</time></trkpt><trkpt lat="38.0890133" lon="15.7145367"><ele>247.0</ele><time>2026-04-24T13:46:05.373Z</time></trkpt><trkpt lat="38.0889817" lon="15.7144417"><ele>243.6</ele><time>2026-04-24T13:46:06.373Z</time></trkpt><trkpt lat="38.0889233" lon="15.71434"><ele>240.2</ele><time>2026-04-24T13:46:07.372Z</time></trkpt><trkpt lat="38.08886" lon="15.7142433"><ele>236.8</ele><time>2026-04-24T13:46:08.373Z</time></trkpt><trkpt lat="38.0887883" lon="15.7141533"><ele>233.4</ele><time>2026-04-24T13:46:09.373Z</time></trkpt><trkpt lat="38.0887133" lon="15.714065"><ele>230.0</ele><time>2026-04-24T13:46:10.373Z</time></trkpt><trkpt lat="38.0886467" lon="15.7139683"><ele>230.0</ele><time>2026-04-24T13:46:11.373Z</time></trkpt><trkpt lat="38.0885833" lon="15.7138533"><ele>230.0</ele><time>2026-04-24T13:46:12.373Z</time></trkpt><trkpt lat="38.0885383" lon="15.7137417"><ele>230.0</ele><time>2026-04-24T13:46:13.373Z</time></trkpt><trkpt lat="38.08851" lon="15.71363"><ele>230.0</ele><time>2026-04-24T13:46:14.373Z</time></trkpt><trkpt lat="38.0885083" lon="15.71353"><ele>230.0</ele><time>2026-04-24T13:46:15.373Z</time></trkpt><trkpt lat="38.0885633" lon="15.713425"><ele>229.6</ele><time>2026-04-24T13:46:16.373Z</time></trkpt><trkpt lat="38.0886367" lon="15.71335"><ele>229.2</ele><time>2026-04-24T13:46:17.372Z</time></trkpt><trkpt lat="38.0887217" lon="15.7132867"><ele>228.8</ele><time>2026-04-24T13:46:18.372Z</time></trkpt><trkpt lat="38.088815" lon="15.713235"><ele>228.4</ele><time>2026-04-24T13:46:19.372Z</time></trkpt><trkpt lat="38.0889083" lon="15.7131683"><ele>228.0</ele><time>2026-04-24T13:46:20.373Z</time></trkpt><trkpt lat="38.088975" lon="15.713085"><ele>228.0</ele><time>2026-04-24T13:46:21.372Z</time></trkpt><trkpt lat="38.08902" lon="15.7129767"><ele>228.0</ele><time>2026-04-24T13:46:22.372Z</time></trkpt><trkpt lat="38.0890333" lon="15.712875"><ele>228.0</ele><time>2026-04-24T13:46:23.373Z</time></trkpt><trkpt lat="38.0890267" lon="15.7127533"><ele>228.0</ele><time>2026-04-24T13:46:24.372Z</time></trkpt><trkpt lat="38.0890117" lon="15.7126267"><ele>228.0</ele><time>2026-04-24T13:46:25.373Z</time></trkpt><trkpt lat="38.089005" lon="15.7124967"><ele>227.25</ele><time>2026-04-24T13:46:26.373Z</time></trkpt><trkpt lat="38.0890233" lon="15.7123617"><ele>226.5</ele><time>2026-04-24T13:46:27.373Z</time></trkpt><trkpt lat="38.089055" lon="15.71222"><ele>225.75</ele><time>2026-04-24T13:46:28.372Z</time></trkpt><trkpt lat="38.089085" lon="15.7120817"><ele>225.0</ele><time>2026-04-24T13:46:29.373Z</time></trkpt><trkpt lat="38.0891167" lon="15.71194"><ele>228.0</ele><time>2026-04-24T13:46:30.372Z</time></trkpt><trkpt lat="38.0891417" lon="15.7118017"><ele>231.0</ele><time>2026-04-24T13:46:31.373Z</time></trkpt><trkpt lat="38.0891617" lon="15.71167"><ele>234.0</ele><time>2026-04-24T13:46:32.372Z</time></trkpt><trkpt lat="38.0891683" lon="15.71153"><ele>237.0</ele><time>2026-04-24T13:46:33.372Z</time></trkpt><trkpt lat="38.08917" lon="15.711375"><ele>237.0</ele><time>2026-04-24T13:46:34.373Z</time></trkpt><trkpt lat="38.0891733" lon="15.7112167"><ele>237.0</ele><time>2026-04-24T13:46:35.373Z</time></trkpt><trkpt lat="38.0891817" lon="15.711045"><ele>237.0</ele><time>2026-04-24T13:46:36.372Z</time></trkpt><trkpt lat="38.0891767" lon="15.7108667"><ele>237.0</ele><time>2026-04-24T13:46:37.373Z</time></trkpt><trkpt lat="38.0891633" lon="15.710675"><ele>234.33333333333331</ele><time>2026-04-24T13:46:38.372Z</time></trkpt><trkpt lat="38.089155" lon="15.7104867"><ele>231.66666666666666</ele><time>2026-04-24T13:46:39.372Z</time></trkpt><trkpt lat="38.0891567" lon="15.7102917"><ele>229.0</ele><time>2026-04-24T13:46:40.372Z</time></trkpt><trkpt lat="38.0891617" lon="15.7101033"><ele>226.0</ele><time>2026-04-24T13:46:41.372Z</time></trkpt><trkpt lat="38.08916" lon="15.7098983"><ele>223.0</ele><time>2026-04-24T13:46:42.373Z</time></trkpt><trkpt lat="38.08915" lon="15.7097"><ele>220.0</ele><time>2026-04-24T13:46:43.372Z</time></trkpt><trkpt lat="38.08914" lon="15.7094933"><ele>219.33333333333331</ele><time>2026-04-24T13:46:44.373Z</time></trkpt><trkpt lat="38.0891333" lon="15.7092883"><ele>218.66666666666669</ele><time>2026-04-24T13:46:45.372Z</time></trkpt><trkpt lat="38.0891317" lon="15.7090867"><ele>218.0</ele><time>2026-04-24T13:46:46.372Z</time></trkpt><trkpt lat="38.08913" lon="15.708895"><ele>218.0</ele><time>2026-04-24T13:46:47.372Z</time></trkpt><trkpt lat="38.0891333" lon="15.7087083"><ele>218.0</ele><time>2026-04-24T13:46:48.372Z</time></trkpt><trkpt lat="38.0891317" lon="15.7085283"><ele>218.0</ele><time>2026-04-24T13:46:49.373Z</time></trkpt><trkpt lat="38.08913" lon="15.708355"><ele>218.0</ele><time>2026-04-24T13:46:50.373Z</time></trkpt><trkpt lat="38.0891367" lon="15.7081867"><ele>220.5</ele><time>2026-04-24T13:46:51.372Z</time></trkpt><trkpt lat="38.0891417" lon="15.7080133"><ele>223.0</ele><time>2026-04-24T13:46:52.372Z</time></trkpt><trkpt lat="38.089135" lon="15.70785"><ele>225.5</ele><time>2026-04-24T13:46:53.372Z</time></trkpt><trkpt lat="38.0891333" lon="15.7076883"><ele>228.0</ele><time>2026-04-24T13:46:54.373Z</time></trkpt><trkpt lat="38.0891217" lon="15.7075433"><ele>228.8</ele><time>2026-04-24T13:46:55.373Z</time></trkpt><trkpt lat="38.089095" lon="15.7074117"><ele>229.60000000000002</ele><time>2026-04-24T13:46:56.372Z</time></trkpt><trkpt lat="38.0890467" lon="15.70729"><ele>230.39999999999998</ele><time>2026-04-24T13:46:57.373Z</time></trkpt><trkpt lat="38.0889733" lon="15.70718"><ele>231.2</ele><time>2026-04-24T13:46:58.373Z</time></trkpt><trkpt lat="38.0888917" lon="15.707075"><ele>232.0</ele><time>2026-04-24T13:46:59.373Z</time></trkpt><trkpt lat="38.0888117" lon="15.70698"><ele>228.0</ele><time>2026-04-24T13:47:00.373Z</time></trkpt><trkpt lat="38.08874" lon="15.7068767"><ele>224.0</ele><time>2026-04-24T13:47:01.372Z</time></trkpt><trkpt lat="38.0886933" lon="15.7067617"><ele>220.0</ele><time>2026-04-24T13:47:02.372Z</time></trkpt><trkpt lat="38.088665" lon="15.7066317"><ele>216.0</ele><time>2026-04-24T13:47:03.372Z</time></trkpt><trkpt lat="38.0886533" lon="15.7064917"><ele>212.0</ele><time>2026-04-24T13:47:04.372Z</time></trkpt><trkpt lat="38.0886467" lon="15.7063417"><ele>212.0</ele><time>2026-04-24T13:47:05.373Z</time></trkpt><trkpt lat="38.0886383" lon="15.7061917"><ele>212.0</ele><time>2026-04-24T13:47:06.373Z</time></trkpt><trkpt lat="38.08863" lon="15.7060467"><ele>212.0</ele><time>2026-04-24T13:47:07.372Z</time></trkpt><trkpt lat="38.0886233" lon="15.70592"><ele>212.0</ele><time>2026-04-24T13:47:08.373Z</time></trkpt><trkpt lat="38.0886433" lon="15.705805"><ele>212.0</ele><time>2026-04-24T13:47:09.373Z</time></trkpt><trkpt lat="38.0887017" lon="15.7057033"><ele>211.2</ele><time>2026-04-24T13:47:10.373Z</time></trkpt><trkpt lat="38.08877" lon="15.7056233"><ele>210.39999999999998</ele><time>2026-04-24T13:47:11.372Z</time></trkpt><trkpt lat="38.0888467" lon="15.7055383"><ele>209.60000000000002</ele><time>2026-04-24T13:47:12.372Z</time></trkpt><trkpt lat="38.0889067" lon="15.70544"><ele>208.8</ele><time>2026-04-24T13:47:13.372Z</time></trkpt><trkpt lat="38.0889417" lon="15.705305"><ele>208.0</ele><time>2026-04-24T13:47:14.373Z</time></trkpt><trkpt lat="38.0889433" lon="15.7051567"><ele>207.5</ele><time>2026-04-24T13:47:15.373Z</time></trkpt><trkpt lat="38.0889317" lon="15.705"><ele>207.0</ele><time>2026-04-24T13:47:16.372Z</time></trkpt><trkpt lat="38.08891" lon="15.70482"><ele>206.5</ele><time>2026-04-24T13:47:17.372Z</time></trkpt><trkpt lat="38.08887" lon="15.7046583"><ele>206.0</ele><time>2026-04-24T13:47:18.372Z</time></trkpt><trkpt lat="38.0888317" lon="15.704485"><ele>205.75</ele><time>2026-04-24T13:47:19.373Z</time></trkpt><trkpt lat="38.088785" lon="15.7043033"><ele>205.5</ele><time>2026-04-24T13:47:20.373Z</time></trkpt><trkpt lat="38.088735" lon="15.7041283"><ele>205.25</ele><time>2026-04-24T13:47:21.372Z</time></trkpt><trkpt lat="38.088695" lon="15.70395"><ele>205.0</ele><time>2026-04-24T13:47:22.373Z</time></trkpt><trkpt lat="38.08866" lon="15.7037633"><ele>205.0</ele><time>2026-04-24T13:47:23.372Z</time></trkpt><trkpt lat="38.0886283" lon="15.7035883"><ele>205.0</ele><time>2026-04-24T13:47:24.373Z</time></trkpt><trkpt lat="38.088595" lon="15.7034067"><ele>205.0</ele><time>2026-04-24T13:47:25.372Z</time></trkpt><trkpt lat="38.088575" lon="15.70322"><ele>205.0</ele><time>2026-04-24T13:47:26.372Z</time></trkpt><trkpt lat="38.0885467" lon="15.7030417"><ele>204.75</ele><time>2026-04-24T13:47:27.372Z</time></trkpt><trkpt lat="38.088525" lon="15.7028683"><ele>204.5</ele><time>2026-04-24T13:47:28.373Z</time></trkpt><trkpt lat="38.0885183" lon="15.7026783"><ele>204.25</ele><time>2026-04-24T13:47:29.372Z</time></trkpt><trkpt lat="38.08853" lon="15.7025033"><ele>204.0</ele><time>2026-04-24T13:47:30.373Z</time></trkpt><trkpt lat="38.0885667" lon="15.7023317"><ele>202.5</ele><time>2026-04-24T13:47:31.372Z</time></trkpt><trkpt lat="38.0886017" lon="15.702145"><ele>201.0</ele><time>2026-04-24T13:47:32.372Z</time></trkpt><trkpt lat="38.0886317" lon="15.70197"><ele>199.5</ele><time>2026-04-24T13:47:33.372Z</time></trkpt><trkpt lat="38.0886383" lon="15.701815"><ele>198.0</ele><time>2026-04-24T13:47:34.372Z</time></trkpt><trkpt lat="38.088635" lon="15.70166"><ele>198.0</ele><time>2026-04-24T13:47:35.373Z</time></trkpt><trkpt lat="38.0886217" lon="15.7014933"><ele>198.0</ele><time>2026-04-24T13:47:36.372Z</time></trkpt><trkpt lat="38.0886083" lon="15.701325"><ele>198.0</ele><time>2026-04-24T13:47:37.372Z</time></trkpt><trkpt lat="38.0885967" lon="15.7011517"><ele>198.0</ele><time>2026-04-24T13:47:38.372Z</time></trkpt><trkpt lat="38.0885883" lon="15.7009767"><ele>198.0</ele><time>2026-04-24T13:47:39.372Z</time></trkpt><trkpt lat="38.0885817" lon="15.7008083"><ele>198.0</ele><time>2026-04-24T13:47:40.373Z</time></trkpt><trkpt lat="38.0885767" lon="15.7006333"><ele>198.0</ele><time>2026-04-24T13:47:41.373Z</time></trkpt><trkpt lat="38.0885683" lon="15.7004583"><ele>198.0</ele><time>2026-04-24T13:47:42.372Z</time></trkpt><trkpt lat="38.0885617" lon="15.70028"><ele>196.75</ele><time>2026-04-24T13:47:43.372Z</time></trkpt><trkpt lat="38.088555" lon="15.7001033"><ele>195.5</ele><time>2026-04-24T13:47:44.372Z</time></trkpt><trkpt lat="38.088555" lon="15.6999267"><ele>194.25</ele><time>2026-04-24T13:47:45.372Z</time></trkpt><trkpt lat="38.0885767" lon="15.6997633"><ele>193.0</ele><time>2026-04-24T13:47:46.372Z</time></trkpt><trkpt lat="38.0886033" lon="15.6995967"><ele>193.0</ele><time>2026-04-24T13:47:47.372Z</time></trkpt><trkpt lat="38.0886367" lon="15.69943"><ele>193.0</ele><time>2026-04-24T13:47:48.372Z</time></trkpt><trkpt lat="38.0886733" lon="15.6992683"><ele>193.0</ele><time>2026-04-24T13:47:49.372Z</time></trkpt><trkpt lat="38.0887183" lon="15.6991183"><ele>193.0</ele><time>2026-04-24T13:47:50.372Z</time></trkpt><trkpt lat="38.088765" lon="15.698985"><ele>192.33333333333331</ele><time>2026-04-24T13:47:51.372Z</time></trkpt><trkpt lat="38.0888267" lon="15.698875"><ele>191.66666666666666</ele><time>2026-04-24T13:47:52.373Z</time></trkpt><trkpt lat="38.0888883" lon="15.6987683"><ele>191.0</ele><time>2026-04-24T13:47:53.373Z</time></trkpt><trkpt lat="38.0889333" lon="15.698675"><ele>190.33333333333331</ele><time>2026-04-24T13:47:54.372Z</time></trkpt><trkpt lat="38.08895" lon="15.698585"><ele>189.66666666666666</ele><time>2026-04-24T13:47:55.372Z</time></trkpt><trkpt lat="38.088935" lon="15.6985"><ele>189.0</ele><time>2026-04-24T13:47:56.372Z</time></trkpt><trkpt lat="38.088875" lon="15.6984133"><ele>189.0</ele><time>2026-04-24T13:47:58.373Z</time></trkpt><trkpt lat="38.0887767" lon="15.69836"><ele>189.0</ele><time>2026-04-24T13:48:16.372Z</time></trkpt><trkpt lat="38.08867" lon="15.6982567"><ele>189.0</ele><time>2026-04-24T13:48:18.372Z</time></trkpt><trkpt lat="38.0886083" lon="15.6981817"><ele>189.0</ele><time>2026-04-24T13:48:19.372Z</time></trkpt><trkpt lat="38.08856" lon="15.6980867"><ele>189.0</ele><time>2026-04-24T13:48:20.372Z</time></trkpt><trkpt lat="38.0885217" lon="15.6979733"><ele>189.0</ele><time>2026-04-24T13:48:21.372Z</time></trkpt><trkpt lat="38.088495" lon="15.6978433"><ele>189.0</ele><time>2026-04-24T13:48:22.372Z</time></trkpt><trkpt lat="38.088475" lon="15.697705"><ele>189.0</ele><time>2026-04-24T13:48:23.373Z</time></trkpt><trkpt lat="38.0884533" lon="15.697545"><ele>189.0</ele><time>2026-04-24T13:48:24.373Z</time></trkpt><trkpt lat="38.0884117" lon="15.6973767"><ele>190.0</ele><time>2026-04-24T13:48:25.372Z</time></trkpt><trkpt lat="38.0883433" lon="15.6971883"><ele>191.0</ele><time>2026-04-24T13:48:26.372Z</time></trkpt><trkpt lat="38.08827" lon="15.6970233"><ele>192.0</ele><time>2026-04-24T13:48:27.372Z</time></trkpt><trkpt lat="38.0882283" lon="15.6968683"><ele>193.0</ele><time>2026-04-24T13:48:28.373Z</time></trkpt><trkpt lat="38.088205" lon="15.6967017"><ele>194.75</ele><time>2026-04-24T13:48:29.373Z</time></trkpt><trkpt lat="38.0882283" lon="15.6965267"><ele>196.5</ele><time>2026-04-24T13:48:30.373Z</time></trkpt><trkpt lat="38.0882567" lon="15.6963683"><ele>198.25</ele><time>2026-04-24T13:48:31.372Z</time></trkpt><trkpt lat="38.088275" lon="15.696235"><ele>200.0</ele><time>2026-04-24T13:48:32.372Z</time></trkpt><trkpt lat="38.0882767" lon="15.696125"><ele>196.00000000000003</ele><time>2026-04-24T13:48:33.373Z</time></trkpt><trkpt lat="38.0882567" lon="15.6960233"><ele>192.0</ele><time>2026-04-24T13:48:34.373Z</time></trkpt><trkpt lat="38.0882217" lon="15.6959317"><ele>188.0</ele><time>2026-04-24T13:48:35.373Z</time></trkpt><trkpt lat="38.0881583" lon="15.6958533"><ele>184.0</ele><time>2026-04-24T13:48:36.372Z</time></trkpt><trkpt lat="38.088095" lon="15.69578"><ele>180.0</ele><time>2026-04-24T13:48:37.373Z</time></trkpt><trkpt lat="38.0880433" lon="15.6956833"><ele>176.0</ele><time>2026-04-24T13:48:38.373Z</time></trkpt><trkpt lat="38.0880167" lon="15.6955817"><ele>176.0</ele><time>2026-04-24T13:48:39.372Z</time></trkpt><trkpt lat="38.0880167" lon="15.69548"><ele>176.0</ele><time>2026-04-24T13:48:40.372Z</time></trkpt><trkpt lat="38.0880433" lon="15.6953817"><ele>176.0</ele><time>2026-04-24T13:48:41.372Z</time></trkpt><trkpt lat="38.0880583" lon="15.6952733"><ele>176.0</ele><time>2026-04-24T13:48:42.372Z</time></trkpt><trkpt lat="38.088045" lon="15.69516"><ele>176.0</ele><time>2026-04-24T13:48:43.373Z</time></trkpt><trkpt lat="38.08799" lon="15.69505"><ele>176.0</ele><time>2026-04-24T13:48:44.372Z</time></trkpt><trkpt lat="38.08791" lon="15.6949267"><ele>176.20000000000002</ele><time>2026-04-24T13:48:45.372Z</time></trkpt><trkpt lat="38.08784" lon="15.6948033"><ele>176.4</ele><time>2026-04-24T13:48:46.373Z</time></trkpt><trkpt lat="38.0877683" lon="15.6946967"><ele>176.6</ele><time>2026-04-24T13:48:47.373Z</time></trkpt><trkpt lat="38.08771" lon="15.6945883"><ele>176.8</ele><time>2026-04-24T13:48:48.373Z</time></trkpt><trkpt lat="38.087675" lon="15.694485"><ele>177.0</ele><time>2026-04-24T13:48:49.373Z</time></trkpt><trkpt lat="38.08767" lon="15.6943867"><ele>177.39999999999998</ele><time>2026-04-24T13:48:50.373Z</time></trkpt><trkpt lat="38.0876933" lon="15.69428"><ele>177.79999999999998</ele><time>2026-04-24T13:48:51.373Z</time></trkpt><trkpt lat="38.087745" lon="15.6941567"><ele>178.2</ele><time>2026-04-24T13:48:52.373Z</time></trkpt><trkpt lat="38.08781" lon="15.6940483"><ele>178.6</ele><time>2026-04-24T13:48:53.373Z</time></trkpt><trkpt lat="38.0878717" lon="15.6939217"><ele>179.0</ele><time>2026-04-24T13:48:54.372Z</time></trkpt><trkpt lat="38.0879017" lon="15.6938033"><ele>179.0</ele><time>2026-04-24T13:48:55.373Z</time></trkpt><trkpt lat="38.0878883" lon="15.6936817"><ele>179.0</ele><time>2026-04-24T13:48:56.373Z</time></trkpt><trkpt lat="38.0878567" lon="15.69356"><ele>179.0</ele><time>2026-04-24T13:48:57.372Z</time></trkpt><trkpt lat="38.0878183" lon="15.6934467"><ele>179.0</ele><time>2026-04-24T13:48:58.372Z</time></trkpt><trkpt lat="38.0877867" lon="15.6933483"><ele>179.0</ele><time>2026-04-24T13:48:59.372Z</time></trkpt><trkpt lat="38.087745" lon="15.6932567"><ele>179.0</ele><time>2026-04-24T13:49:00.372Z</time></trkpt><trkpt lat="38.087695" lon="15.6931583"><ele>179.0</ele><time>2026-04-24T13:49:01.373Z</time></trkpt><trkpt lat="38.08764" lon="15.6930467"><ele>179.0</ele><time>2026-04-24T13:49:02.372Z</time></trkpt><trkpt lat="38.0875967" lon="15.69293"><ele>179.0</ele><time>2026-04-24T13:49:03.372Z</time></trkpt><trkpt lat="38.08758" lon="15.69279"><ele>179.0</ele><time>2026-04-24T13:49:04.372Z</time></trkpt><trkpt lat="38.0875817" lon="15.6926633"><ele>177.6</ele><time>2026-04-24T13:49:05.372Z</time></trkpt><trkpt lat="38.0876083" lon="15.69255"><ele>176.2</ele><time>2026-04-24T13:49:06.372Z</time></trkpt><trkpt lat="38.08767" lon="15.69245"><ele>174.79999999999998</ele><time>2026-04-24T13:49:07.372Z</time></trkpt><trkpt lat="38.08774" lon="15.692375"><ele>173.39999999999998</ele><time>2026-04-24T13:49:08.372Z</time></trkpt><trkpt lat="38.08782" lon="15.6923117"><ele>172.0</ele><time>2026-04-24T13:49:09.372Z</time></trkpt><trkpt lat="38.0878983" lon="15.6922683"><ele>172.0</ele><time>2026-04-24T13:49:10.373Z</time></trkpt><trkpt lat="38.0879833" lon="15.6922467"><ele>172.0</ele><time>2026-04-24T13:49:11.373Z</time></trkpt><trkpt lat="38.0880783" lon="15.69224"><ele>172.0</ele><time>2026-04-24T13:49:12.372Z</time></trkpt><trkpt lat="38.0881833" lon="15.6922167"><ele>172.0</ele><time>2026-04-24T13:49:13.373Z</time></trkpt><trkpt lat="38.0882833" lon="15.6921767"><ele>172.0</ele><time>2026-04-24T13:49:14.372Z</time></trkpt><trkpt lat="38.088375" lon="15.6921183"><ele>172.8</ele><time>2026-04-24T13:49:15.372Z</time></trkpt><trkpt lat="38.0884733" lon="15.6920617"><ele>173.6</ele><time>2026-04-24T13:49:16.373Z</time></trkpt><trkpt lat="38.0885617" lon="15.69202"><ele>174.4</ele><time>2026-04-24T13:49:17.372Z</time></trkpt><trkpt lat="38.0886567" lon="15.6919817"><ele>175.20000000000002</ele><time>2026-04-24T13:49:18.373Z</time></trkpt><trkpt lat="38.0887317" lon="15.6919183"><ele>176.0</ele><time>2026-04-24T13:49:19.372Z</time></trkpt><trkpt lat="38.088775" lon="15.691835"><ele>176.0</ele><time>2026-04-24T13:49:20.373Z</time></trkpt><trkpt lat="38.0887833" lon="15.6917167"><ele>176.0</ele><time>2026-04-24T13:49:21.372Z</time></trkpt><trkpt lat="38.0887517" lon="15.6916083"><ele>176.0</ele><time>2026-04-24T13:49:22.373Z</time></trkpt><trkpt lat="38.0886933" lon="15.691505"><ele>176.0</ele><time>2026-04-24T13:49:23.373Z</time></trkpt><trkpt lat="38.0886117" lon="15.6914267"><ele>176.0</ele><time>2026-04-24T13:49:24.373Z</time></trkpt><trkpt lat="38.0885417" lon="15.6913383"><ele>176.0</ele><time>2026-04-24T13:49:25.373Z</time></trkpt><trkpt lat="38.0884683" lon="15.6912517"><ele>176.0</ele><time>2026-04-24T13:49:26.373Z</time></trkpt><trkpt lat="38.0884017" lon="15.6911567"><ele>176.0</ele><time>2026-04-24T13:49:27.373Z</time></trkpt><trkpt lat="38.0883417" lon="15.691065"><ele>176.0</ele><time>2026-04-24T13:49:28.373Z</time></trkpt><trkpt lat="38.0882983" lon="15.6909567"><ele>176.0</ele><time>2026-04-24T13:49:29.373Z</time></trkpt><trkpt lat="38.0882783" lon="15.6908483"><ele>176.0</ele><time>2026-04-24T13:49:30.373Z</time></trkpt><trkpt lat="38.0882733" lon="15.6907217"><ele>176.0</ele><time>2026-04-24T13:49:31.372Z</time></trkpt><trkpt lat="38.0882883" lon="15.6906"><ele>176.0</ele><time>2026-04-24T13:49:32.373Z</time></trkpt><trkpt lat="38.08831" lon="15.6904767"><ele>176.0</ele><time>2026-04-24T13:49:33.373Z</time></trkpt><trkpt lat="38.0883267" lon="15.69034"><ele>176.0</ele><time>2026-04-24T13:49:34.373Z</time></trkpt><trkpt lat="38.0883383" lon="15.69021"><ele>175.20000000000002</ele><time>2026-04-24T13:49:35.372Z</time></trkpt><trkpt lat="38.08835" lon="15.6900633"><ele>174.4</ele><time>2026-04-24T13:49:36.373Z</time></trkpt><trkpt lat="38.0883583" lon="15.6899317"><ele>173.6</ele><time>2026-04-24T13:49:37.373Z</time></trkpt><trkpt lat="38.088375" lon="15.6897933"><ele>172.8</ele><time>2026-04-24T13:49:38.372Z</time></trkpt><trkpt lat="38.08839" lon="15.6896633"><ele>172.0</ele><time>2026-04-24T13:49:39.372Z</time></trkpt><trkpt lat="38.0884133" lon="15.6895383"><ele>169.4</ele><time>2026-04-24T13:49:40.373Z</time></trkpt><trkpt lat="38.0884417" lon="15.6894183"><ele>166.79999999999998</ele><time>2026-04-24T13:49:41.372Z</time></trkpt><trkpt lat="38.08849" lon="15.6893083"><ele>164.2</ele><time>2026-04-24T13:49:42.373Z</time></trkpt><trkpt lat="38.0885567" lon="15.6892067"><ele>161.6</ele><time>2026-04-24T13:49:43.373Z</time></trkpt><trkpt lat="38.0886267" lon="15.689125"><ele>159.0</ele><time>2026-04-24T13:49:44.373Z</time></trkpt><trkpt lat="38.088695" lon="15.6890333"><ele>159.0</ele><time>2026-04-24T13:49:45.373Z</time></trkpt><trkpt lat="38.08874" lon="15.6889267"><ele>159.0</ele><time>2026-04-24T13:49:46.373Z</time></trkpt><trkpt lat="38.08878" lon="15.6888217"><ele>159.0</ele><time>2026-04-24T13:49:47.372Z</time></trkpt><trkpt lat="38.0888417" lon="15.6887233"><ele>159.0</ele><time>2026-04-24T13:49:48.373Z</time></trkpt><trkpt lat="38.088915" lon="15.6886433"><ele>159.0</ele><time>2026-04-24T13:49:49.372Z</time></trkpt><trkpt lat="38.088995" lon="15.68859"><ele>157.0</ele><time>2026-04-24T13:49:50.372Z</time></trkpt><trkpt lat="38.0890833" lon="15.6885317"><ele>155.0</ele><time>2026-04-24T13:49:51.373Z</time></trkpt><trkpt lat="38.0891667" lon="15.6884633"><ele>153.0</ele><time>2026-04-24T13:49:52.372Z</time></trkpt><trkpt lat="38.0892283" lon="15.6883783"><ele>151.0</ele><time>2026-04-24T13:49:53.373Z</time></trkpt><trkpt lat="38.0892867" lon="15.6882967"><ele>149.0</ele><time>2026-04-24T13:49:54.372Z</time></trkpt><trkpt lat="38.0893183" lon="15.688205"><ele>149.6</ele><time>2026-04-24T13:49:55.372Z</time></trkpt><trkpt lat="38.0893317" lon="15.6880883"><ele>150.2</ele><time>2026-04-24T13:49:56.372Z</time></trkpt><trkpt lat="38.089345" lon="15.6879767"><ele>150.79999999999998</ele><time>2026-04-24T13:49:57.372Z</time></trkpt><trkpt lat="38.0893733" lon="15.6878567"><ele>151.4</ele><time>2026-04-24T13:49:58.372Z</time></trkpt><trkpt lat="38.0894" lon="15.6877517"><ele>152.0</ele><time>2026-04-24T13:49:59.372Z</time></trkpt><trkpt lat="38.0894267" lon="15.6876433"><ele>152.0</ele><time>2026-04-24T13:50:00.372Z</time></trkpt><trkpt lat="38.0894483" lon="15.6875417"><ele>152.0</ele><time>2026-04-24T13:50:01.372Z</time></trkpt><trkpt lat="38.0894733" lon="15.6874333"><ele>152.0</ele><time>2026-04-24T13:50:02.373Z</time></trkpt><trkpt lat="38.0894983" lon="15.6873283"><ele>152.0</ele><time>2026-04-24T13:50:03.373Z</time></trkpt><trkpt lat="38.0895333" lon="15.68724"><ele>152.0</ele><time>2026-04-24T13:50:04.372Z</time></trkpt><trkpt lat="38.0895783" lon="15.6871533"><ele>152.0</ele><time>2026-04-24T13:50:05.372Z</time></trkpt><trkpt lat="38.0896483" lon="15.6871083"><ele>152.0</ele><time>2026-04-24T13:50:06.372Z</time></trkpt><trkpt lat="38.0897467" lon="15.6870833"><ele>152.0</ele><time>2026-04-24T13:50:07.373Z</time></trkpt><trkpt lat="38.0898533" lon="15.6870733"><ele>152.0</ele><time>2026-04-24T13:50:08.372Z</time></trkpt><trkpt lat="38.0899667" lon="15.68705"><ele>152.0</ele><time>2026-04-24T13:50:09.372Z</time></trkpt><trkpt lat="38.0900733" lon="15.6870183"><ele>152.0</ele><time>2026-04-24T13:50:10.372Z</time></trkpt><trkpt lat="38.0901667" lon="15.6869817"><ele>151.79999999999998</ele><time>2026-04-24T13:50:11.372Z</time></trkpt><trkpt lat="38.09025" lon="15.6869217"><ele>151.6</ele><time>2026-04-24T13:50:12.373Z</time></trkpt><trkpt lat="38.090325" lon="15.686845"><ele>151.39999999999998</ele><time>2026-04-24T13:50:13.373Z</time></trkpt><trkpt lat="38.0903817" lon="15.6867533"><ele>151.2</ele><time>2026-04-24T13:50:14.372Z</time></trkpt><trkpt lat="38.090435" lon="15.6866533"><ele>151.0</ele><time>2026-04-24T13:50:15.373Z</time></trkpt><trkpt lat="38.090495" lon="15.6865583"><ele>151.0</ele><time>2026-04-24T13:50:16.372Z</time></trkpt><trkpt lat="38.0905683" lon="15.686475"><ele>151.0</ele><time>2026-04-24T13:50:17.372Z</time></trkpt><trkpt lat="38.0906517" lon="15.686405"><ele>151.0</ele><time>2026-04-24T13:50:18.372Z</time></trkpt><trkpt lat="38.0907417" lon="15.6863433"><ele>151.0</ele><time>2026-04-24T13:50:19.373Z</time></trkpt><trkpt lat="38.0908383" lon="15.6862817"><ele>151.0</ele><time>2026-04-24T13:50:20.373Z</time></trkpt><trkpt lat="38.0909267" lon="15.686215"><ele>150.8</ele><time>2026-04-24T13:50:21.373Z</time></trkpt><trkpt lat="38.09101" lon="15.6861383"><ele>150.6</ele><time>2026-04-24T13:50:22.373Z</time></trkpt><trkpt lat="38.0910867" lon="15.6860517"><ele>150.4</ele><time>2026-04-24T13:50:23.372Z</time></trkpt><trkpt lat="38.0911617" lon="15.685965"><ele>150.2</ele><time>2026-04-24T13:50:24.372Z</time></trkpt><trkpt lat="38.0912267" lon="15.68586"><ele>150.0</ele><time>2026-04-24T13:50:25.372Z</time></trkpt><trkpt lat="38.0912817" lon="15.68576"><ele>150.0</ele><time>2026-04-24T13:50:26.372Z</time></trkpt><trkpt lat="38.09133" lon="15.685655"><ele>150.0</ele><time>2026-04-24T13:50:27.372Z</time></trkpt><trkpt lat="38.0913567" lon="15.68554"><ele>150.0</ele><time>2026-04-24T13:50:28.372Z</time></trkpt><trkpt lat="38.0913683" lon="15.68544"><ele>150.0</ele><time>2026-04-24T13:50:29.372Z</time></trkpt><trkpt lat="38.0914" lon="15.6853317"><ele>150.0</ele><time>2026-04-24T13:50:30.372Z</time></trkpt><trkpt lat="38.09144" lon="15.6852283"><ele>151.4</ele><time>2026-04-24T13:50:31.372Z</time></trkpt><trkpt lat="38.0914867" lon="15.6851317"><ele>152.8</ele><time>2026-04-24T13:50:32.373Z</time></trkpt><trkpt lat="38.0915483" lon="15.6850333"><ele>154.2</ele><time>2026-04-24T13:50:33.372Z</time></trkpt><trkpt lat="38.0916217" lon="15.6849433"><ele>155.6</ele><time>2026-04-24T13:50:34.373Z</time></trkpt><trkpt lat="38.0917" lon="15.6848617"><ele>157.0</ele><time>2026-04-24T13:50:35.373Z</time></trkpt><trkpt lat="38.0917867" lon="15.68477"><ele>157.0</ele><time>2026-04-24T13:50:36.372Z</time></trkpt><trkpt lat="38.0918683" lon="15.6846817"><ele>157.0</ele><time>2026-04-24T13:50:37.372Z</time></trkpt><trkpt lat="38.0919567" lon="15.6845833"><ele>157.0</ele><time>2026-04-24T13:50:38.372Z</time></trkpt><trkpt lat="38.0920467" lon="15.68448"><ele>157.0</ele><time>2026-04-24T13:50:39.373Z</time></trkpt><trkpt lat="38.0921267" lon="15.6843733"><ele>156.6</ele><time>2026-04-24T13:50:40.373Z</time></trkpt><trkpt lat="38.0922017" lon="15.6842533"><ele>156.2</ele><time>2026-04-24T13:50:41.372Z</time></trkpt><trkpt lat="38.092265" lon="15.68414"><ele>155.8</ele><time>2026-04-24T13:50:42.372Z</time></trkpt><trkpt lat="38.0923183" lon="15.6840417"><ele>155.4</ele><time>2026-04-24T13:50:43.373Z</time></trkpt><trkpt lat="38.0923717" lon="15.68394"><ele>155.0</ele><time>2026-04-24T13:50:44.372Z</time></trkpt><trkpt lat="38.0924267" lon="15.6838417"><ele>155.0</ele><time>2026-04-24T13:50:45.372Z</time></trkpt><trkpt lat="38.092485" lon="15.68376"><ele>155.0</ele><time>2026-04-24T13:50:46.373Z</time></trkpt><trkpt lat="38.0925467" lon="15.68369"><ele>155.0</ele><time>2026-04-24T13:50:47.372Z</time></trkpt><trkpt lat="38.09262" lon="15.6836283"><ele>155.0</ele><time>2026-04-24T13:50:48.373Z</time></trkpt><trkpt lat="38.0926933" lon="15.6836067"><ele>155.0</ele><time>2026-04-24T13:50:49.372Z</time></trkpt><trkpt lat="38.0927733" lon="15.68362"><ele>155.0</ele><time>2026-04-24T13:50:50.372Z</time></trkpt><trkpt lat="38.09285" lon="15.68365"><ele>155.0</ele><time>2026-04-24T13:50:51.372Z</time></trkpt><trkpt lat="38.0929133" lon="15.6836883"><ele>155.0</ele><time>2026-04-24T13:50:52.372Z</time></trkpt><trkpt lat="38.0929733" lon="15.683745"><ele>155.0</ele><time>2026-04-24T13:50:53.372Z</time></trkpt><trkpt lat="38.0930283" lon="15.683825"><ele>155.0</ele><time>2026-04-24T13:50:54.372Z</time></trkpt><trkpt lat="38.0930767" lon="15.6839283"><ele>155.0</ele><time>2026-04-24T13:50:55.372Z</time></trkpt><trkpt lat="38.0931267" lon="15.6840183"><ele>155.0</ele><time>2026-04-24T13:50:56.372Z</time></trkpt><trkpt lat="38.0931717" lon="15.6841217"><ele>155.0</ele><time>2026-04-24T13:50:57.372Z</time></trkpt><trkpt lat="38.0932167" lon="15.6842167"><ele>155.0</ele><time>2026-04-24T13:50:58.372Z</time></trkpt><trkpt lat="38.0932683" lon="15.6843"><ele>155.0</ele><time>2026-04-24T13:50:59.372Z</time></trkpt><trkpt lat="38.0933217" lon="15.6843817"><ele>155.0</ele><time>2026-04-24T13:51:00.372Z</time></trkpt><trkpt lat="38.093365" lon="15.6844467"><ele>155.0</ele><time>2026-04-24T13:51:01.372Z</time></trkpt><trkpt lat="38.09342" lon="15.6844933"><ele>155.0</ele><time>2026-04-24T13:51:02.373Z</time></trkpt><trkpt lat="38.0934883" lon="15.6845"><ele>154.66666666666666</ele><time>2026-04-24T13:51:03.373Z</time></trkpt><trkpt lat="38.0935567" lon="15.6844767"><ele>154.33333333333331</ele><time>2026-04-24T13:51:04.373Z</time></trkpt><trkpt lat="38.0936283" lon="15.6844167"><ele>154.0</ele><time>2026-04-24T13:51:05.372Z</time></trkpt><trkpt lat="38.0936883" lon="15.684315"><ele>153.66666666666666</ele><time>2026-04-24T13:51:06.373Z</time></trkpt><trkpt lat="38.09372" lon="15.6842033"><ele>153.33333333333334</ele><time>2026-04-24T13:51:07.372Z</time></trkpt><trkpt lat="38.0937367" lon="15.68409"><ele>153.0</ele><time>2026-04-24T13:51:08.373Z</time></trkpt><trkpt lat="38.0937483" lon="15.6839717"><ele>153.0</ele><time>2026-04-24T13:51:09.372Z</time></trkpt><trkpt lat="38.0937633" lon="15.6838433"><ele>153.0</ele><time>2026-04-24T13:51:10.372Z</time></trkpt><trkpt lat="38.0937667" lon="15.6837167"><ele>153.0</ele><time>2026-04-24T13:51:11.372Z</time></trkpt><trkpt lat="38.09375" lon="15.6835867"><ele>153.0</ele><time>2026-04-24T13:51:12.372Z</time></trkpt><trkpt lat="38.093725" lon="15.683455"><ele>153.0</ele><time>2026-04-24T13:51:13.372Z</time></trkpt><trkpt lat="38.09369" lon="15.68333"><ele>151.66666666666666</ele><time>2026-04-24T13:51:14.373Z</time></trkpt><trkpt lat="38.0936533" lon="15.6832067"><ele>150.33333333333334</ele><time>2026-04-24T13:51:15.372Z</time></trkpt><trkpt lat="38.09362" lon="15.68309"><ele>149.0</ele><time>2026-04-24T13:51:16.372Z</time></trkpt><trkpt lat="38.09359" lon="15.68298"><ele>147.66666666666669</ele><time>2026-04-24T13:51:17.372Z</time></trkpt><trkpt lat="38.0935617" lon="15.6828833"><ele>146.33333333333334</ele><time>2026-04-24T13:51:18.372Z</time></trkpt><trkpt lat="38.0935433" lon="15.682795"><ele>145.0</ele><time>2026-04-24T13:51:19.373Z</time></trkpt><trkpt lat="38.0935283" lon="15.6827133"><ele>144.16666666666669</ele><time>2026-04-24T13:51:20.372Z</time></trkpt><trkpt lat="38.09354" lon="15.6826283"><ele>143.33333333333334</ele><time>2026-04-24T13:51:21.373Z</time></trkpt><trkpt lat="38.0935767" lon="15.6825417"><ele>142.5</ele><time>2026-04-24T13:51:22.373Z</time></trkpt><trkpt lat="38.093625" lon="15.6824533"><ele>141.66666666666666</ele><time>2026-04-24T13:51:23.372Z</time></trkpt><trkpt lat="38.0936833" lon="15.6823667"><ele>140.83333333333331</ele><time>2026-04-24T13:51:24.372Z</time></trkpt><trkpt lat="38.0937467" lon="15.6822817"><ele>140.0</ele><time>2026-04-24T13:51:25.372Z</time></trkpt><trkpt lat="38.09381" lon="15.6822133"><ele>140.0</ele><time>2026-04-24T13:51:26.372Z</time></trkpt><trkpt lat="38.0938833" lon="15.6821733"><ele>140.0</ele><time>2026-04-24T13:51:27.373Z</time></trkpt><trkpt lat="38.0939583" lon="15.68218"><ele>140.0</ele><time>2026-04-24T13:51:28.373Z</time></trkpt><trkpt lat="38.0940383" lon="15.6822117"><ele>140.0</ele><time>2026-04-24T13:51:29.372Z</time></trkpt><trkpt lat="38.094115" lon="15.682235"><ele>140.0</ele><time>2026-04-24T13:51:30.372Z</time></trkpt><trkpt lat="38.0941817" lon="15.6822383"><ele>140.0</ele><time>2026-04-24T13:51:31.373Z</time></trkpt><trkpt lat="38.09428" lon="15.6821383"><ele>139.5</ele><time>2026-04-24T13:51:33.373Z</time></trkpt><trkpt lat="38.0943217" lon="15.6820567"><ele>139.0</ele><time>2026-04-24T13:51:34.372Z</time></trkpt><trkpt lat="38.0943483" lon="15.68196"><ele>138.5</ele><time>2026-04-24T13:51:35.372Z</time></trkpt><trkpt lat="38.0943833" lon="15.681865"><ele>138.0</ele><time>2026-04-24T13:51:36.372Z</time></trkpt><trkpt lat="38.0944367" lon="15.6817733"><ele>137.5</ele><time>2026-04-24T13:51:37.372Z</time></trkpt><trkpt lat="38.0945083" lon="15.681695"><ele>137.0</ele><time>2026-04-24T13:51:38.372Z</time></trkpt><trkpt lat="38.0945783" lon="15.681625"><ele>137.0</ele><time>2026-04-24T13:51:39.373Z</time></trkpt><trkpt lat="38.0946383" lon="15.68155"><ele>137.0</ele><time>2026-04-24T13:51:40.373Z</time></trkpt><trkpt lat="38.09468" lon="15.6814567"><ele>137.0</ele><time>2026-04-24T13:51:41.372Z</time></trkpt><trkpt lat="38.0947017" lon="15.6813583"><ele>137.0</ele><time>2026-04-24T13:51:42.372Z</time></trkpt><trkpt lat="38.0947017" lon="15.68126"><ele>137.0</ele><time>2026-04-24T13:51:43.372Z</time></trkpt><trkpt lat="38.094685" lon="15.6811517"><ele>137.0</ele><time>2026-04-24T13:51:44.373Z</time></trkpt><trkpt lat="38.09468" lon="15.6810467"><ele>136.16666666666666</ele><time>2026-04-24T13:51:45.372Z</time></trkpt><trkpt lat="38.0947017" lon="15.6809433"><ele>135.33333333333331</ele><time>2026-04-24T13:51:46.373Z</time></trkpt><trkpt lat="38.0947383" lon="15.68085"><ele>134.5</ele><time>2026-04-24T13:51:47.372Z</time></trkpt><trkpt lat="38.0948033" lon="15.6807733"><ele>133.66666666666666</ele><time>2026-04-24T13:51:48.373Z</time></trkpt><trkpt lat="38.094875" lon="15.6807133"><ele>132.83333333333334</ele><time>2026-04-24T13:51:49.372Z</time></trkpt><trkpt lat="38.0949417" lon="15.6806617"><ele>132.0</ele><time>2026-04-24T13:51:50.372Z</time></trkpt><trkpt lat="38.0950083" lon="15.6806033"><ele>132.6</ele><time>2026-04-24T13:51:51.372Z</time></trkpt><trkpt lat="38.0950733" lon="15.6805317"><ele>133.2</ele><time>2026-04-24T13:51:52.373Z</time></trkpt><trkpt lat="38.0951367" lon="15.680445"><ele>133.8</ele><time>2026-04-24T13:51:53.373Z</time></trkpt><trkpt lat="38.0951967" lon="15.680345"><ele>134.4</ele><time>2026-04-24T13:51:54.373Z</time></trkpt><trkpt lat="38.095255" lon="15.6802517"><ele>135.0</ele><time>2026-04-24T13:51:55.372Z</time></trkpt><trkpt lat="38.0953067" lon="15.680155"><ele>135.0</ele><time>2026-04-24T13:51:56.372Z</time></trkpt><trkpt lat="38.0953567" lon="15.6800467"><ele>135.0</ele><time>2026-04-24T13:51:57.373Z</time></trkpt><trkpt lat="38.0953883" lon="15.67992"><ele>135.0</ele><time>2026-04-24T13:51:58.372Z</time></trkpt><trkpt lat="38.0954117" lon="15.67979"><ele>135.0</ele><time>2026-04-24T13:51:59.372Z</time></trkpt><trkpt lat="38.0954233" lon="15.6796633"><ele>135.0</ele><time>2026-04-24T13:52:00.372Z</time></trkpt><trkpt lat="38.0954383" lon="15.67954"><ele>134.16666666666666</ele><time>2026-04-24T13:52:01.372Z</time></trkpt><trkpt lat="38.0954517" lon="15.679415"><ele>133.33333333333334</ele><time>2026-04-24T13:52:02.373Z</time></trkpt><trkpt lat="38.0954583" lon="15.679305"><ele>132.5</ele><time>2026-04-24T13:52:03.372Z</time></trkpt><trkpt lat="38.0954717" lon="15.6792083"><ele>131.66666666666669</ele><time>2026-04-24T13:52:04.372Z</time></trkpt><trkpt lat="38.0955083" lon="15.67911"><ele>130.83333333333334</ele><time>2026-04-24T13:52:05.372Z</time></trkpt><trkpt lat="38.0955583" lon="15.6790317"><ele>130.0</ele><time>2026-04-24T13:52:06.373Z</time></trkpt><trkpt lat="38.095625" lon="15.67896"><ele>130.0</ele><time>2026-04-24T13:52:07.372Z</time></trkpt><trkpt lat="38.0956983" lon="15.67889"><ele>130.0</ele><time>2026-04-24T13:52:08.372Z</time></trkpt><trkpt lat="38.0957717" lon="15.6788183"><ele>130.0</ele><time>2026-04-24T13:52:09.372Z</time></trkpt><trkpt lat="38.0958417" lon="15.67874"><ele>130.0</ele><time>2026-04-24T13:52:10.372Z</time></trkpt><trkpt lat="38.095905" lon="15.6786417"><ele>130.0</ele><time>2026-04-24T13:52:11.373Z</time></trkpt><trkpt lat="38.0959667" lon="15.6785467"><ele>131.66666666666669</ele><time>2026-04-24T13:52:12.373Z</time></trkpt><trkpt lat="38.0960233" lon="15.6784533"><ele>133.33333333333334</ele><time>2026-04-24T13:52:13.373Z</time></trkpt><trkpt lat="38.09608" lon="15.67837"><ele>135.0</ele><time>2026-04-24T13:52:14.373Z</time></trkpt><trkpt lat="38.0961317" lon="15.67828"><ele>136.66666666666666</ele><time>2026-04-24T13:52:15.373Z</time></trkpt><trkpt lat="38.096185" lon="15.6781833"><ele>138.33333333333331</ele><time>2026-04-24T13:52:16.372Z</time></trkpt><trkpt lat="38.0962383" lon="15.6780983"><ele>140.0</ele><time>2026-04-24T13:52:17.372Z</time></trkpt><trkpt lat="38.0962817" lon="15.678005"><ele>140.0</ele><time>2026-04-24T13:52:18.372Z</time></trkpt><trkpt lat="38.0963267" lon="15.6779133"><ele>140.0</ele><time>2026-04-24T13:52:19.372Z</time></trkpt><trkpt lat="38.0963733" lon="15.67782"><ele>140.0</ele><time>2026-04-24T13:52:20.372Z</time></trkpt><trkpt lat="38.0964317" lon="15.6777317"><ele>140.0</ele><time>2026-04-24T13:52:21.372Z</time></trkpt><trkpt lat="38.0964983" lon="15.67765"><ele>140.0</ele><time>2026-04-24T13:52:22.372Z</time></trkpt><trkpt lat="38.0965633" lon="15.6775783"><ele>140.0</ele><time>2026-04-24T13:52:23.372Z</time></trkpt><trkpt lat="38.0966383" lon="15.6775133"><ele>140.5</ele><time>2026-04-24T13:52:24.372Z</time></trkpt><trkpt lat="38.0967" lon="15.67745"><ele>141.0</ele><time>2026-04-24T13:52:25.373Z</time></trkpt><trkpt lat="38.0967583" lon="15.6773917"><ele>141.5</ele><time>2026-04-24T13:52:26.372Z</time></trkpt><trkpt lat="38.0968133" lon="15.6773383"><ele>142.0</ele><time>2026-04-24T13:52:27.372Z</time></trkpt><trkpt lat="38.0968617" lon="15.6772867"><ele>142.5</ele><time>2026-04-24T13:52:28.373Z</time></trkpt><trkpt lat="38.0969367" lon="15.6771667"><ele>143.0</ele><time>2026-04-24T13:52:30.373Z</time></trkpt><trkpt lat="38.09699" lon="15.6770233"><ele>143.0</ele><time>2026-04-24T13:52:32.373Z</time></trkpt><trkpt lat="38.09701" lon="15.6769467"><ele>143.0</ele><time>2026-04-24T13:52:33.372Z</time></trkpt><trkpt lat="38.0970283" lon="15.6768683"><ele>143.0</ele><time>2026-04-24T13:52:34.372Z</time></trkpt><trkpt lat="38.0970667" lon="15.6767117"><ele>143.0</ele><time>2026-04-24T13:52:36.373Z</time></trkpt><trkpt lat="38.0970833" lon="15.6766317"><ele>143.0</ele><time>2026-04-24T13:52:37.373Z</time></trkpt><trkpt lat="38.0970917" lon="15.6765467"><ele>143.0</ele><time>2026-04-24T13:52:38.372Z</time></trkpt><trkpt lat="38.0970917" lon="15.6764567"><ele>141.16666666666666</ele><time>2026-04-24T13:52:39.373Z</time></trkpt><trkpt lat="38.0970883" lon="15.6763633"><ele>139.33333333333331</ele><time>2026-04-24T13:52:40.372Z</time></trkpt><trkpt lat="38.0970883" lon="15.6762683"><ele>137.5</ele><time>2026-04-24T13:52:41.372Z</time></trkpt><trkpt lat="38.097095" lon="15.6761767"><ele>135.66666666666666</ele><time>2026-04-24T13:52:42.372Z</time></trkpt><trkpt lat="38.0970933" lon="15.6760717"><ele>133.83333333333334</ele><time>2026-04-24T13:52:43.372Z</time></trkpt><trkpt lat="38.0970917" lon="15.675965"><ele>132.0</ele><time>2026-04-24T13:52:44.373Z</time></trkpt><trkpt lat="38.0970883" lon="15.675865"><ele>131.0</ele><time>2026-04-24T13:52:45.372Z</time></trkpt><trkpt lat="38.0970783" lon="15.6757683"><ele>130.0</ele><time>2026-04-24T13:52:46.373Z</time></trkpt><trkpt lat="38.09708" lon="15.6756717"><ele>129.0</ele><time>2026-04-24T13:52:47.372Z</time></trkpt><trkpt lat="38.0970917" lon="15.6755783"><ele>128.0</ele><time>2026-04-24T13:52:48.372Z</time></trkpt><trkpt lat="38.0971117" lon="15.6754883"><ele>127.0</ele><time>2026-04-24T13:52:49.373Z</time></trkpt><trkpt lat="38.0971367" lon="15.67541"><ele>126.0</ele><time>2026-04-24T13:52:50.373Z</time></trkpt><trkpt lat="38.0971917" lon="15.6752733"><ele>125.0</ele><time>2026-04-24T13:52:52.373Z</time></trkpt><trkpt lat="38.097245" lon="15.675155"><ele>124.0</ele><time>2026-04-24T13:52:54.372Z</time></trkpt><trkpt lat="38.0972833" lon="15.6750633"><ele>123.0</ele><time>2026-04-24T13:52:56.372Z</time></trkpt><trkpt lat="38.097325" lon="15.675"><ele>122.0</ele><time>2026-04-24T13:52:58.372Z</time></trkpt><trkpt lat="38.0973767" lon="15.6749283"><ele>121.0</ele><time>2026-04-24T13:53:00.373Z</time></trkpt><trkpt lat="38.0974283" lon="15.6748483"><ele>120.0</ele><time>2026-04-24T13:53:02.372Z</time></trkpt><trkpt lat="38.0974533" lon="15.67471"><ele>121.66666666666667</ele><time>2026-04-24T13:53:04.372Z</time></trkpt><trkpt lat="38.0974817" lon="15.6745617"><ele>123.33333333333334</ele><time>2026-04-24T13:53:06.372Z</time></trkpt><trkpt lat="38.097495" lon="15.67448"><ele>125.0</ele><time>2026-04-24T13:53:07.373Z</time></trkpt><trkpt lat="38.0975083" lon="15.67439"><ele>126.66666666666667</ele><time>2026-04-24T13:53:08.372Z</time></trkpt><trkpt lat="38.0975133" lon="15.6743017"><ele>128.33333333333334</ele><time>2026-04-24T13:53:09.373Z</time></trkpt><trkpt lat="38.0975117" lon="15.6742133"><ele>130.0</ele><time>2026-04-24T13:53:10.373Z</time></trkpt><trkpt lat="38.0975317" lon="15.6740583"><ele>130.0</ele><time>2026-04-24T13:53:12.373Z</time></trkpt><trkpt lat="38.0975467" lon="15.673925"><ele>130.0</ele><time>2026-04-24T13:53:14.373Z</time></trkpt><trkpt lat="38.09757" lon="15.6738133"><ele>130.0</ele><time>2026-04-24T13:53:16.372Z</time></trkpt><trkpt lat="38.0975667" lon="15.6736983"><ele>130.0</ele><time>2026-04-24T13:53:18.372Z</time></trkpt><trkpt lat="38.0975917" lon="15.6735833"><ele>130.0</ele><time>2026-04-24T13:53:20.372Z</time></trkpt><trkpt lat="38.0976183" lon="15.6734633"><ele>130.0</ele><time>2026-04-24T13:53:22.372Z</time></trkpt><trkpt lat="38.0976417" lon="15.67335"><ele>130.0</ele><time>2026-04-24T13:53:24.372Z</time></trkpt><trkpt lat="38.0976667" lon="15.6732567"><ele>130.0</ele><time>2026-04-24T13:53:26.373Z</time></trkpt><trkpt lat="38.0976867" lon="15.673165"><ele>130.0</ele><time>2026-04-24T13:53:28.373Z</time></trkpt><trkpt lat="38.0976933" lon="15.6730617"><ele>130.0</ele><time>2026-04-24T13:53:31.373Z</time></trkpt><trkpt lat="38.097695" lon="15.67296"><ele>130.0</ele><time>2026-04-24T13:53:34.373Z</time></trkpt><trkpt lat="38.0976933" lon="15.6728617"><ele>130.33333333333334</ele><time>2026-04-24T13:53:46.373Z</time></trkpt><trkpt lat="38.0976983" lon="15.67277"><ele>130.66666666666669</ele><time>2026-04-24T13:53:48.372Z</time></trkpt><trkpt lat="38.0976533" lon="15.6727133"><ele>131.0</ele><time>2026-04-24T14:24:44.376Z</time></trkpt><trkpt lat="38.097625" lon="15.67262"><ele>131.33333333333334</ele><time>2026-04-24T14:24:46.377Z</time></trkpt><trkpt lat="38.0976" lon="15.6725233"><ele>131.66666666666666</ele><time>2026-04-24T14:24:47.376Z</time></trkpt><trkpt lat="38.0975667" lon="15.67242"><ele>132.0</ele><time>2026-04-24T14:24:48.377Z</time></trkpt><trkpt lat="38.0975367" lon="15.6723067"><ele>132.0</ele><time>2026-04-24T14:24:49.377Z</time></trkpt><trkpt lat="38.0975117" lon="15.6721933"><ele>132.0</ele><time>2026-04-24T14:24:50.376Z</time></trkpt><trkpt lat="38.0974867" lon="15.6720783"><ele>132.0</ele><time>2026-04-24T14:24:51.376Z</time></trkpt><trkpt lat="38.0974567" lon="15.671975"><ele>132.0</ele><time>2026-04-24T14:24:52.376Z</time></trkpt><trkpt lat="38.0974283" lon="15.67188"><ele>132.0</ele><time>2026-04-24T14:24:53.377Z</time></trkpt><trkpt lat="38.0974017" lon="15.671795"><ele>132.0</ele><time>2026-04-24T14:24:54.377Z</time></trkpt><trkpt lat="38.0973733" lon="15.671705"><ele>129.83333333333334</ele><time>2026-04-24T14:24:55.376Z</time></trkpt><trkpt lat="38.09735" lon="15.6716233"><ele>127.66666666666666</ele><time>2026-04-24T14:24:56.376Z</time></trkpt><trkpt lat="38.097325" lon="15.6715467"><ele>125.5</ele><time>2026-04-24T14:24:57.376Z</time></trkpt><trkpt lat="38.097305" lon="15.67147"><ele>123.33333333333333</ele><time>2026-04-24T14:24:58.376Z</time></trkpt><trkpt lat="38.0972783" lon="15.6713767"><ele>121.16666666666666</ele><time>2026-04-24T14:24:59.377Z</time></trkpt><trkpt lat="38.0972467" lon="15.671265"><ele>119.0</ele><time>2026-04-24T14:25:00.376Z</time></trkpt><trkpt lat="38.097215" lon="15.6711483"><ele>119.33333333333333</ele><time>2026-04-24T14:25:01.377Z</time></trkpt><trkpt lat="38.0971933" lon="15.6710467"><ele>119.66666666666666</ele><time>2026-04-24T14:25:02.376Z</time></trkpt><trkpt lat="38.0971767" lon="15.6709467"><ele>120.0</ele><time>2026-04-24T14:25:03.376Z</time></trkpt><trkpt lat="38.0971633" lon="15.670855"><ele>120.33333333333334</ele><time>2026-04-24T14:25:04.377Z</time></trkpt><trkpt lat="38.097145" lon="15.6707767"><ele>120.66666666666667</ele><time>2026-04-24T14:25:05.376Z</time></trkpt><trkpt lat="38.097125" lon="15.6706883"><ele>121.0</ele><time>2026-04-24T14:25:07.376Z</time></trkpt><trkpt lat="38.0971" lon="15.670575"><ele>121.00000000000001</ele><time>2026-04-24T14:25:09.376Z</time></trkpt><trkpt lat="38.0970867" lon="15.670495"><ele>121.0</ele><time>2026-04-24T14:25:10.376Z</time></trkpt><trkpt lat="38.0970717" lon="15.6704017"><ele>121.0</ele><time>2026-04-24T14:25:11.377Z</time></trkpt><trkpt lat="38.0970583" lon="15.6703033"><ele>121.0</ele><time>2026-04-24T14:25:12.376Z</time></trkpt><trkpt lat="38.09705" lon="15.6701933"><ele>121.00000000000001</ele><time>2026-04-24T14:25:13.376Z</time></trkpt><trkpt lat="38.0970317" lon="15.6700783"><ele>121.0</ele><time>2026-04-24T14:25:14.377Z</time></trkpt><trkpt lat="38.0970033" lon="15.669975"><ele>121.6</ele><time>2026-04-24T14:25:15.376Z</time></trkpt><trkpt lat="38.0969733" lon="15.6698567"><ele>122.19999999999999</ele><time>2026-04-24T14:25:16.377Z</time></trkpt><trkpt lat="38.0969483" lon="15.6697467"><ele>122.80000000000001</ele><time>2026-04-24T14:25:17.377Z</time></trkpt><trkpt lat="38.0969233" lon="15.6696383"><ele>123.4</ele><time>2026-04-24T14:25:18.377Z</time></trkpt><trkpt lat="38.0969017" lon="15.6695283"><ele>124.0</ele><time>2026-04-24T14:25:19.376Z</time></trkpt><trkpt lat="38.096875" lon="15.6694183"><ele>124.0</ele><time>2026-04-24T14:25:20.377Z</time></trkpt><trkpt lat="38.0968517" lon="15.6693083"><ele>124.0</ele><time>2026-04-24T14:25:21.377Z</time></trkpt><trkpt lat="38.0968183" lon="15.6692"><ele>124.0</ele><time>2026-04-24T14:25:22.376Z</time></trkpt><trkpt lat="38.0968033" lon="15.6690867"><ele>124.0</ele><time>2026-04-24T14:25:23.376Z</time></trkpt><trkpt lat="38.0967833" lon="15.6689717"><ele>124.0</ele><time>2026-04-24T14:25:24.376Z</time></trkpt><trkpt lat="38.0967583" lon="15.668855"><ele>124.00000000000001</ele><time>2026-04-24T14:25:25.376Z</time></trkpt><trkpt lat="38.0967333" lon="15.66874"><ele>124.0</ele><time>2026-04-24T14:25:26.377Z</time></trkpt><trkpt lat="38.0967067" lon="15.668635"><ele>124.0</ele><time>2026-04-24T14:25:27.377Z</time></trkpt><trkpt lat="38.096685" lon="15.6685217"><ele>124.0</ele><time>2026-04-24T14:25:28.376Z</time></trkpt><trkpt lat="38.0966667" lon="15.6684133"><ele>124.00000000000001</ele><time>2026-04-24T14:25:29.376Z</time></trkpt><trkpt lat="38.0966467" lon="15.6683083"><ele>124.0</ele><time>2026-04-24T14:25:30.377Z</time></trkpt><trkpt lat="38.0966217" lon="15.668205"><ele>123.66666666666667</ele><time>2026-04-24T14:25:31.377Z</time></trkpt><trkpt lat="38.0966" lon="15.6680917"><ele>123.33333333333334</ele><time>2026-04-24T14:25:32.377Z</time></trkpt><trkpt lat="38.0965883" lon="15.66798"><ele>123.0</ele><time>2026-04-24T14:25:33.377Z</time></trkpt><trkpt lat="38.096575" lon="15.6678717"><ele>122.66666666666666</ele><time>2026-04-24T14:25:34.377Z</time></trkpt><trkpt lat="38.0965567" lon="15.6677583"><ele>122.33333333333333</ele><time>2026-04-24T14:25:35.376Z</time></trkpt><trkpt lat="38.0965367" lon="15.6676517"><ele>122.0</ele><time>2026-04-24T14:25:36.376Z</time></trkpt><trkpt lat="38.0965233" lon="15.6675417"><ele>121.66666666666666</ele><time>2026-04-24T14:25:37.376Z</time></trkpt><trkpt lat="38.0965133" lon="15.66744"><ele>121.33333333333333</ele><time>2026-04-24T14:25:38.376Z</time></trkpt><trkpt lat="38.0964933" lon="15.6673317"><ele>121.0</ele><time>2026-04-24T14:25:39.377Z</time></trkpt><trkpt lat="38.0964767" lon="15.6672133"><ele>120.66666666666666</ele><time>2026-04-24T14:25:40.376Z</time></trkpt><trkpt lat="38.0964467" lon="15.6671067"><ele>120.33333333333333</ele><time>2026-04-24T14:25:41.377Z</time></trkpt><trkpt lat="38.0964133" lon="15.6670067"><ele>120.0</ele><time>2026-04-24T14:25:42.377Z</time></trkpt><trkpt lat="38.0963867" lon="15.6669017"><ele>120.0</ele><time>2026-04-24T14:25:43.377Z</time></trkpt><trkpt lat="38.0963583" lon="15.6667933"><ele>120.0</ele><time>2026-04-24T14:25:44.376Z</time></trkpt><trkpt lat="38.09634" lon="15.666675"><ele>120.0</ele><time>2026-04-24T14:25:45.376Z</time></trkpt><trkpt lat="38.0963217" lon="15.666565"><ele>120.0</ele><time>2026-04-24T14:25:46.377Z</time></trkpt><trkpt lat="38.096305" lon="15.6664617"><ele>120.0</ele><time>2026-04-24T14:25:47.376Z</time></trkpt><trkpt lat="38.096285" lon="15.666355"><ele>120.0</ele><time>2026-04-24T14:25:48.376Z</time></trkpt><trkpt lat="38.0962667" lon="15.666245"><ele>120.0</ele><time>2026-04-24T14:25:49.377Z</time></trkpt><trkpt lat="38.096245" lon="15.6661317"><ele>120.0</ele><time>2026-04-24T14:25:50.376Z</time></trkpt><trkpt lat="38.096225" lon="15.66602"><ele>120.0</ele><time>2026-04-24T14:25:51.377Z</time></trkpt><trkpt lat="38.0962033" lon="15.6659067"><ele>120.0</ele><time>2026-04-24T14:25:52.376Z</time></trkpt><trkpt lat="38.0961867" lon="15.6657967"><ele>120.0</ele><time>2026-04-24T14:25:53.377Z</time></trkpt><trkpt lat="38.09617" lon="15.66569"><ele>120.0</ele><time>2026-04-24T14:25:54.376Z</time></trkpt><trkpt lat="38.0961533" lon="15.6655783"><ele>119.6</ele><time>2026-04-24T14:25:55.376Z</time></trkpt><trkpt lat="38.096135" lon="15.665465"><ele>119.2</ele><time>2026-04-24T14:25:56.376Z</time></trkpt><trkpt lat="38.0961133" lon="15.665355"><ele>118.80000000000001</ele><time>2026-04-24T14:25:57.377Z</time></trkpt><trkpt lat="38.09609" lon="15.6652417"><ele>118.4</ele><time>2026-04-24T14:25:58.377Z</time></trkpt><trkpt lat="38.096065" lon="15.6651317"><ele>118.0</ele><time>2026-04-24T14:25:59.376Z</time></trkpt><trkpt lat="38.09604" lon="15.6650233"><ele>118.00000000000001</ele><time>2026-04-24T14:26:00.376Z</time></trkpt><trkpt lat="38.0960167" lon="15.6649217"><ele>118.0</ele><time>2026-04-24T14:26:01.377Z</time></trkpt><trkpt lat="38.0959933" lon="15.6648117"><ele>118.0</ele><time>2026-04-24T14:26:02.377Z</time></trkpt><trkpt lat="38.0959833" lon="15.6647"><ele>118.0</ele><time>2026-04-24T14:26:03.376Z</time></trkpt><trkpt lat="38.095965" lon="15.664595"><ele>118.00000000000001</ele><time>2026-04-24T14:26:04.377Z</time></trkpt><trkpt lat="38.0959317" lon="15.664495"><ele>118.0</ele><time>2026-04-24T14:26:05.377Z</time></trkpt><trkpt lat="38.0959133" lon="15.6643867"><ele>118.33333333333334</ele><time>2026-04-24T14:26:06.376Z</time></trkpt><trkpt lat="38.0958883" lon="15.6642817"><ele>118.66666666666667</ele><time>2026-04-24T14:26:07.376Z</time></trkpt><trkpt lat="38.0958683" lon="15.6641783"><ele>119.0</ele><time>2026-04-24T14:26:08.377Z</time></trkpt><trkpt lat="38.09585" lon="15.66407"><ele>119.33333333333334</ele><time>2026-04-24T14:26:09.377Z</time></trkpt><trkpt lat="38.0958317" lon="15.6639583"><ele>119.66666666666667</ele><time>2026-04-24T14:26:10.376Z</time></trkpt><trkpt lat="38.0958183" lon="15.6638517"><ele>120.0</ele><time>2026-04-24T14:26:11.376Z</time></trkpt><trkpt lat="38.0958083" lon="15.6637333"><ele>120.0</ele><time>2026-04-24T14:26:12.377Z</time></trkpt><trkpt lat="38.0957917" lon="15.663615"><ele>120.0</ele><time>2026-04-24T14:26:13.377Z</time></trkpt><trkpt lat="38.0957717" lon="15.6634983"><ele>120.0</ele><time>2026-04-24T14:26:14.376Z</time></trkpt><trkpt lat="38.095745" lon="15.66338"><ele>120.0</ele><time>2026-04-24T14:26:15.376Z</time></trkpt><trkpt lat="38.0957233" lon="15.6632633"><ele>120.0</ele><time>2026-04-24T14:26:16.376Z</time></trkpt><trkpt lat="38.095705" lon="15.6631383"><ele>118.6</ele><time>2026-04-24T14:26:17.376Z</time></trkpt><trkpt lat="38.095685" lon="15.6630183"><ele>117.2</ele><time>2026-04-24T14:26:18.376Z</time></trkpt><trkpt lat="38.0956617" lon="15.6629017"><ele>115.80000000000001</ele><time>2026-04-24T14:26:19.376Z</time></trkpt><trkpt lat="38.0956433" lon="15.6627717"><ele>114.4</ele><time>2026-04-24T14:26:20.376Z</time></trkpt><trkpt lat="38.0956033" lon="15.66265"><ele>113.0</ele><time>2026-04-24T14:26:21.376Z</time></trkpt><trkpt lat="38.095555" lon="15.6625333"><ele>113.0</ele><time>2026-04-24T14:26:22.377Z</time></trkpt><trkpt lat="38.09551" lon="15.66242"><ele>113.00000000000001</ele><time>2026-04-24T14:26:23.377Z</time></trkpt><trkpt lat="38.0954483" lon="15.6623067"><ele>113.00000000000001</ele><time>2026-04-24T14:26:24.377Z</time></trkpt><trkpt lat="38.0953733" lon="15.662195"><ele>113.0</ele><time>2026-04-24T14:26:25.376Z</time></trkpt><trkpt lat="38.0953033" lon="15.6620867"><ele>113.0</ele><time>2026-04-24T14:26:26.376Z</time></trkpt><trkpt lat="38.0952217" lon="15.6619933"><ele>112.60000000000001</ele><time>2026-04-24T14:26:27.376Z</time></trkpt><trkpt lat="38.095135" lon="15.661915"><ele>112.20000000000002</ele><time>2026-04-24T14:26:28.376Z</time></trkpt><trkpt lat="38.0950533" lon="15.66183"><ele>111.8</ele><time>2026-04-24T14:26:29.376Z</time></trkpt><trkpt lat="38.09498" lon="15.661735"><ele>111.4</ele><time>2026-04-24T14:26:30.376Z</time></trkpt><trkpt lat="38.0949033" lon="15.6616333"><ele>111.0</ele><time>2026-04-24T14:26:31.376Z</time></trkpt><trkpt lat="38.0948283" lon="15.6615267"><ele>109.5</ele><time>2026-04-24T14:26:32.377Z</time></trkpt><trkpt lat="38.0947533" lon="15.6614067"><ele>108.0</ele><time>2026-04-24T14:26:33.377Z</time></trkpt><trkpt lat="38.094685" lon="15.6612967"><ele>106.5</ele><time>2026-04-24T14:26:34.377Z</time></trkpt><trkpt lat="38.0946067" lon="15.6611917"><ele>105.0</ele><time>2026-04-24T14:26:35.376Z</time></trkpt><trkpt lat="38.0945383" lon="15.6610783"><ele>104.6</ele><time>2026-04-24T14:26:36.376Z</time></trkpt><trkpt lat="38.0944917" lon="15.6609667"><ele>104.2</ele><time>2026-04-24T14:26:37.376Z</time></trkpt><trkpt lat="38.0944583" lon="15.660845"><ele>103.80000000000001</ele><time>2026-04-24T14:26:38.376Z</time></trkpt><trkpt lat="38.0944283" lon="15.6607233"><ele>103.4</ele><time>2026-04-24T14:26:39.376Z</time></trkpt><trkpt lat="38.0944067" lon="15.6606"><ele>103.0</ele><time>2026-04-24T14:26:40.377Z</time></trkpt><trkpt lat="38.0943917" lon="15.660465"><ele>103.00000000000001</ele><time>2026-04-24T14:26:41.376Z</time></trkpt><trkpt lat="38.094385" lon="15.66035"><ele>103.0</ele><time>2026-04-24T14:26:42.376Z</time></trkpt><trkpt lat="38.094375" lon="15.660245"><ele>103.0</ele><time>2026-04-24T14:26:43.377Z</time></trkpt><trkpt lat="38.0943633" lon="15.6601633"><ele>103.0</ele><time>2026-04-24T14:26:44.377Z</time></trkpt><trkpt lat="38.0943467" lon="15.66004"><ele>103.00000000000001</ele><time>2026-04-24T14:26:46.377Z</time></trkpt><trkpt lat="38.09434" lon="15.6599367"><ele>103.0</ele><time>2026-04-24T14:26:49.377Z</time></trkpt><trkpt lat="38.09436" lon="15.6598567"><ele>102.80000000000001</ele><time>2026-04-24T14:26:51.376Z</time></trkpt><trkpt lat="38.0943983" lon="15.6597433"><ele>102.6</ele><time>2026-04-24T14:26:53.376Z</time></trkpt><trkpt lat="38.0943833" lon="15.6596233"><ele>102.4</ele><time>2026-04-24T14:26:55.377Z</time></trkpt><trkpt lat="38.0943083" lon="15.6595417"><ele>102.19999999999999</ele><time>2026-04-24T14:26:57.377Z</time></trkpt><trkpt lat="38.0941983" lon="15.6595433"><ele>102.0</ele><time>2026-04-24T14:26:59.376Z</time></trkpt><trkpt lat="38.094145" lon="15.6595967"><ele>102.0</ele><time>2026-04-24T14:27:00.376Z</time></trkpt><trkpt lat="38.0941017" lon="15.6596717"><ele>102.0</ele><time>2026-04-24T14:27:01.376Z</time></trkpt><trkpt lat="38.094055" lon="15.6597483"><ele>102.0</ele><time>2026-04-24T14:27:02.377Z</time></trkpt><trkpt lat="38.0939867" lon="15.6598167"><ele>102.0</ele><time>2026-04-24T14:27:03.376Z</time></trkpt><trkpt lat="38.093895" lon="15.65986"><ele>102.0</ele><time>2026-04-24T14:27:04.376Z</time></trkpt><trkpt lat="38.093785" lon="15.6599017"><ele>102.0</ele><time>2026-04-24T14:27:05.376Z</time></trkpt><trkpt lat="38.09367" lon="15.6599483"><ele>101.5</ele><time>2026-04-24T14:27:06.377Z</time></trkpt><trkpt lat="38.0935533" lon="15.6600083"><ele>101.0</ele><time>2026-04-24T14:27:07.377Z</time></trkpt><trkpt lat="38.093435" lon="15.660065"><ele>100.5</ele><time>2026-04-24T14:27:08.377Z</time></trkpt><trkpt lat="38.0933133" lon="15.6601117"><ele>100.0</ele><time>2026-04-24T14:27:09.376Z</time></trkpt><trkpt lat="38.0931967" lon="15.6601633"><ele>100.0</ele><time>2026-04-24T14:27:10.377Z</time></trkpt><trkpt lat="38.093085" lon="15.6602133"><ele>100.0</ele><time>2026-04-24T14:27:11.376Z</time></trkpt><trkpt lat="38.0929733" lon="15.6602633"><ele>100.0</ele><time>2026-04-24T14:27:12.376Z</time></trkpt><trkpt lat="38.0928667" lon="15.66032"><ele>100.0</ele><time>2026-04-24T14:27:13.376Z</time></trkpt><trkpt lat="38.0927633" lon="15.66037"><ele>100.0</ele><time>2026-04-24T14:27:14.377Z</time></trkpt><trkpt lat="38.092665" lon="15.6604133"><ele>100.0</ele><time>2026-04-24T14:27:15.377Z</time></trkpt><trkpt lat="38.0925683" lon="15.6604417"><ele>100.0</ele><time>2026-04-24T14:27:16.376Z</time></trkpt><trkpt lat="38.0924833" lon="15.66043"><ele>100.0</ele><time>2026-04-24T14:27:17.377Z</time></trkpt><trkpt lat="38.0924017" lon="15.66039"><ele>100.0</ele><time>2026-04-24T14:27:18.376Z</time></trkpt><trkpt lat="38.09234" lon="15.6603267"><ele>99.66666666666667</ele><time>2026-04-24T14:27:19.376Z</time></trkpt><trkpt lat="38.0922967" lon="15.660235"><ele>99.33333333333334</ele><time>2026-04-24T14:27:20.377Z</time></trkpt><trkpt lat="38.0922717" lon="15.6601483"><ele>99.0</ele><time>2026-04-24T14:27:21.377Z</time></trkpt><trkpt lat="38.0922733" lon="15.6600483"><ele>98.66666666666666</ele><time>2026-04-24T14:27:22.377Z</time></trkpt><trkpt lat="38.0923167" lon="15.6599367"><ele>98.33333333333333</ele><time>2026-04-24T14:27:23.377Z</time></trkpt><trkpt lat="38.0924" lon="15.6598417"><ele>98.0</ele><time>2026-04-24T14:27:24.377Z</time></trkpt><trkpt lat="38.092515" lon="15.659765"><ele>98.0</ele><time>2026-04-24T14:27:25.377Z</time></trkpt><trkpt lat="38.09266" lon="15.659735"><ele>98.0</ele><time>2026-04-24T14:27:26.376Z</time></trkpt><trkpt lat="38.0928017" lon="15.6597067"><ele>98.0</ele><time>2026-04-24T14:27:27.376Z</time></trkpt><trkpt lat="38.0929367" lon="15.6596633"><ele>98.0</ele><time>2026-04-24T14:27:28.377Z</time></trkpt><trkpt lat="38.093065" lon="15.6596167"><ele>98.0</ele><time>2026-04-24T14:27:29.376Z</time></trkpt><trkpt lat="38.0931967" lon="15.659565"><ele>98.0</ele><time>2026-04-24T14:27:30.376Z</time></trkpt><trkpt lat="38.093325" lon="15.6595167"><ele>98.0</ele><time>2026-04-24T14:27:31.376Z</time></trkpt><trkpt lat="38.09346" lon="15.6594583"><ele>98.0</ele><time>2026-04-24T14:27:32.377Z</time></trkpt><trkpt lat="38.093605" lon="15.6594"><ele>98.33333333333333</ele><time>2026-04-24T14:27:33.376Z</time></trkpt><trkpt lat="38.0937583" lon="15.6593383"><ele>98.66666666666666</ele><time>2026-04-24T14:27:34.376Z</time></trkpt><trkpt lat="38.093915" lon="15.6592833"><ele>99.0</ele><time>2026-04-24T14:27:35.376Z</time></trkpt><trkpt lat="38.09407" lon="15.65923"><ele>99.33333333333334</ele><time>2026-04-24T14:27:36.377Z</time></trkpt><trkpt lat="38.0942167" lon="15.6591967"><ele>99.66666666666667</ele><time>2026-04-24T14:27:37.376Z</time></trkpt><trkpt lat="38.094365" lon="15.6591583"><ele>100.0</ele><time>2026-04-24T14:27:38.376Z</time></trkpt><trkpt lat="38.0945133" lon="15.6591233"><ele>100.0</ele><time>2026-04-24T14:27:39.377Z</time></trkpt><trkpt lat="38.09466" lon="15.659095"><ele>100.0</ele><time>2026-04-24T14:27:40.377Z</time></trkpt><trkpt lat="38.09481" lon="15.6590767"><ele>100.0</ele><time>2026-04-24T14:27:41.376Z</time></trkpt><trkpt lat="38.0949617" lon="15.6590617"><ele>100.5</ele><time>2026-04-24T14:27:42.376Z</time></trkpt><trkpt lat="38.0951117" lon="15.6590517"><ele>101.0</ele><time>2026-04-24T14:27:43.377Z</time></trkpt><trkpt lat="38.09526" lon="15.659055"><ele>101.5</ele><time>2026-04-24T14:27:44.376Z</time></trkpt><trkpt lat="38.09541" lon="15.6590583"><ele>102.0</ele><time>2026-04-24T14:27:45.376Z</time></trkpt><trkpt lat="38.0955683" lon="15.6590667"><ele>102.0</ele><time>2026-04-24T14:27:46.376Z</time></trkpt><trkpt lat="38.0957283" lon="15.6590833"><ele>102.0</ele><time>2026-04-24T14:27:47.376Z</time></trkpt><trkpt lat="38.095885" lon="15.659115"><ele>102.0</ele><time>2026-04-24T14:27:48.376Z</time></trkpt><trkpt lat="38.0960383" lon="15.6591533"><ele>101.0</ele><time>2026-04-24T14:27:49.376Z</time></trkpt><trkpt lat="38.0961933" lon="15.6591817"><ele>100.0</ele><time>2026-04-24T14:27:50.376Z</time></trkpt><trkpt lat="38.0963467" lon="15.6592167"><ele>99.0</ele><time>2026-04-24T14:27:51.376Z</time></trkpt><trkpt lat="38.0964967" lon="15.6592583"><ele>98.0</ele><time>2026-04-24T14:27:52.376Z</time></trkpt><trkpt lat="38.096645" lon="15.6592917"><ele>97.0</ele><time>2026-04-24T14:27:53.376Z</time></trkpt><trkpt lat="38.0967917" lon="15.659325"><ele>96.0</ele><time>2026-04-24T14:27:54.377Z</time></trkpt><trkpt lat="38.09694" lon="15.6593583"><ele>96.0</ele><time>2026-04-24T14:27:55.377Z</time></trkpt><trkpt lat="38.0970867" lon="15.65938"><ele>96.0</ele><time>2026-04-24T14:27:56.376Z</time></trkpt><trkpt lat="38.0972317" lon="15.6594167"><ele>96.0</ele><time>2026-04-24T14:27:57.376Z</time></trkpt><trkpt lat="38.09737" lon="15.659455"><ele>96.0</ele><time>2026-04-24T14:27:58.377Z</time></trkpt><trkpt lat="38.0975117" lon="15.6594867"><ele>96.75</ele><time>2026-04-24T14:27:59.376Z</time></trkpt><trkpt lat="38.0976533" lon="15.6595167"><ele>97.5</ele><time>2026-04-24T14:28:00.376Z</time></trkpt><trkpt lat="38.097795" lon="15.6595417"><ele>98.25</ele><time>2026-04-24T14:28:01.376Z</time></trkpt><trkpt lat="38.0979283" lon="15.6595733"><ele>99.0</ele><time>2026-04-24T14:28:02.377Z</time></trkpt><trkpt lat="38.098065" lon="15.6596083"><ele>99.0</ele><time>2026-04-24T14:28:03.376Z</time></trkpt><trkpt lat="38.098205" lon="15.6596317"><ele>99.0</ele><time>2026-04-24T14:28:04.376Z</time></trkpt><trkpt lat="38.0983417" lon="15.6596683"><ele>99.0</ele><time>2026-04-24T14:28:05.377Z</time></trkpt><trkpt lat="38.09847" lon="15.659695"><ele>99.0</ele><time>2026-04-24T14:28:06.377Z</time></trkpt><trkpt lat="38.0985933" lon="15.65972"><ele>96.6</ele><time>2026-04-24T14:28:07.377Z</time></trkpt><trkpt lat="38.0987067" lon="15.6597433"><ele>94.2</ele><time>2026-04-24T14:28:08.377Z</time></trkpt><trkpt lat="38.0988117" lon="15.6597733"><ele>91.8</ele><time>2026-04-24T14:28:09.376Z</time></trkpt><trkpt lat="38.098915" lon="15.6598133"><ele>89.39999999999999</ele><time>2026-04-24T14:28:10.376Z</time></trkpt><trkpt lat="38.0989983" lon="15.6599117"><ele>87.0</ele><time>2026-04-24T14:28:11.376Z</time></trkpt><trkpt lat="38.0990667" lon="15.6600233"><ele>85.75</ele><time>2026-04-24T14:28:12.377Z</time></trkpt><trkpt lat="38.0991017" lon="15.6601733"><ele>84.5</ele><time>2026-04-24T14:28:13.377Z</time></trkpt><trkpt lat="38.0991233" lon="15.6603317"><ele>83.25</ele><time>2026-04-24T14:28:14.377Z</time></trkpt><trkpt lat="38.0991483" lon="15.6604833"><ele>82.0</ele><time>2026-04-24T14:28:15.376Z</time></trkpt><trkpt lat="38.0991917" lon="15.6606233"><ele>82.0</ele><time>2026-04-24T14:28:16.376Z</time></trkpt><trkpt lat="38.099255" lon="15.6607467"><ele>82.0</ele><time>2026-04-24T14:28:17.376Z</time></trkpt><trkpt lat="38.0993533" lon="15.6608433"><ele>82.0</ele><time>2026-04-24T14:28:18.376Z</time></trkpt><trkpt lat="38.0994683" lon="15.660905"><ele>82.0</ele><time>2026-04-24T14:28:19.377Z</time></trkpt><trkpt lat="38.0995917" lon="15.660935"><ele>82.0</ele><time>2026-04-24T14:28:20.376Z</time></trkpt><trkpt lat="38.0997233" lon="15.6609333"><ele>82.0</ele><time>2026-04-24T14:28:21.376Z</time></trkpt><trkpt lat="38.0998583" lon="15.660895"><ele>82.0</ele><time>2026-04-24T14:28:22.377Z</time></trkpt><trkpt lat="38.0999933" lon="15.6608433"><ele>82.0</ele><time>2026-04-24T14:28:23.377Z</time></trkpt><trkpt lat="38.1001183" lon="15.6607733"><ele>80.0</ele><time>2026-04-24T14:28:24.376Z</time></trkpt><trkpt lat="38.1002233" lon="15.6606667"><ele>78.0</ele><time>2026-04-24T14:28:25.377Z</time></trkpt><trkpt lat="38.1003033" lon="15.66053"><ele>76.0</ele><time>2026-04-24T14:28:26.377Z</time></trkpt><trkpt lat="38.10035" lon="15.6603667"><ele>74.0</ele><time>2026-04-24T14:28:27.376Z</time></trkpt><trkpt lat="38.100365" lon="15.6601833"><ele>72.66666666666667</ele><time>2026-04-24T14:28:28.377Z</time></trkpt><trkpt lat="38.100345" lon="15.6599783"><ele>71.33333333333333</ele><time>2026-04-24T14:28:29.376Z</time></trkpt><trkpt lat="38.100315" lon="15.659765"><ele>70.0</ele><time>2026-04-24T14:28:30.376Z</time></trkpt><trkpt lat="38.1002817" lon="15.6595283"><ele>69.33333333333333</ele><time>2026-04-24T14:28:31.376Z</time></trkpt><trkpt lat="38.1002517" lon="15.6592467"><ele>68.66666666666667</ele><time>2026-04-24T14:28:32.376Z</time></trkpt><trkpt lat="38.1002217" lon="15.65897"><ele>68.0</ele><time>2026-04-24T14:28:33.377Z</time></trkpt><trkpt lat="38.1001933" lon="15.6586767"><ele>65.0</ele><time>2026-04-24T14:28:34.376Z</time></trkpt><trkpt lat="38.1001733" lon="15.6583867"><ele>62.0</ele><time>2026-04-24T14:28:35.377Z</time></trkpt><trkpt lat="38.1001633" lon="15.658095"><ele>62.0</ele><time>2026-04-24T14:28:36.376Z</time></trkpt><trkpt lat="38.100175" lon="15.6578133"><ele>62.0</ele><time>2026-04-24T14:28:37.376Z</time></trkpt><trkpt lat="38.1002117" lon="15.65752"><ele>62.0</ele><time>2026-04-24T14:28:38.376Z</time></trkpt><trkpt lat="38.100275" lon="15.6572133"><ele>62.0</ele><time>2026-04-24T14:28:39.377Z</time></trkpt><trkpt lat="38.100335" lon="15.6569067"><ele>62.0</ele><time>2026-04-24T14:28:40.376Z</time></trkpt><trkpt lat="38.1003883" lon="15.6565967"><ele>62.0</ele><time>2026-04-24T14:28:41.376Z</time></trkpt><trkpt lat="38.1004317" lon="15.65628"><ele>60.0</ele><time>2026-04-24T14:28:42.376Z</time></trkpt><trkpt lat="38.100485" lon="15.6559583"><ele>58.0</ele><time>2026-04-24T14:28:43.376Z</time></trkpt><trkpt lat="38.1005433" lon="15.6556283"><ele>58.0</ele><time>2026-04-24T14:28:44.376Z</time></trkpt><trkpt lat="38.10061" lon="15.6552933"><ele>58.0</ele><time>2026-04-24T14:28:45.376Z</time></trkpt><trkpt lat="38.1006683" lon="15.654975"><ele>56.5</ele><time>2026-04-24T14:28:46.377Z</time></trkpt><trkpt lat="38.1007283" lon="15.6546583"><ele>55.0</ele><time>2026-04-24T14:28:47.376Z</time></trkpt><trkpt lat="38.1007833" lon="15.6543367"><ele>55.0</ele><time>2026-04-24T14:28:48.377Z</time></trkpt><trkpt lat="38.1008383" lon="15.6539967"><ele>55.0</ele><time>2026-04-24T14:28:49.377Z</time></trkpt><trkpt lat="38.1009" lon="15.6536533"><ele>51.0</ele><time>2026-04-24T14:28:50.376Z</time></trkpt><trkpt lat="38.100965" lon="15.6533033"><ele>47.0</ele><time>2026-04-24T14:28:51.377Z</time></trkpt><trkpt lat="38.1010267" lon="15.6529467"><ele>46.0</ele><time>2026-04-24T14:28:52.376Z</time></trkpt><trkpt lat="38.101095" lon="15.6525833"><ele>45.0</ele><time>2026-04-24T14:28:53.377Z</time></trkpt><trkpt lat="38.1011633" lon="15.6522133"><ele>44.5</ele><time>2026-04-24T14:28:54.376Z</time></trkpt><trkpt lat="38.10123" lon="15.6518483"><ele>44.0</ele><time>2026-04-24T14:28:55.376Z</time></trkpt><trkpt lat="38.1012917" lon="15.651485"><ele>44.0</ele><time>2026-04-24T14:28:56.377Z</time></trkpt><trkpt lat="38.1013567" lon="15.6511267"><ele>44.0</ele><time>2026-04-24T14:28:57.376Z</time></trkpt><trkpt lat="38.1014267" lon="15.65077"><ele>43.0</ele><time>2026-04-24T14:28:58.376Z</time></trkpt><trkpt lat="38.101495" lon="15.6504133"><ele>42.0</ele><time>2026-04-24T14:28:59.376Z</time></trkpt><trkpt lat="38.10157" lon="15.650085"><ele>43.0</ele><time>2026-04-24T14:29:00.376Z</time></trkpt><trkpt lat="38.1016367" lon="15.64976"><ele>44.0</ele><time>2026-04-24T14:29:01.376Z</time></trkpt><trkpt lat="38.1016883" lon="15.649435"><ele>44.0</ele><time>2026-04-24T14:29:02.376Z</time></trkpt><trkpt lat="38.1017333" lon="15.6491167"><ele>44.0</ele><time>2026-04-24T14:29:03.376Z</time></trkpt><trkpt lat="38.101755" lon="15.6487717"><ele>43.5</ele><time>2026-04-24T14:29:04.376Z</time></trkpt><trkpt lat="38.101775" lon="15.648435"><ele>43.0</ele><time>2026-04-24T14:29:05.377Z</time></trkpt><trkpt lat="38.1017967" lon="15.6481"><ele>41.0</ele><time>2026-04-24T14:29:06.376Z</time></trkpt><trkpt lat="38.1018167" lon="15.6477767"><ele>39.0</ele><time>2026-04-24T14:29:07.377Z</time></trkpt><trkpt lat="38.1018367" lon="15.6474567"><ele>39.0</ele><time>2026-04-24T14:29:08.376Z</time></trkpt><trkpt lat="38.1018533" lon="15.64716"><ele>39.0</ele><time>2026-04-24T14:29:09.376Z</time></trkpt><trkpt lat="38.101865" lon="15.6468533"><ele>38.0</ele><time>2026-04-24T14:29:10.377Z</time></trkpt><trkpt lat="38.1018717" lon="15.646565"><ele>37.0</ele><time>2026-04-24T14:29:11.377Z</time></trkpt><trkpt lat="38.1018767" lon="15.6462817"><ele>36.0</ele><time>2026-04-24T14:29:12.376Z</time></trkpt><trkpt lat="38.10189" lon="15.6460067"><ele>35.0</ele><time>2026-04-24T14:29:13.376Z</time></trkpt><trkpt lat="38.1018883" lon="15.6457567"><ele>34.0</ele><time>2026-04-24T14:29:14.377Z</time></trkpt><trkpt lat="38.10189" lon="15.6455333"><ele>34.0</ele><time>2026-04-24T14:29:15.376Z</time></trkpt><trkpt lat="38.1018833" lon="15.64533"><ele>34.0</ele><time>2026-04-24T14:29:16.377Z</time></trkpt><trkpt lat="38.101885" lon="15.6451533"><ele>34.0</ele><time>2026-04-24T14:29:17.377Z</time></trkpt><trkpt lat="38.10188" lon="15.645015"><ele>34.0</ele><time>2026-04-24T14:29:18.376Z</time></trkpt><trkpt lat="38.1018683" lon="15.6449083"><ele>34.0</ele><time>2026-04-24T14:29:19.376Z</time></trkpt><trkpt lat="38.1018617" lon="15.6447983"><ele>34.0</ele><time>2026-04-24T14:29:23.377Z</time></trkpt><trkpt lat="38.1018483" lon="15.64464"><ele>34.0</ele><time>2026-04-24T14:29:25.376Z</time></trkpt><trkpt lat="38.1018467" lon="15.6445567"><ele>34.0</ele><time>2026-04-24T14:29:26.377Z</time></trkpt><trkpt lat="38.1019117" lon="15.6444683"><ele>34.0</ele><time>2026-04-24T14:29:28.377Z</time></trkpt><trkpt lat="38.10206" lon="15.644445"><ele>34.0</ele><time>2026-04-24T14:29:30.377Z</time></trkpt><trkpt lat="38.102185" lon="15.6444533"><ele>34.0</ele><time>2026-04-24T14:29:31.376Z</time></trkpt><trkpt lat="38.1023067" lon="15.6444767"><ele>34.0</ele><time>2026-04-24T14:29:32.376Z</time></trkpt><trkpt lat="38.1024117" lon="15.64449"><ele>34.0</ele><time>2026-04-24T14:29:33.377Z</time></trkpt><trkpt lat="38.102505" lon="15.6444933"><ele>34.0</ele><time>2026-04-24T14:29:34.377Z</time></trkpt><trkpt lat="38.10259" lon="15.644495"><ele>34.0</ele><time>2026-04-24T14:29:35.377Z</time></trkpt><trkpt lat="38.102695" lon="15.644495"><ele>34.0</ele><time>2026-04-24T14:29:36.377Z</time></trkpt><trkpt lat="38.1027983" lon="15.6444917"><ele>34.0</ele><time>2026-04-24T14:29:37.377Z</time></trkpt><trkpt lat="38.1028933" lon="15.6445"><ele>34.0</ele><time>2026-04-24T14:29:38.376Z</time></trkpt><trkpt lat="38.10297" lon="15.6445533"><ele>34.0</ele><time>2026-04-24T14:29:39.376Z</time></trkpt><trkpt lat="38.1030367" lon="15.6446167"><ele>34.0</ele><time>2026-04-24T14:29:40.376Z</time></trkpt><trkpt lat="38.103085" lon="15.6446783"><ele>34.0</ele><time>2026-04-24T14:29:41.377Z</time></trkpt><trkpt lat="38.103155" lon="15.6447233"><ele>34.0</ele><time>2026-04-24T14:29:44.377Z</time></trkpt><trkpt lat="38.1032267" lon="15.64465"><ele>34.0</ele><time>2026-04-24T14:29:46.376Z</time></trkpt><trkpt lat="38.1032733" lon="15.6445867"><ele>34.0</ele><time>2026-04-24T14:29:47.376Z</time></trkpt><trkpt lat="38.1033367" lon="15.644505"><ele>34.0</ele><time>2026-04-24T14:29:48.376Z</time></trkpt><trkpt lat="38.1033967" lon="15.644435"><ele>33.8</ele><time>2026-04-24T14:29:49.376Z</time></trkpt><trkpt lat="38.10345" lon="15.6443617"><ele>33.599999999999994</ele><time>2026-04-24T14:29:50.376Z</time></trkpt><trkpt lat="38.10351" lon="15.6443017"><ele>33.4</ele><time>2026-04-24T14:29:51.377Z</time></trkpt><trkpt lat="38.1035883" lon="15.644205"><ele>33.199999999999996</ele><time>2026-04-24T14:29:52.376Z</time></trkpt><trkpt lat="38.1036817" lon="15.64409"><ele>33.0</ele><time>2026-04-24T14:29:53.377Z</time></trkpt><trkpt lat="38.1037683" lon="15.6439867"><ele>33.0</ele><time>2026-04-24T14:29:54.376Z</time></trkpt><trkpt lat="38.10383" lon="15.6439067"><ele>33.0</ele><time>2026-04-24T14:29:55.376Z</time></trkpt><trkpt lat="38.1038783" lon="15.6438517"><ele>33.0</ele><time>2026-04-24T14:29:56.376Z</time></trkpt><trkpt lat="38.10393" lon="15.6437717"><ele>33.0</ele><time>2026-04-24T14:29:57.376Z</time></trkpt><trkpt lat="38.1040017" lon="15.6436867"><ele>33.0</ele><time>2026-04-24T14:29:58.377Z</time></trkpt><trkpt lat="38.104075" lon="15.6435983"><ele>33.0</ele><time>2026-04-24T14:29:59.377Z</time></trkpt><trkpt lat="38.10414" lon="15.6435283"><ele>32.8</ele><time>2026-04-24T14:30:00.377Z</time></trkpt><trkpt lat="38.1042017" lon="15.643475"><ele>32.599999999999994</ele><time>2026-04-24T14:30:01.376Z</time></trkpt><trkpt lat="38.10425" lon="15.6433967"><ele>32.400000000000006</ele><time>2026-04-24T14:30:02.377Z</time></trkpt><trkpt lat="38.1043167" lon="15.6433"><ele>32.2</ele><time>2026-04-24T14:30:03.376Z</time></trkpt><trkpt lat="38.1044" lon="15.6431783"><ele>32.0</ele><time>2026-04-24T14:30:04.376Z</time></trkpt><trkpt lat="38.1044733" lon="15.6430767"><ele>32.0</ele><time>2026-04-24T14:30:05.376Z</time></trkpt><trkpt lat="38.10453" lon="15.6429933"><ele>32.0</ele><time>2026-04-24T14:30:06.376Z</time></trkpt><trkpt lat="38.1045967" lon="15.6428933"><ele>32.0</ele><time>2026-04-24T14:30:08.376Z</time></trkpt><trkpt lat="38.1047033" lon="15.64276"><ele>32.0</ele><time>2026-04-24T14:30:10.376Z</time></trkpt><trkpt lat="38.104775" lon="15.6426783"><ele>32.0</ele><time>2026-04-24T14:30:11.376Z</time></trkpt><trkpt lat="38.1048367" lon="15.64261"><ele>30.999999999999996</ele><time>2026-04-24T14:30:12.376Z</time></trkpt><trkpt lat="38.1049067" lon="15.6424983"><ele>30.0</ele><time>2026-04-24T14:30:14.377Z</time></trkpt><trkpt lat="38.1049717" lon="15.6423983"><ele>29.0</ele><time>2026-04-24T14:30:16.377Z</time></trkpt><trkpt lat="38.1050267" lon="15.6423317"><ele>28.0</ele><time>2026-04-24T14:30:18.377Z</time></trkpt><trkpt lat="38.1050833" lon="15.6422583"><ele>26.999999999999996</ele><time>2026-04-24T14:30:21.376Z</time></trkpt><trkpt lat="38.1051317" lon="15.6422033"><ele>26.0</ele><time>2026-04-24T14:30:23.377Z</time></trkpt><trkpt lat="38.1052083" lon="15.6421333"><ele>25.4</ele><time>2026-04-24T14:30:26.377Z</time></trkpt><trkpt lat="38.1053017" lon="15.642005"><ele>24.8</ele><time>2026-04-24T14:30:28.376Z</time></trkpt><trkpt lat="38.1053633" lon="15.6419167"><ele>24.2</ele><time>2026-04-24T14:30:29.376Z</time></trkpt><trkpt lat="38.10543" lon="15.6418283"><ele>23.599999999999998</ele><time>2026-04-24T14:30:30.377Z</time></trkpt><trkpt lat="38.1054817" lon="15.6417583"><ele>23.0</ele><time>2026-04-24T14:30:31.377Z</time></trkpt><trkpt lat="38.10553" lon="15.64167"><ele>22.857142857142858</ele><time>2026-04-24T14:30:33.376Z</time></trkpt><trkpt lat="38.1055967" lon="15.641655"><ele>22.71428571428571</ele><time>2026-04-24T14:30:36.376Z</time></trkpt><trkpt lat="38.1056633" lon="15.6416867"><ele>22.57142857142857</ele><time>2026-04-24T14:30:38.376Z</time></trkpt><trkpt lat="38.1057233" lon="15.6417667"><ele>22.42857142857143</ele><time>2026-04-24T14:30:41.377Z</time></trkpt><trkpt lat="38.10578" lon="15.6418167"><ele>22.285714285714285</ele><time>2026-04-24T14:33:20.377Z</time></trkpt><trkpt lat="38.10584" lon="15.64187"><ele>22.142857142857142</ele><time>2026-04-24T14:33:30.378Z</time></trkpt><trkpt lat="38.1058833" lon="15.6419367"><ele>22.0</ele><time>2026-04-24T16:24:14.386Z</time></trkpt><trkpt lat="38.1059433" lon="15.6419817"><ele>22.400000000000002</ele><time>2026-04-24T16:24:16.386Z</time></trkpt><trkpt lat="38.1060017" lon="15.64207"><ele>22.8</ele><time>2026-04-24T16:24:18.386Z</time></trkpt><trkpt lat="38.1060683" lon="15.642165"><ele>23.2</ele><time>2026-04-24T16:24:20.386Z</time></trkpt><trkpt lat="38.1061333" lon="15.6422483"><ele>23.6</ele><time>2026-04-24T16:24:22.386Z</time></trkpt><trkpt lat="38.10621" lon="15.6423283"><ele>24.0</ele><time>2026-04-24T16:24:24.386Z</time></trkpt><trkpt lat="38.1062767" lon="15.642405"><ele>24.0</ele><time>2026-04-24T16:24:26.387Z</time></trkpt><trkpt lat="38.1063483" lon="15.6424783"><ele>24.0</ele><time>2026-04-24T16:24:28.386Z</time></trkpt><trkpt lat="38.1064117" lon="15.642545"><ele>24.0</ele><time>2026-04-24T16:24:30.386Z</time></trkpt><trkpt lat="38.1064883" lon="15.6425317"><ele>24.0</ele><time>2026-04-24T16:24:32.387Z</time></trkpt><trkpt lat="38.1065833" lon="15.6424067"><ele>24.0</ele><time>2026-04-24T16:24:34.387Z</time></trkpt><trkpt lat="38.1066333" lon="15.64234"><ele>24.0</ele><time>2026-04-24T16:24:35.386Z</time></trkpt><trkpt lat="38.1066767" lon="15.6422817"><ele>24.0</ele><time>2026-04-24T16:24:36.386Z</time></trkpt><trkpt lat="38.1067233" lon="15.6422133"><ele>24.0</ele><time>2026-04-24T16:24:38.387Z</time></trkpt><trkpt lat="38.10674" lon="15.6421283"><ele>24.0</ele><time>2026-04-24T16:24:43.386Z</time></trkpt><trkpt lat="38.106665" lon="15.6420333"><ele>24.0</ele><time>2026-04-24T16:24:45.386Z</time></trkpt><trkpt lat="38.106645" lon="15.6419333"><ele>24.0</ele><time>2026-04-24T16:24:47.386Z</time></trkpt><trkpt lat="38.1066783" lon="15.6418567"><ele>23.666666666666668</ele><time>2026-04-24T16:24:48.386Z</time></trkpt><trkpt lat="38.106735" lon="15.6417633"><ele>23.333333333333332</ele><time>2026-04-24T16:24:49.387Z</time></trkpt><trkpt lat="38.1068017" lon="15.6416817"><ele>23.0</ele><time>2026-04-24T16:24:50.386Z</time></trkpt><trkpt lat="38.1068633" lon="15.6416033"><ele>22.666666666666664</ele><time>2026-04-24T16:24:51.387Z</time></trkpt><trkpt lat="38.106915" lon="15.64155"><ele>22.333333333333332</ele><time>2026-04-24T16:24:52.386Z</time></trkpt><trkpt lat="38.1069717" lon="15.64144"><ele>22.0</ele><time>2026-04-24T16:24:54.386Z</time></trkpt><trkpt lat="38.1069517" lon="15.6413417"><ele>22.0</ele><time>2026-04-24T16:24:56.387Z</time></trkpt><trkpt lat="38.1068833" lon="15.6412417"><ele>22.0</ele><time>2026-04-24T16:24:58.387Z</time></trkpt><trkpt lat="38.10683" lon="15.6411817"><ele>22.0</ele><time>2026-04-24T16:24:59.387Z</time></trkpt><trkpt lat="38.1067867" lon="15.6411233"><ele>22.0</ele><time>2026-04-24T16:25:00.387Z</time></trkpt><trkpt lat="38.1066933" lon="15.641085"><ele>22.0</ele><time>2026-04-24T16:25:02.386Z</time></trkpt><trkpt lat="38.1065867" lon="15.64107"><ele>22.0</ele><time>2026-04-24T16:25:04.386Z</time></trkpt><trkpt lat="38.1065233" lon="15.6410317"><ele>21.6</ele><time>2026-04-24T16:25:05.386Z</time></trkpt><trkpt lat="38.1064633" lon="15.6409717"><ele>21.200000000000003</ele><time>2026-04-24T16:25:06.387Z</time></trkpt><trkpt lat="38.1064067" lon="15.64091"><ele>20.8</ele><time>2026-04-24T16:25:07.387Z</time></trkpt><trkpt lat="38.1063217" lon="15.6408017"><ele>20.4</ele><time>2026-04-24T16:25:09.386Z</time></trkpt><trkpt lat="38.1062367" lon="15.6407067"><ele>20.0</ele><time>2026-04-24T16:25:11.386Z</time></trkpt><trkpt lat="38.106165" lon="15.6406167"><ele>20.0</ele><time>2026-04-24T16:25:13.387Z</time></trkpt><trkpt lat="38.10609" lon="15.64054"><ele>20.0</ele><time>2026-04-24T16:25:15.386Z</time></trkpt><trkpt lat="38.106" lon="15.6404533"><ele>20.0</ele><time>2026-04-24T16:25:17.387Z</time></trkpt><trkpt lat="38.1059233" lon="15.6403683"><ele>20.0</ele><time>2026-04-24T16:25:19.387Z</time></trkpt><trkpt lat="38.1058767" lon="15.6403067"><ele>20.0</ele><time>2026-04-24T16:25:21.386Z</time></trkpt><trkpt lat="38.1058267" lon="15.640255"><ele>20.0</ele><time>2026-04-24T16:25:25.387Z</time></trkpt><trkpt lat="38.1057483" lon="15.640165"><ele>19.4</ele><time>2026-04-24T16:25:28.386Z</time></trkpt><trkpt lat="38.10564" lon="15.6400517"><ele>18.8</ele><time>2026-04-24T16:25:30.386Z</time></trkpt><trkpt lat="38.105585" lon="15.6399833"><ele>18.2</ele><time>2026-04-24T16:25:31.387Z</time></trkpt><trkpt lat="38.1055" lon="15.6399333"><ele>17.6</ele><time>2026-04-24T16:25:33.386Z</time></trkpt><trkpt lat="38.1054117" lon="15.63997"><ele>17.0</ele><time>2026-04-24T16:25:35.387Z</time></trkpt><trkpt lat="38.10535" lon="15.6400583"><ele>17.0</ele><time>2026-04-24T16:25:37.387Z</time></trkpt><trkpt lat="38.1053133" lon="15.6401783"><ele>17.0</ele><time>2026-04-24T16:25:39.387Z</time></trkpt><trkpt lat="38.105315" lon="15.6402917"><ele>17.0</ele><time>2026-04-24T16:25:41.387Z</time></trkpt><trkpt lat="38.1053217" lon="15.6404317"><ele>17.0</ele><time>2026-04-24T16:25:43.387Z</time></trkpt><trkpt lat="38.1052967" lon="15.6405117"><ele>17.0</ele><time>2026-04-24T16:25:44.387Z</time></trkpt><trkpt lat="38.10523" lon="15.64061"><ele>17.333333333333336</ele><time>2026-04-24T16:25:45.386Z</time></trkpt><trkpt lat="38.1051567" lon="15.6407067"><ele>17.666666666666668</ele><time>2026-04-24T16:25:46.386Z</time></trkpt><trkpt lat="38.1050883" lon="15.6407767"><ele>18.0</ele><time>2026-04-24T16:25:47.386Z</time></trkpt><trkpt lat="38.105035" lon="15.6408367"><ele>18.333333333333332</ele><time>2026-04-24T16:25:49.387Z</time></trkpt><trkpt lat="38.10498" lon="15.64088"><ele>18.666666666666664</ele><time>2026-04-24T16:25:53.386Z</time></trkpt><trkpt lat="38.1049183" lon="15.6409683"><ele>19.0</ele><time>2026-04-24T16:25:55.386Z</time></trkpt><trkpt lat="38.104865" lon="15.6410383"><ele>19.333333333333332</ele><time>2026-04-24T16:25:56.386Z</time></trkpt><trkpt lat="38.1047983" lon="15.64112"><ele>19.666666666666664</ele><time>2026-04-24T16:25:57.386Z</time></trkpt><trkpt lat="38.1047317" lon="15.641195"><ele>20.0</ele><time>2026-04-24T16:25:58.386Z</time></trkpt><trkpt lat="38.1046783" lon="15.64125"><ele>20.333333333333332</ele><time>2026-04-24T16:25:59.386Z</time></trkpt><trkpt lat="38.10462" lon="15.6413283"><ele>20.666666666666668</ele><time>2026-04-24T16:26:01.387Z</time></trkpt><trkpt lat="38.1045583" lon="15.6412983"><ele>21.0</ele><time>2026-04-24T16:26:03.386Z</time></trkpt><trkpt lat="38.1044917" lon="15.64122"><ele>21.0</ele><time>2026-04-24T16:26:05.386Z</time></trkpt><trkpt lat="38.10442" lon="15.641115"><ele>21.0</ele><time>2026-04-24T16:26:07.387Z</time></trkpt><trkpt lat="38.1043567" lon="15.641035"><ele>21.0</ele><time>2026-04-24T16:26:08.387Z</time></trkpt><trkpt lat="38.1042783" lon="15.6409417"><ele>21.0</ele><time>2026-04-24T16:26:09.386Z</time></trkpt><trkpt lat="38.1042033" lon="15.6408517"><ele>21.0</ele><time>2026-04-24T16:26:10.387Z</time></trkpt><trkpt lat="38.1041367" lon="15.6407767"><ele>21.200000000000003</ele><time>2026-04-24T16:26:11.387Z</time></trkpt><trkpt lat="38.1040783" lon="15.640705"><ele>21.400000000000002</ele><time>2026-04-24T16:26:12.387Z</time></trkpt><trkpt lat="38.104015" lon="15.6406267"><ele>21.6</ele><time>2026-04-24T16:26:13.386Z</time></trkpt><trkpt lat="38.1039417" lon="15.6405433"><ele>21.8</ele><time>2026-04-24T16:26:14.387Z</time></trkpt><trkpt lat="38.1038667" lon="15.64046"><ele>22.0</ele><time>2026-04-24T16:26:15.387Z</time></trkpt><trkpt lat="38.1037883" lon="15.6403617"><ele>22.0</ele><time>2026-04-24T16:26:16.386Z</time></trkpt><trkpt lat="38.1037117" lon="15.6402783"><ele>22.0</ele><time>2026-04-24T16:26:17.386Z</time></trkpt><trkpt lat="38.1036583" lon="15.640215"><ele>22.0</ele><time>2026-04-24T16:26:18.386Z</time></trkpt><trkpt lat="38.1035833" lon="15.6401583"><ele>22.0</ele><time>2026-04-24T16:26:20.387Z</time></trkpt><trkpt lat="38.1035217" lon="15.6401967"><ele>22.0</ele><time>2026-04-24T16:26:22.386Z</time></trkpt><trkpt lat="38.1034733" lon="15.640285"><ele>22.0</ele><time>2026-04-24T16:26:25.386Z</time></trkpt><trkpt lat="38.10342" lon="15.640335"><ele>22.0</ele><time>2026-04-24T16:26:28.387Z</time></trkpt><trkpt lat="38.1033617" lon="15.6404183"><ele>22.0</ele><time>2026-04-24T16:26:40.386Z</time></trkpt><trkpt lat="38.1033" lon="15.640465"><ele>22.0</ele><time>2026-04-24T16:26:42.387Z</time></trkpt><trkpt lat="38.1032" lon="15.6404183"><ele>22.0</ele><time>2026-04-24T16:26:44.387Z</time></trkpt><trkpt lat="38.1031133" lon="15.6403233"><ele>22.0</ele><time>2026-04-24T16:26:46.386Z</time></trkpt><trkpt lat="38.1030583" lon="15.640215"><ele>21.400000000000002</ele><time>2026-04-24T16:26:48.387Z</time></trkpt><trkpt lat="38.1030683" lon="15.6400817"><ele>20.8</ele><time>2026-04-24T16:26:50.386Z</time></trkpt><trkpt lat="38.1031183" lon="15.6400033"><ele>20.2</ele><time>2026-04-24T16:26:51.386Z</time></trkpt><trkpt lat="38.103195" lon="15.6399167"><ele>19.6</ele><time>2026-04-24T16:26:52.386Z</time></trkpt><trkpt lat="38.103285" lon="15.6398133"><ele>19.0</ele><time>2026-04-24T16:26:53.386Z</time></trkpt><trkpt lat="38.1033667" lon="15.6397267"><ele>19.0</ele><time>2026-04-24T16:26:54.387Z</time></trkpt><trkpt lat="38.1034433" lon="15.6396367"><ele>19.0</ele><time>2026-04-24T16:26:55.387Z</time></trkpt><trkpt lat="38.1035133" lon="15.6395383"><ele>19.0</ele><time>2026-04-24T16:26:56.386Z</time></trkpt><trkpt lat="38.1035717" lon="15.6394583"><ele>19.0</ele><time>2026-04-24T16:26:57.386Z</time></trkpt><trkpt lat="38.103625" lon="15.639385"><ele>19.0</ele><time>2026-04-24T16:26:58.386Z</time></trkpt><trkpt lat="38.1036933" lon="15.6393083"><ele>19.0</ele><time>2026-04-24T16:27:00.387Z</time></trkpt><trkpt lat="38.10373" lon="15.6392417"><ele>19.0</ele><time>2026-04-24T16:27:02.386Z</time></trkpt><trkpt lat="38.10378" lon="15.6391267"><ele>19.0</ele><time>2026-04-24T16:27:04.387Z</time></trkpt><trkpt lat="38.1038167" lon="15.639045"><ele>19.0</ele><time>2026-04-24T16:27:05.386Z</time></trkpt><trkpt lat="38.1038617" lon="15.6389583"><ele>19.0</ele><time>2026-04-24T16:27:06.387Z</time></trkpt><trkpt lat="38.1039083" lon="15.638875"><ele>19.0</ele><time>2026-04-24T16:27:07.386Z</time></trkpt><trkpt lat="38.103945" lon="15.6388083"><ele>19.0</ele><time>2026-04-24T16:27:08.387Z</time></trkpt><trkpt lat="38.1039967" lon="15.6387283"><ele>19.0</ele><time>2026-04-24T16:27:10.387Z</time></trkpt><trkpt lat="38.1040517" lon="15.6386483"><ele>19.0</ele><time>2026-04-24T16:27:12.386Z</time></trkpt><trkpt lat="38.1041283" lon="15.6385367"><ele>19.0</ele><time>2026-04-24T16:27:14.386Z</time></trkpt><trkpt lat="38.1041817" lon="15.6384317"><ele>19.0</ele><time>2026-04-24T16:27:16.387Z</time></trkpt><trkpt lat="38.1042167" lon="15.6383467"><ele>18.2</ele><time>2026-04-24T16:27:18.386Z</time></trkpt><trkpt lat="38.1041433" lon="15.63825"><ele>17.4</ele><time>2026-04-24T16:30:39.385Z</time></trkpt><trkpt lat="38.1041867" lon="15.638145"><ele>16.6</ele><time>2026-04-24T16:45:29.385Z</time></trkpt><trkpt lat="38.104275" lon="15.6380967"><ele>15.8</ele><time>2026-04-24T16:45:31.386Z</time></trkpt><trkpt lat="38.104345" lon="15.6380217"><ele>15.0</ele><time>2026-04-24T16:45:33.386Z</time></trkpt><trkpt lat="38.1044117" lon="15.6379183"><ele>15.0</ele><time>2026-04-24T16:45:35.385Z</time></trkpt><trkpt lat="38.104485" lon="15.6378133"><ele>15.0</ele><time>2026-04-24T16:45:37.385Z</time></trkpt><trkpt lat="38.10457" lon="15.6377067"><ele>15.0</ele><time>2026-04-24T16:45:39.385Z</time></trkpt><trkpt lat="38.104675" lon="15.6376217"><ele>15.0</ele><time>2026-04-24T16:45:41.385Z</time></trkpt><trkpt lat="38.10474" lon="15.6376233"><ele>15.0</ele><time>2026-04-24T16:45:42.385Z</time></trkpt><trkpt lat="38.104815" lon="15.6376783"><ele>15.0</ele><time>2026-04-24T16:45:43.386Z</time></trkpt><trkpt lat="38.1049" lon="15.637765"><ele>15.0</ele><time>2026-04-24T16:45:44.386Z</time></trkpt><trkpt lat="38.105" lon="15.6378667"><ele>15.0</ele><time>2026-04-24T16:45:45.386Z</time></trkpt><trkpt lat="38.1051033" lon="15.6379667"><ele>15.0</ele><time>2026-04-24T16:45:46.385Z</time></trkpt><trkpt lat="38.1052167" lon="15.63807"><ele>14.0</ele><time>2026-04-24T16:45:47.386Z</time></trkpt><trkpt lat="38.10534" lon="15.6381583"><ele>13.0</ele><time>2026-04-24T16:45:48.385Z</time></trkpt><trkpt lat="38.1054717" lon="15.6382433"><ele>12.0</ele><time>2026-04-24T16:45:49.386Z</time></trkpt><trkpt lat="38.1055983" lon="15.638325"><ele>11.0</ele><time>2026-04-24T16:45:50.386Z</time></trkpt><trkpt lat="38.105735" lon="15.6384117"><ele>10.666666666666666</ele><time>2026-04-24T16:45:51.385Z</time></trkpt><trkpt lat="38.1058717" lon="15.6385017"><ele>10.333333333333334</ele><time>2026-04-24T16:45:52.385Z</time></trkpt><trkpt lat="38.10601" lon="15.638595"><ele>10.0</ele><time>2026-04-24T16:45:53.385Z</time></trkpt><trkpt lat="38.1061367" lon="15.6387067"><ele>11.333333333333334</ele><time>2026-04-24T16:45:54.385Z</time></trkpt><trkpt lat="38.10625" lon="15.6388317"><ele>12.666666666666668</ele><time>2026-04-24T16:45:55.385Z</time></trkpt><trkpt lat="38.10637" lon="15.63896"><ele>14.0</ele><time>2026-04-24T16:45:56.386Z</time></trkpt><trkpt lat="38.1064833" lon="15.63908"><ele>13.25</ele><time>2026-04-24T16:45:57.386Z</time></trkpt><trkpt lat="38.1066017" lon="15.63919"><ele>12.5</ele><time>2026-04-24T16:45:58.385Z</time></trkpt><trkpt lat="38.1067183" lon="15.6392867"><ele>11.75</ele><time>2026-04-24T16:45:59.386Z</time></trkpt><trkpt lat="38.1068183" lon="15.6393767"><ele>11.0</ele><time>2026-04-24T16:46:00.385Z</time></trkpt><trkpt lat="38.10691" lon="15.639465"><ele>12.25</ele><time>2026-04-24T16:46:01.385Z</time></trkpt><trkpt lat="38.1069967" lon="15.6395633"><ele>13.5</ele><time>2026-04-24T16:46:02.385Z</time></trkpt><trkpt lat="38.10708" lon="15.6396583"><ele>14.75</ele><time>2026-04-24T16:46:03.386Z</time></trkpt><trkpt lat="38.10716" lon="15.639765"><ele>16.0</ele><time>2026-04-24T16:46:04.386Z</time></trkpt><trkpt lat="38.1072317" lon="15.6398783"><ele>16.0</ele><time>2026-04-24T16:46:05.386Z</time></trkpt><trkpt lat="38.1073067" lon="15.6399867"><ele>16.0</ele><time>2026-04-24T16:46:06.386Z</time></trkpt><trkpt lat="38.10738" lon="15.6400967"><ele>16.0</ele><time>2026-04-24T16:46:07.385Z</time></trkpt><trkpt lat="38.1074433" lon="15.6401933"><ele>16.0</ele><time>2026-04-24T16:46:08.385Z</time></trkpt><trkpt lat="38.1075" lon="15.640285"><ele>16.0</ele><time>2026-04-24T16:46:09.385Z</time></trkpt><trkpt lat="38.1075467" lon="15.6403733"><ele>15.166666666666666</ele><time>2026-04-24T16:46:10.385Z</time></trkpt><trkpt lat="38.1075883" lon="15.6404517"><ele>14.333333333333332</ele><time>2026-04-24T16:46:11.385Z</time></trkpt><trkpt lat="38.1076367" lon="15.6405183"><ele>13.5</ele><time>2026-04-24T16:46:12.386Z</time></trkpt><trkpt lat="38.1076783" lon="15.6405833"><ele>12.666666666666666</ele><time>2026-04-24T16:46:13.386Z</time></trkpt><trkpt lat="38.1077183" lon="15.6406483"><ele>11.833333333333332</ele><time>2026-04-24T16:46:14.386Z</time></trkpt><trkpt lat="38.107805" lon="15.6407733"><ele>11.0</ele><time>2026-04-24T16:46:16.385Z</time></trkpt><trkpt lat="38.1078567" lon="15.6408517"><ele>11.0</ele><time>2026-04-24T16:46:17.386Z</time></trkpt><trkpt lat="38.1079083" lon="15.6409417"><ele>11.0</ele><time>2026-04-24T16:46:18.385Z</time></trkpt><trkpt lat="38.1079617" lon="15.6410317"><ele>11.0</ele><time>2026-04-24T16:46:19.385Z</time></trkpt><trkpt lat="38.1080117" lon="15.6411117"><ele>11.0</ele><time>2026-04-24T16:46:20.386Z</time></trkpt><trkpt lat="38.1080667" lon="15.6411817"><ele>11.0</ele><time>2026-04-24T16:46:21.386Z</time></trkpt><trkpt lat="38.10812" lon="15.6412467"><ele>11.0</ele><time>2026-04-24T16:46:22.385Z</time></trkpt><trkpt lat="38.1081817" lon="15.6413117"><ele>10.8</ele><time>2026-04-24T16:46:23.385Z</time></trkpt><trkpt lat="38.1082483" lon="15.641395"><ele>10.600000000000001</ele><time>2026-04-24T16:46:24.385Z</time></trkpt><trkpt lat="38.10831" lon="15.6414983"><ele>10.4</ele><time>2026-04-24T16:46:25.385Z</time></trkpt><trkpt lat="38.1083817" lon="15.641605"><ele>10.2</ele><time>2026-04-24T16:46:26.385Z</time></trkpt><trkpt lat="38.1084633" lon="15.641715"><ele>10.0</ele><time>2026-04-24T16:46:27.386Z</time></trkpt><trkpt lat="38.1085367" lon="15.641835"><ele>10.0</ele><time>2026-04-24T16:46:28.386Z</time></trkpt><trkpt lat="38.1086133" lon="15.6419417"><ele>10.0</ele><time>2026-04-24T16:46:29.386Z</time></trkpt><trkpt lat="38.1086867" lon="15.6420617"><ele>10.0</ele><time>2026-04-24T16:46:30.386Z</time></trkpt><trkpt lat="38.1087567" lon="15.6421817"><ele>10.0</ele><time>2026-04-24T16:46:31.385Z</time></trkpt><trkpt lat="38.10883" lon="15.6422917"><ele>11.25</ele><time>2026-04-24T16:46:32.385Z</time></trkpt><trkpt lat="38.1088983" lon="15.6424"><ele>12.5</ele><time>2026-04-24T16:46:33.385Z</time></trkpt><trkpt lat="38.10898" lon="15.64251"><ele>13.75</ele><time>2026-04-24T16:46:34.385Z</time></trkpt><trkpt lat="38.109055" lon="15.6426217"><ele>15.0</ele><time>2026-04-24T16:46:35.386Z</time></trkpt><trkpt lat="38.1091333" lon="15.6427567"><ele>15.0</ele><time>2026-04-24T16:46:36.386Z</time></trkpt><trkpt lat="38.1092167" lon="15.6428883"><ele>15.0</ele><time>2026-04-24T16:46:37.385Z</time></trkpt><trkpt lat="38.1093" lon="15.6430217"><ele>15.0</ele><time>2026-04-24T16:46:38.385Z</time></trkpt><trkpt lat="38.1093767" lon="15.6431467"><ele>15.0</ele><time>2026-04-24T16:46:39.386Z</time></trkpt><trkpt lat="38.1094433" lon="15.6432733"><ele>15.0</ele><time>2026-04-24T16:46:40.385Z</time></trkpt><trkpt lat="38.1095167" lon="15.6433817"><ele>15.0</ele><time>2026-04-24T16:46:41.385Z</time></trkpt><trkpt lat="38.1095967" lon="15.64349"><ele>15.0</ele><time>2026-04-24T16:46:42.385Z</time></trkpt><trkpt lat="38.1096767" lon="15.64361"><ele>15.0</ele><time>2026-04-24T16:46:43.386Z</time></trkpt><trkpt lat="38.1097567" lon="15.64372"><ele>14.8</ele><time>2026-04-24T16:46:44.385Z</time></trkpt><trkpt lat="38.109835" lon="15.6438367"><ele>14.6</ele><time>2026-04-24T16:46:45.386Z</time></trkpt><trkpt lat="38.1099183" lon="15.6439467"><ele>14.399999999999999</ele><time>2026-04-24T16:46:46.385Z</time></trkpt><trkpt lat="38.109985" lon="15.6440567"><ele>14.2</ele><time>2026-04-24T16:46:47.385Z</time></trkpt><trkpt lat="38.1100467" lon="15.64415"><ele>14.0</ele><time>2026-04-24T16:46:48.386Z</time></trkpt><trkpt lat="38.1100983" lon="15.644235"><ele>14.000000000000002</ele><time>2026-04-24T16:46:49.385Z</time></trkpt><trkpt lat="38.11015" lon="15.6443083"><ele>14.0</ele><time>2026-04-24T16:46:50.385Z</time></trkpt><trkpt lat="38.110205" lon="15.64438"><ele>14.0</ele><time>2026-04-24T16:46:51.385Z</time></trkpt><trkpt lat="38.110255" lon="15.6444633"><ele>14.0</ele><time>2026-04-24T16:46:52.385Z</time></trkpt><trkpt lat="38.1103167" lon="15.6445567"><ele>14.000000000000002</ele><time>2026-04-24T16:46:53.386Z</time></trkpt><trkpt lat="38.110385" lon="15.64467"><ele>14.0</ele><time>2026-04-24T16:46:54.386Z</time></trkpt><trkpt lat="38.11045" lon="15.64477"><ele>13.5</ele><time>2026-04-24T16:46:55.385Z</time></trkpt><trkpt lat="38.110525" lon="15.6448667"><ele>13.0</ele><time>2026-04-24T16:46:56.386Z</time></trkpt><trkpt lat="38.1105967" lon="15.6449683"><ele>12.5</ele><time>2026-04-24T16:46:57.385Z</time></trkpt><trkpt lat="38.110675" lon="15.6450817"><ele>12.0</ele><time>2026-04-24T16:46:58.386Z</time></trkpt><trkpt lat="38.1107483" lon="15.6451983"><ele>13.5</ele><time>2026-04-24T16:46:59.385Z</time></trkpt><trkpt lat="38.1108183" lon="15.6453133"><ele>15.0</ele><time>2026-04-24T16:47:00.386Z</time></trkpt><trkpt lat="38.1108917" lon="15.6454267"><ele>16.5</ele><time>2026-04-24T16:47:01.386Z</time></trkpt><trkpt lat="38.110975" lon="15.6455467"><ele>18.0</ele><time>2026-04-24T16:47:02.386Z</time></trkpt><trkpt lat="38.11106" lon="15.64568"><ele>18.0</ele><time>2026-04-24T16:47:03.386Z</time></trkpt><trkpt lat="38.111145" lon="15.64581"><ele>18.0</ele><time>2026-04-24T16:47:04.385Z</time></trkpt><trkpt lat="38.111225" lon="15.645935"><ele>18.0</ele><time>2026-04-24T16:47:05.386Z</time></trkpt><trkpt lat="38.1112983" lon="15.646035"><ele>18.0</ele><time>2026-04-24T16:47:06.385Z</time></trkpt><trkpt lat="38.11137" lon="15.64612"><ele>17.666666666666668</ele><time>2026-04-24T16:47:07.386Z</time></trkpt><trkpt lat="38.1114367" lon="15.6462067"><ele>17.333333333333332</ele><time>2026-04-24T16:47:08.386Z</time></trkpt><trkpt lat="38.11149" lon="15.6462917"><ele>17.0</ele><time>2026-04-24T16:47:09.385Z</time></trkpt><trkpt lat="38.1115383" lon="15.6463717"><ele>16.666666666666664</ele><time>2026-04-24T16:47:10.385Z</time></trkpt><trkpt lat="38.1115833" lon="15.646455"><ele>16.333333333333332</ele><time>2026-04-24T16:47:11.386Z</time></trkpt><trkpt lat="38.1116333" lon="15.6465333"><ele>16.0</ele><time>2026-04-24T16:47:12.385Z</time></trkpt><trkpt lat="38.1116833" lon="15.6466033"><ele>15.999999999999998</ele><time>2026-04-24T16:47:13.385Z</time></trkpt><trkpt lat="38.1117233" lon="15.6466667"><ele>16.0</ele><time>2026-04-24T16:47:14.385Z</time></trkpt><trkpt lat="38.11178" lon="15.6467767"><ele>16.0</ele><time>2026-04-24T16:47:16.385Z</time></trkpt><trkpt lat="38.111845" lon="15.6468633"><ele>16.0</ele><time>2026-04-24T16:47:18.385Z</time></trkpt><trkpt lat="38.111885" lon="15.64693"><ele>15.999999999999998</ele><time>2026-04-24T16:47:19.386Z</time></trkpt><trkpt lat="38.1119367" lon="15.6470167"><ele>16.0</ele><time>2026-04-24T16:47:20.386Z</time></trkpt><trkpt lat="38.1120067" lon="15.64712"><ele>16.666666666666664</ele><time>2026-04-24T16:47:21.385Z</time></trkpt><trkpt lat="38.11208" lon="15.6472167"><ele>17.333333333333332</ele><time>2026-04-24T16:47:22.386Z</time></trkpt><trkpt lat="38.1121517" lon="15.647305"><ele>18.0</ele><time>2026-04-24T16:47:23.385Z</time></trkpt><trkpt lat="38.112205" lon="15.6473933"><ele>18.666666666666668</ele><time>2026-04-24T16:47:24.385Z</time></trkpt><trkpt lat="38.1122517" lon="15.6474733"><ele>19.333333333333336</ele><time>2026-04-24T16:47:25.386Z</time></trkpt><trkpt lat="38.1123" lon="15.6475417"><ele>20.0</ele><time>2026-04-24T16:47:26.385Z</time></trkpt><trkpt lat="38.1123367" lon="15.6476133"><ele>20.0</ele><time>2026-04-24T16:47:27.385Z</time></trkpt><trkpt lat="38.112365" lon="15.6476867"><ele>20.0</ele><time>2026-04-24T16:47:28.386Z</time></trkpt><trkpt lat="38.112425" lon="15.647775"><ele>20.0</ele><time>2026-04-24T16:47:30.385Z</time></trkpt><trkpt lat="38.1124783" lon="15.647845"><ele>20.0</ele><time>2026-04-24T16:47:32.386Z</time></trkpt><trkpt lat="38.1125383" lon="15.6479383"><ele>20.0</ele><time>2026-04-24T16:47:34.385Z</time></trkpt><trkpt lat="38.1125733" lon="15.648015"><ele>20.0</ele><time>2026-04-24T16:47:36.386Z</time></trkpt><trkpt lat="38.1126233" lon="15.6481"><ele>20.333333333333336</ele><time>2026-04-24T16:47:38.385Z</time></trkpt><trkpt lat="38.1126883" lon="15.6481783"><ele>20.666666666666668</ele><time>2026-04-24T16:47:40.386Z</time></trkpt><trkpt lat="38.112735" lon="15.6482333"><ele>21.0</ele><time>2026-04-24T16:47:42.386Z</time></trkpt><trkpt lat="38.1127817" lon="15.6483067"><ele>21.333333333333332</ele><time>2026-04-24T16:47:44.386Z</time></trkpt><trkpt lat="38.1128633" lon="15.64838"><ele>21.666666666666664</ele><time>2026-04-24T16:47:46.386Z</time></trkpt><trkpt lat="38.1128983" lon="15.6484583"><ele>22.0</ele><time>2026-04-24T16:47:47.385Z</time></trkpt><trkpt lat="38.112955" lon="15.6485567"><ele>22.0</ele><time>2026-04-24T16:47:48.385Z</time></trkpt><trkpt lat="38.11301" lon="15.6486617"><ele>22.0</ele><time>2026-04-24T16:47:49.385Z</time></trkpt><trkpt lat="38.1130617" lon="15.6487583"><ele>22.0</ele><time>2026-04-24T16:47:50.385Z</time></trkpt><trkpt lat="38.1131" lon="15.6488317"><ele>22.0</ele><time>2026-04-24T16:47:51.385Z</time></trkpt><trkpt lat="38.1131467" lon="15.64889"><ele>22.0</ele><time>2026-04-24T16:47:52.386Z</time></trkpt><trkpt lat="38.1132" lon="15.6489917"><ele>22.0</ele><time>2026-04-24T16:47:54.386Z</time></trkpt><trkpt lat="38.113245" lon="15.6490633"><ele>22.0</ele><time>2026-04-24T16:47:55.386Z</time></trkpt><trkpt lat="38.1132833" lon="15.6491333"><ele>22.0</ele><time>2026-04-24T16:47:56.385Z</time></trkpt><trkpt lat="38.1133383" lon="15.6492083"><ele>22.0</ele><time>2026-04-24T16:47:57.386Z</time></trkpt><trkpt lat="38.1133817" lon="15.6492767"><ele>22.0</ele><time>2026-04-24T16:47:58.386Z</time></trkpt><trkpt lat="38.1134217" lon="15.6493433"><ele>22.0</ele><time>2026-04-24T16:47:59.385Z</time></trkpt><trkpt lat="38.1134983" lon="15.6494283"><ele>22.0</ele><time>2026-04-24T16:48:01.385Z</time></trkpt><trkpt lat="38.1135633" lon="15.6495267"><ele>22.666666666666664</ele><time>2026-04-24T16:48:03.385Z</time></trkpt><trkpt lat="38.1136267" lon="15.6496233"><ele>23.333333333333332</ele><time>2026-04-24T16:48:05.385Z</time></trkpt><trkpt lat="38.1136683" lon="15.6497167"><ele>24.0</ele><time>2026-04-24T16:48:08.385Z</time></trkpt><trkpt lat="38.1137217" lon="15.6497817"><ele>24.666666666666664</ele><time>2026-04-24T16:48:10.385Z</time></trkpt><trkpt lat="38.1137933" lon="15.6498883"><ele>25.333333333333332</ele><time>2026-04-24T16:48:12.386Z</time></trkpt><trkpt lat="38.1138383" lon="15.6499517"><ele>26.0</ele><time>2026-04-24T16:48:13.386Z</time></trkpt><trkpt lat="38.11388" lon="15.65002"><ele>25.999999999999996</ele><time>2026-04-24T16:48:14.385Z</time></trkpt><trkpt lat="38.1139183" lon="15.6500933"><ele>26.0</ele><time>2026-04-24T16:48:15.385Z</time></trkpt><trkpt lat="38.1139583" lon="15.6501567"><ele>26.0</ele><time>2026-04-24T16:48:16.385Z</time></trkpt><trkpt lat="38.1140117" lon="15.6502433"><ele>26.0</ele><time>2026-04-24T16:48:18.386Z</time></trkpt><trkpt lat="38.11409" lon="15.6503283"><ele>25.999999999999996</ele><time>2026-04-24T16:48:20.386Z</time></trkpt><trkpt lat="38.114185" lon="15.6504033"><ele>26.0</ele><time>2026-04-24T16:48:22.385Z</time></trkpt><trkpt lat="38.1142967" lon="15.6504317"><ele>25.333333333333332</ele><time>2026-04-24T16:48:24.385Z</time></trkpt><trkpt lat="38.1143633" lon="15.6504233"><ele>24.666666666666664</ele><time>2026-04-24T16:48:25.386Z</time></trkpt><trkpt lat="38.1144317" lon="15.6504067"><ele>24.0</ele><time>2026-04-24T16:48:26.386Z</time></trkpt><trkpt lat="38.1145133" lon="15.650415"><ele>23.333333333333332</ele><time>2026-04-24T16:48:28.385Z</time></trkpt><trkpt lat="38.1145933" lon="15.6504333"><ele>22.666666666666664</ele><time>2026-04-24T16:48:31.386Z</time></trkpt><trkpt lat="38.1146833" lon="15.6504"><ele>22.0</ele><time>2026-04-24T16:48:33.386Z</time></trkpt><trkpt lat="38.1147517" lon="15.65038"><ele>22.0</ele><time>2026-04-24T16:48:34.385Z</time></trkpt><trkpt lat="38.1148283" lon="15.6503767"><ele>22.0</ele><time>2026-04-24T16:48:35.385Z</time></trkpt><trkpt lat="38.1149033" lon="15.65038"><ele>22.0</ele><time>2026-04-24T16:48:36.386Z</time></trkpt><trkpt lat="38.11497" lon="15.6503817"><ele>22.0</ele><time>2026-04-24T16:48:37.386Z</time></trkpt><trkpt lat="38.1150583" lon="15.6503783"><ele>22.0</ele><time>2026-04-24T16:48:39.386Z</time></trkpt><trkpt lat="38.115175" lon="15.6503567"><ele>22.0</ele><time>2026-04-24T16:48:47.386Z</time></trkpt><trkpt lat="38.1152483" lon="15.6503633"><ele>22.166666666666664</ele><time>2026-04-24T16:48:50.386Z</time></trkpt><trkpt lat="38.1153417" lon="15.65036"><ele>22.333333333333332</ele><time>2026-04-24T16:48:53.386Z</time></trkpt><trkpt lat="38.1154133" lon="15.6503833"><ele>22.5</ele><time>2026-04-24T16:48:55.385Z</time></trkpt><trkpt lat="38.115475" lon="15.6503667"><ele>22.666666666666668</ele><time>2026-04-24T16:48:57.386Z</time></trkpt><trkpt lat="38.1155617" lon="15.6503433"><ele>22.833333333333336</ele><time>2026-04-24T16:48:59.385Z</time></trkpt><trkpt lat="38.11568" lon="15.6503483"><ele>23.0</ele><time>2026-04-24T16:49:01.386Z</time></trkpt><trkpt lat="38.115805" lon="15.650325"><ele>22.666666666666668</ele><time>2026-04-24T16:49:03.386Z</time></trkpt><trkpt lat="38.115875" lon="15.65032"><ele>22.333333333333336</ele><time>2026-04-24T16:49:04.386Z</time></trkpt><trkpt lat="38.11594" lon="15.6503117"><ele>22.0</ele><time>2026-04-24T16:49:05.386Z</time></trkpt><trkpt lat="38.116025" lon="15.6502883"><ele>21.666666666666668</ele><time>2026-04-24T16:49:07.386Z</time></trkpt><trkpt lat="38.116135" lon="15.650275"><ele>21.333333333333332</ele><time>2026-04-24T16:49:09.385Z</time></trkpt><trkpt lat="38.1162133" lon="15.6502667"><ele>21.0</ele><time>2026-04-24T16:49:10.385Z</time></trkpt><trkpt lat="38.1163117" lon="15.650255"><ele>19.400000000000002</ele><time>2026-04-24T16:49:11.385Z</time></trkpt><trkpt lat="38.1164217" lon="15.6502367"><ele>17.8</ele><time>2026-04-24T16:49:12.385Z</time></trkpt><trkpt lat="38.1165283" lon="15.6502083"><ele>16.200000000000003</ele><time>2026-04-24T16:49:13.385Z</time></trkpt><trkpt lat="38.11662" lon="15.650195"><ele>14.600000000000001</ele><time>2026-04-24T16:49:14.386Z</time></trkpt><trkpt lat="38.1167" lon="15.6501717"><ele>13.0</ele><time>2026-04-24T16:49:15.385Z</time></trkpt><trkpt lat="38.1167667" lon="15.65016"><ele>13.0</ele><time>2026-04-24T16:49:16.385Z</time></trkpt><trkpt lat="38.1168767" lon="15.65012"><ele>13.0</ele><time>2026-04-24T16:49:18.385Z</time></trkpt><trkpt lat="38.1169683" lon="15.6501017"><ele>13.0</ele><time>2026-04-24T16:49:20.386Z</time></trkpt><trkpt lat="38.1170567" lon="15.650115"><ele>13.0</ele><time>2026-04-24T16:49:22.385Z</time></trkpt><trkpt lat="38.1171433" lon="15.6501117"><ele>13.0</ele><time>2026-04-24T16:49:24.385Z</time></trkpt><trkpt lat="38.1172333" lon="15.650115"><ele>13.0</ele><time>2026-04-24T16:49:26.385Z</time></trkpt><trkpt lat="38.117335" lon="15.6501067"><ele>13.0</ele><time>2026-04-24T16:49:28.386Z</time></trkpt><trkpt lat="38.117435" lon="15.6501"><ele>13.0</ele><time>2026-04-24T16:49:31.386Z</time></trkpt><trkpt lat="38.1175433" lon="15.6500983"><ele>13.0</ele><time>2026-04-24T16:49:33.386Z</time></trkpt><trkpt lat="38.1176267" lon="15.6500983"><ele>13.0</ele><time>2026-04-24T16:49:34.385Z</time></trkpt><trkpt lat="38.1177383" lon="15.650095"><ele>13.25</ele><time>2026-04-24T16:49:35.386Z</time></trkpt><trkpt lat="38.1178617" lon="15.65008"><ele>13.5</ele><time>2026-04-24T16:49:36.385Z</time></trkpt><trkpt lat="38.1179867" lon="15.6500617"><ele>13.75</ele><time>2026-04-24T16:49:37.385Z</time></trkpt><trkpt lat="38.11812" lon="15.6500467"><ele>14.0</ele><time>2026-04-24T16:49:38.386Z</time></trkpt><trkpt lat="38.1182467" lon="15.6500183"><ele>14.0</ele><time>2026-04-24T16:49:39.385Z</time></trkpt><trkpt lat="38.1183433" lon="15.649995"><ele>13.999999999999998</ele><time>2026-04-24T16:49:40.385Z</time></trkpt><trkpt lat="38.118445" lon="15.6499683"><ele>13.999999999999998</ele><time>2026-04-24T16:49:41.386Z</time></trkpt><trkpt lat="38.1185433" lon="15.64994"><ele>14.0</ele><time>2026-04-24T16:49:42.385Z</time></trkpt><trkpt lat="38.11864" lon="15.6499183"><ele>14.0</ele><time>2026-04-24T16:49:43.386Z</time></trkpt><trkpt lat="38.1187383" lon="15.6499017"><ele>14.000000000000002</ele><time>2026-04-24T16:49:44.385Z</time></trkpt><trkpt lat="38.1188183" lon="15.6499"><ele>14.0</ele><time>2026-04-24T16:49:45.385Z</time></trkpt><trkpt lat="38.1189017" lon="15.6499117"><ele>14.0</ele><time>2026-04-24T16:49:47.385Z</time></trkpt><trkpt lat="38.1189567" lon="15.6499617"><ele>14.0</ele><time>2026-04-24T16:49:49.386Z</time></trkpt><trkpt lat="38.1190483" lon="15.6500433"><ele>14.000000000000002</ele><time>2026-04-24T16:49:51.386Z</time></trkpt><trkpt lat="38.1191483" lon="15.65006"><ele>14.0</ele><time>2026-04-24T16:49:52.386Z</time></trkpt><trkpt lat="38.1192833" lon="15.6500833"><ele>14.333333333333334</ele><time>2026-04-24T16:49:53.386Z</time></trkpt><trkpt lat="38.11944" lon="15.650115"><ele>14.666666666666668</ele><time>2026-04-24T16:49:54.386Z</time></trkpt><trkpt lat="38.1196033" lon="15.6501817"><ele>15.0</ele><time>2026-04-24T16:49:55.385Z</time></trkpt><trkpt lat="38.119765" lon="15.650275"><ele>18.666666666666664</ele><time>2026-04-24T16:49:56.385Z</time></trkpt><trkpt lat="38.1199333" lon="15.65041"><ele>22.333333333333332</ele><time>2026-04-24T16:49:57.386Z</time></trkpt><trkpt lat="38.1201033" lon="15.6505817"><ele>26.0</ele><time>2026-04-24T16:49:58.385Z</time></trkpt><trkpt lat="38.1202733" lon="15.65077"><ele>26.0</ele><time>2026-04-24T16:49:59.386Z</time></trkpt><trkpt lat="38.1204433" lon="15.6509667"><ele>26.0</ele><time>2026-04-24T16:50:00.385Z</time></trkpt><trkpt lat="38.1206" lon="15.6511683"><ele>23.0</ele><time>2026-04-24T16:50:01.386Z</time></trkpt><trkpt lat="38.1207633" lon="15.651365"><ele>20.0</ele><time>2026-04-24T16:50:02.386Z</time></trkpt><trkpt lat="38.1209217" lon="15.6515767"><ele>20.0</ele><time>2026-04-24T16:50:03.386Z</time></trkpt><trkpt lat="38.1210767" lon="15.6517767"><ele>20.0</ele><time>2026-04-24T16:50:04.385Z</time></trkpt><trkpt lat="38.121225" lon="15.65198"><ele>20.0</ele><time>2026-04-24T16:50:05.386Z</time></trkpt><trkpt lat="38.121385" lon="15.65218"><ele>19.0</ele><time>2026-04-24T16:50:06.386Z</time></trkpt><trkpt lat="38.12155" lon="15.6523783"><ele>18.0</ele><time>2026-04-24T16:50:07.385Z</time></trkpt><trkpt lat="38.1217367" lon="15.6525617"><ele>18.0</ele><time>2026-04-24T16:50:08.386Z</time></trkpt><trkpt lat="38.1219333" lon="15.6527133"><ele>18.0</ele><time>2026-04-24T16:50:09.385Z</time></trkpt><trkpt lat="38.122145" lon="15.6528317"><ele>21.0</ele><time>2026-04-24T16:50:10.385Z</time></trkpt><trkpt lat="38.1223633" lon="15.6529317"><ele>24.0</ele><time>2026-04-24T16:50:11.386Z</time></trkpt><trkpt lat="38.1226" lon="15.6530117"><ele>24.0</ele><time>2026-04-24T16:50:12.386Z</time></trkpt><trkpt lat="38.12283" lon="15.6530733"><ele>24.0</ele><time>2026-04-24T16:50:13.385Z</time></trkpt><trkpt lat="38.1230733" lon="15.6530967"><ele>23.0</ele><time>2026-04-24T16:50:14.385Z</time></trkpt><trkpt lat="38.1233117" lon="15.6530883"><ele>22.0</ele><time>2026-04-24T16:50:15.385Z</time></trkpt><trkpt lat="38.1235617" lon="15.6530917"><ele>22.0</ele><time>2026-04-24T16:50:16.385Z</time></trkpt><trkpt lat="38.123815" lon="15.6530917"><ele>22.0</ele><time>2026-04-24T16:50:17.385Z</time></trkpt><trkpt lat="38.124075" lon="15.6530967"><ele>21.5</ele><time>2026-04-24T16:50:18.386Z</time></trkpt><trkpt lat="38.1243283" lon="15.6531033"><ele>21.0</ele><time>2026-04-24T16:50:19.386Z</time></trkpt><trkpt lat="38.1248367" lon="15.6530667"><ele>20.0</ele><time>2026-04-24T16:50:21.385Z</time></trkpt><trkpt lat="38.12509" lon="15.6530483"><ele>19.0</ele><time>2026-04-24T16:50:22.385Z</time></trkpt><trkpt lat="38.1253333" lon="15.65302"><ele>19.0</ele><time>2026-04-24T16:50:23.385Z</time></trkpt><trkpt lat="38.1255783" lon="15.653005"><ele>19.0</ele><time>2026-04-24T16:50:24.386Z</time></trkpt><trkpt lat="38.1258233" lon="15.652985"><ele>19.5</ele><time>2026-04-24T16:50:25.385Z</time></trkpt><trkpt lat="38.1260767" lon="15.6529567"><ele>20.0</ele><time>2026-04-24T16:50:26.385Z</time></trkpt><trkpt lat="38.126325" lon="15.652915"><ele>19.5</ele><time>2026-04-24T16:50:27.385Z</time></trkpt><trkpt lat="38.1265767" lon="15.6528817"><ele>19.0</ele><time>2026-04-24T16:50:28.386Z</time></trkpt><trkpt lat="38.12682" lon="15.6528617"><ele>19.0</ele><time>2026-04-24T16:50:29.386Z</time></trkpt><trkpt lat="38.12705" lon="15.6528533"><ele>19.0</ele><time>2026-04-24T16:50:30.386Z</time></trkpt><trkpt lat="38.127295" lon="15.6528317"><ele>19.5</ele><time>2026-04-24T16:50:31.386Z</time></trkpt><trkpt lat="38.1275283" lon="15.6528133"><ele>20.0</ele><time>2026-04-24T16:50:32.385Z</time></trkpt><trkpt lat="38.1277633" lon="15.6527933"><ele>14.5</ele><time>2026-04-24T16:50:33.385Z</time></trkpt><trkpt lat="38.1280017" lon="15.652785"><ele>9.0</ele><time>2026-04-24T16:50:34.385Z</time></trkpt><trkpt lat="38.1282367" lon="15.65278"><ele>14.0</ele><time>2026-04-24T16:50:35.386Z</time></trkpt><trkpt lat="38.1284717" lon="15.6527983"><ele>19.0</ele><time>2026-04-24T16:50:36.385Z</time></trkpt><trkpt lat="38.1287183" lon="15.6528333"><ele>19.0</ele><time>2026-04-24T16:50:37.385Z</time></trkpt><trkpt lat="38.128955" lon="15.652895"><ele>19.0</ele><time>2026-04-24T16:50:38.386Z</time></trkpt><trkpt lat="38.1291867" lon="15.6529867"><ele>16.5</ele><time>2026-04-24T16:50:39.386Z</time></trkpt><trkpt lat="38.1294167" lon="15.6530917"><ele>14.0</ele><time>2026-04-24T16:50:40.385Z</time></trkpt><trkpt lat="38.1296283" lon="15.65322"><ele>14.0</ele><time>2026-04-24T16:50:41.386Z</time></trkpt><trkpt lat="38.129835" lon="15.65338"><ele>14.0</ele><time>2026-04-24T16:50:42.386Z</time></trkpt><trkpt lat="38.1300217" lon="15.6535583"><ele>17.333333333333336</ele><time>2026-04-24T16:50:43.385Z</time></trkpt><trkpt lat="38.130195" lon="15.6537483"><ele>20.666666666666668</ele><time>2026-04-24T16:50:44.385Z</time></trkpt><trkpt lat="38.1303533" lon="15.653925"><ele>24.0</ele><time>2026-04-24T16:50:45.386Z</time></trkpt><trkpt lat="38.130515" lon="15.6540883"><ele>24.0</ele><time>2026-04-24T16:50:46.386Z</time></trkpt><trkpt lat="38.1306683" lon="15.6542283"><ele>24.0</ele><time>2026-04-24T16:50:47.385Z</time></trkpt><trkpt lat="38.13084" lon="15.654325"><ele>24.0</ele><time>2026-04-24T16:50:48.386Z</time></trkpt><trkpt lat="38.1310117" lon="15.6544033"><ele>22.666666666666668</ele><time>2026-04-24T16:50:49.386Z</time></trkpt><trkpt lat="38.131195" lon="15.654465"><ele>21.333333333333336</ele><time>2026-04-24T16:50:50.385Z</time></trkpt><trkpt lat="38.1313767" lon="15.6545117"><ele>20.0</ele><time>2026-04-24T16:50:51.385Z</time></trkpt><trkpt lat="38.1315417" lon="15.65456"><ele>17.333333333333336</ele><time>2026-04-24T16:50:52.385Z</time></trkpt><trkpt lat="38.1317017" lon="15.654615"><ele>14.666666666666668</ele><time>2026-04-24T16:50:53.386Z</time></trkpt><trkpt lat="38.13185" lon="15.654695"><ele>12.0</ele><time>2026-04-24T16:50:54.386Z</time></trkpt><trkpt lat="38.131975" lon="15.6547917"><ele>12.0</ele><time>2026-04-24T16:50:55.385Z</time></trkpt><trkpt lat="38.1320933" lon="15.6549167"><ele>12.0</ele><time>2026-04-24T16:50:56.386Z</time></trkpt><trkpt lat="38.13219" lon="15.6550567"><ele>12.0</ele><time>2026-04-24T16:50:57.385Z</time></trkpt><trkpt lat="38.1322967" lon="15.655185"><ele>12.0</ele><time>2026-04-24T16:50:58.385Z</time></trkpt><trkpt lat="38.132395" lon="15.6553017"><ele>12.8</ele><time>2026-04-24T16:50:59.386Z</time></trkpt><trkpt lat="38.1324867" lon="15.6553817"><ele>13.6</ele><time>2026-04-24T16:51:00.386Z</time></trkpt><trkpt lat="38.1325567" lon="15.6554617"><ele>14.400000000000002</ele><time>2026-04-24T16:51:01.385Z</time></trkpt><trkpt lat="38.1326267" lon="15.6555183"><ele>15.200000000000001</ele><time>2026-04-24T16:51:02.385Z</time></trkpt><trkpt lat="38.1327033" lon="15.6555567"><ele>16.0</ele><time>2026-04-24T16:51:03.386Z</time></trkpt><trkpt lat="38.1328017" lon="15.6556217"><ele>16.0</ele><time>2026-04-24T16:51:04.387Z</time></trkpt><trkpt lat="38.1329" lon="15.6556917"><ele>16.0</ele><time>2026-04-24T16:51:05.387Z</time></trkpt><trkpt lat="38.13301" lon="15.6557617"><ele>16.0</ele><time>2026-04-24T16:51:06.387Z</time></trkpt><trkpt lat="38.1331333" lon="15.65584"><ele>16.0</ele><time>2026-04-24T16:51:07.386Z</time></trkpt><trkpt lat="38.1332633" lon="15.655935"><ele>14.333333333333332</ele><time>2026-04-24T16:51:08.386Z</time></trkpt><trkpt lat="38.1333967" lon="15.6560283"><ele>12.666666666666666</ele><time>2026-04-24T16:51:09.386Z</time></trkpt><trkpt lat="38.1335367" lon="15.656095"><ele>11.0</ele><time>2026-04-24T16:51:10.387Z</time></trkpt><trkpt lat="38.1336833" lon="15.6561717"><ele>11.333333333333332</ele><time>2026-04-24T16:51:11.386Z</time></trkpt><trkpt lat="38.1338367" lon="15.6562567"><ele>11.666666666666666</ele><time>2026-04-24T16:51:12.387Z</time></trkpt><trkpt lat="38.1339917" lon="15.6563317"><ele>12.0</ele><time>2026-04-24T16:51:13.386Z</time></trkpt><trkpt lat="38.1341283" lon="15.65639"><ele>12.0</ele><time>2026-04-24T16:51:14.386Z</time></trkpt><trkpt lat="38.1342383" lon="15.65645"><ele>12.0</ele><time>2026-04-24T16:51:15.386Z</time></trkpt><trkpt lat="38.1343417" lon="15.6565017"><ele>12.0</ele><time>2026-04-24T16:51:16.387Z</time></trkpt><trkpt lat="38.1344533" lon="15.6565683"><ele>12.0</ele><time>2026-04-24T16:51:17.387Z</time></trkpt><trkpt lat="38.1345867" lon="15.6566383"><ele>12.0</ele><time>2026-04-24T16:51:18.386Z</time></trkpt><trkpt lat="38.1347217" lon="15.65671"><ele>12.0</ele><time>2026-04-24T16:51:19.386Z</time></trkpt><trkpt lat="38.134875" lon="15.65679"><ele>12.0</ele><time>2026-04-24T16:51:20.387Z</time></trkpt><trkpt lat="38.1350267" lon="15.6568617"><ele>13.333333333333332</ele><time>2026-04-24T16:51:21.386Z</time></trkpt><trkpt lat="38.1351767" lon="15.6569467"><ele>14.666666666666666</ele><time>2026-04-24T16:51:22.386Z</time></trkpt><trkpt lat="38.1353367" lon="15.6570233"><ele>16.0</ele><time>2026-04-24T16:51:23.386Z</time></trkpt><trkpt lat="38.1355033" lon="15.65709"><ele>16.0</ele><time>2026-04-24T16:51:24.386Z</time></trkpt><trkpt lat="38.1356833" lon="15.6571533"><ele>16.0</ele><time>2026-04-24T16:51:25.387Z</time></trkpt><trkpt lat="38.13587" lon="15.6572"><ele>16.0</ele><time>2026-04-24T16:51:26.386Z</time></trkpt><trkpt lat="38.1360467" lon="15.6572533"><ele>15.333333333333332</ele><time>2026-04-24T16:51:27.386Z</time></trkpt><trkpt lat="38.136215" lon="15.657305"><ele>14.666666666666668</ele><time>2026-04-24T16:51:28.387Z</time></trkpt><trkpt lat="38.13637" lon="15.6573617"><ele>14.0</ele><time>2026-04-24T16:51:29.386Z</time></trkpt><trkpt lat="38.1365067" lon="15.6574117"><ele>15.25</ele><time>2026-04-24T16:51:30.386Z</time></trkpt><trkpt lat="38.1366317" lon="15.65745"><ele>16.5</ele><time>2026-04-24T16:51:31.386Z</time></trkpt><trkpt lat="38.1367467" lon="15.6574683"><ele>17.75</ele><time>2026-04-24T16:51:32.387Z</time></trkpt><trkpt lat="38.1368667" lon="15.657485"><ele>19.0</ele><time>2026-04-24T16:51:33.386Z</time></trkpt><trkpt lat="38.13701" lon="15.6574683"><ele>19.0</ele><time>2026-04-24T16:51:34.386Z</time></trkpt><trkpt lat="38.137155" lon="15.6574483"><ele>19.0</ele><time>2026-04-24T16:51:35.386Z</time></trkpt><trkpt lat="38.1373" lon="15.657415"><ele>19.0</ele><time>2026-04-24T16:51:36.387Z</time></trkpt><trkpt lat="38.1374417" lon="15.657405"><ele>19.0</ele><time>2026-04-24T16:51:37.386Z</time></trkpt><trkpt lat="38.13758" lon="15.6573933"><ele>18.0</ele><time>2026-04-24T16:51:38.386Z</time></trkpt><trkpt lat="38.137715" lon="15.6573883"><ele>17.0</ele><time>2026-04-24T16:51:39.387Z</time></trkpt><trkpt lat="38.1378433" lon="15.6573867"><ele>16.0</ele><time>2026-04-24T16:51:40.386Z</time></trkpt><trkpt lat="38.1379883" lon="15.6573983"><ele>15.0</ele><time>2026-04-24T16:51:41.386Z</time></trkpt><trkpt lat="38.1381183" lon="15.6574017"><ele>15.0</ele><time>2026-04-24T16:51:42.387Z</time></trkpt><trkpt lat="38.1382583" lon="15.6574167"><ele>15.0</ele><time>2026-04-24T16:51:43.386Z</time></trkpt><trkpt lat="38.1383967" lon="15.65741"><ele>15.0</ele><time>2026-04-24T16:51:44.386Z</time></trkpt><trkpt lat="38.138535" lon="15.6574167"><ele>15.0</ele><time>2026-04-24T16:51:45.387Z</time></trkpt><trkpt lat="38.13868" lon="15.6574133"><ele>15.0</ele><time>2026-04-24T16:51:46.387Z</time></trkpt><trkpt lat="38.1388167" lon="15.6574183"><ele>15.0</ele><time>2026-04-24T16:51:47.387Z</time></trkpt><trkpt lat="38.138955" lon="15.6574217"><ele>15.0</ele><time>2026-04-24T16:51:48.386Z</time></trkpt><trkpt lat="38.139095" lon="15.6574217"><ele>15.0</ele><time>2026-04-24T16:51:49.387Z</time></trkpt><trkpt lat="38.1392417" lon="15.657415"><ele>15.5</ele><time>2026-04-24T16:51:50.387Z</time></trkpt><trkpt lat="38.13938" lon="15.6574067"><ele>16.0</ele><time>2026-04-24T16:51:51.387Z</time></trkpt><trkpt lat="38.139515" lon="15.6574067"><ele>16.5</ele><time>2026-04-24T16:51:52.387Z</time></trkpt><trkpt lat="38.1396583" lon="15.6574"><ele>17.0</ele><time>2026-04-24T16:51:53.386Z</time></trkpt><trkpt lat="38.1397967" lon="15.6573983"><ele>17.75</ele><time>2026-04-24T16:51:54.387Z</time></trkpt><trkpt lat="38.1399333" lon="15.657405"><ele>18.5</ele><time>2026-04-24T16:51:55.386Z</time></trkpt><trkpt lat="38.14007" lon="15.65742"><ele>19.25</ele><time>2026-04-24T16:51:56.386Z</time></trkpt><trkpt lat="38.14021" lon="15.657425"><ele>20.0</ele><time>2026-04-24T16:51:57.386Z</time></trkpt><trkpt lat="38.1403467" lon="15.657435"><ele>20.0</ele><time>2026-04-24T16:51:58.386Z</time></trkpt><trkpt lat="38.140485" lon="15.657445"><ele>20.0</ele><time>2026-04-24T16:51:59.387Z</time></trkpt><trkpt lat="38.1406217" lon="15.657445"><ele>20.0</ele><time>2026-04-24T16:52:00.387Z</time></trkpt><trkpt lat="38.1407617" lon="15.65744"><ele>20.0</ele><time>2026-04-24T16:52:01.387Z</time></trkpt><trkpt lat="38.14089" lon="15.6574167"><ele>20.0</ele><time>2026-04-24T16:52:02.387Z</time></trkpt><trkpt lat="38.1410217" lon="15.6573683"><ele>20.0</ele><time>2026-04-24T16:52:03.386Z</time></trkpt><trkpt lat="38.1411483" lon="15.6572967"><ele>20.0</ele><time>2026-04-24T16:52:04.386Z</time></trkpt><trkpt lat="38.141275" lon="15.6572233"><ele>20.0</ele><time>2026-04-24T16:52:05.386Z</time></trkpt><trkpt lat="38.1413983" lon="15.6571333"><ele>20.0</ele><time>2026-04-24T16:52:06.387Z</time></trkpt><trkpt lat="38.14152" lon="15.6570467"><ele>20.0</ele><time>2026-04-24T16:52:07.386Z</time></trkpt><trkpt lat="38.1416383" lon="15.65695"><ele>20.0</ele><time>2026-04-24T16:52:08.386Z</time></trkpt><trkpt lat="38.1417533" lon="15.6568617"><ele>20.0</ele><time>2026-04-24T16:52:09.386Z</time></trkpt><trkpt lat="38.141875" lon="15.656785"><ele>18.5</ele><time>2026-04-24T16:52:10.387Z</time></trkpt><trkpt lat="38.1420017" lon="15.656705"><ele>17.0</ele><time>2026-04-24T16:52:11.386Z</time></trkpt><trkpt lat="38.1421183" lon="15.6566283"><ele>15.5</ele><time>2026-04-24T16:52:12.386Z</time></trkpt><trkpt lat="38.1422333" lon="15.65654"><ele>14.0</ele><time>2026-04-24T16:52:13.387Z</time></trkpt><trkpt lat="38.1423483" lon="15.656445"><ele>14.5</ele><time>2026-04-24T16:52:14.387Z</time></trkpt><trkpt lat="38.142465" lon="15.6563617"><ele>15.0</ele><time>2026-04-24T16:52:15.387Z</time></trkpt><trkpt lat="38.1425783" lon="15.6562833"><ele>15.5</ele><time>2026-04-24T16:52:16.386Z</time></trkpt><trkpt lat="38.1427083" lon="15.6562033"><ele>16.0</ele><time>2026-04-24T16:52:17.386Z</time></trkpt><trkpt lat="38.1428367" lon="15.6561267"><ele>16.333333333333332</ele><time>2026-04-24T16:52:18.387Z</time></trkpt><trkpt lat="38.1429667" lon="15.65604"><ele>16.666666666666668</ele><time>2026-04-24T16:52:19.386Z</time></trkpt><trkpt lat="38.1431" lon="15.6559417"><ele>17.0</ele><time>2026-04-24T16:52:20.386Z</time></trkpt><trkpt lat="38.1432283" lon="15.6558433"><ele>17.0</ele><time>2026-04-24T16:52:21.387Z</time></trkpt><trkpt lat="38.1433617" lon="15.6557517"><ele>17.0</ele><time>2026-04-24T16:52:22.387Z</time></trkpt><trkpt lat="38.1434967" lon="15.6556533"><ele>17.0</ele><time>2026-04-24T16:52:23.387Z</time></trkpt><trkpt lat="38.1436333" lon="15.6555533"><ele>17.0</ele><time>2026-04-24T16:52:24.387Z</time></trkpt><trkpt lat="38.1437667" lon="15.6554533"><ele>17.0</ele><time>2026-04-24T16:52:25.387Z</time></trkpt><trkpt lat="38.143895" lon="15.6553567"><ele>17.0</ele><time>2026-04-24T16:52:26.387Z</time></trkpt><trkpt lat="38.1440217" lon="15.6552617"><ele>15.5</ele><time>2026-04-24T16:52:27.386Z</time></trkpt><trkpt lat="38.1441517" lon="15.6551783"><ele>14.0</ele><time>2026-04-24T16:52:28.387Z</time></trkpt><trkpt lat="38.1442833" lon="15.6551033"><ele>12.5</ele><time>2026-04-24T16:52:29.387Z</time></trkpt><trkpt lat="38.1444183" lon="15.6550217"><ele>11.0</ele><time>2026-04-24T16:52:30.386Z</time></trkpt><trkpt lat="38.1445517" lon="15.65495"><ele>11.0</ele><time>2026-04-24T16:52:31.387Z</time></trkpt><trkpt lat="38.144685" lon="15.6549017"><ele>11.0</ele><time>2026-04-24T16:52:32.387Z</time></trkpt><trkpt lat="38.1448133" lon="15.6548667"><ele>11.0</ele><time>2026-04-24T16:52:33.386Z</time></trkpt><trkpt lat="38.1449517" lon="15.6548233"><ele>11.0</ele><time>2026-04-24T16:52:34.386Z</time></trkpt><trkpt lat="38.1450783" lon="15.6547883"><ele>11.5</ele><time>2026-04-24T16:52:35.386Z</time></trkpt><trkpt lat="38.1452" lon="15.65476"><ele>12.0</ele><time>2026-04-24T16:52:36.386Z</time></trkpt><trkpt lat="38.1453167" lon="15.6547367"><ele>12.5</ele><time>2026-04-24T16:52:37.386Z</time></trkpt><trkpt lat="38.1454317" lon="15.6547117"><ele>13.0</ele><time>2026-04-24T16:52:38.386Z</time></trkpt><trkpt lat="38.145555" lon="15.6546983"><ele>13.0</ele><time>2026-04-24T16:52:39.386Z</time></trkpt><trkpt lat="38.1456867" lon="15.6546867"><ele>13.0</ele><time>2026-04-24T16:52:40.387Z</time></trkpt><trkpt lat="38.1458" lon="15.6546867"><ele>13.0</ele><time>2026-04-24T16:52:41.386Z</time></trkpt><trkpt lat="38.1459083" lon="15.6546733"><ele>13.0</ele><time>2026-04-24T16:52:42.387Z</time></trkpt><trkpt lat="38.1460117" lon="15.65466"><ele>13.0</ele><time>2026-04-24T16:52:43.387Z</time></trkpt><trkpt lat="38.1461083" lon="15.654665"><ele>13.0</ele><time>2026-04-24T16:52:44.387Z</time></trkpt><trkpt lat="38.14621" lon="15.6546683"><ele>13.0</ele><time>2026-04-24T16:52:45.386Z</time></trkpt><trkpt lat="38.1463083" lon="15.6546883"><ele>13.0</ele><time>2026-04-24T16:52:46.386Z</time></trkpt><trkpt lat="38.1464017" lon="15.6547167"><ele>13.0</ele><time>2026-04-24T16:52:47.386Z</time></trkpt><trkpt lat="38.1464867" lon="15.6547367"><ele>12.833333333333332</ele><time>2026-04-24T16:52:48.386Z</time></trkpt><trkpt lat="38.1465733" lon="15.6547617"><ele>12.666666666666666</ele><time>2026-04-24T16:52:49.387Z</time></trkpt><trkpt lat="38.146645" lon="15.654785"><ele>12.5</ele><time>2026-04-24T16:52:50.387Z</time></trkpt><trkpt lat="38.1467083" lon="15.6548183"><ele>12.333333333333332</ele><time>2026-04-24T16:52:51.386Z</time></trkpt><trkpt lat="38.1468233" lon="15.6548667"><ele>12.166666666666666</ele><time>2026-04-24T16:52:53.386Z</time></trkpt><trkpt lat="38.146895" lon="15.65488"><ele>12.0</ele><time>2026-04-24T16:52:54.386Z</time></trkpt><trkpt lat="38.14698" lon="15.6549"><ele>12.0</ele><time>2026-04-24T16:52:55.386Z</time></trkpt><trkpt lat="38.1470767" lon="15.654935"><ele>12.0</ele><time>2026-04-24T16:52:56.386Z</time></trkpt><trkpt lat="38.14717" lon="15.6549733"><ele>12.0</ele><time>2026-04-24T16:52:57.386Z</time></trkpt><trkpt lat="38.1472583" lon="15.655015"><ele>12.0</ele><time>2026-04-24T16:52:58.387Z</time></trkpt><trkpt lat="38.1473467" lon="15.6550533"><ele>12.0</ele><time>2026-04-24T16:52:59.386Z</time></trkpt><trkpt lat="38.14744" lon="15.6551067"><ele>12.25</ele><time>2026-04-24T16:53:00.387Z</time></trkpt><trkpt lat="38.147535" lon="15.6551633"><ele>12.5</ele><time>2026-04-24T16:53:01.386Z</time></trkpt><trkpt lat="38.147635" lon="15.655225"><ele>12.75</ele><time>2026-04-24T16:53:02.387Z</time></trkpt><trkpt lat="38.1477333" lon="15.6552883"><ele>13.0</ele><time>2026-04-24T16:53:03.386Z</time></trkpt><trkpt lat="38.1478483" lon="15.6553567"><ele>13.0</ele><time>2026-04-24T16:53:04.386Z</time></trkpt><trkpt lat="38.1479667" lon="15.6554267"><ele>13.0</ele><time>2026-04-24T16:53:05.386Z</time></trkpt><trkpt lat="38.148095" lon="15.655515"><ele>13.0</ele><time>2026-04-24T16:53:06.387Z</time></trkpt><trkpt lat="38.1482267" lon="15.6555967"><ele>13.0</ele><time>2026-04-24T16:53:07.386Z</time></trkpt><trkpt lat="38.1483583" lon="15.6556783"><ele>11.333333333333332</ele><time>2026-04-24T16:53:08.387Z</time></trkpt><trkpt lat="38.1484933" lon="15.6557617"><ele>9.666666666666666</ele><time>2026-04-24T16:53:09.387Z</time></trkpt><trkpt lat="38.14864" lon="15.65584"><ele>8.0</ele><time>2026-04-24T16:53:10.387Z</time></trkpt><trkpt lat="38.1487867" lon="15.6559267"><ele>8.0</ele><time>2026-04-24T16:53:11.387Z</time></trkpt><trkpt lat="38.1489283" lon="15.65602"><ele>8.0</ele><time>2026-04-24T16:53:12.387Z</time></trkpt><trkpt lat="38.1490667" lon="15.6561167"><ele>8.0</ele><time>2026-04-24T16:53:13.387Z</time></trkpt><trkpt lat="38.1491983" lon="15.6562"><ele>8.600000000000001</ele><time>2026-04-24T16:53:14.387Z</time></trkpt><trkpt lat="38.1493117" lon="15.6562717"><ele>9.200000000000001</ele><time>2026-04-24T16:53:15.386Z</time></trkpt><trkpt lat="38.14942" lon="15.6563433"><ele>9.8</ele><time>2026-04-24T16:53:16.386Z</time></trkpt><trkpt lat="38.1495183" lon="15.656405"><ele>10.4</ele><time>2026-04-24T16:53:17.387Z</time></trkpt><trkpt lat="38.1495933" lon="15.6564633"><ele>11.0</ele><time>2026-04-24T16:53:18.387Z</time></trkpt><trkpt lat="38.1496533" lon="15.6565283"><ele>11.0</ele><time>2026-04-24T16:53:19.386Z</time></trkpt><trkpt lat="38.14969" lon="15.6566033"><ele>11.0</ele><time>2026-04-24T16:53:20.386Z</time></trkpt><trkpt lat="38.1496833" lon="15.6567583"><ele>11.0</ele><time>2026-04-24T16:53:22.387Z</time></trkpt><trkpt lat="38.1496467" lon="15.6568417"><ele>11.0</ele><time>2026-04-24T16:53:23.386Z</time></trkpt><trkpt lat="38.1496033" lon="15.6569267"><ele>11.0</ele><time>2026-04-24T16:53:24.386Z</time></trkpt><trkpt lat="38.1495667" lon="15.657"><ele>11.0</ele><time>2026-04-24T16:53:25.386Z</time></trkpt><trkpt lat="38.14952" lon="15.65711"><ele>12.0</ele><time>2026-04-24T16:53:27.386Z</time></trkpt><trkpt lat="38.1495517" lon="15.65721"><ele>13.0</ele><time>2026-04-24T16:53:31.387Z</time></trkpt><trkpt lat="38.149685" lon="15.657275"><ele>14.000000000000002</ele><time>2026-04-24T16:53:33.386Z</time></trkpt><trkpt lat="38.149765" lon="15.657305"><ele>15.0</ele><time>2026-04-24T16:53:34.387Z</time></trkpt><trkpt lat="38.149845" lon="15.6573267"><ele>16.0</ele><time>2026-04-24T16:53:35.387Z</time></trkpt><trkpt lat="38.1499217" lon="15.65735"><ele>15.999999999999998</ele><time>2026-04-24T16:53:36.387Z</time></trkpt><trkpt lat="38.15" lon="15.657365"><ele>16.0</ele><time>2026-04-24T16:53:37.386Z</time></trkpt><trkpt lat="38.15008" lon="15.65739"><ele>16.0</ele><time>2026-04-24T16:53:38.386Z</time></trkpt><trkpt lat="38.1501667" lon="15.657415"><ele>16.0</ele><time>2026-04-24T16:53:39.386Z</time></trkpt><trkpt lat="38.150245" lon="15.6574383"><ele>15.999999999999998</ele><time>2026-04-24T16:53:40.386Z</time></trkpt><trkpt lat="38.1503183" lon="15.657465"><ele>16.0</ele><time>2026-04-24T16:53:41.386Z</time></trkpt><trkpt lat="38.150395" lon="15.657495"><ele>15.999999999999998</ele><time>2026-04-24T16:53:42.386Z</time></trkpt><trkpt lat="38.1504933" lon="15.6575517"><ele>16.0</ele><time>2026-04-24T16:53:43.386Z</time></trkpt><trkpt lat="38.1505567" lon="15.657575"><ele>16.0</ele><time>2026-04-24T16:53:44.386Z</time></trkpt><trkpt lat="38.1506167" lon="15.6576017"><ele>16.0</ele><time>2026-04-24T16:53:45.387Z</time></trkpt><trkpt lat="38.150735" lon="15.6576133"><ele>15.999999999999998</ele><time>2026-04-24T16:53:47.386Z</time></trkpt><trkpt lat="38.1508017" lon="15.6576267"><ele>16.0</ele><time>2026-04-24T16:53:48.387Z</time></trkpt><trkpt lat="38.1508667" lon="15.6576483"><ele>15.333333333333332</ele><time>2026-04-24T16:53:49.387Z</time></trkpt><trkpt lat="38.1509383" lon="15.6576617"><ele>14.666666666666666</ele><time>2026-04-24T16:53:50.387Z</time></trkpt><trkpt lat="38.1510467" lon="15.6577"><ele>14.0</ele><time>2026-04-24T16:53:52.386Z</time></trkpt><trkpt lat="38.1511167" lon="15.6577333"><ele>13.333333333333332</ele><time>2026-04-24T16:53:54.386Z</time></trkpt><trkpt lat="38.1511817" lon="15.6577367"><ele>12.666666666666666</ele><time>2026-04-24T16:53:57.387Z</time></trkpt><trkpt lat="38.1512583" lon="15.6577617"><ele>12.0</ele><time>2026-04-24T16:54:00.387Z</time></trkpt><trkpt lat="38.1513733" lon="15.657785"><ele>12.6</ele><time>2026-04-24T16:54:02.386Z</time></trkpt><trkpt lat="38.1515017" lon="15.6577967"><ele>13.2</ele><time>2026-04-24T16:54:04.386Z</time></trkpt><trkpt lat="38.15158" lon="15.6578"><ele>13.8</ele><time>2026-04-24T16:54:05.386Z</time></trkpt><trkpt lat="38.1516533" lon="15.65781"><ele>14.4</ele><time>2026-04-24T16:54:06.386Z</time></trkpt><trkpt lat="38.1517333" lon="15.6578233"><ele>15.0</ele><time>2026-04-24T16:54:07.386Z</time></trkpt><trkpt lat="38.1518217" lon="15.6578483"><ele>15.0</ele><time>2026-04-24T16:54:08.387Z</time></trkpt><trkpt lat="38.1519083" lon="15.65788"><ele>15.0</ele><time>2026-04-24T16:54:09.387Z</time></trkpt><trkpt lat="38.1520017" lon="15.6579083"><ele>15.0</ele><time>2026-04-24T16:54:10.387Z</time></trkpt><trkpt lat="38.1521" lon="15.6579467"><ele>15.0</ele><time>2026-04-24T16:54:11.387Z</time></trkpt><trkpt lat="38.1521917" lon="15.657965"><ele>15.0</ele><time>2026-04-24T16:54:12.387Z</time></trkpt><trkpt lat="38.1522883" lon="15.6579567"><ele>14.8</ele><time>2026-04-24T16:54:13.387Z</time></trkpt><trkpt lat="38.152385" lon="15.6579483"><ele>14.6</ele><time>2026-04-24T16:54:14.386Z</time></trkpt><trkpt lat="38.1524767" lon="15.657925"><ele>14.399999999999999</ele><time>2026-04-24T16:54:15.387Z</time></trkpt><trkpt lat="38.1525717" lon="15.6579017"><ele>14.2</ele><time>2026-04-24T16:54:16.386Z</time></trkpt><trkpt lat="38.1526583" lon="15.6578783"><ele>14.0</ele><time>2026-04-24T16:54:17.386Z</time></trkpt><trkpt lat="38.1527483" lon="15.6578617"><ele>14.000000000000002</ele><time>2026-04-24T16:54:18.386Z</time></trkpt><trkpt lat="38.1528283" lon="15.6578317"><ele>14.0</ele><time>2026-04-24T16:54:19.387Z</time></trkpt><trkpt lat="38.1529117" lon="15.657805"><ele>14.0</ele><time>2026-04-24T16:54:20.386Z</time></trkpt><trkpt lat="38.152995" lon="15.657775"><ele>14.0</ele><time>2026-04-24T16:54:21.386Z</time></trkpt><trkpt lat="38.1530783" lon="15.6577417"><ele>14.000000000000002</ele><time>2026-04-24T16:54:22.386Z</time></trkpt><trkpt lat="38.1531683" lon="15.657705"><ele>14.0</ele><time>2026-04-24T16:54:23.386Z</time></trkpt><trkpt lat="38.1532483" lon="15.657685"><ele>14.000000000000002</ele><time>2026-04-24T16:54:24.386Z</time></trkpt><trkpt lat="38.1533267" lon="15.6576733"><ele>14.0</ele><time>2026-04-24T16:54:25.386Z</time></trkpt><trkpt lat="38.1534133" lon="15.65765"><ele>14.0</ele><time>2026-04-24T16:54:26.386Z</time></trkpt><trkpt lat="38.1535" lon="15.65764"><ele>14.0</ele><time>2026-04-24T16:54:27.387Z</time></trkpt><trkpt lat="38.1535817" lon="15.657615"><ele>14.000000000000002</ele><time>2026-04-24T16:54:28.386Z</time></trkpt><trkpt lat="38.153665" lon="15.6575917"><ele>14.0</ele><time>2026-04-24T16:54:29.386Z</time></trkpt><trkpt lat="38.1537567" lon="15.6575667"><ele>14.000000000000002</ele><time>2026-04-24T16:54:30.386Z</time></trkpt><trkpt lat="38.153845" lon="15.6575467"><ele>14.0</ele><time>2026-04-24T16:54:31.386Z</time></trkpt><trkpt lat="38.15393" lon="15.65754"><ele>14.0</ele><time>2026-04-24T16:54:32.387Z</time></trkpt><trkpt lat="38.1540083" lon="15.6575283"><ele>14.0</ele><time>2026-04-24T16:54:33.387Z</time></trkpt><trkpt lat="38.1540833" lon="15.6575267"><ele>14.000000000000002</ele><time>2026-04-24T16:54:34.386Z</time></trkpt><trkpt lat="38.154155" lon="15.657525"><ele>14.0</ele><time>2026-04-24T16:54:35.387Z</time></trkpt><trkpt lat="38.1542283" lon="15.657515"><ele>13.857142857142858</ele><time>2026-04-24T16:54:36.387Z</time></trkpt><trkpt lat="38.1543" lon="15.6575"><ele>13.714285714285715</ele><time>2026-04-24T16:54:37.386Z</time></trkpt><trkpt lat="38.15437" lon="15.6574983"><ele>13.571428571428571</ele><time>2026-04-24T16:54:38.386Z</time></trkpt><trkpt lat="38.1544367" lon="15.6575"><ele>13.428571428571429</ele><time>2026-04-24T16:54:39.386Z</time></trkpt><trkpt lat="38.154505" lon="15.6574917"><ele>13.285714285714286</ele><time>2026-04-24T16:54:40.387Z</time></trkpt><trkpt lat="38.1545733" lon="15.6574917"><ele>13.142857142857142</ele><time>2026-04-24T16:54:41.387Z</time></trkpt><trkpt lat="38.15464" lon="15.6574883"><ele>13.0</ele><time>2026-04-24T16:54:42.387Z</time></trkpt><trkpt lat="38.1547117" lon="15.65748"><ele>13.0</ele><time>2026-04-24T16:54:43.387Z</time></trkpt><trkpt lat="38.154775" lon="15.6574833"><ele>13.0</ele><time>2026-04-24T16:54:44.386Z</time></trkpt><trkpt lat="38.1548383" lon="15.657485"><ele>13.0</ele><time>2026-04-24T16:54:45.387Z</time></trkpt><trkpt lat="38.15494" lon="15.6575"><ele>13.0</ele><time>2026-04-24T16:54:47.387Z</time></trkpt><trkpt lat="38.1550067" lon="15.657615"><ele>13.0</ele><time>2026-04-24T16:54:49.386Z</time></trkpt><trkpt lat="38.15509" lon="15.6577117"><ele>13.666666666666666</ele><time>2026-04-24T16:54:51.386Z</time></trkpt><trkpt lat="38.1551933" lon="15.657795"><ele>14.333333333333332</ele><time>2026-04-24T16:54:53.386Z</time></trkpt><trkpt lat="38.1552533" lon="15.6578617"><ele>15.0</ele><time>2026-04-24T16:54:55.386Z</time></trkpt><trkpt lat="38.1553183" lon="15.6578567"><ele>15.666666666666668</ele><time>2026-04-24T16:54:57.386Z</time></trkpt><trkpt lat="38.1553733" lon="15.6578133"><ele>16.333333333333336</ele><time>2026-04-24T16:54:58.386Z</time></trkpt><trkpt lat="38.155445" lon="15.65776"><ele>17.0</ele><time>2026-04-24T16:54:59.386Z</time></trkpt><trkpt lat="38.1555267" lon="15.657695"><ele>17.0</ele><time>2026-04-24T16:55:00.387Z</time></trkpt><trkpt lat="38.1556233" lon="15.6576283"><ele>17.0</ele><time>2026-04-24T16:55:01.386Z</time></trkpt><trkpt lat="38.1557267" lon="15.6575517"><ele>17.0</ele><time>2026-04-24T16:55:02.387Z</time></trkpt><trkpt lat="38.155835" lon="15.65748"><ele>17.0</ele><time>2026-04-24T16:55:03.387Z</time></trkpt><trkpt lat="38.1559533" lon="15.657415"><ele>17.0</ele><time>2026-04-24T16:55:04.386Z</time></trkpt><trkpt lat="38.1560767" lon="15.6573683"><ele>17.0</ele><time>2026-04-24T16:55:05.386Z</time></trkpt><trkpt lat="38.1562067" lon="15.6573217"><ele>17.0</ele><time>2026-04-24T16:55:06.387Z</time></trkpt><trkpt lat="38.1563333" lon="15.6572683"><ele>17.0</ele><time>2026-04-24T16:55:07.387Z</time></trkpt><trkpt lat="38.1564583" lon="15.6572117"><ele>17.75</ele><time>2026-04-24T16:55:08.386Z</time></trkpt><trkpt lat="38.15658" lon="15.65716"><ele>18.5</ele><time>2026-04-24T16:55:09.386Z</time></trkpt><trkpt lat="38.1566983" lon="15.6571067"><ele>19.25</ele><time>2026-04-24T16:55:10.386Z</time></trkpt><trkpt lat="38.1568217" lon="15.6570533"><ele>20.0</ele><time>2026-04-24T16:55:11.387Z</time></trkpt><trkpt lat="38.1569383" lon="15.6570033"><ele>20.0</ele><time>2026-04-24T16:55:12.387Z</time></trkpt><trkpt lat="38.1570517" lon="15.65695"><ele>20.0</ele><time>2026-04-24T16:55:13.386Z</time></trkpt><trkpt lat="38.1571633" lon="15.656895"><ele>20.0</ele><time>2026-04-24T16:55:14.387Z</time></trkpt><trkpt lat="38.1572733" lon="15.656855"><ele>20.0</ele><time>2026-04-24T16:55:15.387Z</time></trkpt><trkpt lat="38.1573867" lon="15.6568233"><ele>21.25</ele><time>2026-04-24T16:55:16.387Z</time></trkpt><trkpt lat="38.1575017" lon="15.65677"><ele>22.5</ele><time>2026-04-24T16:55:17.387Z</time></trkpt><trkpt lat="38.1576033" lon="15.656705"><ele>23.75</ele><time>2026-04-24T16:55:18.386Z</time></trkpt><trkpt lat="38.157705" lon="15.6566667"><ele>25.0</ele><time>2026-04-24T16:55:19.386Z</time></trkpt><trkpt lat="38.15782" lon="15.6566117"><ele>25.0</ele><time>2026-04-24T16:55:20.386Z</time></trkpt><trkpt lat="38.1579383" lon="15.6565717"><ele>25.0</ele><time>2026-04-24T16:55:21.386Z</time></trkpt><trkpt lat="38.15805" lon="15.6565333"><ele>25.0</ele><time>2026-04-24T16:55:22.386Z</time></trkpt><trkpt lat="38.15816" lon="15.65649"><ele>25.0</ele><time>2026-04-24T16:55:23.386Z</time></trkpt><trkpt lat="38.1582683" lon="15.6564333"><ele>24.4</ele><time>2026-04-24T16:55:24.386Z</time></trkpt><trkpt lat="38.158365" lon="15.656385"><ele>23.8</ele><time>2026-04-24T16:55:25.386Z</time></trkpt><trkpt lat="38.1584667" lon="15.65634"><ele>23.200000000000003</ele><time>2026-04-24T16:55:26.386Z</time></trkpt><trkpt lat="38.1585783" lon="15.656305"><ele>22.6</ele><time>2026-04-24T16:55:27.387Z</time></trkpt><trkpt lat="38.15869" lon="15.6562583"><ele>22.0</ele><time>2026-04-24T16:55:28.387Z</time></trkpt><trkpt lat="38.158795" lon="15.6562167"><ele>22.0</ele><time>2026-04-24T16:55:29.387Z</time></trkpt><trkpt lat="38.1588933" lon="15.6561667"><ele>22.0</ele><time>2026-04-24T16:55:30.386Z</time></trkpt><trkpt lat="38.1589817" lon="15.656125"><ele>22.0</ele><time>2026-04-24T16:55:31.386Z</time></trkpt><trkpt lat="38.159065" lon="15.6560833"><ele>22.0</ele><time>2026-04-24T16:55:32.386Z</time></trkpt><trkpt lat="38.1591583" lon="15.6560467"><ele>22.0</ele><time>2026-04-24T16:55:33.386Z</time></trkpt><trkpt lat="38.15925" lon="15.6560083"><ele>21.5</ele><time>2026-04-24T16:55:34.387Z</time></trkpt><trkpt lat="38.1593333" lon="15.6559717"><ele>21.0</ele><time>2026-04-24T16:55:35.386Z</time></trkpt><trkpt lat="38.1594167" lon="15.6559333"><ele>20.5</ele><time>2026-04-24T16:55:36.386Z</time></trkpt><trkpt lat="38.1594917" lon="15.6559017"><ele>20.0</ele><time>2026-04-24T16:55:37.386Z</time></trkpt><trkpt lat="38.15957" lon="15.655875"><ele>19.5</ele><time>2026-04-24T16:55:38.387Z</time></trkpt><trkpt lat="38.15964" lon="15.6558267"><ele>19.0</ele><time>2026-04-24T16:55:39.386Z</time></trkpt><trkpt lat="38.1597017" lon="15.6558067"><ele>19.0</ele><time>2026-04-24T16:55:40.386Z</time></trkpt><trkpt lat="38.159815" lon="15.6557767"><ele>19.0</ele><time>2026-04-24T16:55:42.386Z</time></trkpt><trkpt lat="38.1599017" lon="15.6557633"><ele>19.0</ele><time>2026-04-24T16:55:44.387Z</time></trkpt><trkpt lat="38.1599983" lon="15.6557433"><ele>19.0</ele><time>2026-04-24T16:55:46.386Z</time></trkpt><trkpt lat="38.1601133" lon="15.6557033"><ele>19.0</ele><time>2026-04-24T16:55:48.387Z</time></trkpt><trkpt lat="38.1602317" lon="15.6556533"><ele>19.0</ele><time>2026-04-24T16:55:50.387Z</time></trkpt><trkpt lat="38.160295" lon="15.6556367"><ele>19.0</ele><time>2026-04-24T16:55:51.386Z</time></trkpt><trkpt lat="38.16036" lon="15.655615"><ele>19.0</ele><time>2026-04-24T16:55:52.387Z</time></trkpt><trkpt lat="38.1604267" lon="15.6555917"><ele>19.0</ele><time>2026-04-24T16:55:53.387Z</time></trkpt><trkpt lat="38.1604883" lon="15.65557"><ele>19.0</ele><time>2026-04-24T16:55:54.387Z</time></trkpt><trkpt lat="38.1605983" lon="15.6555317"><ele>19.0</ele><time>2026-04-24T16:55:56.386Z</time></trkpt><trkpt lat="38.1606633" lon="15.6555133"><ele>19.0</ele><time>2026-04-24T16:55:57.386Z</time></trkpt><trkpt lat="38.1607417" lon="15.6554917"><ele>19.0</ele><time>2026-04-24T16:55:58.387Z</time></trkpt><trkpt lat="38.1608333" lon="15.655475"><ele>19.0</ele><time>2026-04-24T16:55:59.387Z</time></trkpt><trkpt lat="38.1609333" lon="15.6554583"><ele>19.0</ele><time>2026-04-24T16:56:00.386Z</time></trkpt><trkpt lat="38.16104" lon="15.6554383"><ele>19.0</ele><time>2026-04-24T16:56:01.386Z</time></trkpt><trkpt lat="38.1611467" lon="15.6554233"><ele>19.0</ele><time>2026-04-24T16:56:02.387Z</time></trkpt><trkpt lat="38.16125" lon="15.655405"><ele>19.0</ele><time>2026-04-24T16:56:03.386Z</time></trkpt><trkpt lat="38.1613467" lon="15.6553783"><ele>19.0</ele><time>2026-04-24T16:56:04.387Z</time></trkpt><trkpt lat="38.1614517" lon="15.6553483"><ele>19.0</ele><time>2026-04-24T16:56:05.387Z</time></trkpt><trkpt lat="38.161555" lon="15.655325"><ele>19.0</ele><time>2026-04-24T16:56:06.387Z</time></trkpt><trkpt lat="38.1616517" lon="15.6552933"><ele>19.0</ele><time>2026-04-24T16:56:07.387Z</time></trkpt><trkpt lat="38.1617567" lon="15.6552617"><ele>18.25</ele><time>2026-04-24T16:56:08.386Z</time></trkpt><trkpt lat="38.1618717" lon="15.6552283"><ele>17.5</ele><time>2026-04-24T16:56:09.387Z</time></trkpt><trkpt lat="38.1619783" lon="15.6552417"><ele>16.75</ele><time>2026-04-24T16:56:10.387Z</time></trkpt><trkpt lat="38.162085" lon="15.655175"><ele>16.0</ele><time>2026-04-24T16:56:11.386Z</time></trkpt><trkpt lat="38.1622017" lon="15.6551267"><ele>16.0</ele><time>2026-04-24T16:56:12.386Z</time></trkpt><trkpt lat="38.1623133" lon="15.6550767"><ele>16.0</ele><time>2026-04-24T16:56:13.387Z</time></trkpt><trkpt lat="38.16243" lon="15.6550233"><ele>16.0</ele><time>2026-04-24T16:56:14.386Z</time></trkpt><trkpt lat="38.1625533" lon="15.6549717"><ele>16.0</ele><time>2026-04-24T16:56:15.386Z</time></trkpt><trkpt lat="38.162675" lon="15.65492"><ele>16.0</ele><time>2026-04-24T16:56:16.387Z</time></trkpt><trkpt lat="38.16279" lon="15.6548783"><ele>16.0</ele><time>2026-04-24T16:56:17.387Z</time></trkpt><trkpt lat="38.162905" lon="15.6548317"><ele>16.0</ele><time>2026-04-24T16:56:18.387Z</time></trkpt><trkpt lat="38.1630133" lon="15.6547917"><ele>16.0</ele><time>2026-04-24T16:56:19.386Z</time></trkpt><trkpt lat="38.1631083" lon="15.6547533"><ele>16.0</ele><time>2026-04-24T16:56:20.386Z</time></trkpt><trkpt lat="38.1631967" lon="15.654705"><ele>16.0</ele><time>2026-04-24T16:56:21.387Z</time></trkpt><trkpt lat="38.16328" lon="15.6546633"><ele>16.0</ele><time>2026-04-24T16:56:22.386Z</time></trkpt><trkpt lat="38.1633633" lon="15.6546183"><ele>16.0</ele><time>2026-04-24T16:56:23.386Z</time></trkpt><trkpt lat="38.16345" lon="15.6545617"><ele>16.0</ele><time>2026-04-24T16:56:24.386Z</time></trkpt><trkpt lat="38.1635333" lon="15.65452"><ele>16.0</ele><time>2026-04-24T16:56:25.386Z</time></trkpt><trkpt lat="38.1636133" lon="15.654485"><ele>16.0</ele><time>2026-04-24T16:56:26.386Z</time></trkpt><trkpt lat="38.1637017" lon="15.6544117"><ele>16.0</ele><time>2026-04-24T16:56:27.386Z</time></trkpt><trkpt lat="38.163785" lon="15.6543833"><ele>16.0</ele><time>2026-04-24T16:56:28.387Z</time></trkpt><trkpt lat="38.1638667" lon="15.6543583"><ele>16.0</ele><time>2026-04-24T16:56:29.386Z</time></trkpt><trkpt lat="38.1639533" lon="15.6543217"><ele>15.999999999999998</ele><time>2026-04-24T16:56:30.387Z</time></trkpt><trkpt lat="38.1640283" lon="15.6542917"><ele>16.0</ele><time>2026-04-24T16:56:31.386Z</time></trkpt><trkpt lat="38.1641033" lon="15.654265"><ele>16.0</ele><time>2026-04-24T16:56:32.387Z</time></trkpt><trkpt lat="38.16418" lon="15.6542333"><ele>16.0</ele><time>2026-04-24T16:56:33.386Z</time></trkpt><trkpt lat="38.1642483" lon="15.65421"><ele>15.999999999999998</ele><time>2026-04-24T16:56:34.386Z</time></trkpt><trkpt lat="38.1643183" lon="15.65418"><ele>16.0</ele><time>2026-04-24T16:56:35.386Z</time></trkpt><trkpt lat="38.164395" lon="15.6541467"><ele>16.333333333333332</ele><time>2026-04-24T16:56:36.387Z</time></trkpt><trkpt lat="38.1644717" lon="15.6541067"><ele>16.666666666666664</ele><time>2026-04-24T16:56:37.387Z</time></trkpt><trkpt lat="38.1645483" lon="15.65408"><ele>17.0</ele><time>2026-04-24T16:56:38.386Z</time></trkpt><trkpt lat="38.1646233" lon="15.6540583"><ele>17.333333333333332</ele><time>2026-04-24T16:56:39.387Z</time></trkpt><trkpt lat="38.1647067" lon="15.6540317"><ele>17.666666666666668</ele><time>2026-04-24T16:56:40.387Z</time></trkpt><trkpt lat="38.164795" lon="15.6540033"><ele>18.0</ele><time>2026-04-24T16:56:41.387Z</time></trkpt><trkpt lat="38.16487" lon="15.6539667"><ele>18.5</ele><time>2026-04-24T16:56:42.387Z</time></trkpt><trkpt lat="38.1649417" lon="15.6539383"><ele>19.0</ele><time>2026-04-24T16:56:43.386Z</time></trkpt><trkpt lat="38.1650167" lon="15.653905"><ele>19.5</ele><time>2026-04-24T16:56:44.386Z</time></trkpt><trkpt lat="38.165095" lon="15.65388"><ele>20.0</ele><time>2026-04-24T16:56:45.386Z</time></trkpt><trkpt lat="38.165175" lon="15.6538567"><ele>20.5</ele><time>2026-04-24T16:56:46.386Z</time></trkpt><trkpt lat="38.1652567" lon="15.65383"><ele>21.0</ele><time>2026-04-24T16:56:47.386Z</time></trkpt><trkpt lat="38.1653333" lon="15.653795"><ele>21.0</ele><time>2026-04-24T16:56:48.386Z</time></trkpt><trkpt lat="38.16542" lon="15.6537583"><ele>21.0</ele><time>2026-04-24T16:56:49.386Z</time></trkpt><trkpt lat="38.165505" lon="15.65373"><ele>21.0</ele><time>2026-04-24T16:56:50.386Z</time></trkpt><trkpt lat="38.1655817" lon="15.65371"><ele>21.0</ele><time>2026-04-24T16:56:51.386Z</time></trkpt><trkpt lat="38.1656567" lon="15.65368"><ele>21.0</ele><time>2026-04-24T16:56:52.386Z</time></trkpt><trkpt lat="38.1657333" lon="15.6536583"><ele>21.0</ele><time>2026-04-24T16:56:53.386Z</time></trkpt><trkpt lat="38.1658033" lon="15.6536317"><ele>20.8</ele><time>2026-04-24T16:56:54.386Z</time></trkpt><trkpt lat="38.1658617" lon="15.6536"><ele>20.6</ele><time>2026-04-24T16:56:55.387Z</time></trkpt><trkpt lat="38.165925" lon="15.65359"><ele>20.4</ele><time>2026-04-24T16:56:56.387Z</time></trkpt><trkpt lat="38.166025" lon="15.6535417"><ele>20.2</ele><time>2026-04-24T16:56:58.386Z</time></trkpt><trkpt lat="38.1661283" lon="15.6534783"><ele>20.0</ele><time>2026-04-24T16:57:00.387Z</time></trkpt><trkpt lat="38.1662467" lon="15.653425"><ele>20.0</ele><time>2026-04-24T16:57:02.387Z</time></trkpt><trkpt lat="38.16632" lon="15.6533983"><ele>20.0</ele><time>2026-04-24T16:57:03.386Z</time></trkpt><trkpt lat="38.166405" lon="15.653375"><ele>20.0</ele><time>2026-04-24T16:57:04.386Z</time></trkpt><trkpt lat="38.1664883" lon="15.6533483"><ele>20.0</ele><time>2026-04-24T16:57:05.386Z</time></trkpt><trkpt lat="38.1665717" lon="15.6533167"><ele>20.0</ele><time>2026-04-24T16:57:06.386Z</time></trkpt><trkpt lat="38.1666417" lon="15.653295"><ele>20.0</ele><time>2026-04-24T16:57:07.386Z</time></trkpt><trkpt lat="38.1667117" lon="15.6532783"><ele>20.714285714285715</ele><time>2026-04-24T16:57:08.387Z</time></trkpt><trkpt lat="38.1667833" lon="15.6532617"><ele>21.42857142857143</ele><time>2026-04-24T16:57:09.386Z</time></trkpt><trkpt lat="38.1668467" lon="15.65324"><ele>22.142857142857146</ele><time>2026-04-24T16:57:10.387Z</time></trkpt><trkpt lat="38.1669117" lon="15.6532267"><ele>22.857142857142858</ele><time>2026-04-24T16:57:11.386Z</time></trkpt><trkpt lat="38.1669767" lon="15.6532033"><ele>23.571428571428573</ele><time>2026-04-24T16:57:12.386Z</time></trkpt><trkpt lat="38.1670467" lon="15.65316"><ele>24.28571428571429</ele><time>2026-04-24T16:57:13.387Z</time></trkpt><trkpt lat="38.167115" lon="15.6531367"><ele>25.0</ele><time>2026-04-24T16:57:14.386Z</time></trkpt><trkpt lat="38.1671767" lon="15.653115"><ele>25.0</ele><time>2026-04-24T16:57:15.386Z</time></trkpt><trkpt lat="38.16729" lon="15.6530933"><ele>25.0</ele><time>2026-04-24T16:57:17.386Z</time></trkpt><trkpt lat="38.1673967" lon="15.653085"><ele>25.0</ele><time>2026-04-24T16:57:19.386Z</time></trkpt><trkpt lat="38.167515" lon="15.6530667"><ele>25.0</ele><time>2026-04-24T16:57:21.386Z</time></trkpt><trkpt lat="38.1676267" lon="15.65303"><ele>25.000000000000004</ele><time>2026-04-24T16:57:23.386Z</time></trkpt><trkpt lat="38.1676933" lon="15.6530133"><ele>25.0</ele><time>2026-04-24T16:57:24.387Z</time></trkpt><trkpt lat="38.167795" lon="15.6529933"><ele>25.0</ele><time>2026-04-24T16:57:26.386Z</time></trkpt><trkpt lat="38.1678917" lon="15.6529583"><ele>25.0</ele><time>2026-04-24T16:57:28.387Z</time></trkpt><trkpt lat="38.16796" lon="15.6529417"><ele>25.000000000000004</ele><time>2026-04-24T16:57:29.387Z</time></trkpt><trkpt lat="38.1680283" lon="15.652915"><ele>25.0</ele><time>2026-04-24T16:57:30.386Z</time></trkpt><trkpt lat="38.1680967" lon="15.6528883"><ele>25.0</ele><time>2026-04-24T16:57:31.386Z</time></trkpt><trkpt lat="38.1681667" lon="15.6528617"><ele>25.0</ele><time>2026-04-24T16:57:32.386Z</time></trkpt><trkpt lat="38.1682317" lon="15.6528317"><ele>25.0</ele><time>2026-04-24T16:57:33.387Z</time></trkpt><trkpt lat="38.1683483" lon="15.652775"><ele>25.0</ele><time>2026-04-24T16:57:35.386Z</time></trkpt><trkpt lat="38.168455" lon="15.6527383"><ele>25.0</ele><time>2026-04-24T16:57:37.386Z</time></trkpt><trkpt lat="38.16854" lon="15.6528133"><ele>25.2</ele><time>2026-04-24T16:57:39.386Z</time></trkpt><trkpt lat="38.1685633" lon="15.6529067"><ele>25.4</ele><time>2026-04-24T16:57:40.386Z</time></trkpt><trkpt lat="38.168575" lon="15.65302"><ele>25.6</ele><time>2026-04-24T16:57:41.386Z</time></trkpt><trkpt lat="38.1686017" lon="15.6531417"><ele>25.8</ele><time>2026-04-24T16:57:42.387Z</time></trkpt><trkpt lat="38.1686433" lon="15.6532617"><ele>26.0</ele><time>2026-04-24T16:57:43.387Z</time></trkpt><trkpt lat="38.1686783" lon="15.653395"><ele>26.0</ele><time>2026-04-24T16:57:44.386Z</time></trkpt><trkpt lat="38.1687183" lon="15.6535183"><ele>26.0</ele><time>2026-04-24T16:57:45.386Z</time></trkpt><trkpt lat="38.168765" lon="15.6536267"><ele>26.0</ele><time>2026-04-24T16:57:46.386Z</time></trkpt><trkpt lat="38.1688017" lon="15.65373"><ele>26.0</ele><time>2026-04-24T16:57:47.387Z</time></trkpt><trkpt lat="38.1688367" lon="15.653835"><ele>26.0</ele><time>2026-04-24T16:57:48.387Z</time></trkpt><trkpt lat="38.16888" lon="15.653945"><ele>26.0</ele><time>2026-04-24T16:57:49.387Z</time></trkpt><trkpt lat="38.168935" lon="15.65405"><ele>26.0</ele><time>2026-04-24T16:57:50.386Z</time></trkpt><trkpt lat="38.1690017" lon="15.65416"><ele>26.0</ele><time>2026-04-24T16:57:51.387Z</time></trkpt><trkpt lat="38.169065" lon="15.6542733"><ele>26.0</ele><time>2026-04-24T16:57:52.386Z</time></trkpt><trkpt lat="38.16911" lon="15.6544083"><ele>26.0</ele><time>2026-04-24T16:57:53.387Z</time></trkpt><trkpt lat="38.16918" lon="15.6545183"><ele>27.0</ele><time>2026-04-24T16:57:54.386Z</time></trkpt><trkpt lat="38.1692217" lon="15.654655"><ele>28.0</ele><time>2026-04-24T16:57:55.386Z</time></trkpt><trkpt lat="38.1692633" lon="15.65479"><ele>29.0</ele><time>2026-04-24T16:57:56.387Z</time></trkpt><trkpt lat="38.1693167" lon="15.6549283"><ele>30.0</ele><time>2026-04-24T16:57:57.386Z</time></trkpt><trkpt lat="38.1693683" lon="15.6550667"><ele>30.0</ele><time>2026-04-24T16:57:58.387Z</time></trkpt><trkpt lat="38.1694067" lon="15.655195"><ele>30.0</ele><time>2026-04-24T16:57:59.386Z</time></trkpt><trkpt lat="38.16945" lon="15.65532"><ele>30.0</ele><time>2026-04-24T16:58:00.386Z</time></trkpt><trkpt lat="38.1694883" lon="15.6554383"><ele>30.0</ele><time>2026-04-24T16:58:01.386Z</time></trkpt><trkpt lat="38.16953" lon="15.6555467"><ele>30.0</ele><time>2026-04-24T16:58:02.386Z</time></trkpt><trkpt lat="38.1695667" lon="15.6556467"><ele>30.166666666666668</ele><time>2026-04-24T16:58:03.386Z</time></trkpt><trkpt lat="38.1695967" lon="15.6557233"><ele>30.333333333333336</ele><time>2026-04-24T16:58:04.387Z</time></trkpt><trkpt lat="38.1696483" lon="15.655855"><ele>30.5</ele><time>2026-04-24T16:58:06.386Z</time></trkpt><trkpt lat="38.16968" lon="15.6559533"><ele>30.666666666666668</ele><time>2026-04-24T16:58:08.387Z</time></trkpt><trkpt lat="38.1697133" lon="15.65605"><ele>30.833333333333336</ele><time>2026-04-24T16:58:11.386Z</time></trkpt><trkpt lat="38.169745" lon="15.656155"><ele>31.0</ele><time>2026-04-24T16:58:13.387Z</time></trkpt><trkpt lat="38.1697683" lon="15.6562317"><ele>31.6</ele><time>2026-04-24T16:58:14.386Z</time></trkpt><trkpt lat="38.1698133" lon="15.65633"><ele>32.2</ele><time>2026-04-24T16:58:15.387Z</time></trkpt><trkpt lat="38.169865" lon="15.6564617"><ele>32.8</ele><time>2026-04-24T16:58:16.386Z</time></trkpt><trkpt lat="38.1699183" lon="15.65659"><ele>33.4</ele><time>2026-04-24T16:58:17.386Z</time></trkpt><trkpt lat="38.1699667" lon="15.65673"><ele>34.0</ele><time>2026-04-24T16:58:18.386Z</time></trkpt><trkpt lat="38.1700217" lon="15.65685"><ele>35.0</ele><time>2026-04-24T16:58:19.387Z</time></trkpt><trkpt lat="38.1700733" lon="15.65696"><ele>36.0</ele><time>2026-04-24T16:58:20.386Z</time></trkpt><trkpt lat="38.1701217" lon="15.6570733"><ele>37.0</ele><time>2026-04-24T16:58:21.387Z</time></trkpt><trkpt lat="38.1701467" lon="15.6572"><ele>38.0</ele><time>2026-04-24T16:58:22.387Z</time></trkpt><trkpt lat="38.1701467" lon="15.6573317"><ele>39.0</ele><time>2026-04-24T16:58:23.387Z</time></trkpt><trkpt lat="38.17013" lon="15.657465"><ele>39.0</ele><time>2026-04-24T16:58:24.387Z</time></trkpt><trkpt lat="38.1701083" lon="15.657605"><ele>39.0</ele><time>2026-04-24T16:58:25.387Z</time></trkpt><trkpt lat="38.1700867" lon="15.6577483"><ele>39.0</ele><time>2026-04-24T16:58:26.387Z</time></trkpt><trkpt lat="38.17007" lon="15.6578917"><ele>39.0</ele><time>2026-04-24T16:58:27.386Z</time></trkpt><trkpt lat="38.1700683" lon="15.658035"><ele>39.25</ele><time>2026-04-24T16:58:28.386Z</time></trkpt><trkpt lat="38.1701017" lon="15.658175"><ele>39.5</ele><time>2026-04-24T16:58:29.387Z</time></trkpt><trkpt lat="38.1701467" lon="15.65831"><ele>39.75</ele><time>2026-04-24T16:58:30.386Z</time></trkpt><trkpt lat="38.1702133" lon="15.6584317"><ele>40.0</ele><time>2026-04-24T16:58:31.387Z</time></trkpt><trkpt lat="38.1702867" lon="15.6585367"><ele>40.8</ele><time>2026-04-24T16:58:32.387Z</time></trkpt><trkpt lat="38.1703533" lon="15.65864"><ele>41.6</ele><time>2026-04-24T16:58:33.386Z</time></trkpt><trkpt lat="38.1704083" lon="15.658745"><ele>42.400000000000006</ele><time>2026-04-24T16:58:34.387Z</time></trkpt><trkpt lat="38.1704633" lon="15.6588517"><ele>43.2</ele><time>2026-04-24T16:58:35.386Z</time></trkpt><trkpt lat="38.170515" lon="15.65896"><ele>44.0</ele><time>2026-04-24T16:58:36.387Z</time></trkpt><trkpt lat="38.17056" lon="15.6590533"><ele>44.0</ele><time>2026-04-24T16:58:37.386Z</time></trkpt><trkpt lat="38.1705933" lon="15.6591467"><ele>44.0</ele><time>2026-04-24T16:58:38.386Z</time></trkpt><trkpt lat="38.17064" lon="15.6592383"><ele>44.0</ele><time>2026-04-24T16:58:39.387Z</time></trkpt><trkpt lat="38.1706783" lon="15.65932"><ele>44.0</ele><time>2026-04-24T16:58:40.386Z</time></trkpt><trkpt lat="38.17071" lon="15.659405"><ele>44.0</ele><time>2026-04-24T16:58:41.387Z</time></trkpt><trkpt lat="38.170765" lon="15.65954"><ele>44.0</ele><time>2026-04-24T16:58:43.386Z</time></trkpt><trkpt lat="38.1707933" lon="15.6596233"><ele>45.33333333333333</ele><time>2026-04-24T16:58:45.387Z</time></trkpt><trkpt lat="38.1708383" lon="15.659715"><ele>46.666666666666664</ele><time>2026-04-24T16:58:48.387Z</time></trkpt><trkpt lat="38.17087" lon="15.6598283"><ele>48.0</ele><time>2026-04-24T16:58:50.386Z</time></trkpt><trkpt lat="38.1708933" lon="15.6599717"><ele>49.33333333333333</ele><time>2026-04-24T16:58:52.387Z</time></trkpt><trkpt lat="38.1709117" lon="15.6600483"><ele>50.666666666666664</ele><time>2026-04-24T16:58:53.387Z</time></trkpt><trkpt lat="38.1709367" lon="15.660135"><ele>52.0</ele><time>2026-04-24T16:58:54.386Z</time></trkpt><trkpt lat="38.1709683" lon="15.66022"><ele>52.83333333333333</ele><time>2026-04-24T16:58:55.387Z</time></trkpt><trkpt lat="38.1709917" lon="15.66031"><ele>53.666666666666664</ele><time>2026-04-24T16:58:56.387Z</time></trkpt><trkpt lat="38.1710183" lon="15.6604133"><ele>54.5</ele><time>2026-04-24T16:58:57.386Z</time></trkpt><trkpt lat="38.1710567" lon="15.6605217"><ele>55.33333333333333</ele><time>2026-04-24T16:58:58.386Z</time></trkpt><trkpt lat="38.1710917" lon="15.6606233"><ele>56.166666666666664</ele><time>2026-04-24T16:58:59.387Z</time></trkpt><trkpt lat="38.17113" lon="15.66073"><ele>57.0</ele><time>2026-04-24T16:59:00.386Z</time></trkpt><trkpt lat="38.1711583" lon="15.6608417"><ele>57.0</ele><time>2026-04-24T16:59:01.386Z</time></trkpt><trkpt lat="38.1711883" lon="15.6609583"><ele>57.0</ele><time>2026-04-24T16:59:02.386Z</time></trkpt><trkpt lat="38.1712167" lon="15.6610817"><ele>57.0</ele><time>2026-04-24T16:59:03.387Z</time></trkpt><trkpt lat="38.1712483" lon="15.6612067"><ele>57.0</ele><time>2026-04-24T16:59:04.387Z</time></trkpt><trkpt lat="38.17128" lon="15.6613267"><ele>57.0</ele><time>2026-04-24T16:59:05.386Z</time></trkpt><trkpt lat="38.1712967" lon="15.6614517"><ele>56.8</ele><time>2026-04-24T16:59:06.386Z</time></trkpt><trkpt lat="38.1713133" lon="15.6615817"><ele>56.6</ele><time>2026-04-24T16:59:07.386Z</time></trkpt><trkpt lat="38.17133" lon="15.66171"><ele>56.39999999999999</ele><time>2026-04-24T16:59:08.387Z</time></trkpt><trkpt lat="38.1713383" lon="15.661825"><ele>56.199999999999996</ele><time>2026-04-24T16:59:09.387Z</time></trkpt><trkpt lat="38.1713517" lon="15.66194"><ele>56.0</ele><time>2026-04-24T16:59:10.386Z</time></trkpt><trkpt lat="38.17136" lon="15.6620483"><ele>56.50000000000001</ele><time>2026-04-24T16:59:11.386Z</time></trkpt><trkpt lat="38.1713633" lon="15.66216"><ele>57.0</ele><time>2026-04-24T16:59:12.386Z</time></trkpt><trkpt lat="38.17137" lon="15.66227"><ele>57.5</ele><time>2026-04-24T16:59:13.387Z</time></trkpt><trkpt lat="38.1713733" lon="15.6623783"><ele>58.0</ele><time>2026-04-24T16:59:14.386Z</time></trkpt><trkpt lat="38.1713817" lon="15.662465"><ele>58.50000000000001</ele><time>2026-04-24T16:59:15.386Z</time></trkpt><trkpt lat="38.1713917" lon="15.662595"><ele>59.0</ele><time>2026-04-24T16:59:17.387Z</time></trkpt><trkpt lat="38.17141" lon="15.6626967"><ele>59.6</ele><time>2026-04-24T16:59:20.386Z</time></trkpt><trkpt lat="38.1714367" lon="15.662795"><ele>60.2</ele><time>2026-04-24T16:59:22.386Z</time></trkpt><trkpt lat="38.171455" lon="15.6629133"><ele>60.800000000000004</ele><time>2026-04-24T16:59:24.386Z</time></trkpt><trkpt lat="38.1714767" lon="15.6630367"><ele>61.400000000000006</ele><time>2026-04-24T16:59:26.387Z</time></trkpt><trkpt lat="38.1715083" lon="15.6631617"><ele>62.0</ele><time>2026-04-24T16:59:28.387Z</time></trkpt><trkpt lat="38.1715517" lon="15.6632767"><ele>62.50000000000001</ele><time>2026-04-24T16:59:30.387Z</time></trkpt><trkpt lat="38.1715867" lon="15.6633433"><ele>63.0</ele><time>2026-04-24T16:59:31.386Z</time></trkpt><trkpt lat="38.1716567" lon="15.6634667"><ele>63.5</ele><time>2026-04-24T16:59:33.386Z</time></trkpt><trkpt lat="38.1717217" lon="15.6635983"><ele>64.0</ele><time>2026-04-24T16:59:35.386Z</time></trkpt><trkpt lat="38.1717717" lon="15.66366"><ele>64.5</ele><time>2026-04-24T16:59:36.387Z</time></trkpt><trkpt lat="38.17182" lon="15.6637267"><ele>65.0</ele><time>2026-04-24T16:59:37.386Z</time></trkpt><trkpt lat="38.171865" lon="15.663795"><ele>65.5</ele><time>2026-04-24T16:59:38.386Z</time></trkpt><trkpt lat="38.1719067" lon="15.663855"><ele>66.0</ele><time>2026-04-24T16:59:39.386Z</time></trkpt><trkpt lat="38.1719583" lon="15.663915"><ele>66.5</ele><time>2026-04-24T16:59:40.387Z</time></trkpt><trkpt lat="38.17201" lon="15.6639883"><ele>67.0</ele><time>2026-04-24T16:59:41.386Z</time></trkpt><trkpt lat="38.172065" lon="15.6640683"><ele>67.5</ele><time>2026-04-24T16:59:42.387Z</time></trkpt><trkpt lat="38.1721233" lon="15.6641583"><ele>68.0</ele><time>2026-04-24T16:59:43.387Z</time></trkpt><trkpt lat="38.1721867" lon="15.6642317"><ele>68.0</ele><time>2026-04-24T16:59:44.386Z</time></trkpt><trkpt lat="38.1722617" lon="15.6643"><ele>68.0</ele><time>2026-04-24T16:59:45.386Z</time></trkpt><trkpt lat="38.1723467" lon="15.6643483"><ele>68.0</ele><time>2026-04-24T16:59:46.386Z</time></trkpt><trkpt lat="38.1724183" lon="15.6644267"><ele>68.0</ele><time>2026-04-24T16:59:47.386Z</time></trkpt><trkpt lat="38.1724917" lon="15.6645117"><ele>68.0</ele><time>2026-04-24T16:59:48.386Z</time></trkpt><trkpt lat="38.1725617" lon="15.6645933"><ele>68.5</ele><time>2026-04-24T16:59:49.386Z</time></trkpt><trkpt lat="38.17263" lon="15.6646783"><ele>69.0</ele><time>2026-04-24T16:59:50.386Z</time></trkpt><trkpt lat="38.1726933" lon="15.664745"><ele>69.5</ele><time>2026-04-24T16:59:51.387Z</time></trkpt><trkpt lat="38.1727667" lon="15.6647983"><ele>70.0</ele><time>2026-04-24T16:59:52.387Z</time></trkpt><trkpt lat="38.1728317" lon="15.6648717"><ele>70.5</ele><time>2026-04-24T16:59:53.387Z</time></trkpt><trkpt lat="38.1729133" lon="15.6649233"><ele>71.0</ele><time>2026-04-24T16:59:54.387Z</time></trkpt><trkpt lat="38.1729983" lon="15.6649717"><ele>71.0</ele><time>2026-04-24T16:59:55.386Z</time></trkpt><trkpt lat="38.1730767" lon="15.6650283"><ele>71.0</ele><time>2026-04-24T16:59:56.387Z</time></trkpt><trkpt lat="38.1731483" lon="15.6650967"><ele>71.0</ele><time>2026-04-24T16:59:57.387Z</time></trkpt><trkpt lat="38.1732167" lon="15.6651633"><ele>71.0</ele><time>2026-04-24T16:59:58.386Z</time></trkpt><trkpt lat="38.173285" lon="15.6652283"><ele>71.0</ele><time>2026-04-24T16:59:59.386Z</time></trkpt><trkpt lat="38.1733517" lon="15.6652817"><ele>71.0</ele><time>2026-04-24T17:00:00.387Z</time></trkpt><trkpt lat="38.1734083" lon="15.6653367"><ele>71.6</ele><time>2026-04-24T17:00:01.387Z</time></trkpt><trkpt lat="38.1735017" lon="15.6654333"><ele>72.19999999999999</ele><time>2026-04-24T17:00:03.386Z</time></trkpt><trkpt lat="38.1735133" lon="15.6655133"><ele>72.80000000000001</ele><time>2026-04-24T17:00:05.386Z</time></trkpt><trkpt lat="38.1734383" lon="15.6656"><ele>73.4</ele><time>2026-04-24T17:00:07.387Z</time></trkpt><trkpt lat="38.1733433" lon="15.6656633"><ele>74.0</ele><time>2026-04-24T17:00:09.387Z</time></trkpt><trkpt lat="38.1732383" lon="15.6656117"><ele>74.2</ele><time>2026-04-24T17:00:11.386Z</time></trkpt><trkpt lat="38.1731433" lon="15.66557"><ele>74.4</ele><time>2026-04-24T17:00:13.386Z</time></trkpt><trkpt lat="38.1730417" lon="15.66565"><ele>74.6</ele><time>2026-04-24T17:00:15.387Z</time></trkpt><trkpt lat="38.1729883" lon="15.6657383"><ele>74.8</ele><time>2026-04-24T17:00:16.387Z</time></trkpt><trkpt lat="38.1729333" lon="15.6658367"><ele>75.0</ele><time>2026-04-24T17:00:17.386Z</time></trkpt><trkpt lat="38.1728783" lon="15.6659433"><ele>75.0</ele><time>2026-04-24T17:00:18.386Z</time></trkpt><trkpt lat="38.1728383" lon="15.6660433"><ele>75.0</ele><time>2026-04-24T17:00:19.386Z</time></trkpt><trkpt lat="38.1728133" lon="15.6661567"><ele>75.0</ele><time>2026-04-24T17:00:20.387Z</time></trkpt><trkpt lat="38.1728067" lon="15.6662683"><ele>75.0</ele><time>2026-04-24T17:00:21.387Z</time></trkpt><trkpt lat="38.1728017" lon="15.6663933"><ele>75.0</ele><time>2026-04-24T17:00:22.387Z</time></trkpt><trkpt lat="38.172795" lon="15.6665233"><ele>75.6</ele><time>2026-04-24T17:00:23.387Z</time></trkpt><trkpt lat="38.172785" lon="15.6666583"><ele>76.2</ele><time>2026-04-24T17:00:24.387Z</time></trkpt><trkpt lat="38.17278" lon="15.66679"><ele>76.8</ele><time>2026-04-24T17:00:25.387Z</time></trkpt><trkpt lat="38.172775" lon="15.66692"><ele>77.4</ele><time>2026-04-24T17:00:26.386Z</time></trkpt><trkpt lat="38.172775" lon="15.667045"><ele>78.0</ele><time>2026-04-24T17:00:27.386Z</time></trkpt><trkpt lat="38.17277" lon="15.6671567"><ele>78.4</ele><time>2026-04-24T17:00:28.386Z</time></trkpt><trkpt lat="38.1727633" lon="15.6672833"><ele>78.8</ele><time>2026-04-24T17:00:29.387Z</time></trkpt><trkpt lat="38.1727567" lon="15.6673933"><ele>79.2</ele><time>2026-04-24T17:00:30.386Z</time></trkpt><trkpt lat="38.1727583" lon="15.6674867"><ele>79.6</ele><time>2026-04-24T17:00:31.387Z</time></trkpt><trkpt lat="38.172785" lon="15.6676233"><ele>80.0</ele><time>2026-04-24T17:00:33.387Z</time></trkpt><trkpt lat="38.17289" lon="15.6677133"><ele>80.0</ele><time>2026-04-24T17:00:35.386Z</time></trkpt><trkpt lat="38.1729717" lon="15.6677217"><ele>80.0</ele><time>2026-04-24T17:00:36.387Z</time></trkpt><trkpt lat="38.17306" lon="15.6677267"><ele>80.0</ele><time>2026-04-24T17:00:37.387Z</time></trkpt><trkpt lat="38.173155" lon="15.6677367"><ele>80.0</ele><time>2026-04-24T17:00:38.386Z</time></trkpt><trkpt lat="38.1732483" lon="15.6677517"><ele>80.0</ele><time>2026-04-24T17:00:39.386Z</time></trkpt><trkpt lat="38.1733383" lon="15.6677717"><ele>81.0</ele><time>2026-04-24T17:00:40.387Z</time></trkpt><trkpt lat="38.1734317" lon="15.6678067"><ele>82.0</ele><time>2026-04-24T17:00:41.386Z</time></trkpt><trkpt lat="38.1735233" lon="15.6678283"><ele>83.0</ele><time>2026-04-24T17:00:42.387Z</time></trkpt><trkpt lat="38.1736083" lon="15.6678533"><ele>84.0</ele><time>2026-04-24T17:00:43.386Z</time></trkpt><trkpt lat="38.1736933" lon="15.6678833"><ele>85.0</ele><time>2026-04-24T17:00:44.386Z</time></trkpt><trkpt lat="38.1737583" lon="15.6679067"><ele>86.0</ele><time>2026-04-24T17:00:45.386Z</time></trkpt><trkpt lat="38.1738567" lon="15.667995"><ele>86.0</ele><time>2026-04-24T17:00:47.386Z</time></trkpt><trkpt lat="38.1738817" lon="15.6680733"><ele>86.0</ele><time>2026-04-24T17:00:48.386Z</time></trkpt><trkpt lat="38.17388" lon="15.6681617"><ele>86.0</ele><time>2026-04-24T17:00:49.387Z</time></trkpt><trkpt lat="38.1738633" lon="15.6682717"><ele>86.0</ele><time>2026-04-24T17:00:50.386Z</time></trkpt><trkpt lat="38.1738367" lon="15.6683967"><ele>86.0</ele><time>2026-04-24T17:00:51.386Z</time></trkpt><trkpt lat="38.1738133" lon="15.668525"><ele>86.0</ele><time>2026-04-24T17:00:52.386Z</time></trkpt><trkpt lat="38.1737933" lon="15.66864"><ele>87.0</ele><time>2026-04-24T17:00:53.387Z</time></trkpt><trkpt lat="38.173775" lon="15.66879"><ele>88.0</ele><time>2026-04-24T17:00:54.386Z</time></trkpt><trkpt lat="38.1737533" lon="15.6689217"><ele>89.0</ele><time>2026-04-24T17:00:55.387Z</time></trkpt><trkpt lat="38.1737417" lon="15.6690483"><ele>90.0</ele><time>2026-04-24T17:00:56.386Z</time></trkpt><trkpt lat="38.1737467" lon="15.6691633"><ele>91.0</ele><time>2026-04-24T17:00:57.386Z</time></trkpt><trkpt lat="38.1737667" lon="15.66926"><ele>91.0</ele><time>2026-04-24T17:00:58.386Z</time></trkpt><trkpt lat="38.17382" lon="15.66934"><ele>91.0</ele><time>2026-04-24T17:00:59.387Z</time></trkpt><trkpt lat="38.1738967" lon="15.6693983"><ele>91.0</ele><time>2026-04-24T17:01:00.386Z</time></trkpt><trkpt lat="38.1739717" lon="15.6694417"><ele>91.0</ele><time>2026-04-24T17:01:01.386Z</time></trkpt><trkpt lat="38.17405" lon="15.6695267"><ele>91.0</ele><time>2026-04-24T17:01:03.387Z</time></trkpt><trkpt lat="38.1740533" lon="15.6696983"><ele>91.8</ele><time>2026-04-24T17:01:05.387Z</time></trkpt><trkpt lat="38.174035" lon="15.6698183"><ele>92.6</ele><time>2026-04-24T17:01:06.386Z</time></trkpt><trkpt lat="38.1740117" lon="15.66995"><ele>93.4</ele><time>2026-04-24T17:01:07.386Z</time></trkpt><trkpt lat="38.1739867" lon="15.67007"><ele>94.2</ele><time>2026-04-24T17:01:08.386Z</time></trkpt><trkpt lat="38.1739683" lon="15.6701683"><ele>95.0</ele><time>2026-04-24T17:01:09.386Z</time></trkpt><trkpt lat="38.17393" lon="15.6702883"><ele>96.2</ele><time>2026-04-24T17:01:11.386Z</time></trkpt><trkpt lat="38.1738717" lon="15.67036"><ele>97.4</ele><time>2026-04-24T17:01:13.387Z</time></trkpt><trkpt lat="38.173825" lon="15.6705167"><ele>98.6</ele><time>2026-04-24T17:01:15.387Z</time></trkpt><trkpt lat="38.173815" lon="15.6705983"><ele>99.8</ele><time>2026-04-24T17:01:16.386Z</time></trkpt><trkpt lat="38.1738067" lon="15.67075"><ele>101.0</ele><time>2026-04-24T17:01:18.387Z</time></trkpt><trkpt lat="38.1738117" lon="15.6708567"><ele>100.99999999999999</ele><time>2026-04-24T17:01:56.387Z</time></trkpt><trkpt lat="38.1737717" lon="15.67092"><ele>101.0</ele><time>2026-04-24T17:01:58.387Z</time></trkpt><trkpt lat="38.1738117" lon="15.670815"><ele>101.0</ele><time>2026-04-24T17:02:07.386Z</time></trkpt><trkpt lat="38.1738367" lon="15.67074"><ele>101.0</ele><time>2026-04-24T17:02:09.386Z</time></trkpt><trkpt lat="38.1739183" lon="15.6707233"><ele>100.99999999999999</ele><time>2026-04-24T17:02:49.386Z</time></trkpt><trkpt lat="38.1740067" lon="15.6707067"><ele>101.0</ele><time>2026-04-24T17:02:51.387Z</time></trkpt><trkpt lat="38.174095" lon="15.6707433"><ele>103.0</ele><time>2026-04-24T17:02:53.386Z</time></trkpt><trkpt lat="38.1741783" lon="15.6707717"><ele>103.0</ele><time>2026-04-24T17:02:56.386Z</time></trkpt></trkseg></trk></gpx>